<?xml version='1.0' encoding='UTF-8'?><gpx version="1.1" creator="JPX - https://github.com/jenetics/jpx" xmlns="http://www.topografix.com/GPX/1/1"><trk><trkseg><trkpt lat="14.558239824184275" lon="120.99537433067309"><ele>9.0</ele><time>2026-04-20T05:18:33.998Z</time></trkpt><trkpt lat="14.558174762414007" lon="120.99535229508135"><ele>9.0</ele><time>2026-04-20T05:18:36.998Z</time></trkpt><trkpt lat="14.558042184339198" lon="120.99534640795657"><ele>9.0</ele><time>2026-04-20T05:18:40.997Z</time></trkpt><trkpt lat="14.557966759816805" lon="120.99535033857521"><ele>9.0</ele><time>2026-04-20T05:18:42.998Z</time></trkpt><trkpt lat="14.557886168739943" lon="120.99536386206496"><ele>9.0</ele><time>2026-04-20T05:18:45.998Z</time></trkpt><trkpt lat="14.55779329874243" lon="120.99536908083944"><ele>8.75</ele><time>2026-04-20T05:18:49.073Z</time></trkpt><trkpt lat="14.557626675767908" lon="120.99556821064937"><ele>8.5</ele><time>2026-04-20T05:18:51.028Z</time></trkpt><trkpt lat="14.557550553929298" lon="120.99560266522718"><ele>8.25</ele><time>2026-04-20T05:18:53.023Z</time></trkpt><trkpt lat="14.557474229298714" lon="120.99563713831581"><ele>8.0</ele><time>2026-04-20T05:18:55.024Z</time></trkpt><trkpt lat="14.557459662899436" lon="120.99592117935775"><ele>8.0</ele><time>2026-04-20T05:18:57.025Z</time></trkpt><trkpt lat="14.557761500024949" lon="120.99561280867273"><ele>8.0</ele><time>2026-04-20T05:18:58.025Z</time></trkpt><trkpt lat="14.557716027930887" lon="120.99569732898257"><ele>8.0</ele><time>2026-04-20T05:19:02.027Z</time></trkpt><trkpt lat="14.558678037889992" lon="120.99466887262496"><ele>8.0</ele><time>2026-04-20T05:20:08.577Z</time></trkpt><trkpt lat="14.55770605152882" lon="120.9949964432089"><ele>8.0</ele><time>2026-04-20T05:20:12Z</time></trkpt><trkpt lat="14.557728895740237" lon="120.99491620332915"><ele>7.999999999999999</ele><time>2026-04-20T05:21:05.999Z</time></trkpt><trkpt lat="14.55779020053416" lon="120.9948876026379"><ele>8.0</ele><time>2026-04-20T05:21:07.999Z</time></trkpt><trkpt lat="14.557847344927747" lon="120.99485707137198"><ele>8.0</ele><time>2026-04-20T05:21:09.999Z</time></trkpt><trkpt lat="14.557919095930053" lon="120.99482927991436"><ele>7.999999999999999</ele><time>2026-04-20T05:21:12.999Z</time></trkpt><trkpt lat="14.558003875335451" lon="120.99481040507114"><ele>8.0</ele><time>2026-04-20T05:21:15.999Z</time></trkpt><trkpt lat="14.558075897632095" lon="120.99479880025086"><ele>8.0</ele><time>2026-04-20T05:21:17.999Z</time></trkpt><trkpt lat="14.558183317431713" lon="120.99478098840261"><ele>8.0</ele><time>2026-04-20T05:21:19.999Z</time></trkpt><trkpt lat="14.558292157612918" lon="120.99476603607316"><ele>8.0</ele><time>2026-04-20T05:21:21.999Z</time></trkpt><trkpt lat="14.558408103078076" lon="120.9947501669061"><ele>8.0</ele><time>2026-04-20T05:21:23.999Z</time></trkpt><trkpt lat="14.558531736171565" lon="120.99473063679372"><ele>8.0</ele><time>2026-04-20T05:21:25.999Z</time></trkpt><trkpt lat="14.558632301028236" lon="120.99472132390993"><ele>8.0</ele><time>2026-04-20T05:21:27.999Z</time></trkpt><trkpt lat="14.558696889975602" lon="120.9947189740819"><ele>7.999999999999999</ele><time>2026-04-20T05:21:29.999Z</time></trkpt><trkpt lat="14.558778945701238" lon="120.99471147173524"><ele>8.0</ele><time>2026-04-20T05:21:32.999Z</time></trkpt><trkpt lat="14.558853204621778" lon="120.99469176473156"><ele>8.0</ele><time>2026-04-20T05:21:35Z</time></trkpt><trkpt lat="14.558929380848054" lon="120.99468499860191"><ele>7.999999999999999</ele><time>2026-04-20T05:21:37Z</time></trkpt><trkpt lat="14.559001706265978" lon="120.99467016463619"><ele>8.0</ele><time>2026-04-20T05:21:39Z</time></trkpt><trkpt lat="14.559070391224326" lon="120.99466314488612"><ele>8.0</ele><time>2026-04-20T05:21:41Z</time></trkpt><trkpt lat="14.559153383022942" lon="120.99465514984281"><ele>8.166666666666666</ele><time>2026-04-20T05:21:43Z</time></trkpt><trkpt lat="14.559240870904507" lon="120.99464957925508"><ele>8.333333333333332</ele><time>2026-04-20T05:21:45Z</time></trkpt><trkpt lat="14.559329741408098" lon="120.99464096622738"><ele>8.5</ele><time>2026-04-20T05:21:47Z</time></trkpt><trkpt lat="14.55942330318736" lon="120.99463788705563"><ele>8.666666666666666</ele><time>2026-04-20T05:21:49Z</time></trkpt><trkpt lat="14.559494962705886" lon="120.99462405313174"><ele>8.833333333333334</ele><time>2026-04-20T05:21:51Z</time></trkpt><trkpt lat="14.559571420154441" lon="120.99459975521012"><ele>9.0</ele><time>2026-04-20T05:21:54Z</time></trkpt><trkpt lat="14.559660251829591" lon="120.99458376932232"><ele>9.166666666666666</ele><time>2026-04-20T05:21:59Z</time></trkpt><trkpt lat="14.559733535479253" lon="120.99457368574829"><ele>9.333333333333334</ele><time>2026-04-20T05:22:01Z</time></trkpt><trkpt lat="14.559812448520331" lon="120.99455974595952"><ele>9.5</ele><time>2026-04-20T05:22:03Z</time></trkpt><trkpt lat="14.559883254692133" lon="120.99453972739633"><ele>9.666666666666668</ele><time>2026-04-20T05:22:05Z</time></trkpt><trkpt lat="14.559954032233554" lon="120.9945166608843"><ele>9.833333333333334</ele><time>2026-04-20T05:22:08Z</time></trkpt><trkpt lat="14.560095080937371" lon="120.99449061172962"><ele>10.0</ele><time>2026-04-20T05:22:11Z</time></trkpt><trkpt lat="14.560184692872875" lon="120.99446475015445"><ele>10.0</ele><time>2026-04-20T05:22:12Z</time></trkpt><trkpt lat="14.560242813594666" lon="120.99443306763507"><ele>10.0</ele><time>2026-04-20T05:22:13Z</time></trkpt><trkpt lat="14.560333630891975" lon="120.99437840403"><ele>10.0</ele><time>2026-04-20T05:22:15Z</time></trkpt><trkpt lat="14.560399751142965" lon="120.99434328981837"><ele>10.0</ele><time>2026-04-20T05:22:16Z</time></trkpt><trkpt lat="14.560482063913579" lon="120.99430292595203"><ele>10.0</ele><time>2026-04-20T05:22:17Z</time></trkpt><trkpt lat="14.560549703140568" lon="120.99425734265746"><ele>10.0</ele><time>2026-04-20T05:22:18Z</time></trkpt><trkpt lat="14.560612931857241" lon="120.99422781435854"><ele>10.0</ele><time>2026-04-20T05:22:19Z</time></trkpt><trkpt lat="14.560680705942218" lon="120.99420104378932"><ele>10.0</ele><time>2026-04-20T05:22:20Z</time></trkpt><trkpt lat="14.5607435596197" lon="120.9941605121068"><ele>10.0</ele><time>2026-04-20T05:22:21Z</time></trkpt><trkpt lat="14.560804913907257" lon="120.99412644835463"><ele>10.0</ele><time>2026-04-20T05:22:22Z</time></trkpt><trkpt lat="14.560902966611401" lon="120.99407254129697"><ele>10.0</ele><time>2026-04-20T05:22:24Z</time></trkpt><trkpt lat="14.561008812453286" lon="120.99404320993125"><ele>10.0</ele><time>2026-04-20T05:22:26Z</time></trkpt><trkpt lat="14.56109387186862" lon="120.99398089065988"><ele>10.0</ele><time>2026-04-20T05:22:28Z</time></trkpt><trkpt lat="14.56116817441913" lon="120.99395619255851"><ele>10.0</ele><time>2026-04-20T05:22:30Z</time></trkpt><trkpt lat="14.561267570701158" lon="120.9940326829365"><ele>10.0</ele><time>2026-04-20T05:22:33Z</time></trkpt><trkpt lat="14.561320354510757" lon="120.99408694506336"><ele>10.0</ele><time>2026-04-20T05:22:35Z</time></trkpt><trkpt lat="14.561363268875237" lon="120.99394438168285"><ele>10.0</ele><time>2026-04-20T05:22:42Z</time></trkpt><trkpt lat="14.561327518874482" lon="120.99388163834814"><ele>10.0</ele><time>2026-04-20T05:22:43Z</time></trkpt><trkpt lat="14.561305154834594" lon="120.99381285461425"><ele>10.0</ele><time>2026-04-20T05:22:44Z</time></trkpt><trkpt lat="14.561275637352448" lon="120.99373640592368"><ele>10.0</ele><time>2026-04-20T05:22:45Z</time></trkpt><trkpt lat="14.561249223963971" lon="120.99364505129758"><ele>10.0</ele><time>2026-04-20T05:22:46Z</time></trkpt><trkpt lat="14.561228047996675" lon="120.99356161468803"><ele>10.0</ele><time>2026-04-20T05:22:47Z</time></trkpt><trkpt lat="14.5612027082357" lon="120.99346736985609"><ele>10.0</ele><time>2026-04-20T05:22:48Z</time></trkpt><trkpt lat="14.561177630761495" lon="120.99339213929385"><ele>10.0</ele><time>2026-04-20T05:22:49Z</time></trkpt><trkpt lat="14.561166752661071" lon="120.9933056691954"><ele>10.0</ele><time>2026-04-20T05:22:50Z</time></trkpt><trkpt lat="14.561159639429299" lon="120.99321172310235"><ele>10.0</ele><time>2026-04-20T05:22:51Z</time></trkpt><trkpt lat="14.561136117093143" lon="120.99313126011461"><ele>10.0</ele><time>2026-04-20T05:22:52Z</time></trkpt><trkpt lat="14.561120634514689" lon="120.99305367437181"><ele>10.0</ele><time>2026-04-20T05:22:52.999Z</time></trkpt><trkpt lat="14.561103660771817" lon="120.9929726709417"><ele>10.0</ele><time>2026-04-20T05:22:53.999Z</time></trkpt><trkpt lat="14.561082020987197" lon="120.99288204897248"><ele>10.0</ele><time>2026-04-20T05:22:54.999Z</time></trkpt><trkpt lat="14.561059035244186" lon="120.99279218672798"><ele>10.0</ele><time>2026-04-20T05:22:55.999Z</time></trkpt><trkpt lat="14.561032940433364" lon="120.99269558264596"><ele>10.0</ele><time>2026-04-20T05:22:56.999Z</time></trkpt><trkpt lat="14.561008756335283" lon="120.99260607433949"><ele>10.0</ele><time>2026-04-20T05:22:57.999Z</time></trkpt><trkpt lat="14.560988125480014" lon="120.99250983397948"><ele>10.0</ele><time>2026-04-20T05:22:58.999Z</time></trkpt><trkpt lat="14.560967965028553" lon="120.99242106697469"><ele>10.0</ele><time>2026-04-20T05:22:59.999Z</time></trkpt><trkpt lat="14.560938667330932" lon="120.99233023012405"><ele>10.0</ele><time>2026-04-20T05:23:00.999Z</time></trkpt><trkpt lat="14.560914733441376" lon="120.99224527190422"><ele>10.0</ele><time>2026-04-20T05:23:01.999Z</time></trkpt><trkpt lat="14.56089273917879" lon="120.9921679327288"><ele>10.0</ele><time>2026-04-20T05:23:02.999Z</time></trkpt><trkpt lat="14.560873052710702" lon="120.99208934711469"><ele>10.0</ele><time>2026-04-20T05:23:03.999Z</time></trkpt><trkpt lat="14.560837134831173" lon="120.99197669447132"><ele>10.0</ele><time>2026-04-20T05:23:04.999Z</time></trkpt><trkpt lat="14.560815999939067" lon="120.99188574917162"><ele>10.0</ele><time>2026-04-20T05:23:05.999Z</time></trkpt><trkpt lat="14.56079104313242" lon="120.99178975170281"><ele>10.0</ele><time>2026-04-20T05:23:06.999Z</time></trkpt><trkpt lat="14.560771085314622" lon="120.99170057092473"><ele>10.0</ele><time>2026-04-20T05:23:07.999Z</time></trkpt><trkpt lat="14.560746951885701" lon="120.99160307668423"><ele>10.0</ele><time>2026-04-20T05:23:08.999Z</time></trkpt><trkpt lat="14.560728248937204" lon="120.99151519952568"><ele>10.2</ele><time>2026-04-20T05:23:09.999Z</time></trkpt><trkpt lat="14.560700250561007" lon="120.99141414934086"><ele>10.4</ele><time>2026-04-20T05:23:10.999Z</time></trkpt><trkpt lat="14.560672410206063" lon="120.99132043264008"><ele>10.600000000000001</ele><time>2026-04-20T05:23:11.999Z</time></trkpt><trkpt lat="14.560645826127727" lon="120.99122118749781"><ele>10.8</ele><time>2026-04-20T05:23:12.999Z</time></trkpt><trkpt lat="14.56062254795134" lon="120.99112314419014"><ele>11.0</ele><time>2026-04-20T05:23:13.999Z</time></trkpt><trkpt lat="14.560598177898521" lon="120.99102129013086"><ele>11.0</ele><time>2026-04-20T05:23:14.999Z</time></trkpt><trkpt lat="14.560573030814414" lon="120.99092153125513"><ele>11.0</ele><time>2026-04-20T05:23:15.999Z</time></trkpt><trkpt lat="14.560543942356285" lon="120.99081384560043"><ele>11.0</ele><time>2026-04-20T05:23:16.999Z</time></trkpt><trkpt lat="14.56052004129379" lon="120.99071338635318"><ele>11.0</ele><time>2026-04-20T05:23:18Z</time></trkpt><trkpt lat="14.560494270279687" lon="120.9906105852433"><ele>11.0</ele><time>2026-04-20T05:23:19Z</time></trkpt><trkpt lat="14.560468518087346" lon="120.99050881531439"><ele>11.0</ele><time>2026-04-20T05:23:20Z</time></trkpt><trkpt lat="14.560450175737538" lon="120.99041838112353"><ele>11.0</ele><time>2026-04-20T05:23:21Z</time></trkpt><trkpt lat="14.560430948727786" lon="120.99034026725275"><ele>11.0</ele><time>2026-04-20T05:23:22Z</time></trkpt><trkpt lat="14.560412040797647" lon="120.9902710799777"><ele>11.0</ele><time>2026-04-20T05:23:23Z</time></trkpt><trkpt lat="14.560379175992582" lon="120.99014179739446"><ele>11.0</ele><time>2026-04-20T05:23:25Z</time></trkpt><trkpt lat="14.56036403981515" lon="120.99007296596689"><ele>11.0</ele><time>2026-04-20T05:23:26Z</time></trkpt><trkpt lat="14.560345106272297" lon="120.98999645050714"><ele>11.0</ele><time>2026-04-20T05:23:27Z</time></trkpt><trkpt lat="14.560330424088725" lon="120.98993198974733"><ele>11.0</ele><time>2026-04-20T05:23:28Z</time></trkpt><trkpt lat="14.560302720826403" lon="120.98983426298746"><ele>11.0</ele><time>2026-04-20T05:23:30Z</time></trkpt><trkpt lat="14.56028999615586" lon="120.98975531223752"><ele>11.0</ele><time>2026-04-20T05:23:32Z</time></trkpt><trkpt lat="14.560272391307887" lon="120.98968434681876"><ele>11.0</ele><time>2026-04-20T05:23:34Z</time></trkpt><trkpt lat="14.560256225715456" lon="120.98961918304194"><ele>11.0</ele><time>2026-04-20T05:23:37Z</time></trkpt><trkpt lat="14.560234949856119" lon="120.98953341971104"><ele>11.0</ele><time>2026-04-20T05:23:52Z</time></trkpt><trkpt lat="14.560203615133654" lon="120.9894380291875"><ele>11.0</ele><time>2026-04-20T05:23:54Z</time></trkpt><trkpt lat="14.56019083888719" lon="120.98937302315252"><ele>11.0</ele><time>2026-04-20T05:23:55Z</time></trkpt><trkpt lat="14.560176382586182" lon="120.98930049458552"><ele>11.0</ele><time>2026-04-20T05:23:56Z</time></trkpt><trkpt lat="14.560156678450697" lon="120.98921854639694"><ele>11.0</ele><time>2026-04-20T05:23:57Z</time></trkpt><trkpt lat="14.56012625200206" lon="120.98914989126796"><ele>11.0</ele><time>2026-04-20T05:23:58Z</time></trkpt><trkpt lat="14.560105301993344" lon="120.98904101523677"><ele>11.5</ele><time>2026-04-20T05:23:59Z</time></trkpt><trkpt lat="14.56007282290384" lon="120.98891122190727"><ele>12.0</ele><time>2026-04-20T05:24:00Z</time></trkpt><trkpt lat="14.560036638798481" lon="120.98877174156075"><ele>12.5</ele><time>2026-04-20T05:24:01Z</time></trkpt><trkpt lat="14.56001330020385" lon="120.98868237557102"><ele>13.0</ele><time>2026-04-20T05:24:03Z</time></trkpt><trkpt lat="14.559985171411943" lon="120.98857466734573"><ele>13.0</ele><time>2026-04-20T05:24:04Z</time></trkpt><trkpt lat="14.559957130115684" lon="120.98846729405906"><ele>13.0</ele><time>2026-04-20T05:24:05Z</time></trkpt><trkpt lat="14.559931260561044" lon="120.98836844916605"><ele>13.0</ele><time>2026-04-20T05:24:06Z</time></trkpt><trkpt lat="14.559909080959969" lon="120.98828334550784"><ele>13.0</ele><time>2026-04-20T05:24:07Z</time></trkpt><trkpt lat="14.559887183209932" lon="120.98819932328664"><ele>13.0</ele><time>2026-04-20T05:24:08Z</time></trkpt><trkpt lat="14.559864158588274" lon="120.98811097729232"><ele>13.0</ele><time>2026-04-20T05:24:09Z</time></trkpt><trkpt lat="14.559842262032381" lon="120.98802695969329"><ele>13.0</ele><time>2026-04-20T05:24:10Z</time></trkpt><trkpt lat="14.55982374020722" lon="120.9879558909758"><ele>13.0</ele><time>2026-04-20T05:24:11Z</time></trkpt><trkpt lat="14.559792393019002" lon="120.98783561108823"><ele>13.0</ele><time>2026-04-20T05:24:13Z</time></trkpt><trkpt lat="14.559767363583275" lon="120.98773957255041"><ele>13.0</ele><time>2026-04-20T05:24:15Z</time></trkpt><trkpt lat="14.559731347801007" lon="120.98765538577295"><ele>12.999999999999998</ele><time>2026-04-20T05:24:17Z</time></trkpt><trkpt lat="14.559713094469384" lon="120.98758905046901"><ele>13.0</ele><time>2026-04-20T05:24:20Z</time></trkpt><trkpt lat="14.559693593324631" lon="120.9874730692452"><ele>13.0</ele><time>2026-04-20T05:24:58.999Z</time></trkpt><trkpt lat="14.559674030103105" lon="120.98735456300793"><ele>13.0</ele><time>2026-04-20T05:25:00.999Z</time></trkpt><trkpt lat="14.55965744496388" lon="120.98727755978916"><ele>12.999999999999998</ele><time>2026-04-20T05:25:01.999Z</time></trkpt><trkpt lat="14.559627969888334" lon="120.98721842693094"><ele>13.0</ele><time>2026-04-20T05:25:02.999Z</time></trkpt><trkpt lat="14.559609546732633" lon="120.98710554974745"><ele>12.0</ele><time>2026-04-20T05:25:04.999Z</time></trkpt><trkpt lat="14.559329758294343" lon="120.98712276395779"><ele>11.0</ele><time>2026-04-20T05:25:07.999Z</time></trkpt><trkpt lat="14.559247063768058" lon="120.98715127650354"><ele>10.0</ele><time>2026-04-20T05:25:08.999Z</time></trkpt><trkpt lat="14.559188088436311" lon="120.98718715106465"><ele>9.0</ele><time>2026-04-20T05:25:09.999Z</time></trkpt><trkpt lat="14.559102787446703" lon="120.98722119602597"><ele>9.0</ele><time>2026-04-20T05:25:10.999Z</time></trkpt><trkpt lat="14.558997210408798" lon="120.98727507915173"><ele>9.0</ele><time>2026-04-20T05:25:11.999Z</time></trkpt><trkpt lat="14.55887738550904" lon="120.9873212400205"><ele>9.0</ele><time>2026-04-20T05:25:12.999Z</time></trkpt><trkpt lat="14.558759400782495" lon="120.9873707325158"><ele>9.0</ele><time>2026-04-20T05:25:13.999Z</time></trkpt><trkpt lat="14.558632267754136" lon="120.98741742710706"><ele>9.0</ele><time>2026-04-20T05:25:14.999Z</time></trkpt><trkpt lat="14.55848946520464" lon="120.98747610079707"><ele>9.0</ele><time>2026-04-20T05:25:15.999Z</time></trkpt><trkpt lat="14.558334063783171" lon="120.98754523879492"><ele>9.0</ele><time>2026-04-20T05:25:16.999Z</time></trkpt><trkpt lat="14.558203727840564" lon="120.98757540771125"><ele>8.0</ele><time>2026-04-20T05:25:17.999Z</time></trkpt><trkpt lat="14.558055951619423" lon="120.9876199014209"><ele>7.0</ele><time>2026-04-20T05:25:18.999Z</time></trkpt><trkpt lat="14.55790491071099" lon="120.98767039355975"><ele>6.0</ele><time>2026-04-20T05:25:19.999Z</time></trkpt><trkpt lat="14.557748011436198" lon="120.98772380197744"><ele>6.0</ele><time>2026-04-20T05:25:20.999Z</time></trkpt><trkpt lat="14.557591477283095" lon="120.98778514652474"><ele>6.0</ele><time>2026-04-20T05:25:21.999Z</time></trkpt><trkpt lat="14.557431389125489" lon="120.98783520982661"><ele>6.0</ele><time>2026-04-20T05:25:22.999Z</time></trkpt><trkpt lat="14.557268743215435" lon="120.9878827934582"><ele>6.0</ele><time>2026-04-20T05:25:23.999Z</time></trkpt><trkpt lat="14.557103208586883" lon="120.9879334187544"><ele>6.0</ele><time>2026-04-20T05:25:24.999Z</time></trkpt><trkpt lat="14.556935725595762" lon="120.98798829227808"><ele>6.0</ele><time>2026-04-20T05:25:25.999Z</time></trkpt><trkpt lat="14.556763881962429" lon="120.98804479103026"><ele>7.0</ele><time>2026-04-20T05:25:26.999Z</time></trkpt><trkpt lat="14.556589163202565" lon="120.98810187506932"><ele>8.0</ele><time>2026-04-20T05:25:27.999Z</time></trkpt><trkpt lat="14.556413239465817" lon="120.98816016088303"><ele>9.0</ele><time>2026-04-20T05:25:28.999Z</time></trkpt><trkpt lat="14.556238803864332" lon="120.98821769791128"><ele>8.666666666666666</ele><time>2026-04-20T05:25:29.999Z</time></trkpt><trkpt lat="14.556062598976093" lon="120.98827074236185"><ele>8.333333333333332</ele><time>2026-04-20T05:25:30.999Z</time></trkpt><trkpt lat="14.55589092518423" lon="120.98832585513716"><ele>8.0</ele><time>2026-04-20T05:25:31.999Z</time></trkpt><trkpt lat="14.555716379191278" lon="120.98838419105671"><ele>8.0</ele><time>2026-04-20T05:25:32.999Z</time></trkpt><trkpt lat="14.555542765396954" lon="120.98843919464045"><ele>8.0</ele><time>2026-04-20T05:25:33.999Z</time></trkpt><trkpt lat="14.55537260479589" lon="120.98849103186765"><ele>8.0</ele><time>2026-04-20T05:25:34.999Z</time></trkpt><trkpt lat="14.555203724179929" lon="120.98854017019721"><ele>7.333333333333333</ele><time>2026-04-20T05:25:35.999Z</time></trkpt><trkpt lat="14.555033905188504" lon="120.98859009225657"><ele>6.666666666666666</ele><time>2026-04-20T05:25:36.999Z</time></trkpt><trkpt lat="14.554864927206653" lon="120.98863795032484"><ele>6.0</ele><time>2026-04-20T05:25:37.999Z</time></trkpt><trkpt lat="14.55469638565649" lon="120.9886873347602"><ele>6.333333333333334</ele><time>2026-04-20T05:25:38.999Z</time></trkpt><trkpt lat="14.55453201093169" lon="120.98873167320946"><ele>6.666666666666667</ele><time>2026-04-20T05:25:39.999Z</time></trkpt><trkpt lat="14.554377705718936" lon="120.98878030980133"><ele>7.0</ele><time>2026-04-20T05:25:40.999Z</time></trkpt><trkpt lat="14.554227011814849" lon="120.9888253719952"><ele>7.0</ele><time>2026-04-20T05:25:41.999Z</time></trkpt><trkpt lat="14.554093749006054" lon="120.98886804689621"><ele>7.0</ele><time>2026-04-20T05:25:42.999Z</time></trkpt><trkpt lat="14.553965974523594" lon="120.98890919646885"><ele>7.0</ele><time>2026-04-20T05:25:43.999Z</time></trkpt><trkpt lat="14.553863973909586" lon="120.98894444036877"><ele>7.0</ele><time>2026-04-20T05:25:44.999Z</time></trkpt><trkpt lat="14.553742617183966" lon="120.98898572275753"><ele>6.8</ele><time>2026-04-20T05:25:45.999Z</time></trkpt><trkpt lat="14.553642297329066" lon="120.98901956356606"><ele>6.6</ele><time>2026-04-20T05:25:46.999Z</time></trkpt><trkpt lat="14.553545889382066" lon="120.98905136050703"><ele>6.3999999999999995</ele><time>2026-04-20T05:25:47.999Z</time></trkpt><trkpt lat="14.5534624364601" lon="120.98907801224931"><ele>6.199999999999999</ele><time>2026-04-20T05:25:48.999Z</time></trkpt><trkpt lat="14.553377568865097" lon="120.98911160888414"><ele>6.0</ele><time>2026-04-20T05:25:49.999Z</time></trkpt><trkpt lat="14.55329522358378" lon="120.98914122761333"><ele>6.0</ele><time>2026-04-20T05:25:50.999Z</time></trkpt><trkpt lat="14.553210909343115" lon="120.9891695791657"><ele>6.0</ele><time>2026-04-20T05:25:51.999Z</time></trkpt><trkpt lat="14.553139375411078" lon="120.98918919954289"><ele>6.0</ele><time>2026-04-20T05:25:52.999Z</time></trkpt><trkpt lat="14.553059540107885" lon="120.98921569594326"><ele>6.0</ele><time>2026-04-20T05:25:53.999Z</time></trkpt><trkpt lat="14.552972972582882" lon="120.98924381244653"><ele>6.0</ele><time>2026-04-20T05:25:54.999Z</time></trkpt><trkpt lat="14.552881336067637" lon="120.98927188495335"><ele>6.0</ele><time>2026-04-20T05:25:55.999Z</time></trkpt><trkpt lat="14.552790088384128" lon="120.98930157018958"><ele>6.8</ele><time>2026-04-20T05:25:56.999Z</time></trkpt><trkpt lat="14.552704386090902" lon="120.98933002613312"><ele>7.6</ele><time>2026-04-20T05:25:57.999Z</time></trkpt><trkpt lat="14.552606083008161" lon="120.98936083131757"><ele>8.4</ele><time>2026-04-20T05:25:58.999Z</time></trkpt><trkpt lat="14.552505098962452" lon="120.98939467523044"><ele>9.2</ele><time>2026-04-20T05:25:59.999Z</time></trkpt><trkpt lat="14.55239511475175" lon="120.98942943834678"><ele>10.0</ele><time>2026-04-20T05:26:00.999Z</time></trkpt><trkpt lat="14.552281058269442" lon="120.98946679777328"><ele>10.0</ele><time>2026-04-20T05:26:01.999Z</time></trkpt><trkpt lat="14.552181126924184" lon="120.98949851041985"><ele>10.0</ele><time>2026-04-20T05:26:02.999Z</time></trkpt><trkpt lat="14.552065193082294" lon="120.98953437711656"><ele>10.0</ele><time>2026-04-20T05:26:03.999Z</time></trkpt><trkpt lat="14.551959667433175" lon="120.98956447831729"><ele>10.0</ele><time>2026-04-20T05:26:04.999Z</time></trkpt><trkpt lat="14.55185581191681" lon="120.98959834065555"><ele>10.0</ele><time>2026-04-20T05:26:05.999Z</time></trkpt><trkpt lat="14.551762039262208" lon="120.9896248599174"><ele>9.8</ele><time>2026-04-20T05:26:06.999Z</time></trkpt><trkpt lat="14.551666525420874" lon="120.9896540576298"><ele>9.6</ele><time>2026-04-20T05:26:07.999Z</time></trkpt><trkpt lat="14.551557665308184" lon="120.98968970877259"><ele>9.4</ele><time>2026-04-20T05:26:08.999Z</time></trkpt><trkpt lat="14.551450449382642" lon="120.98970867844628"><ele>9.2</ele><time>2026-04-20T05:26:09.999Z</time></trkpt><trkpt lat="14.55133922677885" lon="120.98973141736323"><ele>9.0</ele><time>2026-04-20T05:26:10.999Z</time></trkpt><trkpt lat="14.551233536494422" lon="120.98975438133914"><ele>8.5</ele><time>2026-04-20T05:26:11.999Z</time></trkpt><trkpt lat="14.5511285877597" lon="120.98977802592405"><ele>8.0</ele><time>2026-04-20T05:26:12.999Z</time></trkpt><trkpt lat="14.551017306538899" lon="120.98980796487653"><ele>7.5</ele><time>2026-04-20T05:26:13.999Z</time></trkpt><trkpt lat="14.550900822077951" lon="120.98983790512551"><ele>7.0</ele><time>2026-04-20T05:26:14.999Z</time></trkpt><trkpt lat="14.550783023607927" lon="120.98986655137756"><ele>7.0</ele><time>2026-04-20T05:26:15.999Z</time></trkpt><trkpt lat="14.550661119246033" lon="120.98989609190052"><ele>7.0</ele><time>2026-04-20T05:26:16.999Z</time></trkpt><trkpt lat="14.550549701047876" lon="120.98992234911687"><ele>7.0</ele><time>2026-04-20T05:26:17.999Z</time></trkpt><trkpt lat="14.550443007705875" lon="120.98994742992565"><ele>7.0</ele><time>2026-04-20T05:26:18.999Z</time></trkpt><trkpt lat="14.550335550950898" lon="120.98997120848217"><ele>7.25</ele><time>2026-04-20T05:26:19.999Z</time></trkpt><trkpt lat="14.550236882234756" lon="120.98999291124358"><ele>7.5</ele><time>2026-04-20T05:26:20.999Z</time></trkpt><trkpt lat="14.55011659810594" lon="120.99002178891594"><ele>7.75</ele><time>2026-04-20T05:26:21.999Z</time></trkpt><trkpt lat="14.549998771655757" lon="120.9900460066573"><ele>8.0</ele><time>2026-04-20T05:26:22.999Z</time></trkpt><trkpt lat="14.549882586106738" lon="120.99007071600418"><ele>8.0</ele><time>2026-04-20T05:26:23.999Z</time></trkpt><trkpt lat="14.54974943804566" lon="120.99010225209472"><ele>8.0</ele><time>2026-04-20T05:26:24.999Z</time></trkpt><trkpt lat="14.54961502084255" lon="120.99012787410884"><ele>8.0</ele><time>2026-04-20T05:26:25.999Z</time></trkpt><trkpt lat="14.549486681243597" lon="120.99015274593279"><ele>8.0</ele><time>2026-04-20T05:26:26.999Z</time></trkpt><trkpt lat="14.549380449414201" lon="120.99018102079401"><ele>8.0</ele><time>2026-04-20T05:26:27.999Z</time></trkpt><trkpt lat="14.54927248916349" lon="120.99021108379308"><ele>8.0</ele><time>2026-04-20T05:26:28.999Z</time></trkpt><trkpt lat="14.54917871665924" lon="120.99023834299015"><ele>8.0</ele><time>2026-04-20T05:26:29.999Z</time></trkpt><trkpt lat="14.549077811020894" lon="120.99026508069689"><ele>8.0</ele><time>2026-04-20T05:26:30.999Z</time></trkpt><trkpt lat="14.548974236248727" lon="120.99029410626228"><ele>8.0</ele><time>2026-04-20T05:26:31.999Z</time></trkpt><trkpt lat="14.548864244553629" lon="120.99031952906306"><ele>8.0</ele><time>2026-04-20T05:26:32.999Z</time></trkpt><trkpt lat="14.548753691225608" lon="120.99033964824135"><ele>8.0</ele><time>2026-04-20T05:26:33.999Z</time></trkpt><trkpt lat="14.548647955160122" lon="120.99036675434944"><ele>8.0</ele><time>2026-04-20T05:26:34.999Z</time></trkpt><trkpt lat="14.548535215062582" lon="120.99039296013073"><ele>8.0</ele><time>2026-04-20T05:26:35.999Z</time></trkpt><trkpt lat="14.548421831459999" lon="120.99042103191296"><ele>9.75</ele><time>2026-04-20T05:26:36.999Z</time></trkpt><trkpt lat="14.548310098951072" lon="120.99044681977098"><ele>11.5</ele><time>2026-04-20T05:26:37.999Z</time></trkpt><trkpt lat="14.54818462608003" lon="120.99047378764848"><ele>13.25</ele><time>2026-04-20T05:26:38.999Z</time></trkpt><trkpt lat="14.548070027066151" lon="120.99050225657761"><ele>15.0</ele><time>2026-04-20T05:26:39.999Z</time></trkpt><trkpt lat="14.547951165701859" lon="120.99053335839608"><ele>13.6</ele><time>2026-04-20T05:26:40.999Z</time></trkpt><trkpt lat="14.547840706122168" lon="120.99056036568552"><ele>12.2</ele><time>2026-04-20T05:26:42Z</time></trkpt><trkpt lat="14.54773769318751" lon="120.99058346683019"><ele>10.8</ele><time>2026-04-20T05:26:43Z</time></trkpt><trkpt lat="14.547642785099113" lon="120.99060578121642"><ele>9.4</ele><time>2026-04-20T05:26:44Z</time></trkpt><trkpt lat="14.547532065050712" lon="120.99063342878105"><ele>8.0</ele><time>2026-04-20T05:26:45Z</time></trkpt><trkpt lat="14.547433660179701" lon="120.99065711989562"><ele>8.0</ele><time>2026-04-20T05:26:46Z</time></trkpt><trkpt lat="14.547337707418642" lon="120.99067950449064"><ele>8.0</ele><time>2026-04-20T05:26:47Z</time></trkpt><trkpt lat="14.547237618302189" lon="120.9907024370187"><ele>8.0</ele><time>2026-04-20T05:26:48Z</time></trkpt><trkpt lat="14.547140937247953" lon="120.99072567137361"><ele>8.0</ele><time>2026-04-20T05:26:49Z</time></trkpt><trkpt lat="14.547040190309923" lon="120.99075156475308"><ele>8.0</ele><time>2026-04-20T05:26:50Z</time></trkpt><trkpt lat="14.546948309566025" lon="120.99076992992981"><ele>7.800000000000001</ele><time>2026-04-20T05:26:51Z</time></trkpt><trkpt lat="14.546839256213099" lon="120.99079570325178"><ele>7.6000000000000005</ele><time>2026-04-20T05:26:52Z</time></trkpt><trkpt lat="14.546745050413627" lon="120.990816391489"><ele>7.3999999999999995</ele><time>2026-04-20T05:26:53Z</time></trkpt><trkpt lat="14.546636537931452" lon="120.99084359312302"><ele>7.199999999999999</ele><time>2026-04-20T05:26:54Z</time></trkpt><trkpt lat="14.546526544786254" lon="120.99086940377802"><ele>7.0</ele><time>2026-04-20T05:26:55Z</time></trkpt><trkpt lat="14.546435734938282" lon="120.99089409480293"><ele>7.0</ele><time>2026-04-20T05:26:56Z</time></trkpt><trkpt lat="14.546312186945876" lon="120.99092195670816"><ele>7.0</ele><time>2026-04-20T05:26:57Z</time></trkpt><trkpt lat="14.546185218121991" lon="120.99095754710935"><ele>7.0</ele><time>2026-04-20T05:26:58Z</time></trkpt><trkpt lat="14.546089504637186" lon="120.99096647031797"><ele>7.0</ele><time>2026-04-20T05:26:59Z</time></trkpt><trkpt lat="14.545965407197565" lon="120.99100531168096"><ele>7.0</ele><time>2026-04-20T05:27:00Z</time></trkpt><trkpt lat="14.545846110212967" lon="120.99102440701117"><ele>7.0</ele><time>2026-04-20T05:27:01Z</time></trkpt><trkpt lat="14.54572600633504" lon="120.99104705665249"><ele>7.0</ele><time>2026-04-20T05:27:02Z</time></trkpt><trkpt lat="14.545590631689869" lon="120.99108718020156"><ele>7.0</ele><time>2026-04-20T05:27:03Z</time></trkpt><trkpt lat="14.545455393692132" lon="120.99112445644352"><ele>8.0</ele><time>2026-04-20T05:27:04Z</time></trkpt><trkpt lat="14.545314949778657" lon="120.99115300490676"><ele>9.0</ele><time>2026-04-20T05:27:04.999Z</time></trkpt><trkpt lat="14.545169354020922" lon="120.99118166298923"><ele>10.0</ele><time>2026-04-20T05:27:05.999Z</time></trkpt><trkpt lat="14.545016289739774" lon="120.99122084642215"><ele>11.0</ele><time>2026-04-20T05:27:06.999Z</time></trkpt><trkpt lat="14.544860239680029" lon="120.99125610717523"><ele>11.0</ele><time>2026-04-20T05:27:07.999Z</time></trkpt><trkpt lat="14.54470115416948" lon="120.99129021643198"><ele>11.0</ele><time>2026-04-20T05:27:08.999Z</time></trkpt><trkpt lat="14.544542559009619" lon="120.99132704474299"><ele>11.0</ele><time>2026-04-20T05:27:09.999Z</time></trkpt><trkpt lat="14.544383070816002" lon="120.99134826236381"><ele>10.0</ele><time>2026-04-20T05:27:10.999Z</time></trkpt><trkpt lat="14.5442191932919" lon="120.99138130330981"><ele>9.0</ele><time>2026-04-20T05:27:11.999Z</time></trkpt><trkpt lat="14.544052424347573" lon="120.99141243526228"><ele>8.0</ele><time>2026-04-20T05:27:12.999Z</time></trkpt><trkpt lat="14.543882305082459" lon="120.99144122368439"><ele>7.333333333333333</ele><time>2026-04-20T05:27:13.999Z</time></trkpt><trkpt lat="14.543710167041771" lon="120.99147147899056"><ele>6.666666666666666</ele><time>2026-04-20T05:27:14.999Z</time></trkpt><trkpt lat="14.543533180616425" lon="120.99149997236702"><ele>6.0</ele><time>2026-04-20T05:27:15.999Z</time></trkpt><trkpt lat="14.543356352793015" lon="120.99153426525001"><ele>6.0</ele><time>2026-04-20T05:27:16.999Z</time></trkpt><trkpt lat="14.54318098762763" lon="120.99156272313938"><ele>6.0</ele><time>2026-04-20T05:27:17.999Z</time></trkpt><trkpt lat="14.5430053292997" lon="120.99159314833325"><ele>6.0</ele><time>2026-04-20T05:27:18.999Z</time></trkpt><trkpt lat="14.54283328110279" lon="120.99162412557052"><ele>5.666666666666667</ele><time>2026-04-20T05:27:19.999Z</time></trkpt><trkpt lat="14.542654207110033" lon="120.99165692174226"><ele>5.333333333333334</ele><time>2026-04-20T05:27:20.999Z</time></trkpt><trkpt lat="14.542486079442217" lon="120.99168774244536"><ele>5.0</ele><time>2026-04-20T05:27:21.999Z</time></trkpt><trkpt lat="14.54234405870005" lon="120.99171207466325"><ele>5.5</ele><time>2026-04-20T05:27:22.999Z</time></trkpt><trkpt lat="14.542216046684203" lon="120.99173527256349"><ele>6.0</ele><time>2026-04-20T05:27:23.999Z</time></trkpt><trkpt lat="14.542098250240372" lon="120.9917545188561"><ele>6.5</ele><time>2026-04-20T05:27:24.999Z</time></trkpt><trkpt lat="14.541971099843915" lon="120.99177612073025"><ele>7.0</ele><time>2026-04-20T05:27:25.999Z</time></trkpt><trkpt lat="14.541842694204234" lon="120.99179926420135"><ele>7.0</ele><time>2026-04-20T05:27:27Z</time></trkpt><trkpt lat="14.54170044477122" lon="120.99182623601278"><ele>7.0</ele><time>2026-04-20T05:27:28Z</time></trkpt><trkpt lat="14.541563197735208" lon="120.99184805065856"><ele>7.0</ele><time>2026-04-20T05:27:29Z</time></trkpt><trkpt lat="14.54140993182668" lon="120.99187431517755"><ele>7.0</ele><time>2026-04-20T05:27:30Z</time></trkpt><trkpt lat="14.541270612852044" lon="120.99189810588672"><ele>10.25</ele><time>2026-04-20T05:27:31Z</time></trkpt><trkpt lat="14.541127137295044" lon="120.99192559509326"><ele>13.5</ele><time>2026-04-20T05:27:32Z</time></trkpt><trkpt lat="14.540986614001925" lon="120.99194958134021"><ele>16.75</ele><time>2026-04-20T05:27:33Z</time></trkpt><trkpt lat="14.540832833451676" lon="120.99197661358254"><ele>20.0</ele><time>2026-04-20T05:27:34Z</time></trkpt><trkpt lat="14.540690084161326" lon="120.99200201297687"><ele>20.0</ele><time>2026-04-20T05:27:35Z</time></trkpt><trkpt lat="14.540540742018388" lon="120.99202613554323"><ele>20.0</ele><time>2026-04-20T05:27:36Z</time></trkpt><trkpt lat="14.54039184974788" lon="120.99204342287224"><ele>20.0</ele><time>2026-04-20T05:27:37Z</time></trkpt><trkpt lat="14.54023143416654" lon="120.99206813485623"><ele>17.25</ele><time>2026-04-20T05:27:38Z</time></trkpt><trkpt lat="14.540072336744668" lon="120.99208846982161"><ele>14.5</ele><time>2026-04-20T05:27:39Z</time></trkpt><trkpt lat="14.539936780573063" lon="120.99210038860693"><ele>11.75</ele><time>2026-04-20T05:27:40Z</time></trkpt><trkpt lat="14.539799043369909" lon="120.99211659931915"><ele>9.0</ele><time>2026-04-20T05:27:41Z</time></trkpt><trkpt lat="14.539675484137634" lon="120.99212981352277"><ele>9.0</ele><time>2026-04-20T05:27:42Z</time></trkpt><trkpt lat="14.539554935956085" lon="120.99214741164637"><ele>9.0</ele><time>2026-04-20T05:27:43Z</time></trkpt><trkpt lat="14.539434927470552" lon="120.99216766920809"><ele>9.0</ele><time>2026-04-20T05:27:44Z</time></trkpt><trkpt lat="14.539307909343659" lon="120.99218326440901"><ele>9.0</ele><time>2026-04-20T05:27:45Z</time></trkpt><trkpt lat="14.539184863743095" lon="120.99219705941952"><ele>9.0</ele><time>2026-04-20T05:27:46Z</time></trkpt><trkpt lat="14.539062336443537" lon="120.99221643824404"><ele>9.0</ele><time>2026-04-20T05:27:47Z</time></trkpt><trkpt lat="14.538932309866418" lon="120.9922313262654"><ele>9.0</ele><time>2026-04-20T05:27:48Z</time></trkpt><trkpt lat="14.538800326899853" lon="120.99224552961925"><ele>9.0</ele><time>2026-04-20T05:27:49Z</time></trkpt><trkpt lat="14.538663166811384" lon="120.99226096440019"><ele>9.0</ele><time>2026-04-20T05:27:50Z</time></trkpt><trkpt lat="14.53852117026234" lon="120.99227859553612"><ele>9.0</ele><time>2026-04-20T05:27:51Z</time></trkpt><trkpt lat="14.5383764946477" lon="120.99228932828935"><ele>9.0</ele><time>2026-04-20T05:27:52Z</time></trkpt><trkpt lat="14.538240878014427" lon="120.99230484450104"><ele>9.0</ele><time>2026-04-20T05:27:53Z</time></trkpt><trkpt lat="14.538106002787943" lon="120.99232346560252"><ele>9.0</ele><time>2026-04-20T05:27:54Z</time></trkpt><trkpt lat="14.53796340902835" lon="120.9923393130498"><ele>9.0</ele><time>2026-04-20T05:27:55Z</time></trkpt><trkpt lat="14.537826371760692" lon="120.99235389908876"><ele>9.0</ele><time>2026-04-20T05:27:56Z</time></trkpt><trkpt lat="14.537697457755069" lon="120.99237503390584"><ele>9.0</ele><time>2026-04-20T05:27:57Z</time></trkpt><trkpt lat="14.537573145178227" lon="120.99238260478302"><ele>8.0</ele><time>2026-04-20T05:27:58Z</time></trkpt><trkpt lat="14.53746117362588" lon="120.9923967057193"><ele>7.0</ele><time>2026-04-20T05:27:59Z</time></trkpt><trkpt lat="14.537348242846766" lon="120.99241363630851"><ele>6.0</ele><time>2026-04-20T05:28:00Z</time></trkpt><trkpt lat="14.537228429825145" lon="120.99242841102989"><ele>5.0</ele><time>2026-04-20T05:28:01Z</time></trkpt><trkpt lat="14.537102397419037" lon="120.9924421052749"><ele>4.75</ele><time>2026-04-20T05:28:02Z</time></trkpt><trkpt lat="14.537001915958724" lon="120.99245573434048"><ele>4.5</ele><time>2026-04-20T05:28:03Z</time></trkpt><trkpt lat="14.53688682137062" lon="120.99246962179724"><ele>4.25</ele><time>2026-04-20T05:28:04Z</time></trkpt><trkpt lat="14.536762011414586" lon="120.99248368072979"><ele>4.0</ele><time>2026-04-20T05:28:05Z</time></trkpt><trkpt lat="14.536636726201822" lon="120.99249962739559"><ele>5.25</ele><time>2026-04-20T05:28:06Z</time></trkpt><trkpt lat="14.53650586479874" lon="120.99251476349599"><ele>6.5</ele><time>2026-04-20T05:28:07Z</time></trkpt><trkpt lat="14.536381683411" lon="120.99252771666711"><ele>7.75</ele><time>2026-04-20T05:28:08Z</time></trkpt><trkpt lat="14.53625148976822" lon="120.9925474642779"><ele>9.0</ele><time>2026-04-20T05:28:09Z</time></trkpt><trkpt lat="14.536140737800938" lon="120.99255853420728"><ele>9.0</ele><time>2026-04-20T05:28:10Z</time></trkpt><trkpt lat="14.536022766294613" lon="120.99257367274657"><ele>9.0</ele><time>2026-04-20T05:28:11Z</time></trkpt><trkpt lat="14.535897632712045" lon="120.99258816678227"><ele>9.0</ele><time>2026-04-20T05:28:12Z</time></trkpt><trkpt lat="14.535768226888345" lon="120.99260279447589"><ele>9.0</ele><time>2026-04-20T05:28:13Z</time></trkpt><trkpt lat="14.535643862331444" lon="120.99261705251732"><ele>9.0</ele><time>2026-04-20T05:28:14Z</time></trkpt><trkpt lat="14.535516026019721" lon="120.9926313165877"><ele>9.0</ele><time>2026-04-20T05:28:15Z</time></trkpt><trkpt lat="14.53538809637348" lon="120.99264488461091"><ele>9.0</ele><time>2026-04-20T05:28:16Z</time></trkpt><trkpt lat="14.53525417219504" lon="120.99266072888219"><ele>9.0</ele><time>2026-04-20T05:28:17Z</time></trkpt><trkpt lat="14.535126390477647" lon="120.9926726542239"><ele>9.0</ele><time>2026-04-20T05:28:18Z</time></trkpt><trkpt lat="14.535000087689623" lon="120.9926867056899"><ele>9.0</ele><time>2026-04-20T05:28:19Z</time></trkpt><trkpt lat="14.534873150668355" lon="120.99269981318297"><ele>9.0</ele><time>2026-04-20T05:28:20Z</time></trkpt><trkpt lat="14.534744509722195" lon="120.99270970235503"><ele>9.0</ele><time>2026-04-20T05:28:21Z</time></trkpt><trkpt lat="14.534625800403173" lon="120.99271848721817"><ele>8.5</ele><time>2026-04-20T05:28:22Z</time></trkpt><trkpt lat="14.534492958320394" lon="120.99273206441546"><ele>8.0</ele><time>2026-04-20T05:28:23Z</time></trkpt><trkpt lat="14.534370497853317" lon="120.99274247881998"><ele>7.5</ele><time>2026-04-20T05:28:24Z</time></trkpt><trkpt lat="14.534256652906834" lon="120.992753107016"><ele>7.0</ele><time>2026-04-20T05:28:25Z</time></trkpt><trkpt lat="14.534138571611667" lon="120.99276386629302"><ele>7.0</ele><time>2026-04-20T05:28:26Z</time></trkpt><trkpt lat="14.534021189856182" lon="120.99277899671507"><ele>7.0</ele><time>2026-04-20T05:28:27Z</time></trkpt><trkpt lat="14.533898658042698" lon="120.992792242741"><ele>7.0</ele><time>2026-04-20T05:28:28Z</time></trkpt><trkpt lat="14.53377542268687" lon="120.99280683237572"><ele>7.0</ele><time>2026-04-20T05:28:29Z</time></trkpt><trkpt lat="14.533667736624691" lon="120.99281065614899"><ele>8.5</ele><time>2026-04-20T05:28:30Z</time></trkpt><trkpt lat="14.533557875618316" lon="120.99282103774384"><ele>10.0</ele><time>2026-04-20T05:28:31Z</time></trkpt><trkpt lat="14.53344478757301" lon="120.99282780099307"><ele>11.5</ele><time>2026-04-20T05:28:32Z</time></trkpt><trkpt lat="14.533326824068928" lon="120.99283482032575"><ele>13.0</ele><time>2026-04-20T05:28:33Z</time></trkpt><trkpt lat="14.533209620095015" lon="120.99284758057976"><ele>13.0</ele><time>2026-04-20T05:28:34Z</time></trkpt><trkpt lat="14.533081058348914" lon="120.99286172209469"><ele>13.0</ele><time>2026-04-20T05:28:35Z</time></trkpt><trkpt lat="14.532944292961552" lon="120.99288354460028"><ele>13.0</ele><time>2026-04-20T05:28:36Z</time></trkpt><trkpt lat="14.53282286168181" lon="120.99289950310744"><ele>13.0</ele><time>2026-04-20T05:28:37Z</time></trkpt><trkpt lat="14.532727676807486" lon="120.99291604443971"><ele>12.0</ele><time>2026-04-20T05:28:38Z</time></trkpt><trkpt lat="14.532603009562242" lon="120.99292851349226"><ele>11.0</ele><time>2026-04-20T05:28:39Z</time></trkpt><trkpt lat="14.532491440111317" lon="120.99294388387582"><ele>10.0</ele><time>2026-04-20T05:28:40Z</time></trkpt><trkpt lat="14.532389667101949" lon="120.9929552355608"><ele>9.0</ele><time>2026-04-20T05:28:41Z</time></trkpt><trkpt lat="14.532295067146242" lon="120.99296501233701"><ele>8.0</ele><time>2026-04-20T05:28:42Z</time></trkpt><trkpt lat="14.532207536854834" lon="120.99297324579243"><ele>8.0</ele><time>2026-04-20T05:28:43Z</time></trkpt><trkpt lat="14.532114498832566" lon="120.99298455215846"><ele>8.0</ele><time>2026-04-20T05:28:44Z</time></trkpt><trkpt lat="14.532021198373318" lon="120.9929969189212"><ele>8.0</ele><time>2026-04-20T05:28:45Z</time></trkpt><trkpt lat="14.531927852859496" lon="120.9930083716162"><ele>8.0</ele><time>2026-04-20T05:28:46Z</time></trkpt><trkpt lat="14.531835085232556" lon="120.99302127769745"><ele>8.0</ele><time>2026-04-20T05:28:47Z</time></trkpt><trkpt lat="14.53174058877568" lon="120.9930345422136"><ele>7.6000000000000005</ele><time>2026-04-20T05:28:48Z</time></trkpt><trkpt lat="14.53165115337647" lon="120.9930446391124"><ele>7.200000000000001</ele><time>2026-04-20T05:28:49Z</time></trkpt><trkpt lat="14.531560348805963" lon="120.9930486426917"><ele>6.8</ele><time>2026-04-20T05:28:50Z</time></trkpt><trkpt lat="14.531469262680128" lon="120.99305310842858"><ele>6.4</ele><time>2026-04-20T05:28:51Z</time></trkpt><trkpt lat="14.5313797438035" lon="120.99306459730337"><ele>6.0</ele><time>2026-04-20T05:28:52Z</time></trkpt><trkpt lat="14.531284550309634" lon="120.99307244003676"><ele>5.3999999999999995</ele><time>2026-04-20T05:28:53Z</time></trkpt><trkpt lat="14.531181465896813" lon="120.9930854369605"><ele>4.8</ele><time>2026-04-20T05:28:54Z</time></trkpt><trkpt lat="14.531084368497945" lon="120.99309163761558"><ele>4.199999999999999</ele><time>2026-04-20T05:28:55Z</time></trkpt><trkpt lat="14.530992894706056" lon="120.99310075373225"><ele>3.5999999999999996</ele><time>2026-04-20T05:28:56Z</time></trkpt><trkpt lat="14.530894604494684" lon="120.99311243864236"><ele>3.0</ele><time>2026-04-20T05:28:57Z</time></trkpt><trkpt lat="14.530797955889533" lon="120.99312347800301"><ele>3.0</ele><time>2026-04-20T05:28:58Z</time></trkpt><trkpt lat="14.530698330897666" lon="120.99313117980138"><ele>3.0</ele><time>2026-04-20T05:28:59Z</time></trkpt><trkpt lat="14.530598447384802" lon="120.99314323352267"><ele>3.0</ele><time>2026-04-20T05:29:00Z</time></trkpt><trkpt lat="14.530512573578585" lon="120.99315699136764"><ele>3.0</ele><time>2026-04-20T05:29:01Z</time></trkpt><trkpt lat="14.530411805933676" lon="120.99316685860548"><ele>3.0</ele><time>2026-04-20T05:29:02Z</time></trkpt><trkpt lat="14.530315861347493" lon="120.9931751025964"><ele>3.666666666666667</ele><time>2026-04-20T05:29:03Z</time></trkpt><trkpt lat="14.530218641126382" lon="120.99318348054581"><ele>4.333333333333334</ele><time>2026-04-20T05:29:04Z</time></trkpt><trkpt lat="14.530125027784175" lon="120.99319213852978"><ele>5.0</ele><time>2026-04-20T05:29:05Z</time></trkpt><trkpt lat="14.530037801894878" lon="120.99320262697681"><ele>5.666666666666667</ele><time>2026-04-20T05:29:06Z</time></trkpt><trkpt lat="14.529954748410603" lon="120.99321234018002"><ele>6.333333333333334</ele><time>2026-04-20T05:29:07Z</time></trkpt><trkpt lat="14.529876882178254" lon="120.99321632456319"><ele>7.0</ele><time>2026-04-20T05:29:08Z</time></trkpt><trkpt lat="14.529807695977162" lon="120.99322431172136"><ele>7.0</ele><time>2026-04-20T05:29:09Z</time></trkpt><trkpt lat="14.529711713536832" lon="120.99321209963742"><ele>6.999999999999999</ele><time>2026-04-20T05:29:11Z</time></trkpt><trkpt lat="14.529648273978557" lon="120.99313573304364"><ele>6.999999999999999</ele><time>2026-04-20T05:29:13Z</time></trkpt><trkpt lat="14.529615699916768" lon="120.9930422105187"><ele>7.0</ele><time>2026-04-20T05:29:15Z</time></trkpt><trkpt lat="14.529622492337223" lon="120.99293711449526"><ele>7.0</ele><time>2026-04-20T05:29:17Z</time></trkpt><trkpt lat="14.529596039586158" lon="120.9928672140545"><ele>7.0</ele><time>2026-04-20T05:29:18Z</time></trkpt><trkpt lat="14.529595863849664" lon="120.99278110612917"><ele>6.999999999999999</ele><time>2026-04-20T05:29:19Z</time></trkpt><trkpt lat="14.529585823942137" lon="120.99268825482197"><ele>6.999999999999999</ele><time>2026-04-20T05:29:20Z</time></trkpt><trkpt lat="14.529562223629698" lon="120.99258452478192"><ele>7.0</ele><time>2026-04-20T05:29:21Z</time></trkpt><trkpt lat="14.529555000653874" lon="120.99246587678252"><ele>7.0</ele><time>2026-04-20T05:29:22Z</time></trkpt><trkpt lat="14.529548420142158" lon="120.99234751232194"><ele>6.0</ele><time>2026-04-20T05:29:23Z</time></trkpt><trkpt lat="14.529539407226043" lon="120.99223041623249"><ele>5.0</ele><time>2026-04-20T05:29:24Z</time></trkpt><trkpt lat="14.529534565847886" lon="120.99212019679165"><ele>4.0</ele><time>2026-04-20T05:29:25Z</time></trkpt><trkpt lat="14.529535726307309" lon="120.99201483130086"><ele>3.0</ele><time>2026-04-20T05:29:26Z</time></trkpt><trkpt lat="14.529512759070865" lon="120.99184509547653"><ele>3.0</ele><time>2026-04-20T05:29:27Z</time></trkpt><trkpt lat="14.529488024328124" lon="120.99168633285747"><ele>3.0</ele><time>2026-04-20T05:29:28Z</time></trkpt><trkpt lat="14.529469591895522" lon="120.9915313022311"><ele>3.0</ele><time>2026-04-20T05:29:29Z</time></trkpt><trkpt lat="14.529459366381746" lon="120.99139234395265"><ele>3.0</ele><time>2026-04-20T05:29:30Z</time></trkpt><trkpt lat="14.529453225107964" lon="120.99126486490815"><ele>3.0</ele><time>2026-04-20T05:29:31Z</time></trkpt><trkpt lat="14.52942145683285" lon="120.99110235405367"><ele>3.0</ele><time>2026-04-20T05:29:32Z</time></trkpt><trkpt lat="14.529404847296679" lon="120.99097056571532"><ele>3.0</ele><time>2026-04-20T05:29:33Z</time></trkpt><trkpt lat="14.529388930755808" lon="120.99084477962202"><ele>3.0</ele><time>2026-04-20T05:29:34Z</time></trkpt><trkpt lat="14.52937821307972" lon="120.99073806392113"><ele>3.0</ele><time>2026-04-20T05:29:35Z</time></trkpt><trkpt lat="14.529359235310675" lon="120.99063249503172"><ele>3.0</ele><time>2026-04-20T05:29:36Z</time></trkpt><trkpt lat="14.529340688066707" lon="120.99053466799526"><ele>3.0</ele><time>2026-04-20T05:29:37Z</time></trkpt><trkpt lat="14.529326460632776" lon="120.99044763313489"><ele>3.0</ele><time>2026-04-20T05:29:38Z</time></trkpt><trkpt lat="14.529333204841882" lon="120.99036445081055"><ele>3.0</ele><time>2026-04-20T05:29:39Z</time></trkpt><trkpt lat="14.529322790508736" lon="120.99027248425067"><ele>3.0</ele><time>2026-04-20T05:29:41Z</time></trkpt><trkpt lat="14.52931524535572" lon="120.99020585477523"><ele>3.0</ele><time>2026-04-20T05:29:44Z</time></trkpt><trkpt lat="14.52924556170004" lon="120.99018046865469"><ele>3.0</ele><time>2026-04-20T05:31:17.999Z</time></trkpt><trkpt lat="14.529311169948922" lon="120.99016884792499"><ele>3.0</ele><time>2026-04-20T05:31:18.999Z</time></trkpt><trkpt lat="14.529243719201979" lon="120.99017177380304"><ele>3.0</ele><time>2026-04-20T05:31:19.999Z</time></trkpt><trkpt lat="14.52930072320958" lon="120.9900678871122"><ele>3.0</ele><time>2026-04-20T05:31:23.999Z</time></trkpt><trkpt lat="14.529289992088831" lon="120.98996722123412"><ele>1.0</ele><time>2026-04-20T05:31:25.999Z</time></trkpt><trkpt lat="14.52928057657612" lon="120.98987948078249"><ele>-1.0</ele><time>2026-04-20T05:31:27.999Z</time></trkpt><trkpt lat="14.529272466986571" lon="120.98980383044254"><ele>-3.0</ele><time>2026-04-20T05:31:29.999Z</time></trkpt><trkpt lat="14.528947415819886" lon="120.98978777125767"><ele>-3.0</ele><time>2026-04-20T05:31:31.999Z</time></trkpt><trkpt lat="14.528864013647599" lon="120.98979083238075"><ele>-3.0</ele><time>2026-04-20T05:31:32.999Z</time></trkpt><trkpt lat="14.528758296298788" lon="120.98980003169456"><ele>-3.0</ele><time>2026-04-20T05:31:33.999Z</time></trkpt><trkpt lat="14.52864042875124" lon="120.98980979935658"><ele>-3.0</ele><time>2026-04-20T05:31:34.999Z</time></trkpt><trkpt lat="14.528516432651482" lon="120.98981965979918"><ele>-3.0</ele><time>2026-04-20T05:31:35.999Z</time></trkpt><trkpt lat="14.528395280607558" lon="120.98983384978351"><ele>-1.7999999999999998</ele><time>2026-04-20T05:31:36.999Z</time></trkpt><trkpt lat="14.528277549682828" lon="120.98985047411047"><ele>-0.5999999999999999</ele><time>2026-04-20T05:31:37.999Z</time></trkpt><trkpt lat="14.528172340250967" lon="120.98986360648252"><ele>0.5999999999999999</ele><time>2026-04-20T05:31:38.999Z</time></trkpt><trkpt lat="14.528075252680164" lon="120.98987476908763"><ele>1.7999999999999998</ele><time>2026-04-20T05:31:39.999Z</time></trkpt><trkpt lat="14.527981536085754" lon="120.98988610764194"><ele>3.0</ele><time>2026-04-20T05:31:40.999Z</time></trkpt><trkpt lat="14.52789395726815" lon="120.9898872338958"><ele>3.0</ele><time>2026-04-20T05:31:41.999Z</time></trkpt><trkpt lat="14.527822993670014" lon="120.98988617294745"><ele>3.0</ele><time>2026-04-20T05:31:42.999Z</time></trkpt><trkpt lat="14.527751214722091" lon="120.98989813909883"><ele>3.0</ele><time>2026-04-20T05:31:44.999Z</time></trkpt><trkpt lat="14.527804686667912" lon="120.9896979076076"><ele>3.0</ele><time>2026-04-20T05:31:47Z</time></trkpt><trkpt lat="14.527796451979656" lon="120.98962399708424"><ele>3.0</ele><time>2026-04-20T05:31:48Z</time></trkpt><trkpt lat="14.527787875008025" lon="120.98954441649407"><ele>3.0</ele><time>2026-04-20T05:31:49Z</time></trkpt><trkpt lat="14.52777970410466" lon="120.9894636303204"><ele>3.0</ele><time>2026-04-20T05:31:50Z</time></trkpt><trkpt lat="14.527770720772073" lon="120.98937400549038"><ele>3.0</ele><time>2026-04-20T05:31:51Z</time></trkpt><trkpt lat="14.527760263043483" lon="120.9892859075969"><ele>3.0</ele><time>2026-04-20T05:31:52Z</time></trkpt><trkpt lat="14.527752078709817" lon="120.98919713788725"><ele>3.0</ele><time>2026-04-20T05:31:53Z</time></trkpt><trkpt lat="14.527741337474644" lon="120.98910560586944"><ele>3.0</ele><time>2026-04-20T05:31:54Z</time></trkpt><trkpt lat="14.527731277105486" lon="120.98901542047254"><ele>3.0</ele><time>2026-04-20T05:31:55Z</time></trkpt><trkpt lat="14.527722253629383" lon="120.98893629151935"><ele>3.0</ele><time>2026-04-20T05:31:56Z</time></trkpt><trkpt lat="14.527714710394267" lon="120.98886328987808"><ele>3.0</ele><time>2026-04-20T05:31:57Z</time></trkpt><trkpt lat="14.5277068622476" lon="120.98878566367101"><ele>3.0</ele><time>2026-04-20T05:31:58Z</time></trkpt><trkpt lat="14.527697816791678" lon="120.98870135256993"><ele>3.0</ele><time>2026-04-20T05:31:59Z</time></trkpt><trkpt lat="14.527700233746646" lon="120.98856888246974"><ele>3.0</ele><time>2026-04-20T05:32:00Z</time></trkpt><trkpt lat="14.527673275159723" lon="120.9884756989166"><ele>3.0</ele><time>2026-04-20T05:32:01Z</time></trkpt><trkpt lat="14.527664052391685" lon="120.98839089815115"><ele>3.0</ele><time>2026-04-20T05:32:02Z</time></trkpt><trkpt lat="14.527654089917132" lon="120.98829929559093"><ele>3.0</ele><time>2026-04-20T05:32:03Z</time></trkpt><trkpt lat="14.527645403535482" lon="120.9882192213923"><ele>3.0</ele><time>2026-04-20T05:32:04Z</time></trkpt><trkpt lat="14.52763664717222" lon="120.98813882668222"><ele>3.0</ele><time>2026-04-20T05:32:05Z</time></trkpt><trkpt lat="14.527629320738772" lon="120.9880733019845"><ele>3.0</ele><time>2026-04-20T05:32:06Z</time></trkpt><trkpt lat="14.527615237700516" lon="120.9879473486216"><ele>2.0</ele><time>2026-04-20T05:32:08Z</time></trkpt><trkpt lat="14.52760647928476" lon="120.98786449995438"><ele>0.9999999999999998</ele><time>2026-04-20T05:32:09Z</time></trkpt><trkpt lat="14.527597120629961" lon="120.98777738613953"><ele>-2.220446049250313E-16</ele><time>2026-04-20T05:32:10Z</time></trkpt><trkpt lat="14.527586048150596" lon="120.98767939143679"><ele>-1.0</ele><time>2026-04-20T05:32:11Z</time></trkpt><trkpt lat="14.527574378620656" lon="120.98757611271294"><ele>-2.0</ele><time>2026-04-20T05:32:12Z</time></trkpt><trkpt lat="14.527563841534118" lon="120.98748285642947"><ele>-2.0</ele><time>2026-04-20T05:32:13Z</time></trkpt><trkpt lat="14.52755134713875" lon="120.98737227738688"><ele>-2.0</ele><time>2026-04-20T05:32:14Z</time></trkpt><trkpt lat="14.527538588277006" lon="120.98725935776471"><ele>-2.0</ele><time>2026-04-20T05:32:15Z</time></trkpt><trkpt lat="14.52752634976273" lon="120.98715105309532"><ele>-2.0</ele><time>2026-04-20T05:32:16Z</time></trkpt><trkpt lat="14.527513474936038" lon="120.98703678376725"><ele>-2.0</ele><time>2026-04-20T05:32:17Z</time></trkpt><trkpt lat="14.527499795014013" lon="120.98691492916997"><ele>-2.0</ele><time>2026-04-20T05:32:18Z</time></trkpt><trkpt lat="14.527485876665393" lon="120.98679095077824"><ele>-2.0</ele><time>2026-04-20T05:32:19Z</time></trkpt><trkpt lat="14.527473666924681" lon="120.98668219187839"><ele>-2.0</ele><time>2026-04-20T05:32:20Z</time></trkpt><trkpt lat="14.527460962068183" lon="120.98656902274966"><ele>-2.0</ele><time>2026-04-20T05:32:21Z</time></trkpt><trkpt lat="14.527449720823238" lon="120.98646889120597"><ele>-2.0</ele><time>2026-04-20T05:32:22Z</time></trkpt><trkpt lat="14.527439271836725" lon="120.98636320810304"><ele>-1.2000000000000002</ele><time>2026-04-20T05:32:23Z</time></trkpt><trkpt lat="14.527428243710373" lon="120.98625597372951"><ele>-0.40000000000000013</ele><time>2026-04-20T05:32:24Z</time></trkpt><trkpt lat="14.527418287877493" lon="120.9861591660363"><ele>0.40000000000000013</ele><time>2026-04-20T05:32:25Z</time></trkpt><trkpt lat="14.527407105740954" lon="120.98605043413254"><ele>1.2000000000000002</ele><time>2026-04-20T05:32:26Z</time></trkpt><trkpt lat="14.52739631803307" lon="120.98594553749933"><ele>2.0</ele><time>2026-04-20T05:32:27Z</time></trkpt><trkpt lat="14.527386361657465" lon="120.98584872454356"><ele>1.8333333333333333</ele><time>2026-04-20T05:32:28Z</time></trkpt><trkpt lat="14.527364490732065" lon="120.98575666676913"><ele>1.6666666666666665</ele><time>2026-04-20T05:32:29Z</time></trkpt><trkpt lat="14.527363299022271" lon="120.98567546519126"><ele>1.5</ele><time>2026-04-20T05:32:30Z</time></trkpt><trkpt lat="14.527353124216122" lon="120.98559608664449"><ele>1.3333333333333333</ele><time>2026-04-20T05:32:31Z</time></trkpt><trkpt lat="14.52735058851163" lon="120.98552784801147"><ele>1.1666666666666665</ele><time>2026-04-20T05:32:32Z</time></trkpt><trkpt lat="14.527340218411295" lon="120.9854607022466"><ele>1.0</ele><time>2026-04-20T05:32:33Z</time></trkpt><trkpt lat="14.527350025692392" lon="120.98537243703704"><ele>1.0</ele><time>2026-04-20T05:32:35Z</time></trkpt><trkpt lat="14.527404189840565" lon="120.98527599494305"><ele>1.0</ele><time>2026-04-20T05:32:38Z</time></trkpt><trkpt lat="14.527424594869158" lon="120.98536088673195"><ele>1.0</ele><time>2026-04-20T05:32:39Z</time></trkpt><trkpt lat="14.527435199514315" lon="120.98547814396208"><ele>1.0</ele><time>2026-04-20T05:35:51.999Z</time></trkpt><trkpt lat="14.527375245211305" lon="120.98545618743314"><ele>1.0</ele><time>2026-04-20T05:35:54.999Z</time></trkpt><trkpt lat="14.52734703793045" lon="120.98556568397447"><ele>0.9999999999999999</ele><time>2026-04-20T05:35:56.999Z</time></trkpt><trkpt lat="14.527345213461961" lon="120.98567756272479"><ele>1.0</ele><time>2026-04-20T05:35:58.999Z</time></trkpt><trkpt lat="14.527351038443332" lon="120.9857508626938"><ele>1.0</ele><time>2026-04-20T05:35:59.999Z</time></trkpt><trkpt lat="14.52735631959027" lon="120.98582999502167"><ele>1.0</ele><time>2026-04-20T05:36:00.999Z</time></trkpt><trkpt lat="14.527361916707234" lon="120.98592045921502"><ele>0.9999999999999999</ele><time>2026-04-20T05:36:01.999Z</time></trkpt><trkpt lat="14.527365824518256" lon="120.98601318349995"><ele>1.0</ele><time>2026-04-20T05:36:02.999Z</time></trkpt><trkpt lat="14.527374839798526" lon="120.98611967673446"><ele>1.1666666666666665</ele><time>2026-04-20T05:36:03.999Z</time></trkpt><trkpt lat="14.527380924182548" lon="120.98621305234501"><ele>1.3333333333333333</ele><time>2026-04-20T05:36:04.999Z</time></trkpt><trkpt lat="14.527390134594993" lon="120.98630081367182"><ele>1.5</ele><time>2026-04-20T05:36:05.999Z</time></trkpt><trkpt lat="14.527399345124858" lon="120.98637696236419"><ele>1.6666666666666665</ele><time>2026-04-20T05:36:06.999Z</time></trkpt><trkpt lat="14.527410185349604" lon="120.98645834797998"><ele>1.8333333333333333</ele><time>2026-04-20T05:36:07.999Z</time></trkpt><trkpt lat="14.527415874557446" lon="120.9865323609291"><ele>2.0</ele><time>2026-04-20T05:36:08.999Z</time></trkpt><trkpt lat="14.527428984322771" lon="120.98662376259703"><ele>1.2000000000000002</ele><time>2026-04-20T05:36:09.999Z</time></trkpt><trkpt lat="14.527436309072383" lon="120.98671543361415"><ele>0.40000000000000013</ele><time>2026-04-20T05:36:10.999Z</time></trkpt><trkpt lat="14.527442633970622" lon="120.98680763686994"><ele>-0.40000000000000013</ele><time>2026-04-20T05:36:11.999Z</time></trkpt><trkpt lat="14.52745113198213" lon="120.98690114388592"><ele>-1.2000000000000002</ele><time>2026-04-20T05:36:12.999Z</time></trkpt><trkpt lat="14.527465118172127" lon="120.98700371048143"><ele>-2.0</ele><time>2026-04-20T05:36:13.999Z</time></trkpt><trkpt lat="14.527475124276949" lon="120.98710135265539"><ele>-2.0</ele><time>2026-04-20T05:36:14.999Z</time></trkpt><trkpt lat="14.527487857012776" lon="120.9872041095991"><ele>-2.0</ele><time>2026-04-20T05:36:15.999Z</time></trkpt><trkpt lat="14.527494093878472" lon="120.9873035567618"><ele>-2.0</ele><time>2026-04-20T05:36:16.999Z</time></trkpt><trkpt lat="14.527497270048764" lon="120.98739931660849"><ele>-2.0</ele><time>2026-04-20T05:36:17.999Z</time></trkpt><trkpt lat="14.527513606540776" lon="120.98748517572211"><ele>-2.0</ele><time>2026-04-20T05:36:18.999Z</time></trkpt><trkpt lat="14.527516525301394" lon="120.98759984215205"><ele>-2.0</ele><time>2026-04-20T05:36:19.999Z</time></trkpt><trkpt lat="14.527534194451082" lon="120.9877195246175"><ele>-2.0</ele><time>2026-04-20T05:36:20.999Z</time></trkpt><trkpt lat="14.52754949224527" lon="120.98782323250677"><ele>-2.0</ele><time>2026-04-20T05:36:21.999Z</time></trkpt><trkpt lat="14.527558036570746" lon="120.98790704761085"><ele>-2.0</ele><time>2026-04-20T05:36:22.999Z</time></trkpt><trkpt lat="14.527574434890152" lon="120.98798849630532"><ele>-2.0</ele><time>2026-04-20T05:36:23.999Z</time></trkpt><trkpt lat="14.52758592940047" lon="120.98807339114609"><ele>-2.0</ele><time>2026-04-20T05:36:24.999Z</time></trkpt><trkpt lat="14.527586593564344" lon="120.98816076538267"><ele>-2.0</ele><time>2026-04-20T05:36:25.999Z</time></trkpt><trkpt lat="14.527603345334029" lon="120.98827621868912"><ele>-2.0</ele><time>2026-04-20T05:36:26.999Z</time></trkpt><trkpt lat="14.527605782459935" lon="120.98838769032463"><ele>-2.0</ele><time>2026-04-20T05:36:27.999Z</time></trkpt><trkpt lat="14.527624280433812" lon="120.988489935881"><ele>-2.0</ele><time>2026-04-20T05:36:28.999Z</time></trkpt><trkpt lat="14.527640747727872" lon="120.98861128753259"><ele>-1.0</ele><time>2026-04-20T05:36:29.999Z</time></trkpt><trkpt lat="14.52764452064781" lon="120.98873285380218"><ele>-2.220446049250313E-16</ele><time>2026-04-20T05:36:30.999Z</time></trkpt><trkpt lat="14.527663985720103" lon="120.98885089086727"><ele>0.9999999999999998</ele><time>2026-04-20T05:36:31.999Z</time></trkpt><trkpt lat="14.527678518224771" lon="120.98895870138763"><ele>2.0</ele><time>2026-04-20T05:36:32.999Z</time></trkpt><trkpt lat="14.527689292274111" lon="120.98906533971858"><ele>3.0</ele><time>2026-04-20T05:36:33.999Z</time></trkpt><trkpt lat="14.527696272560775" lon="120.98917072728004"><ele>3.0</ele><time>2026-04-20T05:36:34.999Z</time></trkpt><trkpt lat="14.527705766209136" lon="120.9892835838166"><ele>3.0</ele><time>2026-04-20T05:36:35.999Z</time></trkpt><trkpt lat="14.527718453552275" lon="120.98939771501183"><ele>3.0</ele><time>2026-04-20T05:36:37Z</time></trkpt><trkpt lat="14.527729095568695" lon="120.98950327151543"><ele>3.0</ele><time>2026-04-20T05:36:38Z</time></trkpt><trkpt lat="14.527734805254875" lon="120.98959242908738"><ele>3.0</ele><time>2026-04-20T05:36:39Z</time></trkpt><trkpt lat="14.52774380586926" lon="120.98966823913274"><ele>3.0</ele><time>2026-04-20T05:36:40Z</time></trkpt><trkpt lat="14.52776357196034" lon="120.98977801969536"><ele>3.0</ele><time>2026-04-20T05:36:42Z</time></trkpt><trkpt lat="14.527770976919017" lon="120.98984751230248"><ele>3.0</ele><time>2026-04-20T05:36:44Z</time></trkpt><trkpt lat="14.527702957865653" lon="120.98989977217485"><ele>3.0</ele><time>2026-04-20T05:36:45Z</time></trkpt><trkpt lat="14.52762694189978" lon="120.98990372445515"><ele>3.0</ele><time>2026-04-20T05:36:51Z</time></trkpt><trkpt lat="14.527552701016276" lon="120.98994184331713"><ele>3.0</ele><time>2026-04-20T05:36:53Z</time></trkpt><trkpt lat="14.52747714178674" lon="120.98994359575637"><ele>3.0</ele><time>2026-04-20T05:36:54Z</time></trkpt><trkpt lat="14.527387606443414" lon="120.98995161212343"><ele>3.0</ele><time>2026-04-20T05:36:55Z</time></trkpt><trkpt lat="14.527298139702639" lon="120.98996129280705"><ele>3.0</ele><time>2026-04-20T05:36:56Z</time></trkpt><trkpt lat="14.527189847733236" lon="120.9899729271558"><ele>3.0</ele><time>2026-04-20T05:36:57Z</time></trkpt><trkpt lat="14.527083886533724" lon="120.98998704624967"><ele>3.0</ele><time>2026-04-20T05:36:58Z</time></trkpt><trkpt lat="14.526972850657732" lon="120.99000265874938"><ele>2.4</ele><time>2026-04-20T05:36:59Z</time></trkpt><trkpt lat="14.526870316476172" lon="120.99001693837052"><ele>1.7999999999999998</ele><time>2026-04-20T05:37:00Z</time></trkpt><trkpt lat="14.526773082758167" lon="120.99002883541107"><ele>1.2</ele><time>2026-04-20T05:37:01Z</time></trkpt><trkpt lat="14.526672354743088" lon="120.99004132819735"><ele>0.6</ele><time>2026-04-20T05:37:02Z</time></trkpt><trkpt lat="14.52656788124952" lon="120.99005074723387"><ele>0.0</ele><time>2026-04-20T05:37:03Z</time></trkpt><trkpt lat="14.526461988375624" lon="120.9900634383906"><ele>0.0</ele><time>2026-04-20T05:37:04Z</time></trkpt><trkpt lat="14.526356989709821" lon="120.99007315086362"><ele>0.0</ele><time>2026-04-20T05:37:05Z</time></trkpt><trkpt lat="14.526249510726256" lon="120.99008186508318"><ele>0.0</ele><time>2026-04-20T05:37:06Z</time></trkpt><trkpt lat="14.526144817069836" lon="120.99009396818121"><ele>0.0</ele><time>2026-04-20T05:37:07Z</time></trkpt><trkpt lat="14.52605235578237" lon="120.99010020485983"><ele>0.0</ele><time>2026-04-20T05:37:08Z</time></trkpt><trkpt lat="14.525968437098863" lon="120.99010981855183"><ele>0.3333333333333333</ele><time>2026-04-20T05:37:09Z</time></trkpt><trkpt lat="14.525874243899546" lon="120.99012144445895"><ele>0.6666666666666666</ele><time>2026-04-20T05:37:10Z</time></trkpt><trkpt lat="14.525783722146809" lon="120.99013564972132"><ele>1.0</ele><time>2026-04-20T05:37:11Z</time></trkpt><trkpt lat="14.52571861668919" lon="120.99014920520263"><ele>1.3333333333333333</ele><time>2026-04-20T05:37:12Z</time></trkpt><trkpt lat="14.525632443186456" lon="120.99016089425302"><ele>1.6666666666666665</ele><time>2026-04-20T05:37:14Z</time></trkpt><trkpt lat="14.525542742686069" lon="120.99017506985044"><ele>2.0</ele><time>2026-04-20T05:37:17Z</time></trkpt><trkpt lat="14.525474187364372" lon="120.99018635322454"><ele>2.0</ele><time>2026-04-20T05:37:21Z</time></trkpt><trkpt lat="14.525407152083162" lon="120.99019024567451"><ele>2.0</ele><time>2026-04-20T05:38:14.999Z</time></trkpt><trkpt lat="14.525295968716437" lon="120.99020421352725"><ele>2.0</ele><time>2026-04-20T05:38:16.999Z</time></trkpt><trkpt lat="14.525229287909205" lon="120.99021384351845"><ele>2.0</ele><time>2026-04-20T05:38:17.999Z</time></trkpt><trkpt lat="14.525100897676879" lon="120.99024121857948"><ele>2.0</ele><time>2026-04-20T05:38:19.999Z</time></trkpt><trkpt lat="14.525020180848909" lon="120.99025794744851"><ele>1.6666666666666665</ele><time>2026-04-20T05:38:20.999Z</time></trkpt><trkpt lat="14.524932431418268" lon="120.99027825727818"><ele>1.3333333333333333</ele><time>2026-04-20T05:38:21.999Z</time></trkpt><trkpt lat="14.524839261699384" lon="120.99028904439635"><ele>1.0</ele><time>2026-04-20T05:38:22.999Z</time></trkpt><trkpt lat="14.524769485049614" lon="120.99029076153035"><ele>0.6666666666666666</ele><time>2026-04-20T05:38:23.999Z</time></trkpt><trkpt lat="14.524678510943634" lon="120.99030309413438"><ele>0.3333333333333333</ele><time>2026-04-20T05:38:24.999Z</time></trkpt><trkpt lat="14.52458808300062" lon="120.99031568330847"><ele>0.0</ele><time>2026-04-20T05:38:25.999Z</time></trkpt><trkpt lat="14.524491929427306" lon="120.99033035342923"><ele>0.0</ele><time>2026-04-20T05:38:26.999Z</time></trkpt><trkpt lat="14.524387058889277" lon="120.99034828150039"><ele>0.0</ele><time>2026-04-20T05:38:27.999Z</time></trkpt><trkpt lat="14.524289544759297" lon="120.99036144444088"><ele>0.0</ele><time>2026-04-20T05:38:28.999Z</time></trkpt><trkpt lat="14.524202933313337" lon="120.99037148147848"><ele>0.0</ele><time>2026-04-20T05:38:29.999Z</time></trkpt><trkpt lat="14.524100210278753" lon="120.99037964507339"><ele>0.0</ele><time>2026-04-20T05:38:30.999Z</time></trkpt><trkpt lat="14.523969932900863" lon="120.99039969692383"><ele>0.0</ele><time>2026-04-20T05:38:31.999Z</time></trkpt><trkpt lat="14.52384199282559" lon="120.99040899531086"><ele>0.0</ele><time>2026-04-20T05:38:32.999Z</time></trkpt><trkpt lat="14.52372843214989" lon="120.99042644680125"><ele>0.0</ele><time>2026-04-20T05:38:33.999Z</time></trkpt><trkpt lat="14.523632639252174" lon="120.99044165860997"><ele>0.0</ele><time>2026-04-20T05:38:34.999Z</time></trkpt><trkpt lat="14.523538787345625" lon="120.99045928171586"><ele>0.0</ele><time>2026-04-20T05:38:35.999Z</time></trkpt><trkpt lat="14.523433908681753" lon="120.99047695258305"><ele>-0.25</ele><time>2026-04-20T05:38:36.999Z</time></trkpt><trkpt lat="14.523313713407363" lon="120.99049575578243"><ele>-0.5</ele><time>2026-04-20T05:38:37.999Z</time></trkpt><trkpt lat="14.523172563603588" lon="120.99051514029696"><ele>-0.75</ele><time>2026-04-20T05:38:38.999Z</time></trkpt><trkpt lat="14.523034207680274" lon="120.99052998344513"><ele>-1.0</ele><time>2026-04-20T05:38:39.999Z</time></trkpt><trkpt lat="14.52288909275752" lon="120.99054710931735"><ele>0.0</ele><time>2026-04-20T05:38:40.999Z</time></trkpt><trkpt lat="14.522745551015062" lon="120.99056649953148"><ele>1.0</ele><time>2026-04-20T05:38:41.999Z</time></trkpt><trkpt lat="14.522604967892544" lon="120.9905874938434"><ele>2.0</ele><time>2026-04-20T05:38:42.999Z</time></trkpt><trkpt lat="14.522475313510109" lon="120.9906016574613"><ele>3.0</ele><time>2026-04-20T05:38:43.999Z</time></trkpt><trkpt lat="14.522360938119634" lon="120.99061520168617"><ele>3.0</ele><time>2026-04-20T05:38:44.999Z</time></trkpt><trkpt lat="14.522277487111106" lon="120.9906206752465"><ele>3.0</ele><time>2026-04-20T05:38:45.999Z</time></trkpt><trkpt lat="14.522192078689047" lon="120.99063769016333"><ele>3.0</ele><time>2026-04-20T05:39:59.999Z</time></trkpt><trkpt lat="14.522092631044503" lon="120.990649482778"><ele>3.0</ele><time>2026-04-20T05:40:03Z</time></trkpt><trkpt lat="14.522020689332743" lon="120.9906556782701"><ele>3.0</ele><time>2026-04-20T05:40:04Z</time></trkpt><trkpt lat="14.521923786980738" lon="120.99066880947353"><ele>3.0</ele><time>2026-04-20T05:40:05Z</time></trkpt><trkpt lat="14.521815980887636" lon="120.99067727967244"><ele>2.0</ele><time>2026-04-20T05:40:06Z</time></trkpt><trkpt lat="14.521706254293594" lon="120.99069129554283"><ele>1.0</ele><time>2026-04-20T05:40:07Z</time></trkpt><trkpt lat="14.521581161346296" lon="120.99070268417312"><ele>0.0</ele><time>2026-04-20T05:40:08Z</time></trkpt><trkpt lat="14.521445224964442" lon="120.99071711725053"><ele>-1.0</ele><time>2026-04-20T05:40:09Z</time></trkpt><trkpt lat="14.5213012830583" lon="120.99073142297784"><ele>1.0</ele><time>2026-04-20T05:40:10Z</time></trkpt><trkpt lat="14.5211480296264" lon="120.99074429186604"><ele>3.0</ele><time>2026-04-20T05:40:11Z</time></trkpt><trkpt lat="14.520996465218124" lon="120.99074954266814"><ele>5.0</ele><time>2026-04-20T05:40:12Z</time></trkpt><trkpt lat="14.520832441009562" lon="120.99075479961866"><ele>5.0</ele><time>2026-04-20T05:40:13Z</time></trkpt><trkpt lat="14.520662379753567" lon="120.99075398137234"><ele>5.0</ele><time>2026-04-20T05:40:14Z</time></trkpt><trkpt lat="14.52048799906485" lon="120.99074729717684"><ele>5.0</ele><time>2026-04-20T05:40:15Z</time></trkpt><trkpt lat="14.520311737781306" lon="120.99073747723418"><ele>3.3333333333333335</ele><time>2026-04-20T05:40:16Z</time></trkpt><trkpt lat="14.520133133570683" lon="120.99072623065317"><ele>1.6666666666666667</ele><time>2026-04-20T05:40:17Z</time></trkpt><trkpt lat="14.519962793240651" lon="120.99071695099113"><ele>0.0</ele><time>2026-04-20T05:40:18Z</time></trkpt><trkpt lat="14.519781395871783" lon="120.99070927085684"><ele>0.0</ele><time>2026-04-20T05:40:19Z</time></trkpt><trkpt lat="14.519599609131285" lon="120.99070113801434"><ele>0.0</ele><time>2026-04-20T05:40:20Z</time></trkpt><trkpt lat="14.519426326753853" lon="120.99069562840963"><ele>0.0</ele><time>2026-04-20T05:40:21Z</time></trkpt><trkpt lat="14.519242926461558" lon="120.99068860573858"><ele>-0.3333333333333333</ele><time>2026-04-20T05:40:22Z</time></trkpt><trkpt lat="14.51907225424216" lon="120.99067300920804"><ele>-0.6666666666666666</ele><time>2026-04-20T05:40:23Z</time></trkpt><trkpt lat="14.518900376001678" lon="120.99066297380878"><ele>-1.0</ele><time>2026-04-20T05:40:24Z</time></trkpt><trkpt lat="14.518731821979703" lon="120.99065172895062"><ele>0.25</ele><time>2026-04-20T05:40:25Z</time></trkpt><trkpt lat="14.518570714705746" lon="120.99064224696274"><ele>1.5</ele><time>2026-04-20T05:40:26Z</time></trkpt><trkpt lat="14.518429223718362" lon="120.99062955863046"><ele>2.75</ele><time>2026-04-20T05:40:27Z</time></trkpt><trkpt lat="14.518291422453592" lon="120.99061806429692"><ele>4.0</ele><time>2026-04-20T05:40:28Z</time></trkpt><trkpt lat="14.518158645546096" lon="120.99061001167307"><ele>4.0</ele><time>2026-04-20T05:40:29Z</time></trkpt><trkpt lat="14.518040646186789" lon="120.9906052693524"><ele>4.0</ele><time>2026-04-20T05:40:30Z</time></trkpt><trkpt lat="14.517936433199344" lon="120.99059993269981"><ele>4.0</ele><time>2026-04-20T05:40:31Z</time></trkpt><trkpt lat="14.517850705004019" lon="120.99059397385099"><ele>4.0</ele><time>2026-04-20T05:40:32Z</time></trkpt><trkpt lat="14.51773468923437" lon="120.9905874330793"><ele>4.0</ele><time>2026-04-20T05:40:34Z</time></trkpt><trkpt lat="14.517668474965818" lon="120.9905880903179"><ele>4.833333333333333</ele><time>2026-04-20T05:40:36Z</time></trkpt><trkpt lat="14.517597821142955" lon="120.9905951877617"><ele>5.666666666666666</ele><time>2026-04-20T05:40:56.001Z</time></trkpt><trkpt lat="14.51753448124364" lon="120.99059382624351"><ele>6.5</ele><time>2026-04-20T05:40:58.001Z</time></trkpt><trkpt lat="14.517436906396657" lon="120.99059475481141"><ele>7.333333333333333</ele><time>2026-04-20T05:41:00.001Z</time></trkpt><trkpt lat="14.51737245923197" lon="120.99059562718917"><ele>8.166666666666666</ele><time>2026-04-20T05:41:01.001Z</time></trkpt><trkpt lat="14.517265072253688" lon="120.99058404234842"><ele>9.0</ele><time>2026-04-20T05:41:03.001Z</time></trkpt><trkpt lat="14.517139441519259" lon="120.99059830642581"><ele>9.5</ele><time>2026-04-20T05:41:04.001Z</time></trkpt><trkpt lat="14.517012970468658" lon="120.99059603894905"><ele>10.0</ele><time>2026-04-20T05:41:05.001Z</time></trkpt><trkpt lat="14.51687843134952" lon="120.99058866497657"><ele>10.5</ele><time>2026-04-20T05:41:06.001Z</time></trkpt><trkpt lat="14.516737373138481" lon="120.99057126874955"><ele>11.0</ele><time>2026-04-20T05:41:07.001Z</time></trkpt><trkpt lat="14.516587996840148" lon="120.99054494168463"><ele>11.0</ele><time>2026-04-20T05:41:08.001Z</time></trkpt><trkpt lat="14.516433148169657" lon="120.9905204594409"><ele>11.0</ele><time>2026-04-20T05:41:09.001Z</time></trkpt><trkpt lat="14.51626927952397" lon="120.99049632327326"><ele>11.0</ele><time>2026-04-20T05:41:10.001Z</time></trkpt><trkpt lat="14.51610043828393" lon="120.99047128710114"><ele>12.666666666666666</ele><time>2026-04-20T05:41:11.001Z</time></trkpt><trkpt lat="14.515927788343852" lon="120.99044646553715"><ele>14.333333333333332</ele><time>2026-04-20T05:41:12.001Z</time></trkpt><trkpt lat="14.515746473051864" lon="120.99042610666521"><ele>16.0</ele><time>2026-04-20T05:41:13.001Z</time></trkpt><trkpt lat="14.515553335702812" lon="120.99040362380832"><ele>14.666666666666666</ele><time>2026-04-20T05:41:14.001Z</time></trkpt><trkpt lat="14.51536393146601" lon="120.99038295185777"><ele>13.333333333333332</ele><time>2026-04-20T05:41:15.001Z</time></trkpt><trkpt lat="14.51517206772834" lon="120.990356227251"><ele>12.0</ele><time>2026-04-20T05:41:16.001Z</time></trkpt><trkpt lat="14.514981175871384" lon="120.99032769576132"><ele>12.0</ele><time>2026-04-20T05:41:17.001Z</time></trkpt><trkpt lat="14.514791495384344" lon="120.99030226895646"><ele>12.0</ele><time>2026-04-20T05:41:18.001Z</time></trkpt><trkpt lat="14.514597373887874" lon="120.99028073327614"><ele>12.0</ele><time>2026-04-20T05:41:19.001Z</time></trkpt><trkpt lat="14.514397938303278" lon="120.99025558036365"><ele>10.333333333333334</ele><time>2026-04-20T05:41:20.001Z</time></trkpt><trkpt lat="14.514196124106347" lon="120.99022510463718"><ele>8.666666666666668</ele><time>2026-04-20T05:41:21.001Z</time></trkpt><trkpt lat="14.513986360092089" lon="120.99019621184124"><ele>7.0</ele><time>2026-04-20T05:41:22.001Z</time></trkpt><trkpt lat="14.513778982996094" lon="120.990173384583"><ele>6.666666666666667</ele><time>2026-04-20T05:41:23.001Z</time></trkpt><trkpt lat="14.513572131649992" lon="120.99014753630709"><ele>6.333333333333334</ele><time>2026-04-20T05:41:24.001Z</time></trkpt><trkpt lat="14.513355860475988" lon="120.9901175479659"><ele>6.0</ele><time>2026-04-20T05:41:25.001Z</time></trkpt><trkpt lat="14.513140831013155" lon="120.99008006785598"><ele>6.0</ele><time>2026-04-20T05:41:26.001Z</time></trkpt><trkpt lat="14.512932778988349" lon="120.99003124917557"><ele>6.0</ele><time>2026-04-20T05:41:27.001Z</time></trkpt><trkpt lat="14.51272483306536" lon="120.98997718616134"><ele>6.0</ele><time>2026-04-20T05:41:28.001Z</time></trkpt><trkpt lat="14.512524633760268" lon="120.98991962628416"><ele>5.0</ele><time>2026-04-20T05:41:29.001Z</time></trkpt><trkpt lat="14.512341813610538" lon="120.98986189543157"><ele>4.0</ele><time>2026-04-20T05:41:30.001Z</time></trkpt><trkpt lat="14.512165630946464" lon="120.98980855974627"><ele>3.0</ele><time>2026-04-20T05:41:31.001Z</time></trkpt><trkpt lat="14.511995795658727" lon="120.9897565394276"><ele>3.0</ele><time>2026-04-20T05:41:32.001Z</time></trkpt><trkpt lat="14.511830850744738" lon="120.98970419482015"><ele>3.0</ele><time>2026-04-20T05:41:33.001Z</time></trkpt><trkpt lat="14.511666899104144" lon="120.98965200679098"><ele>3.0</ele><time>2026-04-20T05:41:34.001Z</time></trkpt><trkpt lat="14.511502344274417" lon="120.98959927089942"><ele>3.0</ele><time>2026-04-20T05:41:35.001Z</time></trkpt><trkpt lat="14.511334832715136" lon="120.98954522112895"><ele>3.0</ele><time>2026-04-20T05:41:36.001Z</time></trkpt><trkpt lat="14.511173589606353" lon="120.9894934274818"><ele>3.0</ele><time>2026-04-20T05:41:37.001Z</time></trkpt><trkpt lat="14.511001431669362" lon="120.98943842114427"><ele>2.3333333333333335</ele><time>2026-04-20T05:41:38.001Z</time></trkpt><trkpt lat="14.510841489888172" lon="120.98939305679328"><ele>1.6666666666666665</ele><time>2026-04-20T05:41:39.002Z</time></trkpt><trkpt lat="14.510670397154591" lon="120.98934337142765"><ele>1.0</ele><time>2026-04-20T05:41:40.002Z</time></trkpt><trkpt lat="14.510496973453478" lon="120.98929431405824"><ele>1.0</ele><time>2026-04-20T05:41:41.002Z</time></trkpt><trkpt lat="14.510331521686155" lon="120.98924273756808"><ele>1.0</ele><time>2026-04-20T05:41:42.002Z</time></trkpt><trkpt lat="14.510160378769339" lon="120.98919153868185"><ele>1.0</ele><time>2026-04-20T05:41:43.002Z</time></trkpt><trkpt lat="14.50998115401833" lon="120.98914144574697"><ele>2.3333333333333335</ele><time>2026-04-20T05:41:44.002Z</time></trkpt><trkpt lat="14.5098078262878" lon="120.98908792459316"><ele>3.666666666666667</ele><time>2026-04-20T05:41:45.002Z</time></trkpt><trkpt lat="14.509629507291507" lon="120.98903317359324"><ele>5.0</ele><time>2026-04-20T05:41:46.002Z</time></trkpt><trkpt lat="14.509450264538494" lon="120.98897476424028"><ele>6.333333333333334</ele><time>2026-04-20T05:41:46.999Z</time></trkpt><trkpt lat="14.509270821146046" lon="120.98891602352022"><ele>7.666666666666667</ele><time>2026-04-20T05:41:47.999Z</time></trkpt><trkpt lat="14.50908020463549" lon="120.98885790330456"><ele>9.0</ele><time>2026-04-20T05:41:48.999Z</time></trkpt><trkpt lat="14.508898147536218" lon="120.98879336547004"><ele>8.333333333333334</ele><time>2026-04-20T05:41:49.999Z</time></trkpt><trkpt lat="14.508711635955924" lon="120.98872432812833"><ele>7.666666666666667</ele><time>2026-04-20T05:41:50.999Z</time></trkpt><trkpt lat="14.50852993797242" lon="120.98865322068042"><ele>7.0</ele><time>2026-04-20T05:41:51.999Z</time></trkpt><trkpt lat="14.508365856244087" lon="120.98858334612834"><ele>7.0</ele><time>2026-04-20T05:41:52.999Z</time></trkpt><trkpt lat="14.508208201974787" lon="120.9885183111428"><ele>7.0</ele><time>2026-04-20T05:41:53.999Z</time></trkpt><trkpt lat="14.508048498271949" lon="120.98845585143164"><ele>7.0</ele><time>2026-04-20T05:41:54.999Z</time></trkpt><trkpt lat="14.507896151863648" lon="120.98839375228533"><ele>7.666666666666667</ele><time>2026-04-20T05:41:55.999Z</time></trkpt><trkpt lat="14.507725119931262" lon="120.98833361160597"><ele>8.333333333333334</ele><time>2026-04-20T05:41:56.999Z</time></trkpt><trkpt lat="14.507562799795418" lon="120.98826703367345"><ele>9.0</ele><time>2026-04-20T05:41:58Z</time></trkpt><trkpt lat="14.507398554493413" lon="120.98819940879324"><ele>9.0</ele><time>2026-04-20T05:41:59Z</time></trkpt><trkpt lat="14.507232710583938" lon="120.98813123408434"><ele>9.0</ele><time>2026-04-20T05:42:00Z</time></trkpt><trkpt lat="14.507073857920423" lon="120.98806750332257"><ele>9.0</ele><time>2026-04-20T05:42:01Z</time></trkpt><trkpt lat="14.506928456477493" lon="120.9880079911147"><ele>9.0</ele><time>2026-04-20T05:42:02Z</time></trkpt><trkpt lat="14.506789730086917" lon="120.9879521365562"><ele>9.0</ele><time>2026-04-20T05:42:03Z</time></trkpt><trkpt lat="14.506651015869387" lon="120.9878949123127"><ele>9.0</ele><time>2026-04-20T05:42:04Z</time></trkpt><trkpt lat="14.506516126519724" lon="120.98784072100649"><ele>9.0</ele><time>2026-04-20T05:42:05Z</time></trkpt><trkpt lat="14.506380672275471" lon="120.98778348184945"><ele>9.0</ele><time>2026-04-20T05:42:06Z</time></trkpt><trkpt lat="14.506259968993106" lon="120.98773126346038"><ele>9.0</ele><time>2026-04-20T05:42:07Z</time></trkpt><trkpt lat="14.506151122684866" lon="120.98768280141894"><ele>9.0</ele><time>2026-04-20T05:42:08Z</time></trkpt><trkpt lat="14.506069036090246" lon="120.98764505680077"><ele>9.0</ele><time>2026-04-20T05:42:09Z</time></trkpt><trkpt lat="14.505969124473589" lon="120.9876011089147"><ele>9.0</ele><time>2026-04-20T05:42:11Z</time></trkpt><trkpt lat="14.5058892326476" lon="120.98755374437788"><ele>8.4</ele><time>2026-04-20T05:42:13Z</time></trkpt><trkpt lat="14.50584450159407" lon="120.98748072116985"><ele>7.800000000000001</ele><time>2026-04-20T05:42:15Z</time></trkpt><trkpt lat="14.505762975943204" lon="120.98743649679807"><ele>7.199999999999999</ele><time>2026-04-20T05:42:17Z</time></trkpt><trkpt lat="14.50570165331867" lon="120.98740277626865"><ele>6.6</ele><time>2026-04-20T05:42:18Z</time></trkpt><trkpt lat="14.505631821594886" lon="120.98736437668353"><ele>6.0</ele><time>2026-04-20T05:42:19Z</time></trkpt><trkpt lat="14.505491418324365" lon="120.98744454965433"><ele>6.199999999999999</ele><time>2026-04-20T05:42:20Z</time></trkpt><trkpt lat="14.505407145923469" lon="120.98739821166757"><ele>6.3999999999999995</ele><time>2026-04-20T05:42:21Z</time></trkpt><trkpt lat="14.505322484181388" lon="120.98734860631832"><ele>6.6</ele><time>2026-04-20T05:42:22Z</time></trkpt><trkpt lat="14.50522210731074" lon="120.98729660021012"><ele>6.8</ele><time>2026-04-20T05:42:23Z</time></trkpt><trkpt lat="14.505118374741553" lon="120.98723750978037"><ele>7.0</ele><time>2026-04-20T05:42:24Z</time></trkpt><trkpt lat="14.505015588743278" lon="120.98717837397373"><ele>7.0</ele><time>2026-04-20T05:42:25Z</time></trkpt><trkpt lat="14.504903376870503" lon="120.98711758626392"><ele>7.0</ele><time>2026-04-20T05:42:26Z</time></trkpt><trkpt lat="14.504794166745096" lon="120.98704841910713"><ele>7.0</ele><time>2026-04-20T05:42:27Z</time></trkpt><trkpt lat="14.504677538432473" lon="120.98698137085174"><ele>7.0</ele><time>2026-04-20T05:42:28Z</time></trkpt><trkpt lat="14.504552555017177" lon="120.98691702644057"><ele>7.5</ele><time>2026-04-20T05:42:29Z</time></trkpt><trkpt lat="14.504427424401916" lon="120.98684988713276"><ele>8.0</ele><time>2026-04-20T05:42:30Z</time></trkpt><trkpt lat="14.504312041819345" lon="120.98677835074794"><ele>8.5</ele><time>2026-04-20T05:42:31Z</time></trkpt><trkpt lat="14.50419448188445" lon="120.98672578087422"><ele>9.0</ele><time>2026-04-20T05:42:32.001Z</time></trkpt><trkpt lat="14.504086535486199" lon="120.98666328012335"><ele>9.2</ele><time>2026-04-20T05:42:33.001Z</time></trkpt><trkpt lat="14.503978404140863" lon="120.98661294889078"><ele>9.4</ele><time>2026-04-20T05:42:34.001Z</time></trkpt><trkpt lat="14.503880830432035" lon="120.98656057334418"><ele>9.6</ele><time>2026-04-20T05:42:35.001Z</time></trkpt><trkpt lat="14.503792991715876" lon="120.98651678854235"><ele>9.8</ele><time>2026-04-20T05:42:36.001Z</time></trkpt><trkpt lat="14.503719334490889" lon="120.98648381319408"><ele>10.0</ele><time>2026-04-20T05:42:37.001Z</time></trkpt><trkpt lat="14.503624407205743" lon="120.9864603429269"><ele>9.166666666666668</ele><time>2026-04-20T05:42:39.001Z</time></trkpt><trkpt lat="14.503549858135804" lon="120.98649652995253"><ele>8.333333333333334</ele><time>2026-04-20T05:42:41.001Z</time></trkpt><trkpt lat="14.503512481295852" lon="120.9865569839324"><ele>7.5</ele><time>2026-04-20T05:42:42.001Z</time></trkpt><trkpt lat="14.50352428383324" lon="120.98662597256826"><ele>6.666666666666667</ele><time>2026-04-20T05:42:43.001Z</time></trkpt><trkpt lat="14.503497104403163" lon="120.98671727889781"><ele>5.833333333333334</ele><time>2026-04-20T05:42:44.001Z</time></trkpt><trkpt lat="14.503477304850215" lon="120.98678516307804"><ele>5.0</ele><time>2026-04-20T05:42:45.001Z</time></trkpt><trkpt lat="14.503449464981493" lon="120.98688061402142"><ele>5.0</ele><time>2026-04-20T05:42:46.001Z</time></trkpt><trkpt lat="14.503423178539208" lon="120.98697073901018"><ele>5.0</ele><time>2026-04-20T05:42:47.001Z</time></trkpt><trkpt lat="14.50339378069787" lon="120.98707164672177"><ele>5.0</ele><time>2026-04-20T05:42:48.001Z</time></trkpt><trkpt lat="14.50336716801515" lon="120.98716458843353"><ele>5.0</ele><time>2026-04-20T05:42:49.001Z</time></trkpt><trkpt lat="14.5033412012796" lon="120.98725252701627"><ele>5.0</ele><time>2026-04-20T05:42:50.001Z</time></trkpt><trkpt lat="14.503316298179548" lon="120.98733759887857"><ele>5.0</ele><time>2026-04-20T05:42:51.001Z</time></trkpt><trkpt lat="14.503293332955764" lon="120.98741799725333"><ele>5.0</ele><time>2026-04-20T05:42:52.001Z</time></trkpt><trkpt lat="14.503273486662073" lon="120.987485782629"><ele>5.0</ele><time>2026-04-20T05:42:53.001Z</time></trkpt><trkpt lat="14.503250608390719" lon="120.98756336038849"><ele>5.0</ele><time>2026-04-20T05:42:54.001Z</time></trkpt><trkpt lat="14.503228096533544" lon="120.98763969575143"><ele>5.0</ele><time>2026-04-20T05:42:55.001Z</time></trkpt><trkpt lat="14.50320703191887" lon="120.9877097813758"><ele>5.0</ele><time>2026-04-20T05:42:56.001Z</time></trkpt><trkpt lat="14.50318572897979" lon="120.98778201806871"><ele>5.333333333333334</ele><time>2026-04-20T05:42:57.001Z</time></trkpt><trkpt lat="14.50316407275937" lon="120.98785685876643"><ele>5.666666666666667</ele><time>2026-04-20T05:42:58.001Z</time></trkpt><trkpt lat="14.503142700758223" lon="120.98793071724441"><ele>6.0</ele><time>2026-04-20T05:42:59.001Z</time></trkpt><trkpt lat="14.503122083370878" lon="120.98800196786588"><ele>6.333333333333334</ele><time>2026-04-20T05:43:00.001Z</time></trkpt><trkpt lat="14.503099402631614" lon="120.98808034914465"><ele>6.666666666666667</ele><time>2026-04-20T05:43:01.001Z</time></trkpt><trkpt lat="14.503075660257439" lon="120.98816250442027"><ele>7.0</ele><time>2026-04-20T05:43:02.001Z</time></trkpt><trkpt lat="14.503051036600457" lon="120.98824779148215"><ele>7.000000000000001</ele><time>2026-04-20T05:43:03.001Z</time></trkpt><trkpt lat="14.50303117581201" lon="120.98831658176803"><ele>7.0</ele><time>2026-04-20T05:43:04.001Z</time></trkpt><trkpt lat="14.503010750816644" lon="120.98839396892866"><ele>7.0</ele><time>2026-04-20T05:43:05.001Z</time></trkpt><trkpt lat="14.5029971436116" lon="120.98846793931233"><ele>7.0</ele><time>2026-04-20T05:43:06.001Z</time></trkpt><trkpt lat="14.502992739858783" lon="120.98855372412227"><ele>7.000000000000001</ele><time>2026-04-20T05:43:07.001Z</time></trkpt><trkpt lat="14.502994972090638" lon="120.98864259372426"><ele>7.0</ele><time>2026-04-20T05:43:08.001Z</time></trkpt><trkpt lat="14.503005091730845" lon="120.98872067455969"><ele>6.500000000000001</ele><time>2026-04-20T05:43:09.001Z</time></trkpt><trkpt lat="14.502957977114319" lon="120.98882179213231"><ele>6.0</ele><time>2026-04-20T05:43:10.001Z</time></trkpt><trkpt lat="14.502938526376543" lon="120.98889808833141"><ele>5.5</ele><time>2026-04-20T05:43:11.001Z</time></trkpt><trkpt lat="14.502912775437382" lon="120.98897288627172"><ele>5.0</ele><time>2026-04-20T05:43:12.001Z</time></trkpt><trkpt lat="14.50288422821624" lon="120.98905479372333"><ele>4.5</ele><time>2026-04-20T05:43:13.001Z</time></trkpt><trkpt lat="14.502860838976957" lon="120.98912498767439"><ele>4.0</ele><time>2026-04-20T05:43:14.001Z</time></trkpt><trkpt lat="14.502835821857994" lon="120.98920105238376"><ele>3.4999999999999996</ele><time>2026-04-20T05:43:15.001Z</time></trkpt><trkpt lat="14.502814192758565" lon="120.98928912127658"><ele>3.0</ele><time>2026-04-20T05:43:16.001Z</time></trkpt><trkpt lat="14.50279480416175" lon="120.98935628709474"><ele>2.5</ele><time>2026-04-20T05:43:17.001Z</time></trkpt><trkpt lat="14.50275237676141" lon="120.98946648651786"><ele>2.0</ele><time>2026-04-20T05:43:19.001Z</time></trkpt><trkpt lat="14.5027188463298" lon="120.98952837541853"><ele>1.5</ele><time>2026-04-20T05:43:20.001Z</time></trkpt><trkpt lat="14.502679093882401" lon="120.98958711237084"><ele>1.0</ele><time>2026-04-20T05:43:21.002Z</time></trkpt><trkpt lat="14.502595750089874" lon="120.9896087610915"><ele>0.9999999999999999</ele><time>2026-04-20T05:43:22.002Z</time></trkpt><trkpt lat="14.502515731494404" lon="120.98961389487893"><ele>1.0</ele><time>2026-04-20T05:43:23.002Z</time></trkpt><trkpt lat="14.502433197355053" lon="120.98959989580783"><ele>1.0</ele><time>2026-04-20T05:43:24.002Z</time></trkpt><trkpt lat="14.502339476149949" lon="120.98956812469268"><ele>1.0</ele><time>2026-04-20T05:43:25.002Z</time></trkpt><trkpt lat="14.502265536353619" lon="120.98953294803329"><ele>0.9999999999999999</ele><time>2026-04-20T05:43:26.002Z</time></trkpt><trkpt lat="14.502169005307634" lon="120.98950381636668"><ele>1.0</ele><time>2026-04-20T05:43:27.002Z</time></trkpt><trkpt lat="14.502057941828246" lon="120.98947789665282"><ele>1.8</ele><time>2026-04-20T05:43:28.002Z</time></trkpt><trkpt lat="14.501950134463737" lon="120.98946816332331"><ele>2.6</ele><time>2026-04-20T05:43:29.002Z</time></trkpt><trkpt lat="14.501856564503562" lon="120.98946978995036"><ele>3.4</ele><time>2026-04-20T05:43:30.002Z</time></trkpt><trkpt lat="14.501768076380497" lon="120.98947382245069"><ele>4.2</ele><time>2026-04-20T05:43:31.002Z</time></trkpt><trkpt lat="14.501679396518561" lon="120.98946847528798"><ele>5.0</ele><time>2026-04-20T05:43:32.002Z</time></trkpt><trkpt lat="14.501596823657614" lon="120.98944711387419"><ele>5.0</ele><time>2026-04-20T05:43:33.002Z</time></trkpt><trkpt lat="14.501509998337768" lon="120.98941653910798"><ele>5.0</ele><time>2026-04-20T05:43:34.002Z</time></trkpt><trkpt lat="14.501442357552124" lon="120.98939076204842"><ele>5.0</ele><time>2026-04-20T05:43:35.002Z</time></trkpt><trkpt lat="14.501369813848905" lon="120.98936707899703"><ele>5.0</ele><time>2026-04-20T05:43:36.002Z</time></trkpt><trkpt lat="14.501301595191238" lon="120.98934445178858"><ele>5.0</ele><time>2026-04-20T05:43:37.002Z</time></trkpt><trkpt lat="14.501240031995764" lon="120.98932434016504"><ele>5.0</ele><time>2026-04-20T05:43:38.002Z</time></trkpt><trkpt lat="14.501167318292968" lon="120.98930233292715"><ele>4.833333333333334</ele><time>2026-04-20T05:43:39.002Z</time></trkpt><trkpt lat="14.501090891878878" lon="120.9892780247193"><ele>4.666666666666667</ele><time>2026-04-20T05:43:40.002Z</time></trkpt><trkpt lat="14.501014277275114" lon="120.98925438975434"><ele>4.5</ele><time>2026-04-20T05:43:41.002Z</time></trkpt><trkpt lat="14.500936627612507" lon="120.98923127868477"><ele>4.333333333333333</ele><time>2026-04-20T05:43:42.002Z</time></trkpt><trkpt lat="14.500852339093532" lon="120.98921111252145"><ele>4.166666666666666</ele><time>2026-04-20T05:43:43.002Z</time></trkpt><trkpt lat="14.500778966750659" lon="120.98918979373066"><ele>4.0</ele><time>2026-04-20T05:43:44.002Z</time></trkpt><trkpt lat="14.500685947423975" lon="120.9891624607756"><ele>4.0</ele><time>2026-04-20T05:43:46.002Z</time></trkpt><trkpt lat="14.50062419695601" lon="120.98912799980508"><ele>4.0</ele><time>2026-04-20T05:43:48.002Z</time></trkpt><trkpt lat="14.500719946952527" lon="120.98913977107327"><ele>4.0</ele><time>2026-04-20T05:43:56Z</time></trkpt><trkpt lat="14.500854978729725" lon="120.98917173796617"><ele>4.0</ele><time>2026-04-20T05:43:58Z</time></trkpt><trkpt lat="14.500932928390679" lon="120.98919546630748"><ele>4.0</ele><time>2026-04-20T05:43:59Z</time></trkpt><trkpt lat="14.501009475852612" lon="120.9892187677602"><ele>4.2</ele><time>2026-04-20T05:44:00Z</time></trkpt><trkpt lat="14.501083330642189" lon="120.9892413829989"><ele>4.4</ele><time>2026-04-20T05:44:01Z</time></trkpt><trkpt lat="14.501207396754516" lon="120.989277742559"><ele>4.6</ele><time>2026-04-20T05:44:03Z</time></trkpt><trkpt lat="14.501274675676768" lon="120.98929673815293"><ele>4.8</ele><time>2026-04-20T05:44:04Z</time></trkpt><trkpt lat="14.501389209051371" lon="120.98933192449779"><ele>5.0</ele><time>2026-04-20T05:44:06Z</time></trkpt><trkpt lat="14.501491227781704" lon="120.989366332351"><ele>5.0</ele><time>2026-04-20T05:44:08Z</time></trkpt><trkpt lat="14.501561738976845" lon="120.98938734424563"><ele>5.0</ele><time>2026-04-20T05:44:10Z</time></trkpt><trkpt lat="14.501651236493371" lon="120.98941401398932"><ele>5.0</ele><time>2026-04-20T05:44:13Z</time></trkpt><trkpt lat="14.50172272298778" lon="120.98943531655465"><ele>5.0</ele><time>2026-04-20T05:44:15Z</time></trkpt><trkpt lat="14.501797776921457" lon="120.98944531464925"><ele>5.0</ele><time>2026-04-20T05:44:17Z</time></trkpt><trkpt lat="14.501866550406856" lon="120.98949379937126"><ele>5.0</ele><time>2026-04-20T05:44:19Z</time></trkpt><trkpt lat="14.50193135361836" lon="120.98955640662744"><ele>5.0</ele><time>2026-04-20T05:44:22Z</time></trkpt><trkpt lat="14.50197220210431" lon="120.9896127399361"><ele>5.0</ele><time>2026-04-20T05:44:25Z</time></trkpt><trkpt lat="14.502003089361452" lon="120.98967496681146"><ele>5.0</ele><time>2026-04-20T05:44:30.001Z</time></trkpt><trkpt lat="14.501973919338377" lon="120.9897721868134"><ele>5.0</ele><time>2026-04-20T05:44:33.001Z</time></trkpt><trkpt lat="14.501962315291824" lon="120.98984811427678"><ele>5.0</ele><time>2026-04-20T05:44:35.001Z</time></trkpt><trkpt lat="14.501947353074472" lon="120.9899460317419"><ele>5.0</ele><time>2026-04-20T05:44:37.001Z</time></trkpt><trkpt lat="14.501935997025665" lon="120.99002023426856"><ele>5.0</ele><time>2026-04-20T05:44:40.001Z</time></trkpt><trkpt lat="14.501782491974183" lon="120.99004339703492"><ele>5.0</ele><time>2026-04-20T05:44:44.001Z</time></trkpt><trkpt lat="14.501696503261483" lon="120.99001680136497"><ele>5.0</ele><time>2026-04-20T05:44:46.001Z</time></trkpt><trkpt lat="14.501634996555826" lon="120.98999951836709"><ele>5.0</ele><time>2026-04-20T05:44:48.001Z</time></trkpt><trkpt lat="14.501558688259106" lon="120.98997062096406"><ele>5.0</ele><time>2026-04-20T05:44:50.001Z</time></trkpt><trkpt lat="14.501463840921684" lon="120.98994198815251"><ele>5.0</ele><time>2026-04-20T05:44:52.001Z</time></trkpt><trkpt lat="14.501403984741556" lon="120.98989988325025"><ele>5.0</ele><time>2026-04-20T05:44:53.001Z</time></trkpt><trkpt lat="14.50131646492557" lon="120.9898969990818"><ele>5.0</ele><time>2026-04-20T05:44:55.001Z</time></trkpt><trkpt lat="14.501235023785414" lon="120.98986239426937"><ele>5.0</ele><time>2026-04-20T05:44:57.001Z</time></trkpt><trkpt lat="14.501156459212822" lon="120.98983315619567"><ele>5.0</ele><time>2026-04-20T05:44:59.001Z</time></trkpt><trkpt lat="14.501092980097349" lon="120.98980861579214"><ele>5.0</ele><time>2026-04-20T05:45:01.001Z</time></trkpt><trkpt lat="14.501024000007718" lon="120.98979821605225"><ele>5.666666666666667</ele><time>2026-04-20T05:45:03.001Z</time></trkpt><trkpt lat="14.500932438928665" lon="120.98976679946496"><ele>6.333333333333334</ele><time>2026-04-20T05:45:06.001Z</time></trkpt><trkpt lat="14.50084276591106" lon="120.9897471615063"><ele>7.0</ele><time>2026-04-20T05:45:08.001Z</time></trkpt><trkpt lat="14.50077009571171" lon="120.98971955682133"><ele>7.666666666666667</ele><time>2026-04-20T05:45:10.001Z</time></trkpt><trkpt lat="14.500687645821213" lon="120.98968853278954"><ele>8.333333333333334</ele><time>2026-04-20T05:45:12.002Z</time></trkpt><trkpt lat="14.500613812163087" lon="120.98967538022254"><ele>9.0</ele><time>2026-04-20T05:45:14.002Z</time></trkpt><trkpt lat="14.500535515098704" lon="120.98965515337163"><ele>9.0</ele><time>2026-04-20T05:45:17.002Z</time></trkpt><trkpt lat="14.50046269100413" lon="120.98960623278458"><ele>9.0</ele><time>2026-04-20T05:45:19.002Z</time></trkpt><trkpt lat="14.500354117481448" lon="120.98957267434089"><ele>9.0</ele><time>2026-04-20T05:45:21.002Z</time></trkpt><trkpt lat="14.500285196685242" lon="120.98955137197416"><ele>9.0</ele><time>2026-04-20T05:45:22.002Z</time></trkpt><trkpt lat="14.500215417678477" lon="120.98952978086236"><ele>9.0</ele><time>2026-04-20T05:45:23.002Z</time></trkpt><trkpt lat="14.50013258287587" lon="120.98950826656778"><ele>9.0</ele><time>2026-04-20T05:45:24.002Z</time></trkpt><trkpt lat="14.500062994476403" lon="120.9894646900939"><ele>8.666666666666666</ele><time>2026-04-20T05:45:25.002Z</time></trkpt><trkpt lat="14.499991122103706" lon="120.98944248369894"><ele>8.333333333333334</ele><time>2026-04-20T05:45:26.002Z</time></trkpt><trkpt lat="14.49993380964239" lon="120.98941010291281"><ele>8.0</ele><time>2026-04-20T05:45:27.002Z</time></trkpt><trkpt lat="14.499848732959673" lon="120.98940125875342"><ele>7.666666666666667</ele><time>2026-04-20T05:45:28.002Z</time></trkpt><trkpt lat="14.499765597980117" lon="120.98937943959127"><ele>7.333333333333334</ele><time>2026-04-20T05:45:29.002Z</time></trkpt><trkpt lat="14.499687013715612" lon="120.98935739603962"><ele>7.0</ele><time>2026-04-20T05:45:30.002Z</time></trkpt><trkpt lat="14.499618121144128" lon="120.98933330016933"><ele>7.199999999999999</ele><time>2026-04-20T05:45:31.002Z</time></trkpt><trkpt lat="14.499527660346647" lon="120.98930901721512"><ele>7.3999999999999995</ele><time>2026-04-20T05:45:33.002Z</time></trkpt><trkpt lat="14.499431457186613" lon="120.98927651470241"><ele>7.6000000000000005</ele><time>2026-04-20T05:45:36.002Z</time></trkpt><trkpt lat="14.499312983242243" lon="120.98926529310774"><ele>7.800000000000001</ele><time>2026-04-20T05:45:38.002Z</time></trkpt><trkpt lat="14.499201408023874" lon="120.989226137313"><ele>8.0</ele><time>2026-04-20T05:45:40.002Z</time></trkpt><trkpt lat="14.49908566440051" lon="120.98919393969693"><ele>7.666666666666666</ele><time>2026-04-20T05:45:42.002Z</time></trkpt><trkpt lat="14.498969971811277" lon="120.98915723485298"><ele>7.333333333333333</ele><time>2026-04-20T05:45:44.002Z</time></trkpt><trkpt lat="14.49886013552944" lon="120.98912206109338"><ele>7.0</ele><time>2026-04-20T05:45:46.002Z</time></trkpt><trkpt lat="14.498797138656974" lon="120.98910631981514"><ele>6.666666666666666</ele><time>2026-04-20T05:45:47.002Z</time></trkpt><trkpt lat="14.498732761381424" lon="120.98908555310432"><ele>6.333333333333333</ele><time>2026-04-20T05:45:48.002Z</time></trkpt><trkpt lat="14.498666112850604" lon="120.98906870245055"><ele>6.0</ele><time>2026-04-20T05:45:49.002Z</time></trkpt><trkpt lat="14.498589326336518" lon="120.98904191999873"><ele>6.0</ele><time>2026-04-20T05:45:50.002Z</time></trkpt><trkpt lat="14.498501814738454" lon="120.98901439993149"><ele>6.0</ele><time>2026-04-20T05:45:51.002Z</time></trkpt><trkpt lat="14.4984046493495" lon="120.98898353151344"><ele>6.0</ele><time>2026-04-20T05:45:52.002Z</time></trkpt><trkpt lat="14.49829896490221" lon="120.98895000770369"><ele>6.0</ele><time>2026-04-20T05:45:53.002Z</time></trkpt><trkpt lat="14.498188527000655" lon="120.98891504952637"><ele>6.0</ele><time>2026-04-20T05:45:54.002Z</time></trkpt><trkpt lat="14.498073971076755" lon="120.98888106675771"><ele>6.0</ele><time>2026-04-20T05:45:55.002Z</time></trkpt><trkpt lat="14.497953715268032" lon="120.98884576345019"><ele>6.0</ele><time>2026-04-20T05:45:56.002Z</time></trkpt><trkpt lat="14.49783126818157" lon="120.98880492492205"><ele>6.0</ele><time>2026-04-20T05:45:57.002Z</time></trkpt><trkpt lat="14.497704450848373" lon="120.98876631600291"><ele>6.0</ele><time>2026-04-20T05:45:58.002Z</time></trkpt><trkpt lat="14.497571605741564" lon="120.98872744978378"><ele>6.25</ele><time>2026-04-20T05:45:59Z</time></trkpt><trkpt lat="14.497448848180923" lon="120.98869486006018"><ele>6.5</ele><time>2026-04-20T05:46:00Z</time></trkpt><trkpt lat="14.497329263516352" lon="120.98865583785205"><ele>6.75</ele><time>2026-04-20T05:46:01Z</time></trkpt><trkpt lat="14.497225879406852" lon="120.98862706311698"><ele>7.0</ele><time>2026-04-20T05:46:02Z</time></trkpt><trkpt lat="14.497135432131191" lon="120.98860509699675"><ele>7.0</ele><time>2026-04-20T05:46:03Z</time></trkpt><trkpt lat="14.497039732015631" lon="120.98857806012684"><ele>6.999999999999999</ele><time>2026-04-20T05:46:04Z</time></trkpt><trkpt lat="14.49695527532997" lon="120.98853529423602"><ele>6.999999999999999</ele><time>2026-04-20T05:46:05Z</time></trkpt><trkpt lat="14.49686993010844" lon="120.98852636244688"><ele>7.0</ele><time>2026-04-20T05:46:06Z</time></trkpt><trkpt lat="14.496772670768129" lon="120.98849409961898"><ele>7.0</ele><time>2026-04-20T05:46:07Z</time></trkpt><trkpt lat="14.49669205355646" lon="120.98846764507358"><ele>7.0</ele><time>2026-04-20T05:46:08Z</time></trkpt><trkpt lat="14.496623900278108" lon="120.98844854255208"><ele>6.999999999999999</ele><time>2026-04-20T05:46:09Z</time></trkpt><trkpt lat="14.496546290048506" lon="120.98842116825938"><ele>6.999999999999999</ele><time>2026-04-20T05:46:10Z</time></trkpt><trkpt lat="14.496450343681758" lon="120.98837358196668"><ele>7.0</ele><time>2026-04-20T05:46:11Z</time></trkpt><trkpt lat="14.49635601446775" lon="120.98835885241596"><ele>7.0</ele><time>2026-04-20T05:46:12Z</time></trkpt><trkpt lat="14.49626814826626" lon="120.98831241166684"><ele>6.833333333333334</ele><time>2026-04-20T05:46:13Z</time></trkpt><trkpt lat="14.496190528572509" lon="120.98828515735963"><ele>6.666666666666667</ele><time>2026-04-20T05:46:14Z</time></trkpt><trkpt lat="14.496120148013187" lon="120.98827670888417"><ele>6.5</ele><time>2026-04-20T05:46:15Z</time></trkpt><trkpt lat="14.496036710203693" lon="120.98824337041037"><ele>6.333333333333334</ele><time>2026-04-20T05:46:16Z</time></trkpt><trkpt lat="14.495958464360559" lon="120.98821297694448"><ele>6.166666666666667</ele><time>2026-04-20T05:46:17Z</time></trkpt><trkpt lat="14.495890813700116" lon="120.98818792918657"><ele>6.0</ele><time>2026-04-20T05:46:18Z</time></trkpt><trkpt lat="14.495814207966825" lon="120.98815908614688"><ele>6.0</ele><time>2026-04-20T05:46:19Z</time></trkpt><trkpt lat="14.495733311019377" lon="120.98812860644594"><ele>6.0</ele><time>2026-04-20T05:46:20.001Z</time></trkpt><trkpt lat="14.495661137201077" lon="120.98808538681064"><ele>6.0</ele><time>2026-04-20T05:46:21.001Z</time></trkpt><trkpt lat="14.495577027764133" lon="120.98805250593051"><ele>6.0</ele><time>2026-04-20T05:46:22.001Z</time></trkpt><trkpt lat="14.495493989023718" lon="120.98803514067781"><ele>6.0</ele><time>2026-04-20T05:46:23.001Z</time></trkpt><trkpt lat="14.495417472263586" lon="120.98800539403551"><ele>6.0</ele><time>2026-04-20T05:46:24.001Z</time></trkpt><trkpt lat="14.495358607776879" lon="120.98796711903456"><ele>6.0</ele><time>2026-04-20T05:46:25.001Z</time></trkpt><trkpt lat="14.495240704919123" lon="120.98791402709438"><ele>6.0</ele><time>2026-04-20T05:46:26.001Z</time></trkpt><trkpt lat="14.4951412936176" lon="120.98788729817137"><ele>6.0</ele><time>2026-04-20T05:46:27.001Z</time></trkpt><trkpt lat="14.495068947973008" lon="120.98783593515019"><ele>6.0</ele><time>2026-04-20T05:46:28.001Z</time></trkpt><trkpt lat="14.494983848447276" lon="120.98779746206392"><ele>6.0</ele><time>2026-04-20T05:46:29.001Z</time></trkpt><trkpt lat="14.49490791389288" lon="120.98776314961735"><ele>6.0</ele><time>2026-04-20T05:46:30.001Z</time></trkpt><trkpt lat="14.494815960756128" lon="120.98773964138155"><ele>6.0</ele><time>2026-04-20T05:46:31.001Z</time></trkpt><trkpt lat="14.494741020246071" lon="120.98770312722672"><ele>6.0</ele><time>2026-04-20T05:46:32.001Z</time></trkpt><trkpt lat="14.494670525448088" lon="120.98766958196408"><ele>6.0</ele><time>2026-04-20T05:46:33.001Z</time></trkpt><trkpt lat="14.494610207318843" lon="120.9876467094266"><ele>6.0</ele><time>2026-04-20T05:46:34.001Z</time></trkpt><trkpt lat="14.494532637988973" lon="120.98760808748712"><ele>6.0</ele><time>2026-04-20T05:46:35.001Z</time></trkpt><trkpt lat="14.494460029305303" lon="120.98757197190868"><ele>6.199999999999999</ele><time>2026-04-20T05:46:36.001Z</time></trkpt><trkpt lat="14.494386125693032" lon="120.98753564450605"><ele>6.3999999999999995</ele><time>2026-04-20T05:46:37.001Z</time></trkpt><trkpt lat="14.494301023251758" lon="120.9874942204635"><ele>6.6</ele><time>2026-04-20T05:46:38.001Z</time></trkpt><trkpt lat="14.494228049802022" lon="120.98746332467341"><ele>6.8</ele><time>2026-04-20T05:46:39.001Z</time></trkpt><trkpt lat="14.494138041783211" lon="120.98739326389597"><ele>7.0</ele><time>2026-04-20T05:46:40.001Z</time></trkpt><trkpt lat="14.494050074883537" lon="120.98734847380565"><ele>6.833333333333334</ele><time>2026-04-20T05:46:41.001Z</time></trkpt><trkpt lat="14.493970219489174" lon="120.98730781387606"><ele>6.666666666666667</ele><time>2026-04-20T05:46:42.001Z</time></trkpt><trkpt lat="14.493911516260848" lon="120.98727792395414"><ele>6.5</ele><time>2026-04-20T05:46:43.001Z</time></trkpt><trkpt lat="14.493851672959469" lon="120.98724745353597"><ele>6.333333333333334</ele><time>2026-04-20T05:46:44.001Z</time></trkpt><trkpt lat="14.493781932957383" lon="120.98721194404062"><ele>6.166666666666667</ele><time>2026-04-20T05:46:45.001Z</time></trkpt><trkpt lat="14.493698467627084" lon="120.98716944601708"><ele>6.0</ele><time>2026-04-20T05:46:46.001Z</time></trkpt><trkpt lat="14.49361193645202" lon="120.9871253869343"><ele>6.0</ele><time>2026-04-20T05:46:47.001Z</time></trkpt><trkpt lat="14.493525854839529" lon="120.98708155679395"><ele>6.0</ele><time>2026-04-20T05:46:48.001Z</time></trkpt><trkpt lat="14.493438595212933" lon="120.98703712683293"><ele>6.0</ele><time>2026-04-20T05:46:49.001Z</time></trkpt><trkpt lat="14.493366841259128" lon="120.98700059190692"><ele>6.0</ele><time>2026-04-20T05:46:50.001Z</time></trkpt><trkpt lat="14.493287751628172" lon="120.98696032183254"><ele>6.0</ele><time>2026-04-20T05:46:51.001Z</time></trkpt><trkpt lat="14.493208447260157" lon="120.98691994232964"><ele>6.0</ele><time>2026-04-20T05:46:52.001Z</time></trkpt><trkpt lat="14.493124000762883" lon="120.98691124486287"><ele>6.0</ele><time>2026-04-20T05:46:53.001Z</time></trkpt><trkpt lat="14.493024142634535" lon="120.9868866670629"><ele>6.0</ele><time>2026-04-20T05:46:55.001Z</time></trkpt><trkpt lat="14.492948355560237" lon="120.98686981847132"><ele>6.0</ele><time>2026-04-20T05:46:57.001Z</time></trkpt><trkpt lat="14.492883244380135" lon="120.98685135819213"><ele>6.0</ele><time>2026-04-20T05:47:03.001Z</time></trkpt><trkpt lat="14.492805120237243" lon="120.98681336926879"><ele>6.0</ele><time>2026-04-20T05:47:06.002Z</time></trkpt><trkpt lat="14.492695024893242" lon="120.98677815254665"><ele>6.0</ele><time>2026-04-20T05:47:08.002Z</time></trkpt><trkpt lat="14.492617352441005" lon="120.98675357121921"><ele>6.0</ele><time>2026-04-20T05:47:10.002Z</time></trkpt><trkpt lat="14.492528063572115" lon="120.98672159032361"><ele>6.0</ele><time>2026-04-20T05:47:12.002Z</time></trkpt><trkpt lat="14.492541256967659" lon="120.9866096390681"><ele>6.0</ele><time>2026-04-20T05:47:14.002Z</time></trkpt><trkpt lat="14.492549984497701" lon="120.98653602581737"><ele>6.0</ele><time>2026-04-20T05:47:16.002Z</time></trkpt><trkpt lat="14.492453578083616" lon="120.98645131330386"><ele>6.0</ele><time>2026-04-20T05:47:18.002Z</time></trkpt><trkpt lat="14.492369485141108" lon="120.98641442241461"><ele>6.0</ele><time>2026-04-20T05:47:19.002Z</time></trkpt><trkpt lat="14.492279380129052" lon="120.9863711248579"><ele>6.0</ele><time>2026-04-20T05:47:20.002Z</time></trkpt><trkpt lat="14.492177829760564" lon="120.98631917699718"><ele>6.0</ele><time>2026-04-20T05:47:21.002Z</time></trkpt><trkpt lat="14.492081866200317" lon="120.98626442052718"><ele>6.0</ele><time>2026-04-20T05:47:22.002Z</time></trkpt><trkpt lat="14.491980587315325" lon="120.98619832049123"><ele>6.75</ele><time>2026-04-20T05:47:23.002Z</time></trkpt><trkpt lat="14.49186869029591" lon="120.98612082873248"><ele>7.5</ele><time>2026-04-20T05:47:24.002Z</time></trkpt><trkpt lat="14.491782860997708" lon="120.98601573001545"><ele>8.25</ele><time>2026-04-20T05:47:25.002Z</time></trkpt><trkpt lat="14.491684992930201" lon="120.9859395112989"><ele>9.0</ele><time>2026-04-20T05:47:26.002Z</time></trkpt><trkpt lat="14.491583903015446" lon="120.98585397339562"><ele>8.6</ele><time>2026-04-20T05:47:27.002Z</time></trkpt><trkpt lat="14.491488174089222" lon="120.98577184173595"><ele>8.2</ele><time>2026-04-20T05:47:28.002Z</time></trkpt><trkpt lat="14.491399140817002" lon="120.98568837211205"><ele>7.799999999999999</ele><time>2026-04-20T05:47:29.002Z</time></trkpt><trkpt lat="14.491323093917002" lon="120.98562372920784"><ele>7.3999999999999995</ele><time>2026-04-20T05:47:30.002Z</time></trkpt><trkpt lat="14.491248585696686" lon="120.98556136822845"><ele>7.0</ele><time>2026-04-20T05:47:32.002Z</time></trkpt><trkpt lat="14.491181569792358" lon="120.98550636998311"><ele>7.000000000000001</ele><time>2026-04-20T05:47:34.002Z</time></trkpt><trkpt lat="14.491115081954856" lon="120.98545922540451"><ele>7.0</ele><time>2026-04-20T05:47:36.002Z</time></trkpt><trkpt lat="14.491051189072333" lon="120.98541343628982"><ele>7.0</ele><time>2026-04-20T05:47:38.002Z</time></trkpt><trkpt lat="14.490951192532242" lon="120.98534177333832"><ele>7.0</ele><time>2026-04-20T05:47:40.002Z</time></trkpt><trkpt lat="14.490896097078169" lon="120.98530228906101"><ele>7.000000000000001</ele><time>2026-04-20T05:47:41.002Z</time></trkpt><trkpt lat="14.490809142781021" lon="120.98525388503121"><ele>7.0</ele><time>2026-04-20T05:47:43.002Z</time></trkpt><trkpt lat="14.490728258157347" lon="120.98520665660222"><ele>7.000000000000001</ele><time>2026-04-20T05:47:45.002Z</time></trkpt><trkpt lat="14.490673295918253" lon="120.98517456420672"><ele>7.0</ele><time>2026-04-20T05:47:46.002Z</time></trkpt><trkpt lat="14.490612348105971" lon="120.98513897684713"><ele>7.0</ele><time>2026-04-20T05:47:47.002Z</time></trkpt><trkpt lat="14.490548265984074" lon="120.98510155937487"><ele>7.0</ele><time>2026-04-20T05:47:48.002Z</time></trkpt><trkpt lat="14.490487608294469" lon="120.9850661414017"><ele>7.000000000000001</ele><time>2026-04-20T05:47:49.002Z</time></trkpt><trkpt lat="14.49043353183966" lon="120.98503115602317"><ele>7.0</ele><time>2026-04-20T05:47:50.002Z</time></trkpt><trkpt lat="14.490349106778796" lon="120.98494977167631"><ele>6.8</ele><time>2026-04-20T05:47:52.002Z</time></trkpt><trkpt lat="14.490303461553946" lon="120.98484255381166"><ele>6.6</ele><time>2026-04-20T05:47:54.003Z</time></trkpt><trkpt lat="14.490250046825958" lon="120.9847307093156"><ele>6.3999999999999995</ele><time>2026-04-20T05:47:56.003Z</time></trkpt><trkpt lat="14.490221457814519" lon="120.98467084703678"><ele>6.199999999999999</ele><time>2026-04-20T05:47:57.003Z</time></trkpt><trkpt lat="14.490180029241666" lon="120.98458658705758"><ele>6.0</ele><time>2026-04-20T05:47:58.003Z</time></trkpt><trkpt lat="14.490117779298453" lon="120.98450057317362"><ele>6.0</ele><time>2026-04-20T05:47:59.003Z</time></trkpt><trkpt lat="14.490034390766219" lon="120.9844279524368"><ele>6.0</ele><time>2026-04-20T05:48:00.003Z</time></trkpt><trkpt lat="14.489964671206046" lon="120.98436861686778"><ele>6.0</ele><time>2026-04-20T05:48:01.003Z</time></trkpt><trkpt lat="14.489879319081165" lon="120.9843132066048"><ele>6.0</ele><time>2026-04-20T05:48:02.003Z</time></trkpt><trkpt lat="14.489806016528496" lon="120.98421326296258"><ele>6.0</ele><time>2026-04-20T05:48:03.003Z</time></trkpt><trkpt lat="14.489729107241548" lon="120.98418379660585"><ele>6.0</ele><time>2026-04-20T05:48:04.003Z</time></trkpt><trkpt lat="14.489668833922586" lon="120.9841366546079"><ele>6.0</ele><time>2026-04-20T05:48:05.001Z</time></trkpt><trkpt lat="14.48960788347658" lon="120.98410678518219"><ele>6.0</ele><time>2026-04-20T05:48:06.001Z</time></trkpt><trkpt lat="14.489495111362586" lon="120.98410858168413"><ele>6.0</ele><time>2026-04-20T05:48:08.001Z</time></trkpt><trkpt lat="14.489444437820277" lon="120.98414771445394"><ele>6.0</ele><time>2026-04-20T05:48:09.001Z</time></trkpt><trkpt lat="14.489406332074152" lon="120.98420570553753"><ele>6.0</ele><time>2026-04-20T05:48:10.001Z</time></trkpt><trkpt lat="14.489397711099256" lon="120.98428216661416"><ele>6.199999999999999</ele><time>2026-04-20T05:48:11.001Z</time></trkpt><trkpt lat="14.489399358880332" lon="120.98436398270644"><ele>6.3999999999999995</ele><time>2026-04-20T05:48:12.001Z</time></trkpt><trkpt lat="14.489360199948987" lon="120.98441654405732"><ele>6.6</ele><time>2026-04-20T05:48:13.001Z</time></trkpt><trkpt lat="14.489286622975879" lon="120.98450708973633"><ele>6.8</ele><time>2026-04-20T05:48:14.001Z</time></trkpt><trkpt lat="14.489245041667601" lon="120.98459557618402"><ele>7.0</ele><time>2026-04-20T05:48:16.001Z</time></trkpt><trkpt lat="14.489142721450797" lon="120.9845467696756"><ele>7.000000000000001</ele><time>2026-04-20T05:48:19.001Z</time></trkpt><trkpt lat="14.489078282387968" lon="120.98453019225214"><ele>7.0</ele><time>2026-04-20T05:48:20.001Z</time></trkpt><trkpt lat="14.489026121505127" lon="120.98449240579991"><ele>7.0</ele><time>2026-04-20T05:48:21.001Z</time></trkpt><trkpt lat="14.48895759668874" lon="120.98445558621718"><ele>7.0</ele><time>2026-04-20T05:48:23.001Z</time></trkpt><trkpt lat="14.488891073402845" lon="120.98441707117435"><ele>7.000000000000001</ele><time>2026-04-20T05:48:28.001Z</time></trkpt><trkpt lat="14.48880508006654" lon="120.98435630254617"><ele>7.0</ele><time>2026-04-20T05:48:30.001Z</time></trkpt><trkpt lat="14.48872883849621" lon="120.98429941353449"><ele>7.000000000000001</ele><time>2026-04-20T05:48:32.001Z</time></trkpt><trkpt lat="14.488686815929979" lon="120.98424956797379"><ele>7.0</ele><time>2026-04-20T05:48:34.001Z</time></trkpt><trkpt lat="14.488608966842696" lon="120.98421908259374"><ele>7.0</ele><time>2026-04-20T05:48:39.001Z</time></trkpt><trkpt lat="14.48851692011468" lon="120.98414205370355"><ele>7.0</ele><time>2026-04-20T05:48:41.001Z</time></trkpt><trkpt lat="14.488450202360186" lon="120.98409907296731"><ele>7.000000000000001</ele><time>2026-04-20T05:48:42.001Z</time></trkpt><trkpt lat="14.48838040430861" lon="120.98405410783589"><ele>7.0</ele><time>2026-04-20T05:48:43.001Z</time></trkpt><trkpt lat="14.488301879541085" lon="120.98400352080063"><ele>7.0</ele><time>2026-04-20T05:48:44.001Z</time></trkpt><trkpt lat="14.48822621675443" lon="120.98395477751356"><ele>6.999999999999999</ele><time>2026-04-20T05:48:45.001Z</time></trkpt><trkpt lat="14.488155358862866" lon="120.98390446765772"><ele>6.999999999999999</ele><time>2026-04-20T05:48:46.001Z</time></trkpt><trkpt lat="14.488080510803112" lon="120.98384909639243"><ele>7.0</ele><time>2026-04-20T05:48:47.001Z</time></trkpt><trkpt lat="14.488003653147416" lon="120.98378951412656"><ele>7.0</ele><time>2026-04-20T05:48:48.001Z</time></trkpt><trkpt lat="14.487923072161465" lon="120.98372586153677"><ele>7.3999999999999995</ele><time>2026-04-20T05:48:49.001Z</time></trkpt><trkpt lat="14.487837306355186" lon="120.98365796119393"><ele>7.799999999999999</ele><time>2026-04-20T05:48:50.001Z</time></trkpt><trkpt lat="14.487760936736628" lon="120.98359737295779"><ele>8.2</ele><time>2026-04-20T05:48:51.001Z</time></trkpt><trkpt lat="14.487666918244388" lon="120.98352278291556"><ele>8.6</ele><time>2026-04-20T05:48:52.001Z</time></trkpt><trkpt lat="14.487595084280226" lon="120.98346579307078"><ele>9.0</ele><time>2026-04-20T05:48:53.001Z</time></trkpt><trkpt lat="14.487507711196464" lon="120.98339647517986"><ele>8.6</ele><time>2026-04-20T05:48:54.001Z</time></trkpt><trkpt lat="14.487415198519326" lon="120.98332312035919"><ele>8.2</ele><time>2026-04-20T05:48:55.001Z</time></trkpt><trkpt lat="14.48732077585384" lon="120.98324826537443"><ele>7.799999999999999</ele><time>2026-04-20T05:48:56.001Z</time></trkpt><trkpt lat="14.487254019150065" lon="120.9831953427886"><ele>7.3999999999999995</ele><time>2026-04-20T05:48:57.001Z</time></trkpt><trkpt lat="14.487196946266588" lon="120.98315009720584"><ele>7.0</ele><time>2026-04-20T05:48:58.001Z</time></trkpt><trkpt lat="14.48710045614426" lon="120.98307360296653"><ele>7.199999999999999</ele><time>2026-04-20T05:48:59.001Z</time></trkpt><trkpt lat="14.487026118991688" lon="120.98301467084416"><ele>7.3999999999999995</ele><time>2026-04-20T05:49:00.001Z</time></trkpt><trkpt lat="14.486942943507819" lon="120.98294873197285"><ele>7.6000000000000005</ele><time>2026-04-20T05:49:01.001Z</time></trkpt><trkpt lat="14.48685945933821" lon="120.98288254840634"><ele>7.800000000000001</ele><time>2026-04-20T05:49:02.001Z</time></trkpt><trkpt lat="14.486773651554133" lon="120.98281452273231"><ele>8.0</ele><time>2026-04-20T05:49:03.001Z</time></trkpt><trkpt lat="14.48669390564642" lon="120.98275130273522"><ele>8.0</ele><time>2026-04-20T05:49:04.001Z</time></trkpt><trkpt lat="14.486611143164366" lon="120.98268569128969"><ele>8.0</ele><time>2026-04-20T05:49:05.001Z</time></trkpt><trkpt lat="14.486495822653517" lon="120.98265621733175"><ele>8.0</ele><time>2026-04-20T05:49:06.002Z</time></trkpt><trkpt lat="14.486412088281527" lon="120.98259336057913"><ele>8.0</ele><time>2026-04-20T05:49:07.002Z</time></trkpt><trkpt lat="14.486337475567085" lon="120.98252366585427"><ele>8.0</ele><time>2026-04-20T05:49:08.002Z</time></trkpt><trkpt lat="14.486266043853233" lon="120.98245040072618"><ele>7.4</ele><time>2026-04-20T05:49:09.002Z</time></trkpt><trkpt lat="14.486182117331252" lon="120.98238781649012"><ele>6.800000000000001</ele><time>2026-04-20T05:49:10.002Z</time></trkpt><trkpt lat="14.486087205090321" lon="120.98233541087139"><ele>6.2</ele><time>2026-04-20T05:49:11.002Z</time></trkpt><trkpt lat="14.48598392002362" lon="120.98229501934588"><ele>5.6</ele><time>2026-04-20T05:49:12.002Z</time></trkpt><trkpt lat="14.485879474664904" lon="120.98225714432324"><ele>5.0</ele><time>2026-04-20T05:49:13.002Z</time></trkpt><trkpt lat="14.485772125780242" lon="120.98221532592827"><ele>5.0</ele><time>2026-04-20T05:49:14.002Z</time></trkpt><trkpt lat="14.485677552712618" lon="120.98216621062124"><ele>5.0</ele><time>2026-04-20T05:49:15.002Z</time></trkpt><trkpt lat="14.485589815286456" lon="120.98210311352489"><ele>5.0</ele><time>2026-04-20T05:49:16.002Z</time></trkpt><trkpt lat="14.485511334699556" lon="120.98203094138731"><ele>5.0</ele><time>2026-04-20T05:49:17.002Z</time></trkpt><trkpt lat="14.485428543979063" lon="120.98194974515188"><ele>5.0</ele><time>2026-04-20T05:49:18.002Z</time></trkpt><trkpt lat="14.485348246720157" lon="120.98186463152038"><ele>6.0</ele><time>2026-04-20T05:49:19.002Z</time></trkpt><trkpt lat="14.485264613409202" lon="120.98178268108467"><ele>7.0</ele><time>2026-04-20T05:49:20.002Z</time></trkpt><trkpt lat="14.485178234182536" lon="120.98170242870029"><ele>8.0</ele><time>2026-04-20T05:49:21.002Z</time></trkpt><trkpt lat="14.485094991890511" lon="120.98161501899494"><ele>9.0</ele><time>2026-04-20T05:49:22.002Z</time></trkpt><trkpt lat="14.485012684210066" lon="120.98152961825039"><ele>9.6</ele><time>2026-04-20T05:49:23.002Z</time></trkpt><trkpt lat="14.484928107109798" lon="120.98145144044972"><ele>10.2</ele><time>2026-04-20T05:49:24.002Z</time></trkpt><trkpt lat="14.48484709835912" lon="120.98138356099436"><ele>10.799999999999999</ele><time>2026-04-20T05:49:25.002Z</time></trkpt><trkpt lat="14.484772063464067" lon="120.98131891838543"><ele>11.4</ele><time>2026-04-20T05:49:26.002Z</time></trkpt><trkpt lat="14.484703083256223" lon="120.9812576574781"><ele>12.0</ele><time>2026-04-20T05:49:27.002Z</time></trkpt><trkpt lat="14.484640021992877" lon="120.98119743642667"><ele>11.5</ele><time>2026-04-20T05:49:28.002Z</time></trkpt><trkpt lat="14.484583770331936" lon="120.98114730160374"><ele>11.0</ele><time>2026-04-20T05:49:29.002Z</time></trkpt><trkpt lat="14.484525609777721" lon="120.98109921069202"><ele>10.5</ele><time>2026-04-20T05:49:31.002Z</time></trkpt><trkpt lat="14.48444684846155" lon="120.98102847413229"><ele>10.0</ele><time>2026-04-20T05:49:36.002Z</time></trkpt><trkpt lat="14.484397226643168" lon="120.9809824185445"><ele>9.5</ele><time>2026-04-20T05:49:37.002Z</time></trkpt><trkpt lat="14.48433749549418" lon="120.98092861940228"><ele>9.0</ele><time>2026-04-20T05:49:38.002Z</time></trkpt><trkpt lat="14.484272619101977" lon="120.9808713472241"><ele>9.0</ele><time>2026-04-20T05:49:39.002Z</time></trkpt><trkpt lat="14.484199397901623" lon="120.98081049672491"><ele>9.0</ele><time>2026-04-20T05:49:40.002Z</time></trkpt><trkpt lat="14.484128542885388" lon="120.98074995205977"><ele>9.0</ele><time>2026-04-20T05:49:41.002Z</time></trkpt><trkpt lat="14.484052118787153" lon="120.98068528269003"><ele>9.0</ele><time>2026-04-20T05:49:42.002Z</time></trkpt><trkpt lat="14.48396530605055" lon="120.98061791109009"><ele>9.0</ele><time>2026-04-20T05:49:43.002Z</time></trkpt><trkpt lat="14.483883150951339" lon="120.98054715280836"><ele>9.0</ele><time>2026-04-20T05:49:44.002Z</time></trkpt><trkpt lat="14.483801671024532" lon="120.98047565063264"><ele>9.0</ele><time>2026-04-20T05:49:45.002Z</time></trkpt><trkpt lat="14.483713966902855" lon="120.98039610440938"><ele>9.0</ele><time>2026-04-20T05:49:46.002Z</time></trkpt><trkpt lat="14.483632149738781" lon="120.98031868498578"><ele>9.0</ele><time>2026-04-20T05:49:47.002Z</time></trkpt><trkpt lat="14.483546291361222" lon="120.9802421002183"><ele>9.0</ele><time>2026-04-20T05:49:48.002Z</time></trkpt><trkpt lat="14.483469412406595" lon="120.98017305774269"><ele>8.8</ele><time>2026-04-20T05:49:49.002Z</time></trkpt><trkpt lat="14.483378291429691" lon="120.98009687659481"><ele>8.600000000000001</ele><time>2026-04-20T05:49:50.002Z</time></trkpt><trkpt lat="14.483306709269339" lon="120.98002877619645"><ele>8.4</ele><time>2026-04-20T05:49:51.002Z</time></trkpt><trkpt lat="14.483242380713987" lon="120.979962677668"><ele>8.200000000000001</ele><time>2026-04-20T05:49:52.002Z</time></trkpt><trkpt lat="14.483180910358818" lon="120.97990437225832"><ele>8.0</ele><time>2026-04-20T05:49:53.002Z</time></trkpt><trkpt lat="14.483125215464247" lon="120.97985698914377"><ele>7.999999999999999</ele><time>2026-04-20T05:49:54.002Z</time></trkpt><trkpt lat="14.483039227507598" lon="120.97977384845677"><ele>8.0</ele><time>2026-04-20T05:49:56.003Z</time></trkpt><trkpt lat="14.482992138596437" lon="120.97972767732077"><ele>8.0</ele><time>2026-04-20T05:50:00.003Z</time></trkpt><trkpt lat="14.482941146427951" lon="120.9796808545334"><ele>8.0</ele><time>2026-04-20T05:50:04.003Z</time></trkpt><trkpt lat="14.482867771826136" lon="120.97961147247223"><ele>7.999999999999999</ele><time>2026-04-20T05:50:06.003Z</time></trkpt><trkpt lat="14.482810273694895" lon="120.97955218069282"><ele>8.0</ele><time>2026-04-20T05:50:11.001Z</time></trkpt><trkpt lat="14.482744903065438" lon="120.9794921022797"><ele>8.0</ele><time>2026-04-20T05:50:13.001Z</time></trkpt><trkpt lat="14.48265461216101" lon="120.97940508833985"><ele>8.0</ele><time>2026-04-20T05:50:15.001Z</time></trkpt><trkpt lat="14.482560231826204" lon="120.97932313638381"><ele>8.0</ele><time>2026-04-20T05:50:17.001Z</time></trkpt><trkpt lat="14.482457768494609" lon="120.97923629407474"><ele>8.0</ele><time>2026-04-20T05:50:19.001Z</time></trkpt><trkpt lat="14.482397896509188" lon="120.979189697268"><ele>8.0</ele><time>2026-04-20T05:50:20.001Z</time></trkpt><trkpt lat="14.482334409626537" lon="120.97913464710025"><ele>8.0</ele><time>2026-04-20T05:50:21.001Z</time></trkpt><trkpt lat="14.48222319268959" lon="120.97904338676271"><ele>8.0</ele><time>2026-04-20T05:50:23.001Z</time></trkpt><trkpt lat="14.482159298632224" lon="120.97899256339615"><ele>8.0</ele><time>2026-04-20T05:50:24.001Z</time></trkpt><trkpt lat="14.482088505199437" lon="120.97893631673432"><ele>8.0</ele><time>2026-04-20T05:50:25.001Z</time></trkpt><trkpt lat="14.482032908469813" lon="120.97889224921649"><ele>7.999999999999999</ele><time>2026-04-20T05:50:26.001Z</time></trkpt><trkpt lat="14.481964666618003" lon="120.97883556172721"><ele>8.0</ele><time>2026-04-20T05:50:27.001Z</time></trkpt><trkpt lat="14.481897621622636" lon="120.97878332515694"><ele>8.0</ele><time>2026-04-20T05:50:28.001Z</time></trkpt><trkpt lat="14.481830768606375" lon="120.97873434044949"><ele>8.0</ele><time>2026-04-20T05:50:29.001Z</time></trkpt><trkpt lat="14.48176663461535" lon="120.97868433893774"><ele>7.999999999999999</ele><time>2026-04-20T05:50:30.001Z</time></trkpt><trkpt lat="14.481698299091834" lon="120.97862592448314"><ele>8.0</ele><time>2026-04-20T05:50:31.001Z</time></trkpt><trkpt lat="14.481632661459965" lon="120.97857880569082"><ele>7.999999999999999</ele><time>2026-04-20T05:50:32.001Z</time></trkpt><trkpt lat="14.481571057399588" lon="120.9785511641454"><ele>8.0</ele><time>2026-04-20T05:50:33.001Z</time></trkpt><trkpt lat="14.481509343164385" lon="120.97853479798762"><ele>8.0</ele><time>2026-04-20T05:50:34.001Z</time></trkpt><trkpt lat="14.481410539425491" lon="120.97850582605753"><ele>8.0</ele><time>2026-04-20T05:50:36.001Z</time></trkpt><trkpt lat="14.48135805692132" lon="120.97845457362418"><ele>7.999999999999999</ele><time>2026-04-20T05:50:39.001Z</time></trkpt><trkpt lat="14.48128850117674" lon="120.97839513741955"><ele>8.0</ele><time>2026-04-20T05:50:44.001Z</time></trkpt><trkpt lat="14.481227325974016" lon="120.97834389395969"><ele>7.833333333333333</ele><time>2026-04-20T05:50:49.001Z</time></trkpt><trkpt lat="14.481173497149687" lon="120.97830146601338"><ele>7.666666666666666</ele><time>2026-04-20T05:50:51.001Z</time></trkpt><trkpt lat="14.481105640126204" lon="120.97825233556416"><ele>7.5</ele><time>2026-04-20T05:50:53.001Z</time></trkpt><trkpt lat="14.48102545406049" lon="120.97818392129135"><ele>7.333333333333334</ele><time>2026-04-20T05:50:55.001Z</time></trkpt><trkpt lat="14.480963219318424" lon="120.97811294362148"><ele>7.166666666666667</ele><time>2026-04-20T05:50:57.001Z</time></trkpt><trkpt lat="14.480911606072103" lon="120.97806886922491"><ele>7.0</ele><time>2026-04-20T05:50:59.001Z</time></trkpt><trkpt lat="14.480851744981784" lon="120.97801794857762"><ele>7.000000000000001</ele><time>2026-04-20T05:51:03.001Z</time></trkpt><trkpt lat="14.480779133494982" lon="120.97794220153311"><ele>7.0</ele><time>2026-04-20T05:51:05.001Z</time></trkpt><trkpt lat="14.48072749106317" lon="120.97789744669029"><ele>7.0</ele><time>2026-04-20T05:51:06.001Z</time></trkpt><trkpt lat="14.48066500235828" lon="120.97784028190449"><ele>7.0</ele><time>2026-04-20T05:51:07.002Z</time></trkpt><trkpt lat="14.480608553109306" lon="120.97778764359953"><ele>7.000000000000001</ele><time>2026-04-20T05:51:08.002Z</time></trkpt><trkpt lat="14.480553040319371" lon="120.97774470684654"><ele>7.0</ele><time>2026-04-20T05:51:09.002Z</time></trkpt><trkpt lat="14.480483351605939" lon="120.97768333646327"><ele>6.8</ele><time>2026-04-20T05:51:10.002Z</time></trkpt><trkpt lat="14.48040223571685" lon="120.97761788278179"><ele>6.6</ele><time>2026-04-20T05:51:11.002Z</time></trkpt><trkpt lat="14.480338050646628" lon="120.9775582024513"><ele>6.3999999999999995</ele><time>2026-04-20T05:51:12.002Z</time></trkpt><trkpt lat="14.480263806754593" lon="120.97749464661925"><ele>6.199999999999999</ele><time>2026-04-20T05:51:13.002Z</time></trkpt><trkpt lat="14.480193925272008" lon="120.97743642272263"><ele>6.0</ele><time>2026-04-20T05:51:14.002Z</time></trkpt><trkpt lat="14.480134653410111" lon="120.97738418192431"><ele>6.333333333333333</ele><time>2026-04-20T05:51:15.002Z</time></trkpt><trkpt lat="14.480089916046685" lon="120.97733160956552"><ele>6.666666666666666</ele><time>2026-04-20T05:51:16.002Z</time></trkpt><trkpt lat="14.480027257899371" lon="120.97727774796795"><ele>7.0</ele><time>2026-04-20T05:51:17.002Z</time></trkpt><trkpt lat="14.479986087330813" lon="120.9772171152561"><ele>7.333333333333333</ele><time>2026-04-20T05:51:18.002Z</time></trkpt><trkpt lat="14.479929893331004" lon="120.97715774371555"><ele>7.666666666666666</ele><time>2026-04-20T05:51:19.002Z</time></trkpt><trkpt lat="14.479885601635836" lon="120.9770971550151"><ele>8.0</ele><time>2026-04-20T05:51:20.002Z</time></trkpt><trkpt lat="14.479814827703269" lon="120.97702766115206"><ele>8.0</ele><time>2026-04-20T05:51:21.002Z</time></trkpt><trkpt lat="14.47976066973108" lon="120.97696091089931"><ele>8.0</ele><time>2026-04-20T05:51:22.002Z</time></trkpt><trkpt lat="14.479699896899149" lon="120.97689105777462"><ele>8.0</ele><time>2026-04-20T05:51:23.002Z</time></trkpt><trkpt lat="14.479649852647746" lon="120.97682076533133"><ele>8.0</ele><time>2026-04-20T05:51:24.002Z</time></trkpt><trkpt lat="14.479591370480692" lon="120.97674390280496"><ele>8.0</ele><time>2026-04-20T05:51:25.002Z</time></trkpt><trkpt lat="14.479525664935315" lon="120.97666918167182"><ele>7.499999999999999</ele><time>2026-04-20T05:51:26.002Z</time></trkpt><trkpt lat="14.479459183309874" lon="120.9765930415305"><ele>7.0</ele><time>2026-04-20T05:51:27.002Z</time></trkpt><trkpt lat="14.479395308350131" lon="120.97652720140749"><ele>6.5</ele><time>2026-04-20T05:51:28.002Z</time></trkpt><trkpt lat="14.479348162841186" lon="120.97646630131695"><ele>6.0</ele><time>2026-04-20T05:51:29.002Z</time></trkpt><trkpt lat="14.479282578282053" lon="120.9763952709887"><ele>5.5</ele><time>2026-04-20T05:51:30.002Z</time></trkpt><trkpt lat="14.479233248461629" lon="120.9763253643749"><ele>5.0</ele><time>2026-04-20T05:51:31.002Z</time></trkpt><trkpt lat="14.479164667078141" lon="120.97625344561736"><ele>5.0</ele><time>2026-04-20T05:51:32.002Z</time></trkpt><trkpt lat="14.479112359230284" lon="120.97618142969772"><ele>5.0</ele><time>2026-04-20T05:51:33.002Z</time></trkpt><trkpt lat="14.47906051051992" lon="120.97610901033947"><ele>5.0</ele><time>2026-04-20T05:51:34.002Z</time></trkpt><trkpt lat="14.478994824140518" lon="120.97603405744103"><ele>5.0</ele><time>2026-04-20T05:51:35.002Z</time></trkpt><trkpt lat="14.478934151212552" lon="120.9759664215495"><ele>5.0</ele><time>2026-04-20T05:51:36.002Z</time></trkpt><trkpt lat="14.478875193160205" lon="120.97590325128355"><ele>5.0</ele><time>2026-04-20T05:51:37.002Z</time></trkpt><trkpt lat="14.478824347661016" lon="120.97584363688883"><ele>5.333333333333334</ele><time>2026-04-20T05:51:38.002Z</time></trkpt><trkpt lat="14.47878355594572" lon="120.97579374112536"><ele>5.666666666666667</ele><time>2026-04-20T05:51:39.002Z</time></trkpt><trkpt lat="14.478738076791528" lon="120.97573789727785"><ele>6.0</ele><time>2026-04-20T05:51:40.002Z</time></trkpt><trkpt lat="14.47867593045823" lon="120.97566633601858"><ele>6.333333333333334</ele><time>2026-04-20T05:51:42.002Z</time></trkpt><trkpt lat="14.478619139830323" lon="120.97560509394673"><ele>6.666666666666667</ele><time>2026-04-20T05:51:47.002Z</time></trkpt><trkpt lat="14.478571893840803" lon="120.975551742323"><ele>7.0</ele><time>2026-04-20T05:51:50.002Z</time></trkpt><trkpt lat="14.478514092319314" lon="120.97548149656964"><ele>7.0</ele><time>2026-04-20T05:51:53.002Z</time></trkpt><trkpt lat="14.478439828687314" lon="120.97539500270527"><ele>6.999999999999999</ele><time>2026-04-20T05:51:55.002Z</time></trkpt><trkpt lat="14.478397682448577" lon="120.9753418613733"><ele>6.999999999999999</ele><time>2026-04-20T05:51:56.002Z</time></trkpt><trkpt lat="14.478334282750252" lon="120.97524536439626"><ele>7.0</ele><time>2026-04-20T05:51:58.003Z</time></trkpt><trkpt lat="14.478272619569035" lon="120.97514344568681"><ele>7.0</ele><time>2026-04-20T05:52:00.003Z</time></trkpt><trkpt lat="14.478220286782285" lon="120.97504742279148"><ele>7.166666666666667</ele><time>2026-04-20T05:52:02.003Z</time></trkpt><trkpt lat="14.47818430276029" lon="120.9749903519622"><ele>7.333333333333334</ele><time>2026-04-20T05:52:04.003Z</time></trkpt><trkpt lat="14.478106127923004" lon="120.97493706856"><ele>7.5</ele><time>2026-04-20T05:52:07.003Z</time></trkpt><trkpt lat="14.47804160311371" lon="120.97495845362462"><ele>7.666666666666666</ele><time>2026-04-20T05:52:09.003Z</time></trkpt><trkpt lat="14.477966231850017" lon="120.97497157389873"><ele>7.833333333333333</ele><time>2026-04-20T05:52:11.003Z</time></trkpt><trkpt lat="14.477909772277716" lon="120.97490219832173"><ele>8.0</ele><time>2026-04-20T05:52:13.003Z</time></trkpt><trkpt lat="14.477832899470783" lon="120.97480067446489"><ele>8.0</ele><time>2026-04-20T05:52:15.001Z</time></trkpt><trkpt lat="14.477786881669074" lon="120.97474402317368"><ele>7.999999999999999</ele><time>2026-04-20T05:52:16.001Z</time></trkpt><trkpt lat="14.477733567868972" lon="120.97468161810146"><ele>8.0</ele><time>2026-04-20T05:52:17.001Z</time></trkpt><trkpt lat="14.477683957022725" lon="120.97462020849302"><ele>8.0</ele><time>2026-04-20T05:52:18.001Z</time></trkpt><trkpt lat="14.477633961990271" lon="120.97456022213558"><ele>7.999999999999999</ele><time>2026-04-20T05:52:19.001Z</time></trkpt><trkpt lat="14.477593104812048" lon="120.97450844987773"><ele>8.0</ele><time>2026-04-20T05:52:20.001Z</time></trkpt><trkpt lat="14.477543396090592" lon="120.9744556666386"><ele>8.0</ele><time>2026-04-20T05:52:21.001Z</time></trkpt><trkpt lat="14.477462223347384" lon="120.97435790584832"><ele>8.0</ele><time>2026-04-20T05:52:23.001Z</time></trkpt><trkpt lat="14.47741278168009" lon="120.97430275076687"><ele>8.0</ele><time>2026-04-20T05:52:24.001Z</time></trkpt><trkpt lat="14.477363144020394" lon="120.97424205167184"><ele>8.0</ele><time>2026-04-20T05:52:25.001Z</time></trkpt><trkpt lat="14.477286556199779" lon="120.9741635395874"><ele>8.0</ele><time>2026-04-20T05:52:26.001Z</time></trkpt><trkpt lat="14.477221945811717" lon="120.97407865282511"><ele>8.0</ele><time>2026-04-20T05:52:27.001Z</time></trkpt><trkpt lat="14.477170114389041" lon="120.97400602097458"><ele>7.666666666666666</ele><time>2026-04-20T05:52:28.001Z</time></trkpt><trkpt lat="14.47712106156815" lon="120.97394496329804"><ele>7.333333333333333</ele><time>2026-04-20T05:52:29.001Z</time></trkpt><trkpt lat="14.477075292895542" lon="120.97388916943618"><ele>7.0</ele><time>2026-04-20T05:52:31.001Z</time></trkpt><trkpt lat="14.477028855122978" lon="120.973822159936"><ele>6.666666666666666</ele><time>2026-04-20T05:52:35.001Z</time></trkpt><trkpt lat="14.476975792640756" lon="120.97374536616691"><ele>6.333333333333333</ele><time>2026-04-20T05:52:39.001Z</time></trkpt><trkpt lat="14.476913633580065" lon="120.97369279246894"><ele>6.0</ele><time>2026-04-20T05:52:41.001Z</time></trkpt><trkpt lat="14.476870930583589" lon="120.97362426711793"><ele>6.0</ele><time>2026-04-20T05:52:44.001Z</time></trkpt><trkpt lat="14.476814987865314" lon="120.9735725806871"><ele>6.0</ele><time>2026-04-20T05:52:45.001Z</time></trkpt><trkpt lat="14.476755458358248" lon="120.97350307565966"><ele>6.0</ele><time>2026-04-20T05:52:48.001Z</time></trkpt><trkpt lat="14.47671464145366" lon="120.97345200574618"><ele>6.0</ele><time>2026-04-20T05:52:49.001Z</time></trkpt><trkpt lat="14.47666718047548" lon="120.97339000183898"><ele>6.0</ele><time>2026-04-20T05:52:50.001Z</time></trkpt><trkpt lat="14.476612296759717" lon="120.973322096012"><ele>6.0</ele><time>2026-04-20T05:52:51.001Z</time></trkpt><trkpt lat="14.476554621451864" lon="120.9732553035025"><ele>5.833333333333333</ele><time>2026-04-20T05:52:52.001Z</time></trkpt><trkpt lat="14.476496767821638" lon="120.97318746055606"><ele>5.666666666666667</ele><time>2026-04-20T05:52:53.001Z</time></trkpt><trkpt lat="14.476441234596548" lon="120.9731284085651"><ele>5.5</ele><time>2026-04-20T05:52:54.001Z</time></trkpt><trkpt lat="14.476396808979382" lon="120.97307242878456"><ele>5.333333333333334</ele><time>2026-04-20T05:52:55.001Z</time></trkpt><trkpt lat="14.476359810806262" lon="120.97301091679743"><ele>5.166666666666667</ele><time>2026-04-20T05:52:56.001Z</time></trkpt><trkpt lat="14.476340407451277" lon="120.97294897046052"><ele>5.0</ele><time>2026-04-20T05:52:57.001Z</time></trkpt><trkpt lat="14.476403441543914" lon="120.97284327803641"><ele>5.0</ele><time>2026-04-20T05:52:59.001Z</time></trkpt><trkpt lat="14.476461459179543" lon="120.97279505927975"><ele>5.0</ele><time>2026-04-20T05:53:00.001Z</time></trkpt><trkpt lat="14.476522669291562" lon="120.97274959947502"><ele>5.0</ele><time>2026-04-20T05:53:01.001Z</time></trkpt><trkpt lat="14.476568012717106" lon="120.97268673904456"><ele>5.0</ele><time>2026-04-20T05:53:02.001Z</time></trkpt><trkpt lat="14.476597030749165" lon="120.97262258643008"><ele>5.0</ele><time>2026-04-20T05:53:03.001Z</time></trkpt><trkpt lat="14.476618606274164" lon="120.97255864430831"><ele>5.0</ele><time>2026-04-20T05:53:04.001Z</time></trkpt><trkpt lat="14.47662907407822" lon="120.97248827210493"><ele>5.0</ele><time>2026-04-20T05:53:06.001Z</time></trkpt><trkpt lat="14.476602224852238" lon="120.97241241039755"><ele>5.4</ele><time>2026-04-20T05:53:09.001Z</time></trkpt><trkpt lat="14.476539819038628" lon="120.97230606290182"><ele>5.8</ele><time>2026-04-20T05:53:11.002Z</time></trkpt><trkpt lat="14.476451216165492" lon="120.97219793160542"><ele>6.199999999999999</ele><time>2026-04-20T05:53:13.002Z</time></trkpt><trkpt lat="14.476407767522144" lon="120.97213731056634"><ele>6.6</ele><time>2026-04-20T05:53:14.002Z</time></trkpt><trkpt lat="14.476363932033065" lon="120.97207580289553"><ele>7.0</ele><time>2026-04-20T05:53:15.002Z</time></trkpt><trkpt lat="14.4763187097223" lon="120.97202147157253"><ele>6.8</ele><time>2026-04-20T05:53:16.002Z</time></trkpt><trkpt lat="14.476241326683583" lon="120.97192989820523"><ele>6.6</ele><time>2026-04-20T05:53:18.002Z</time></trkpt><trkpt lat="14.4761354932642" lon="120.97189273532105"><ele>6.3999999999999995</ele><time>2026-04-20T05:53:20.002Z</time></trkpt><trkpt lat="14.476016897047172" lon="120.97192558717155"><ele>6.199999999999999</ele><time>2026-04-20T05:53:22.002Z</time></trkpt><trkpt lat="14.475953416567998" lon="120.97197241209139"><ele>6.0</ele><time>2026-04-20T05:53:23.002Z</time></trkpt><trkpt lat="14.475891276635428" lon="120.97202097885179"><ele>6.0</ele><time>2026-04-20T05:53:24.002Z</time></trkpt><trkpt lat="14.475818155859374" lon="120.97207310926134"><ele>6.0</ele><time>2026-04-20T05:53:25.002Z</time></trkpt><trkpt lat="14.475748324489707" lon="120.97211603008459"><ele>6.0</ele><time>2026-04-20T05:53:26.002Z</time></trkpt><trkpt lat="14.475670767428323" lon="120.97217984590202"><ele>6.0</ele><time>2026-04-20T05:53:27.002Z</time></trkpt><trkpt lat="14.475590307833487" lon="120.97224937236923"><ele>6.0</ele><time>2026-04-20T05:53:28.002Z</time></trkpt><trkpt lat="14.475512438414547" lon="120.97231728785007"><ele>6.0</ele><time>2026-04-20T05:53:29.002Z</time></trkpt><trkpt lat="14.475421407890932" lon="120.97240437161715"><ele>6.0</ele><time>2026-04-20T05:53:30.002Z</time></trkpt><trkpt lat="14.475328275262934" lon="120.97249390813222"><ele>6.0</ele><time>2026-04-20T05:53:31.002Z</time></trkpt><trkpt lat="14.475240475166515" lon="120.97257282039746"><ele>6.0</ele><time>2026-04-20T05:53:32.002Z</time></trkpt><trkpt lat="14.47514917571077" lon="120.97265802243246"><ele>6.5</ele><time>2026-04-20T05:53:33.002Z</time></trkpt><trkpt lat="14.475058010525435" lon="120.97274362240306"><ele>7.0</ele><time>2026-04-20T05:53:34.002Z</time></trkpt><trkpt lat="14.474972971339717" lon="120.97283079627181"><ele>7.5</ele><time>2026-04-20T05:53:35.002Z</time></trkpt><trkpt lat="14.474888779738325" lon="120.97292223209618"><ele>8.0</ele><time>2026-04-20T05:53:36.002Z</time></trkpt><trkpt lat="14.474814407982034" lon="120.97300805500929"><ele>8.0</ele><time>2026-04-20T05:53:37.002Z</time></trkpt><trkpt lat="14.47474151298934" lon="120.97311019378829"><ele>8.0</ele><time>2026-04-20T05:53:38.002Z</time></trkpt><trkpt lat="14.474679509228187" lon="120.97321451031483"><ele>8.0</ele><time>2026-04-20T05:53:39.002Z</time></trkpt><trkpt lat="14.474625515762684" lon="120.973331130777"><ele>8.0</ele><time>2026-04-20T05:53:40.002Z</time></trkpt><trkpt lat="14.474582826146618" lon="120.97346220463932"><ele>7.25</ele><time>2026-04-20T05:53:41.002Z</time></trkpt><trkpt lat="14.474550135666268" lon="120.97358981824235"><ele>6.5</ele><time>2026-04-20T05:53:42.002Z</time></trkpt><trkpt lat="14.474528840738333" lon="120.97373209542407"><ele>5.75</ele><time>2026-04-20T05:53:43.002Z</time></trkpt><trkpt lat="14.474511814648892" lon="120.97388025909977"><ele>5.0</ele><time>2026-04-20T05:53:44.002Z</time></trkpt><trkpt lat="14.474501342614028" lon="120.9740288683218"><ele>5.0</ele><time>2026-04-20T05:53:45.002Z</time></trkpt><trkpt lat="14.474493478074214" lon="120.97418012209431"><ele>5.0</ele><time>2026-04-20T05:53:46.002Z</time></trkpt><trkpt lat="14.474485850147259" lon="120.97433612870226"><ele>5.0</ele><time>2026-04-20T05:53:47.002Z</time></trkpt><trkpt lat="14.474477633657399" lon="120.97449353568183"><ele>5.333333333333334</ele><time>2026-04-20T05:53:48.002Z</time></trkpt><trkpt lat="14.47447177776678" lon="120.974648777352"><ele>5.666666666666667</ele><time>2026-04-20T05:53:49.002Z</time></trkpt><trkpt lat="14.47446661246587" lon="120.97480571156346"><ele>6.0</ele><time>2026-04-20T05:53:50.002Z</time></trkpt><trkpt lat="14.474460026042367" lon="120.97496247543914"><ele>6.0</ele><time>2026-04-20T05:53:51.002Z</time></trkpt><trkpt lat="14.474452137765855" lon="120.97511905922454"><ele>6.0</ele><time>2026-04-20T05:53:52.002Z</time></trkpt><trkpt lat="14.474444338313688" lon="120.97527689442221"><ele>6.0</ele><time>2026-04-20T05:53:53.002Z</time></trkpt><trkpt lat="14.474436034737538" lon="120.97543662258055"><ele>6.0</ele><time>2026-04-20T05:53:54.002Z</time></trkpt><trkpt lat="14.474430182512261" lon="120.9755959512243"><ele>6.0</ele><time>2026-04-20T05:53:55.002Z</time></trkpt><trkpt lat="14.474423326259517" lon="120.9757563643491"><ele>6.0</ele><time>2026-04-20T05:53:56.002Z</time></trkpt><trkpt lat="14.474413276120918" lon="120.97591703731365"><ele>5.666666666666667</ele><time>2026-04-20T05:53:57.002Z</time></trkpt><trkpt lat="14.474403610880394" lon="120.97608056067101"><ele>5.333333333333334</ele><time>2026-04-20T05:53:58.002Z</time></trkpt><trkpt lat="14.474398094472987" lon="120.97623972376056"><ele>5.0</ele><time>2026-04-20T05:53:59.002Z</time></trkpt><trkpt lat="14.474388910463647" lon="120.97639524179434"><ele>5.0</ele><time>2026-04-20T05:54:00.002Z</time></trkpt><trkpt lat="14.474367318621988" lon="120.97654692821042"><ele>5.0</ele><time>2026-04-20T05:54:01.002Z</time></trkpt><trkpt lat="14.474341952671884" lon="120.97669600903555"><ele>5.0</ele><time>2026-04-20T05:54:02.002Z</time></trkpt><trkpt lat="14.474310823492976" lon="120.97684566571083"><ele>5.0</ele><time>2026-04-20T05:54:03.003Z</time></trkpt><trkpt lat="14.474279736399785" lon="120.97698746737483"><ele>5.5</ele><time>2026-04-20T05:54:04.003Z</time></trkpt><trkpt lat="14.474246936606146" lon="120.97712410205918"><ele>6.0</ele><time>2026-04-20T05:54:05.003Z</time></trkpt><trkpt lat="14.474211984884437" lon="120.97724904834229"><ele>6.5</ele><time>2026-04-20T05:54:06.003Z</time></trkpt><trkpt lat="14.474175341075135" lon="120.97736446773898"><ele>7.0</ele><time>2026-04-20T05:54:07.003Z</time></trkpt><trkpt lat="14.47414308412225" lon="120.97746801944822"><ele>6.833333333333334</ele><time>2026-04-20T05:54:08.003Z</time></trkpt><trkpt lat="14.47411711327932" lon="120.9775591802118"><ele>6.666666666666667</ele><time>2026-04-20T05:54:09.003Z</time></trkpt><trkpt lat="14.474092857724958" lon="120.97763193961839"><ele>6.5</ele><time>2026-04-20T05:54:10.003Z</time></trkpt><trkpt lat="14.474023397896447" lon="120.97771183941758"><ele>6.333333333333334</ele><time>2026-04-20T05:54:12.003Z</time></trkpt><trkpt lat="14.4739388924195" lon="120.97770710615254"><ele>6.166666666666667</ele><time>2026-04-20T05:54:14.003Z</time></trkpt><trkpt lat="14.473869548815808" lon="120.97765290735056"><ele>6.0</ele><time>2026-04-20T05:54:17.003Z</time></trkpt><trkpt lat="14.47381721672418" lon="120.97755594118125"><ele>6.0</ele><time>2026-04-20T05:54:19.003Z</time></trkpt><trkpt lat="14.473749897210144" lon="120.97743752279703"><ele>6.0</ele><time>2026-04-20T05:54:21.001Z</time></trkpt><trkpt lat="14.47371543881663" lon="120.97737098024689"><ele>6.0</ele><time>2026-04-20T05:54:22.001Z</time></trkpt><trkpt lat="14.473672995923891" lon="120.97730421698641"><ele>6.0</ele><time>2026-04-20T05:54:23.001Z</time></trkpt><trkpt lat="14.473633322826773" lon="120.97723028180864"><ele>6.0</ele><time>2026-04-20T05:54:24.001Z</time></trkpt><trkpt lat="14.473591298447028" lon="120.97715722617849"><ele>6.0</ele><time>2026-04-20T05:54:25.001Z</time></trkpt><trkpt lat="14.473538209110501" lon="120.9770779872445"><ele>6.0</ele><time>2026-04-20T05:54:26.001Z</time></trkpt><trkpt lat="14.473489659737803" lon="120.97700337749217"><ele>6.0</ele><time>2026-04-20T05:54:27.001Z</time></trkpt><trkpt lat="14.473444180072025" lon="120.97693435878988"><ele>6.0</ele><time>2026-04-20T05:54:28.001Z</time></trkpt><trkpt lat="14.473404119104352" lon="120.97686863743633"><ele>6.0</ele><time>2026-04-20T05:54:29.001Z</time></trkpt><trkpt lat="14.473356466145816" lon="120.97679987990635"><ele>6.0</ele><time>2026-04-20T05:54:30.001Z</time></trkpt><trkpt lat="14.473311245730173" lon="120.9767330648123"><ele>6.0</ele><time>2026-04-20T05:54:31.001Z</time></trkpt><trkpt lat="14.473269415460706" lon="120.97667487187516"><ele>6.166666666666667</ele><time>2026-04-20T05:54:32.001Z</time></trkpt><trkpt lat="14.47323068934716" lon="120.97662117247151"><ele>6.333333333333334</ele><time>2026-04-20T05:54:33.001Z</time></trkpt><trkpt lat="14.47316534407841" lon="120.97653726170428"><ele>6.5</ele><time>2026-04-20T05:54:35.001Z</time></trkpt><trkpt lat="14.473110029625996" lon="120.97647165496163"><ele>6.666666666666667</ele><time>2026-04-20T05:54:37.001Z</time></trkpt><trkpt lat="14.473035704500635" lon="120.97637760999551"><ele>6.833333333333334</ele><time>2026-04-20T05:54:39.001Z</time></trkpt><trkpt lat="14.472993716499456" lon="120.97632080128653"><ele>7.0</ele><time>2026-04-20T05:54:40.001Z</time></trkpt><trkpt lat="14.47295250988541" lon="120.97626501766253"><ele>7.166666666666667</ele><time>2026-04-20T05:54:41.001Z</time></trkpt><trkpt lat="14.47290134256151" lon="120.97619572828326"><ele>7.333333333333334</ele><time>2026-04-20T05:54:42.001Z</time></trkpt><trkpt lat="14.472844326689795" lon="120.976126712724"><ele>7.5</ele><time>2026-04-20T05:54:43.001Z</time></trkpt><trkpt lat="14.472794124072479" lon="120.9760607555338"><ele>7.666666666666666</ele><time>2026-04-20T05:54:44.001Z</time></trkpt><trkpt lat="14.47273294910987" lon="120.97598843283028"><ele>7.833333333333333</ele><time>2026-04-20T05:54:45.001Z</time></trkpt><trkpt lat="14.472675059271236" lon="120.97591855160218"><ele>8.0</ele><time>2026-04-20T05:54:46.001Z</time></trkpt><trkpt lat="14.472618743315532" lon="120.97585386836913"><ele>7.833333333333333</ele><time>2026-04-20T05:54:47.001Z</time></trkpt><trkpt lat="14.472561629659813" lon="120.9757873395853"><ele>7.666666666666666</ele><time>2026-04-20T05:54:48.001Z</time></trkpt><trkpt lat="14.472513635955261" lon="120.97572154736609"><ele>7.5</ele><time>2026-04-20T05:54:49.001Z</time></trkpt><trkpt lat="14.472463469208789" lon="120.97566541896"><ele>7.333333333333334</ele><time>2026-04-20T05:54:50.001Z</time></trkpt><trkpt lat="14.472390412584387" lon="120.97557620616757"><ele>7.166666666666667</ele><time>2026-04-20T05:54:52.001Z</time></trkpt><trkpt lat="14.472336890213146" lon="120.97550731132354"><ele>7.0</ele><time>2026-04-20T05:54:54.001Z</time></trkpt><trkpt lat="14.472283322636788" lon="120.97543144442655"><ele>7.000000000000001</ele><time>2026-04-20T05:54:56.001Z</time></trkpt><trkpt lat="14.472229761082728" lon="120.97535559866884"><ele>7.0</ele><time>2026-04-20T05:54:58.001Z</time></trkpt><trkpt lat="14.472200099923082" lon="120.97529713559334"><ele>7.0</ele><time>2026-04-20T05:55:00.001Z</time></trkpt><trkpt lat="14.472154319734019" lon="120.97523297288828"><ele>7.0</ele><time>2026-04-20T05:55:03.001Z</time></trkpt><trkpt lat="14.472103873420398" lon="120.9751868482337"><ele>7.000000000000001</ele><time>2026-04-20T05:55:05.001Z</time></trkpt><trkpt lat="14.472050912196076" lon="120.97510557604495"><ele>7.0</ele><time>2026-04-20T05:55:07.001Z</time></trkpt><trkpt lat="14.471990671844187" lon="120.97501052011977"><ele>7.000000000000001</ele><time>2026-04-20T05:55:09.001Z</time></trkpt><trkpt lat="14.471938158007747" lon="120.97492459750342"><ele>7.0</ele><time>2026-04-20T05:55:11.001Z</time></trkpt><trkpt lat="14.471879221054062" lon="120.974829213001"><ele>7.0</ele><time>2026-04-20T05:55:13.001Z</time></trkpt><trkpt lat="14.471845890842355" lon="120.97477164085828"><ele>7.0</ele><time>2026-04-20T05:55:14.001Z</time></trkpt><trkpt lat="14.471815641961339" lon="120.97471291080576"><ele>7.000000000000001</ele><time>2026-04-20T05:55:15.002Z</time></trkpt><trkpt lat="14.471787793406842" lon="120.97465386268185"><ele>7.0</ele><time>2026-04-20T05:55:16.002Z</time></trkpt><trkpt lat="14.471758624797667" lon="120.9745917953692"><ele>7.0</ele><time>2026-04-20T05:55:17.002Z</time></trkpt><trkpt lat="14.471728213856904" lon="120.97453019970378"><ele>7.0</ele><time>2026-04-20T05:55:18.002Z</time></trkpt><trkpt lat="14.471680090801689" lon="120.97444949787972"><ele>7.0</ele><time>2026-04-20T05:55:20.002Z</time></trkpt><trkpt lat="14.471649212707206" lon="120.97438900117537"><ele>7.0</ele><time>2026-04-20T05:55:22.002Z</time></trkpt><trkpt lat="14.471614335543952" lon="120.97432318566315"><ele>7.0</ele><time>2026-04-20T05:55:24.002Z</time></trkpt><trkpt lat="14.47158248004719" lon="120.97426299486744"><ele>7.0</ele><time>2026-04-20T05:55:26.002Z</time></trkpt><trkpt lat="14.471540964978368" lon="120.97419361275816"><ele>7.0</ele><time>2026-04-20T05:55:28.002Z</time></trkpt><trkpt lat="14.471494261691973" lon="120.97411158158152"><ele>6.8</ele><time>2026-04-20T05:55:30.002Z</time></trkpt><trkpt lat="14.471467903880365" lon="120.97404319585056"><ele>6.6</ele><time>2026-04-20T05:55:35.002Z</time></trkpt><trkpt lat="14.471429730096803" lon="120.97395389060051"><ele>6.3999999999999995</ele><time>2026-04-20T05:55:38.002Z</time></trkpt><trkpt lat="14.471399083788874" lon="120.97387988352202"><ele>6.199999999999999</ele><time>2026-04-20T05:55:40.002Z</time></trkpt><trkpt lat="14.471353881012556" lon="120.97378573043714"><ele>6.0</ele><time>2026-04-20T05:55:42.002Z</time></trkpt><trkpt lat="14.47130269750878" lon="120.97368678534768"><ele>6.166666666666667</ele><time>2026-04-20T05:55:44.002Z</time></trkpt><trkpt lat="14.47124202392564" lon="120.97356724455798"><ele>6.333333333333334</ele><time>2026-04-20T05:55:46.002Z</time></trkpt><trkpt lat="14.471211520928785" lon="120.97350196168837"><ele>6.5</ele><time>2026-04-20T05:55:47.002Z</time></trkpt><trkpt lat="14.47117454832758" lon="120.97342969491655"><ele>6.666666666666667</ele><time>2026-04-20T05:55:48.002Z</time></trkpt><trkpt lat="14.47113400079154" lon="120.97334936686272"><ele>6.833333333333334</ele><time>2026-04-20T05:55:49.002Z</time></trkpt><trkpt lat="14.471096804959426" lon="120.97327896856922"><ele>7.0</ele><time>2026-04-20T05:55:50.002Z</time></trkpt><trkpt lat="14.47105908032645" lon="120.97320754760031"><ele>7.000000000000001</ele><time>2026-04-20T05:55:51.002Z</time></trkpt><trkpt lat="14.471019318445512" lon="120.97313843795055"><ele>7.0</ele><time>2026-04-20T05:55:52.002Z</time></trkpt><trkpt lat="14.47098429038117" lon="120.97306846816882"><ele>7.0</ele><time>2026-04-20T05:55:53.002Z</time></trkpt><trkpt lat="14.470949236090261" lon="120.97299549939044"><ele>7.0</ele><time>2026-04-20T05:55:54.002Z</time></trkpt><trkpt lat="14.470909146306482" lon="120.97292137842345"><ele>7.000000000000001</ele><time>2026-04-20T05:55:55.002Z</time></trkpt><trkpt lat="14.470866611645208" lon="120.97284451442287"><ele>7.0</ele><time>2026-04-20T05:55:56.002Z</time></trkpt><trkpt lat="14.470828280603703" lon="120.97276945229137"><ele>7.0</ele><time>2026-04-20T05:55:57.002Z</time></trkpt><trkpt lat="14.470792017704076" lon="120.97269852402243"><ele>6.999999999999999</ele><time>2026-04-20T05:55:58.002Z</time></trkpt><trkpt lat="14.47076543280261" lon="120.97263641414412"><ele>6.999999999999999</ele><time>2026-04-20T05:55:59.002Z</time></trkpt><trkpt lat="14.47071378930772" lon="120.97254192266381"><ele>7.0</ele><time>2026-04-20T05:56:01.002Z</time></trkpt><trkpt lat="14.470658330507591" lon="120.97244577772234"><ele>7.0</ele><time>2026-04-20T05:56:03.002Z</time></trkpt><trkpt lat="14.47058590549477" lon="120.9723363865076"><ele>7.000000000000001</ele><time>2026-04-20T05:56:05.002Z</time></trkpt><trkpt lat="14.470545363251203" lon="120.9722709922523"><ele>7.0</ele><time>2026-04-20T05:56:06.002Z</time></trkpt><trkpt lat="14.4705037303986" lon="120.97219916660315"><ele>7.0</ele><time>2026-04-20T05:56:07.002Z</time></trkpt><trkpt lat="14.47045423520859" lon="120.97212217863344"><ele>7.0</ele><time>2026-04-20T05:56:08.002Z</time></trkpt><trkpt lat="14.470402535161972" lon="120.9720447141626"><ele>7.000000000000001</ele><time>2026-04-20T05:56:09.002Z</time></trkpt><trkpt lat="14.470346946984614" lon="120.97196342933009"><ele>7.0</ele><time>2026-04-20T05:56:10.002Z</time></trkpt><trkpt lat="14.470293991005413" lon="120.97187770709596"><ele>7.0</ele><time>2026-04-20T05:56:11.002Z</time></trkpt><trkpt lat="14.470240128635286" lon="120.97178569487961"><ele>6.999999999999999</ele><time>2026-04-20T05:56:12.003Z</time></trkpt><trkpt lat="14.470180644157395" lon="120.97169665457491"><ele>6.999999999999999</ele><time>2026-04-20T05:56:13.003Z</time></trkpt><trkpt lat="14.47011309505304" lon="120.97161213948347"><ele>7.0</ele><time>2026-04-20T05:56:14.003Z</time></trkpt><trkpt lat="14.470049053043704" lon="120.97152181955377"><ele>7.0</ele><time>2026-04-20T05:56:15.003Z</time></trkpt><trkpt lat="14.469984739992158" lon="120.9714388375802"><ele>7.0</ele><time>2026-04-20T05:56:16.003Z</time></trkpt><trkpt lat="14.469924987291195" lon="120.97136042683086"><ele>6.999999999999999</ele><time>2026-04-20T05:56:17.003Z</time></trkpt><trkpt lat="14.469862979174714" lon="120.97128272908353"><ele>6.999999999999999</ele><time>2026-04-20T05:56:18.003Z</time></trkpt><trkpt lat="14.46980253814751" lon="120.97120821407721"><ele>7.0</ele><time>2026-04-20T05:56:19.003Z</time></trkpt><trkpt lat="14.469740497563336" lon="120.97113404645832"><ele>7.0</ele><time>2026-04-20T05:56:20.003Z</time></trkpt><trkpt lat="14.46967594407277" lon="120.97106232641181"><ele>7.0</ele><time>2026-04-20T05:56:21.003Z</time></trkpt><trkpt lat="14.469618653236793" lon="120.97098533000035"><ele>6.999999999999999</ele><time>2026-04-20T05:56:22.003Z</time></trkpt><trkpt lat="14.469552793684565" lon="120.97091493853696"><ele>6.999999999999999</ele><time>2026-04-20T05:56:23.003Z</time></trkpt><trkpt lat="14.469496312048056" lon="120.97084542099881"><ele>7.0</ele><time>2026-04-20T05:56:24.003Z</time></trkpt><trkpt lat="14.469435719081016" lon="120.97077302651634"><ele>7.0</ele><time>2026-04-20T05:56:25.003Z</time></trkpt><trkpt lat="14.469375408317852" lon="120.9706964469276"><ele>7.199999999999999</ele><time>2026-04-20T05:56:26.003Z</time></trkpt><trkpt lat="14.469312173434679" lon="120.97062378144209"><ele>7.3999999999999995</ele><time>2026-04-20T05:56:27.001Z</time></trkpt><trkpt lat="14.469249003032788" lon="120.97054777490753"><ele>7.6000000000000005</ele><time>2026-04-20T05:56:28.001Z</time></trkpt><trkpt lat="14.469178160090195" lon="120.97047949963732"><ele>7.800000000000001</ele><time>2026-04-20T05:56:29.001Z</time></trkpt><trkpt lat="14.46912004134212" lon="120.97041223504753"><ele>8.0</ele><time>2026-04-20T05:56:30.001Z</time></trkpt><trkpt lat="14.469063593236983" lon="120.97034089176827"><ele>7.999999999999999</ele><time>2026-04-20T05:56:31.001Z</time></trkpt><trkpt lat="14.469000095406418" lon="120.97026927154177"><ele>8.0</ele><time>2026-04-20T05:56:32.001Z</time></trkpt><trkpt lat="14.468931413440863" lon="120.9702214296488"><ele>8.0</ele><time>2026-04-20T05:56:33.001Z</time></trkpt><trkpt lat="14.46887688287311" lon="120.97016982999997"><ele>8.0</ele><time>2026-04-20T05:56:34.001Z</time></trkpt><trkpt lat="14.468827289844217" lon="120.97012899390579"><ele>7.999999999999999</ele><time>2026-04-20T05:56:35.001Z</time></trkpt><trkpt lat="14.468766628669687" lon="120.97009759559164"><ele>8.0</ele><time>2026-04-20T05:56:36.001Z</time></trkpt><trkpt lat="14.468666063111618" lon="120.97006782938993"><ele>7.833333333333333</ele><time>2026-04-20T05:56:38.001Z</time></trkpt><trkpt lat="14.468565122657202" lon="120.97002253436908"><ele>7.666666666666666</ele><time>2026-04-20T05:56:40.001Z</time></trkpt><trkpt lat="14.468503091252796" lon="120.96999986211569"><ele>7.5</ele><time>2026-04-20T05:56:41.001Z</time></trkpt><trkpt lat="14.468440350120812" lon="120.96998249000245"><ele>7.333333333333334</ele><time>2026-04-20T05:56:42.001Z</time></trkpt><trkpt lat="14.46833637854066" lon="120.96994242706329"><ele>7.166666666666667</ele><time>2026-04-20T05:56:44.001Z</time></trkpt><trkpt lat="14.468249004560171" lon="120.9699121597913"><ele>7.0</ele><time>2026-04-20T05:56:46.001Z</time></trkpt><trkpt lat="14.46817415588701" lon="120.96988313920224"><ele>7.000000000000001</ele><time>2026-04-20T05:56:48.001Z</time></trkpt><trkpt lat="14.46809680998584" lon="120.9698493649804"><ele>7.0</ele><time>2026-04-20T05:56:50.001Z</time></trkpt><trkpt lat="14.468033876822654" lon="120.96981842517154"><ele>7.0</ele><time>2026-04-20T05:56:51.001Z</time></trkpt><trkpt lat="14.467960626613879" lon="120.96977406397691"><ele>7.0</ele><time>2026-04-20T05:56:52.001Z</time></trkpt><trkpt lat="14.467883244092306" lon="120.96972343465507"><ele>7.000000000000001</ele><time>2026-04-20T05:56:53.001Z</time></trkpt><trkpt lat="14.467801604069797" lon="120.96966745968632"><ele>7.0</ele><time>2026-04-20T05:56:54.001Z</time></trkpt><trkpt lat="14.467716901019308" lon="120.96960288496167"><ele>7.0</ele><time>2026-04-20T05:56:55.001Z</time></trkpt><trkpt lat="14.46762262653037" lon="120.96953623285607"><ele>7.0</ele><time>2026-04-20T05:56:56.001Z</time></trkpt><trkpt lat="14.467528394038299" lon="120.96946726781775"><ele>7.0</ele><time>2026-04-20T05:56:57.001Z</time></trkpt><trkpt lat="14.467432407609397" lon="120.96939409863012"><ele>7.0</ele><time>2026-04-20T05:56:58.001Z</time></trkpt><trkpt lat="14.467347742651471" lon="120.9693273636962"><ele>7.0</ele><time>2026-04-20T05:56:59.001Z</time></trkpt><trkpt lat="14.46727368546881" lon="120.96926759777837"><ele>6.999999999999999</ele><time>2026-04-20T05:57:00.001Z</time></trkpt><trkpt lat="14.467200195328566" lon="120.96920818095538"><ele>6.999999999999999</ele><time>2026-04-20T05:57:01.001Z</time></trkpt><trkpt lat="14.46713389278403" lon="120.96915087122458"><ele>7.0</ele><time>2026-04-20T05:57:02.001Z</time></trkpt><trkpt lat="14.467053471497799" lon="120.9690897007022"><ele>7.0</ele><time>2026-04-20T05:57:03.001Z</time></trkpt><trkpt lat="14.466975239682515" lon="120.96902989805825"><ele>7.166666666666667</ele><time>2026-04-20T05:57:04.001Z</time></trkpt><trkpt lat="14.466894287911302" lon="120.96897155636678"><ele>7.333333333333334</ele><time>2026-04-20T05:57:05.001Z</time></trkpt><trkpt lat="14.466832079115648" lon="120.96892077621922"><ele>7.5</ele><time>2026-04-20T05:57:06.001Z</time></trkpt><trkpt lat="14.466769769450408" lon="120.96887132165914"><ele>7.666666666666666</ele><time>2026-04-20T05:57:07.001Z</time></trkpt><trkpt lat="14.466705909809335" lon="120.96881894291319"><ele>7.833333333333333</ele><time>2026-04-20T05:57:08.001Z</time></trkpt><trkpt lat="14.466637688613453" lon="120.96876152741996"><ele>8.0</ele><time>2026-04-20T05:57:09.001Z</time></trkpt><trkpt lat="14.466574476528528" lon="120.96869995131092"><ele>7.999999999999999</ele><time>2026-04-20T05:57:10.001Z</time></trkpt><trkpt lat="14.46651476238348" lon="120.96863532564791"><ele>8.0</ele><time>2026-04-20T05:57:11.001Z</time></trkpt><trkpt lat="14.466451404828849" lon="120.968566810063"><ele>8.0</ele><time>2026-04-20T05:57:12.001Z</time></trkpt><trkpt lat="14.466393366794053" lon="120.96850435738236"><ele>8.0</ele><time>2026-04-20T05:57:13.001Z</time></trkpt><trkpt lat="14.466340067648229" lon="120.96845184904114"><ele>7.999999999999999</ele><time>2026-04-20T05:57:14.001Z</time></trkpt><trkpt lat="14.466292559191938" lon="120.96840856430373"><ele>8.0</ele><time>2026-04-20T05:57:15.001Z</time></trkpt><trkpt lat="14.46620863234856" lon="120.96833736531985"><ele>7.833333333333333</ele><time>2026-04-20T05:57:17.001Z</time></trkpt><trkpt lat="14.466151343516982" lon="120.96829257941495"><ele>7.666666666666666</ele><time>2026-04-20T05:57:19.001Z</time></trkpt><trkpt lat="14.466094111737895" lon="120.96825265210721"><ele>7.5</ele><time>2026-04-20T05:58:43.001Z</time></trkpt><trkpt lat="14.466021227475059" lon="120.96818893539627"><ele>7.333333333333334</ele><time>2026-04-20T05:58:46.001Z</time></trkpt><trkpt lat="14.465964657818853" lon="120.96814463797254"><ele>7.166666666666667</ele><time>2026-04-20T05:58:47.001Z</time></trkpt><trkpt lat="14.465890775989866" lon="120.96809056030565"><ele>7.0</ele><time>2026-04-20T05:58:48.001Z</time></trkpt><trkpt lat="14.465810953423484" lon="120.96803200990246"><ele>7.0</ele><time>2026-04-20T05:58:49.001Z</time></trkpt><trkpt lat="14.465721812887363" lon="120.96796118554184"><ele>7.0</ele><time>2026-04-20T05:58:50.001Z</time></trkpt><trkpt lat="14.465633769644146" lon="120.96788414186095"><ele>7.0</ele><time>2026-04-20T05:58:51.001Z</time></trkpt><trkpt lat="14.465549756314093" lon="120.9677939655633"><ele>7.0</ele><time>2026-04-20T05:58:52.001Z</time></trkpt><trkpt lat="14.465460241847797" lon="120.96774250631114"><ele>7.6</ele><time>2026-04-20T05:58:54.001Z</time></trkpt><trkpt lat="14.465382872781493" lon="120.96768367334893"><ele>8.2</ele><time>2026-04-20T05:58:55.001Z</time></trkpt><trkpt lat="14.465292417875597" lon="120.96761340754213"><ele>8.8</ele><time>2026-04-20T05:58:56.001Z</time></trkpt><trkpt lat="14.465198769504902" lon="120.96754216852551"><ele>9.4</ele><time>2026-04-20T05:58:57.001Z</time></trkpt><trkpt lat="14.465101277633705" lon="120.96747385356056"><ele>10.0</ele><time>2026-04-20T05:58:58.001Z</time></trkpt><trkpt lat="14.464990640194818" lon="120.96740428839664"><ele>10.2</ele><time>2026-04-20T05:58:59.001Z</time></trkpt><trkpt lat="14.464884343033694" lon="120.96733759237152"><ele>10.4</ele><time>2026-04-20T05:59:00.001Z</time></trkpt><trkpt lat="14.46479326671588" lon="120.96727585517856"><ele>10.600000000000001</ele><time>2026-04-20T05:59:01.001Z</time></trkpt><trkpt lat="14.464708291653064" lon="120.96721678672719"><ele>10.8</ele><time>2026-04-20T05:59:02.001Z</time></trkpt><trkpt lat="14.464633171560932" lon="120.96715983035374"><ele>11.0</ele><time>2026-04-20T05:59:03.001Z</time></trkpt><trkpt lat="14.464570161236285" lon="120.96710260041822"><ele>10.5</ele><time>2026-04-20T05:59:04.001Z</time></trkpt><trkpt lat="14.464514942764408" lon="120.96704123266524"><ele>10.0</ele><time>2026-04-20T05:59:05.001Z</time></trkpt><trkpt lat="14.464471942219422" lon="120.96698673565739"><ele>9.5</ele><time>2026-04-20T05:59:06.001Z</time></trkpt><trkpt lat="14.46443528545676" lon="120.96693156617975"><ele>9.0</ele><time>2026-04-20T05:59:07.001Z</time></trkpt><trkpt lat="14.464384329238424" lon="120.96687061075478"><ele>8.5</ele><time>2026-04-20T05:59:08.001Z</time></trkpt><trkpt lat="14.46432139700195" lon="120.96680329391354"><ele>8.0</ele><time>2026-04-20T05:59:09.001Z</time></trkpt><trkpt lat="14.464264263722932" lon="120.9667167723557"><ele>8.200000000000001</ele><time>2026-04-20T05:59:10.001Z</time></trkpt><trkpt lat="14.464209950846543" lon="120.96662127805234"><ele>8.4</ele><time>2026-04-20T05:59:11.001Z</time></trkpt><trkpt lat="14.464151623421868" lon="120.96652529479925"><ele>8.600000000000001</ele><time>2026-04-20T05:59:12.001Z</time></trkpt><trkpt lat="14.464100422565776" lon="120.96642746081928"><ele>8.8</ele><time>2026-04-20T05:59:13.001Z</time></trkpt><trkpt lat="14.464039891956855" lon="120.96633163491077"><ele>9.0</ele><time>2026-04-20T05:59:14.001Z</time></trkpt><trkpt lat="14.463985817238889" lon="120.96623412643909"><ele>9.0</ele><time>2026-04-20T05:59:15.001Z</time></trkpt><trkpt lat="14.463930439560402" lon="120.96614436746299"><ele>9.0</ele><time>2026-04-20T05:59:16.001Z</time></trkpt><trkpt lat="14.463876698022599" lon="120.96605922070557"><ele>9.0</ele><time>2026-04-20T05:59:17.001Z</time></trkpt><trkpt lat="14.46382264635776" lon="120.9659778674257"><ele>9.0</ele><time>2026-04-20T05:59:18.001Z</time></trkpt><trkpt lat="14.463775507902138" lon="120.96589876291614"><ele>9.0</ele><time>2026-04-20T05:59:19.001Z</time></trkpt><trkpt lat="14.463720012192539" lon="120.9658136352955"><ele>9.0</ele><time>2026-04-20T05:59:20.001Z</time></trkpt><trkpt lat="14.463662646518108" lon="120.96573009931254"><ele>9.0</ele><time>2026-04-20T05:59:21.001Z</time></trkpt><trkpt lat="14.463602770451036" lon="120.96563992773014"><ele>9.0</ele><time>2026-04-20T05:59:22.001Z</time></trkpt><trkpt lat="14.463544924743182" lon="120.96555356583681"><ele>9.0</ele><time>2026-04-20T05:59:23.001Z</time></trkpt><trkpt lat="14.463479402705076" lon="120.96546092922925"><ele>9.0</ele><time>2026-04-20T05:59:24.001Z</time></trkpt><trkpt lat="14.46341475723764" lon="120.96536989950788"><ele>9.0</ele><time>2026-04-20T05:59:25.001Z</time></trkpt><trkpt lat="14.46335151622829" lon="120.96527106032211"><ele>9.0</ele><time>2026-04-20T05:59:26.001Z</time></trkpt><trkpt lat="14.463293672363198" lon="120.96518769102447"><ele>9.0</ele><time>2026-04-20T05:59:27.001Z</time></trkpt><trkpt lat="14.463241900478751" lon="120.96511412741842"><ele>9.0</ele><time>2026-04-20T05:59:28.001Z</time></trkpt><trkpt lat="14.463187962456557" lon="120.96503484591922"><ele>9.0</ele><time>2026-04-20T05:59:29.001Z</time></trkpt><trkpt lat="14.463138986157356" lon="120.96496092963159"><ele>8.833333333333334</ele><time>2026-04-20T05:59:30.001Z</time></trkpt><trkpt lat="14.463092370645104" lon="120.96489269644279"><ele>8.666666666666666</ele><time>2026-04-20T05:59:31.001Z</time></trkpt><trkpt lat="14.46305204982486" lon="120.9648346304963"><ele>8.5</ele><time>2026-04-20T05:59:32.001Z</time></trkpt><trkpt lat="14.463016595458074" lon="120.96477852613494"><ele>8.333333333333332</ele><time>2026-04-20T05:59:33.001Z</time></trkpt><trkpt lat="14.46296321191717" lon="120.96469765492026"><ele>8.166666666666666</ele><time>2026-04-20T05:59:35.001Z</time></trkpt><trkpt lat="14.462922937205946" lon="120.96463954196459"><ele>8.0</ele><time>2026-04-20T05:59:39.001Z</time></trkpt><trkpt lat="14.46287095043614" lon="120.96456532484645"><ele>8.0</ele><time>2026-04-20T05:59:43.001Z</time></trkpt><trkpt lat="14.462817809770801" lon="120.96448958613203"><ele>8.0</ele><time>2026-04-20T05:59:45.002Z</time></trkpt><trkpt lat="14.462757111516995" lon="120.96439052197687"><ele>8.0</ele><time>2026-04-20T05:59:47.002Z</time></trkpt><trkpt lat="14.462686570974933" lon="120.96428047779227"><ele>8.0</ele><time>2026-04-20T05:59:49.002Z</time></trkpt><trkpt lat="14.462649844073203" lon="120.96421632790177"><ele>8.0</ele><time>2026-04-20T05:59:50.002Z</time></trkpt><trkpt lat="14.462605635433013" lon="120.9641461797958"><ele>8.200000000000001</ele><time>2026-04-20T05:59:51.002Z</time></trkpt><trkpt lat="14.462549462156987" lon="120.96405823916092"><ele>8.4</ele><time>2026-04-20T05:59:52.002Z</time></trkpt><trkpt lat="14.46249999087629" lon="120.9639843152203"><ele>8.600000000000001</ele><time>2026-04-20T05:59:54.002Z</time></trkpt><trkpt lat="14.462459926619214" lon="120.96391063677167"><ele>8.8</ele><time>2026-04-20T05:59:59.002Z</time></trkpt><trkpt lat="14.462412520007865" lon="120.96383124374404"><ele>9.0</ele><time>2026-04-20T06:00:00.002Z</time></trkpt><trkpt lat="14.462365936885739" lon="120.96375192809947"><ele>9.0</ele><time>2026-04-20T06:00:01.002Z</time></trkpt><trkpt lat="14.462313313611151" lon="120.96366917714586"><ele>9.0</ele><time>2026-04-20T06:00:02.002Z</time></trkpt><trkpt lat="14.462263908518592" lon="120.96359099883979"><ele>9.0</ele><time>2026-04-20T06:00:03.002Z</time></trkpt><trkpt lat="14.46222002387645" lon="120.96352092725249"><ele>9.0</ele><time>2026-04-20T06:00:04.002Z</time></trkpt><trkpt lat="14.46218090917166" lon="120.96345422684546"><ele>9.0</ele><time>2026-04-20T06:00:05.002Z</time></trkpt><trkpt lat="14.462131367178573" lon="120.96338420494139"><ele>9.0</ele><time>2026-04-20T06:00:06.002Z</time></trkpt><trkpt lat="14.46209482316643" lon="120.96332374410312"><ele>8.833333333333334</ele><time>2026-04-20T06:00:07.002Z</time></trkpt><trkpt lat="14.462044541955445" lon="120.96324670718198"><ele>8.666666666666666</ele><time>2026-04-20T06:00:09.002Z</time></trkpt><trkpt lat="14.461998729067771" lon="120.96319003271005"><ele>8.5</ele><time>2026-04-20T06:00:11.002Z</time></trkpt><trkpt lat="14.461959439907965" lon="120.96311880737531"><ele>8.333333333333332</ele><time>2026-04-20T06:00:13.002Z</time></trkpt><trkpt lat="14.4619148295053" lon="120.96306276579085"><ele>8.166666666666666</ele><time>2026-04-20T06:02:07.002Z</time></trkpt><trkpt lat="14.461856367390816" lon="120.9629833882569"><ele>8.0</ele><time>2026-04-20T06:02:09.002Z</time></trkpt><trkpt lat="14.461803248393435" lon="120.96292071491882"><ele>7.999999999999999</ele><time>2026-04-20T06:02:11.002Z</time></trkpt><trkpt lat="14.46173148261732" lon="120.96287421505829"><ele>8.0</ele><time>2026-04-20T06:02:12.002Z</time></trkpt><trkpt lat="14.461668932503416" lon="120.9628923266285"><ele>8.0</ele><time>2026-04-20T06:02:14.002Z</time></trkpt><trkpt lat="14.461588278256482" lon="120.9629629584338"><ele>8.0</ele><time>2026-04-20T06:02:16.002Z</time></trkpt><trkpt lat="14.461534633826156" lon="120.96299936747523"><ele>7.999999999999999</ele><time>2026-04-20T06:02:17.002Z</time></trkpt><trkpt lat="14.461458549007034" lon="120.96305936132438"><ele>8.0</ele><time>2026-04-20T06:02:19.002Z</time></trkpt><trkpt lat="14.461370042912993" lon="120.96310936117403"><ele>7.999999999999999</ele><time>2026-04-20T06:02:21.002Z</time></trkpt><trkpt lat="14.46131928932887" lon="120.9631523282792"><ele>8.0</ele><time>2026-04-20T06:02:22.002Z</time></trkpt><trkpt lat="14.461267619416864" lon="120.9632022622396"><ele>8.0</ele><time>2026-04-20T06:02:23.002Z</time></trkpt><trkpt lat="14.461220896849118" lon="120.9632658031067"><ele>8.0</ele><time>2026-04-20T06:02:24.002Z</time></trkpt><trkpt lat="14.461160767681356" lon="120.96332980277319"><ele>7.999999999999999</ele><time>2026-04-20T06:02:25.002Z</time></trkpt><trkpt lat="14.461101052380103" lon="120.9633946519461"><ele>8.0</ele><time>2026-04-20T06:02:26.002Z</time></trkpt><trkpt lat="14.461031905958903" lon="120.96345904420423"><ele>8.600000000000001</ele><time>2026-04-20T06:02:27.002Z</time></trkpt><trkpt lat="14.46096426878752" lon="120.96352746871975"><ele>9.200000000000001</ele><time>2026-04-20T06:02:28.002Z</time></trkpt><trkpt lat="14.460893947561313" lon="120.96359182740653"><ele>9.8</ele><time>2026-04-20T06:02:29.002Z</time></trkpt><trkpt lat="14.46081859483938" lon="120.96365443437556"><ele>10.4</ele><time>2026-04-20T06:02:30.002Z</time></trkpt><trkpt lat="14.460741708576283" lon="120.96370868356503"><ele>11.0</ele><time>2026-04-20T06:02:31.002Z</time></trkpt><trkpt lat="14.46066848570898" lon="120.96376345463739"><ele>11.0</ele><time>2026-04-20T06:02:32.002Z</time></trkpt><trkpt lat="14.460600908165985" lon="120.96381917370978"><ele>11.0</ele><time>2026-04-20T06:02:33.002Z</time></trkpt><trkpt lat="14.46053967409946" lon="120.96386929576043"><ele>11.0</ele><time>2026-04-20T06:02:34.002Z</time></trkpt><trkpt lat="14.460484698425391" lon="120.96390981354008"><ele>11.0</ele><time>2026-04-20T06:02:35.002Z</time></trkpt><trkpt lat="14.460397499520507" lon="120.9639901132787"><ele>11.0</ele><time>2026-04-20T06:02:37.002Z</time></trkpt><trkpt lat="14.460345240661828" lon="120.96405314688673"><ele>11.0</ele><time>2026-04-20T06:02:38.002Z</time></trkpt><trkpt lat="14.460278046419216" lon="120.96411307943814"><ele>10.200000000000001</ele><time>2026-04-20T06:02:39.002Z</time></trkpt><trkpt lat="14.460197700201697" lon="120.96416804905714"><ele>9.4</ele><time>2026-04-20T06:02:40.002Z</time></trkpt><trkpt lat="14.460117686696828" lon="120.96423544312904"><ele>8.6</ele><time>2026-04-20T06:02:41.002Z</time></trkpt><trkpt lat="14.460038400709603" lon="120.96431479532413"><ele>7.8</ele><time>2026-04-20T06:02:42.002Z</time></trkpt><trkpt lat="14.45995871265545" lon="120.96438571368535"><ele>7.0</ele><time>2026-04-20T06:02:43.002Z</time></trkpt><trkpt lat="14.459880738295727" lon="120.96446607326477"><ele>6.833333333333334</ele><time>2026-04-20T06:02:44.002Z</time></trkpt><trkpt lat="14.459803783176856" lon="120.96454651692775"><ele>6.666666666666667</ele><time>2026-04-20T06:02:45Z</time></trkpt><trkpt lat="14.459731073819828" lon="120.9646127360976"><ele>6.5</ele><time>2026-04-20T06:02:46Z</time></trkpt><trkpt lat="14.459666896570866" lon="120.96467448218844"><ele>6.333333333333334</ele><time>2026-04-20T06:02:47Z</time></trkpt><trkpt lat="14.459611339714268" lon="120.96473057360025"><ele>6.166666666666667</ele><time>2026-04-20T06:02:48Z</time></trkpt><trkpt lat="14.459559557614535" lon="120.96478051504884"><ele>6.0</ele><time>2026-04-20T06:02:49Z</time></trkpt><trkpt lat="14.459479100947188" lon="120.96486027118858"><ele>6.0</ele><time>2026-04-20T06:02:51Z</time></trkpt><trkpt lat="14.459401057456656" lon="120.96493627325273"><ele>6.0</ele><time>2026-04-20T06:02:53Z</time></trkpt><trkpt lat="14.459317297012038" lon="120.9650175692749"><ele>6.0</ele><time>2026-04-20T06:02:55Z</time></trkpt><trkpt lat="14.459229274824475" lon="120.96510811347532"><ele>6.0</ele><time>2026-04-20T06:02:57Z</time></trkpt><trkpt lat="14.459181692970644" lon="120.96516516636429"><ele>6.0</ele><time>2026-04-20T06:02:58Z</time></trkpt><trkpt lat="14.459111932192659" lon="120.96523661828935"><ele>6.199999999999999</ele><time>2026-04-20T06:02:59Z</time></trkpt><trkpt lat="14.45904226183746" lon="120.9653099435385"><ele>6.3999999999999995</ele><time>2026-04-20T06:03:00Z</time></trkpt><trkpt lat="14.458974805266294" lon="120.96536302880605"><ele>6.6</ele><time>2026-04-20T06:03:01Z</time></trkpt><trkpt lat="14.45888288498382" lon="120.96544235299505"><ele>6.8</ele><time>2026-04-20T06:03:03Z</time></trkpt><trkpt lat="14.458824431951081" lon="120.96550936332251"><ele>7.0</ele><time>2026-04-20T06:03:05.001Z</time></trkpt><trkpt lat="14.458774627705854" lon="120.96556543219252"><ele>7.0</ele><time>2026-04-20T06:03:07.001Z</time></trkpt><trkpt lat="14.458689322458266" lon="120.96564699303028"><ele>6.999999999999999</ele><time>2026-04-20T06:03:09.001Z</time></trkpt><trkpt lat="14.458637107303206" lon="120.96570446857498"><ele>6.999999999999999</ele><time>2026-04-20T06:03:10.001Z</time></trkpt><trkpt lat="14.458570148830859" lon="120.96577693831276"><ele>7.0</ele><time>2026-04-20T06:03:11.001Z</time></trkpt><trkpt lat="14.45849503398877" lon="120.96584229443835"><ele>7.0</ele><time>2026-04-20T06:03:12.001Z</time></trkpt><trkpt lat="14.458407391492512" lon="120.96591948173355"><ele>7.0</ele><time>2026-04-20T06:03:13.001Z</time></trkpt><trkpt lat="14.45832270598002" lon="120.96600159126771"><ele>7.0</ele><time>2026-04-20T06:03:14.001Z</time></trkpt><trkpt lat="14.458236488781395" lon="120.96608337155898"><ele>7.0</ele><time>2026-04-20T06:03:15.001Z</time></trkpt><trkpt lat="14.458147873864894" lon="120.96617270887697"><ele>7.0</ele><time>2026-04-20T06:03:16.001Z</time></trkpt><trkpt lat="14.458058576156514" lon="120.96625565933991"><ele>7.0</ele><time>2026-04-20T06:03:17.001Z</time></trkpt><trkpt lat="14.457961570050266" lon="120.9663468257633"><ele>7.0</ele><time>2026-04-20T06:03:18.001Z</time></trkpt><trkpt lat="14.457865141652727" lon="120.96643706096204"><ele>7.0</ele><time>2026-04-20T06:03:19.001Z</time></trkpt><trkpt lat="14.457769599588712" lon="120.96653392031949"><ele>7.0</ele><time>2026-04-20T06:03:20.001Z</time></trkpt><trkpt lat="14.457675513138923" lon="120.96662712961918"><ele>7.5</ele><time>2026-04-20T06:03:21.001Z</time></trkpt><trkpt lat="14.457576416369777" lon="120.96672328057116"><ele>8.0</ele><time>2026-04-20T06:03:22.001Z</time></trkpt><trkpt lat="14.457478373047236" lon="120.96681675634352"><ele>8.5</ele><time>2026-04-20T06:03:23.001Z</time></trkpt><trkpt lat="14.457384422096096" lon="120.9669118468714"><ele>9.0</ele><time>2026-04-20T06:03:24.001Z</time></trkpt><trkpt lat="14.457286684535683" lon="120.96700584590958"><ele>9.0</ele><time>2026-04-20T06:03:25.001Z</time></trkpt><trkpt lat="14.45718995209673" lon="120.96709939178685"><ele>9.0</ele><time>2026-04-20T06:03:26.001Z</time></trkpt><trkpt lat="14.45708908894949" lon="120.96719327124407"><ele>9.0</ele><time>2026-04-20T06:03:27.001Z</time></trkpt><trkpt lat="14.45699194930037" lon="120.96728518891707"><ele>9.0</ele><time>2026-04-20T06:03:28.001Z</time></trkpt><trkpt lat="14.456899800514769" lon="120.96737536040695"><ele>9.0</ele><time>2026-04-20T06:03:29.001Z</time></trkpt><trkpt lat="14.456816318603614" lon="120.96745393523604"><ele>9.0</ele><time>2026-04-20T06:03:30.001Z</time></trkpt><trkpt lat="14.456736024130155" lon="120.96752873028814"><ele>9.0</ele><time>2026-04-20T06:03:31.001Z</time></trkpt><trkpt lat="14.456658470522884" lon="120.9675967933048"><ele>9.0</ele><time>2026-04-20T06:03:32.001Z</time></trkpt><trkpt lat="14.45657791344516" lon="120.96767794217557"><ele>9.0</ele><time>2026-04-20T06:03:33.001Z</time></trkpt><trkpt lat="14.456497049552471" lon="120.96775936041975"><ele>9.2</ele><time>2026-04-20T06:03:34.001Z</time></trkpt><trkpt lat="14.456418082289124" lon="120.967836207368"><ele>9.4</ele><time>2026-04-20T06:03:35.001Z</time></trkpt><trkpt lat="14.456340240598756" lon="120.96791555142369"><ele>9.6</ele><time>2026-04-20T06:03:36.001Z</time></trkpt><trkpt lat="14.45627993297633" lon="120.96797790207897"><ele>9.8</ele><time>2026-04-20T06:03:37.001Z</time></trkpt><trkpt lat="14.456221107153397" lon="120.9680405117036"><ele>10.0</ele><time>2026-04-20T06:03:38.001Z</time></trkpt><trkpt lat="14.45615980583508" lon="120.96810046889449"><ele>9.6</ele><time>2026-04-20T06:03:39.001Z</time></trkpt><trkpt lat="14.456090241459771" lon="120.96817753317492"><ele>9.2</ele><time>2026-04-20T06:03:40.001Z</time></trkpt><trkpt lat="14.45602463300294" lon="120.96825965224845"><ele>8.8</ele><time>2026-04-20T06:03:41.001Z</time></trkpt><trkpt lat="14.455965481866015" lon="120.96834906502517"><ele>8.4</ele><time>2026-04-20T06:03:42.001Z</time></trkpt><trkpt lat="14.455916021592417" lon="120.96846181716153"><ele>8.0</ele><time>2026-04-20T06:03:43.001Z</time></trkpt><trkpt lat="14.455870853988205" lon="120.9685793085489"><ele>8.0</ele><time>2026-04-20T06:03:44.001Z</time></trkpt><trkpt lat="14.455827396213685" lon="120.96871021929155"><ele>8.0</ele><time>2026-04-20T06:03:45.001Z</time></trkpt><trkpt lat="14.455782964965707" lon="120.96884555540153"><ele>8.0</ele><time>2026-04-20T06:03:46.001Z</time></trkpt><trkpt lat="14.455741532981248" lon="120.96897922336093"><ele>8.0</ele><time>2026-04-20T06:03:47.001Z</time></trkpt><trkpt lat="14.45569876557704" lon="120.96910579281518"><ele>7.800000000000001</ele><time>2026-04-20T06:03:48.001Z</time></trkpt><trkpt lat="14.455663414284945" lon="120.96922575734457"><ele>7.6000000000000005</ele><time>2026-04-20T06:03:49.001Z</time></trkpt><trkpt lat="14.455627819453886" lon="120.96933071201917"><ele>7.3999999999999995</ele><time>2026-04-20T06:03:50.001Z</time></trkpt><trkpt lat="14.455588604934107" lon="120.96943190752795"><ele>7.199999999999999</ele><time>2026-04-20T06:03:51.001Z</time></trkpt><trkpt lat="14.455539235835749" lon="120.96950401995785"><ele>7.0</ele><time>2026-04-20T06:03:52.001Z</time></trkpt><trkpt lat="14.455477991608014" lon="120.96955334071679"><ele>7.000000000000001</ele><time>2026-04-20T06:03:53.001Z</time></trkpt><trkpt lat="14.45539359420196" lon="120.96959528072024"><ele>7.0</ele><time>2026-04-20T06:03:54.001Z</time></trkpt><trkpt lat="14.45532323469145" lon="120.96962789380152"><ele>7.0</ele><time>2026-04-20T06:03:55.001Z</time></trkpt><trkpt lat="14.455263635739128" lon="120.96966896926246"><ele>7.0</ele><time>2026-04-20T06:03:56.001Z</time></trkpt><trkpt lat="14.455161625378704" lon="120.9697454101072"><ele>7.000000000000001</ele><time>2026-04-20T06:03:58.001Z</time></trkpt><trkpt lat="14.455099516869332" lon="120.96977904464426"><ele>7.0</ele><time>2026-04-20T06:03:59.001Z</time></trkpt><trkpt lat="14.455025577612474" lon="120.96981315070352"><ele>7.0</ele><time>2026-04-20T06:04:00.001Z</time></trkpt><trkpt lat="14.454950600544352" lon="120.9698355300743"><ele>6.999999999999999</ele><time>2026-04-20T06:04:01.001Z</time></trkpt><trkpt lat="14.454858200384844" lon="120.96984900493938"><ele>6.999999999999999</ele><time>2026-04-20T06:04:02.001Z</time></trkpt><trkpt lat="14.454753180696141" lon="120.96985133405175"><ele>7.0</ele><time>2026-04-20T06:04:03.001Z</time></trkpt><trkpt lat="14.45464044464154" lon="120.96984591308664"><ele>7.0</ele><time>2026-04-20T06:04:04.001Z</time></trkpt><trkpt lat="14.45453936579276" lon="120.96984488694676"><ele>7.3999999999999995</ele><time>2026-04-20T06:04:05.002Z</time></trkpt><trkpt lat="14.454441065122527" lon="120.96984618849126"><ele>7.799999999999999</ele><time>2026-04-20T06:04:06.002Z</time></trkpt><trkpt lat="14.454339302866842" lon="120.96983598913069"><ele>8.2</ele><time>2026-04-20T06:04:07.002Z</time></trkpt><trkpt lat="14.45424707234618" lon="120.96981779342961"><ele>8.6</ele><time>2026-04-20T06:04:08.002Z</time></trkpt><trkpt lat="14.454165166032745" lon="120.96980015771663"><ele>9.0</ele><time>2026-04-20T06:04:09.002Z</time></trkpt><trkpt lat="14.454090519599385" lon="120.96978898516366"><ele>9.0</ele><time>2026-04-20T06:04:10.002Z</time></trkpt><trkpt lat="14.454011562956861" lon="120.96978110240677"><ele>9.0</ele><time>2026-04-20T06:04:11.002Z</time></trkpt><trkpt lat="14.453938309316099" lon="120.96977081304149"><ele>9.0</ele><time>2026-04-20T06:04:12.002Z</time></trkpt><trkpt lat="14.453870387191305" lon="120.96976099919631"><ele>9.0</ele><time>2026-04-20T06:04:13.002Z</time></trkpt><trkpt lat="14.453762023208073" lon="120.96974454501417"><ele>9.0</ele><time>2026-04-20T06:04:15.002Z</time></trkpt><trkpt lat="14.453672909102039" lon="120.96973124853501"><ele>9.0</ele><time>2026-04-20T06:04:17.002Z</time></trkpt><trkpt lat="14.453577335976199" lon="120.9697073311807"><ele>8.8</ele><time>2026-04-20T06:04:19.002Z</time></trkpt><trkpt lat="14.453473112957225" lon="120.96967111070397"><ele>8.600000000000001</ele><time>2026-04-20T06:04:21.002Z</time></trkpt><trkpt lat="14.453388735412307" lon="120.96962620280205"><ele>8.4</ele><time>2026-04-20T06:04:23.002Z</time></trkpt><trkpt lat="14.453314590746098" lon="120.9695813590844"><ele>8.200000000000001</ele><time>2026-04-20T06:04:25.002Z</time></trkpt><trkpt lat="14.45321795108698" lon="120.96953490597181"><ele>8.0</ele><time>2026-04-20T06:04:27.002Z</time></trkpt><trkpt lat="14.45311556771425" lon="120.96949998494588"><ele>8.0</ele><time>2026-04-20T06:04:29.002Z</time></trkpt><trkpt lat="14.453037135601072" lon="120.96948098869595"><ele>8.0</ele><time>2026-04-20T06:04:31.002Z</time></trkpt><trkpt lat="14.452949742713885" lon="120.9694686139677"><ele>8.0</ele><time>2026-04-20T06:04:33.002Z</time></trkpt><trkpt lat="14.452824109825235" lon="120.96945232384518"><ele>8.0</ele><time>2026-04-20T06:04:35.002Z</time></trkpt><trkpt lat="14.452740257720352" lon="120.9694501370074"><ele>8.0</ele><time>2026-04-20T06:04:36.002Z</time></trkpt><trkpt lat="14.452658713057907" lon="120.96944055799759"><ele>8.4</ele><time>2026-04-20T06:04:37.002Z</time></trkpt><trkpt lat="14.452564687149478" lon="120.96943169758937"><ele>8.8</ele><time>2026-04-20T06:04:38.002Z</time></trkpt><trkpt lat="14.452455409213378" lon="120.96942951285881"><ele>9.2</ele><time>2026-04-20T06:04:39.002Z</time></trkpt><trkpt lat="14.45235402753097" lon="120.96942621434"><ele>9.6</ele><time>2026-04-20T06:04:40.002Z</time></trkpt><trkpt lat="14.452255656065061" lon="120.96942855845282"><ele>10.0</ele><time>2026-04-20T06:04:41.002Z</time></trkpt><trkpt lat="14.45217036144013" lon="120.96943412612839"><ele>10.25</ele><time>2026-04-20T06:04:42.002Z</time></trkpt><trkpt lat="14.45206562785517" lon="120.96944862845375"><ele>10.5</ele><time>2026-04-20T06:04:43.002Z</time></trkpt><trkpt lat="14.451946787436412" lon="120.96945901796846"><ele>10.75</ele><time>2026-04-20T06:04:44.002Z</time></trkpt><trkpt lat="14.451829442701417" lon="120.9694564329807"><ele>11.0</ele><time>2026-04-20T06:04:45.002Z</time></trkpt><trkpt lat="14.451721131896562" lon="120.96944540319258"><ele>11.0</ele><time>2026-04-20T06:04:46.002Z</time></trkpt><trkpt lat="14.451630673658007" lon="120.9694405318317"><ele>11.0</ele><time>2026-04-20T06:04:47.002Z</time></trkpt><trkpt lat="14.451537831261229" lon="120.96942967656489"><ele>11.0</ele><time>2026-04-20T06:04:49.002Z</time></trkpt><trkpt lat="14.451440873666657" lon="120.96942011347922"><ele>11.0</ele><time>2026-04-20T06:04:51Z</time></trkpt><trkpt lat="14.451371076101738" lon="120.9694186876793"><ele>11.0</ele><time>2026-04-20T06:04:52Z</time></trkpt><trkpt lat="14.451303724529302" lon="120.96941880635865"><ele>11.0</ele><time>2026-04-20T06:04:53Z</time></trkpt><trkpt lat="14.451234755669423" lon="120.96942169183129"><ele>10.666666666666666</ele><time>2026-04-20T06:04:54Z</time></trkpt><trkpt lat="14.451171700340536" lon="120.9694199566711"><ele>10.333333333333332</ele><time>2026-04-20T06:04:55Z</time></trkpt><trkpt lat="14.45110810245022" lon="120.96942067507825"><ele>10.0</ele><time>2026-04-20T06:04:56Z</time></trkpt><trkpt lat="14.45104479619479" lon="120.96942251733367"><ele>9.666666666666666</ele><time>2026-04-20T06:04:57Z</time></trkpt><trkpt lat="14.450913172100165" lon="120.96941797116712"><ele>9.333333333333334</ele><time>2026-04-20T06:04:59Z</time></trkpt><trkpt lat="14.450830436643054" lon="120.96941402480388"><ele>9.0</ele><time>2026-04-20T06:05:00Z</time></trkpt><trkpt lat="14.450728445482307" lon="120.96941328026328"><ele>9.0</ele><time>2026-04-20T06:05:01Z</time></trkpt><trkpt lat="14.450623612031904" lon="120.96940905822618"><ele>9.0</ele><time>2026-04-20T06:05:02Z</time></trkpt><trkpt lat="14.450507416044353" lon="120.96940138711165"><ele>9.0</ele><time>2026-04-20T06:05:03Z</time></trkpt><trkpt lat="14.45040210986301" lon="120.96939327334404"><ele>9.0</ele><time>2026-04-20T06:05:04Z</time></trkpt><trkpt lat="14.450302518728904" lon="120.96938143147827"><ele>9.0</ele><time>2026-04-20T06:05:05Z</time></trkpt><trkpt lat="14.450197050448004" lon="120.96938756734933"><ele>8.6</ele><time>2026-04-20T06:05:06Z</time></trkpt><trkpt lat="14.450111174837437" lon="120.96938760292889"><ele>8.2</ele><time>2026-04-20T06:05:07Z</time></trkpt><trkpt lat="14.450029142544896" lon="120.969386308115"><ele>7.799999999999999</ele><time>2026-04-20T06:05:08Z</time></trkpt><trkpt lat="14.449936062474732" lon="120.96939147499151"><ele>7.3999999999999995</ele><time>2026-04-20T06:05:09Z</time></trkpt><trkpt lat="14.449844066893657" lon="120.96939409571925"><ele>7.0</ele><time>2026-04-20T06:05:10Z</time></trkpt><trkpt lat="14.4497472507791" lon="120.9693894216339"><ele>7.0</ele><time>2026-04-20T06:05:11Z</time></trkpt><trkpt lat="14.449663554602411" lon="120.9693755425117"><ele>6.999999999999999</ele><time>2026-04-20T06:05:12Z</time></trkpt><trkpt lat="14.449530322208469" lon="120.969391718592"><ele>6.999999999999999</ele><time>2026-04-20T06:05:13Z</time></trkpt><trkpt lat="14.449417936465888" lon="120.96939364723352"><ele>7.0</ele><time>2026-04-20T06:05:14Z</time></trkpt><trkpt lat="14.449304594711606" lon="120.9693941225983"><ele>7.0</ele><time>2026-04-20T06:05:15Z</time></trkpt><trkpt lat="14.44920340333774" lon="120.96939510840453"><ele>7.25</ele><time>2026-04-20T06:05:16Z</time></trkpt><trkpt lat="14.449086915571455" lon="120.96939486732653"><ele>7.5</ele><time>2026-04-20T06:05:17Z</time></trkpt><trkpt lat="14.448978406200178" lon="120.96939674621007"><ele>7.75</ele><time>2026-04-20T06:05:18Z</time></trkpt><trkpt lat="14.44886408771722" lon="120.96940263260727"><ele>8.0</ele><time>2026-04-20T06:05:19Z</time></trkpt><trkpt lat="14.448753953051892" lon="120.96940459168067"><ele>8.25</ele><time>2026-04-20T06:05:20Z</time></trkpt><trkpt lat="14.44863334892229" lon="120.96941172622633"><ele>8.5</ele><time>2026-04-20T06:05:21Z</time></trkpt><trkpt lat="14.448500454408455" lon="120.96942283065184"><ele>8.75</ele><time>2026-04-20T06:05:22Z</time></trkpt><trkpt lat="14.44838819043156" lon="120.96942619358042"><ele>9.0</ele><time>2026-04-20T06:05:23Z</time></trkpt><trkpt lat="14.44826767529895" lon="120.96943340798077"><ele>9.0</ele><time>2026-04-20T06:05:24Z</time></trkpt><trkpt lat="14.44814448744529" lon="120.96943577012009"><ele>9.0</ele><time>2026-04-20T06:05:25Z</time></trkpt><trkpt lat="14.448015877749327" lon="120.96943757007281"><ele>9.0</ele><time>2026-04-20T06:05:26.001Z</time></trkpt><trkpt lat="14.447886448662699" lon="120.96943942865285"><ele>9.0</ele><time>2026-04-20T06:05:27.001Z</time></trkpt><trkpt lat="14.447755773748739" lon="120.96944161005798"><ele>8.5</ele><time>2026-04-20T06:05:28.001Z</time></trkpt><trkpt lat="14.44762455768643" lon="120.96944317097125"><ele>8.0</ele><time>2026-04-20T06:05:29.001Z</time></trkpt><trkpt lat="14.447492484192908" lon="120.96944206310557"><ele>7.5</ele><time>2026-04-20T06:05:30.001Z</time></trkpt><trkpt lat="14.447358649695413" lon="120.96944982260466"><ele>7.0</ele><time>2026-04-20T06:05:31.001Z</time></trkpt><trkpt lat="14.447231759798488" lon="120.96946260302364"><ele>7.25</ele><time>2026-04-20T06:05:32.001Z</time></trkpt><trkpt lat="14.447102370101081" lon="120.96948023616628"><ele>7.5</ele><time>2026-04-20T06:05:33.001Z</time></trkpt><trkpt lat="14.446974162412552" lon="120.96949482987674"><ele>7.75</ele><time>2026-04-20T06:05:34.001Z</time></trkpt><trkpt lat="14.446848058319556" lon="120.96951399991254"><ele>8.0</ele><time>2026-04-20T06:05:35.001Z</time></trkpt><trkpt lat="14.446736665768764" lon="120.96953266350067"><ele>8.0</ele><time>2026-04-20T06:05:36.001Z</time></trkpt><trkpt lat="14.446637521147013" lon="120.96955316095266"><ele>8.0</ele><time>2026-04-20T06:05:37.001Z</time></trkpt><trkpt lat="14.44654052439452" lon="120.96958352629419"><ele>8.0</ele><time>2026-04-20T06:05:38.001Z</time></trkpt><trkpt lat="14.44645103093783" lon="120.9696048859667"><ele>8.0</ele><time>2026-04-20T06:05:39.001Z</time></trkpt><trkpt lat="14.446364833839931" lon="120.9696327384676"><ele>8.0</ele><time>2026-04-20T06:05:40.001Z</time></trkpt><trkpt lat="14.446276850964681" lon="120.96968456948603"><ele>8.4</ele><time>2026-04-20T06:05:41.001Z</time></trkpt><trkpt lat="14.446196425404308" lon="120.9697506800913"><ele>8.8</ele><time>2026-04-20T06:05:42.001Z</time></trkpt><trkpt lat="14.446116747359245" lon="120.96982567294367"><ele>9.2</ele><time>2026-04-20T06:05:43.001Z</time></trkpt><trkpt lat="14.446030128162525" lon="120.96990533889947"><ele>9.6</ele><time>2026-04-20T06:05:44.001Z</time></trkpt><trkpt lat="14.445942011862691" lon="120.96998108478643"><ele>10.0</ele><time>2026-04-20T06:05:45.001Z</time></trkpt><trkpt lat="14.445852583713867" lon="120.970055197443"><ele>10.0</ele><time>2026-04-20T06:05:46.001Z</time></trkpt><trkpt lat="14.44576334727342" lon="120.97013241753571"><ele>10.0</ele><time>2026-04-20T06:05:47.001Z</time></trkpt><trkpt lat="14.44567746251132" lon="120.97019746987102"><ele>10.0</ele><time>2026-04-20T06:05:48.001Z</time></trkpt><trkpt lat="14.445589026470257" lon="120.97026864191247"><ele>10.0</ele><time>2026-04-20T06:05:49.001Z</time></trkpt><trkpt lat="14.445493219803568" lon="120.97034921255855"><ele>10.5</ele><time>2026-04-20T06:05:50.001Z</time></trkpt><trkpt lat="14.445395168248924" lon="120.97042964909727"><ele>11.0</ele><time>2026-04-20T06:05:51.001Z</time></trkpt><trkpt lat="14.445292059278083" lon="120.97050815869038"><ele>11.5</ele><time>2026-04-20T06:05:52.001Z</time></trkpt><trkpt lat="14.445189544476262" lon="120.97058832022572"><ele>12.0</ele><time>2026-04-20T06:05:53.001Z</time></trkpt><trkpt lat="14.445098914079743" lon="120.97065358579616"><ele>12.0</ele><time>2026-04-20T06:05:54.001Z</time></trkpt><trkpt lat="14.445013686004529" lon="120.97071689553452"><ele>12.0</ele><time>2026-04-20T06:05:55.001Z</time></trkpt><trkpt lat="14.444935112331265" lon="120.97078137740846"><ele>12.0</ele><time>2026-04-20T06:05:56.001Z</time></trkpt><trkpt lat="14.444860963425258" lon="120.97084367337514"><ele>12.0</ele><time>2026-04-20T06:05:57.001Z</time></trkpt><trkpt lat="14.44479285210691" lon="120.97089747967385"><ele>12.0</ele><time>2026-04-20T06:05:58.001Z</time></trkpt><trkpt lat="14.444722969718894" lon="120.97094753250136"><ele>11.8</ele><time>2026-04-20T06:05:59.001Z</time></trkpt><trkpt lat="14.444662005166592" lon="120.97098878431409"><ele>11.6</ele><time>2026-04-20T06:06:00.001Z</time></trkpt><trkpt lat="14.444569659996512" lon="120.97105873136613"><ele>11.4</ele><time>2026-04-20T06:06:02.001Z</time></trkpt><trkpt lat="14.44449134894429" lon="120.9711038093893"><ele>11.200000000000001</ele><time>2026-04-20T06:06:04.001Z</time></trkpt><trkpt lat="14.444387748366898" lon="120.97115516316703"><ele>11.0</ele><time>2026-04-20T06:06:06.001Z</time></trkpt><trkpt lat="14.444318700454327" lon="120.97118673369582"><ele>11.0</ele><time>2026-04-20T06:06:07.001Z</time></trkpt><trkpt lat="14.444247181266858" lon="120.97121788857564"><ele>11.0</ele><time>2026-04-20T06:06:08.001Z</time></trkpt><trkpt lat="14.444148471690418" lon="120.97125059726308"><ele>11.0</ele><time>2026-04-20T06:06:09.001Z</time></trkpt><trkpt lat="14.444042978432078" lon="120.97129000738244"><ele>11.0</ele><time>2026-04-20T06:06:10.001Z</time></trkpt><trkpt lat="14.443946388910318" lon="120.97133617817975"><ele>11.0</ele><time>2026-04-20T06:06:11.001Z</time></trkpt><trkpt lat="14.443855565677836" lon="120.97135405077154"><ele>10.833333333333332</ele><time>2026-04-20T06:06:12.001Z</time></trkpt><trkpt lat="14.443778556213884" lon="120.97137547636808"><ele>10.666666666666666</ele><time>2026-04-20T06:06:13.001Z</time></trkpt><trkpt lat="14.443712697855434" lon="120.97140370650231"><ele>10.5</ele><time>2026-04-20T06:06:14.001Z</time></trkpt><trkpt lat="14.443612376185003" lon="120.97144600185625"><ele>10.333333333333334</ele><time>2026-04-20T06:06:16.001Z</time></trkpt><trkpt lat="14.443553732508407" lon="120.9714713899272"><ele>10.166666666666668</ele><time>2026-04-20T06:06:17.001Z</time></trkpt><trkpt lat="14.44349259857776" lon="120.97149776554637"><ele>10.0</ele><time>2026-04-20T06:06:18.001Z</time></trkpt><trkpt lat="14.44340323188964" lon="120.9715411795506"><ele>10.0</ele><time>2026-04-20T06:06:19.001Z</time></trkpt><trkpt lat="14.443310876662743" lon="120.97158271247211"><ele>10.0</ele><time>2026-04-20T06:06:20.001Z</time></trkpt><trkpt lat="14.443208248521376" lon="120.97162551587817"><ele>10.0</ele><time>2026-04-20T06:06:21.001Z</time></trkpt><trkpt lat="14.4431014324362" lon="120.97166268662671"><ele>10.0</ele><time>2026-04-20T06:06:22.002Z</time></trkpt><trkpt lat="14.442998494575997" lon="120.97169648728443"><ele>10.0</ele><time>2026-04-20T06:06:23.002Z</time></trkpt><trkpt lat="14.442900476318119" lon="120.97173271522432"><ele>10.0</ele><time>2026-04-20T06:06:24.002Z</time></trkpt><trkpt lat="14.442810840846322" lon="120.9717680413364"><ele>10.0</ele><time>2026-04-20T06:06:25.002Z</time></trkpt><trkpt lat="14.442715310711144" lon="120.97180766687613"><ele>10.0</ele><time>2026-04-20T06:06:26.002Z</time></trkpt><trkpt lat="14.442633188625136" lon="120.97184432327343"><ele>10.0</ele><time>2026-04-20T06:06:27.002Z</time></trkpt><trkpt lat="14.44254411190501" lon="120.97188309774533"><ele>10.0</ele><time>2026-04-20T06:06:28.002Z</time></trkpt><trkpt lat="14.442457024089318" lon="120.97191977923067"><ele>10.0</ele><time>2026-04-20T06:06:29.002Z</time></trkpt><trkpt lat="14.442363049859352" lon="120.97195834049096"><ele>10.0</ele><time>2026-04-20T06:06:30.002Z</time></trkpt><trkpt lat="14.442263287025188" lon="120.97199766146002"><ele>10.0</ele><time>2026-04-20T06:06:31.002Z</time></trkpt><trkpt lat="14.442156298842258" lon="120.97203827392153"><ele>10.0</ele><time>2026-04-20T06:06:32.002Z</time></trkpt><trkpt lat="14.442047627019402" lon="120.97207897366847"><ele>10.0</ele><time>2026-04-20T06:06:33.002Z</time></trkpt><trkpt lat="14.441940800850999" lon="120.9721213223203"><ele>10.6</ele><time>2026-04-20T06:06:34.002Z</time></trkpt><trkpt lat="14.441840125699999" lon="120.97215951740151"><ele>11.2</ele><time>2026-04-20T06:06:35.002Z</time></trkpt><trkpt lat="14.441740606317786" lon="120.97219915694417"><ele>11.8</ele><time>2026-04-20T06:06:36.002Z</time></trkpt><trkpt lat="14.44165654552347" lon="120.97222938318802"><ele>12.4</ele><time>2026-04-20T06:06:37.002Z</time></trkpt><trkpt lat="14.441574276970272" lon="120.97225920417101"><ele>13.0</ele><time>2026-04-20T06:06:38.002Z</time></trkpt><trkpt lat="14.441491186514499" lon="120.97228478939388"><ele>13.0</ele><time>2026-04-20T06:06:39.002Z</time></trkpt><trkpt lat="14.441396186933593" lon="120.97231240052739"><ele>13.0</ele><time>2026-04-20T06:06:40.002Z</time></trkpt><trkpt lat="14.44129750823119" lon="120.97234351928869"><ele>13.0</ele><time>2026-04-20T06:06:41.002Z</time></trkpt><trkpt lat="14.441189312038953" lon="120.97238041678887"><ele>13.0</ele><time>2026-04-20T06:06:42.002Z</time></trkpt><trkpt lat="14.441081387573343" lon="120.97241739410846"><ele>13.0</ele><time>2026-04-20T06:06:43.002Z</time></trkpt><trkpt lat="14.44096193175076" lon="120.97245453431275"><ele>13.0</ele><time>2026-04-20T06:06:44.002Z</time></trkpt><trkpt lat="14.440845111867878" lon="120.97249333728202"><ele>13.0</ele><time>2026-04-20T06:06:45.002Z</time></trkpt><trkpt lat="14.44072547641676" lon="120.97253051411963"><ele>13.0</ele><time>2026-04-20T06:06:46.002Z</time></trkpt><trkpt lat="14.440610697312747" lon="120.97257139030872"><ele>13.0</ele><time>2026-04-20T06:06:47.002Z</time></trkpt><trkpt lat="14.440491907890769" lon="120.97262199288741"><ele>12.5</ele><time>2026-04-20T06:06:48.002Z</time></trkpt><trkpt lat="14.440374599772525" lon="120.97267745401255"><ele>12.0</ele><time>2026-04-20T06:06:49.002Z</time></trkpt><trkpt lat="14.440258428465107" lon="120.97273658841927"><ele>11.5</ele><time>2026-04-20T06:06:50.002Z</time></trkpt><trkpt lat="14.44014218607418" lon="120.97279219332157"><ele>11.0</ele><time>2026-04-20T06:06:51.002Z</time></trkpt><trkpt lat="14.440021375030508" lon="120.97285873983016"><ele>11.0</ele><time>2026-04-20T06:06:52.002Z</time></trkpt><trkpt lat="14.43990509821859" lon="120.97291961633816"><ele>11.0</ele><time>2026-04-20T06:06:53.002Z</time></trkpt><trkpt lat="14.439783214512605" lon="120.97298580894635"><ele>11.0</ele><time>2026-04-20T06:06:54.002Z</time></trkpt><trkpt lat="14.43966148122271" lon="120.97305166996304"><ele>11.0</ele><time>2026-04-20T06:06:55.002Z</time></trkpt><trkpt lat="14.439543744600691" lon="120.9731126286263"><ele>11.4</ele><time>2026-04-20T06:06:56.002Z</time></trkpt><trkpt lat="14.439439790555387" lon="120.97317312218802"><ele>11.8</ele><time>2026-04-20T06:06:57Z</time></trkpt><trkpt lat="14.439352416876561" lon="120.9732175026659"><ele>12.200000000000001</ele><time>2026-04-20T06:06:58Z</time></trkpt><trkpt lat="14.43927481167681" lon="120.97326243929324"><ele>12.600000000000001</ele><time>2026-04-20T06:06:59Z</time></trkpt><trkpt lat="14.439197492821384" lon="120.97330266900244"><ele>13.0</ele><time>2026-04-20T06:07:00Z</time></trkpt><trkpt lat="14.439118735563268" lon="120.97334774582724"><ele>12.833333333333332</ele><time>2026-04-20T06:07:01Z</time></trkpt><trkpt lat="14.43903809095161" lon="120.97339034960532"><ele>12.666666666666666</ele><time>2026-04-20T06:07:02Z</time></trkpt><trkpt lat="14.438958193145716" lon="120.9734322473354"><ele>12.5</ele><time>2026-04-20T06:07:03Z</time></trkpt><trkpt lat="14.43889122043691" lon="120.97346684273546"><ele>12.333333333333332</ele><time>2026-04-20T06:07:04Z</time></trkpt><trkpt lat="14.438827295846728" lon="120.97350140486925"><ele>12.166666666666666</ele><time>2026-04-20T06:07:05Z</time></trkpt><trkpt lat="14.438728721320013" lon="120.97355653028106"><ele>12.0</ele><time>2026-04-20T06:07:07Z</time></trkpt><trkpt lat="14.438618543030765" lon="120.97363174852111"><ele>12.0</ele><time>2026-04-20T06:07:09Z</time></trkpt><trkpt lat="14.438561880201064" lon="120.97367190013829"><ele>12.0</ele><time>2026-04-20T06:07:10Z</time></trkpt><trkpt lat="14.438504078787851" lon="120.97370333332594"><ele>12.0</ele><time>2026-04-20T06:07:11Z</time></trkpt><trkpt lat="14.438445604410374" lon="120.973734229607"><ele>12.0</ele><time>2026-04-20T06:07:12Z</time></trkpt><trkpt lat="14.438354886969304" lon="120.97378047220887"><ele>12.0</ele><time>2026-04-20T06:07:14Z</time></trkpt><trkpt lat="14.438260026208306" lon="120.9738509924743"><ele>12.0</ele><time>2026-04-20T06:07:16Z</time></trkpt><trkpt lat="14.438193667600572" lon="120.97390136794746"><ele>12.0</ele><time>2026-04-20T06:07:17Z</time></trkpt><trkpt lat="14.438126692492501" lon="120.97396523222885"><ele>12.0</ele><time>2026-04-20T06:07:18Z</time></trkpt><trkpt lat="14.438073390553152" lon="120.9740381738512"><ele>12.0</ele><time>2026-04-20T06:07:19Z</time></trkpt><trkpt lat="14.438030176416724" lon="120.97410726832919"><ele>12.0</ele><time>2026-04-20T06:07:20Z</time></trkpt><trkpt lat="14.437991176391266" lon="120.97416183563739"><ele>12.0</ele><time>2026-04-20T06:07:21Z</time></trkpt><trkpt lat="14.437945550132223" lon="120.97421552866881"><ele>12.0</ele><time>2026-04-20T06:07:22Z</time></trkpt><trkpt lat="14.43788991344322" lon="120.97425580988804"><ele>12.0</ele><time>2026-04-20T06:07:23Z</time></trkpt><trkpt lat="14.437828806257802" lon="120.97428649784035"><ele>12.0</ele><time>2026-04-20T06:07:24Z</time></trkpt><trkpt lat="14.437731064553123" lon="120.97432687926455"><ele>12.0</ele><time>2026-04-20T06:07:26Z</time></trkpt><trkpt lat="14.437653874642324" lon="120.97435529314872"><ele>12.0</ele><time>2026-04-20T06:07:28Z</time></trkpt><trkpt lat="14.437549588883584" lon="120.97439366472483"><ele>12.0</ele><time>2026-04-20T06:07:30Z</time></trkpt><trkpt lat="14.437432450849977" lon="120.97443650528797"><ele>12.0</ele><time>2026-04-20T06:07:32Z</time></trkpt><trkpt lat="14.437363040981024" lon="120.97445547368517"><ele>12.0</ele><time>2026-04-20T06:07:33Z</time></trkpt><trkpt lat="14.4372791180136" lon="120.9744687576014"><ele>12.0</ele><time>2026-04-20T06:07:34.001Z</time></trkpt><trkpt lat="14.43718229634202" lon="120.97448626737675"><ele>12.0</ele><time>2026-04-20T06:07:35.001Z</time></trkpt><trkpt lat="14.437079720929969" lon="120.97450908974821"><ele>12.0</ele><time>2026-04-20T06:07:36.001Z</time></trkpt><trkpt lat="14.436962191573535" lon="120.97453581477977"><ele>12.399999999999999</ele><time>2026-04-20T06:07:37.001Z</time></trkpt><trkpt lat="14.436857193797122" lon="120.97455901358178"><ele>12.799999999999999</ele><time>2026-04-20T06:07:38.001Z</time></trkpt><trkpt lat="14.436745972975267" lon="120.97458562362695"><ele>13.2</ele><time>2026-04-20T06:07:39.001Z</time></trkpt><trkpt lat="14.43663752925351" lon="120.97460807409382"><ele>13.6</ele><time>2026-04-20T06:07:40.001Z</time></trkpt><trkpt lat="14.436531425420288" lon="120.97462731038482"><ele>14.0</ele><time>2026-04-20T06:07:41.001Z</time></trkpt><trkpt lat="14.43642039895613" lon="120.97465310135225"><ele>14.0</ele><time>2026-04-20T06:07:42.001Z</time></trkpt><trkpt lat="14.436303815637153" lon="120.97467717911222"><ele>13.999999999999998</ele><time>2026-04-20T06:07:43.001Z</time></trkpt><trkpt lat="14.436190778487074" lon="120.97469266237319"><ele>13.999999999999998</ele><time>2026-04-20T06:07:44.001Z</time></trkpt><trkpt lat="14.436085546888787" lon="120.97467805230521"><ele>14.0</ele><time>2026-04-20T06:07:45.001Z</time></trkpt><trkpt lat="14.435988082757957" lon="120.97467721857946"><ele>14.0</ele><time>2026-04-20T06:07:46.001Z</time></trkpt><trkpt lat="14.43588514454807" lon="120.9746893965255"><ele>13.799999999999999</ele><time>2026-04-20T06:07:47.001Z</time></trkpt><trkpt lat="14.435770898478218" lon="120.97468454798006"><ele>13.599999999999998</ele><time>2026-04-20T06:07:48.001Z</time></trkpt><trkpt lat="14.43565789362709" lon="120.97468179830281"><ele>13.4</ele><time>2026-04-20T06:07:49.001Z</time></trkpt><trkpt lat="14.435546373315345" lon="120.9746755543338"><ele>13.2</ele><time>2026-04-20T06:07:50.001Z</time></trkpt><trkpt lat="14.435441955495298" lon="120.97466958128517"><ele>13.0</ele><time>2026-04-20T06:07:51.001Z</time></trkpt><trkpt lat="14.435349534670635" lon="120.9746613824952"><ele>13.499999999999998</ele><time>2026-04-20T06:07:52.001Z</time></trkpt><trkpt lat="14.43526901237255" lon="120.97465448577631"><ele>14.0</ele><time>2026-04-20T06:07:53.001Z</time></trkpt><trkpt lat="14.435195783374025" lon="120.97464905889649"><ele>14.5</ele><time>2026-04-20T06:07:54.001Z</time></trkpt><trkpt lat="14.435087057420535" lon="120.97464424813654"><ele>15.0</ele><time>2026-04-20T06:07:56.001Z</time></trkpt><trkpt lat="14.435020486720225" lon="120.97464758376049"><ele>15.499999999999998</ele><time>2026-04-20T06:07:58.001Z</time></trkpt><trkpt lat="14.434946810236772" lon="120.97463838979644"><ele>16.0</ele><time>2026-04-20T06:08:02.001Z</time></trkpt><trkpt lat="14.434862254367149" lon="120.97463565698305"><ele>15.999999999999998</ele><time>2026-04-20T06:08:05.001Z</time></trkpt><trkpt lat="14.43478836852908" lon="120.97464091174221"><ele>16.0</ele><time>2026-04-20T06:08:06.001Z</time></trkpt><trkpt lat="14.434706093180974" lon="120.97463347678828"><ele>16.0</ele><time>2026-04-20T06:08:07.001Z</time></trkpt><trkpt lat="14.43461202684276" lon="120.97463171717195"><ele>16.0</ele><time>2026-04-20T06:08:08.001Z</time></trkpt><trkpt lat="14.434547292376253" lon="120.97461976969834"><ele>15.999999999999998</ele><time>2026-04-20T06:08:09.001Z</time></trkpt><trkpt lat="14.434452360428333" lon="120.97461393193494"><ele>16.0</ele><time>2026-04-20T06:08:10.001Z</time></trkpt><trkpt lat="14.434354856283221" lon="120.97461332961198"><ele>16.400000000000002</ele><time>2026-04-20T06:08:11.001Z</time></trkpt><trkpt lat="14.434257469654979" lon="120.9746186472256"><ele>16.8</ele><time>2026-04-20T06:08:12.001Z</time></trkpt><trkpt lat="14.43415249407255" lon="120.97462894313303"><ele>17.200000000000003</ele><time>2026-04-20T06:08:13.001Z</time></trkpt><trkpt lat="14.434043966000056" lon="120.97463712565191"><ele>17.6</ele><time>2026-04-20T06:08:14.001Z</time></trkpt><trkpt lat="14.433934252661004" lon="120.97464823666921"><ele>18.0</ele><time>2026-04-20T06:08:15.001Z</time></trkpt><trkpt lat="14.433826184243154" lon="120.97465981096725"><ele>18.6</ele><time>2026-04-20T06:08:16.001Z</time></trkpt><trkpt lat="14.433718785250786" lon="120.97466873087286"><ele>19.200000000000003</ele><time>2026-04-20T06:08:17.001Z</time></trkpt><trkpt lat="14.433616128157897" lon="120.97467497561898"><ele>19.8</ele><time>2026-04-20T06:08:18.001Z</time></trkpt><trkpt lat="14.433522674119532" lon="120.97468130539457"><ele>20.400000000000002</ele><time>2026-04-20T06:08:19.001Z</time></trkpt><trkpt lat="14.433437434465935" lon="120.97468470904114"><ele>21.0</ele><time>2026-04-20T06:08:20.001Z</time></trkpt><trkpt lat="14.433368846364003" lon="120.97468601133679"><ele>21.0</ele><time>2026-04-20T06:08:21.001Z</time></trkpt><trkpt lat="14.43325886551458" lon="120.97468024239454"><ele>21.0</ele><time>2026-04-20T06:08:23.001Z</time></trkpt><trkpt lat="14.433195046168665" lon="120.9746857058917"><ele>21.0</ele><time>2026-04-20T06:08:24.001Z</time></trkpt><trkpt lat="14.433129143433897" lon="120.974705047186"><ele>21.0</ele><time>2026-04-20T06:08:25.001Z</time></trkpt><trkpt lat="14.433055688569825" lon="120.97470874341317"><ele>21.0</ele><time>2026-04-20T06:08:26.001Z</time></trkpt><trkpt lat="14.432953004305398" lon="120.97471490693277"><ele>21.0</ele><time>2026-04-20T06:08:28.002Z</time></trkpt><trkpt lat="14.432852575793675" lon="120.97472260333136"><ele>20.6</ele><time>2026-04-20T06:08:33.002Z</time></trkpt><trkpt lat="14.432755154406353" lon="120.97472930573954"><ele>20.200000000000003</ele><time>2026-04-20T06:08:35.002Z</time></trkpt><trkpt lat="14.432654115072742" lon="120.97473618276997"><ele>19.799999999999997</ele><time>2026-04-20T06:08:37.002Z</time></trkpt><trkpt lat="14.432533731363742" lon="120.97474380966946"><ele>19.4</ele><time>2026-04-20T06:08:39.002Z</time></trkpt><trkpt lat="14.432469640090734" lon="120.97475146342936"><ele>19.0</ele><time>2026-04-20T06:08:40.002Z</time></trkpt><trkpt lat="14.43236425276805" lon="120.97475989801266"><ele>19.0</ele><time>2026-04-20T06:08:42.002Z</time></trkpt><trkpt lat="14.432269492580765" lon="120.97476622088148"><ele>19.0</ele><time>2026-04-20T06:08:44.002Z</time></trkpt><trkpt lat="14.432163300615684" lon="120.97477399388858"><ele>19.0</ele><time>2026-04-20T06:08:46.002Z</time></trkpt><trkpt lat="14.432050643977234" lon="120.9747884720291"><ele>19.0</ele><time>2026-04-20T06:08:48.002Z</time></trkpt><trkpt lat="14.431963657230058" lon="120.97479784945801"><ele>19.0</ele><time>2026-04-20T06:08:50.002Z</time></trkpt><trkpt lat="14.43186794887355" lon="120.97480284815174"><ele>19.0</ele><time>2026-04-20T06:08:52.002Z</time></trkpt><trkpt lat="14.431749210541067" lon="120.97480931008081"><ele>19.0</ele><time>2026-04-20T06:08:54.002Z</time></trkpt><trkpt lat="14.431618346872115" lon="120.97481398611147"><ele>19.0</ele><time>2026-04-20T06:08:56.002Z</time></trkpt><trkpt lat="14.431494882428428" lon="120.97482264878325"><ele>19.0</ele><time>2026-04-20T06:08:58.002Z</time></trkpt><trkpt lat="14.431415380469861" lon="120.97482865245796"><ele>19.0</ele><time>2026-04-20T06:08:59.002Z</time></trkpt><trkpt lat="14.43134089258397" lon="120.97483208334741"><ele>19.0</ele><time>2026-04-20T06:09:00.002Z</time></trkpt><trkpt lat="14.431264551918112" lon="120.9748369714545"><ele>19.0</ele><time>2026-04-20T06:09:01.002Z</time></trkpt><trkpt lat="14.431181313982911" lon="120.97483825431357"><ele>19.0</ele><time>2026-04-20T06:09:02.002Z</time></trkpt><trkpt lat="14.43108820359797" lon="120.97482897333678"><ele>19.0</ele><time>2026-04-20T06:09:03Z</time></trkpt><trkpt lat="14.431012096044896" lon="120.97483156498507"><ele>19.0</ele><time>2026-04-20T06:09:04Z</time></trkpt><trkpt lat="14.430947595887954" lon="120.97484607636046"><ele>19.0</ele><time>2026-04-20T06:09:05Z</time></trkpt><trkpt lat="14.430876109410482" lon="120.97484906945402"><ele>19.0</ele><time>2026-04-20T06:09:06Z</time></trkpt><trkpt lat="14.430769843375623" lon="120.97485269680837"><ele>19.0</ele><time>2026-04-20T06:09:08Z</time></trkpt><trkpt lat="14.430646348306992" lon="120.97485793052422"><ele>19.0</ele><time>2026-04-20T06:09:10Z</time></trkpt><trkpt lat="14.430579264797222" lon="120.97486232393251"><ele>19.0</ele><time>2026-04-20T06:09:11Z</time></trkpt><trkpt lat="14.43051455205443" lon="120.97485976934972"><ele>19.0</ele><time>2026-04-20T06:09:12Z</time></trkpt><trkpt lat="14.430401509166947" lon="120.97486832047744"><ele>19.166666666666664</ele><time>2026-04-20T06:09:14Z</time></trkpt><trkpt lat="14.430337603122897" lon="120.97487564686999"><ele>19.333333333333332</ele><time>2026-04-20T06:09:15Z</time></trkpt><trkpt lat="14.43027426482293" lon="120.97488006519283"><ele>19.5</ele><time>2026-04-20T06:09:16Z</time></trkpt><trkpt lat="14.430200073372049" lon="120.9748871183567"><ele>19.666666666666668</ele><time>2026-04-20T06:09:17Z</time></trkpt><trkpt lat="14.43011236006268" lon="120.97489465067201"><ele>19.833333333333336</ele><time>2026-04-20T06:09:18Z</time></trkpt><trkpt lat="14.43002548694069" lon="120.97489982116791"><ele>20.0</ele><time>2026-04-20T06:09:19Z</time></trkpt><trkpt lat="14.429949127853027" lon="120.97490436049617"><ele>20.0</ele><time>2026-04-20T06:09:20Z</time></trkpt><trkpt lat="14.429883003256931" lon="120.9749073237887"><ele>20.0</ele><time>2026-04-20T06:09:21Z</time></trkpt><trkpt lat="14.429766645106998" lon="120.97491824352328"><ele>20.0</ele><time>2026-04-20T06:09:23Z</time></trkpt><trkpt lat="14.429642287610953" lon="120.97492761211149"><ele>20.0</ele><time>2026-04-20T06:09:25Z</time></trkpt><trkpt lat="14.429575424854367" lon="120.97493463481207"><ele>20.0</ele><time>2026-04-20T06:09:26Z</time></trkpt><trkpt lat="14.429507477333118" lon="120.97494193353465"><ele>20.0</ele><time>2026-04-20T06:09:27Z</time></trkpt><trkpt lat="14.429437525807893" lon="120.97494785442477"><ele>19.8</ele><time>2026-04-20T06:09:28Z</time></trkpt><trkpt lat="14.429321664563084" lon="120.9749563427517"><ele>19.6</ele><time>2026-04-20T06:09:30Z</time></trkpt><trkpt lat="14.429257754127237" lon="120.97496523311071"><ele>19.4</ele><time>2026-04-20T06:09:31Z</time></trkpt><trkpt lat="14.429148212036747" lon="120.97497109965227"><ele>19.2</ele><time>2026-04-20T06:09:33Z</time></trkpt><trkpt lat="14.42903989698813" lon="120.97497948086853"><ele>19.0</ele><time>2026-04-20T06:09:35Z</time></trkpt><trkpt lat="14.42893234928731" lon="120.9749877494305"><ele>19.0</ele><time>2026-04-20T06:09:37.001Z</time></trkpt><trkpt lat="14.428820360307622" lon="120.97499700180612"><ele>19.0</ele><time>2026-04-20T06:09:39.001Z</time></trkpt><trkpt lat="14.428696939888114" lon="120.9750011472916"><ele>19.0</ele><time>2026-04-20T06:09:41.001Z</time></trkpt><trkpt lat="14.428628205848142" lon="120.97500533354413"><ele>19.0</ele><time>2026-04-20T06:09:42.001Z</time></trkpt><trkpt lat="14.428560201806585" lon="120.9750099629549"><ele>19.0</ele><time>2026-04-20T06:09:43.001Z</time></trkpt><trkpt lat="14.428485220090286" lon="120.97501649936777"><ele>19.0</ele><time>2026-04-20T06:09:44.001Z</time></trkpt><trkpt lat="14.428407440587028" lon="120.97502005958465"><ele>19.0</ele><time>2026-04-20T06:09:45.001Z</time></trkpt><trkpt lat="14.428310939611514" lon="120.97502669174618"><ele>19.0</ele><time>2026-04-20T06:09:46.001Z</time></trkpt><trkpt lat="14.428231540892376" lon="120.97503175972709"><ele>19.0</ele><time>2026-04-20T06:09:47.001Z</time></trkpt><trkpt lat="14.428149533181811" lon="120.97503700753313"><ele>19.0</ele><time>2026-04-20T06:09:48.001Z</time></trkpt><trkpt lat="14.428055006602602" lon="120.97504922102284"><ele>19.0</ele><time>2026-04-20T06:09:49.001Z</time></trkpt><trkpt lat="14.427941754930592" lon="120.97505749265014"><ele>19.5</ele><time>2026-04-20T06:09:50.001Z</time></trkpt><trkpt lat="14.427820837627403" lon="120.97505649326195"><ele>20.0</ele><time>2026-04-20T06:09:51.001Z</time></trkpt><trkpt lat="14.42769876070526" lon="120.97505053195134"><ele>20.5</ele><time>2026-04-20T06:09:52.001Z</time></trkpt><trkpt lat="14.427573055262025" lon="120.9750438362005"><ele>21.0</ele><time>2026-04-20T06:09:53.001Z</time></trkpt><trkpt lat="14.427448545389346" lon="120.97503416179423"><ele>21.333333333333332</ele><time>2026-04-20T06:09:54.001Z</time></trkpt><trkpt lat="14.42734791701879" lon="120.97502000288604"><ele>21.666666666666668</ele><time>2026-04-20T06:09:55.001Z</time></trkpt><trkpt lat="14.42726916853525" lon="120.97501178565082"><ele>22.0</ele><time>2026-04-20T06:09:56.001Z</time></trkpt><trkpt lat="14.427203055925899" lon="120.97500825835894"><ele>22.333333333333336</ele><time>2026-04-20T06:09:57.001Z</time></trkpt><trkpt lat="14.427099905568227" lon="120.97499731122373"><ele>22.666666666666668</ele><time>2026-04-20T06:09:59.001Z</time></trkpt><trkpt lat="14.427021128804409" lon="120.97499992849643"><ele>23.0</ele><time>2026-04-20T06:10:02.001Z</time></trkpt><trkpt lat="14.426939876593586" lon="120.97499248178804"><ele>23.0</ele><time>2026-04-20T06:10:07.001Z</time></trkpt><trkpt lat="14.42686571462731" lon="120.97498648643251"><ele>23.0</ele><time>2026-04-20T06:10:09.001Z</time></trkpt><trkpt lat="14.426775475896978" lon="120.97498392818292"><ele>23.0</ele><time>2026-04-20T06:10:11.001Z</time></trkpt><trkpt lat="14.426697724498746" lon="120.97497459237252"><ele>23.0</ele><time>2026-04-20T06:10:13.001Z</time></trkpt><trkpt lat="14.426593741175981" lon="120.97496332758483"><ele>23.0</ele><time>2026-04-20T06:10:15.001Z</time></trkpt><trkpt lat="14.426498510687754" lon="120.97495908034419"><ele>23.0</ele><time>2026-04-20T06:10:17.001Z</time></trkpt><trkpt lat="14.426397144860932" lon="120.97494758391672"><ele>23.0</ele><time>2026-04-20T06:10:19.001Z</time></trkpt><trkpt lat="14.426314738969326" lon="120.97493723868182"><ele>23.0</ele><time>2026-04-20T06:10:21.001Z</time></trkpt><trkpt lat="14.426238276830247" lon="120.97492957507914"><ele>23.0</ele><time>2026-04-20T06:10:24.001Z</time></trkpt><trkpt lat="14.426145837246203" lon="120.97492814568757"><ele>23.0</ele><time>2026-04-20T06:10:28.002Z</time></trkpt><trkpt lat="14.42607492278515" lon="120.97492885829764"><ele>23.0</ele><time>2026-04-20T06:10:30.002Z</time></trkpt><trkpt lat="14.426003608887662" lon="120.97492715457854"><ele>23.0</ele><time>2026-04-20T06:10:32.002Z</time></trkpt><trkpt lat="14.42590990781727" lon="120.97493444653611"><ele>23.166666666666668</ele><time>2026-04-20T06:10:34.002Z</time></trkpt><trkpt lat="14.425824154481447" lon="120.97493592696065"><ele>23.333333333333336</ele><time>2026-04-20T06:10:35.002Z</time></trkpt><trkpt lat="14.42572542644308" lon="120.97492605815135"><ele>23.5</ele><time>2026-04-20T06:10:36.002Z</time></trkpt><trkpt lat="14.425635009605699" lon="120.97491880140858"><ele>23.666666666666668</ele><time>2026-04-20T06:10:37.002Z</time></trkpt><trkpt lat="14.42555818308409" lon="120.9749197620353"><ele>23.833333333333332</ele><time>2026-04-20T06:10:38.002Z</time></trkpt><trkpt lat="14.42547103513146" lon="120.97492755216606"><ele>24.0</ele><time>2026-04-20T06:10:39.002Z</time></trkpt><trkpt lat="14.425395915922044" lon="120.97492799808914"><ele>23.6</ele><time>2026-04-20T06:10:40.002Z</time></trkpt><trkpt lat="14.425319248743286" lon="120.97492467562061"><ele>23.2</ele><time>2026-04-20T06:10:41.002Z</time></trkpt><trkpt lat="14.425242190475709" lon="120.97492338623786"><ele>22.8</ele><time>2026-04-20T06:10:42.002Z</time></trkpt><trkpt lat="14.425122750297641" lon="120.97492437356937"><ele>22.400000000000002</ele><time>2026-04-20T06:10:44.002Z</time></trkpt><trkpt lat="14.425001038701495" lon="120.97493167568254"><ele>22.0</ele><time>2026-04-20T06:10:46.002Z</time></trkpt><trkpt lat="14.424911312767934" lon="120.97491733479777"><ele>22.0</ele><time>2026-04-20T06:10:47.002Z</time></trkpt><trkpt lat="14.424819462931884" lon="120.97491807598216"><ele>22.0</ele><time>2026-04-20T06:10:48.002Z</time></trkpt><trkpt lat="14.424720006685641" lon="120.97491887854672"><ele>22.0</ele><time>2026-04-20T06:10:49.002Z</time></trkpt><trkpt lat="14.424610851176821" lon="120.97492188159447"><ele>22.0</ele><time>2026-04-20T06:10:50.002Z</time></trkpt><trkpt lat="14.424488593698104" lon="120.97492544095596"><ele>22.0</ele><time>2026-04-20T06:10:51.002Z</time></trkpt><trkpt lat="14.424361566574518" lon="120.97494522436688"><ele>22.25</ele><time>2026-04-20T06:10:52.002Z</time></trkpt><trkpt lat="14.42423178314627" lon="120.97493866402368"><ele>22.5</ele><time>2026-04-20T06:10:53.002Z</time></trkpt><trkpt lat="14.424100831565427" lon="120.97493054899708"><ele>22.75</ele><time>2026-04-20T06:10:54.002Z</time></trkpt><trkpt lat="14.42397261298767" lon="120.97492761816711"><ele>23.0</ele><time>2026-04-20T06:10:55.002Z</time></trkpt><trkpt lat="14.423837113415289" lon="120.97492720350603"><ele>23.0</ele><time>2026-04-20T06:10:56.002Z</time></trkpt><trkpt lat="14.423703348557469" lon="120.97492945435515"><ele>23.0</ele><time>2026-04-20T06:10:57.002Z</time></trkpt><trkpt lat="14.423571637516163" lon="120.97492772512328"><ele>23.0</ele><time>2026-04-20T06:10:58.002Z</time></trkpt><trkpt lat="14.42343894035561" lon="120.97492658681145"><ele>23.0</ele><time>2026-04-20T06:10:59.002Z</time></trkpt><trkpt lat="14.423316356671284" lon="120.97492716309826"><ele>23.0</ele><time>2026-04-20T06:11:00.002Z</time></trkpt><trkpt lat="14.42318958044958" lon="120.97493005347452"><ele>23.0</ele><time>2026-04-20T06:11:01.002Z</time></trkpt><trkpt lat="14.423068242179564" lon="120.97493418355745"><ele>23.0</ele><time>2026-04-20T06:11:02.002Z</time></trkpt><trkpt lat="14.42295305486418" lon="120.97493393914749"><ele>23.0</ele><time>2026-04-20T06:11:03.002Z</time></trkpt><trkpt lat="14.422842328681982" lon="120.97493273403606"><ele>23.75</ele><time>2026-04-20T06:11:04.002Z</time></trkpt><trkpt lat="14.422727591393045" lon="120.9749353579336"><ele>24.5</ele><time>2026-04-20T06:11:05.002Z</time></trkpt><trkpt lat="14.422612186776526" lon="120.9749452496273"><ele>25.25</ele><time>2026-04-20T06:11:06.002Z</time></trkpt><trkpt lat="14.4224970859303" lon="120.97495273961636"><ele>26.0</ele><time>2026-04-20T06:11:07.002Z</time></trkpt><trkpt lat="14.422379862752408" lon="120.9749602284695"><ele>26.0</ele><time>2026-04-20T06:11:08.002Z</time></trkpt><trkpt lat="14.422255793111885" lon="120.97497291025498"><ele>26.0</ele><time>2026-04-20T06:11:09Z</time></trkpt><trkpt lat="14.422136340352745" lon="120.97498343370964"><ele>26.0</ele><time>2026-04-20T06:11:10Z</time></trkpt><trkpt lat="14.422017564922843" lon="120.97499554954271"><ele>26.0</ele><time>2026-04-20T06:11:11Z</time></trkpt><trkpt lat="14.421897124475613" lon="120.97501351517559"><ele>25.6</ele><time>2026-04-20T06:11:12Z</time></trkpt><trkpt lat="14.42177612254562" lon="120.97503252020677"><ele>25.200000000000003</ele><time>2026-04-20T06:11:13Z</time></trkpt><trkpt lat="14.421669171434289" lon="120.97505306302864"><ele>24.799999999999997</ele><time>2026-04-20T06:11:14Z</time></trkpt><trkpt lat="14.421555243538705" lon="120.97506926360714"><ele>24.4</ele><time>2026-04-20T06:11:15Z</time></trkpt><trkpt lat="14.421461194491378" lon="120.97508765372285"><ele>24.0</ele><time>2026-04-20T06:11:16Z</time></trkpt><trkpt lat="14.421374778575451" lon="120.97509968297236"><ele>23.6</ele><time>2026-04-20T06:11:17Z</time></trkpt><trkpt lat="14.421284336051805" lon="120.97511179865137"><ele>23.2</ele><time>2026-04-20T06:11:18Z</time></trkpt><trkpt lat="14.421186714666904" lon="120.97512514385332"><ele>22.8</ele><time>2026-04-20T06:11:19Z</time></trkpt><trkpt lat="14.421092298720165" lon="120.97513257800279"><ele>22.400000000000002</ele><time>2026-04-20T06:11:20Z</time></trkpt><trkpt lat="14.421007806387074" lon="120.97513822402748"><ele>22.0</ele><time>2026-04-20T06:11:21Z</time></trkpt><trkpt lat="14.420906163276744" lon="120.97514576671341"><ele>22.0</ele><time>2026-04-20T06:11:22Z</time></trkpt><trkpt lat="14.420809324130293" lon="120.97514872213561"><ele>22.0</ele><time>2026-04-20T06:11:23Z</time></trkpt><trkpt lat="14.420706189216002" lon="120.9751466462262"><ele>22.0</ele><time>2026-04-20T06:11:24Z</time></trkpt><trkpt lat="14.420613158955694" lon="120.97513265120281"><ele>22.0</ele><time>2026-04-20T06:11:25Z</time></trkpt><trkpt lat="14.420516387539864" lon="120.97512230267075"><ele>22.0</ele><time>2026-04-20T06:11:26Z</time></trkpt><trkpt lat="14.420430930689768" lon="120.97511901094921"><ele>22.166666666666664</ele><time>2026-04-20T06:11:27Z</time></trkpt><trkpt lat="14.420355722136405" lon="120.97511603438119"><ele>22.333333333333332</ele><time>2026-04-20T06:11:28Z</time></trkpt><trkpt lat="14.420285308271568" lon="120.97511032659662"><ele>22.5</ele><time>2026-04-20T06:11:29Z</time></trkpt><trkpt lat="14.42021529576113" lon="120.97509739023947"><ele>22.666666666666668</ele><time>2026-04-20T06:11:30Z</time></trkpt><trkpt lat="14.420132317634373" lon="120.97508327221081"><ele>22.833333333333336</ele><time>2026-04-20T06:11:31Z</time></trkpt><trkpt lat="14.420027344243518" lon="120.97506495755025"><ele>23.0</ele><time>2026-04-20T06:11:32Z</time></trkpt><trkpt lat="14.41991704541146" lon="120.97502759525662"><ele>23.5</ele><time>2026-04-20T06:11:33Z</time></trkpt><trkpt lat="14.419802009834106" lon="120.97497718749385"><ele>24.0</ele><time>2026-04-20T06:11:34Z</time></trkpt><trkpt lat="14.419675980171638" lon="120.9749347672822"><ele>24.5</ele><time>2026-04-20T06:11:35Z</time></trkpt><trkpt lat="14.41954565082273" lon="120.9748981379312"><ele>25.0</ele><time>2026-04-20T06:11:36.001Z</time></trkpt><trkpt lat="14.419417719673106" lon="120.97485860325166"><ele>25.0</ele><time>2026-04-20T06:11:37.001Z</time></trkpt><trkpt lat="14.419288320834882" lon="120.97481447556044"><ele>25.0</ele><time>2026-04-20T06:11:38.001Z</time></trkpt><trkpt lat="14.41916531902997" lon="120.97477429419513"><ele>25.0</ele><time>2026-04-20T06:11:39.001Z</time></trkpt><trkpt lat="14.419057151790902" lon="120.97473943729835"><ele>25.0</ele><time>2026-04-20T06:11:40.001Z</time></trkpt><trkpt lat="14.41894502056044" lon="120.9747101035808"><ele>25.0</ele><time>2026-04-20T06:11:41.001Z</time></trkpt><trkpt lat="14.418828719697093" lon="120.97468745410279"><ele>25.0</ele><time>2026-04-20T06:11:42.001Z</time></trkpt><trkpt lat="14.4187057374124" lon="120.97466816183275"><ele>25.0</ele><time>2026-04-20T06:11:43.001Z</time></trkpt><trkpt lat="14.41858753445924" lon="120.9746526039761"><ele>25.0</ele><time>2026-04-20T06:11:44.001Z</time></trkpt><trkpt lat="14.418466793052401" lon="120.97463948413969"><ele>24.5</ele><time>2026-04-20T06:11:45.001Z</time></trkpt><trkpt lat="14.418348354999043" lon="120.97463167881497"><ele>24.0</ele><time>2026-04-20T06:11:46.001Z</time></trkpt><trkpt lat="14.418230169585275" lon="120.97462161435921"><ele>23.5</ele><time>2026-04-20T06:11:47.001Z</time></trkpt><trkpt lat="14.418109647682714" lon="120.97460927852946"><ele>23.0</ele><time>2026-04-20T06:11:48.001Z</time></trkpt><trkpt lat="14.418002324993402" lon="120.97459924094714"><ele>23.0</ele><time>2026-04-20T06:11:49.001Z</time></trkpt><trkpt lat="14.417915105094837" lon="120.97459287370017"><ele>23.0</ele><time>2026-04-20T06:11:50.001Z</time></trkpt><trkpt lat="14.417829799465961" lon="120.97459536719605"><ele>23.0</ele><time>2026-04-20T06:11:51.001Z</time></trkpt><trkpt lat="14.417759134355707" lon="120.97459612288199"><ele>23.0</ele><time>2026-04-20T06:11:52.001Z</time></trkpt><trkpt lat="14.417643752805049" lon="120.97460285761414"><ele>23.0</ele><time>2026-04-20T06:11:54.001Z</time></trkpt><trkpt lat="14.417528824044242" lon="120.97460300316777"><ele>23.0</ele><time>2026-04-20T06:11:56.001Z</time></trkpt><trkpt lat="14.41742937870819" lon="120.97460553928016"><ele>23.0</ele><time>2026-04-20T06:11:58.001Z</time></trkpt><trkpt lat="14.417354040765845" lon="120.97460894331637"><ele>23.0</ele><time>2026-04-20T06:12:00.001Z</time></trkpt><trkpt lat="14.417291379117557" lon="120.9746185502631"><ele>23.0</ele><time>2026-04-20T06:12:06.001Z</time></trkpt><trkpt lat="14.417298774365488" lon="120.97477667987002"><ele>23.0</ele><time>2026-04-20T06:12:11.001Z</time></trkpt><trkpt lat="14.417290158021697" lon="120.97484178480093"><ele>23.0</ele><time>2026-04-20T06:12:12.001Z</time></trkpt><trkpt lat="14.41729546851437" lon="120.97490962488375"><ele>23.0</ele><time>2026-04-20T06:12:13.001Z</time></trkpt><trkpt lat="14.417300810640912" lon="120.97497786911114"><ele>23.0</ele><time>2026-04-20T06:12:14.001Z</time></trkpt><trkpt lat="14.417309371294493" lon="120.97508722911002"><ele>23.0</ele><time>2026-04-20T06:12:16.001Z</time></trkpt><trkpt lat="14.417330829925389" lon="120.97517006039709"><ele>23.0</ele><time>2026-04-20T06:12:18.001Z</time></trkpt><trkpt lat="14.417332308786868" lon="120.97524341807517"><ele>23.0</ele><time>2026-04-20T06:12:20.001Z</time></trkpt><trkpt lat="14.417339990779395" lon="120.9753383304623"><ele>22.666666666666668</ele><time>2026-04-20T06:12:23.001Z</time></trkpt><trkpt lat="14.41734591998157" lon="120.97541296358459"><ele>22.333333333333336</ele><time>2026-04-20T06:12:25.001Z</time></trkpt><trkpt lat="14.417351749664304" lon="120.97550415651183"><ele>22.0</ele><time>2026-04-20T06:12:27.002Z</time></trkpt><trkpt lat="14.417351744936095" lon="120.97557600202232"><ele>21.666666666666668</ele><time>2026-04-20T06:12:29.002Z</time></trkpt><trkpt lat="14.41736187367801" lon="120.97565736850099"><ele>21.333333333333332</ele><time>2026-04-20T06:12:32.002Z</time></trkpt><trkpt lat="14.417363278016689" lon="120.9757454098573"><ele>21.0</ele><time>2026-04-20T06:12:35.002Z</time></trkpt><trkpt lat="14.417374511764741" lon="120.97583371890258"><ele>21.333333333333332</ele><time>2026-04-20T06:12:38.002Z</time></trkpt><trkpt lat="14.417381730167206" lon="120.9759356203771"><ele>21.666666666666668</ele><time>2026-04-20T06:12:41.002Z</time></trkpt><trkpt lat="14.417388025625929" lon="120.97600262957627"><ele>22.0</ele><time>2026-04-20T06:12:47.002Z</time></trkpt><trkpt lat="14.417397104783511" lon="120.97607303581034"><ele>22.333333333333336</ele><time>2026-04-20T06:12:52.002Z</time></trkpt><trkpt lat="14.41738861052364" lon="120.97616086581134"><ele>22.666666666666668</ele><time>2026-04-20T06:12:56.002Z</time></trkpt><trkpt lat="14.417405447077499" lon="120.97623348298896"><ele>23.0</ele><time>2026-04-20T06:12:59.002Z</time></trkpt><trkpt lat="14.417403418510176" lon="120.97631948002484"><ele>23.0</ele><time>2026-04-20T06:13:03.002Z</time></trkpt><trkpt lat="14.417334436788286" lon="120.97634193926336"><ele>23.0</ele><time>2026-04-20T06:13:06.002Z</time></trkpt><trkpt lat="14.41729188013541" lon="120.97640577807684"><ele>23.0</ele><time>2026-04-20T06:13:13.002Z</time></trkpt><trkpt lat="14.417220333413114" lon="120.9763912929918"><ele>23.0</ele><time>2026-04-20T06:13:17Z</time></trkpt><trkpt lat="14.41712961611756" lon="120.97638682615882"><ele>23.0</ele><time>2026-04-20T06:13:19Z</time></trkpt><trkpt lat="14.416997578922798" lon="120.97637597847132"><ele>23.0</ele><time>2026-04-20T06:13:21Z</time></trkpt><trkpt lat="14.41692030960757" lon="120.97636963031132"><ele>23.2</ele><time>2026-04-20T06:13:22Z</time></trkpt><trkpt lat="14.416855016749745" lon="120.97636426609098"><ele>23.4</ele><time>2026-04-20T06:13:23Z</time></trkpt><trkpt lat="14.41676054789868" lon="120.97636768219935"><ele>23.599999999999998</ele><time>2026-04-20T06:13:25Z</time></trkpt><trkpt lat="14.416663549725117" lon="120.97635244744416"><ele>23.799999999999997</ele><time>2026-04-20T06:13:27Z</time></trkpt><trkpt lat="14.41655255468689" lon="120.97635106117357"><ele>24.0</ele><time>2026-04-20T06:13:29Z</time></trkpt><trkpt lat="14.416445969438737" lon="120.97634466624018"><ele>24.0</ele><time>2026-04-20T06:13:31Z</time></trkpt><trkpt lat="14.416346541174313" lon="120.97633590359983"><ele>24.0</ele><time>2026-04-20T06:13:33Z</time></trkpt><trkpt lat="14.41623674323086" lon="120.97632350142528"><ele>24.0</ele><time>2026-04-20T06:13:35.001Z</time></trkpt><trkpt lat="14.416128109714323" lon="120.97631722435457"><ele>24.0</ele><time>2026-04-20T06:13:37.001Z</time></trkpt><trkpt lat="14.416051677682834" lon="120.97630564085001"><ele>24.0</ele><time>2026-04-20T06:13:39.001Z</time></trkpt><trkpt lat="14.415968893966072" lon="120.97629269769172"><ele>23.833333333333332</ele><time>2026-04-20T06:13:42.001Z</time></trkpt><trkpt lat="14.415895194155175" lon="120.97629212671984"><ele>23.666666666666668</ele><time>2026-04-20T06:13:44.001Z</time></trkpt><trkpt lat="14.41582091358502" lon="120.97627053710141"><ele>23.5</ele><time>2026-04-20T06:13:46.001Z</time></trkpt><trkpt lat="14.415746632151297" lon="120.97625982112774"><ele>23.333333333333336</ele><time>2026-04-20T06:13:48.001Z</time></trkpt><trkpt lat="14.415660774318882" lon="120.97624809262342"><ele>23.166666666666668</ele><time>2026-04-20T06:13:50.001Z</time></trkpt><trkpt lat="14.415560240447036" lon="120.97623435930171"><ele>23.0</ele><time>2026-04-20T06:13:52.001Z</time></trkpt><trkpt lat="14.415494912049315" lon="120.97623614441964"><ele>22.799999999999997</ele><time>2026-04-20T06:13:53.001Z</time></trkpt><trkpt lat="14.415401591828997" lon="120.97623614441909"><ele>22.6</ele><time>2026-04-20T06:13:55.001Z</time></trkpt><trkpt lat="14.415292438577655" lon="120.97623614441883"><ele>22.4</ele><time>2026-04-20T06:13:57.001Z</time></trkpt><trkpt lat="14.415168951571582" lon="120.97626669244644"><ele>22.200000000000003</ele><time>2026-04-20T06:13:59.001Z</time></trkpt><trkpt lat="14.415101322251592" lon="120.9762802637575"><ele>22.0</ele><time>2026-04-20T06:14:00.001Z</time></trkpt><trkpt lat="14.415015922101631" lon="120.97629740117284"><ele>22.0</ele><time>2026-04-20T06:14:02.001Z</time></trkpt><trkpt lat="14.41492583356311" lon="120.97631937286958"><ele>22.0</ele><time>2026-04-20T06:14:06.001Z</time></trkpt><trkpt lat="14.414805241883125" lon="120.97635069616045"><ele>22.0</ele><time>2026-04-20T06:14:08.001Z</time></trkpt><trkpt lat="14.414730856173058" lon="120.97637001760332"><ele>22.0</ele><time>2026-04-20T06:14:09.001Z</time></trkpt><trkpt lat="14.414653520401556" lon="120.97639010531869"><ele>22.0</ele><time>2026-04-20T06:14:10.001Z</time></trkpt><trkpt lat="14.41457766645534" lon="120.97640980812733"><ele>22.0</ele><time>2026-04-20T06:14:11.001Z</time></trkpt><trkpt lat="14.414503093971176" lon="120.97642917808794"><ele>22.0</ele><time>2026-04-20T06:14:12.001Z</time></trkpt><trkpt lat="14.41442888279145" lon="120.97644845419204"><ele>22.0</ele><time>2026-04-20T06:14:13.001Z</time></trkpt><trkpt lat="14.414366408200333" lon="120.97646468176438"><ele>22.0</ele><time>2026-04-20T06:14:14.001Z</time></trkpt><trkpt lat="14.41425199943767" lon="120.97649439906313"><ele>22.0</ele><time>2026-04-20T06:14:16.001Z</time></trkpt><trkpt lat="14.414178368787482" lon="120.97651346108874"><ele>22.0</ele><time>2026-04-20T06:14:17.001Z</time></trkpt><trkpt lat="14.414106408522366" lon="120.97653173050722"><ele>22.0</ele><time>2026-04-20T06:14:18.001Z</time></trkpt><trkpt lat="14.414040501528188" lon="120.97654848762247"><ele>22.0</ele><time>2026-04-20T06:14:19.001Z</time></trkpt><trkpt lat="14.413929773019126" lon="120.9765849618358"><ele>22.0</ele><time>2026-04-20T06:14:21.001Z</time></trkpt><trkpt lat="14.413820877315716" lon="120.97660426110055"><ele>22.0</ele><time>2026-04-20T06:14:23.001Z</time></trkpt><trkpt lat="14.413783501588155" lon="120.97667193589866"><ele>22.0</ele><time>2026-04-20T06:14:24.001Z</time></trkpt><trkpt lat="14.413748490980778" lon="120.97678929204841"><ele>22.0</ele><time>2026-04-20T06:14:26.001Z</time></trkpt><trkpt lat="14.413728072118559" lon="120.97685116206755"><ele>22.0</ele><time>2026-04-20T06:14:27.001Z</time></trkpt><trkpt lat="14.413710897942003" lon="120.97691718613771"><ele>22.0</ele><time>2026-04-20T06:14:28.002Z</time></trkpt><trkpt lat="14.413702589338994" lon="120.97698860910882"><ele>22.0</ele><time>2026-04-20T06:14:29.002Z</time></trkpt><trkpt lat="14.413706184434169" lon="120.97706295890555"><ele>22.0</ele><time>2026-04-20T06:14:30.002Z</time></trkpt><trkpt lat="14.413715798637327" lon="120.97713355081623"><ele>22.0</ele><time>2026-04-20T06:14:31.002Z</time></trkpt><trkpt lat="14.413730497585243" lon="120.97721402388221"><ele>22.0</ele><time>2026-04-20T06:14:32.002Z</time></trkpt><trkpt lat="14.413742940879281" lon="120.97729272017494"><ele>22.0</ele><time>2026-04-20T06:14:33.002Z</time></trkpt><trkpt lat="14.41375727955235" lon="120.97736062975507"><ele>22.0</ele><time>2026-04-20T06:14:34.002Z</time></trkpt><trkpt lat="14.413772459432998" lon="120.97744982177709"><ele>22.0</ele><time>2026-04-20T06:14:36.002Z</time></trkpt><trkpt lat="14.413768506504383" lon="120.97752026443887"><ele>22.0</ele><time>2026-04-20T06:14:39.002Z</time></trkpt><trkpt lat="14.413786209513512" lon="120.97762735120658"><ele>22.0</ele><time>2026-04-20T06:14:41.002Z</time></trkpt><trkpt lat="14.413798145833164" lon="120.97769954908053"><ele>22.0</ele><time>2026-04-20T06:14:42.002Z</time></trkpt><trkpt lat="14.41381191622392" lon="120.9777772359452"><ele>22.833333333333332</ele><time>2026-04-20T06:14:43.002Z</time></trkpt><trkpt lat="14.413851305053747" lon="120.97784883527014"><ele>23.666666666666664</ele><time>2026-04-20T06:14:44.002Z</time></trkpt><trkpt lat="14.413861880420594" lon="120.97792659358475"><ele>24.5</ele><time>2026-04-20T06:14:45.002Z</time></trkpt><trkpt lat="14.413873796524092" lon="120.97799560323345"><ele>25.333333333333332</ele><time>2026-04-20T06:14:46.002Z</time></trkpt><trkpt lat="14.413892126225083" lon="120.9780694221492"><ele>26.166666666666668</ele><time>2026-04-20T06:14:49.002Z</time></trkpt><trkpt lat="14.413911837746275" lon="120.9781781958228"><ele>27.0</ele><time>2026-04-20T06:14:51.002Z</time></trkpt><trkpt lat="14.413927927198133" lon="120.97830082572818"><ele>27.400000000000002</ele><time>2026-04-20T06:14:53.002Z</time></trkpt><trkpt lat="14.413941610419794" lon="120.97839286011866"><ele>27.800000000000004</ele><time>2026-04-20T06:14:55.002Z</time></trkpt><trkpt lat="14.41395608782911" lon="120.9784850420972"><ele>28.2</ele><time>2026-04-20T06:14:59.002Z</time></trkpt><trkpt lat="14.413972229874272" lon="120.97858900278443"><ele>28.6</ele><time>2026-04-20T06:15:01.002Z</time></trkpt><trkpt lat="14.4139903761635" lon="120.97870918854075"><ele>29.0</ele><time>2026-04-20T06:15:03.002Z</time></trkpt><trkpt lat="14.414002724875264" lon="120.97877898386575"><ele>29.0</ele><time>2026-04-20T06:15:04.002Z</time></trkpt><trkpt lat="14.414022073728457" lon="120.97887587689479"><ele>29.0</ele><time>2026-04-20T06:15:06.002Z</time></trkpt><trkpt lat="14.414023492775758" lon="120.9789651533315"><ele>29.0</ele><time>2026-04-20T06:15:10.002Z</time></trkpt><trkpt lat="14.41395052036773" lon="120.9790169714373"><ele>29.0</ele><time>2026-04-20T06:15:12.002Z</time></trkpt><trkpt lat="14.413848159001619" lon="120.97904198255453"><ele>29.0</ele><time>2026-04-20T06:15:14.002Z</time></trkpt><trkpt lat="14.413778735856372" lon="120.97906768659733"><ele>28.833333333333332</ele><time>2026-04-20T06:15:17.002Z</time></trkpt><trkpt lat="14.413740914628397" lon="120.97914737868545"><ele>28.666666666666664</ele><time>2026-04-20T06:15:19.002Z</time></trkpt><trkpt lat="14.413779359831704" lon="120.97924936398056"><ele>28.5</ele><time>2026-04-20T06:15:22Z</time></trkpt><trkpt lat="14.413793954823365" lon="120.97932122228374"><ele>28.333333333333336</ele><time>2026-04-20T06:15:23Z</time></trkpt><trkpt lat="14.413808787835627" lon="120.97941392897079"><ele>28.166666666666668</ele><time>2026-04-20T06:15:24Z</time></trkpt><trkpt lat="14.413823425813783" lon="120.97950753366847"><ele>28.0</ele><time>2026-04-20T06:15:25Z</time></trkpt><trkpt lat="14.413838297490424" lon="120.97960739068067"><ele>28.000000000000004</ele><time>2026-04-20T06:15:26Z</time></trkpt><trkpt lat="14.413853381739578" lon="120.97970629071396"><ele>28.0</ele><time>2026-04-20T06:15:27Z</time></trkpt><trkpt lat="14.413871210665393" lon="120.97980304564268"><ele>28.0</ele><time>2026-04-20T06:15:28Z</time></trkpt><trkpt lat="14.413887722739503" lon="120.97989501537053"><ele>28.0</ele><time>2026-04-20T06:15:29Z</time></trkpt><trkpt lat="14.413903754649912" lon="120.97998071893522"><ele>28.000000000000004</ele><time>2026-04-20T06:15:30Z</time></trkpt><trkpt lat="14.413918296112396" lon="120.98006078519666"><ele>28.0</ele><time>2026-04-20T06:15:31Z</time></trkpt><trkpt lat="14.413931963461726" lon="120.9801437109675"><ele>28.000000000000004</ele><time>2026-04-20T06:15:32Z</time></trkpt><trkpt lat="14.413945332544953" lon="120.9802119788112"><ele>28.0</ele><time>2026-04-20T06:15:33Z</time></trkpt><trkpt lat="14.413959440905204" lon="120.98032439790475"><ele>28.0</ele><time>2026-04-20T06:15:35Z</time></trkpt><trkpt lat="14.413977387379024" lon="120.98040323348808"><ele>28.0</ele><time>2026-04-20T06:15:38Z</time></trkpt><trkpt lat="14.413997622751573" lon="120.98049510779755"><ele>28.000000000000004</ele><time>2026-04-20T06:15:41Z</time></trkpt><trkpt lat="14.41401703710703" lon="120.98059552082839"><ele>28.0</ele><time>2026-04-20T06:15:43.001Z</time></trkpt><trkpt lat="14.414025015223979" lon="120.98066250956178"><ele>28.000000000000004</ele><time>2026-04-20T06:15:44.001Z</time></trkpt><trkpt lat="14.414041786551389" lon="120.98073529527873"><ele>28.0</ele><time>2026-04-20T06:15:45.001Z</time></trkpt><trkpt lat="14.414056409102763" lon="120.98081083972572"><ele>28.0</ele><time>2026-04-20T06:15:46.001Z</time></trkpt><trkpt lat="14.41407766415491" lon="120.98090217216206"><ele>28.0</ele><time>2026-04-20T06:15:47.001Z</time></trkpt><trkpt lat="14.414099155942697" lon="120.98100152935956"><ele>28.000000000000004</ele><time>2026-04-20T06:15:48.001Z</time></trkpt><trkpt lat="14.41411617201568" lon="120.98110815711702"><ele>28.0</ele><time>2026-04-20T06:15:49.001Z</time></trkpt><trkpt lat="14.414128004492378" lon="120.98122080944404"><ele>28.000000000000004</ele><time>2026-04-20T06:15:50.001Z</time></trkpt><trkpt lat="14.414138535407945" lon="120.98131820652792"><ele>28.0</ele><time>2026-04-20T06:15:51.001Z</time></trkpt><trkpt lat="14.414151796267598" lon="120.98140655394596"><ele>28.0</ele><time>2026-04-20T06:15:52.001Z</time></trkpt><trkpt lat="14.414164275291139" lon="120.98148907475513"><ele>28.0</ele><time>2026-04-20T06:15:53.001Z</time></trkpt><trkpt lat="14.414178161357892" lon="120.9815723288186"><ele>28.000000000000004</ele><time>2026-04-20T06:15:54.001Z</time></trkpt><trkpt lat="14.414187703333551" lon="120.98165508406032"><ele>28.0</ele><time>2026-04-20T06:15:55.001Z</time></trkpt><trkpt lat="14.41420327853127" lon="120.98174107074476"><ele>28.000000000000004</ele><time>2026-04-20T06:15:56.001Z</time></trkpt><trkpt lat="14.41421944551172" lon="120.98181768128501"><ele>28.0</ele><time>2026-04-20T06:15:57.001Z</time></trkpt><trkpt lat="14.414234695259358" lon="120.98188652396846"><ele>28.0</ele><time>2026-04-20T06:15:58.001Z</time></trkpt><trkpt lat="14.41426016316424" lon="120.98200784440542"><ele>28.0</ele><time>2026-04-20T06:16:00.001Z</time></trkpt><trkpt lat="14.414272455408241" lon="120.98211926764145"><ele>28.000000000000004</ele><time>2026-04-20T06:16:02.001Z</time></trkpt><trkpt lat="14.414279556688859" lon="120.98219224939045"><ele>28.0</ele><time>2026-04-20T06:16:05.001Z</time></trkpt><trkpt lat="14.414232747382853" lon="120.98227076414719"><ele>28.0</ele><time>2026-04-20T06:16:08.001Z</time></trkpt><trkpt lat="14.41416657953064" lon="120.98226874803495"><ele>28.0</ele><time>2026-04-20T06:16:10.001Z</time></trkpt><trkpt lat="14.414091760082263" lon="120.98228320255531"><ele>28.0</ele><time>2026-04-20T06:16:13.001Z</time></trkpt><trkpt lat="14.414025490660459" lon="120.98230108422673"><ele>28.0</ele><time>2026-04-20T06:16:15.001Z</time></trkpt><trkpt lat="14.41393713192011" lon="120.98231958666699"><ele>28.0</ele><time>2026-04-20T06:16:17.001Z</time></trkpt><trkpt lat="14.413896428661909" lon="120.98226353700709"><ele>28.0</ele><time>2026-04-20T06:16:21.001Z</time></trkpt><trkpt lat="14.41388226074292" lon="120.98218244582515"><ele>28.0</ele><time>2026-04-20T06:16:24.001Z</time></trkpt><trkpt lat="14.413874385115756" lon="120.98210097574689"><ele>28.0</ele><time>2026-04-20T06:16:26.001Z</time></trkpt><trkpt lat="14.413868284240694" lon="120.98202234425798"><ele>27.999999999999996</ele><time>2026-04-20T06:16:28.001Z</time></trkpt><trkpt lat="14.413852915400945" lon="120.98195732608357"><ele>27.999999999999996</ele><time>2026-04-20T06:16:30.001Z</time></trkpt><trkpt lat="14.41375845000062" lon="120.9819325685642"><ele>28.0</ele><time>2026-04-20T06:16:33.001Z</time></trkpt><trkpt lat="14.413653747600186" lon="120.98196062828109"><ele>28.0</ele><time>2026-04-20T06:16:35.001Z</time></trkpt><trkpt lat="14.4135464870333" lon="120.98197795777928"><ele>28.000000000000004</ele><time>2026-04-20T06:16:37.002Z</time></trkpt><trkpt lat="14.413459898553873" lon="120.98199762996511"><ele>28.0</ele><time>2026-04-20T06:16:39.002Z</time></trkpt><trkpt lat="14.41337251048872" lon="120.98202106230394"><ele>28.0</ele><time>2026-04-20T06:16:41.002Z</time></trkpt><trkpt lat="14.413290071636155" lon="120.98203281222098"><ele>28.0</ele><time>2026-04-20T06:16:43.002Z</time></trkpt><trkpt lat="14.413180123575104" lon="120.98202671156308"><ele>28.000000000000004</ele><time>2026-04-20T06:16:45.002Z</time></trkpt><trkpt lat="14.413107746995967" lon="120.98200844239554"><ele>28.0</ele><time>2026-04-20T06:16:47.002Z</time></trkpt><trkpt lat="14.413031460661509" lon="120.9819745617526"><ele>28.799999999999997</ele><time>2026-04-20T06:16:49.002Z</time></trkpt><trkpt lat="14.412958435869967" lon="120.98193354414491"><ele>29.599999999999998</ele><time>2026-04-20T06:16:51.002Z</time></trkpt><trkpt lat="14.412871645134468" lon="120.98189282862153"><ele>30.400000000000002</ele><time>2026-04-20T06:16:53.002Z</time></trkpt><trkpt lat="14.412814423127479" lon="120.98185607415574"><ele>31.200000000000003</ele><time>2026-04-20T06:16:54.002Z</time></trkpt><trkpt lat="14.412705061577212" lon="120.98179310872858"><ele>32.0</ele><time>2026-04-20T06:16:56.002Z</time></trkpt><trkpt lat="14.412597232378884" lon="120.98173827567484"><ele>31.999999999999996</ele><time>2026-04-20T06:16:58.002Z</time></trkpt><trkpt lat="14.412538233034669" lon="120.98170900929709"><ele>32.0</ele><time>2026-04-20T06:16:59.002Z</time></trkpt><trkpt lat="14.412441292577837" lon="120.98165979913169"><ele>32.0</ele><time>2026-04-20T06:17:01.002Z</time></trkpt><trkpt lat="14.412368317489241" lon="120.98162476530354"><ele>32.0</ele><time>2026-04-20T06:17:03.002Z</time></trkpt><trkpt lat="14.41229910860337" lon="120.98164616994788"><ele>31.999999999999996</ele><time>2026-04-20T06:17:07.002Z</time></trkpt><trkpt lat="14.412252384654415" lon="120.98175350688012"><ele>32.0</ele><time>2026-04-20T06:17:09.002Z</time></trkpt><trkpt lat="14.412205597375763" lon="120.98183728068652"><ele>32.0</ele><time>2026-04-20T06:17:11.002Z</time></trkpt><trkpt lat="14.412175233303415" lon="120.98190857477798"><ele>32.0</ele><time>2026-04-20T06:17:13.002Z</time></trkpt><trkpt lat="14.412239839941432" lon="120.98199557931527"><ele>32.0</ele><time>2026-04-20T06:17:17.002Z</time></trkpt><trkpt lat="14.412348489831368" lon="120.98204118781833"><ele>32.0</ele><time>2026-04-20T06:17:19.002Z</time></trkpt><trkpt lat="14.412433780756635" lon="120.98207817765802"><ele>32.0</ele><time>2026-04-20T06:17:21.002Z</time></trkpt><trkpt lat="14.412533950412326" lon="120.98212246488656"><ele>32.0</ele><time>2026-04-20T06:17:23.002Z</time></trkpt><trkpt lat="14.412640924762771" lon="120.98217448647443"><ele>32.0</ele><time>2026-04-20T06:17:25.002Z</time></trkpt><trkpt lat="14.412707956385015" lon="120.98221897711181"><ele>32.0</ele><time>2026-04-20T06:17:27Z</time></trkpt><trkpt lat="14.412799221111293" lon="120.98226699979992"><ele>32.0</ele><time>2026-04-20T06:17:29Z</time></trkpt><trkpt lat="14.412882302520236" lon="120.98231302472563"><ele>32.0</ele><time>2026-04-20T06:17:31Z</time></trkpt><trkpt lat="14.412946116812332" lon="120.98235249005347"><ele>32.0</ele><time>2026-04-20T06:17:33Z</time></trkpt><trkpt lat="14.412974735730144" lon="120.98242572634511"><ele>32.0</ele><time>2026-04-20T06:17:36Z</time></trkpt><trkpt lat="14.412918273362319" lon="120.98251049376711"><ele>32.0</ele><time>2026-04-20T06:17:38Z</time></trkpt><trkpt lat="14.412876000380848" lon="120.98260669026249"><ele>32.0</ele><time>2026-04-20T06:17:40Z</time></trkpt><trkpt lat="14.412846153669072" lon="120.98270059811053"><ele>32.0</ele><time>2026-04-20T06:17:42Z</time></trkpt><trkpt lat="14.412807184532156" lon="120.98279531636483"><ele>31.400000000000002</ele><time>2026-04-20T06:17:44Z</time></trkpt><trkpt lat="14.412748651700804" lon="120.98291258024754"><ele>30.800000000000004</ele><time>2026-04-20T06:17:46Z</time></trkpt><trkpt lat="14.412712158206453" lon="120.98300703160332"><ele>30.2</ele><time>2026-04-20T06:17:48Z</time></trkpt><trkpt lat="14.412679028074402" lon="120.98310012696723"><ele>29.6</ele><time>2026-04-20T06:17:50Z</time></trkpt><trkpt lat="14.412636244226" lon="120.98318531004763"><ele>29.0</ele><time>2026-04-20T06:17:52Z</time></trkpt><trkpt lat="14.412609118533286" lon="120.98327024530884"><ele>29.499999999999996</ele><time>2026-04-20T06:17:54Z</time></trkpt><trkpt lat="14.412587448926484" lon="120.98335907777877"><ele>30.0</ele><time>2026-04-20T06:17:56.001Z</time></trkpt><trkpt lat="14.412567389204888" lon="120.98344139605219"><ele>30.5</ele><time>2026-04-20T06:17:58.001Z</time></trkpt><trkpt lat="14.412552216377346" lon="120.98352305448417"><ele>31.0</ele><time>2026-04-20T06:18:00.001Z</time></trkpt><trkpt lat="14.412534319391831" lon="120.98360866164809"><ele>31.499999999999996</ele><time>2026-04-20T06:18:02.001Z</time></trkpt><trkpt lat="14.412524293005703" lon="120.98369310649431"><ele>32.0</ele><time>2026-04-20T06:18:04.001Z</time></trkpt><trkpt lat="14.412511673076366" lon="120.98379093622246"><ele>31.999999999999996</ele><time>2026-04-20T06:18:06.001Z</time></trkpt><trkpt lat="14.41249583941937" lon="120.98388435298104"><ele>32.0</ele><time>2026-04-20T06:18:08.001Z</time></trkpt><trkpt lat="14.412480343459094" lon="120.98396022167076"><ele>32.0</ele><time>2026-04-20T06:18:10.001Z</time></trkpt><trkpt lat="14.412478138368009" lon="120.98403545030777"><ele>32.0</ele><time>2026-04-20T06:18:13.001Z</time></trkpt><trkpt lat="14.412454490137252" lon="120.98410958548556"><ele>31.999999999999996</ele><time>2026-04-20T06:18:17.001Z</time></trkpt><trkpt lat="14.412434562817973" lon="120.98418805649474"><ele>32.0</ele><time>2026-04-20T06:18:21.001Z</time></trkpt><trkpt lat="14.412430021882734" lon="120.98427051601927"><ele>32.33333333333333</ele><time>2026-04-20T06:18:23.001Z</time></trkpt><trkpt lat="14.412414898788056" lon="120.98435073380651"><ele>32.666666666666664</ele><time>2026-04-20T06:18:25.001Z</time></trkpt><trkpt lat="14.412440858164054" lon="120.98441033173025"><ele>33.0</ele><time>2026-04-20T06:18:27.001Z</time></trkpt><trkpt lat="14.412519034827973" lon="120.98442310207119"><ele>33.333333333333336</ele><time>2026-04-20T06:18:30.001Z</time></trkpt><trkpt lat="14.412418596047061" lon="120.98435566678029"><ele>33.66666666666667</ele><time>2026-04-20T06:18:53.002Z</time></trkpt><trkpt lat="14.412410873122008" lon="120.9842627434823"><ele>34.0</ele><time>2026-04-20T06:18:56.002Z</time></trkpt><trkpt lat="14.412434075856767" lon="120.98418147607845"><ele>33.857142857142854</ele><time>2026-04-20T06:18:59.002Z</time></trkpt><trkpt lat="14.412455197763773" lon="120.98411992202027"><ele>33.714285714285715</ele><time>2026-04-20T06:19:02.002Z</time></trkpt><trkpt lat="14.412421136482852" lon="120.98405722496783"><ele>33.57142857142857</ele><time>2026-04-20T06:19:06.002Z</time></trkpt><trkpt lat="14.412340019384336" lon="120.9840323982743"><ele>33.42857142857143</ele><time>2026-04-20T06:19:08.002Z</time></trkpt><trkpt lat="14.412265378507227" lon="120.98402150383421"><ele>33.285714285714285</ele><time>2026-04-20T06:19:10.002Z</time></trkpt><trkpt lat="14.412199993636776" lon="120.98396337440116"><ele>33.14285714285714</ele><time>2026-04-20T06:19:13.002Z</time></trkpt><trkpt lat="14.412139397194702" lon="120.98394090465223"><ele>33.0</ele><time>2026-04-20T06:19:23.002Z</time></trkpt><trkpt lat="14.412075864627889" lon="120.98393268196833"><ele>33.0</ele><time>2026-04-20T06:21:46Z</time></trkpt><trkpt lat="14.4119891932497" lon="120.98388720365492"><ele>33.0</ele><time>2026-04-20T06:21:49Z</time></trkpt><trkpt lat="14.411921526646783" lon="120.98384412703709"><ele>33.0</ele><time>2026-04-20T06:21:51Z</time></trkpt><trkpt lat="14.411844073492245" lon="120.9838022308519"><ele>33.0</ele><time>2026-04-20T06:21:53Z</time></trkpt><trkpt lat="14.411748237237825" lon="120.98376090221797"><ele>33.0</ele><time>2026-04-20T06:21:55Z</time></trkpt><trkpt lat="14.411659650596771" lon="120.98371995125312"><ele>33.0</ele><time>2026-04-20T06:21:57Z</time></trkpt><trkpt lat="14.411602534025441" lon="120.98368910869104"><ele>33.0</ele><time>2026-04-20T06:21:59Z</time></trkpt><trkpt lat="14.41150759289149" lon="120.98364845483125"><ele>33.0</ele><time>2026-04-20T06:22:04Z</time></trkpt><trkpt lat="14.41141452641725" lon="120.98358848112294"><ele>33.0</ele><time>2026-04-20T06:22:06Z</time></trkpt><trkpt lat="14.41131272262172" lon="120.98354001490368"><ele>33.0</ele><time>2026-04-20T06:22:08.001Z</time></trkpt><trkpt lat="14.411218536746603" lon="120.98349282164996"><ele>33.0</ele><time>2026-04-20T06:22:10.001Z</time></trkpt><trkpt lat="14.411147847459578" lon="120.9834520496654"><ele>33.0</ele><time>2026-04-20T06:22:12.001Z</time></trkpt><trkpt lat="14.411085941392448" lon="120.98341953113048"><ele>33.0</ele><time>2026-04-20T06:22:14.001Z</time></trkpt><trkpt lat="14.411049752744113" lon="120.98336159020153"><ele>33.0</ele><time>2026-04-20T06:22:17.001Z</time></trkpt><trkpt lat="14.411083859809533" lon="120.9832911669357"><ele>33.0</ele><time>2026-04-20T06:22:19.001Z</time></trkpt><trkpt lat="14.41112102553291" lon="120.98321496246703"><ele>33.0</ele><time>2026-04-20T06:22:21.001Z</time></trkpt><trkpt lat="14.411163018702549" lon="120.98312601773722"><ele>33.0</ele><time>2026-04-20T06:22:25.001Z</time></trkpt><trkpt lat="14.411203885592881" lon="120.98303574018084"><ele>33.0</ele><time>2026-04-20T06:22:27.001Z</time></trkpt><trkpt lat="14.411250042170906" lon="120.98293423706198"><ele>33.0</ele><time>2026-04-20T06:22:29.001Z</time></trkpt><trkpt lat="14.411281454542973" lon="120.98287657925418"><ele>33.0</ele><time>2026-04-20T06:22:30.001Z</time></trkpt><trkpt lat="14.411329186649482" lon="120.98278403298892"><ele>33.0</ele><time>2026-04-20T06:22:32.001Z</time></trkpt><trkpt lat="14.411365112459077" lon="120.98270397134034"><ele>32.8</ele><time>2026-04-20T06:22:34.001Z</time></trkpt><trkpt lat="14.411392667847133" lon="120.98263936020533"><ele>32.599999999999994</ele><time>2026-04-20T06:22:38.001Z</time></trkpt><trkpt lat="14.4114372163462" lon="120.98255168588226"><ele>32.400000000000006</ele><time>2026-04-20T06:22:40.001Z</time></trkpt><trkpt lat="14.41149139496904" lon="120.98243230351507"><ele>32.2</ele><time>2026-04-20T06:22:42.001Z</time></trkpt><trkpt lat="14.411550843989719" lon="120.98232326663512"><ele>32.0</ele><time>2026-04-20T06:22:44.001Z</time></trkpt><trkpt lat="14.411598732563483" lon="120.98222004651473"><ele>31.999999999999996</ele><time>2026-04-20T06:22:46.001Z</time></trkpt><trkpt lat="14.41162634845872" lon="120.98214633818682"><ele>32.0</ele><time>2026-04-20T06:22:47.001Z</time></trkpt><trkpt lat="14.411669581647198" lon="120.98205773168065"><ele>32.0</ele><time>2026-04-20T06:22:49.001Z</time></trkpt><trkpt lat="14.411716237727168" lon="120.98195833787423"><ele>32.0</ele><time>2026-04-20T06:22:51.001Z</time></trkpt><trkpt lat="14.411739080162217" lon="120.98186805064704"><ele>31.999999999999996</ele><time>2026-04-20T06:22:53.001Z</time></trkpt><trkpt lat="14.411785101976548" lon="120.98180433318856"><ele>32.0</ele><time>2026-04-20T06:22:57.002Z</time></trkpt><trkpt lat="14.411823811577973" lon="120.98172794314829"><ele>31.8</ele><time>2026-04-20T06:22:59.002Z</time></trkpt><trkpt lat="14.411879381528193" lon="120.98162925573457"><ele>31.6</ele><time>2026-04-20T06:23:01.002Z</time></trkpt><trkpt lat="14.411930429162906" lon="120.9815298303209"><ele>31.400000000000002</ele><time>2026-04-20T06:23:03.002Z</time></trkpt><trkpt lat="14.411979496497084" lon="120.98142303174497"><ele>31.200000000000003</ele><time>2026-04-20T06:23:05.002Z</time></trkpt><trkpt lat="14.412004911412286" lon="120.98136148549055"><ele>31.0</ele><time>2026-04-20T06:23:06.002Z</time></trkpt><trkpt lat="14.412040872003164" lon="120.98129674113844"><ele>31.0</ele><time>2026-04-20T06:23:07.002Z</time></trkpt><trkpt lat="14.412080419822834" lon="120.98122779973184"><ele>31.0</ele><time>2026-04-20T06:23:08.002Z</time></trkpt><trkpt lat="14.412114615493694" lon="120.98115613096525"><ele>31.0</ele><time>2026-04-20T06:23:09.002Z</time></trkpt><trkpt lat="14.412144556113693" lon="120.98109662729074"><ele>31.0</ele><time>2026-04-20T06:23:10.002Z</time></trkpt><trkpt lat="14.412202708434112" lon="120.9809896931994"><ele>31.0</ele><time>2026-04-20T06:23:12.002Z</time></trkpt><trkpt lat="14.412271055361707" lon="120.98089655934257"><ele>31.0</ele><time>2026-04-20T06:23:14.002Z</time></trkpt><trkpt lat="14.412321192623267" lon="120.98085605427279"><ele>31.0</ele><time>2026-04-20T06:23:16.002Z</time></trkpt><trkpt lat="14.412369101671977" lon="120.9808117089906"><ele>31.0</ele><time>2026-04-20T06:23:20.002Z</time></trkpt><trkpt lat="14.412436643065444" lon="120.98074653286055"><ele>31.0</ele><time>2026-04-20T06:23:23.002Z</time></trkpt><trkpt lat="14.412533883845148" lon="120.98068404268723"><ele>31.0</ele><time>2026-04-20T06:23:25.002Z</time></trkpt><trkpt lat="14.412643523389267" lon="120.9806479956862"><ele>31.000000000000004</ele><time>2026-04-20T06:23:27.002Z</time></trkpt><trkpt lat="14.412706332831656" lon="120.98062965067973"><ele>31.0</ele><time>2026-04-20T06:23:28.002Z</time></trkpt><trkpt lat="14.412782285419643" lon="120.98060608624314"><ele>31.0</ele><time>2026-04-20T06:23:29.002Z</time></trkpt><trkpt lat="14.4128479410034" lon="120.98059014106376"><ele>31.0</ele><time>2026-04-20T06:23:30.002Z</time></trkpt><trkpt lat="14.412970163720288" lon="120.98058726106866"><ele>31.000000000000004</ele><time>2026-04-20T06:23:32.002Z</time></trkpt><trkpt lat="14.413034170943915" lon="120.98056627677964"><ele>31.0</ele><time>2026-04-20T06:23:33.002Z</time></trkpt><trkpt lat="14.413135866776445" lon="120.98054421626476"><ele>30.8</ele><time>2026-04-20T06:23:35.002Z</time></trkpt><trkpt lat="14.41323390476348" lon="120.98052779771058"><ele>30.6</ele><time>2026-04-20T06:23:37.002Z</time></trkpt><trkpt lat="14.413347300941552" lon="120.98050123727867"><ele>30.4</ele><time>2026-04-20T06:23:39.002Z</time></trkpt><trkpt lat="14.413460771143098" lon="120.98048155486417"><ele>30.2</ele><time>2026-04-20T06:23:41.002Z</time></trkpt><trkpt lat="14.413535428429144" lon="120.98046551519748"><ele>30.0</ele><time>2026-04-20T06:23:43.003Z</time></trkpt><trkpt lat="14.413627166547593" lon="120.98046145506119"><ele>30.0</ele><time>2026-04-20T06:23:46Z</time></trkpt><trkpt lat="14.413715872254" lon="120.98044788551262"><ele>30.0</ele><time>2026-04-20T06:23:48Z</time></trkpt><trkpt lat="14.413809155703913" lon="120.98042367881816"><ele>30.0</ele><time>2026-04-20T06:23:50Z</time></trkpt><trkpt lat="14.413890593866364" lon="120.98040124401436"><ele>30.0</ele><time>2026-04-20T06:23:52Z</time></trkpt><trkpt lat="14.413950842192152" lon="120.98032813447622"><ele>30.0</ele><time>2026-04-20T06:23:57Z</time></trkpt><trkpt lat="14.413925655786795" lon="120.98021338151194"><ele>29.666666666666668</ele><time>2026-04-20T06:23:59Z</time></trkpt><trkpt lat="14.413908853943727" lon="120.98009406029028"><ele>29.333333333333336</ele><time>2026-04-20T06:24:01Z</time></trkpt><trkpt lat="14.413899332186308" lon="120.98002663420114"><ele>29.0</ele><time>2026-04-20T06:24:02Z</time></trkpt><trkpt lat="14.413884645584574" lon="120.97996217473415"><ele>28.666666666666668</ele><time>2026-04-20T06:24:03Z</time></trkpt><trkpt lat="14.413876905247573" lon="120.97989013359359"><ele>28.333333333333336</ele><time>2026-04-20T06:24:04Z</time></trkpt><trkpt lat="14.413863064556375" lon="120.97982421207998"><ele>28.0</ele><time>2026-04-20T06:24:05.001Z</time></trkpt><trkpt lat="14.413839098815227" lon="120.97969968791445"><ele>28.0</ele><time>2026-04-20T06:24:07.001Z</time></trkpt><trkpt lat="14.413818417684023" lon="120.97957821602637"><ele>27.999999999999996</ele><time>2026-04-20T06:24:09.001Z</time></trkpt><trkpt lat="14.413801792207854" lon="120.97947384737283"><ele>27.999999999999996</ele><time>2026-04-20T06:24:11.001Z</time></trkpt><trkpt lat="14.413792237545566" lon="120.97938983819817"><ele>28.0</ele><time>2026-04-20T06:24:13.001Z</time></trkpt><trkpt lat="14.413777427946192" lon="120.97931245195149"><ele>28.0</ele><time>2026-04-20T06:24:16.001Z</time></trkpt><trkpt lat="14.413767256311834" lon="120.97922988999376"><ele>28.142857142857142</ele><time>2026-04-20T06:24:24.001Z</time></trkpt><trkpt lat="14.413758275099381" lon="120.97915850693201"><ele>28.285714285714285</ele><time>2026-04-20T06:24:28.001Z</time></trkpt><trkpt lat="14.413762778582315" lon="120.97907364122395"><ele>28.42857142857143</ele><time>2026-04-20T06:24:33.001Z</time></trkpt><trkpt lat="14.413824726365709" lon="120.9790560156549"><ele>28.571428571428573</ele><time>2026-04-20T06:24:36.001Z</time></trkpt><trkpt lat="14.413921018371642" lon="120.97902602421051"><ele>28.714285714285715</ele><time>2026-04-20T06:24:39.001Z</time></trkpt><trkpt lat="14.413982677233609" lon="120.97900275446976"><ele>28.85714285714286</ele><time>2026-04-20T06:24:41.001Z</time></trkpt><trkpt lat="14.414025656610699" lon="120.97895135609035"><ele>29.000000000000004</ele><time>2026-04-20T06:24:45.001Z</time></trkpt><trkpt lat="14.414022799075155" lon="120.97887382272874"><ele>28.999999999999996</ele><time>2026-04-20T06:24:48.001Z</time></trkpt><trkpt lat="14.414002680356047" lon="120.9787997965003"><ele>29.0</ele><time>2026-04-20T06:24:50.001Z</time></trkpt><trkpt lat="14.41398431684279" lon="120.97871015822048"><ele>29.0</ele><time>2026-04-20T06:24:52.001Z</time></trkpt><trkpt lat="14.413971096730343" lon="120.97862611508302"><ele>29.0</ele><time>2026-04-20T06:24:54.001Z</time></trkpt><trkpt lat="14.413954400368436" lon="120.97853713468791"><ele>28.999999999999996</ele><time>2026-04-20T06:24:56.001Z</time></trkpt><trkpt lat="14.413937642728566" lon="120.97844928642132"><ele>29.0</ele><time>2026-04-20T06:24:58.002Z</time></trkpt><trkpt lat="14.413925839511675" lon="120.9783828720633"><ele>28.6</ele><time>2026-04-20T06:25:01.002Z</time></trkpt><trkpt lat="14.413908439727452" lon="120.97827027165613"><ele>28.2</ele><time>2026-04-20T06:25:03.002Z</time></trkpt><trkpt lat="14.413885736368314" lon="120.97815351955272"><ele>27.800000000000004</ele><time>2026-04-20T06:25:05.002Z</time></trkpt><trkpt lat="14.413868607377944" lon="120.97806261785225"><ele>27.400000000000002</ele><time>2026-04-20T06:25:07.002Z</time></trkpt><trkpt lat="14.41385839002041" lon="120.97799506119593"><ele>27.0</ele><time>2026-04-20T06:25:09.002Z</time></trkpt><trkpt lat="14.413844596977052" lon="120.97790870165645"><ele>27.0</ele><time>2026-04-20T06:25:11.002Z</time></trkpt><trkpt lat="14.413826319868237" lon="120.97779346705168"><ele>27.000000000000004</ele><time>2026-04-20T06:25:13.002Z</time></trkpt><trkpt lat="14.413804101905853" lon="120.97767262260562"><ele>27.000000000000004</ele><time>2026-04-20T06:25:15.002Z</time></trkpt><trkpt lat="14.413781195595632" lon="120.97756144997933"><ele>27.0</ele><time>2026-04-20T06:25:17.002Z</time></trkpt><trkpt lat="14.413766401736428" lon="120.97748161755662"><ele>27.0</ele><time>2026-04-20T06:25:19.002Z</time></trkpt><trkpt lat="14.413754687488622" lon="120.97741750677673"><ele>26.0</ele><time>2026-04-20T06:25:21.002Z</time></trkpt><trkpt lat="14.413738538199663" lon="120.97732509305274"><ele>25.000000000000004</ele><time>2026-04-20T06:25:23.002Z</time></trkpt><trkpt lat="14.413724303493934" lon="120.97722215286477"><ele>24.0</ele><time>2026-04-20T06:25:25.002Z</time></trkpt><trkpt lat="14.41370350129344" lon="120.97711369498106"><ele>23.0</ele><time>2026-04-20T06:25:27.002Z</time></trkpt><trkpt lat="14.413703536910118" lon="120.97702338114517"><ele>22.0</ele><time>2026-04-20T06:25:29.002Z</time></trkpt><trkpt lat="14.41371495624092" lon="120.97691422630712"><ele>22.0</ele><time>2026-04-20T06:25:31.002Z</time></trkpt><trkpt lat="14.413728216125518" lon="120.97685028129607"><ele>22.0</ele><time>2026-04-20T06:25:32.002Z</time></trkpt><trkpt lat="14.41376921791245" lon="120.9767571453154"><ele>22.0</ele><time>2026-04-20T06:25:34.002Z</time></trkpt><trkpt lat="14.413808752867515" lon="120.97666222638964"><ele>22.0</ele><time>2026-04-20T06:25:36.002Z</time></trkpt><trkpt lat="14.41389309955165" lon="120.97660930240862"><ele>22.0</ele><time>2026-04-20T06:25:38.002Z</time></trkpt><trkpt lat="14.414009773520196" lon="120.9765855111527"><ele>22.0</ele><time>2026-04-20T06:25:40.002Z</time></trkpt><trkpt lat="14.41411567230624" lon="120.9765555648971"><ele>22.0</ele><time>2026-04-20T06:25:42.002Z</time></trkpt><trkpt lat="14.414214457170099" lon="120.97653053671117"><ele>22.0</ele><time>2026-04-20T06:25:44.002Z</time></trkpt><trkpt lat="14.414301888272579" lon="120.97650946909393"><ele>22.0</ele><time>2026-04-20T06:25:46.003Z</time></trkpt><trkpt lat="14.414413875425724" lon="120.97648224432112"><ele>22.0</ele><time>2026-04-20T06:25:48.003Z</time></trkpt><trkpt lat="14.414530909858312" lon="120.97645020511065"><ele>22.0</ele><time>2026-04-20T06:25:50.003Z</time></trkpt><trkpt lat="14.414596658400205" lon="120.9764317532837"><ele>22.0</ele><time>2026-04-20T06:25:51Z</time></trkpt><trkpt lat="14.414714424042229" lon="120.97640055840257"><ele>22.0</ele><time>2026-04-20T06:25:53Z</time></trkpt><trkpt lat="14.414815632056614" lon="120.97637175721624"><ele>22.0</ele><time>2026-04-20T06:25:55Z</time></trkpt><trkpt lat="14.41490119008522" lon="120.97635143549921"><ele>22.0</ele><time>2026-04-20T06:25:57Z</time></trkpt><trkpt lat="14.414972851222025" lon="120.97633163004592"><ele>22.0</ele><time>2026-04-20T06:25:59Z</time></trkpt><trkpt lat="14.415048470459197" lon="120.97630986217625"><ele>22.0</ele><time>2026-04-20T06:26:02Z</time></trkpt><trkpt lat="14.415141001140087" lon="120.9762856380535"><ele>22.0</ele><time>2026-04-20T06:26:04Z</time></trkpt><trkpt lat="14.415251832067849" lon="120.97626244197882"><ele>22.0</ele><time>2026-04-20T06:26:06Z</time></trkpt><trkpt lat="14.415354689189789" lon="120.97625600560526"><ele>22.0</ele><time>2026-04-20T06:26:08Z</time></trkpt><trkpt lat="14.415450496470323" lon="120.97625786819832"><ele>22.200000000000003</ele><time>2026-04-20T06:26:10Z</time></trkpt><trkpt lat="14.415537903506968" lon="120.97626547252831"><ele>22.4</ele><time>2026-04-20T06:26:12Z</time></trkpt><trkpt lat="14.415626344236784" lon="120.97627612137599"><ele>22.6</ele><time>2026-04-20T06:26:14Z</time></trkpt><trkpt lat="14.415732870576994" lon="120.97628523734866"><ele>22.799999999999997</ele><time>2026-04-20T06:26:16Z</time></trkpt><trkpt lat="14.415842346088285" lon="120.97629318306457"><ele>23.0</ele><time>2026-04-20T06:26:18.001Z</time></trkpt><trkpt lat="14.415964707186339" lon="120.97630352534152"><ele>23.0</ele><time>2026-04-20T06:26:20.001Z</time></trkpt><trkpt lat="14.416027673902322" lon="120.97630976349464"><ele>23.0</ele><time>2026-04-20T06:26:21.001Z</time></trkpt><trkpt lat="14.416091913081925" lon="120.97631696077285"><ele>23.0</ele><time>2026-04-20T06:26:22.001Z</time></trkpt><trkpt lat="14.416161048357772" lon="120.97632514172389"><ele>23.0</ele><time>2026-04-20T06:26:23.001Z</time></trkpt><trkpt lat="14.416227986388764" lon="120.97633693525282"><ele>23.0</ele><time>2026-04-20T06:26:24.001Z</time></trkpt><trkpt lat="14.416292720391448" lon="120.97633119021458"><ele>23.0</ele><time>2026-04-20T06:26:25.001Z</time></trkpt><trkpt lat="14.416400762627818" lon="120.97633555861243"><ele>23.0</ele><time>2026-04-20T06:26:27.001Z</time></trkpt><trkpt lat="14.41652009624449" lon="120.97634653740894"><ele>23.142857142857142</ele><time>2026-04-20T06:26:29.001Z</time></trkpt><trkpt lat="14.416585264544937" lon="120.97635091736181"><ele>23.285714285714285</ele><time>2026-04-20T06:26:30.001Z</time></trkpt><trkpt lat="14.416651330061864" lon="120.97635443647"><ele>23.428571428571427</ele><time>2026-04-20T06:26:31.001Z</time></trkpt><trkpt lat="14.416717846309881" lon="120.97635815348283"><ele>23.57142857142857</ele><time>2026-04-20T06:26:32.001Z</time></trkpt><trkpt lat="14.416783244683439" lon="120.97636579402551"><ele>23.714285714285715</ele><time>2026-04-20T06:26:33.001Z</time></trkpt><trkpt lat="14.41684702826962" lon="120.97637659491365"><ele>23.857142857142854</ele><time>2026-04-20T06:26:34.001Z</time></trkpt><trkpt lat="14.416909641116268" lon="120.97638475265116"><ele>24.0</ele><time>2026-04-20T06:26:35.001Z</time></trkpt><trkpt lat="14.416995731017535" lon="120.97638608191036"><ele>24.0</ele><time>2026-04-20T06:26:37.001Z</time></trkpt><trkpt lat="14.417082150615492" lon="120.97639242481478"><ele>24.0</ele><time>2026-04-20T06:26:39.001Z</time></trkpt><trkpt lat="14.417151064220992" lon="120.9764010061838"><ele>24.0</ele><time>2026-04-20T06:26:41.001Z</time></trkpt><trkpt lat="14.4172194339546" lon="120.97641567379203"><ele>24.0</ele><time>2026-04-20T06:26:43.001Z</time></trkpt><trkpt lat="14.417294261441867" lon="120.97643351936773"><ele>24.0</ele><time>2026-04-20T06:26:46.001Z</time></trkpt><trkpt lat="14.417360525019458" lon="120.97642961974495"><ele>24.0</ele><time>2026-04-20T06:26:49.001Z</time></trkpt><trkpt lat="14.417395900855237" lon="120.97633280373881"><ele>23.799999999999997</ele><time>2026-04-20T06:26:52.001Z</time></trkpt><trkpt lat="14.417385215116946" lon="120.97620235020493"><ele>23.599999999999998</ele><time>2026-04-20T06:26:54.001Z</time></trkpt><trkpt lat="14.41738818848991" lon="120.97610111915866"><ele>23.4</ele><time>2026-04-20T06:26:56.001Z</time></trkpt><trkpt lat="14.417378214569384" lon="120.97601207103864"><ele>23.2</ele><time>2026-04-20T06:26:58.001Z</time></trkpt><trkpt lat="14.417374650868778" lon="120.97593052964852"><ele>23.0</ele><time>2026-04-20T06:27:00.001Z</time></trkpt><trkpt lat="14.417368482097814" lon="120.97581025035312"><ele>22.666666666666668</ele><time>2026-04-20T06:27:02.001Z</time></trkpt><trkpt lat="14.417364395180284" lon="120.97574357756356"><ele>22.333333333333336</ele><time>2026-04-20T06:27:03.001Z</time></trkpt><trkpt lat="14.417353987631161" lon="120.97562823915763"><ele>22.0</ele><time>2026-04-20T06:27:05.002Z</time></trkpt><trkpt lat="14.41734616500121" lon="120.97552639985975"><ele>21.666666666666668</ele><time>2026-04-20T06:27:07.002Z</time></trkpt><trkpt lat="14.41734162098044" lon="120.97544383566914"><ele>21.333333333333332</ele><time>2026-04-20T06:27:09.002Z</time></trkpt><trkpt lat="14.417345594235474" lon="120.97536952370736"><ele>21.0</ele><time>2026-04-20T06:27:11.002Z</time></trkpt><trkpt lat="14.417352862556507" lon="120.97528233825388"><ele>21.0</ele><time>2026-04-20T06:27:13.002Z</time></trkpt><trkpt lat="14.417338332567734" lon="120.97520015036862"><ele>21.0</ele><time>2026-04-20T06:27:31.002Z</time></trkpt><trkpt lat="14.417322469196781" lon="120.97509540395994"><ele>21.0</ele><time>2026-04-20T06:27:33.002Z</time></trkpt><trkpt lat="14.417317567790292" lon="120.9750274838753"><ele>21.0</ele><time>2026-04-20T06:27:34.002Z</time></trkpt><trkpt lat="14.417307888197483" lon="120.97491667262358"><ele>21.0</ele><time>2026-04-20T06:27:36.002Z</time></trkpt><trkpt lat="14.417298506975929" lon="120.97481700491323"><ele>21.333333333333332</ele><time>2026-04-20T06:27:38.002Z</time></trkpt><trkpt lat="14.417303501416772" lon="120.97474225072808"><ele>21.666666666666668</ele><time>2026-04-20T06:27:40.002Z</time></trkpt><trkpt lat="14.417300717809537" lon="120.97467204710934"><ele>22.0</ele><time>2026-04-20T06:27:43.002Z</time></trkpt><trkpt lat="14.417403419929927" lon="120.97462816743085"><ele>22.333333333333336</ele><time>2026-04-20T06:27:46.002Z</time></trkpt><trkpt lat="14.417478440094124" lon="120.97463516140901"><ele>22.666666666666668</ele><time>2026-04-20T06:27:47.002Z</time></trkpt><trkpt lat="14.417552534893675" lon="120.97462886984195"><ele>23.0</ele><time>2026-04-20T06:27:48.002Z</time></trkpt><trkpt lat="14.41762644855005" lon="120.97461769415818"><ele>23.0</ele><time>2026-04-20T06:27:49.002Z</time></trkpt><trkpt lat="14.417694620157716" lon="120.97461199949541"><ele>23.0</ele><time>2026-04-20T06:27:50.002Z</time></trkpt><trkpt lat="14.417802315019376" lon="120.97460940830823"><ele>23.0</ele><time>2026-04-20T06:27:52.002Z</time></trkpt><trkpt lat="14.417928637924959" lon="120.97461416570177"><ele>23.0</ele><time>2026-04-20T06:27:54.003Z</time></trkpt><trkpt lat="14.418002629412362" lon="120.97462775635032"><ele>23.0</ele><time>2026-04-20T06:27:55.003Z</time></trkpt><trkpt lat="14.418092412585363" lon="120.97463775153041"><ele>23.0</ele><time>2026-04-20T06:27:56.003Z</time></trkpt><trkpt lat="14.418184563680004" lon="120.97464556706888"><ele>23.0</ele><time>2026-04-20T06:27:57Z</time></trkpt><trkpt lat="14.418268289181066" lon="120.97465257416638"><ele>23.0</ele><time>2026-04-20T06:27:58Z</time></trkpt><trkpt lat="14.418377561559021" lon="120.97465993179185"><ele>23.0</ele><time>2026-04-20T06:28:00Z</time></trkpt><trkpt lat="14.41849140584642" lon="120.9746657067428"><ele>23.0</ele><time>2026-04-20T06:28:02.001Z</time></trkpt><trkpt lat="14.418570391022419" lon="120.9746724648684"><ele>23.0</ele><time>2026-04-20T06:28:04Z</time></trkpt><trkpt lat="14.418642875644819" lon="120.97468799787839"><ele>23.0</ele><time>2026-04-20T06:28:06Z</time></trkpt><trkpt lat="14.418737678438111" lon="120.97471285044692"><ele>23.0</ele><time>2026-04-20T06:28:08Z</time></trkpt><trkpt lat="14.418814017374352" lon="120.97472008955572"><ele>23.0</ele><time>2026-04-20T06:28:09Z</time></trkpt><trkpt lat="14.418897771147536" lon="120.97472010866703"><ele>23.0</ele><time>2026-04-20T06:28:10Z</time></trkpt><trkpt lat="14.418986712996404" lon="120.97473140676499"><ele>23.0</ele><time>2026-04-20T06:28:11Z</time></trkpt><trkpt lat="14.419084397844097" lon="120.97475808350097"><ele>23.5</ele><time>2026-04-20T06:28:12Z</time></trkpt><trkpt lat="14.419185130292052" lon="120.97479713809858"><ele>24.0</ele><time>2026-04-20T06:28:13.001Z</time></trkpt><trkpt lat="14.41929560983151" lon="120.97483122478268"><ele>24.5</ele><time>2026-04-20T06:28:14.001Z</time></trkpt><trkpt lat="14.419417897445534" lon="120.97487149850801"><ele>25.0</ele><time>2026-04-20T06:28:15.001Z</time></trkpt><trkpt lat="14.41954870936661" lon="120.9749129107716"><ele>25.5</ele><time>2026-04-20T06:28:16.001Z</time></trkpt><trkpt lat="14.419674172351636" lon="120.97495243331103"><ele>26.0</ele><time>2026-04-20T06:28:17.001Z</time></trkpt><trkpt lat="14.419806789319479" lon="120.97499023085885"><ele>26.5</ele><time>2026-04-20T06:28:18.001Z</time></trkpt><trkpt lat="14.419938608082237" lon="120.97502723689719"><ele>27.0</ele><time>2026-04-20T06:28:19.001Z</time></trkpt><trkpt lat="14.420056534016474" lon="120.9750585649875"><ele>26.333333333333332</ele><time>2026-04-20T06:28:20.001Z</time></trkpt><trkpt lat="14.420152785707725" lon="120.97508121076103"><ele>25.666666666666668</ele><time>2026-04-20T06:28:21.001Z</time></trkpt><trkpt lat="14.420227673101863" lon="120.9751016078352"><ele>25.0</ele><time>2026-04-20T06:28:22.001Z</time></trkpt><trkpt lat="14.420293277211922" lon="120.97511839173754"><ele>24.333333333333336</ele><time>2026-04-20T06:28:23.001Z</time></trkpt><trkpt lat="14.420353572431477" lon="120.97513770730461"><ele>23.666666666666668</ele><time>2026-04-20T06:28:24.001Z</time></trkpt><trkpt lat="14.420426428870137" lon="120.97514219623581"><ele>23.0</ele><time>2026-04-20T06:28:25.001Z</time></trkpt><trkpt lat="14.420521972866586" lon="120.97514391026598"><ele>22.75</ele><time>2026-04-20T06:28:26.001Z</time></trkpt><trkpt lat="14.420638268405282" lon="120.97514104369797"><ele>22.5</ele><time>2026-04-20T06:28:27.001Z</time></trkpt><trkpt lat="14.420766605117093" lon="120.97514608168598"><ele>22.25</ele><time>2026-04-20T06:28:28.001Z</time></trkpt><trkpt lat="14.42089821617472" lon="120.97515035264767"><ele>22.0</ele><time>2026-04-20T06:28:29.001Z</time></trkpt><trkpt lat="14.421026045541003" lon="120.97514574514693"><ele>22.0</ele><time>2026-04-20T06:28:30.001Z</time></trkpt><trkpt lat="14.421162651127844" lon="120.97512925580342"><ele>22.0</ele><time>2026-04-20T06:28:31.001Z</time></trkpt><trkpt lat="14.42130767178578" lon="120.97511220290615"><ele>22.0</ele><time>2026-04-20T06:28:32.001Z</time></trkpt><trkpt lat="14.421455702692091" lon="120.97509399451017"><ele>22.0</ele><time>2026-04-20T06:28:33.001Z</time></trkpt><trkpt lat="14.421594708668643" lon="120.97507509932991"><ele>22.5</ele><time>2026-04-20T06:28:34.001Z</time></trkpt><trkpt lat="14.42172205439345" lon="120.97505126947135"><ele>23.0</ele><time>2026-04-20T06:28:35.001Z</time></trkpt><trkpt lat="14.421843313720442" lon="120.97503057165711"><ele>23.5</ele><time>2026-04-20T06:28:36.001Z</time></trkpt><trkpt lat="14.421967700112301" lon="120.9750075075213"><ele>24.0</ele><time>2026-04-20T06:28:37.001Z</time></trkpt><trkpt lat="14.42209932524664" lon="120.97498643287591"><ele>24.5</ele><time>2026-04-20T06:28:38.001Z</time></trkpt><trkpt lat="14.422229785004635" lon="120.97497489953459"><ele>25.0</ele><time>2026-04-20T06:28:39.001Z</time></trkpt><trkpt lat="14.422362642524433" lon="120.97496315611397"><ele>25.5</ele><time>2026-04-20T06:28:40.001Z</time></trkpt><trkpt lat="14.422496169619643" lon="120.97495336181858"><ele>26.0</ele><time>2026-04-20T06:28:41.001Z</time></trkpt><trkpt lat="14.422634964085406" lon="120.97494810987337"><ele>26.0</ele><time>2026-04-20T06:28:42.001Z</time></trkpt><trkpt lat="14.422768073482848" lon="120.97494475784949"><ele>26.0</ele><time>2026-04-20T06:28:43.001Z</time></trkpt><trkpt lat="14.422907852973958" lon="120.97494148336882"><ele>26.0</ele><time>2026-04-20T06:28:44.001Z</time></trkpt><trkpt lat="14.42304330672155" lon="120.97494002939624"><ele>26.0</ele><time>2026-04-20T06:28:45.001Z</time></trkpt><trkpt lat="14.423177351776525" lon="120.97493549124341"><ele>25.25</ele><time>2026-04-20T06:28:46.001Z</time></trkpt><trkpt lat="14.42330220383195" lon="120.97493184295865"><ele>24.5</ele><time>2026-04-20T06:28:47.001Z</time></trkpt><trkpt lat="14.423426158172758" lon="120.9749266195734"><ele>23.75</ele><time>2026-04-20T06:28:48.001Z</time></trkpt><trkpt lat="14.423548781510105" lon="120.97492396682769"><ele>23.0</ele><time>2026-04-20T06:28:49.001Z</time></trkpt><trkpt lat="14.423677309305235" lon="120.97491786556654"><ele>23.0</ele><time>2026-04-20T06:28:50.001Z</time></trkpt><trkpt lat="14.423813000659615" lon="120.974913424129"><ele>23.0</ele><time>2026-04-20T06:28:51.001Z</time></trkpt><trkpt lat="14.42394897325079" lon="120.97491646066747"><ele>23.0</ele><time>2026-04-20T06:28:52.001Z</time></trkpt><trkpt lat="14.424080299998442" lon="120.9749219792148"><ele>23.0</ele><time>2026-04-20T06:28:53.001Z</time></trkpt><trkpt lat="14.424201253961893" lon="120.97492258302348"><ele>23.0</ele><time>2026-04-20T06:28:54.001Z</time></trkpt><trkpt lat="14.424318765206554" lon="120.97492278018859"><ele>23.0</ele><time>2026-04-20T06:28:55.001Z</time></trkpt><trkpt lat="14.42444166293258" lon="120.97492422648693"><ele>23.0</ele><time>2026-04-20T06:28:56.001Z</time></trkpt><trkpt lat="14.42455927792382" lon="120.97492579859689"><ele>23.0</ele><time>2026-04-20T06:28:57.001Z</time></trkpt><trkpt lat="14.424670109917137" lon="120.97492628288336"><ele>22.833333333333336</ele><time>2026-04-20T06:28:58.001Z</time></trkpt><trkpt lat="14.424769862375125" lon="120.97492572459943"><ele>22.666666666666668</ele><time>2026-04-20T06:28:59.001Z</time></trkpt><trkpt lat="14.424861339909702" lon="120.97492499049488"><ele>22.5</ele><time>2026-04-20T06:29:00.001Z</time></trkpt><trkpt lat="14.4249391058742" lon="120.97492278666547"><ele>22.333333333333332</ele><time>2026-04-20T06:29:01.001Z</time></trkpt><trkpt lat="14.425023174942254" lon="120.97491808809909"><ele>22.166666666666664</ele><time>2026-04-20T06:29:02.001Z</time></trkpt><trkpt lat="14.425097416904501" lon="120.97491535520491"><ele>22.0</ele><time>2026-04-20T06:29:03.001Z</time></trkpt><trkpt lat="14.42516980773706" lon="120.97491598242588"><ele>22.0</ele><time>2026-04-20T06:29:04.001Z</time></trkpt><trkpt lat="14.425246310824791" lon="120.97491554835264"><ele>22.0</ele><time>2026-04-20T06:29:05.001Z</time></trkpt><trkpt lat="14.425322863108784" lon="120.9749146418712"><ele>22.0</ele><time>2026-04-20T06:29:06.001Z</time></trkpt><trkpt lat="14.425402733365011" lon="120.97491509248916"><ele>22.0</ele><time>2026-04-20T06:29:07.002Z</time></trkpt><trkpt lat="14.42548319251242" lon="120.97491181868618"><ele>22.0</ele><time>2026-04-20T06:29:08.002Z</time></trkpt><trkpt lat="14.425550154097841" lon="120.97491255080067"><ele>22.0</ele><time>2026-04-20T06:29:09.002Z</time></trkpt><trkpt lat="14.425662842918978" lon="120.97491477199424"><ele>22.333333333333332</ele><time>2026-04-20T06:29:11.002Z</time></trkpt><trkpt lat="14.425770015084607" lon="120.97491163532843"><ele>22.666666666666664</ele><time>2026-04-20T06:29:13.002Z</time></trkpt><trkpt lat="14.425845809918918" lon="120.9749045192255"><ele>23.0</ele><time>2026-04-20T06:29:14.002Z</time></trkpt><trkpt lat="14.425928045575397" lon="120.97490426930317"><ele>23.333333333333332</ele><time>2026-04-20T06:29:15.002Z</time></trkpt><trkpt lat="14.426003370858423" lon="120.97491470058604"><ele>23.666666666666668</ele><time>2026-04-20T06:29:16.002Z</time></trkpt><trkpt lat="14.426104881802903" lon="120.97492031746991"><ele>24.0</ele><time>2026-04-20T06:29:18.002Z</time></trkpt><trkpt lat="14.426168028886913" lon="120.97489004951048"><ele>24.0</ele><time>2026-04-20T06:29:20.002Z</time></trkpt><trkpt lat="14.42617650043727" lon="120.97481247049924"><ele>24.0</ele><time>2026-04-20T06:29:22.002Z</time></trkpt><trkpt lat="14.426169553587057" lon="120.9747376264402"><ele>24.0</ele><time>2026-04-20T06:29:23.002Z</time></trkpt><trkpt lat="14.42615543022791" lon="120.97467376583172"><ele>24.0</ele><time>2026-04-20T06:29:24.002Z</time></trkpt><trkpt lat="14.426138280591813" lon="120.97460533307503"><ele>24.0</ele><time>2026-04-20T06:29:25.002Z</time></trkpt><trkpt lat="14.426116706761283" lon="120.97453808718777"><ele>24.0</ele><time>2026-04-20T06:29:26.002Z</time></trkpt><trkpt lat="14.42607958107945" lon="120.97442448134662"><ele>24.0</ele><time>2026-04-20T06:29:28.002Z</time></trkpt><trkpt lat="14.4260481899689" lon="120.97431055700795"><ele>24.0</ele><time>2026-04-20T06:29:30.002Z</time></trkpt><trkpt lat="14.426017105098552" lon="120.97420621832171"><ele>24.0</ele><time>2026-04-20T06:29:32.002Z</time></trkpt><trkpt lat="14.425991373208461" lon="120.9741401732087"><ele>24.0</ele><time>2026-04-20T06:29:33.002Z</time></trkpt><trkpt lat="14.425969857461844" lon="120.9740662337203"><ele>24.0</ele><time>2026-04-20T06:29:34.002Z</time></trkpt><trkpt lat="14.425955821461788" lon="120.97398817017866"><ele>24.0</ele><time>2026-04-20T06:29:35.002Z</time></trkpt><trkpt lat="14.425936201724097" lon="120.97391921168249"><ele>23.857142857142854</ele><time>2026-04-20T06:29:36.002Z</time></trkpt><trkpt lat="14.425913660814677" lon="120.97384568656224"><ele>23.714285714285715</ele><time>2026-04-20T06:29:37.002Z</time></trkpt><trkpt lat="14.425894776273704" lon="120.97377643404323"><ele>23.57142857142857</ele><time>2026-04-20T06:29:38.002Z</time></trkpt><trkpt lat="14.425873812971988" lon="120.97370244087527"><ele>23.428571428571427</ele><time>2026-04-20T06:29:39.002Z</time></trkpt><trkpt lat="14.425853779500446" lon="120.97363410846523"><ele>23.285714285714285</ele><time>2026-04-20T06:29:40.002Z</time></trkpt><trkpt lat="14.425836906159185" lon="120.97355498836889"><ele>23.142857142857142</ele><time>2026-04-20T06:29:41.002Z</time></trkpt><trkpt lat="14.42581740685472" lon="120.97348669251797"><ele>23.0</ele><time>2026-04-20T06:29:42.002Z</time></trkpt><trkpt lat="14.425779719546387" lon="120.97335988523903"><ele>23.0</ele><time>2026-04-20T06:29:44.002Z</time></trkpt><trkpt lat="14.42575561894786" lon="120.97328377988457"><ele>23.0</ele><time>2026-04-20T06:29:45.002Z</time></trkpt><trkpt lat="14.425722182562605" lon="120.97320629305014"><ele>23.0</ele><time>2026-04-20T06:29:46.002Z</time></trkpt><trkpt lat="14.425694201350108" lon="120.9731103932126"><ele>23.0</ele><time>2026-04-20T06:29:47.002Z</time></trkpt><trkpt lat="14.42567443044538" lon="120.97302371223502"><ele>23.0</ele><time>2026-04-20T06:29:48.002Z</time></trkpt><trkpt lat="14.425653385519627" lon="120.97293912505124"><ele>23.0</ele><time>2026-04-20T06:29:49.002Z</time></trkpt><trkpt lat="14.42563453026696" lon="120.9728663786747"><ele>23.0</ele><time>2026-04-20T06:29:50.002Z</time></trkpt><trkpt lat="14.425614982601486" lon="120.97279853798699"><ele>23.0</ele><time>2026-04-20T06:29:51.002Z</time></trkpt><trkpt lat="14.425594667444745" lon="120.97273307055745"><ele>23.0</ele><time>2026-04-20T06:29:52.002Z</time></trkpt><trkpt lat="14.425572349798692" lon="120.9726600938744"><ele>23.0</ele><time>2026-04-20T06:29:53.002Z</time></trkpt><trkpt lat="14.425550865802105" lon="120.97258413537809"><ele>23.0</ele><time>2026-04-20T06:29:54.002Z</time></trkpt><trkpt lat="14.425529859286577" lon="120.97251277060523"><ele>23.0</ele><time>2026-04-20T06:29:55.002Z</time></trkpt><trkpt lat="14.425512158541212" lon="120.97244366208288"><ele>23.0</ele><time>2026-04-20T06:29:56.002Z</time></trkpt><trkpt lat="14.42549892933332" lon="120.97237799014381"><ele>22.833333333333336</ele><time>2026-04-20T06:29:57.003Z</time></trkpt><trkpt lat="14.425487307066437" lon="120.97231307834065"><ele>22.666666666666668</ele><time>2026-04-20T06:29:58.003Z</time></trkpt><trkpt lat="14.425461561263774" lon="120.97219571057434"><ele>22.5</ele><time>2026-04-20T06:30:00.003Z</time></trkpt><trkpt lat="14.425445884134747" lon="120.97213195954033"><ele>22.333333333333332</ele><time>2026-04-20T06:30:01.003Z</time></trkpt><trkpt lat="14.425414991074845" lon="120.97202882913275"><ele>22.166666666666664</ele><time>2026-04-20T06:30:03.001Z</time></trkpt><trkpt lat="14.425383381852926" lon="120.97196065910194"><ele>22.0</ele><time>2026-04-20T06:30:05.001Z</time></trkpt><trkpt lat="14.425364562254408" lon="120.97186054042065"><ele>22.0</ele><time>2026-04-20T06:30:07.001Z</time></trkpt><trkpt lat="14.42533851780518" lon="120.97175377912524"><ele>22.0</ele><time>2026-04-20T06:30:09.001Z</time></trkpt><trkpt lat="14.42530964758423" lon="120.97169176724974"><ele>22.0</ele><time>2026-04-20T06:30:10.001Z</time></trkpt><trkpt lat="14.425290129333183" lon="120.97162767721782"><ele>22.0</ele><time>2026-04-20T06:30:11.001Z</time></trkpt><trkpt lat="14.425260305564223" lon="120.97154422742429"><ele>22.0</ele><time>2026-04-20T06:30:12.001Z</time></trkpt><trkpt lat="14.42523242472045" lon="120.97145213750686"><ele>22.0</ele><time>2026-04-20T06:30:13.001Z</time></trkpt><trkpt lat="14.425203685918731" lon="120.9713537034306"><ele>21.400000000000002</ele><time>2026-04-20T06:30:14.001Z</time></trkpt><trkpt lat="14.425177607315822" lon="120.97125823234217"><ele>20.8</ele><time>2026-04-20T06:30:15.001Z</time></trkpt><trkpt lat="14.425150130304473" lon="120.97115601714547"><ele>20.2</ele><time>2026-04-20T06:30:16.001Z</time></trkpt><trkpt lat="14.425124016652529" lon="120.97105264901984"><ele>19.6</ele><time>2026-04-20T06:30:17.001Z</time></trkpt><trkpt lat="14.42510088550682" lon="120.9709545385558"><ele>19.0</ele><time>2026-04-20T06:30:18.001Z</time></trkpt><trkpt lat="14.425081823553006" lon="120.97086730332302"><ele>19.0</ele><time>2026-04-20T06:30:19.001Z</time></trkpt><trkpt lat="14.42506155522388" lon="120.97078232734962"><ele>19.0</ele><time>2026-04-20T06:30:20.001Z</time></trkpt><trkpt lat="14.425039609350529" lon="120.97070598507834"><ele>19.0</ele><time>2026-04-20T06:30:21.001Z</time></trkpt><trkpt lat="14.425015283020018" lon="120.97061940772717"><ele>19.0</ele><time>2026-04-20T06:30:22.001Z</time></trkpt><trkpt lat="14.424983811505008" lon="120.97051533742403"><ele>19.0</ele><time>2026-04-20T06:30:23.001Z</time></trkpt><trkpt lat="14.424958987339544" lon="120.9704163884169"><ele>19.0</ele><time>2026-04-20T06:30:24.001Z</time></trkpt><trkpt lat="14.424931962487893" lon="120.97031144161876"><ele>19.0</ele><time>2026-04-20T06:30:25.001Z</time></trkpt><trkpt lat="14.42490311913436" lon="120.97021842995237"><ele>19.0</ele><time>2026-04-20T06:30:26.001Z</time></trkpt><trkpt lat="14.424874651721183" lon="120.97013082117535"><ele>19.0</ele><time>2026-04-20T06:30:27.001Z</time></trkpt><trkpt lat="14.424845183367188" lon="120.97004132415154"><ele>19.0</ele><time>2026-04-20T06:30:28.001Z</time></trkpt><trkpt lat="14.4248266219961" lon="120.9699629536059"><ele>19.2</ele><time>2026-04-20T06:30:29.001Z</time></trkpt><trkpt lat="14.424798594397615" lon="120.96987042945524"><ele>19.4</ele><time>2026-04-20T06:30:30.001Z</time></trkpt><trkpt lat="14.424774214062353" lon="120.96978066821029"><ele>19.6</ele><time>2026-04-20T06:30:31.001Z</time></trkpt><trkpt lat="14.424746911930916" lon="120.96969537646547"><ele>19.8</ele><time>2026-04-20T06:30:32.001Z</time></trkpt><trkpt lat="14.424707582881434" lon="120.96959379927965"><ele>20.0</ele><time>2026-04-20T06:30:33.001Z</time></trkpt><trkpt lat="14.424669355172332" lon="120.96948384879153"><ele>19.6</ele><time>2026-04-20T06:30:34.001Z</time></trkpt><trkpt lat="14.424641344207147" lon="120.96938109493676"><ele>19.2</ele><time>2026-04-20T06:30:35.001Z</time></trkpt><trkpt lat="14.42461670435022" lon="120.96926245579668"><ele>18.8</ele><time>2026-04-20T06:30:36.001Z</time></trkpt><trkpt lat="14.424598255145156" lon="120.96916086930617"><ele>18.4</ele><time>2026-04-20T06:30:37.001Z</time></trkpt><trkpt lat="14.424584087003593" lon="120.96906583743929"><ele>18.0</ele><time>2026-04-20T06:30:38.001Z</time></trkpt><trkpt lat="14.424556348648663" lon="120.96896988126977"><ele>18.0</ele><time>2026-04-20T06:30:39.001Z</time></trkpt><trkpt lat="14.424525113284126" lon="120.96886526700234"><ele>18.0</ele><time>2026-04-20T06:30:40.001Z</time></trkpt><trkpt lat="14.424499389551917" lon="120.96876136733526"><ele>18.0</ele><time>2026-04-20T06:30:41.001Z</time></trkpt><trkpt lat="14.424472117190385" lon="120.96865039495555"><ele>18.0</ele><time>2026-04-20T06:30:42.001Z</time></trkpt><trkpt lat="14.424445799399784" lon="120.9685404129691"><ele>18.0</ele><time>2026-04-20T06:30:43.001Z</time></trkpt><trkpt lat="14.424418924402307" lon="120.96841474027384"><ele>18.5</ele><time>2026-04-20T06:30:44.001Z</time></trkpt><trkpt lat="14.424393225736031" lon="120.96830459452215"><ele>19.0</ele><time>2026-04-20T06:30:45.001Z</time></trkpt><trkpt lat="14.424364228884624" lon="120.96818391724334"><ele>19.5</ele><time>2026-04-20T06:30:46.001Z</time></trkpt><trkpt lat="14.424337818668883" lon="120.9680643217822"><ele>20.0</ele><time>2026-04-20T06:30:47.001Z</time></trkpt><trkpt lat="14.424309130093611" lon="120.96794137644437"><ele>20.0</ele><time>2026-04-20T06:30:48.001Z</time></trkpt><trkpt lat="14.424278695738657" lon="120.96782157786184"><ele>20.0</ele><time>2026-04-20T06:30:49.001Z</time></trkpt><trkpt lat="14.424251313511192" lon="120.96769511293705"><ele>20.0</ele><time>2026-04-20T06:30:50.001Z</time></trkpt><trkpt lat="14.424224284195951" lon="120.96757864045998"><ele>20.0</ele><time>2026-04-20T06:30:51.001Z</time></trkpt><trkpt lat="14.424198087089668" lon="120.96745856795586"><ele>20.4</ele><time>2026-04-20T06:30:52.001Z</time></trkpt><trkpt lat="14.424168283184912" lon="120.96734396668582"><ele>20.8</ele><time>2026-04-20T06:30:53.001Z</time></trkpt><trkpt lat="14.424138285374573" lon="120.96724496502743"><ele>21.200000000000003</ele><time>2026-04-20T06:30:54.001Z</time></trkpt><trkpt lat="14.424118289761427" lon="120.96714522174184"><ele>21.6</ele><time>2026-04-20T06:30:55.001Z</time></trkpt><trkpt lat="14.424102660750968" lon="120.96705682401281"><ele>22.0</ele><time>2026-04-20T06:30:56.001Z</time></trkpt><trkpt lat="14.424082296027677" lon="120.96697769996827"><ele>22.0</ele><time>2026-04-20T06:30:57.001Z</time></trkpt><trkpt lat="14.424065322681367" lon="120.96690753830927"><ele>22.0</ele><time>2026-04-20T06:30:58.001Z</time></trkpt><trkpt lat="14.424033928965915" lon="120.9667982914298"><ele>22.0</ele><time>2026-04-20T06:31:00.001Z</time></trkpt><trkpt lat="14.424018356410773" lon="120.96672498585295"><ele>22.0</ele><time>2026-04-20T06:31:02.001Z</time></trkpt><trkpt lat="14.423994906922182" lon="120.9666351178446"><ele>22.0</ele><time>2026-04-20T06:31:05.001Z</time></trkpt><trkpt lat="14.423971534368851" lon="120.96656445864512"><ele>22.0</ele><time>2026-04-20T06:31:07.001Z</time></trkpt><trkpt lat="14.423953223970457" lon="120.96649261619388"><ele>22.0</ele><time>2026-04-20T06:31:09.001Z</time></trkpt><trkpt lat="14.42391768164386" lon="120.96639091238806"><ele>22.0</ele><time>2026-04-20T06:31:11.002Z</time></trkpt><trkpt lat="14.42390079115621" lon="120.96632388831551"><ele>22.0</ele><time>2026-04-20T06:31:12.002Z</time></trkpt><trkpt lat="14.423880176712522" lon="120.96624510348941"><ele>22.0</ele><time>2026-04-20T06:31:13.002Z</time></trkpt><trkpt lat="14.423869688274173" lon="120.96614845964989"><ele>22.0</ele><time>2026-04-20T06:31:15.002Z</time></trkpt><trkpt lat="14.423853165615178" lon="120.96607021705165"><ele>22.0</ele><time>2026-04-20T06:31:18.002Z</time></trkpt><trkpt lat="14.42382966174735" lon="120.96599033925749"><ele>22.0</ele><time>2026-04-20T06:31:23.002Z</time></trkpt><trkpt lat="14.423877928852779" lon="120.9659029834444"><ele>22.0</ele><time>2026-04-20T06:31:28.002Z</time></trkpt><trkpt lat="14.423968714410629" lon="120.96587736605173"><ele>22.0</ele><time>2026-04-20T06:31:30.002Z</time></trkpt><trkpt lat="14.424097293744289" lon="120.96585465365226"><ele>22.0</ele><time>2026-04-20T06:31:32.002Z</time></trkpt><trkpt lat="14.424168227570206" lon="120.96583974528285"><ele>22.0</ele><time>2026-04-20T06:31:33.002Z</time></trkpt><trkpt lat="14.424237713570344" lon="120.96582574927714"><ele>22.0</ele><time>2026-04-20T06:31:34.002Z</time></trkpt><trkpt lat="14.424307282730515" lon="120.9658057521683"><ele>22.0</ele><time>2026-04-20T06:31:35.002Z</time></trkpt><trkpt lat="14.4243836386111" lon="120.96578025812902"><ele>22.0</ele><time>2026-04-20T06:31:36.002Z</time></trkpt><trkpt lat="14.42446633897674" lon="120.96575006825381"><ele>22.0</ele><time>2026-04-20T06:31:37.002Z</time></trkpt><trkpt lat="14.424554880370836" lon="120.96571278822822"><ele>22.0</ele><time>2026-04-20T06:31:38.002Z</time></trkpt><trkpt lat="14.424655141597931" lon="120.96566437656"><ele>22.0</ele><time>2026-04-20T06:31:39.002Z</time></trkpt><trkpt lat="14.424761904561086" lon="120.96560697924942"><ele>21.75</ele><time>2026-04-20T06:31:40.002Z</time></trkpt><trkpt lat="14.424868347837734" lon="120.96553948607772"><ele>21.5</ele><time>2026-04-20T06:31:41.002Z</time></trkpt><trkpt lat="14.424968288617485" lon="120.96545676503078"><ele>21.25</ele><time>2026-04-20T06:31:42.002Z</time></trkpt><trkpt lat="14.425066585725864" lon="120.9653669929848"><ele>21.0</ele><time>2026-04-20T06:31:43.002Z</time></trkpt><trkpt lat="14.425164000583345" lon="120.96528500737888"><ele>21.0</ele><time>2026-04-20T06:31:44.002Z</time></trkpt><trkpt lat="14.42524799303202" lon="120.96521179730065"><ele>21.0</ele><time>2026-04-20T06:31:45.002Z</time></trkpt><trkpt lat="14.425333227186028" lon="120.96513692998889"><ele>21.0</ele><time>2026-04-20T06:31:46.002Z</time></trkpt><trkpt lat="14.42542276027407" lon="120.96506784571248"><ele>21.0</ele><time>2026-04-20T06:31:47.002Z</time></trkpt><trkpt lat="14.425517542585393" lon="120.96500123188919"><ele>21.0</ele><time>2026-04-20T06:31:48.002Z</time></trkpt><trkpt lat="14.425622431355487" lon="120.96492924942078"><ele>20.75</ele><time>2026-04-20T06:31:49.002Z</time></trkpt><trkpt lat="14.425728099878683" lon="120.96486727992354"><ele>20.5</ele><time>2026-04-20T06:31:50.002Z</time></trkpt><trkpt lat="14.425845863925638" lon="120.96480549258214"><ele>20.25</ele><time>2026-04-20T06:31:51.002Z</time></trkpt><trkpt lat="14.425944813133677" lon="120.96475062491623"><ele>20.0</ele><time>2026-04-20T06:31:52.002Z</time></trkpt><trkpt lat="14.426068385990655" lon="120.96467876005461"><ele>20.0</ele><time>2026-04-20T06:31:53.002Z</time></trkpt><trkpt lat="14.426182546117149" lon="120.96463000124484"><ele>20.0</ele><time>2026-04-20T06:31:54.002Z</time></trkpt><trkpt lat="14.426298098758911" lon="120.96458984980349"><ele>20.0</ele><time>2026-04-20T06:31:55.002Z</time></trkpt><trkpt lat="14.426416599609556" lon="120.96455225117336"><ele>20.0</ele><time>2026-04-20T06:31:56.002Z</time></trkpt><trkpt lat="14.426525724048282" lon="120.96452461300763"><ele>19.2</ele><time>2026-04-20T06:31:57.002Z</time></trkpt><trkpt lat="14.426625775903181" lon="120.96449663720871"><ele>18.4</ele><time>2026-04-20T06:31:58.002Z</time></trkpt><trkpt lat="14.426722539628619" lon="120.96446630517677"><ele>17.6</ele><time>2026-04-20T06:31:59.002Z</time></trkpt><trkpt lat="14.42681971877795" lon="120.96443976568435"><ele>16.8</ele><time>2026-04-20T06:32:00.002Z</time></trkpt><trkpt lat="14.426922814035128" lon="120.96441990074347"><ele>16.0</ele><time>2026-04-20T06:32:01.002Z</time></trkpt><trkpt lat="14.427016272264545" lon="120.96440491232553"><ele>15.999999999999998</ele><time>2026-04-20T06:32:02.002Z</time></trkpt><trkpt lat="14.427107125678976" lon="120.96438840017251"><ele>16.0</ele><time>2026-04-20T06:32:03.003Z</time></trkpt><trkpt lat="14.42718663819789" lon="120.96437234130761"><ele>16.0</ele><time>2026-04-20T06:32:04.003Z</time></trkpt><trkpt lat="14.427264497870574" lon="120.96436087645934"><ele>16.0</ele><time>2026-04-20T06:32:05.003Z</time></trkpt><trkpt lat="14.427352786246201" lon="120.96434743584926"><ele>15.999999999999998</ele><time>2026-04-20T06:32:06.003Z</time></trkpt><trkpt lat="14.427443189447027" lon="120.96433910240087"><ele>16.0</ele><time>2026-04-20T06:32:07.003Z</time></trkpt><trkpt lat="14.427528036826159" lon="120.96433402194835"><ele>16.2</ele><time>2026-04-20T06:32:08.003Z</time></trkpt><trkpt lat="14.427614392224294" lon="120.96433018373602"><ele>16.400000000000002</ele><time>2026-04-20T06:32:09.001Z</time></trkpt><trkpt lat="14.4277096428303" lon="120.96433189426132"><ele>16.6</ele><time>2026-04-20T06:32:10.001Z</time></trkpt><trkpt lat="14.427809981346588" lon="120.96433043827935"><ele>16.8</ele><time>2026-04-20T06:32:11.001Z</time></trkpt><trkpt lat="14.427909887037854" lon="120.96432670501162"><ele>17.0</ele><time>2026-04-20T06:32:12.001Z</time></trkpt><trkpt lat="14.42801314054688" lon="120.96433106022752"><ele>17.6</ele><time>2026-04-20T06:32:13.001Z</time></trkpt><trkpt lat="14.428116319175585" lon="120.96433456315555"><ele>18.2</ele><time>2026-04-20T06:32:14.001Z</time></trkpt><trkpt lat="14.428212200200813" lon="120.96434147994111"><ele>18.8</ele><time>2026-04-20T06:32:15.001Z</time></trkpt><trkpt lat="14.428316569365448" lon="120.96435742816216"><ele>19.4</ele><time>2026-04-20T06:32:16.001Z</time></trkpt><trkpt lat="14.428412202038094" lon="120.96437223574306"><ele>20.0</ele><time>2026-04-20T06:32:17.001Z</time></trkpt><trkpt lat="14.42850584045789" lon="120.96438805044953"><ele>20.0</ele><time>2026-04-20T06:32:18.001Z</time></trkpt><trkpt lat="14.428589467068239" lon="120.96440311974973"><ele>20.0</ele><time>2026-04-20T06:32:19.001Z</time></trkpt><trkpt lat="14.428663330057386" lon="120.96441823398975"><ele>20.0</ele><time>2026-04-20T06:32:20.001Z</time></trkpt><trkpt lat="14.42872772223902" lon="120.96443336589465"><ele>20.0</ele><time>2026-04-20T06:32:21.001Z</time></trkpt><trkpt lat="14.428801533636156" lon="120.96445137462463"><ele>20.0</ele><time>2026-04-20T06:32:22.001Z</time></trkpt><trkpt lat="14.428868131272656" lon="120.96446889019639"><ele>20.0</ele><time>2026-04-20T06:32:23.001Z</time></trkpt><trkpt lat="14.428943364454732" lon="120.96448688311176"><ele>20.0</ele><time>2026-04-20T06:32:24.001Z</time></trkpt><trkpt lat="14.429026761366224" lon="120.96451181835138"><ele>19.666666666666668</ele><time>2026-04-20T06:32:25.001Z</time></trkpt><trkpt lat="14.429110900249547" lon="120.96454182996693"><ele>19.333333333333336</ele><time>2026-04-20T06:32:26.001Z</time></trkpt><trkpt lat="14.429184740895183" lon="120.9645653524586"><ele>19.0</ele><time>2026-04-20T06:32:27.001Z</time></trkpt><trkpt lat="14.42926677468496" lon="120.96459193212237"><ele>18.666666666666668</ele><time>2026-04-20T06:32:28.001Z</time></trkpt><trkpt lat="14.4293463182084" lon="120.96462127435558"><ele>18.333333333333332</ele><time>2026-04-20T06:32:29.001Z</time></trkpt><trkpt lat="14.429422670459509" lon="120.96465657807848"><ele>18.0</ele><time>2026-04-20T06:32:30.001Z</time></trkpt><trkpt lat="14.429495857772011" lon="120.96469157019898"><ele>18.0</ele><time>2026-04-20T06:32:31.001Z</time></trkpt><trkpt lat="14.429565371660253" lon="120.96472548904659"><ele>18.0</ele><time>2026-04-20T06:32:32.001Z</time></trkpt><trkpt lat="14.429638224817158" lon="120.96475990288036"><ele>18.0</ele><time>2026-04-20T06:32:33.001Z</time></trkpt><trkpt lat="14.429714002328991" lon="120.96479736060182"><ele>18.0</ele><time>2026-04-20T06:32:34.001Z</time></trkpt><trkpt lat="14.429791389546523" lon="120.96483822139464"><ele>18.0</ele><time>2026-04-20T06:32:35.001Z</time></trkpt><trkpt lat="14.429883388728205" lon="120.9648903112051"><ele>18.0</ele><time>2026-04-20T06:32:36.001Z</time></trkpt><trkpt lat="14.429961850239968" lon="120.96493254757405"><ele>18.0</ele><time>2026-04-20T06:32:37.001Z</time></trkpt><trkpt lat="14.430040532608217" lon="120.96497418062063"><ele>18.0</ele><time>2026-04-20T06:32:38.001Z</time></trkpt><trkpt lat="14.4301136097302" lon="120.96502441596536"><ele>18.0</ele><time>2026-04-20T06:32:39.001Z</time></trkpt><trkpt lat="14.430187837259403" lon="120.96507471290332"><ele>18.0</ele><time>2026-04-20T06:32:40.001Z</time></trkpt><trkpt lat="14.430267404999816" lon="120.96511775591155"><ele>18.0</ele><time>2026-04-20T06:32:41.001Z</time></trkpt><trkpt lat="14.430347820821812" lon="120.9651584247249"><ele>18.0</ele><time>2026-04-20T06:32:42.001Z</time></trkpt><trkpt lat="14.430426637880752" lon="120.96519995648691"><ele>17.4</ele><time>2026-04-20T06:32:43.001Z</time></trkpt><trkpt lat="14.430499137701922" lon="120.96523935974301"><ele>16.8</ele><time>2026-04-20T06:32:44.001Z</time></trkpt><trkpt lat="14.430581722761508" lon="120.96528375279344"><ele>16.2</ele><time>2026-04-20T06:32:45.001Z</time></trkpt><trkpt lat="14.430675270210651" lon="120.96533235202209"><ele>15.6</ele><time>2026-04-20T06:32:46.001Z</time></trkpt><trkpt lat="14.43076813883656" lon="120.9653811323616"><ele>15.0</ele><time>2026-04-20T06:32:47.001Z</time></trkpt><trkpt lat="14.430849976228911" lon="120.96542670313852"><ele>15.0</ele><time>2026-04-20T06:32:48.001Z</time></trkpt><trkpt lat="14.430925320379" lon="120.96546779351426"><ele>15.0</ele><time>2026-04-20T06:32:49.001Z</time></trkpt><trkpt lat="14.43102461351992" lon="120.96552535754465"><ele>15.0</ele><time>2026-04-20T06:32:51.001Z</time></trkpt><trkpt lat="14.431102225926882" lon="120.96555877254141"><ele>15.0</ele><time>2026-04-20T06:32:53.001Z</time></trkpt><trkpt lat="14.431207589329498" lon="120.96554564904612"><ele>15.0</ele><time>2026-04-20T06:32:55.001Z</time></trkpt><trkpt lat="14.43125537137175" lon="120.96550109628588"><ele>15.0</ele><time>2026-04-20T06:32:56.001Z</time></trkpt><trkpt lat="14.431291028856474" lon="120.96543630344853"><ele>15.0</ele><time>2026-04-20T06:32:57.001Z</time></trkpt><trkpt lat="14.43132243114205" lon="120.96535101883485"><ele>15.0</ele><time>2026-04-20T06:32:58.001Z</time></trkpt><trkpt lat="14.431355837956978" lon="120.96525173223702"><ele>15.0</ele><time>2026-04-20T06:32:59.001Z</time></trkpt><trkpt lat="14.431392949270046" lon="120.96513831986265"><ele>15.0</ele><time>2026-04-20T06:33:00.001Z</time></trkpt><trkpt lat="14.431424958874812" lon="120.9650188035162"><ele>15.75</ele><time>2026-04-20T06:33:01.001Z</time></trkpt><trkpt lat="14.431459690333604" lon="120.96488703857985"><ele>16.5</ele><time>2026-04-20T06:33:02.001Z</time></trkpt><trkpt lat="14.43149270897467" lon="120.96475262732949"><ele>17.25</ele><time>2026-04-20T06:33:03.001Z</time></trkpt><trkpt lat="14.431513688615723" lon="120.9646093022221"><ele>18.0</ele><time>2026-04-20T06:33:04.001Z</time></trkpt><trkpt lat="14.431518538120088" lon="120.96445546877311"><ele>18.0</ele><time>2026-04-20T06:33:05.001Z</time></trkpt><trkpt lat="14.431513037736448" lon="120.96429836578372"><ele>18.0</ele><time>2026-04-20T06:33:06.001Z</time></trkpt><trkpt lat="14.431502169735316" lon="120.96413523523262"><ele>18.0</ele><time>2026-04-20T06:33:07.001Z</time></trkpt><trkpt lat="14.431480543677626" lon="120.96397090361295"><ele>18.666666666666668</ele><time>2026-04-20T06:33:08.001Z</time></trkpt><trkpt lat="14.431441358153352" lon="120.96380838934752"><ele>19.333333333333336</ele><time>2026-04-20T06:33:09.001Z</time></trkpt><trkpt lat="14.431404008555377" lon="120.9636353402959"><ele>20.0</ele><time>2026-04-20T06:33:10.001Z</time></trkpt><trkpt lat="14.43136467014183" lon="120.96346953427394"><ele>19.0</ele><time>2026-04-20T06:33:11.001Z</time></trkpt><trkpt lat="14.431321285891391" lon="120.96329697038976"><ele>18.0</ele><time>2026-04-20T06:33:12.001Z</time></trkpt><trkpt lat="14.431282594907122" lon="120.9631328162556"><ele>17.0</ele><time>2026-04-20T06:33:13.001Z</time></trkpt><trkpt lat="14.43125173456701" lon="120.9629576347786"><ele>17.0</ele><time>2026-04-20T06:33:14.001Z</time></trkpt><trkpt lat="14.43123691823964" lon="120.96277717669423"><ele>17.0</ele><time>2026-04-20T06:33:15.001Z</time></trkpt><trkpt lat="14.431237991609073" lon="120.96260238503292"><ele>17.0</ele><time>2026-04-20T06:33:16.001Z</time></trkpt><trkpt lat="14.4312505563557" lon="120.96242434661069"><ele>16.333333333333336</ele><time>2026-04-20T06:33:17.001Z</time></trkpt><trkpt lat="14.43127246053546" lon="120.96224596999086"><ele>15.666666666666668</ele><time>2026-04-20T06:33:18.001Z</time></trkpt><trkpt lat="14.431295777546152" lon="120.96207898438743"><ele>15.0</ele><time>2026-04-20T06:33:19.002Z</time></trkpt><trkpt lat="14.431335187956341" lon="120.9619117553292"><ele>14.75</ele><time>2026-04-20T06:33:20.002Z</time></trkpt><trkpt lat="14.431379613372966" lon="120.9617590367187"><ele>14.5</ele><time>2026-04-20T06:33:21.002Z</time></trkpt><trkpt lat="14.431420070718225" lon="120.96161343457189"><ele>14.25</ele><time>2026-04-20T06:33:22.002Z</time></trkpt><trkpt lat="14.431452876630711" lon="120.96148693902616"><ele>14.0</ele><time>2026-04-20T06:33:23.002Z</time></trkpt><trkpt lat="14.43147636710566" lon="120.9613618532614"><ele>13.799999999999999</ele><time>2026-04-20T06:33:24.002Z</time></trkpt><trkpt lat="14.431492415647016" lon="120.96124138375848"><ele>13.599999999999998</ele><time>2026-04-20T06:33:25.002Z</time></trkpt><trkpt lat="14.431506021844813" lon="120.96113383811331"><ele>13.4</ele><time>2026-04-20T06:33:26.002Z</time></trkpt><trkpt lat="14.431519201806557" lon="120.9610156543749"><ele>13.2</ele><time>2026-04-20T06:33:27.002Z</time></trkpt><trkpt lat="14.43152007204211" lon="120.96090801610222"><ele>13.0</ele><time>2026-04-20T06:33:28.002Z</time></trkpt><trkpt lat="14.431516006852679" lon="120.96080451857652"><ele>13.0</ele><time>2026-04-20T06:33:29.002Z</time></trkpt><trkpt lat="14.431505020267108" lon="120.96067696253066"><ele>13.0</ele><time>2026-04-20T06:33:30.002Z</time></trkpt><trkpt lat="14.431482000865605" lon="120.96055759473698"><ele>13.0</ele><time>2026-04-20T06:33:31.002Z</time></trkpt><trkpt lat="14.43145846565408" lon="120.96043494821372"><ele>13.0</ele><time>2026-04-20T06:33:32.002Z</time></trkpt><trkpt lat="14.431435577528731" lon="120.96030481333356"><ele>13.0</ele><time>2026-04-20T06:33:33.002Z</time></trkpt><trkpt lat="14.431423294940965" lon="120.96016823812201"><ele>13.0</ele><time>2026-04-20T06:33:34.002Z</time></trkpt><trkpt lat="14.431426957180255" lon="120.96003155119499"><ele>13.0</ele><time>2026-04-20T06:33:35.002Z</time></trkpt><trkpt lat="14.4314304071976" lon="120.95990509996017"><ele>13.0</ele><time>2026-04-20T06:33:36.002Z</time></trkpt><trkpt lat="14.43143360665593" lon="120.95977128599769"><ele>13.75</ele><time>2026-04-20T06:33:37.002Z</time></trkpt><trkpt lat="14.431440688257355" lon="120.95964945979665"><ele>14.5</ele><time>2026-04-20T06:33:38.002Z</time></trkpt><trkpt lat="14.431448359210393" lon="120.95952263605177"><ele>15.25</ele><time>2026-04-20T06:33:39.002Z</time></trkpt><trkpt lat="14.431455110271544" lon="120.9593836088724"><ele>16.0</ele><time>2026-04-20T06:33:40.002Z</time></trkpt><trkpt lat="14.431459703021183" lon="120.95926283513569"><ele>15.5</ele><time>2026-04-20T06:33:41.002Z</time></trkpt><trkpt lat="14.431462574415225" lon="120.95911905473756"><ele>15.0</ele><time>2026-04-20T06:33:42.002Z</time></trkpt><trkpt lat="14.431468879099564" lon="120.95897834664078"><ele>14.5</ele><time>2026-04-20T06:33:43.002Z</time></trkpt><trkpt lat="14.431468515041246" lon="120.95882322479471"><ele>14.0</ele><time>2026-04-20T06:33:44.002Z</time></trkpt><trkpt lat="14.431480290784796" lon="120.95868493097275"><ele>14.0</ele><time>2026-04-20T06:33:45.002Z</time></trkpt><trkpt lat="14.43149660739756" lon="120.95853109741962"><ele>14.0</ele><time>2026-04-20T06:33:46.002Z</time></trkpt><trkpt lat="14.431521233762878" lon="120.95837627689066"><ele>14.0</ele><time>2026-04-20T06:33:47.002Z</time></trkpt><trkpt lat="14.431544287958141" lon="120.95821383284253"><ele>13.666666666666668</ele><time>2026-04-20T06:33:48.002Z</time></trkpt><trkpt lat="14.431570753978306" lon="120.95805742673791"><ele>13.333333333333332</ele><time>2026-04-20T06:33:49.002Z</time></trkpt><trkpt lat="14.431617955241524" lon="120.9579100923163"><ele>13.0</ele><time>2026-04-20T06:33:50.002Z</time></trkpt><trkpt lat="14.431677079529639" lon="120.95776155993592"><ele>13.0</ele><time>2026-04-20T06:33:51.002Z</time></trkpt><trkpt lat="14.431744654691457" lon="120.9576161412919"><ele>13.0</ele><time>2026-04-20T06:33:52.002Z</time></trkpt><trkpt lat="14.431811219688008" lon="120.95747625060346"><ele>13.0</ele><time>2026-04-20T06:33:53.002Z</time></trkpt><trkpt lat="14.43186813369289" lon="120.95735485914057"><ele>13.0</ele><time>2026-04-20T06:33:54.002Z</time></trkpt><trkpt lat="14.431918794153729" lon="120.95723307503718"><ele>13.25</ele><time>2026-04-20T06:33:55.002Z</time></trkpt><trkpt lat="14.431954714540883" lon="120.95710681081694"><ele>13.5</ele><time>2026-04-20T06:33:56.002Z</time></trkpt><trkpt lat="14.43196915971507" lon="120.95697886550113"><ele>13.75</ele><time>2026-04-20T06:33:57.002Z</time></trkpt><trkpt lat="14.431964366523408" lon="120.95682170220778"><ele>14.0</ele><time>2026-04-20T06:33:58.002Z</time></trkpt><trkpt lat="14.431957467704223" lon="120.95666682086035"><ele>15.0</ele><time>2026-04-20T06:33:59.002Z</time></trkpt><trkpt lat="14.431958109155028" lon="120.95651736450716"><ele>16.0</ele><time>2026-04-20T06:34:00.002Z</time></trkpt><trkpt lat="14.431958277853905" lon="120.95634010570849"><ele>17.0</ele><time>2026-04-20T06:34:01.002Z</time></trkpt><trkpt lat="14.431959340868003" lon="120.95617739601657"><ele>17.0</ele><time>2026-04-20T06:34:02.002Z</time></trkpt><trkpt lat="14.431960699330336" lon="120.95600883629739"><ele>17.0</ele><time>2026-04-20T06:34:03.002Z</time></trkpt><trkpt lat="14.431962400487024" lon="120.95583879826853"><ele>17.0</ele><time>2026-04-20T06:34:04.002Z</time></trkpt><trkpt lat="14.431964440080547" lon="120.95567032026607"><ele>16.0</ele><time>2026-04-20T06:34:05.002Z</time></trkpt><trkpt lat="14.431968091080535" lon="120.95552473294721"><ele>15.0</ele><time>2026-04-20T06:34:06.002Z</time></trkpt><trkpt lat="14.43197664641435" lon="120.9553817874736"><ele>14.0</ele><time>2026-04-20T06:34:07.002Z</time></trkpt><trkpt lat="14.431999288935113" lon="120.95525015004529"><ele>13.0</ele><time>2026-04-20T06:34:08.002Z</time></trkpt><trkpt lat="14.432039702450165" lon="120.95512334069558"><ele>12.5</ele><time>2026-04-20T06:34:09.002Z</time></trkpt><trkpt lat="14.432095698604469" lon="120.95500254071446"><ele>12.0</ele><time>2026-04-20T06:34:10.002Z</time></trkpt><trkpt lat="14.432165708023364" lon="120.95488451924093"><ele>11.5</ele><time>2026-04-20T06:34:11.002Z</time></trkpt><trkpt lat="14.432243730095758" lon="120.95477440198663"><ele>11.0</ele><time>2026-04-20T06:34:12.002Z</time></trkpt><trkpt lat="14.432328208967048" lon="120.95466763967138"><ele>11.0</ele><time>2026-04-20T06:34:13.003Z</time></trkpt><trkpt lat="14.432407042564085" lon="120.95456040613459"><ele>11.0</ele><time>2026-04-20T06:34:14.003Z</time></trkpt><trkpt lat="14.432466093439336" lon="120.95444985609473"><ele>11.0</ele><time>2026-04-20T06:34:15.001Z</time></trkpt><trkpt lat="14.432515536109648" lon="120.95431445974276"><ele>11.0</ele><time>2026-04-20T06:34:16.001Z</time></trkpt><trkpt lat="14.432558518203557" lon="120.95417901553901"><ele>11.0</ele><time>2026-04-20T06:34:17.001Z</time></trkpt><trkpt lat="14.432599849480015" lon="120.95405977314017"><ele>11.0</ele><time>2026-04-20T06:34:18.001Z</time></trkpt><trkpt lat="14.432637516538025" lon="120.95393246333767"><ele>11.0</ele><time>2026-04-20T06:34:19.001Z</time></trkpt><trkpt lat="14.432664588279524" lon="120.9538003096443"><ele>11.0</ele><time>2026-04-20T06:34:20.001Z</time></trkpt><trkpt lat="14.432672404338385" lon="120.95367995791302"><ele>11.0</ele><time>2026-04-20T06:34:21.001Z</time></trkpt><trkpt lat="14.43266066131088" lon="120.9535607300788"><ele>11.0</ele><time>2026-04-20T06:34:22.001Z</time></trkpt><trkpt lat="14.432632451511704" lon="120.95344227699474"><ele>11.0</ele><time>2026-04-20T06:34:23.001Z</time></trkpt><trkpt lat="14.43260157393455" lon="120.95331345542905"><ele>11.0</ele><time>2026-04-20T06:34:24.001Z</time></trkpt><trkpt lat="14.432594032470714" lon="120.9531922184153"><ele>11.25</ele><time>2026-04-20T06:34:25.001Z</time></trkpt><trkpt lat="14.432597792952265" lon="120.95305379619693"><ele>11.5</ele><time>2026-04-20T06:34:26.001Z</time></trkpt><trkpt lat="14.432603853918227" lon="120.95291027955065"><ele>11.75</ele><time>2026-04-20T06:34:27.001Z</time></trkpt><trkpt lat="14.43259455160434" lon="120.95276322624846"><ele>12.0</ele><time>2026-04-20T06:34:28.001Z</time></trkpt><trkpt lat="14.432579233061508" lon="120.95260678633669"><ele>11.666666666666666</ele><time>2026-04-20T06:34:29.001Z</time></trkpt><trkpt lat="14.432553416390762" lon="120.95244209500504"><ele>11.333333333333332</ele><time>2026-04-20T06:34:30.001Z</time></trkpt><trkpt lat="14.432529869599449" lon="120.95227502221478"><ele>11.0</ele><time>2026-04-20T06:34:31.001Z</time></trkpt><trkpt lat="14.43251965362149" lon="120.9521006778196"><ele>11.0</ele><time>2026-04-20T06:34:32.001Z</time></trkpt><trkpt lat="14.432514627630887" lon="120.95192394115215"><ele>11.0</ele><time>2026-04-20T06:34:33.001Z</time></trkpt><trkpt lat="14.432519775495985" lon="120.95174453301962"><ele>11.0</ele><time>2026-04-20T06:34:34.001Z</time></trkpt><trkpt lat="14.432535790209553" lon="120.95155668191167"><ele>11.0</ele><time>2026-04-20T06:34:35.001Z</time></trkpt><trkpt lat="14.4325509937191" lon="120.95137150984512"><ele>11.0</ele><time>2026-04-20T06:34:36.001Z</time></trkpt><trkpt lat="14.432559378211389" lon="120.95119045658728"><ele>11.0</ele><time>2026-04-20T06:34:37.001Z</time></trkpt><trkpt lat="14.432564297860392" lon="120.95101416212823"><ele>11.0</ele><time>2026-04-20T06:34:38.001Z</time></trkpt><trkpt lat="14.432560718760529" lon="120.95083521036025"><ele>11.0</ele><time>2026-04-20T06:34:39.001Z</time></trkpt><trkpt lat="14.432550120364478" lon="120.95065620255176"><ele>11.0</ele><time>2026-04-20T06:34:40.001Z</time></trkpt><trkpt lat="14.432526652244446" lon="120.95047773379375"><ele>11.0</ele><time>2026-04-20T06:34:41.001Z</time></trkpt><trkpt lat="14.432496132958857" lon="120.9502950569412"><ele>11.0</ele><time>2026-04-20T06:34:42.001Z</time></trkpt><trkpt lat="14.432466705684526" lon="120.95011196319477"><ele>11.0</ele><time>2026-04-20T06:34:43.001Z</time></trkpt><trkpt lat="14.432431935649676" lon="120.9499331180855"><ele>11.333333333333332</ele><time>2026-04-20T06:34:44.001Z</time></trkpt><trkpt lat="14.432392729334726" lon="120.94976193323289"><ele>11.666666666666666</ele><time>2026-04-20T06:34:45.001Z</time></trkpt><trkpt lat="14.432360713347133" lon="120.94960010457086"><ele>12.0</ele><time>2026-04-20T06:34:46.001Z</time></trkpt><trkpt lat="14.432336869329863" lon="120.94944575568758"><ele>12.0</ele><time>2026-04-20T06:34:47.001Z</time></trkpt><trkpt lat="14.432321311650808" lon="120.94929664750549"><ele>12.0</ele><time>2026-04-20T06:34:48.001Z</time></trkpt><trkpt lat="14.432327063973826" lon="120.94915051672974"><ele>12.0</ele><time>2026-04-20T06:34:49.001Z</time></trkpt><trkpt lat="14.432336592903539" lon="120.94899705077752"><ele>12.0</ele><time>2026-04-20T06:34:50.001Z</time></trkpt><trkpt lat="14.432332380699654" lon="120.94886645636973"><ele>12.0</ele><time>2026-04-20T06:34:51.001Z</time></trkpt><trkpt lat="14.432327629960394" lon="120.94871590812645"><ele>12.0</ele><time>2026-04-20T06:34:52.001Z</time></trkpt><trkpt lat="14.432311974609057" lon="120.94858269011073"><ele>12.0</ele><time>2026-04-20T06:34:53.001Z</time></trkpt><trkpt lat="14.432294981220876" lon="120.94845291839106"><ele>12.0</ele><time>2026-04-20T06:34:54.001Z</time></trkpt><trkpt lat="14.432283004186688" lon="120.94833413888058"><ele>11.5</ele><time>2026-04-20T06:34:55.001Z</time></trkpt><trkpt lat="14.432269361901751" lon="120.94821239554884"><ele>11.0</ele><time>2026-04-20T06:34:56.001Z</time></trkpt><trkpt lat="14.43226337795621" lon="120.94807697250282"><ele>10.5</ele><time>2026-04-20T06:34:57.001Z</time></trkpt><trkpt lat="14.432258162460455" lon="120.94794186697978"><ele>10.0</ele><time>2026-04-20T06:34:58.001Z</time></trkpt><trkpt lat="14.432250340836907" lon="120.9478265415398"><ele>10.0</ele><time>2026-04-20T06:34:59.001Z</time></trkpt><trkpt lat="14.43224463985868" lon="120.9477057495849"><ele>10.0</ele><time>2026-04-20T06:35:00.001Z</time></trkpt><trkpt lat="14.432243991082778" lon="120.94759267688922"><ele>10.0</ele><time>2026-04-20T06:35:01.001Z</time></trkpt><trkpt lat="14.432244126482809" lon="120.94748882507682"><ele>10.0</ele><time>2026-04-20T06:35:02.001Z</time></trkpt><trkpt lat="14.432245182560788" lon="120.9473961596345"><ele>10.0</ele><time>2026-04-20T06:35:03.001Z</time></trkpt><trkpt lat="14.43224238493013" lon="120.94730310025267"><ele>11.0</ele><time>2026-04-20T06:35:04.001Z</time></trkpt><trkpt lat="14.432238780461676" lon="120.94717691724792"><ele>12.0</ele><time>2026-04-20T06:35:06.001Z</time></trkpt><trkpt lat="14.432233684287011" lon="120.94707648489276"><ele>13.0</ele><time>2026-04-20T06:35:08.001Z</time></trkpt><trkpt lat="14.432248462258755" lon="120.94697811666765"><ele>14.0</ele><time>2026-04-20T06:35:10.001Z</time></trkpt><trkpt lat="14.432300808561651" lon="120.94691006775129"><ele>15.0</ele><time>2026-04-20T06:35:12.001Z</time></trkpt><trkpt lat="14.432378671569868" lon="120.94687629222601"><ele>15.0</ele><time>2026-04-20T06:35:14.001Z</time></trkpt><trkpt lat="14.432463316419279" lon="120.94689290798605"><ele>15.0</ele><time>2026-04-20T06:35:16.001Z</time></trkpt><trkpt lat="14.432524968157253" lon="120.94691633439245"><ele>15.0</ele><time>2026-04-20T06:35:17.001Z</time></trkpt><trkpt lat="14.432599222180366" lon="120.946946168056"><ele>15.0</ele><time>2026-04-20T06:35:18.001Z</time></trkpt><trkpt lat="14.432687418073062" lon="120.94698034951479"><ele>15.0</ele><time>2026-04-20T06:35:19.001Z</time></trkpt><trkpt lat="14.432771799185582" lon="120.94701991732882"><ele>15.0</ele><time>2026-04-20T06:35:20.001Z</time></trkpt><trkpt lat="14.432862924412044" lon="120.94706306005774"><ele>15.0</ele><time>2026-04-20T06:35:21.001Z</time></trkpt><trkpt lat="14.432961277739775" lon="120.94710774130381"><ele>15.0</ele><time>2026-04-20T06:35:22.001Z</time></trkpt><trkpt lat="14.433061649264092" lon="120.94715100045362"><ele>15.0</ele><time>2026-04-20T06:35:23.001Z</time></trkpt><trkpt lat="14.433163158814601" lon="120.94719738080337"><ele>15.0</ele><time>2026-04-20T06:35:24.001Z</time></trkpt><trkpt lat="14.43326741008588" lon="120.94724266338193"><ele>15.0</ele><time>2026-04-20T06:35:25.001Z</time></trkpt><trkpt lat="14.433361257854441" lon="120.94728992510939"><ele>14.2</ele><time>2026-04-20T06:35:26.001Z</time></trkpt><trkpt lat="14.433460753433085" lon="120.94733652525004"><ele>13.4</ele><time>2026-04-20T06:35:27.001Z</time></trkpt><trkpt lat="14.433550719206254" lon="120.94738103028652"><ele>12.600000000000001</ele><time>2026-04-20T06:35:28.001Z</time></trkpt><trkpt lat="14.433645368361558" lon="120.94742378299483"><ele>11.8</ele><time>2026-04-20T06:35:29.002Z</time></trkpt><trkpt lat="14.433740624236822" lon="120.94746415189327"><ele>11.0</ele><time>2026-04-20T06:35:30.002Z</time></trkpt><trkpt lat="14.43384710998723" lon="120.94750558674792"><ele>11.0</ele><time>2026-04-20T06:35:31.002Z</time></trkpt><trkpt lat="14.433954887022901" lon="120.94755423540614"><ele>11.0</ele><time>2026-04-20T06:35:32.002Z</time></trkpt><trkpt lat="14.434069065031556" lon="120.94760486386758"><ele>11.0</ele><time>2026-04-20T06:35:33.002Z</time></trkpt><trkpt lat="14.434180845878902" lon="120.94765649314287"><ele>11.0</ele><time>2026-04-20T06:35:34.002Z</time></trkpt><trkpt lat="14.434286808964526" lon="120.94771025421495"><ele>11.0</ele><time>2026-04-20T06:35:35.002Z</time></trkpt><trkpt lat="14.434401654922878" lon="120.94775843434537"><ele>11.0</ele><time>2026-04-20T06:35:36.002Z</time></trkpt><trkpt lat="14.434494861492377" lon="120.94780660161857"><ele>11.0</ele><time>2026-04-20T06:35:37.002Z</time></trkpt><trkpt lat="14.43458425517369" lon="120.94784965440269"><ele>11.0</ele><time>2026-04-20T06:35:38.002Z</time></trkpt><trkpt lat="14.434676051777386" lon="120.94789172903256"><ele>11.0</ele><time>2026-04-20T06:35:39.002Z</time></trkpt><trkpt lat="14.434771314451464" lon="120.94793811733972"><ele>11.0</ele><time>2026-04-20T06:35:40.002Z</time></trkpt><trkpt lat="14.43488471431827" lon="120.94798973741183"><ele>11.0</ele><time>2026-04-20T06:35:41.002Z</time></trkpt><trkpt lat="14.434990813106538" lon="120.94803885996515"><ele>11.0</ele><time>2026-04-20T06:35:42.002Z</time></trkpt><trkpt lat="14.43508930405404" lon="120.9480829619264"><ele>11.0</ele><time>2026-04-20T06:35:43.002Z</time></trkpt><trkpt lat="14.43518721386771" lon="120.94812895409731"><ele>11.0</ele><time>2026-04-20T06:35:44.002Z</time></trkpt><trkpt lat="14.43529124096835" lon="120.94817823979866"><ele>11.0</ele><time>2026-04-20T06:35:45.002Z</time></trkpt><trkpt lat="14.435383491992145" lon="120.94822997250823"><ele>11.0</ele><time>2026-04-20T06:35:46.002Z</time></trkpt><trkpt lat="14.435484443293014" lon="120.9482892635991"><ele>11.0</ele><time>2026-04-20T06:35:47.002Z</time></trkpt><trkpt lat="14.435589465582176" lon="120.94835359482099"><ele>10.5</ele><time>2026-04-20T06:35:48.002Z</time></trkpt><trkpt lat="14.43571862269984" lon="120.94840926605174"><ele>10.0</ele><time>2026-04-20T06:35:49.002Z</time></trkpt><trkpt lat="14.43584401257993" lon="120.94846678640798"><ele>9.5</ele><time>2026-04-20T06:35:50.002Z</time></trkpt><trkpt lat="14.435943061915292" lon="120.9485157137719"><ele>9.0</ele><time>2026-04-20T06:35:51.002Z</time></trkpt><trkpt lat="14.436022890108879" lon="120.94855772369702"><ele>9.0</ele><time>2026-04-20T06:35:52.002Z</time></trkpt><trkpt lat="14.436105575127609" lon="120.94860359416097"><ele>9.0</ele><time>2026-04-20T06:35:53.002Z</time></trkpt><trkpt lat="14.436195858212107" lon="120.9486464171458"><ele>9.0</ele><time>2026-04-20T06:35:54.002Z</time></trkpt><trkpt lat="14.436304846248833" lon="120.94869669297984"><ele>9.0</ele><time>2026-04-20T06:35:55.002Z</time></trkpt><trkpt lat="14.436415400979255" lon="120.94874947204367"><ele>9.0</ele><time>2026-04-20T06:35:56.002Z</time></trkpt><trkpt lat="14.436533466134481" lon="120.94880081036098"><ele>9.0</ele><time>2026-04-20T06:35:57.002Z</time></trkpt><trkpt lat="14.436650756219336" lon="120.94885397801113"><ele>9.0</ele><time>2026-04-20T06:35:58.002Z</time></trkpt><trkpt lat="14.436758857565708" lon="120.94890492784505"><ele>9.0</ele><time>2026-04-20T06:35:59.002Z</time></trkpt><trkpt lat="14.436862579719167" lon="120.94895064372237"><ele>9.0</ele><time>2026-04-20T06:36:00.002Z</time></trkpt><trkpt lat="14.436956614646085" lon="120.94899099257087"><ele>9.0</ele><time>2026-04-20T06:36:01.002Z</time></trkpt><trkpt lat="14.437050756750718" lon="120.94903004731026"><ele>9.0</ele><time>2026-04-20T06:36:02.002Z</time></trkpt><trkpt lat="14.437147116611548" lon="120.94906886167121"><ele>9.0</ele><time>2026-04-20T06:36:03.002Z</time></trkpt><trkpt lat="14.437246368690792" lon="120.94911146612833"><ele>9.0</ele><time>2026-04-20T06:36:04.002Z</time></trkpt><trkpt lat="14.437356899342507" lon="120.94915645860355"><ele>9.0</ele><time>2026-04-20T06:36:05.002Z</time></trkpt><trkpt lat="14.43747237267144" lon="120.94920455208998"><ele>9.0</ele><time>2026-04-20T06:36:06.002Z</time></trkpt><trkpt lat="14.43758443624916" lon="120.94925601363936"><ele>9.0</ele><time>2026-04-20T06:36:07.002Z</time></trkpt><trkpt lat="14.437700573666264" lon="120.94931296699362"><ele>9.0</ele><time>2026-04-20T06:36:08.002Z</time></trkpt><trkpt lat="14.437808480526952" lon="120.94936621793317"><ele>9.0</ele><time>2026-04-20T06:36:09.002Z</time></trkpt><trkpt lat="14.437912614872442" lon="120.94941951217042"><ele>9.2</ele><time>2026-04-20T06:36:10.002Z</time></trkpt><trkpt lat="14.438013630373964" lon="120.94946949522172"><ele>9.4</ele><time>2026-04-20T06:36:11.002Z</time></trkpt><trkpt lat="14.438111408080049" lon="120.94952356295063"><ele>9.6</ele><time>2026-04-20T06:36:12.002Z</time></trkpt><trkpt lat="14.438206339614405" lon="120.94957001574508"><ele>9.8</ele><time>2026-04-20T06:36:13.002Z</time></trkpt><trkpt lat="14.438291626607983" lon="120.94961366671492"><ele>10.0</ele><time>2026-04-20T06:36:14.002Z</time></trkpt><trkpt lat="14.438375828672854" lon="120.94965721636784"><ele>10.0</ele><time>2026-04-20T06:36:15.002Z</time></trkpt><trkpt lat="14.438454967701666" lon="120.94969639533463"><ele>10.0</ele><time>2026-04-20T06:36:16.002Z</time></trkpt><trkpt lat="14.438526021042088" lon="120.9497324469309"><ele>10.0</ele><time>2026-04-20T06:36:17.002Z</time></trkpt><trkpt lat="14.438595705274016" lon="120.94976525492497"><ele>10.0</ele><time>2026-04-20T06:36:18.002Z</time></trkpt><trkpt lat="14.438666612137707" lon="120.94980055071369"><ele>10.0</ele><time>2026-04-20T06:36:19.002Z</time></trkpt><trkpt lat="14.438744827233057" lon="120.9498348573423"><ele>10.0</ele><time>2026-04-20T06:36:20.002Z</time></trkpt><trkpt lat="14.438822511793578" lon="120.94987015416027"><ele>10.0</ele><time>2026-04-20T06:36:21.001Z</time></trkpt><trkpt lat="14.438888605700782" lon="120.94990146239624"><ele>10.0</ele><time>2026-04-20T06:36:22.001Z</time></trkpt><trkpt lat="14.438951949464704" lon="120.94993237872905"><ele>10.0</ele><time>2026-04-20T06:36:23.001Z</time></trkpt><trkpt lat="14.43902420166851" lon="120.94996569917357"><ele>10.0</ele><time>2026-04-20T06:36:24.001Z</time></trkpt><trkpt lat="14.439097297704063" lon="120.94999942032797"><ele>10.0</ele><time>2026-04-20T06:36:25.001Z</time></trkpt><trkpt lat="14.43917578719458" lon="120.95003400717812"><ele>10.0</ele><time>2026-04-20T06:36:26.001Z</time></trkpt><trkpt lat="14.439271518863551" lon="120.95006981968857"><ele>9.8</ele><time>2026-04-20T06:36:27.001Z</time></trkpt><trkpt lat="14.439377390030959" lon="120.95011040071866"><ele>9.6</ele><time>2026-04-20T06:36:28.001Z</time></trkpt><trkpt lat="14.439470645638687" lon="120.95014998446459"><ele>9.4</ele><time>2026-04-20T06:36:29.001Z</time></trkpt><trkpt lat="14.439560106425652" lon="120.95019101656453"><ele>9.2</ele><time>2026-04-20T06:36:30.001Z</time></trkpt><trkpt lat="14.439631376285552" lon="120.95022884349937"><ele>9.0</ele><time>2026-04-20T06:36:31.001Z</time></trkpt><trkpt lat="14.43970237536853" lon="120.95025797195815"><ele>8.8</ele><time>2026-04-20T06:36:32.001Z</time></trkpt><trkpt lat="14.43980306410439" lon="120.95030061021636"><ele>8.600000000000001</ele><time>2026-04-20T06:36:34.001Z</time></trkpt><trkpt lat="14.4398764723568" lon="120.95032924645338"><ele>8.4</ele><time>2026-04-20T06:36:36.001Z</time></trkpt><trkpt lat="14.439964779055263" lon="120.95036211964833"><ele>8.200000000000001</ele><time>2026-04-20T06:36:39.001Z</time></trkpt><trkpt lat="14.440039154364275" lon="120.9503951031376"><ele>8.0</ele><time>2026-04-20T06:36:41.001Z</time></trkpt><trkpt lat="14.440113299302224" lon="120.95044951997284"><ele>8.0</ele><time>2026-04-20T06:36:43.001Z</time></trkpt><trkpt lat="14.44019855683828" lon="120.95050734304866"><ele>8.0</ele><time>2026-04-20T06:36:45.001Z</time></trkpt><trkpt lat="14.440272493694234" lon="120.95054353865588"><ele>8.0</ele><time>2026-04-20T06:36:46.001Z</time></trkpt><trkpt lat="14.440353660556726" lon="120.95058423435691"><ele>8.0</ele><time>2026-04-20T06:36:47.001Z</time></trkpt><trkpt lat="14.440445956535326" lon="120.95062229344106"><ele>8.0</ele><time>2026-04-20T06:36:48.001Z</time></trkpt><trkpt lat="14.440530929642685" lon="120.95065671646101"><ele>8.0</ele><time>2026-04-20T06:36:49.001Z</time></trkpt><trkpt lat="14.440629230616446" lon="120.95069217318537"><ele>8.0</ele><time>2026-04-20T06:36:50.001Z</time></trkpt><trkpt lat="14.440719667210729" lon="120.95073640939094"><ele>8.0</ele><time>2026-04-20T06:36:51.001Z</time></trkpt><trkpt lat="14.440820281275025" lon="120.95078165853033"><ele>8.0</ele><time>2026-04-20T06:36:52.001Z</time></trkpt><trkpt lat="14.440914922472583" lon="120.95082671496888"><ele>8.0</ele><time>2026-04-20T06:36:53.001Z</time></trkpt><trkpt lat="14.441021656226543" lon="120.95087974112232"><ele>8.0</ele><time>2026-04-20T06:36:54.001Z</time></trkpt><trkpt lat="14.44112675732137" lon="120.95093365088411"><ele>8.0</ele><time>2026-04-20T06:36:55.001Z</time></trkpt><trkpt lat="14.44123829493133" lon="120.95098794728462"><ele>8.0</ele><time>2026-04-20T06:36:56.001Z</time></trkpt><trkpt lat="14.441349622786637" lon="120.95104254079718"><ele>8.0</ele><time>2026-04-20T06:36:57.001Z</time></trkpt><trkpt lat="14.441469210203799" lon="120.95109060324219"><ele>8.0</ele><time>2026-04-20T06:36:58.001Z</time></trkpt><trkpt lat="14.441596182830823" lon="120.9511384815763"><ele>8.0</ele><time>2026-04-20T06:36:59.001Z</time></trkpt><trkpt lat="14.441699466170775" lon="120.9511967061299"><ele>8.0</ele><time>2026-04-20T06:37:00.001Z</time></trkpt><trkpt lat="14.441789055732746" lon="120.95123596086516"><ele>8.0</ele><time>2026-04-20T06:37:01.001Z</time></trkpt><trkpt lat="14.441876417423009" lon="120.95127392105101"><ele>8.0</ele><time>2026-04-20T06:37:02.001Z</time></trkpt><trkpt lat="14.441946724510112" lon="120.95130676031629"><ele>8.0</ele><time>2026-04-20T06:37:03.001Z</time></trkpt><trkpt lat="14.442052271364146" lon="120.95135156842751"><ele>8.0</ele><time>2026-04-20T06:37:05.001Z</time></trkpt><trkpt lat="14.442149609741454" lon="120.95140197496674"><ele>8.0</ele><time>2026-04-20T06:37:07.001Z</time></trkpt><trkpt lat="14.442239683608259" lon="120.95144399691452"><ele>8.0</ele><time>2026-04-20T06:37:09.001Z</time></trkpt><trkpt lat="14.442312991103817" lon="120.95147844725278"><ele>8.0</ele><time>2026-04-20T06:37:11.001Z</time></trkpt><trkpt lat="14.442381388050293" lon="120.95151338096478"><ele>8.166666666666666</ele><time>2026-04-20T06:37:14.001Z</time></trkpt><trkpt lat="14.442457738267386" lon="120.95155446249105"><ele>8.333333333333332</ele><time>2026-04-20T06:37:17.001Z</time></trkpt><trkpt lat="14.442534053566844" lon="120.9516088493064"><ele>8.5</ele><time>2026-04-20T06:37:19.001Z</time></trkpt><trkpt lat="14.442612940933893" lon="120.95163888723806"><ele>8.666666666666666</ele><time>2026-04-20T06:37:21.001Z</time></trkpt><trkpt lat="14.442676502061431" lon="120.95168442564534"><ele>8.833333333333334</ele><time>2026-04-20T06:37:29.001Z</time></trkpt><trkpt lat="14.442738217254284" lon="120.95171652691889"><ele>9.0</ele><time>2026-04-20T06:37:32.001Z</time></trkpt><trkpt lat="14.44282349628618" lon="120.9517698553396"><ele>9.0</ele><time>2026-04-20T06:37:34.001Z</time></trkpt><trkpt lat="14.442929650887363" lon="120.95182121286"><ele>9.0</ele><time>2026-04-20T06:37:36.001Z</time></trkpt><trkpt lat="14.44303133957784" lon="120.95186438728301"><ele>9.0</ele><time>2026-04-20T06:37:38.001Z</time></trkpt><trkpt lat="14.443102984234528" lon="120.95190630236094"><ele>9.0</ele><time>2026-04-20T06:37:40.002Z</time></trkpt><trkpt lat="14.44316318785578" lon="120.95193827608605"><ele>9.0</ele><time>2026-04-20T06:37:43.002Z</time></trkpt><trkpt lat="14.443232178895148" lon="120.95197724023565"><ele>9.0</ele><time>2026-04-20T06:37:45.002Z</time></trkpt><trkpt lat="14.44334123934394" lon="120.9520052998733"><ele>9.0</ele><time>2026-04-20T06:37:47.002Z</time></trkpt><trkpt lat="14.443424074575523" lon="120.95204995310618"><ele>9.0</ele><time>2026-04-20T06:37:49.002Z</time></trkpt><trkpt lat="14.44351378409788" lon="120.95211684151106"><ele>9.0</ele><time>2026-04-20T06:37:51.002Z</time></trkpt><trkpt lat="14.44360225539071" lon="120.95215776251513"><ele>9.0</ele><time>2026-04-20T06:37:53.002Z</time></trkpt><trkpt lat="14.443683446196328" lon="120.9521915015983"><ele>9.0</ele><time>2026-04-20T06:37:55.002Z</time></trkpt><trkpt lat="14.443744534437858" lon="120.9522116861687"><ele>9.0</ele><time>2026-04-20T06:37:58.002Z</time></trkpt><trkpt lat="14.443810597328453" lon="120.95223438167288"><ele>9.0</ele><time>2026-04-20T06:38:09.002Z</time></trkpt><trkpt lat="14.443886395026315" lon="120.95226071828516"><ele>9.0</ele><time>2026-04-20T06:38:11.002Z</time></trkpt><trkpt lat="14.443946592300648" lon="120.95232362899019"><ele>9.0</ele><time>2026-04-20T06:38:13.002Z</time></trkpt><trkpt lat="14.444041654537141" lon="120.9523645749697"><ele>9.0</ele><time>2026-04-20T06:38:18.002Z</time></trkpt><trkpt lat="14.444113741647783" lon="120.95238482159111"><ele>9.0</ele><time>2026-04-20T06:38:19.002Z</time></trkpt><trkpt lat="14.444209800229396" lon="120.9524139779056"><ele>9.0</ele><time>2026-04-20T06:38:21.002Z</time></trkpt><trkpt lat="14.444326694426586" lon="120.95245206633905"><ele>9.0</ele><time>2026-04-20T06:38:23.002Z</time></trkpt><trkpt lat="14.444397701585418" lon="120.95248090902473"><ele>9.0</ele><time>2026-04-20T06:38:24.002Z</time></trkpt><trkpt lat="14.444483608979226" lon="120.95251665621122"><ele>9.0</ele><time>2026-04-20T06:38:25.002Z</time></trkpt><trkpt lat="14.444550378107184" lon="120.95255357869007"><ele>9.166666666666666</ele><time>2026-04-20T06:38:26.002Z</time></trkpt><trkpt lat="14.444616784320917" lon="120.95258699114265"><ele>9.333333333333334</ele><time>2026-04-20T06:38:27Z</time></trkpt><trkpt lat="14.444684549105599" lon="120.9526163768269"><ele>9.5</ele><time>2026-04-20T06:38:28Z</time></trkpt><trkpt lat="14.44475073293894" lon="120.9526466448273"><ele>9.666666666666668</ele><time>2026-04-20T06:38:29Z</time></trkpt><trkpt lat="14.444813944631589" lon="120.95268315848277"><ele>9.833333333333334</ele><time>2026-04-20T06:38:30Z</time></trkpt><trkpt lat="14.444872155096506" lon="120.95270986801397"><ele>10.0</ele><time>2026-04-20T06:38:31Z</time></trkpt><trkpt lat="14.444963426200394" lon="120.95275579571393"><ele>10.0</ele><time>2026-04-20T06:38:33Z</time></trkpt><trkpt lat="14.445036712345601" lon="120.95278525881339"><ele>10.0</ele><time>2026-04-20T06:38:35Z</time></trkpt><trkpt lat="14.445119226771807" lon="120.95280796816361"><ele>10.0</ele><time>2026-04-20T06:40:15.002Z</time></trkpt><trkpt lat="14.44522064645229" lon="120.95280084888023"><ele>10.0</ele><time>2026-04-20T06:40:17.002Z</time></trkpt><trkpt lat="14.445317899730322" lon="120.95275834168439"><ele>10.0</ele><time>2026-04-20T06:40:19.002Z</time></trkpt><trkpt lat="14.445379908080337" lon="120.95271472051716"><ele>10.0</ele><time>2026-04-20T06:40:20.002Z</time></trkpt><trkpt lat="14.445438064214441" lon="120.95266414036941"><ele>10.0</ele><time>2026-04-20T06:40:21.002Z</time></trkpt><trkpt lat="14.445493964657848" lon="120.95260681224525"><ele>10.0</ele><time>2026-04-20T06:40:22.002Z</time></trkpt><trkpt lat="14.445443468796375" lon="120.95252170430673"><ele>10.0</ele><time>2026-04-20T06:40:23.002Z</time></trkpt><trkpt lat="14.445464518580271" lon="120.95241643939428"><ele>10.0</ele><time>2026-04-20T06:40:24.002Z</time></trkpt><trkpt lat="14.445479407338444" lon="120.95229574133191"><ele>10.0</ele><time>2026-04-20T06:40:25.002Z</time></trkpt><trkpt lat="14.445502102307524" lon="120.95217027011593"><ele>10.0</ele><time>2026-04-20T06:40:26.002Z</time></trkpt><trkpt lat="14.445527609728323" lon="120.95204387568988"><ele>10.0</ele><time>2026-04-20T06:40:27.002Z</time></trkpt><trkpt lat="14.445554534595809" lon="120.95191760081933"><ele>10.0</ele><time>2026-04-20T06:40:28.002Z</time></trkpt><trkpt lat="14.445577493512017" lon="120.95179425115332"><ele>10.0</ele><time>2026-04-20T06:40:29.002Z</time></trkpt><trkpt lat="14.44560148511373" lon="120.95167423576234"><ele>10.0</ele><time>2026-04-20T06:40:30.002Z</time></trkpt><trkpt lat="14.445631586562136" lon="120.9515482386551"><ele>10.0</ele><time>2026-04-20T06:40:31.002Z</time></trkpt><trkpt lat="14.445660655987313" lon="120.95141383021853"><ele>10.0</ele><time>2026-04-20T06:40:32.002Z</time></trkpt><trkpt lat="14.445690600552537" lon="120.95128143626258"><ele>10.0</ele><time>2026-04-20T06:40:33Z</time></trkpt><trkpt lat="14.445714302811995" lon="120.95115539564328"><ele>10.0</ele><time>2026-04-20T06:40:34Z</time></trkpt><trkpt lat="14.445741318013802" lon="120.95103922059769"><ele>10.0</ele><time>2026-04-20T06:40:35Z</time></trkpt><trkpt lat="14.445762843926454" lon="120.95092954124826"><ele>10.0</ele><time>2026-04-20T06:40:36Z</time></trkpt><trkpt lat="14.445785450793029" lon="120.95081298829842"><ele>10.0</ele><time>2026-04-20T06:40:37Z</time></trkpt><trkpt lat="14.445809620535163" lon="120.95069563100702"><ele>10.0</ele><time>2026-04-20T06:40:38Z</time></trkpt><trkpt lat="14.445831999739896" lon="120.95057137577658"><ele>10.0</ele><time>2026-04-20T06:40:39Z</time></trkpt><trkpt lat="14.445851768958798" lon="120.95044836601541"><ele>10.0</ele><time>2026-04-20T06:40:40Z</time></trkpt><trkpt lat="14.445874533674504" lon="120.95033620630079"><ele>10.0</ele><time>2026-04-20T06:40:41Z</time></trkpt><trkpt lat="14.44589832367607" lon="120.95024222845903"><ele>10.0</ele><time>2026-04-20T06:40:42Z</time></trkpt><trkpt lat="14.445921935749926" lon="120.9501620858527"><ele>10.0</ele><time>2026-04-20T06:40:43Z</time></trkpt><trkpt lat="14.445940295124789" lon="120.95009071898556"><ele>10.0</ele><time>2026-04-20T06:40:44Z</time></trkpt><trkpt lat="14.445956537435553" lon="120.94997865614278"><ele>10.0</ele><time>2026-04-20T06:40:47Z</time></trkpt><trkpt lat="14.445970925414048" lon="120.94990857216034"><ele>10.0</ele><time>2026-04-20T06:40:48Z</time></trkpt><trkpt lat="14.445987857408666" lon="120.94982676543647"><ele>10.0</ele><time>2026-04-20T06:40:49Z</time></trkpt><trkpt lat="14.446010888405944" lon="120.94973813180749"><ele>10.0</ele><time>2026-04-20T06:40:50Z</time></trkpt><trkpt lat="14.446034963534869" lon="120.94964297452877"><ele>9.8</ele><time>2026-04-20T06:40:51Z</time></trkpt><trkpt lat="14.446056954188803" lon="120.94954098556684"><ele>9.6</ele><time>2026-04-20T06:40:52Z</time></trkpt><trkpt lat="14.446077095113704" lon="120.9494333291979"><ele>9.4</ele><time>2026-04-20T06:40:53Z</time></trkpt><trkpt lat="14.446098325084838" lon="120.9493272511657"><ele>9.2</ele><time>2026-04-20T06:40:54Z</time></trkpt><trkpt lat="14.446117295364866" lon="120.94921719424957"><ele>9.0</ele><time>2026-04-20T06:40:55Z</time></trkpt><trkpt lat="14.446134864915377" lon="120.94912101106176"><ele>8.666666666666666</ele><time>2026-04-20T06:40:56Z</time></trkpt><trkpt lat="14.446154102200778" lon="120.94902789145274"><ele>8.333333333333334</ele><time>2026-04-20T06:40:57Z</time></trkpt><trkpt lat="14.446176528382555" lon="120.94893468503527"><ele>8.0</ele><time>2026-04-20T06:40:58Z</time></trkpt><trkpt lat="14.446197613948556" lon="120.94884266797771"><ele>7.666666666666667</ele><time>2026-04-20T06:40:59Z</time></trkpt><trkpt lat="14.446216028031314" lon="120.94875715399374"><ele>7.333333333333334</ele><time>2026-04-20T06:41:00Z</time></trkpt><trkpt lat="14.446232028471028" lon="120.94867113413683"><ele>7.0</ele><time>2026-04-20T06:41:01Z</time></trkpt><trkpt lat="14.446249032342358" lon="120.94857954735485"><ele>7.0</ele><time>2026-04-20T06:41:02Z</time></trkpt><trkpt lat="14.446269559588893" lon="120.94847856551911"><ele>6.999999999999999</ele><time>2026-04-20T06:41:03Z</time></trkpt><trkpt lat="14.446291760538498" lon="120.94837240542206"><ele>6.999999999999999</ele><time>2026-04-20T06:41:04Z</time></trkpt><trkpt lat="14.446315246319172" lon="120.94826070659894"><ele>7.0</ele><time>2026-04-20T06:41:05Z</time></trkpt><trkpt lat="14.446338007620838" lon="120.94814789737089"><ele>7.0</ele><time>2026-04-20T06:41:06Z</time></trkpt><trkpt lat="14.44636037215386" lon="120.94804397785174"><ele>7.199999999999999</ele><time>2026-04-20T06:41:07Z</time></trkpt><trkpt lat="14.44638230675693" lon="120.94794084796636"><ele>7.3999999999999995</ele><time>2026-04-20T06:41:08Z</time></trkpt><trkpt lat="14.446401251706888" lon="120.94783897048495"><ele>7.6000000000000005</ele><time>2026-04-20T06:41:09Z</time></trkpt><trkpt lat="14.446422380122463" lon="120.94773463308647"><ele>7.800000000000001</ele><time>2026-04-20T06:41:10Z</time></trkpt><trkpt lat="14.446444803636911" lon="120.94763267650636"><ele>8.0</ele><time>2026-04-20T06:41:11Z</time></trkpt><trkpt lat="14.44646926809755" lon="120.94752542794168"><ele>8.0</ele><time>2026-04-20T06:41:12Z</time></trkpt><trkpt lat="14.446491536952962" lon="120.9474186001224"><ele>8.0</ele><time>2026-04-20T06:41:13Z</time></trkpt><trkpt lat="14.446516348339006" lon="120.94731031254847"><ele>8.0</ele><time>2026-04-20T06:41:14Z</time></trkpt><trkpt lat="14.446539350609036" lon="120.94720795740452"><ele>8.0</ele><time>2026-04-20T06:41:15Z</time></trkpt><trkpt lat="14.446560935581573" lon="120.94710076317338"><ele>8.0</ele><time>2026-04-20T06:41:16Z</time></trkpt><trkpt lat="14.446582304340675" lon="120.94698760724367"><ele>8.0</ele><time>2026-04-20T06:41:17Z</time></trkpt><trkpt lat="14.446609678909697" lon="120.94687357030578"><ele>8.0</ele><time>2026-04-20T06:41:18Z</time></trkpt><trkpt lat="14.44664293926042" lon="120.94674849853494"><ele>8.0</ele><time>2026-04-20T06:41:19Z</time></trkpt><trkpt lat="14.446670338431328" lon="120.94661669336507"><ele>8.0</ele><time>2026-04-20T06:41:20Z</time></trkpt><trkpt lat="14.446700766187544" lon="120.94647367834833"><ele>7.666666666666666</ele><time>2026-04-20T06:41:21Z</time></trkpt><trkpt lat="14.446734925269931" lon="120.94632349901948"><ele>7.333333333333334</ele><time>2026-04-20T06:41:22Z</time></trkpt><trkpt lat="14.446770826863755" lon="120.94617001923129"><ele>7.0</ele><time>2026-04-20T06:41:23Z</time></trkpt><trkpt lat="14.446801724289857" lon="120.94601890728973"><ele>7.333333333333334</ele><time>2026-04-20T06:41:24Z</time></trkpt><trkpt lat="14.446828861625985" lon="120.94587019249448"><ele>7.666666666666666</ele><time>2026-04-20T06:41:25Z</time></trkpt><trkpt lat="14.446861101142284" lon="120.94571427802809"><ele>8.0</ele><time>2026-04-20T06:41:26Z</time></trkpt><trkpt lat="14.446893725147909" lon="120.94555505184748"><ele>8.0</ele><time>2026-04-20T06:41:27Z</time></trkpt><trkpt lat="14.446923384044336" lon="120.94540596940051"><ele>8.0</ele><time>2026-04-20T06:41:28.001Z</time></trkpt><trkpt lat="14.446955969667178" lon="120.9452573847439"><ele>8.0</ele><time>2026-04-20T06:41:29.001Z</time></trkpt><trkpt lat="14.446986018076162" lon="120.94511158385706"><ele>8.0</ele><time>2026-04-20T06:41:30.001Z</time></trkpt><trkpt lat="14.447009960080194" lon="120.9449563441214"><ele>8.0</ele><time>2026-04-20T06:41:31.001Z</time></trkpt><trkpt lat="14.447034828399953" lon="120.94479602445205"><ele>8.0</ele><time>2026-04-20T06:41:32.001Z</time></trkpt><trkpt lat="14.447066798605942" lon="120.94463967043212"><ele>8.0</ele><time>2026-04-20T06:41:33.001Z</time></trkpt><trkpt lat="14.447100936716375" lon="120.94447985823615"><ele>7.5</ele><time>2026-04-20T06:41:34.001Z</time></trkpt><trkpt lat="14.447136931806932" lon="120.94432206576577"><ele>7.0</ele><time>2026-04-20T06:41:35.001Z</time></trkpt><trkpt lat="14.447169009805883" lon="120.94417579270413"><ele>6.5</ele><time>2026-04-20T06:41:36.001Z</time></trkpt><trkpt lat="14.447194961755844" lon="120.94403961117574"><ele>6.0</ele><time>2026-04-20T06:41:37.001Z</time></trkpt><trkpt lat="14.447219320216897" lon="120.94390985802218"><ele>6.0</ele><time>2026-04-20T06:41:38.001Z</time></trkpt><trkpt lat="14.447246853934146" lon="120.94378588908528"><ele>6.0</ele><time>2026-04-20T06:41:39.001Z</time></trkpt><trkpt lat="14.447269415150583" lon="120.94366765429984"><ele>6.0</ele><time>2026-04-20T06:41:40.001Z</time></trkpt><trkpt lat="14.44729197354523" lon="120.94355879141895"><ele>6.0</ele><time>2026-04-20T06:41:41.001Z</time></trkpt><trkpt lat="14.447312948149529" lon="120.94345966357052"><ele>6.0</ele><time>2026-04-20T06:41:42.001Z</time></trkpt><trkpt lat="14.447332040208755" lon="120.943359525153"><ele>5.8</ele><time>2026-04-20T06:41:43.001Z</time></trkpt><trkpt lat="14.447353771108078" lon="120.94325501181777"><ele>5.6</ele><time>2026-04-20T06:41:44.001Z</time></trkpt><trkpt lat="14.44737543678927" lon="120.94314901207119"><ele>5.4</ele><time>2026-04-20T06:41:45.001Z</time></trkpt><trkpt lat="14.44739486690849" lon="120.94304119458684"><ele>5.2</ele><time>2026-04-20T06:41:46.001Z</time></trkpt><trkpt lat="14.447416060291514" lon="120.9429383580643"><ele>5.0</ele><time>2026-04-20T06:41:47.001Z</time></trkpt><trkpt lat="14.447438818375337" lon="120.94283844314648"><ele>5.0</ele><time>2026-04-20T06:41:48.001Z</time></trkpt><trkpt lat="14.447459533863073" lon="120.94273923249273"><ele>5.0</ele><time>2026-04-20T06:41:49.001Z</time></trkpt><trkpt lat="14.447480199277573" lon="120.9426400030579"><ele>5.0</ele><time>2026-04-20T06:41:50.001Z</time></trkpt><trkpt lat="14.447502575005629" lon="120.94253797737917"><ele>5.0</ele><time>2026-04-20T06:41:51.001Z</time></trkpt><trkpt lat="14.447529703622324" lon="120.94242423438088"><ele>5.0</ele><time>2026-04-20T06:41:52.001Z</time></trkpt><trkpt lat="14.447558083735105" lon="120.94231905954904"><ele>5.75</ele><time>2026-04-20T06:41:53.001Z</time></trkpt><trkpt lat="14.447591729667524" lon="120.94220397912764"><ele>6.5</ele><time>2026-04-20T06:41:54.001Z</time></trkpt><trkpt lat="14.447617990152498" lon="120.94208898252838"><ele>7.25</ele><time>2026-04-20T06:41:55.001Z</time></trkpt><trkpt lat="14.44764704963818" lon="120.94196480388979"><ele>8.0</ele><time>2026-04-20T06:41:56.001Z</time></trkpt><trkpt lat="14.447671197672403" lon="120.94184777564689"><ele>8.0</ele><time>2026-04-20T06:41:57.001Z</time></trkpt><trkpt lat="14.447698833112517" lon="120.94173250417388"><ele>8.0</ele><time>2026-04-20T06:41:58.001Z</time></trkpt><trkpt lat="14.447721500911108" lon="120.94162911839291"><ele>8.0</ele><time>2026-04-20T06:41:59.001Z</time></trkpt><trkpt lat="14.447740777464471" lon="120.94153479148662"><ele>8.0</ele><time>2026-04-20T06:42:00.001Z</time></trkpt><trkpt lat="14.44775710928145" lon="120.94145197229805"><ele>8.0</ele><time>2026-04-20T06:42:01.001Z</time></trkpt><trkpt lat="14.447770368604731" lon="120.94138172676705"><ele>8.0</ele><time>2026-04-20T06:42:02.001Z</time></trkpt><trkpt lat="14.44778566779946" lon="120.9412941417061"><ele>8.0</ele><time>2026-04-20T06:42:04.001Z</time></trkpt><trkpt lat="14.447801132899832" lon="120.94120445028425"><ele>8.0</ele><time>2026-04-20T06:42:07.001Z</time></trkpt><trkpt lat="14.44783221850168" lon="120.94107314840043"><ele>8.0</ele><time>2026-04-20T06:42:09.001Z</time></trkpt><trkpt lat="14.447857738160424" lon="120.94097117185316"><ele>8.0</ele><time>2026-04-20T06:42:10.001Z</time></trkpt><trkpt lat="14.44788171396916" lon="120.94085909301445"><ele>8.0</ele><time>2026-04-20T06:42:11.001Z</time></trkpt><trkpt lat="14.447908240064084" lon="120.94074115600247"><ele>8.0</ele><time>2026-04-20T06:42:12.001Z</time></trkpt><trkpt lat="14.447940087607668" lon="120.94059850526625"><ele>8.0</ele><time>2026-04-20T06:42:13.001Z</time></trkpt><trkpt lat="14.447999370733129" lon="120.94046198134048"><ele>8.0</ele><time>2026-04-20T06:42:14.001Z</time></trkpt><trkpt lat="14.44802819342038" lon="120.94031313194868"><ele>7.666666666666666</ele><time>2026-04-20T06:42:15.001Z</time></trkpt><trkpt lat="14.448060459830966" lon="120.94015156276325"><ele>7.333333333333334</ele><time>2026-04-20T06:42:16.001Z</time></trkpt><trkpt lat="14.448089852707897" lon="120.93998942300912"><ele>7.0</ele><time>2026-04-20T06:42:17.001Z</time></trkpt><trkpt lat="14.448119947397368" lon="120.93982431838856"><ele>6.666666666666667</ele><time>2026-04-20T06:42:18.001Z</time></trkpt><trkpt lat="14.44815229602064" lon="120.93966517434531"><ele>6.333333333333334</ele><time>2026-04-20T06:42:19.001Z</time></trkpt><trkpt lat="14.44818575613942" lon="120.93950115503867"><ele>6.0</ele><time>2026-04-20T06:42:20.001Z</time></trkpt><trkpt lat="14.448223370118692" lon="120.93933360185937"><ele>6.666666666666666</ele><time>2026-04-20T06:42:21.001Z</time></trkpt><trkpt lat="14.448259863124306" lon="120.939164064766"><ele>7.333333333333333</ele><time>2026-04-20T06:42:22.001Z</time></trkpt><trkpt lat="14.448295210298669" lon="120.93899417784984"><ele>8.0</ele><time>2026-04-20T06:42:23.001Z</time></trkpt><trkpt lat="14.448329498710113" lon="120.93882937960203"><ele>8.0</ele><time>2026-04-20T06:42:24.001Z</time></trkpt><trkpt lat="14.448361775212785" lon="120.93867425105972"><ele>8.0</ele><time>2026-04-20T06:42:25.001Z</time></trkpt><trkpt lat="14.44839187069722" lon="120.93852960499152"><ele>8.0</ele><time>2026-04-20T06:42:26.001Z</time></trkpt><trkpt lat="14.448421417078888" lon="120.93838988082945"><ele>8.0</ele><time>2026-04-20T06:42:27.002Z</time></trkpt><trkpt lat="14.448451081513575" lon="120.93824951434233"><ele>7.75</ele><time>2026-04-20T06:42:28.002Z</time></trkpt><trkpt lat="14.448480866431048" lon="120.93810857776063"><ele>7.5</ele><time>2026-04-20T06:42:29.002Z</time></trkpt><trkpt lat="14.44851138063175" lon="120.93796420770879"><ele>7.25</ele><time>2026-04-20T06:42:30.002Z</time></trkpt><trkpt lat="14.448544029365197" lon="120.93780974506772"><ele>7.0</ele><time>2026-04-20T06:42:31.002Z</time></trkpt><trkpt lat="14.448577028733686" lon="120.93765317460011"><ele>7.666666666666667</ele><time>2026-04-20T06:42:32.002Z</time></trkpt><trkpt lat="14.44861051902717" lon="120.937496027885"><ele>8.333333333333334</ele><time>2026-04-20T06:42:33.002Z</time></trkpt><trkpt lat="14.4486442792561" lon="120.93733570138043"><ele>9.0</ele><time>2026-04-20T06:42:34.002Z</time></trkpt><trkpt lat="14.448678203165592" lon="120.93717477740113"><ele>9.0</ele><time>2026-04-20T06:42:35.002Z</time></trkpt><trkpt lat="14.448709850712579" lon="120.93702465173911"><ele>9.0</ele><time>2026-04-20T06:42:36.002Z</time></trkpt><trkpt lat="14.448743588675178" lon="120.93686460983038"><ele>9.0</ele><time>2026-04-20T06:42:37.002Z</time></trkpt><trkpt lat="14.448775040942573" lon="120.93671541052773"><ele>8.5</ele><time>2026-04-20T06:42:38.002Z</time></trkpt><trkpt lat="14.448803289165681" lon="120.93658141004015"><ele>8.0</ele><time>2026-04-20T06:42:39Z</time></trkpt><trkpt lat="14.448829482585667" lon="120.93645679220495"><ele>7.5</ele><time>2026-04-20T06:42:40Z</time></trkpt><trkpt lat="14.4488543906717" lon="120.93633837547989"><ele>7.0</ele><time>2026-04-20T06:42:41Z</time></trkpt><trkpt lat="14.448881103839732" lon="120.93621137709478"><ele>7.0</ele><time>2026-04-20T06:42:42Z</time></trkpt><trkpt lat="14.448906668323213" lon="120.93608302471995"><ele>7.0</ele><time>2026-04-20T06:42:43Z</time></trkpt><trkpt lat="14.448933842007865" lon="120.9359477121994"><ele>7.0</ele><time>2026-04-20T06:42:44Z</time></trkpt><trkpt lat="14.448962244338114" lon="120.9358062815763"><ele>7.0</ele><time>2026-04-20T06:42:45Z</time></trkpt><trkpt lat="14.44899120778274" lon="120.93566205686007"><ele>7.0</ele><time>2026-04-20T06:42:46Z</time></trkpt><trkpt lat="14.449019399212121" lon="120.93552167643591"><ele>7.0</ele><time>2026-04-20T06:42:47Z</time></trkpt><trkpt lat="14.44904540514109" lon="120.93539217873473"><ele>7.0</ele><time>2026-04-20T06:42:48Z</time></trkpt><trkpt lat="14.449071940195765" lon="120.93526327454009"><ele>7.0</ele><time>2026-04-20T06:42:49Z</time></trkpt><trkpt lat="14.449098880991588" lon="120.93512907077658"><ele>7.25</ele><time>2026-04-20T06:42:50Z</time></trkpt><trkpt lat="14.449125240589703" lon="120.93499866689788"><ele>7.5</ele><time>2026-04-20T06:42:51Z</time></trkpt><trkpt lat="14.449149615572116" lon="120.93487821741982"><ele>7.75</ele><time>2026-04-20T06:42:52Z</time></trkpt><trkpt lat="14.449172557599397" lon="120.93476484892038"><ele>8.0</ele><time>2026-04-20T06:42:53Z</time></trkpt><trkpt lat="14.449194685243404" lon="120.93465550471628"><ele>8.0</ele><time>2026-04-20T06:42:54Z</time></trkpt><trkpt lat="14.449217018107069" lon="120.934545146342"><ele>8.0</ele><time>2026-04-20T06:42:55Z</time></trkpt><trkpt lat="14.449243509132742" lon="120.93441999403991"><ele>8.0</ele><time>2026-04-20T06:42:56Z</time></trkpt><trkpt lat="14.449268994944264" lon="120.9342978790917"><ele>8.0</ele><time>2026-04-20T06:42:57Z</time></trkpt><trkpt lat="14.449296966599384" lon="120.93416385325575"><ele>7.75</ele><time>2026-04-20T06:42:58Z</time></trkpt><trkpt lat="14.449326508599722" lon="120.93402230314139"><ele>7.5</ele><time>2026-04-20T06:42:59Z</time></trkpt><trkpt lat="14.449356302757472" lon="120.9338795448061"><ele>7.25</ele><time>2026-04-20T06:43:00Z</time></trkpt><trkpt lat="14.44938617370725" lon="120.9337364185298"><ele>7.0</ele><time>2026-04-20T06:43:01Z</time></trkpt><trkpt lat="14.449418159046006" lon="120.93358316115122"><ele>7.0</ele><time>2026-04-20T06:43:02Z</time></trkpt><trkpt lat="14.449451564651296" lon="120.93342817736381"><ele>7.0</ele><time>2026-04-20T06:43:03Z</time></trkpt><trkpt lat="14.449483839344277" lon="120.93327163221605"><ele>7.0</ele><time>2026-04-20T06:43:04Z</time></trkpt><trkpt lat="14.449514942453089" lon="120.93311986714845"><ele>7.0</ele><time>2026-04-20T06:43:05Z</time></trkpt><trkpt lat="14.449546356419953" lon="120.9329665852756"><ele>7.0</ele><time>2026-04-20T06:43:06Z</time></trkpt><trkpt lat="14.449580462205365" lon="120.93280432494748"><ele>7.0</ele><time>2026-04-20T06:43:07Z</time></trkpt><trkpt lat="14.449616792217524" lon="120.93263082966128"><ele>7.0</ele><time>2026-04-20T06:43:08Z</time></trkpt><trkpt lat="14.44965489849541" lon="120.93245566511621"><ele>7.0</ele><time>2026-04-20T06:43:09Z</time></trkpt><trkpt lat="14.449664717326101" lon="120.9322647478177"><ele>7.0</ele><time>2026-04-20T06:43:10Z</time></trkpt><trkpt lat="14.449695048266442" lon="120.93207110508021"><ele>7.0</ele><time>2026-04-20T06:43:11Z</time></trkpt><trkpt lat="14.449736127841751" lon="120.93188381058872"><ele>7.0</ele><time>2026-04-20T06:43:12Z</time></trkpt><trkpt lat="14.449792387560196" lon="120.93169170814775"><ele>7.0</ele><time>2026-04-20T06:43:13Z</time></trkpt><trkpt lat="14.449834325414457" lon="120.93149687146197"><ele>7.333333333333334</ele><time>2026-04-20T06:43:14Z</time></trkpt><trkpt lat="14.44989008039709" lon="120.93130367185931"><ele>7.666666666666666</ele><time>2026-04-20T06:43:15Z</time></trkpt><trkpt lat="14.449934489824999" lon="120.93109759804486"><ele>8.0</ele><time>2026-04-20T06:43:16Z</time></trkpt><trkpt lat="14.44997679360225" lon="120.93090123112631"><ele>8.0</ele><time>2026-04-20T06:43:17Z</time></trkpt><trkpt lat="14.450017056805336" lon="120.93070358375508"><ele>8.0</ele><time>2026-04-20T06:43:18Z</time></trkpt><trkpt lat="14.450056502269616" lon="120.93050747444225"><ele>8.0</ele><time>2026-04-20T06:43:19Z</time></trkpt><trkpt lat="14.450092311364461" lon="120.93032944390295"><ele>8.0</ele><time>2026-04-20T06:43:20Z</time></trkpt><trkpt lat="14.450127313364192" lon="120.93015542594848"><ele>8.0</ele><time>2026-04-20T06:43:21Z</time></trkpt><trkpt lat="14.450162690683944" lon="120.92998660329877"><ele>8.0</ele><time>2026-04-20T06:43:22Z</time></trkpt><trkpt lat="14.450195836400551" lon="120.92982757489791"><ele>7.333333333333333</ele><time>2026-04-20T06:43:23.001Z</time></trkpt><trkpt lat="14.450227396860761" lon="120.92967187402668"><ele>6.666666666666666</ele><time>2026-04-20T06:43:24.001Z</time></trkpt><trkpt lat="14.450259653872921" lon="120.9295143177843"><ele>6.0</ele><time>2026-04-20T06:43:25.001Z</time></trkpt><trkpt lat="14.450292229287404" lon="120.92935230310523"><ele>6.0</ele><time>2026-04-20T06:43:26.001Z</time></trkpt><trkpt lat="14.450315983958617" lon="120.92923541702176"><ele>6.0</ele><time>2026-04-20T06:43:27.001Z</time></trkpt><trkpt lat="14.450341592869433" lon="120.92910940719507"><ele>6.0</ele><time>2026-04-20T06:43:28.001Z</time></trkpt><trkpt lat="14.450366608261833" lon="120.92898631780098"><ele>6.0</ele><time>2026-04-20T06:43:29.001Z</time></trkpt><trkpt lat="14.450390539239773" lon="120.92886856431265"><ele>6.25</ele><time>2026-04-20T06:43:30.001Z</time></trkpt><trkpt lat="14.450414727053353" lon="120.92874954702901"><ele>6.5</ele><time>2026-04-20T06:43:31.001Z</time></trkpt><trkpt lat="14.450437775875276" lon="120.92862296423193"><ele>6.75</ele><time>2026-04-20T06:43:32.001Z</time></trkpt><trkpt lat="14.450459751774023" lon="120.92850527592739"><ele>7.0</ele><time>2026-04-20T06:43:33.001Z</time></trkpt><trkpt lat="14.450480247113722" lon="120.9283955164947"><ele>7.199999999999999</ele><time>2026-04-20T06:43:34.001Z</time></trkpt><trkpt lat="14.450498995986777" lon="120.92829510998045"><ele>7.3999999999999995</ele><time>2026-04-20T06:43:35.001Z</time></trkpt><trkpt lat="14.450518808814552" lon="120.92818900564166"><ele>7.6000000000000005</ele><time>2026-04-20T06:43:36.001Z</time></trkpt><trkpt lat="14.450514073227128" lon="120.92807945680741"><ele>7.800000000000001</ele><time>2026-04-20T06:43:37.001Z</time></trkpt><trkpt lat="14.450530890688224" lon="120.92797590041134"><ele>8.0</ele><time>2026-04-20T06:43:38.001Z</time></trkpt><trkpt lat="14.450553757505567" lon="120.92787282760493"><ele>7.999999999999999</ele><time>2026-04-20T06:43:39.001Z</time></trkpt><trkpt lat="14.450577203043782" lon="120.92777564175107"><ele>8.0</ele><time>2026-04-20T06:43:40.001Z</time></trkpt><trkpt lat="14.450595284866571" lon="120.92768831972613"><ele>8.0</ele><time>2026-04-20T06:43:41.001Z</time></trkpt><trkpt lat="14.450605711399925" lon="120.92760848973964"><ele>8.0</ele><time>2026-04-20T06:43:42.001Z</time></trkpt><trkpt lat="14.450619465432833" lon="120.92753929520723"><ele>7.999999999999999</ele><time>2026-04-20T06:43:43.001Z</time></trkpt><trkpt lat="14.45063403499762" lon="120.92747418671843"><ele>8.0</ele><time>2026-04-20T06:43:44.001Z</time></trkpt><trkpt lat="14.450652014550558" lon="120.92736060644718"><ele>7.6000000000000005</ele><time>2026-04-20T06:43:46.001Z</time></trkpt><trkpt lat="14.450660645524891" lon="120.92728182578679"><ele>7.200000000000001</ele><time>2026-04-20T06:43:48.001Z</time></trkpt><trkpt lat="14.450657102094814" lon="120.92718406523151"><ele>6.8</ele><time>2026-04-20T06:43:50.001Z</time></trkpt><trkpt lat="14.450651372052743" lon="120.92707533269291"><ele>6.4</ele><time>2026-04-20T06:43:52.001Z</time></trkpt><trkpt lat="14.450641736764151" lon="120.92698374840427"><ele>6.0</ele><time>2026-04-20T06:43:54.001Z</time></trkpt><trkpt lat="14.450635671895697" lon="120.92684703021469"><ele>6.0</ele><time>2026-04-20T06:43:56.001Z</time></trkpt><trkpt lat="14.450620647337749" lon="120.92676032601521"><ele>6.0</ele><time>2026-04-20T06:43:57.001Z</time></trkpt><trkpt lat="14.450604650070147" lon="120.92667325335155"><ele>6.0</ele><time>2026-04-20T06:43:58.001Z</time></trkpt><trkpt lat="14.450592250571361" lon="120.92660576324215"><ele>6.0</ele><time>2026-04-20T06:43:59.001Z</time></trkpt><trkpt lat="14.450568069057914" lon="120.92648610637137"><ele>6.0</ele><time>2026-04-20T06:44:01.001Z</time></trkpt><trkpt lat="14.450549101456977" lon="120.92638887814263"><ele>6.166666666666667</ele><time>2026-04-20T06:44:03.001Z</time></trkpt><trkpt lat="14.450531359358326" lon="120.92630019229038"><ele>6.333333333333334</ele><time>2026-04-20T06:44:05.001Z</time></trkpt><trkpt lat="14.450506823431162" lon="120.92617771671259"><ele>6.5</ele><time>2026-04-20T06:44:07.001Z</time></trkpt><trkpt lat="14.450492894114426" lon="120.92610650178209"><ele>6.666666666666667</ele><time>2026-04-20T06:44:08.001Z</time></trkpt><trkpt lat="14.45047920920868" lon="120.92603498936705"><ele>6.833333333333334</ele><time>2026-04-20T06:44:09.001Z</time></trkpt><trkpt lat="14.45046478456808" lon="120.92596495956258"><ele>7.0</ele><time>2026-04-20T06:44:10.001Z</time></trkpt><trkpt lat="14.450449957882533" lon="120.92589249882191"><ele>7.0</ele><time>2026-04-20T06:44:11.001Z</time></trkpt><trkpt lat="14.450436234746398" lon="120.92582011787022"><ele>6.999999999999999</ele><time>2026-04-20T06:44:12.001Z</time></trkpt><trkpt lat="14.450423112936074" lon="120.92575316140935"><ele>6.999999999999999</ele><time>2026-04-20T06:44:13.001Z</time></trkpt><trkpt lat="14.450410736520404" lon="120.92568934000228"><ele>7.0</ele><time>2026-04-20T06:44:14.001Z</time></trkpt><trkpt lat="14.450386341839806" lon="120.92556354404245"><ele>7.0</ele><time>2026-04-20T06:44:16.001Z</time></trkpt><trkpt lat="14.450342264598087" lon="120.92543038437395"><ele>7.000000000000001</ele><time>2026-04-20T06:44:18.002Z</time></trkpt><trkpt lat="14.450339147774365" lon="120.92533758359079"><ele>7.0</ele><time>2026-04-20T06:44:19.002Z</time></trkpt><trkpt lat="14.450311409558802" lon="120.92526642974853"><ele>7.0</ele><time>2026-04-20T06:44:20.002Z</time></trkpt><trkpt lat="14.450308384720326" lon="120.9251879830811"><ele>7.0</ele><time>2026-04-20T06:44:22.002Z</time></trkpt><trkpt lat="14.450295273494378" lon="120.92512256457839"><ele>7.000000000000001</ele><time>2026-04-20T06:44:24.002Z</time></trkpt><trkpt lat="14.450275521748482" lon="120.92502401315946"><ele>7.0</ele><time>2026-04-20T06:44:26.002Z</time></trkpt><trkpt lat="14.450262221668666" lon="120.924957652357"><ele>6.833333333333334</ele><time>2026-04-20T06:44:27.002Z</time></trkpt><trkpt lat="14.4502475780789" lon="120.92488458810654"><ele>6.666666666666667</ele><time>2026-04-20T06:44:28.002Z</time></trkpt><trkpt lat="14.450231379123514" lon="120.92480376335733"><ele>6.5</ele><time>2026-04-20T06:44:29.002Z</time></trkpt><trkpt lat="14.45021497652024" lon="120.92472192249463"><ele>6.333333333333334</ele><time>2026-04-20T06:44:30.002Z</time></trkpt><trkpt lat="14.450199803504121" lon="120.9246462166671"><ele>6.166666666666667</ele><time>2026-04-20T06:44:31.002Z</time></trkpt><trkpt lat="14.450166367045945" lon="120.9245612842604"><ele>6.0</ele><time>2026-04-20T06:44:32.002Z</time></trkpt><trkpt lat="14.45015263254953" lon="120.92448765159763"><ele>6.0</ele><time>2026-04-20T06:44:33.002Z</time></trkpt><trkpt lat="14.450133784735307" lon="120.92439265035122"><ele>6.0</ele><time>2026-04-20T06:44:35.002Z</time></trkpt><trkpt lat="14.45011329036274" lon="120.92430294037077"><ele>6.0</ele><time>2026-04-20T06:44:37.002Z</time></trkpt><trkpt lat="14.450109849538842" lon="120.92421653359897"><ele>6.0</ele><time>2026-04-20T06:44:38.002Z</time></trkpt><trkpt lat="14.450087972644415" lon="120.92411873101092"><ele>6.0</ele><time>2026-04-20T06:44:39.002Z</time></trkpt><trkpt lat="14.450065710053584" lon="120.92401919070922"><ele>5.8</ele><time>2026-04-20T06:44:40.002Z</time></trkpt><trkpt lat="14.45004275962629" lon="120.92391655666133"><ele>5.6</ele><time>2026-04-20T06:44:41.002Z</time></trkpt><trkpt lat="14.450022420943013" lon="120.92382560230187"><ele>5.4</ele><time>2026-04-20T06:44:42.002Z</time></trkpt><trkpt lat="14.450002522912126" lon="120.92373639099856"><ele>5.2</ele><time>2026-04-20T06:44:43.002Z</time></trkpt><trkpt lat="14.44998280732188" lon="120.92364499201098"><ele>5.0</ele><time>2026-04-20T06:44:44.002Z</time></trkpt><trkpt lat="14.449965146923402" lon="120.92356312063716"><ele>5.0</ele><time>2026-04-20T06:44:45Z</time></trkpt><trkpt lat="14.449949490342572" lon="120.92349053870666"><ele>5.0</ele><time>2026-04-20T06:44:46Z</time></trkpt><trkpt lat="14.449935447443353" lon="120.92342543759808"><ele>5.0</ele><time>2026-04-20T06:44:47Z</time></trkpt><trkpt lat="14.449906718941271" lon="120.92336521539346"><ele>5.0</ele><time>2026-04-20T06:44:48Z</time></trkpt><trkpt lat="14.449887871085075" lon="120.92326870538515"><ele>5.0</ele><time>2026-04-20T06:44:50Z</time></trkpt><trkpt lat="14.449877254487545" lon="120.92315566240424"><ele>5.0</ele><time>2026-04-20T06:44:52Z</time></trkpt><trkpt lat="14.449852069950582" lon="120.92305871198874"><ele>5.2</ele><time>2026-04-20T06:44:54Z</time></trkpt><trkpt lat="14.449829940397866" lon="120.92297616481231"><ele>5.4</ele><time>2026-04-20T06:45:01Z</time></trkpt><trkpt lat="14.449796388953922" lon="120.92285101197155"><ele>5.6</ele><time>2026-04-20T06:45:03Z</time></trkpt><trkpt lat="14.449776386364245" lon="120.92277658821992"><ele>5.8</ele><time>2026-04-20T06:45:04Z</time></trkpt><trkpt lat="14.44975206140399" lon="120.92268620815665"><ele>6.0</ele><time>2026-04-20T06:45:05Z</time></trkpt><trkpt lat="14.449725936550099" lon="120.92258914051948"><ele>6.166666666666667</ele><time>2026-04-20T06:45:06Z</time></trkpt><trkpt lat="14.449697249248343" lon="120.9224825519723"><ele>6.333333333333334</ele><time>2026-04-20T06:45:07Z</time></trkpt><trkpt lat="14.449666999995408" lon="120.92238721254435"><ele>6.5</ele><time>2026-04-20T06:45:08Z</time></trkpt><trkpt lat="14.449640340733627" lon="120.9222990488254"><ele>6.666666666666667</ele><time>2026-04-20T06:45:09Z</time></trkpt><trkpt lat="14.449616771332689" lon="120.9222211034555"><ele>6.833333333333334</ele><time>2026-04-20T06:45:10Z</time></trkpt><trkpt lat="14.449594617770316" lon="120.92214784031535"><ele>7.0</ele><time>2026-04-20T06:45:11Z</time></trkpt><trkpt lat="14.449572537154307" lon="120.92207646136606"><ele>7.0</ele><time>2026-04-20T06:45:12Z</time></trkpt><trkpt lat="14.449535452434914" lon="120.92195615363443"><ele>6.999999999999999</ele><time>2026-04-20T06:45:14Z</time></trkpt><trkpt lat="14.44949778238737" lon="120.92183403750424"><ele>6.999999999999999</ele><time>2026-04-20T06:45:16Z</time></trkpt><trkpt lat="14.449476712283245" lon="120.92176573390805"><ele>7.0</ele><time>2026-04-20T06:45:17Z</time></trkpt><trkpt lat="14.449456695055767" lon="120.92170084345722"><ele>7.0</ele><time>2026-04-20T06:45:18Z</time></trkpt><trkpt lat="14.449426582719914" lon="120.92160322739505"><ele>6.833333333333334</ele><time>2026-04-20T06:45:20Z</time></trkpt><trkpt lat="14.449400227794115" lon="120.92151779182896"><ele>6.666666666666667</ele><time>2026-04-20T06:45:22.001Z</time></trkpt><trkpt lat="14.44937405123514" lon="120.92143853380834"><ele>6.5</ele><time>2026-04-20T06:45:25.001Z</time></trkpt><trkpt lat="14.449353318498364" lon="120.92137671667267"><ele>6.333333333333334</ele><time>2026-04-20T06:45:26.001Z</time></trkpt><trkpt lat="14.449320890243191" lon="120.92128002795123"><ele>6.166666666666667</ele><time>2026-04-20T06:45:27.001Z</time></trkpt><trkpt lat="14.449289895240808" lon="120.9211876126363"><ele>6.0</ele><time>2026-04-20T06:45:28.001Z</time></trkpt><trkpt lat="14.44926544596515" lon="120.92111471419447"><ele>6.0</ele><time>2026-04-20T06:45:29.001Z</time></trkpt><trkpt lat="14.449239518822552" lon="120.92103740930864"><ele>6.0</ele><time>2026-04-20T06:45:30.001Z</time></trkpt><trkpt lat="14.449205845666365" lon="120.92093700868872"><ele>6.0</ele><time>2026-04-20T06:45:32.001Z</time></trkpt><trkpt lat="14.449185027255863" lon="120.92086064990174"><ele>6.0</ele><time>2026-04-20T06:45:33.001Z</time></trkpt><trkpt lat="14.449159216786638" lon="120.92077016878036"><ele>6.0</ele><time>2026-04-20T06:45:34.001Z</time></trkpt><trkpt lat="14.449131291591874" lon="120.92066870353803"><ele>6.0</ele><time>2026-04-20T06:45:35.001Z</time></trkpt><trkpt lat="14.449103404868794" lon="120.92056737806334"><ele>6.0</ele><time>2026-04-20T06:45:36.001Z</time></trkpt><trkpt lat="14.449078044514332" lon="120.92045878691519"><ele>6.0</ele><time>2026-04-20T06:45:37.001Z</time></trkpt><trkpt lat="14.449056103202654" lon="120.92036023303153"><ele>6.0</ele><time>2026-04-20T06:45:38.001Z</time></trkpt><trkpt lat="14.449028986161357" lon="120.9202371296148"><ele>6.0</ele><time>2026-04-20T06:45:39.001Z</time></trkpt><trkpt lat="14.4490105195643" lon="120.92014253856699"><ele>6.0</ele><time>2026-04-20T06:45:40.001Z</time></trkpt><trkpt lat="14.448992324957855" lon="120.92004934073461"><ele>6.0</ele><time>2026-04-20T06:45:41.001Z</time></trkpt><trkpt lat="14.44897544275053" lon="120.91996286537771"><ele>6.0</ele><time>2026-04-20T06:45:42.001Z</time></trkpt><trkpt lat="14.44895713667806" lon="120.91987505402396"><ele>6.0</ele><time>2026-04-20T06:45:43.001Z</time></trkpt><trkpt lat="14.448937847083478" lon="120.91978432310587"><ele>6.0</ele><time>2026-04-20T06:45:44.001Z</time></trkpt><trkpt lat="14.448911835074835" lon="120.919676918067"><ele>6.0</ele><time>2026-04-20T06:45:45.001Z</time></trkpt><trkpt lat="14.448885409794979" lon="120.91957859933143"><ele>6.0</ele><time>2026-04-20T06:45:46.001Z</time></trkpt><trkpt lat="14.448859849407867" lon="120.91948349854225"><ele>6.0</ele><time>2026-04-20T06:45:47.001Z</time></trkpt><trkpt lat="14.4488325135111" lon="120.91938179172844"><ele>6.0</ele><time>2026-04-20T06:45:48.001Z</time></trkpt><trkpt lat="14.448801549352186" lon="120.9192841454905"><ele>6.0</ele><time>2026-04-20T06:45:49.001Z</time></trkpt><trkpt lat="14.44875924891433" lon="120.91918001383591"><ele>5.8</ele><time>2026-04-20T06:45:50.001Z</time></trkpt><trkpt lat="14.448720746943891" lon="120.9190858033894"><ele>5.6</ele><time>2026-04-20T06:45:51.001Z</time></trkpt><trkpt lat="14.448679262454974" lon="120.91898429501511"><ele>5.4</ele><time>2026-04-20T06:45:52.001Z</time></trkpt><trkpt lat="14.448634939596698" lon="120.91887180498601"><ele>5.2</ele><time>2026-04-20T06:45:53.001Z</time></trkpt><trkpt lat="14.4485991244794" lon="120.9187596779907"><ele>5.0</ele><time>2026-04-20T06:45:54.001Z</time></trkpt><trkpt lat="14.448563044111568" lon="120.91864208500098"><ele>5.0</ele><time>2026-04-20T06:45:55.001Z</time></trkpt><trkpt lat="14.44852797800537" lon="120.9185277976922"><ele>5.0</ele><time>2026-04-20T06:45:56.001Z</time></trkpt><trkpt lat="14.448492917282072" lon="120.91841933543012"><ele>5.0</ele><time>2026-04-20T06:45:57.001Z</time></trkpt><trkpt lat="14.448460856848243" lon="120.91832510054333"><ele>5.0</ele><time>2026-04-20T06:45:58.001Z</time></trkpt><trkpt lat="14.448430635385435" lon="120.91823627092413"><ele>5.0</ele><time>2026-04-20T06:45:59.001Z</time></trkpt><trkpt lat="14.448400384116514" lon="120.91814735369674"><ele>5.0</ele><time>2026-04-20T06:46:00.001Z</time></trkpt><trkpt lat="14.448371900871642" lon="120.91806363320117"><ele>5.0</ele><time>2026-04-20T06:46:01.001Z</time></trkpt><trkpt lat="14.448340219800768" lon="120.91797051337015"><ele>5.0</ele><time>2026-04-20T06:46:02.001Z</time></trkpt><trkpt lat="14.44831419533388" lon="120.9178940199287"><ele>5.0</ele><time>2026-04-20T06:46:03.001Z</time></trkpt><trkpt lat="14.44828222315484" lon="120.91780642243071"><ele>5.0</ele><time>2026-04-20T06:46:04.001Z</time></trkpt><trkpt lat="14.448246799297415" lon="120.91771794044845"><ele>5.0</ele><time>2026-04-20T06:46:05.001Z</time></trkpt><trkpt lat="14.448209108697858" lon="120.91762890209323"><ele>5.0</ele><time>2026-04-20T06:46:06.001Z</time></trkpt><trkpt lat="14.448173835383184" lon="120.91754478325707"><ele>5.0</ele><time>2026-04-20T06:46:07.001Z</time></trkpt><trkpt lat="14.44813772058169" lon="120.91745882424719"><ele>5.0</ele><time>2026-04-20T06:46:08.001Z</time></trkpt><trkpt lat="14.44810178995512" lon="120.91737330360223"><ele>5.0</ele><time>2026-04-20T06:46:09.001Z</time></trkpt><trkpt lat="14.448064611346291" lon="120.91728481255448"><ele>5.0</ele><time>2026-04-20T06:46:10.001Z</time></trkpt><trkpt lat="14.448027163644806" lon="120.91719568089852"><ele>5.0</ele><time>2026-04-20T06:46:11.001Z</time></trkpt><trkpt lat="14.447971262249027" lon="120.91710191928757"><ele>5.0</ele><time>2026-04-20T06:46:12.001Z</time></trkpt><trkpt lat="14.447927854353292" lon="120.91702250758792"><ele>5.0</ele><time>2026-04-20T06:46:13.001Z</time></trkpt><trkpt lat="14.447889508134269" lon="120.91695169563734"><ele>5.0</ele><time>2026-04-20T06:46:14.001Z</time></trkpt><trkpt lat="14.447848228329667" lon="120.9168754663761"><ele>5.0</ele><time>2026-04-20T06:46:15.001Z</time></trkpt><trkpt lat="14.447811897922083" lon="120.9168083767891"><ele>5.0</ele><time>2026-04-20T06:46:16.001Z</time></trkpt><trkpt lat="14.447778341707037" lon="120.91674619862557"><ele>5.333333333333334</ele><time>2026-04-20T06:46:17.001Z</time></trkpt><trkpt lat="14.447746644192893" lon="120.91668947034687"><ele>5.666666666666667</ele><time>2026-04-20T06:46:18.002Z</time></trkpt><trkpt lat="14.44771406119626" lon="120.91663096972248"><ele>6.0</ele><time>2026-04-20T06:46:19.002Z</time></trkpt><trkpt lat="14.447643905334546" lon="120.91650500948936"><ele>6.333333333333334</ele><time>2026-04-20T06:46:21.002Z</time></trkpt><trkpt lat="14.447604939621787" lon="120.91643504911572"><ele>6.666666666666667</ele><time>2026-04-20T06:46:22.002Z</time></trkpt><trkpt lat="14.447569296597134" lon="120.91637105440968"><ele>7.0</ele><time>2026-04-20T06:46:23.002Z</time></trkpt><trkpt lat="14.447536185374835" lon="120.91631289962083"><ele>7.000000000000001</ele><time>2026-04-20T06:46:24.002Z</time></trkpt><trkpt lat="14.447499234923832" lon="120.91624844929207"><ele>7.0</ele><time>2026-04-20T06:46:25.002Z</time></trkpt><trkpt lat="14.447461177430984" lon="120.9161820680183"><ele>7.0</ele><time>2026-04-20T06:46:26.002Z</time></trkpt><trkpt lat="14.447421495665452" lon="120.91611285362875"><ele>7.0</ele><time>2026-04-20T06:46:27.002Z</time></trkpt><trkpt lat="14.447382986074858" lon="120.91604568379236"><ele>7.000000000000001</ele><time>2026-04-20T06:46:28.002Z</time></trkpt><trkpt lat="14.447349738702588" lon="120.91598769250744"><ele>7.0</ele><time>2026-04-20T06:46:29.002Z</time></trkpt><trkpt lat="14.447293958407625" lon="120.91588745452714"><ele>6.666666666666667</ele><time>2026-04-20T06:46:31.002Z</time></trkpt><trkpt lat="14.447240484134296" lon="120.91578999960133"><ele>6.333333333333334</ele><time>2026-04-20T06:46:33.002Z</time></trkpt><trkpt lat="14.447207925449273" lon="120.91573066253478"><ele>6.0</ele><time>2026-04-20T06:46:34.002Z</time></trkpt><trkpt lat="14.447178977612555" lon="120.9156710793815"><ele>5.666666666666667</ele><time>2026-04-20T06:46:35.002Z</time></trkpt><trkpt lat="14.44714464233113" lon="120.91560298096174"><ele>5.333333333333334</ele><time>2026-04-20T06:46:36.002Z</time></trkpt><trkpt lat="14.447111548684092" lon="120.91552587925153"><ele>5.0</ele><time>2026-04-20T06:46:37.002Z</time></trkpt><trkpt lat="14.447070551446474" lon="120.91543684313748"><ele>5.0</ele><time>2026-04-20T06:46:38.002Z</time></trkpt><trkpt lat="14.447040359635919" lon="120.91536582446336"><ele>5.0</ele><time>2026-04-20T06:46:39.002Z</time></trkpt><trkpt lat="14.447011019145565" lon="120.91527243594558"><ele>5.0</ele><time>2026-04-20T06:46:40.002Z</time></trkpt><trkpt lat="14.446987307201734" lon="120.91517676428401"><ele>5.0</ele><time>2026-04-20T06:46:41.002Z</time></trkpt><trkpt lat="14.44696574616644" lon="120.91508967486438"><ele>5.0</ele><time>2026-04-20T06:46:42.002Z</time></trkpt><trkpt lat="14.446953526672893" lon="120.91500295587483"><ele>5.0</ele><time>2026-04-20T06:46:43.002Z</time></trkpt><trkpt lat="14.4469391126907" lon="120.91490124245317"><ele>5.25</ele><time>2026-04-20T06:46:44.002Z</time></trkpt><trkpt lat="14.446924417837131" lon="120.91479428253675"><ele>5.5</ele><time>2026-04-20T06:46:45.002Z</time></trkpt><trkpt lat="14.446911320238502" lon="120.91468194544038"><ele>5.75</ele><time>2026-04-20T06:46:46.002Z</time></trkpt><trkpt lat="14.446896549926334" lon="120.91455330751147"><ele>6.0</ele><time>2026-04-20T06:46:47.002Z</time></trkpt><trkpt lat="14.446883449614285" lon="120.91441530875694"><ele>6.0</ele><time>2026-04-20T06:46:48.002Z</time></trkpt><trkpt lat="14.446870920602809" lon="120.91426562001469"><ele>6.0</ele><time>2026-04-20T06:46:49.002Z</time></trkpt><trkpt lat="14.446861766995443" lon="120.91412795023889"><ele>6.0</ele><time>2026-04-20T06:46:50.002Z</time></trkpt><trkpt lat="14.44685363090101" lon="120.91397855900058"><ele>6.0</ele><time>2026-04-20T06:46:51Z</time></trkpt><trkpt lat="14.446839448054009" lon="120.9138328597279"><ele>6.0</ele><time>2026-04-20T06:46:52Z</time></trkpt><trkpt lat="14.44682538550757" lon="120.9136921940766"><ele>6.0</ele><time>2026-04-20T06:46:53Z</time></trkpt><trkpt lat="14.446813589100124" lon="120.91356506052371"><ele>6.0</ele><time>2026-04-20T06:46:54Z</time></trkpt><trkpt lat="14.446802413627461" lon="120.91342842717216"><ele>6.0</ele><time>2026-04-20T06:46:55Z</time></trkpt><trkpt lat="14.44679267633184" lon="120.91329510113263"><ele>6.0</ele><time>2026-04-20T06:46:56Z</time></trkpt><trkpt lat="14.446782951372498" lon="120.91316251705275"><ele>6.0</ele><time>2026-04-20T06:46:57Z</time></trkpt><trkpt lat="14.446773774464344" lon="120.91303765815879"><ele>6.0</ele><time>2026-04-20T06:46:58Z</time></trkpt><trkpt lat="14.446767017824234" lon="120.91292553940909"><ele>6.0</ele><time>2026-04-20T06:46:59Z</time></trkpt><trkpt lat="14.446762300698364" lon="120.9128077564098"><ele>6.0</ele><time>2026-04-20T06:47:00Z</time></trkpt><trkpt lat="14.446759057077063" lon="120.91268711917392"><ele>6.0</ele><time>2026-04-20T06:47:01Z</time></trkpt><trkpt lat="14.44675458949728" lon="120.91256299522003"><ele>6.0</ele><time>2026-04-20T06:47:02Z</time></trkpt><trkpt lat="14.446749354882284" lon="120.91244200163318"><ele>6.0</ele><time>2026-04-20T06:47:03Z</time></trkpt><trkpt lat="14.44674309091086" lon="120.91231758738523"><ele>6.0</ele><time>2026-04-20T06:47:04Z</time></trkpt><trkpt lat="14.446736321537088" lon="120.91218313493049"><ele>6.0</ele><time>2026-04-20T06:47:05Z</time></trkpt><trkpt lat="14.446730078843993" lon="120.91205914330452"><ele>6.0</ele><time>2026-04-20T06:47:06Z</time></trkpt><trkpt lat="14.446714222207678" lon="120.91193312114545"><ele>6.0</ele><time>2026-04-20T06:47:07Z</time></trkpt><trkpt lat="14.446702772897003" lon="120.91182200711265"><ele>6.199999999999999</ele><time>2026-04-20T06:47:08Z</time></trkpt><trkpt lat="14.446691672552273" lon="120.91171711558837"><ele>6.3999999999999995</ele><time>2026-04-20T06:47:09Z</time></trkpt><trkpt lat="14.446679310187772" lon="120.91161740484198"><ele>6.6</ele><time>2026-04-20T06:47:10Z</time></trkpt><trkpt lat="14.446662094698429" lon="120.91150167180551"><ele>6.8</ele><time>2026-04-20T06:47:11Z</time></trkpt><trkpt lat="14.446643918656287" lon="120.91137948135064"><ele>7.0</ele><time>2026-04-20T06:47:12Z</time></trkpt><trkpt lat="14.44661979222784" lon="120.91126702241993"><ele>7.0</ele><time>2026-04-20T06:47:13Z</time></trkpt><trkpt lat="14.44659396366194" lon="120.91114877544416"><ele>7.0</ele><time>2026-04-20T06:47:14Z</time></trkpt><trkpt lat="14.446567467604202" lon="120.91102754933543"><ele>7.0</ele><time>2026-04-20T06:47:15Z</time></trkpt><trkpt lat="14.446541811863456" lon="120.91091016788896"><ele>7.0</ele><time>2026-04-20T06:47:16Z</time></trkpt><trkpt lat="14.44651417837951" lon="120.91078373762431"><ele>7.0</ele><time>2026-04-20T06:47:17Z</time></trkpt><trkpt lat="14.446488109830137" lon="120.91066562108509"><ele>7.0</ele><time>2026-04-20T06:47:18Z</time></trkpt><trkpt lat="14.446455989446246" lon="120.91053215338275"><ele>7.0</ele><time>2026-04-20T06:47:19Z</time></trkpt><trkpt lat="14.44642637321511" lon="120.91040736656333"><ele>7.0</ele><time>2026-04-20T06:47:20.001Z</time></trkpt><trkpt lat="14.446395992665584" lon="120.91028313655391"><ele>7.0</ele><time>2026-04-20T06:47:21.001Z</time></trkpt><trkpt lat="14.446364493612249" lon="120.91016060979393"><ele>7.0</ele><time>2026-04-20T06:47:22.001Z</time></trkpt><trkpt lat="14.4463330185955" lon="120.910041705707"><ele>7.0</ele><time>2026-04-20T06:47:23.001Z</time></trkpt><trkpt lat="14.446300261619205" lon="120.90992297314068"><ele>7.0</ele><time>2026-04-20T06:47:24.001Z</time></trkpt><trkpt lat="14.446266739278766" lon="120.90980146631425"><ele>7.0</ele><time>2026-04-20T06:47:25.001Z</time></trkpt><trkpt lat="14.446234217724585" lon="120.90969247648451"><ele>6.999999999999999</ele><time>2026-04-20T06:47:26.001Z</time></trkpt><trkpt lat="14.446205632323148" lon="120.90958988275486"><ele>6.999999999999999</ele><time>2026-04-20T06:47:27.001Z</time></trkpt><trkpt lat="14.446171797334026" lon="120.90948852782186"><ele>7.0</ele><time>2026-04-20T06:47:28.001Z</time></trkpt><trkpt lat="14.446130883528033" lon="120.9093837149262"><ele>7.0</ele><time>2026-04-20T06:47:29.001Z</time></trkpt><trkpt lat="14.446094315822764" lon="120.90929157446075"><ele>7.000000000000001</ele><time>2026-04-20T06:47:30.001Z</time></trkpt><trkpt lat="14.446058103992607" lon="120.90920034832537"><ele>7.0</ele><time>2026-04-20T06:47:31.001Z</time></trkpt><trkpt lat="14.446024926371365" lon="120.90911853293211"><ele>7.0</ele><time>2026-04-20T06:47:32.001Z</time></trkpt><trkpt lat="14.445995468680705" lon="120.90904517801488"><ele>7.0</ele><time>2026-04-20T06:47:33.001Z</time></trkpt><trkpt lat="14.44596822560449" lon="120.90897746838527"><ele>7.000000000000001</ele><time>2026-04-20T06:47:34.001Z</time></trkpt><trkpt lat="14.445942895041332" lon="120.90891451209548"><ele>7.0</ele><time>2026-04-20T06:47:35.001Z</time></trkpt><trkpt lat="14.445915037676444" lon="120.90884527572304"><ele>7.0</ele><time>2026-04-20T06:47:36.001Z</time></trkpt><trkpt lat="14.445865543012452" lon="120.90876102249102"><ele>6.999999999999999</ele><time>2026-04-20T06:47:38.001Z</time></trkpt><trkpt lat="14.445946600995768" lon="120.90872391445477"><ele>6.999999999999999</ele><time>2026-04-20T06:47:40.001Z</time></trkpt><trkpt lat="14.44605704677332" lon="120.90870038310743"><ele>7.0</ele><time>2026-04-20T06:47:42.001Z</time></trkpt><trkpt lat="14.446179679039975" lon="120.90865681033604"><ele>7.0</ele><time>2026-04-20T06:47:44.001Z</time></trkpt><trkpt lat="14.44625548341523" lon="120.908640592913"><ele>6.666666666666667</ele><time>2026-04-20T06:47:45.001Z</time></trkpt><trkpt lat="14.446332787197813" lon="120.90864163442569"><ele>6.333333333333334</ele><time>2026-04-20T06:47:46.001Z</time></trkpt><trkpt lat="14.44641503130602" lon="120.90862411166772"><ele>6.0</ele><time>2026-04-20T06:47:47.001Z</time></trkpt><trkpt lat="14.446498266686588" lon="120.90860637770909"><ele>5.666666666666667</ele><time>2026-04-20T06:47:48.001Z</time></trkpt><trkpt lat="14.4465811221773" lon="120.90858919638434"><ele>5.333333333333334</ele><time>2026-04-20T06:47:49.001Z</time></trkpt><trkpt lat="14.446667219584237" lon="120.90857197688331"><ele>5.0</ele><time>2026-04-20T06:47:50.001Z</time></trkpt><trkpt lat="14.446753959954508" lon="120.90855215182671"><ele>5.0</ele><time>2026-04-20T06:47:51.001Z</time></trkpt><trkpt lat="14.446824417853291" lon="120.90853716552725"><ele>5.0</ele><time>2026-04-20T06:47:52.001Z</time></trkpt><trkpt lat="14.446888032620553" lon="120.9084628718056"><ele>5.0</ele><time>2026-04-20T06:47:53.001Z</time></trkpt><trkpt lat="14.446939190837778" lon="120.90841459211109"><ele>5.0</ele><time>2026-04-20T06:47:54.001Z</time></trkpt><trkpt lat="14.446978132567082" lon="120.90834749301877"><ele>5.0</ele><time>2026-04-20T06:47:55.001Z</time></trkpt><trkpt lat="14.446996399576465" lon="120.908270160502"><ele>5.0</ele><time>2026-04-20T06:47:56.001Z</time></trkpt><trkpt lat="14.447042220232317" lon="120.90820301879204"><ele>5.0</ele><time>2026-04-20T06:47:57.001Z</time></trkpt><trkpt lat="14.447013075632807" lon="120.90810569020748"><ele>5.0</ele><time>2026-04-20T06:47:58.001Z</time></trkpt><trkpt lat="14.44699905748966" lon="120.90802254407069"><ele>5.0</ele><time>2026-04-20T06:47:59.001Z</time></trkpt><trkpt lat="14.446984064637965" lon="120.90793361661875"><ele>5.0</ele><time>2026-04-20T06:48:00.001Z</time></trkpt><trkpt lat="14.446965591837762" lon="120.9078240484689"><ele>5.0</ele><time>2026-04-20T06:48:01.001Z</time></trkpt><trkpt lat="14.446950092053068" lon="120.90773211422771"><ele>5.0</ele><time>2026-04-20T06:48:02.001Z</time></trkpt><trkpt lat="14.446929992306858" lon="120.90761693830089"><ele>5.0</ele><time>2026-04-20T06:48:03.001Z</time></trkpt><trkpt lat="14.446909899679753" lon="120.90749898230905"><ele>5.0</ele><time>2026-04-20T06:48:04.001Z</time></trkpt><trkpt lat="14.446893197730242" lon="120.90739393744501"><ele>5.0</ele><time>2026-04-20T06:48:05.001Z</time></trkpt><trkpt lat="14.446874648676074" lon="120.90727494308756"><ele>5.0</ele><time>2026-04-20T06:48:06.001Z</time></trkpt><trkpt lat="14.44685587918147" lon="120.9071528638093"><ele>5.2</ele><time>2026-04-20T06:48:07.001Z</time></trkpt><trkpt lat="14.446834995240332" lon="120.9070288258391"><ele>5.4</ele><time>2026-04-20T06:48:08.001Z</time></trkpt><trkpt lat="14.446815232693929" lon="120.90691284609947"><ele>5.6</ele><time>2026-04-20T06:48:09.001Z</time></trkpt><trkpt lat="14.446797693785742" lon="120.90681046512293"><ele>5.8</ele><time>2026-04-20T06:48:10.001Z</time></trkpt><trkpt lat="14.446782002672006" lon="120.90671842468366"><ele>6.0</ele><time>2026-04-20T06:48:11.001Z</time></trkpt><trkpt lat="14.446761518640706" lon="120.90664121179765"><ele>6.199999999999999</ele><time>2026-04-20T06:48:12.001Z</time></trkpt><trkpt lat="14.446702029772794" lon="120.90653807009105"><ele>6.3999999999999995</ele><time>2026-04-20T06:48:14.001Z</time></trkpt><trkpt lat="14.44659885880669" lon="120.90651573772378"><ele>6.6</ele><time>2026-04-20T06:48:16.001Z</time></trkpt><trkpt lat="14.44650502988964" lon="120.90650548410501"><ele>6.8</ele><time>2026-04-20T06:48:18.002Z</time></trkpt><trkpt lat="14.446419262577141" lon="120.90649902952872"><ele>7.0</ele><time>2026-04-20T06:48:20.002Z</time></trkpt><trkpt lat="14.446318154836662" lon="120.90649379060304"><ele>6.833333333333334</ele><time>2026-04-20T06:48:22.002Z</time></trkpt><trkpt lat="14.446196454658665" lon="120.90649218906746"><ele>6.666666666666667</ele><time>2026-04-20T06:48:24.002Z</time></trkpt><trkpt lat="14.4461254012668" lon="120.90648597767303"><ele>6.5</ele><time>2026-04-20T06:48:25.002Z</time></trkpt><trkpt lat="14.44606121849338" lon="120.90648097238196"><ele>6.333333333333334</ele><time>2026-04-20T06:48:26.002Z</time></trkpt><trkpt lat="14.445996598070876" lon="120.90647644436055"><ele>6.166666666666667</ele><time>2026-04-20T06:48:27.002Z</time></trkpt><trkpt lat="14.445928482086652" lon="120.90647243969981"><ele>6.0</ele><time>2026-04-20T06:48:28.002Z</time></trkpt><trkpt lat="14.445854278351822" lon="120.90646795580328"><ele>6.0</ele><time>2026-04-20T06:48:29.002Z</time></trkpt><trkpt lat="14.445785097141224" lon="120.90646573789057"><ele>6.0</ele><time>2026-04-20T06:48:30.002Z</time></trkpt><trkpt lat="14.445716314642388" lon="120.90646416330105"><ele>6.0</ele><time>2026-04-20T06:48:31.002Z</time></trkpt><trkpt lat="14.445646083886343" lon="120.90645959736189"><ele>6.0</ele><time>2026-04-20T06:48:32.002Z</time></trkpt><trkpt lat="14.445580552604788" lon="120.90646532094145"><ele>6.0</ele><time>2026-04-20T06:48:33.002Z</time></trkpt><trkpt lat="14.445468440549291" lon="120.90650283384225"><ele>6.0</ele><time>2026-04-20T06:48:35.002Z</time></trkpt><trkpt lat="14.445395360811174" lon="120.90651914774234"><ele>6.4</ele><time>2026-04-20T06:48:36.002Z</time></trkpt><trkpt lat="14.445327266322188" lon="120.90652803073495"><ele>6.8</ele><time>2026-04-20T06:48:37.002Z</time></trkpt><trkpt lat="14.445218030294578" lon="120.90655292352358"><ele>7.200000000000001</ele><time>2026-04-20T06:48:39.002Z</time></trkpt><trkpt lat="14.445125286617507" lon="120.90652389656401"><ele>7.6000000000000005</ele><time>2026-04-20T06:48:41.002Z</time></trkpt><trkpt lat="14.445110510576258" lon="120.90636956044588"><ele>8.0</ele><time>2026-04-20T06:48:44.002Z</time></trkpt><trkpt lat="14.445090494260656" lon="120.90629117309246"><ele>7.999999999999999</ele><time>2026-04-20T06:48:46.002Z</time></trkpt><trkpt lat="14.44507373190356" lon="120.9062255287961"><ele>8.0</ele><time>2026-04-20T06:48:48.002Z</time></trkpt><trkpt lat="14.445057559830024" lon="120.90616219614974"><ele>8.0</ele><time>2026-04-20T06:48:50.002Z</time></trkpt><trkpt lat="14.445033180956173" lon="120.9060667242475"><ele>8.0</ele><time>2026-04-20T06:48:52.002Z</time></trkpt><trkpt lat="14.44500851197757" lon="120.90597024572074"><ele>7.999999999999999</ele><time>2026-04-20T06:48:54.002Z</time></trkpt><trkpt lat="14.444986417655725" lon="120.90588386902905"><ele>8.0</ele><time>2026-04-20T06:48:57Z</time></trkpt><trkpt lat="14.444966270977703" lon="120.9058051065561"><ele>7.800000000000001</ele><time>2026-04-20T06:48:59Z</time></trkpt><trkpt lat="14.444939810494786" lon="120.90570166057005"><ele>7.6000000000000005</ele><time>2026-04-20T06:49:01Z</time></trkpt><trkpt lat="14.444915171550827" lon="120.90560533580265"><ele>7.3999999999999995</ele><time>2026-04-20T06:49:03Z</time></trkpt><trkpt lat="14.444888303551531" lon="120.90550692847607"><ele>7.199999999999999</ele><time>2026-04-20T06:49:05Z</time></trkpt><trkpt lat="14.444862339754273" lon="120.90541818385496"><ele>7.0</ele><time>2026-04-20T06:49:07Z</time></trkpt><trkpt lat="14.444837850193345" lon="120.9053344782006"><ele>7.000000000000001</ele><time>2026-04-20T06:49:09Z</time></trkpt><trkpt lat="14.444812097398154" lon="120.90524645479192"><ele>7.0</ele><time>2026-04-20T06:49:11Z</time></trkpt><trkpt lat="14.444778101636572" lon="120.90513025681122"><ele>7.0</ele><time>2026-04-20T06:49:13Z</time></trkpt><trkpt lat="14.444759506538846" lon="120.90506669842803"><ele>7.0</ele><time>2026-04-20T06:49:14Z</time></trkpt><trkpt lat="14.444740425115361" lon="120.90500002021251"><ele>7.000000000000001</ele><time>2026-04-20T06:49:15Z</time></trkpt><trkpt lat="14.444721666201097" lon="120.90493503106133"><ele>7.0</ele><time>2026-04-20T06:49:16Z</time></trkpt><trkpt lat="14.444701974605797" lon="120.90486681067652"><ele>7.0</ele><time>2026-04-20T06:49:17Z</time></trkpt><trkpt lat="14.444681180626207" lon="120.90479747493131"><ele>7.0</ele><time>2026-04-20T06:49:18.001Z</time></trkpt><trkpt lat="14.444661713300624" lon="120.90473245406571"><ele>7.0</ele><time>2026-04-20T06:49:19.001Z</time></trkpt><trkpt lat="14.444640517114815" lon="120.90466165880324"><ele>7.0</ele><time>2026-04-20T06:49:20.001Z</time></trkpt><trkpt lat="14.444618033803238" lon="120.90458656453819"><ele>7.0</ele><time>2026-04-20T06:49:21.001Z</time></trkpt><trkpt lat="14.444597348437489" lon="120.90451771640875"><ele>7.0</ele><time>2026-04-20T06:49:22.001Z</time></trkpt><trkpt lat="14.444572399425128" lon="120.90443547484519"><ele>7.0</ele><time>2026-04-20T06:49:24.001Z</time></trkpt><trkpt lat="14.444539120177103" lon="120.9043354536666"><ele>7.000000000000001</ele><time>2026-04-20T06:49:27.001Z</time></trkpt><trkpt lat="14.444515182359352" lon="120.90426701236127"><ele>7.0</ele><time>2026-04-20T06:49:28.001Z</time></trkpt><trkpt lat="14.44448706695448" lon="120.9041866267936"><ele>7.0</ele><time>2026-04-20T06:49:29.001Z</time></trkpt><trkpt lat="14.444459424626244" lon="120.90410759381288"><ele>7.0</ele><time>2026-04-20T06:49:30.001Z</time></trkpt><trkpt lat="14.444434911242222" lon="120.9040330610936"><ele>7.000000000000001</ele><time>2026-04-20T06:49:31.001Z</time></trkpt><trkpt lat="14.444407744478177" lon="120.90394882264485"><ele>7.0</ele><time>2026-04-20T06:49:32.001Z</time></trkpt><trkpt lat="14.444384268936233" lon="120.90386278864024"><ele>7.000000000000001</ele><time>2026-04-20T06:49:33.001Z</time></trkpt><trkpt lat="14.444355465867199" lon="120.90377814277177"><ele>7.0</ele><time>2026-04-20T06:49:34.001Z</time></trkpt><trkpt lat="14.4443233664962" lon="120.90368222497727"><ele>7.0</ele><time>2026-04-20T06:49:35.001Z</time></trkpt><trkpt lat="14.444294976056527" lon="120.90359797169137"><ele>7.0</ele><time>2026-04-20T06:49:36.001Z</time></trkpt><trkpt lat="14.444265959652446" lon="120.90351389846491"><ele>7.000000000000001</ele><time>2026-04-20T06:49:37.001Z</time></trkpt><trkpt lat="14.444229027134938" lon="120.90343812274922"><ele>7.0</ele><time>2026-04-20T06:49:38.001Z</time></trkpt><trkpt lat="14.44419592862279" lon="120.90336531544176"><ele>7.000000000000001</ele><time>2026-04-20T06:49:39.001Z</time></trkpt><trkpt lat="14.444157563791785" lon="120.90329533248064"><ele>7.0</ele><time>2026-04-20T06:49:40.001Z</time></trkpt><trkpt lat="14.444118317674377" lon="120.90322141181474"><ele>7.0</ele><time>2026-04-20T06:49:41.001Z</time></trkpt><trkpt lat="14.444080167375605" lon="120.90314955514253"><ele>7.0</ele><time>2026-04-20T06:49:42.001Z</time></trkpt><trkpt lat="14.444044832371045" lon="120.90308300111735"><ele>7.000000000000001</ele><time>2026-04-20T06:49:43.001Z</time></trkpt><trkpt lat="14.44401198605614" lon="120.9030211200025"><ele>7.0</ele><time>2026-04-20T06:49:44.001Z</time></trkpt><trkpt lat="14.443973238517227" lon="120.9029485383314"><ele>7.000000000000001</ele><time>2026-04-20T06:49:45.001Z</time></trkpt><trkpt lat="14.44393549741352" lon="120.90287784187231"><ele>7.0</ele><time>2026-04-20T06:49:46.001Z</time></trkpt><trkpt lat="14.443894409260588" lon="120.90281275246383"><ele>7.0</ele><time>2026-04-20T06:49:47.001Z</time></trkpt><trkpt lat="14.443856674092265" lon="120.90275042304054"><ele>7.0</ele><time>2026-04-20T06:49:48.001Z</time></trkpt><trkpt lat="14.443797738833213" lon="120.90265307612843"><ele>7.000000000000001</ele><time>2026-04-20T06:49:50.001Z</time></trkpt><trkpt lat="14.44374963586644" lon="120.9025736214687"><ele>7.0</ele><time>2026-04-20T06:49:52.001Z</time></trkpt><trkpt lat="14.44371330017423" lon="120.9025151495521"><ele>7.0</ele><time>2026-04-20T06:49:54.001Z</time></trkpt><trkpt lat="14.443793125703005" lon="120.90246640042223"><ele>6.999999999999999</ele><time>2026-04-20T06:49:58.001Z</time></trkpt><trkpt lat="14.443882546846378" lon="120.90239516106048"><ele>6.999999999999999</ele><time>2026-04-20T06:50:00.001Z</time></trkpt><trkpt lat="14.443978328352314" lon="120.9023188545718"><ele>7.0</ele><time>2026-04-20T06:50:02.001Z</time></trkpt><trkpt lat="14.4440496145509" lon="120.90226206281808"><ele>7.0</ele><time>2026-04-20T06:50:04.001Z</time></trkpt><trkpt lat="14.444111012967237" lon="120.90221314838881"><ele>6.833333333333334</ele><time>2026-04-20T06:50:07.001Z</time></trkpt><trkpt lat="14.444164605550647" lon="120.90217045265486"><ele>6.666666666666667</ele><time>2026-04-20T06:50:09.001Z</time></trkpt><trkpt lat="14.444212056725071" lon="120.90212069348698"><ele>6.5</ele><time>2026-04-20T06:50:12.001Z</time></trkpt><trkpt lat="14.444180710790105" lon="120.9019968226461"><ele>6.333333333333334</ele><time>2026-04-20T06:50:13.001Z</time></trkpt><trkpt lat="14.444145543602735" lon="120.90192059166569"><ele>6.166666666666667</ele><time>2026-04-20T06:50:17.001Z</time></trkpt><trkpt lat="14.444100069412006" lon="120.90182201845862"><ele>6.0</ele><time>2026-04-20T06:50:19.001Z</time></trkpt><trkpt lat="14.444044818318979" lon="120.90170236465451"><ele>6.0</ele><time>2026-04-20T06:50:21.001Z</time></trkpt><trkpt lat="14.443988902011945" lon="120.90158127737539"><ele>6.0</ele><time>2026-04-20T06:50:23.002Z</time></trkpt><trkpt lat="14.443940661694977" lon="120.9014768125265"><ele>6.0</ele><time>2026-04-20T06:50:25.002Z</time></trkpt><trkpt lat="14.443905188290888" lon="120.90139999446804"><ele>6.0</ele><time>2026-04-20T06:50:27.002Z</time></trkpt><trkpt lat="14.443872759216783" lon="120.90132758633764"><ele>6.0</ele><time>2026-04-20T06:50:31.002Z</time></trkpt><trkpt lat="14.443830942880677" lon="120.90123525266388"><ele>6.0</ele><time>2026-04-20T06:50:33.002Z</time></trkpt><trkpt lat="14.443781223248918" lon="120.90112546790458"><ele>6.0</ele><time>2026-04-20T06:50:35.002Z</time></trkpt><trkpt lat="14.443737023575846" lon="120.90102787163795"><ele>6.0</ele><time>2026-04-20T06:50:37.002Z</time></trkpt><trkpt lat="14.44370971463619" lon="120.9009675714059"><ele>6.0</ele><time>2026-04-20T06:50:41.002Z</time></trkpt><trkpt lat="14.443671680273066" lon="120.90088358861696"><ele>6.0</ele><time>2026-04-20T06:50:43.002Z</time></trkpt><trkpt lat="14.443621252137756" lon="120.90077203390659"><ele>6.0</ele><time>2026-04-20T06:50:45.002Z</time></trkpt><trkpt lat="14.443582837404344" lon="120.90068646797606"><ele>6.0</ele><time>2026-04-20T06:50:47.002Z</time></trkpt><trkpt lat="14.443551728065229" lon="120.90061717426983"><ele>6.0</ele><time>2026-04-20T06:50:49.002Z</time></trkpt><trkpt lat="14.443513775985716" lon="120.9005334897154"><ele>6.0</ele><time>2026-04-20T06:50:53.002Z</time></trkpt><trkpt lat="14.443468823454479" lon="120.90043470845582"><ele>6.0</ele><time>2026-04-20T06:50:55.002Z</time></trkpt><trkpt lat="14.443429517692184" lon="120.90034833572754"><ele>6.0</ele><time>2026-04-20T06:50:57.002Z</time></trkpt><trkpt lat="14.443272569958893" lon="120.9003658049572"><ele>6.0</ele><time>2026-04-20T06:51:04.001Z</time></trkpt><trkpt lat="14.443214660680255" lon="120.90039139619648"><ele>6.0</ele><time>2026-04-20T06:51:07.001Z</time></trkpt><trkpt lat="14.443340400120581" lon="120.90045708599077"><ele>6.0</ele><time>2026-04-20T06:54:31.807Z</time></trkpt><trkpt lat="14.443223053893849" lon="120.9004568206134"><ele>6.0</ele><time>2026-04-20T06:55:30.181Z</time></trkpt><trkpt lat="14.443325242998553" lon="120.90049177335406"><ele>6.0</ele><time>2026-04-20T07:21:13.03Z</time></trkpt><trkpt lat="14.443241798037821" lon="120.90043315652565"><ele>6.0</ele><time>2026-04-20T07:21:28Z</time></trkpt><trkpt lat="14.443297818702511" lon="120.90039269345208"><ele>6.0</ele><time>2026-04-20T07:22:03Z</time></trkpt><trkpt lat="14.443363234617545" lon="120.90033105513399"><ele>6.0</ele><time>2026-04-20T07:22:07Z</time></trkpt><trkpt lat="14.443432143670607" lon="120.90043157314474"><ele>6.0</ele><time>2026-04-20T07:22:10Z</time></trkpt><trkpt lat="14.443461884639964" lon="120.90053290153028"><ele>6.0</ele><time>2026-04-20T07:22:12Z</time></trkpt><trkpt lat="14.443491480202095" lon="120.90061113694671"><ele>6.0</ele><time>2026-04-20T07:22:14Z</time></trkpt><trkpt lat="14.443544371722412" lon="120.9006967120017"><ele>6.0</ele><time>2026-04-20T07:22:19.001Z</time></trkpt><trkpt lat="14.443591309801127" lon="120.90081065946616"><ele>6.0</ele><time>2026-04-20T07:22:21.001Z</time></trkpt><trkpt lat="14.44361392351073" lon="120.9008763463641"><ele>6.0</ele><time>2026-04-20T07:22:22.001Z</time></trkpt><trkpt lat="14.443659296112262" lon="120.90097260182124"><ele>6.0</ele><time>2026-04-20T07:22:24.001Z</time></trkpt><trkpt lat="14.443693549109883" lon="120.90104136191763"><ele>6.0</ele><time>2026-04-20T07:22:26.001Z</time></trkpt><trkpt lat="14.44373650957625" lon="120.90112486339197"><ele>6.0</ele><time>2026-04-20T07:22:30.001Z</time></trkpt><trkpt lat="14.44379083123208" lon="120.9012317073783"><ele>6.0</ele><time>2026-04-20T07:22:32.001Z</time></trkpt><trkpt lat="14.443831777093719" lon="120.90132074166738"><ele>6.0</ele><time>2026-04-20T07:22:34.001Z</time></trkpt><trkpt lat="14.443853247416824" lon="120.90138303361194"><ele>6.0</ele><time>2026-04-20T07:22:36.001Z</time></trkpt><trkpt lat="14.443890551119173" lon="120.90146524069087"><ele>6.0</ele><time>2026-04-20T07:22:40.001Z</time></trkpt><trkpt lat="14.443935680443465" lon="120.90156414233533"><ele>6.0</ele><time>2026-04-20T07:22:42.001Z</time></trkpt><trkpt lat="14.443994353670162" lon="120.90167756209352"><ele>6.0</ele><time>2026-04-20T07:22:44.001Z</time></trkpt><trkpt lat="14.444043780476328" lon="120.90177687707194"><ele>6.0</ele><time>2026-04-20T07:22:46.001Z</time></trkpt><trkpt lat="14.444090514894146" lon="120.90187959099009"><ele>6.0</ele><time>2026-04-20T07:22:48.001Z</time></trkpt><trkpt lat="14.44412594823211" lon="120.90196116925146"><ele>6.0</ele><time>2026-04-20T07:22:50.001Z</time></trkpt><trkpt lat="14.44415415562664" lon="120.9020340305213"><ele>6.0</ele><time>2026-04-20T07:22:54.001Z</time></trkpt><trkpt lat="14.444170436308786" lon="120.90210319181669"><ele>6.0</ele><time>2026-04-20T07:22:56.001Z</time></trkpt><trkpt lat="14.444127142818477" lon="120.9021601972109"><ele>6.0</ele><time>2026-04-20T07:22:58.001Z</time></trkpt><trkpt lat="14.444041692160317" lon="120.90220026154972"><ele>6.0</ele><time>2026-04-20T07:23:00.001Z</time></trkpt><trkpt lat="14.443984721397554" lon="120.90224827414151"><ele>6.0</ele><time>2026-04-20T07:23:01.001Z</time></trkpt><trkpt lat="14.443899468737284" lon="120.90230322507689"><ele>6.0</ele><time>2026-04-20T07:23:03.001Z</time></trkpt><trkpt lat="14.443822802927317" lon="120.90237759261545"><ele>6.0</ele><time>2026-04-20T07:23:05.001Z</time></trkpt><trkpt lat="14.443750856625853" lon="120.9024349102496"><ele>6.0</ele><time>2026-04-20T07:23:07.001Z</time></trkpt><trkpt lat="14.44368232616275" lon="120.90246743614735"><ele>6.0</ele><time>2026-04-20T07:23:09.001Z</time></trkpt><trkpt lat="14.443683718962987" lon="120.9025729399889"><ele>6.0</ele><time>2026-04-20T07:23:12.001Z</time></trkpt><trkpt lat="14.443730268849828" lon="120.90265625483447"><ele>6.0</ele><time>2026-04-20T07:23:14.001Z</time></trkpt><trkpt lat="14.443791265216218" lon="120.90273525814165"><ele>6.0</ele><time>2026-04-20T07:23:16.001Z</time></trkpt><trkpt lat="14.443867104576988" lon="120.9028352939491"><ele>6.0</ele><time>2026-04-20T07:23:18.002Z</time></trkpt><trkpt lat="14.443901432049344" lon="120.90289444405617"><ele>6.0</ele><time>2026-04-20T07:23:19.002Z</time></trkpt><trkpt lat="14.443936618395341" lon="120.90295273520805"><ele>6.0</ele><time>2026-04-20T07:23:20.002Z</time></trkpt><trkpt lat="14.443976722721198" lon="120.90301769653392"><ele>6.166666666666667</ele><time>2026-04-20T07:23:21.002Z</time></trkpt><trkpt lat="14.444012193105825" lon="120.90308543472928"><ele>6.333333333333334</ele><time>2026-04-20T07:23:22.002Z</time></trkpt><trkpt lat="14.4440512770293" lon="120.9031537766918"><ele>6.5</ele><time>2026-04-20T07:23:23.002Z</time></trkpt><trkpt lat="14.444092410650603" lon="120.90322627308208"><ele>6.666666666666667</ele><time>2026-04-20T07:23:23.999Z</time></trkpt><trkpt lat="14.44412679499728" lon="120.90329511230672"><ele>6.833333333333334</ele><time>2026-04-20T07:23:24.999Z</time></trkpt><trkpt lat="14.44416839035752" lon="120.90337435797025"><ele>7.0</ele><time>2026-04-20T07:23:25.999Z</time></trkpt><trkpt lat="14.444207894383919" lon="120.90345945133491"><ele>7.0</ele><time>2026-04-20T07:23:26.999Z</time></trkpt><trkpt lat="14.444237281414168" lon="120.90354704361297"><ele>6.999999999999999</ele><time>2026-04-20T07:23:27.999Z</time></trkpt><trkpt lat="14.444270435056625" lon="120.90363984829419"><ele>6.999999999999999</ele><time>2026-04-20T07:23:28.999Z</time></trkpt><trkpt lat="14.444299782280282" lon="120.90373107996422"><ele>7.0</ele><time>2026-04-20T07:23:29.999Z</time></trkpt><trkpt lat="14.444330887761774" lon="120.90382729495498"><ele>7.0</ele><time>2026-04-20T07:23:30.999Z</time></trkpt><trkpt lat="14.444354735573228" lon="120.90390694400989"><ele>7.000000000000001</ele><time>2026-04-20T07:23:31.999Z</time></trkpt><trkpt lat="14.444379968472258" lon="120.90399084052329"><ele>7.0</ele><time>2026-04-20T07:23:32.999Z</time></trkpt><trkpt lat="14.44440386644513" lon="120.90407246010098"><ele>7.0</ele><time>2026-04-20T07:23:33.999Z</time></trkpt><trkpt lat="14.44443191911276" lon="120.9041577221835"><ele>7.0</ele><time>2026-04-20T07:23:34.999Z</time></trkpt><trkpt lat="14.444459187101666" lon="120.90424036741135"><ele>7.000000000000001</ele><time>2026-04-20T07:23:35.999Z</time></trkpt><trkpt lat="14.444488386885565" lon="120.90432541114386"><ele>7.0</ele><time>2026-04-20T07:23:36.999Z</time></trkpt><trkpt lat="14.444517964728785" lon="120.90440063577556"><ele>7.000000000000001</ele><time>2026-04-20T07:23:37.999Z</time></trkpt><trkpt lat="14.444536308593001" lon="120.90446743334502"><ele>7.0</ele><time>2026-04-20T07:23:38.999Z</time></trkpt><trkpt lat="14.444551960408235" lon="120.904533133944"><ele>7.0</ele><time>2026-04-20T07:23:39.999Z</time></trkpt><trkpt lat="14.444574403301521" lon="120.90460675142775"><ele>7.0</ele><time>2026-04-20T07:23:41Z</time></trkpt><trkpt lat="14.444596026540522" lon="120.90467429313625"><ele>7.000000000000001</ele><time>2026-04-20T07:23:42Z</time></trkpt><trkpt lat="14.44463852945082" lon="120.90478982898168"><ele>7.0</ele><time>2026-04-20T07:23:44Z</time></trkpt><trkpt lat="14.444672597548266" lon="120.90490161093511"><ele>7.0</ele><time>2026-04-20T07:23:46Z</time></trkpt><trkpt lat="14.444709564561935" lon="120.9050085479444"><ele>6.999999999999999</ele><time>2026-04-20T07:23:48Z</time></trkpt><trkpt lat="14.44474288299289" lon="120.90511876893481"><ele>6.999999999999999</ele><time>2026-04-20T07:23:50Z</time></trkpt><trkpt lat="14.444771795788407" lon="120.90522626339643"><ele>7.0</ele><time>2026-04-20T07:23:52Z</time></trkpt><trkpt lat="14.444807506761297" lon="120.90534130406694"><ele>7.0</ele><time>2026-04-20T07:23:54Z</time></trkpt><trkpt lat="14.44483143298814" lon="120.90544586550237"><ele>7.000000000000001</ele><time>2026-04-20T07:23:56Z</time></trkpt><trkpt lat="14.444859160839783" lon="120.90553303208789"><ele>7.0</ele><time>2026-04-20T07:23:58Z</time></trkpt><trkpt lat="14.444886508629208" lon="120.90561475235918"><ele>7.0</ele><time>2026-04-20T07:24:00Z</time></trkpt><trkpt lat="14.44491197456161" lon="120.90571055922227"><ele>7.0</ele><time>2026-04-20T07:24:02Z</time></trkpt><trkpt lat="14.444931593716174" lon="120.90581914008699"><ele>7.000000000000001</ele><time>2026-04-20T07:24:04Z</time></trkpt><trkpt lat="14.444949952422016" lon="120.90589091461544"><ele>7.0</ele><time>2026-04-20T07:24:10Z</time></trkpt><trkpt lat="14.44496373244984" lon="120.90598558686769"><ele>7.199999999999999</ele><time>2026-04-20T07:24:13Z</time></trkpt><trkpt lat="14.444985985758281" lon="120.90606711860141"><ele>7.3999999999999995</ele><time>2026-04-20T07:24:15Z</time></trkpt><trkpt lat="14.445013178307658" lon="120.90616882533257"><ele>7.6000000000000005</ele><time>2026-04-20T07:24:17Z</time></trkpt><trkpt lat="14.445039296757503" lon="120.9062568853443"><ele>7.800000000000001</ele><time>2026-04-20T07:24:19Z</time></trkpt><trkpt lat="14.445064956198667" lon="120.90635502339252"><ele>8.0</ele><time>2026-04-20T07:24:21Z</time></trkpt><trkpt lat="14.445095703338097" lon="120.90646029836786"><ele>8.0</ele><time>2026-04-20T07:24:23Z</time></trkpt><trkpt lat="14.445122010220977" lon="120.90652672033211"><ele>7.999999999999999</ele><time>2026-04-20T07:24:25Z</time></trkpt><trkpt lat="14.445138893145508" lon="120.90661491996065"><ele>8.0</ele><time>2026-04-20T07:24:28Z</time></trkpt><trkpt lat="14.445157714067358" lon="120.906686096597"><ele>8.0</ele><time>2026-04-20T07:24:34.001Z</time></trkpt><trkpt lat="14.445157176929841" lon="120.90675349727293"><ele>7.999999999999999</ele><time>2026-04-20T07:24:40.001Z</time></trkpt><trkpt lat="14.445176394668419" lon="120.9066906643535"><ele>8.0</ele><time>2026-04-20T07:25:28.002Z</time></trkpt><trkpt lat="14.44514985989161" lon="120.9066198008534"><ele>8.0</ele><time>2026-04-20T07:25:30.999Z</time></trkpt><trkpt lat="14.445266459663216" lon="120.90656970631747"><ele>7.999999999999999</ele><time>2026-04-20T07:25:31.999Z</time></trkpt><trkpt lat="14.44537954100168" lon="120.9065482423138"><ele>8.0</ele><time>2026-04-20T07:25:33.999Z</time></trkpt><trkpt lat="14.445450524223245" lon="120.90652972725846"><ele>8.0</ele><time>2026-04-20T07:25:34.999Z</time></trkpt><trkpt lat="14.445515575647331" lon="120.90651432050846"><ele>8.0</ele><time>2026-04-20T07:25:35.999Z</time></trkpt><trkpt lat="14.445585733271267" lon="120.90648049862753"><ele>7.999999999999999</ele><time>2026-04-20T07:25:36.999Z</time></trkpt><trkpt lat="14.445671989226247" lon="120.90649250290764"><ele>8.0</ele><time>2026-04-20T07:25:37.999Z</time></trkpt><trkpt lat="14.445762413526401" lon="120.90649421978237"><ele>7.6000000000000005</ele><time>2026-04-20T07:25:38.999Z</time></trkpt><trkpt lat="14.445854227547567" lon="120.90649888694733"><ele>7.200000000000001</ele><time>2026-04-20T07:25:39.999Z</time></trkpt><trkpt lat="14.445958200019943" lon="120.90650531845431"><ele>6.8</ele><time>2026-04-20T07:25:40.999Z</time></trkpt><trkpt lat="14.446049517625227" lon="120.90651059924264"><ele>6.4</ele><time>2026-04-20T07:25:41.999Z</time></trkpt><trkpt lat="14.446156630790352" lon="120.90651689082144"><ele>6.0</ele><time>2026-04-20T07:25:42.999Z</time></trkpt><trkpt lat="14.446258615381792" lon="120.90652288116046"><ele>6.166666666666667</ele><time>2026-04-20T07:25:43.999Z</time></trkpt><trkpt lat="14.446362230563558" lon="120.90652993760445"><ele>6.333333333333334</ele><time>2026-04-20T07:25:44.999Z</time></trkpt><trkpt lat="14.44644611487823" lon="120.90653568311322"><ele>6.5</ele><time>2026-04-20T07:25:45.999Z</time></trkpt><trkpt lat="14.446540967502624" lon="120.9065402482861"><ele>6.666666666666667</ele><time>2026-04-20T07:25:46.999Z</time></trkpt><trkpt lat="14.446617499620828" lon="120.90653737004918"><ele>6.833333333333334</ele><time>2026-04-20T07:25:47.999Z</time></trkpt><trkpt lat="14.446677455342233" lon="120.90657126691214"><ele>7.0</ele><time>2026-04-20T07:25:48.999Z</time></trkpt><trkpt lat="14.446727220600327" lon="120.90663394483069"><ele>7.0</ele><time>2026-04-20T07:25:49.999Z</time></trkpt><trkpt lat="14.446749645715256" lon="120.90671938595294"><ele>6.999999999999999</ele><time>2026-04-20T07:25:50.999Z</time></trkpt><trkpt lat="14.446761526216344" lon="120.90681018938055"><ele>6.999999999999999</ele><time>2026-04-20T07:25:51.999Z</time></trkpt><trkpt lat="14.446763270958998" lon="120.90690162974819"><ele>7.0</ele><time>2026-04-20T07:25:52.999Z</time></trkpt><trkpt lat="14.446775301576306" lon="120.907000921675"><ele>7.0</ele><time>2026-04-20T07:25:53.999Z</time></trkpt><trkpt lat="14.446789226670415" lon="120.90710006809391"><ele>6.8</ele><time>2026-04-20T07:25:54.999Z</time></trkpt><trkpt lat="14.446809477708195" lon="120.90720606334574"><ele>6.6</ele><time>2026-04-20T07:25:55.999Z</time></trkpt><trkpt lat="14.44682485521278" lon="120.90731227425881"><ele>6.3999999999999995</ele><time>2026-04-20T07:25:56.999Z</time></trkpt><trkpt lat="14.446837423800938" lon="120.9074193364335"><ele>6.199999999999999</ele><time>2026-04-20T07:25:57.999Z</time></trkpt><trkpt lat="14.446852675229316" lon="120.90752538406706"><ele>6.0</ele><time>2026-04-20T07:25:58.999Z</time></trkpt><trkpt lat="14.446865393855798" lon="120.90762713406109"><ele>5.8</ele><time>2026-04-20T07:26:00Z</time></trkpt><trkpt lat="14.44688713487885" lon="120.90774608805638"><ele>5.6</ele><time>2026-04-20T07:26:01Z</time></trkpt><trkpt lat="14.44690416583134" lon="120.90786079007533"><ele>5.4</ele><time>2026-04-20T07:26:02Z</time></trkpt><trkpt lat="14.446918395986565" lon="120.90796841094391"><ele>5.2</ele><time>2026-04-20T07:26:03Z</time></trkpt><trkpt lat="14.446945203487568" lon="120.90807399470481"><ele>5.0</ele><time>2026-04-20T07:26:04Z</time></trkpt><trkpt lat="14.446952811457034" lon="120.9081650927555"><ele>5.0</ele><time>2026-04-20T07:26:05Z</time></trkpt><trkpt lat="14.446957356468332" lon="120.90825790705105"><ele>5.0</ele><time>2026-04-20T07:26:06Z</time></trkpt><trkpt lat="14.446928940018529" lon="120.90832931384935"><ele>5.0</ele><time>2026-04-20T07:26:07Z</time></trkpt><trkpt lat="14.446897869802086" lon="120.90841065894104"><ele>5.0</ele><time>2026-04-20T07:26:08Z</time></trkpt><trkpt lat="14.446837033088972" lon="120.90845412401772"><ele>5.0</ele><time>2026-04-20T07:26:09Z</time></trkpt><trkpt lat="14.446758485123281" lon="120.9085010365954"><ele>5.0</ele><time>2026-04-20T07:26:10Z</time></trkpt><trkpt lat="14.446673777125753" lon="120.90851627831518"><ele>5.0</ele><time>2026-04-20T07:26:11Z</time></trkpt><trkpt lat="14.446578777064342" lon="120.90853991073517"><ele>5.0</ele><time>2026-04-20T07:26:12Z</time></trkpt><trkpt lat="14.446481601352339" lon="120.90857023945786"><ele>5.0</ele><time>2026-04-20T07:26:13Z</time></trkpt><trkpt lat="14.446383031351127" lon="120.90859281399042"><ele>5.0</ele><time>2026-04-20T07:26:14Z</time></trkpt><trkpt lat="14.44629059853066" lon="120.90861141150835"><ele>5.0</ele><time>2026-04-20T07:26:15Z</time></trkpt><trkpt lat="14.446197749735717" lon="120.90862926835878"><ele>5.4</ele><time>2026-04-20T07:26:16Z</time></trkpt><trkpt lat="14.446106674883856" lon="120.90864789272099"><ele>5.8</ele><time>2026-04-20T07:26:17Z</time></trkpt><trkpt lat="14.446031641401959" lon="120.90866235476007"><ele>6.199999999999999</ele><time>2026-04-20T07:26:18Z</time></trkpt><trkpt lat="14.4459612411403" lon="120.90867409393972"><ele>6.6</ele><time>2026-04-20T07:26:19Z</time></trkpt><trkpt lat="14.445870031604507" lon="120.90871237207587"><ele>7.0</ele><time>2026-04-20T07:26:21Z</time></trkpt><trkpt lat="14.445854253974423" lon="120.90885177921422"><ele>7.0</ele><time>2026-04-20T07:26:24Z</time></trkpt><trkpt lat="14.445889563188526" lon="120.90894100227213"><ele>6.999999999999999</ele><time>2026-04-20T07:26:26Z</time></trkpt><trkpt lat="14.445928362824208" lon="120.90902491838706"><ele>6.999999999999999</ele><time>2026-04-20T07:26:28Z</time></trkpt><trkpt lat="14.44597986156767" lon="120.90913594277414"><ele>7.0</ele><time>2026-04-20T07:26:30Z</time></trkpt><trkpt lat="14.44602720397751" lon="120.90925001643303"><ele>7.0</ele><time>2026-04-20T07:26:32Z</time></trkpt><trkpt lat="14.446050233587657" lon="120.909318970769"><ele>7.000000000000001</ele><time>2026-04-20T07:26:33Z</time></trkpt><trkpt lat="14.446075587686416" lon="120.90937876065296"><ele>7.0</ele><time>2026-04-20T07:26:34Z</time></trkpt><trkpt lat="14.446105599864817" lon="120.90945418354764"><ele>7.0</ele><time>2026-04-20T07:26:35Z</time></trkpt><trkpt lat="14.446130843450181" lon="120.9095206607312"><ele>7.0</ele><time>2026-04-20T07:26:36Z</time></trkpt><trkpt lat="14.446158922003285" lon="120.90960516103917"><ele>7.000000000000001</ele><time>2026-04-20T07:26:37Z</time></trkpt><trkpt lat="14.446181979046287" lon="120.90967859220909"><ele>7.0</ele><time>2026-04-20T07:26:38Z</time></trkpt><trkpt lat="14.446207914876819" lon="120.90976554970933"><ele>7.000000000000001</ele><time>2026-04-20T07:26:39Z</time></trkpt><trkpt lat="14.446239585837164" lon="120.90985859449455"><ele>7.0</ele><time>2026-04-20T07:26:40Z</time></trkpt><trkpt lat="14.446262133183595" lon="120.90994824345401"><ele>7.0</ele><time>2026-04-20T07:26:41Z</time></trkpt><trkpt lat="14.446290245353891" lon="120.91004312760569"><ele>7.0</ele><time>2026-04-20T07:26:42Z</time></trkpt><trkpt lat="14.446302699845457" lon="120.91011260032496"><ele>7.000000000000001</ele><time>2026-04-20T07:26:43Z</time></trkpt><trkpt lat="14.446319550688484" lon="120.9101866273361"><ele>7.0</ele><time>2026-04-20T07:26:44.001Z</time></trkpt><trkpt lat="14.446338886598657" lon="120.91026225981105"><ele>7.000000000000001</ele><time>2026-04-20T07:26:45.001Z</time></trkpt><trkpt lat="14.446358048154579" lon="120.91033627896766"><ele>7.0</ele><time>2026-04-20T07:26:46.001Z</time></trkpt><trkpt lat="14.446375522267733" lon="120.91041206103944"><ele>7.0</ele><time>2026-04-20T07:26:47.001Z</time></trkpt><trkpt lat="14.446397877450927" lon="120.91049377865839"><ele>7.0</ele><time>2026-04-20T07:26:48.001Z</time></trkpt><trkpt lat="14.446420445445478" lon="120.91057948906754"><ele>7.000000000000001</ele><time>2026-04-20T07:26:49.001Z</time></trkpt><trkpt lat="14.446440525488143" lon="120.91066860117456"><ele>7.0</ele><time>2026-04-20T07:26:50.001Z</time></trkpt><trkpt lat="14.446458874446435" lon="120.91075932215493"><ele>7.000000000000001</ele><time>2026-04-20T07:26:51.001Z</time></trkpt><trkpt lat="14.446479856403304" lon="120.9108564970268"><ele>7.0</ele><time>2026-04-20T07:26:52.001Z</time></trkpt><trkpt lat="14.44650026821641" lon="120.91094779053311"><ele>7.0</ele><time>2026-04-20T07:26:53.001Z</time></trkpt><trkpt lat="14.446514241913281" lon="120.91102566388025"><ele>7.0</ele><time>2026-04-20T07:26:54.001Z</time></trkpt><trkpt lat="14.446527011659073" lon="120.91110171262385"><ele>7.000000000000001</ele><time>2026-04-20T07:26:55.001Z</time></trkpt><trkpt lat="14.446543090633913" lon="120.91117654239112"><ele>7.0</ele><time>2026-04-20T07:26:56.001Z</time></trkpt><trkpt lat="14.44656217713365" lon="120.9112533529226"><ele>7.000000000000001</ele><time>2026-04-20T07:26:57.001Z</time></trkpt><trkpt lat="14.446577219609622" lon="120.91132760516182"><ele>7.0</ele><time>2026-04-20T07:26:58.001Z</time></trkpt><trkpt lat="14.446595426876891" lon="120.91141434382531"><ele>7.0</ele><time>2026-04-20T07:26:59.001Z</time></trkpt><trkpt lat="14.446608110797579" lon="120.911494728722"><ele>7.0</ele><time>2026-04-20T07:27:00.001Z</time></trkpt><trkpt lat="14.446626646354042" lon="120.91157907515517"><ele>7.000000000000001</ele><time>2026-04-20T07:27:01.001Z</time></trkpt><trkpt lat="14.44663819106943" lon="120.91165607067042"><ele>7.0</ele><time>2026-04-20T07:27:02.001Z</time></trkpt><trkpt lat="14.446647893840346" lon="120.91174113976935"><ele>6.8</ele><time>2026-04-20T07:27:03.001Z</time></trkpt><trkpt lat="14.446656992001532" lon="120.9118233870444"><ele>6.6</ele><time>2026-04-20T07:27:04.001Z</time></trkpt><trkpt lat="14.446670145563962" lon="120.91192714334207"><ele>6.3999999999999995</ele><time>2026-04-20T07:27:05.001Z</time></trkpt><trkpt lat="14.446678134306506" lon="120.91203401375762"><ele>6.199999999999999</ele><time>2026-04-20T07:27:06.001Z</time></trkpt><trkpt lat="14.4466860312707" lon="120.91215867836303"><ele>6.0</ele><time>2026-04-20T07:27:07.001Z</time></trkpt><trkpt lat="14.446695407154575" lon="120.91229305597261"><ele>6.0</ele><time>2026-04-20T07:27:08.001Z</time></trkpt><trkpt lat="14.446702190961156" lon="120.91243062208919"><ele>6.0</ele><time>2026-04-20T07:27:09.001Z</time></trkpt><trkpt lat="14.446703360475803" lon="120.9125753797169"><ele>6.0</ele><time>2026-04-20T07:27:10.001Z</time></trkpt><trkpt lat="14.446699544547775" lon="120.91272116983185"><ele>6.0</ele><time>2026-04-20T07:27:11.001Z</time></trkpt><trkpt lat="14.44670257000569" lon="120.91286227573063"><ele>6.0</ele><time>2026-04-20T07:27:12.001Z</time></trkpt><trkpt lat="14.446709803779564" lon="120.91301132237628"><ele>6.0</ele><time>2026-04-20T07:27:13.001Z</time></trkpt><trkpt lat="14.446718135765082" lon="120.91315203159066"><ele>6.0</ele><time>2026-04-20T07:27:14.001Z</time></trkpt><trkpt lat="14.446731205252021" lon="120.9132930102945"><ele>6.0</ele><time>2026-04-20T07:27:15.001Z</time></trkpt><trkpt lat="14.446744430077377" lon="120.9134399510725"><ele>6.0</ele><time>2026-04-20T07:27:16.001Z</time></trkpt><trkpt lat="14.4467585770874" lon="120.9135733858697"><ele>6.0</ele><time>2026-04-20T07:27:17.001Z</time></trkpt><trkpt lat="14.446772538618616" lon="120.91368684890904"><ele>6.0</ele><time>2026-04-20T07:27:18.001Z</time></trkpt><trkpt lat="14.446786159525645" lon="120.9137973766946"><ele>6.0</ele><time>2026-04-20T07:27:19.001Z</time></trkpt><trkpt lat="14.446803468600411" lon="120.91397061677735"><ele>6.0</ele><time>2026-04-20T07:27:20.001Z</time></trkpt><trkpt lat="14.446815229627145" lon="120.91410145739539"><ele>6.0</ele><time>2026-04-20T07:27:21.001Z</time></trkpt><trkpt lat="14.446828807814777" lon="120.9142128383077"><ele>6.0</ele><time>2026-04-20T07:27:22.001Z</time></trkpt><trkpt lat="14.446843497274632" lon="120.91432098322996"><ele>6.0</ele><time>2026-04-20T07:27:23.001Z</time></trkpt><trkpt lat="14.446859379859188" lon="120.91443822723109"><ele>6.0</ele><time>2026-04-20T07:27:24.001Z</time></trkpt><trkpt lat="14.446876112553984" lon="120.91456967058076"><ele>6.0</ele><time>2026-04-20T07:27:25.001Z</time></trkpt><trkpt lat="14.446889075788674" lon="120.91470848323837"><ele>6.0</ele><time>2026-04-20T07:27:26.001Z</time></trkpt><trkpt lat="14.44690302145671" lon="120.91485114053907"><ele>6.0</ele><time>2026-04-20T07:27:27.001Z</time></trkpt><trkpt lat="14.446918580875696" lon="120.91499155312563"><ele>5.8</ele><time>2026-04-20T07:27:28.001Z</time></trkpt><trkpt lat="14.446927433083632" lon="120.91510842303352"><ele>5.6</ele><time>2026-04-20T07:27:29.001Z</time></trkpt><trkpt lat="14.446936489020098" lon="120.91520407417866"><ele>5.4</ele><time>2026-04-20T07:27:30.001Z</time></trkpt><trkpt lat="14.446963019681538" lon="120.91533524078777"><ele>5.2</ele><time>2026-04-20T07:27:31.001Z</time></trkpt><trkpt lat="14.446959584618973" lon="120.91543290087687"><ele>5.0</ele><time>2026-04-20T07:27:33.001Z</time></trkpt><trkpt lat="14.446827139283844" lon="120.915579513029"><ele>5.0</ele><time>2026-04-20T07:27:37.999Z</time></trkpt><trkpt lat="14.446752413305935" lon="120.91557296455855"><ele>5.0</ele><time>2026-04-20T07:27:39.999Z</time></trkpt><trkpt lat="14.446720340846884" lon="120.91547303252067"><ele>5.0</ele><time>2026-04-20T07:27:40.999Z</time></trkpt><trkpt lat="14.446662690861604" lon="120.9154320884518"><ele>5.0</ele><time>2026-04-20T07:27:41.999Z</time></trkpt><trkpt lat="14.44659036167794" lon="120.91539204830569"><ele>5.0</ele><time>2026-04-20T07:27:42.999Z</time></trkpt><trkpt lat="14.446499920126461" lon="120.9153486782734"><ele>5.0</ele><time>2026-04-20T07:27:43.999Z</time></trkpt><trkpt lat="14.446397267768004" lon="120.91529614799961"><ele>5.0</ele><time>2026-04-20T07:27:44.999Z</time></trkpt><trkpt lat="14.446300305386023" lon="120.91523694248342"><ele>5.0</ele><time>2026-04-20T07:27:45.999Z</time></trkpt><trkpt lat="14.446181551538992" lon="120.91517385002004"><ele>5.0</ele><time>2026-04-20T07:27:46.999Z</time></trkpt><trkpt lat="14.446057774605945" lon="120.91511177648204"><ele>5.0</ele><time>2026-04-20T07:27:47.999Z</time></trkpt><trkpt lat="14.445935861924225" lon="120.91504653776055"><ele>5.0</ele><time>2026-04-20T07:27:48.999Z</time></trkpt><trkpt lat="14.44582908786546" lon="120.91498672540618"><ele>5.0</ele><time>2026-04-20T07:27:49.999Z</time></trkpt><trkpt lat="14.445731085510253" lon="120.91493257022022"><ele>5.0</ele><time>2026-04-20T07:27:50.999Z</time></trkpt><trkpt lat="14.445641548912358" lon="120.91488317821288"><ele>5.0</ele><time>2026-04-20T07:27:52Z</time></trkpt><trkpt lat="14.445547014832423" lon="120.91483159829546"><ele>5.0</ele><time>2026-04-20T07:27:53Z</time></trkpt><trkpt lat="14.445463908094732" lon="120.91478116209298"><ele>5.0</ele><time>2026-04-20T07:27:54Z</time></trkpt><trkpt lat="14.445386250056117" lon="120.91473513242133"><ele>5.0</ele><time>2026-04-20T07:27:55Z</time></trkpt><trkpt lat="14.445321808908343" lon="120.91469883319625"><ele>5.0</ele><time>2026-04-20T07:27:56Z</time></trkpt><trkpt lat="14.445199921893131" lon="120.91462934571153"><ele>5.0</ele><time>2026-04-20T07:27:58Z</time></trkpt><trkpt lat="14.445127056415714" lon="120.91458815788172"><ele>5.0</ele><time>2026-04-20T07:27:59Z</time></trkpt><trkpt lat="14.44506374671004" lon="120.91454857452392"><ele>5.0</ele><time>2026-04-20T07:28:00Z</time></trkpt><trkpt lat="14.44497597802161" lon="120.91449667965479"><ele>5.0</ele><time>2026-04-20T07:28:02Z</time></trkpt><trkpt lat="14.444919435073695" lon="120.91446245566287"><ele>5.0</ele><time>2026-04-20T07:28:04Z</time></trkpt><trkpt lat="14.444854433749361" lon="120.91440802080825"><ele>5.0</ele><time>2026-04-20T07:28:07Z</time></trkpt><trkpt lat="14.444759480872932" lon="120.91454220546807"><ele>5.0</ele><time>2026-04-20T07:28:09Z</time></trkpt><trkpt lat="14.444718413108241" lon="120.91460516241355"><ele>5.0</ele><time>2026-04-20T07:28:10Z</time></trkpt><trkpt lat="14.444676304333598" lon="120.9146652618058"><ele>5.0</ele><time>2026-04-20T07:28:11Z</time></trkpt><trkpt lat="14.444617606424012" lon="120.91473540282263"><ele>5.0</ele><time>2026-04-20T07:28:12Z</time></trkpt><trkpt lat="14.4445569715147" lon="120.91481182838773"><ele>5.0</ele><time>2026-04-20T07:28:13Z</time></trkpt><trkpt lat="14.444492539803237" lon="120.91489788497108"><ele>5.0</ele><time>2026-04-20T07:28:14Z</time></trkpt><trkpt lat="14.4444242364668" lon="120.91497453284768"><ele>4.75</ele><time>2026-04-20T07:28:15Z</time></trkpt><trkpt lat="14.444351305785819" lon="120.91505995503555"><ele>4.5</ele><time>2026-04-20T07:28:16Z</time></trkpt><trkpt lat="14.44428199754844" lon="120.91516200855011"><ele>4.25</ele><time>2026-04-20T07:28:17Z</time></trkpt><trkpt lat="14.444215778958357" lon="120.91526768978633"><ele>4.0</ele><time>2026-04-20T07:28:18Z</time></trkpt><trkpt lat="14.444156668849098" lon="120.91539107457477"><ele>4.5</ele><time>2026-04-20T07:28:19Z</time></trkpt><trkpt lat="14.4440980482501" lon="120.91551039514445"><ele>5.0</ele><time>2026-04-20T07:28:20Z</time></trkpt><trkpt lat="14.444038178597543" lon="120.91563274889057"><ele>5.5</ele><time>2026-04-20T07:28:21Z</time></trkpt><trkpt lat="14.44399076034217" lon="120.91577355226939"><ele>6.0</ele><time>2026-04-20T07:28:22Z</time></trkpt><trkpt lat="14.443943433768572" lon="120.91592526590921"><ele>6.0</ele><time>2026-04-20T07:28:23Z</time></trkpt><trkpt lat="14.443865167473323" lon="120.91606576576302"><ele>6.0</ele><time>2026-04-20T07:28:24Z</time></trkpt><trkpt lat="14.443774522237007" lon="120.91613286292485"><ele>6.0</ele><time>2026-04-20T07:28:25Z</time></trkpt><trkpt lat="14.443681086591528" lon="120.91624828689316"><ele>6.0</ele><time>2026-04-20T07:28:26Z</time></trkpt><trkpt lat="14.443580737913228" lon="120.91636117302988"><ele>5.75</ele><time>2026-04-20T07:28:27Z</time></trkpt><trkpt lat="14.443482889422173" lon="120.91647202312235"><ele>5.5</ele><time>2026-04-20T07:28:28Z</time></trkpt><trkpt lat="14.443377591443245" lon="120.9165758810637"><ele>5.25</ele><time>2026-04-20T07:28:29Z</time></trkpt><trkpt lat="14.443278703580665" lon="120.91667077808171"><ele>5.0</ele><time>2026-04-20T07:28:30Z</time></trkpt><trkpt lat="14.44318563788341" lon="120.91675531411535"><ele>5.5</ele><time>2026-04-20T07:28:31Z</time></trkpt><trkpt lat="14.443084190423049" lon="120.91682637601653"><ele>6.0</ele><time>2026-04-20T07:28:32Z</time></trkpt><trkpt lat="14.44296950270574" lon="120.91687781162389"><ele>6.5</ele><time>2026-04-20T07:28:33.001Z</time></trkpt><trkpt lat="14.442842941953884" lon="120.916906625123"><ele>7.0</ele><time>2026-04-20T07:28:34.001Z</time></trkpt><trkpt lat="14.44271016204571" lon="120.91690542385376"><ele>7.25</ele><time>2026-04-20T07:28:35.001Z</time></trkpt><trkpt lat="14.442572883802695" lon="120.91690763757177"><ele>7.5</ele><time>2026-04-20T07:28:36.001Z</time></trkpt><trkpt lat="14.44243044531354" lon="120.91690838574792"><ele>7.75</ele><time>2026-04-20T07:28:37.001Z</time></trkpt><trkpt lat="14.442287516812979" lon="120.91691310189042"><ele>8.0</ele><time>2026-04-20T07:28:38.001Z</time></trkpt><trkpt lat="14.442148844066638" lon="120.91691711218733"><ele>7.75</ele><time>2026-04-20T07:28:39.001Z</time></trkpt><trkpt lat="14.44201484892832" lon="120.91692377668967"><ele>7.5</ele><time>2026-04-20T07:28:40.001Z</time></trkpt><trkpt lat="14.441875538530388" lon="120.91693474159709"><ele>7.25</ele><time>2026-04-20T07:28:41.001Z</time></trkpt><trkpt lat="14.441738530330754" lon="120.91695172056045"><ele>7.0</ele><time>2026-04-20T07:28:42.001Z</time></trkpt><trkpt lat="14.441606106622746" lon="120.91696857580763"><ele>7.0</ele><time>2026-04-20T07:28:43.001Z</time></trkpt><trkpt lat="14.441468957555138" lon="120.91699236206681"><ele>7.0</ele><time>2026-04-20T07:28:44.001Z</time></trkpt><trkpt lat="14.441329544523839" lon="120.91702234265844"><ele>7.0</ele><time>2026-04-20T07:28:45.001Z</time></trkpt><trkpt lat="14.441188498951979" lon="120.9170528048069"><ele>7.0</ele><time>2026-04-20T07:28:46.001Z</time></trkpt><trkpt lat="14.441050884492853" lon="120.91709224567845"><ele>7.0</ele><time>2026-04-20T07:28:47.001Z</time></trkpt><trkpt lat="14.440912143703384" lon="120.91712043690099"><ele>7.0</ele><time>2026-04-20T07:28:48.001Z</time></trkpt><trkpt lat="14.440763087614988" lon="120.91715032043938"><ele>7.0</ele><time>2026-04-20T07:28:49.001Z</time></trkpt><trkpt lat="14.44062511431625" lon="120.9171738949395"><ele>7.0</ele><time>2026-04-20T07:28:50.001Z</time></trkpt><trkpt lat="14.440486438809014" lon="120.91720039520375"><ele>6.5</ele><time>2026-04-20T07:28:51.001Z</time></trkpt><trkpt lat="14.440353810816191" lon="120.91723150473128"><ele>6.0</ele><time>2026-04-20T07:28:52.001Z</time></trkpt><trkpt lat="14.440228626401838" lon="120.91727128294846"><ele>5.5</ele><time>2026-04-20T07:28:53.001Z</time></trkpt><trkpt lat="14.44010081316375" lon="120.91732887850407"><ele>5.0</ele><time>2026-04-20T07:28:54.001Z</time></trkpt><trkpt lat="14.439974514125833" lon="120.9174127600564"><ele>5.0</ele><time>2026-04-20T07:28:55.001Z</time></trkpt><trkpt lat="14.43985492044373" lon="120.91749260879786"><ele>5.0</ele><time>2026-04-20T07:28:56.001Z</time></trkpt><trkpt lat="14.439740477140953" lon="120.91757407275507"><ele>5.0</ele><time>2026-04-20T07:28:57.001Z</time></trkpt><trkpt lat="14.439620347111553" lon="120.91767384389125"><ele>5.0</ele><time>2026-04-20T07:28:58.001Z</time></trkpt><trkpt lat="14.439503674133897" lon="120.91777388043293"><ele>4.666666666666667</ele><time>2026-04-20T07:28:59.001Z</time></trkpt><trkpt lat="14.439382424076369" lon="120.9178917106939"><ele>4.333333333333333</ele><time>2026-04-20T07:29:00.001Z</time></trkpt><trkpt lat="14.439262216220975" lon="120.91800796805794"><ele>4.0</ele><time>2026-04-20T07:29:01.001Z</time></trkpt><trkpt lat="14.439144380489376" lon="120.91813422488467"><ele>4.0</ele><time>2026-04-20T07:29:02.001Z</time></trkpt><trkpt lat="14.439023658109862" lon="120.91826043470523"><ele>4.0</ele><time>2026-04-20T07:29:03.001Z</time></trkpt><trkpt lat="14.438897671509821" lon="120.91836761157278"><ele>4.0</ele><time>2026-04-20T07:29:04.001Z</time></trkpt><trkpt lat="14.43876854143261" lon="120.91848115076405"><ele>5.0</ele><time>2026-04-20T07:29:05.001Z</time></trkpt><trkpt lat="14.438638372020726" lon="120.91859560673367"><ele>6.0</ele><time>2026-04-20T07:29:06.001Z</time></trkpt><trkpt lat="14.438505531271636" lon="120.91871979658451"><ele>7.0</ele><time>2026-04-20T07:29:07.001Z</time></trkpt><trkpt lat="14.438369112510099" lon="120.91884815026317"><ele>7.0</ele><time>2026-04-20T07:29:08.001Z</time></trkpt><trkpt lat="14.438234134228209" lon="120.91897158704107"><ele>7.0</ele><time>2026-04-20T07:29:09.001Z</time></trkpt><trkpt lat="14.438102687524736" lon="120.91909145317786"><ele>7.0</ele><time>2026-04-20T07:29:10.001Z</time></trkpt><trkpt lat="14.437962973541936" lon="120.91921819695693"><ele>6.666666666666667</ele><time>2026-04-20T07:29:11.001Z</time></trkpt><trkpt lat="14.437829266789702" lon="120.91934248335865"><ele>6.333333333333334</ele><time>2026-04-20T07:29:12.001Z</time></trkpt><trkpt lat="14.437694276948411" lon="120.91947563924586"><ele>6.0</ele><time>2026-04-20T07:29:13.001Z</time></trkpt><trkpt lat="14.437566837406186" lon="120.91960492249446"><ele>6.0</ele><time>2026-04-20T07:29:14.001Z</time></trkpt><trkpt lat="14.437427776551816" lon="120.91974178557143"><ele>6.0</ele><time>2026-04-20T07:29:15.001Z</time></trkpt><trkpt lat="14.437299473544265" lon="120.91987516302692"><ele>6.0</ele><time>2026-04-20T07:29:16.001Z</time></trkpt><trkpt lat="14.43716743101502" lon="120.92001747200922"><ele>6.333333333333334</ele><time>2026-04-20T07:29:17.001Z</time></trkpt><trkpt lat="14.437039097915394" lon="120.9201562663937"><ele>6.666666666666667</ele><time>2026-04-20T07:29:18.001Z</time></trkpt><trkpt lat="14.436906900705555" lon="120.92029542652345"><ele>7.0</ele><time>2026-04-20T07:29:19.001Z</time></trkpt><trkpt lat="14.436771226904783" lon="120.92043597096787"><ele>7.0</ele><time>2026-04-20T07:29:20.001Z</time></trkpt><trkpt lat="14.436635208456007" lon="120.92057518836636"><ele>7.0</ele><time>2026-04-20T07:29:21.002Z</time></trkpt><trkpt lat="14.436507345941601" lon="120.92071242925493"><ele>7.0</ele><time>2026-04-20T07:29:22.002Z</time></trkpt><trkpt lat="14.436379848006386" lon="120.92085116259383"><ele>7.333333333333334</ele><time>2026-04-20T07:29:23.002Z</time></trkpt><trkpt lat="14.436256066521665" lon="120.92098002644443"><ele>7.666666666666666</ele><time>2026-04-20T07:29:24.002Z</time></trkpt><trkpt lat="14.436129897898423" lon="120.92111242473501"><ele>8.0</ele><time>2026-04-20T07:29:25.002Z</time></trkpt><trkpt lat="14.436007049505708" lon="120.92124320316458"><ele>8.0</ele><time>2026-04-20T07:29:26.002Z</time></trkpt><trkpt lat="14.435895258942084" lon="120.92137201965913"><ele>8.0</ele><time>2026-04-20T07:29:27.002Z</time></trkpt><trkpt lat="14.435793333506236" lon="120.92147815532925"><ele>8.0</ele><time>2026-04-20T07:29:28.002Z</time></trkpt><trkpt lat="14.43569504020819" lon="120.92158443467413"><ele>8.0</ele><time>2026-04-20T07:29:29.002Z</time></trkpt><trkpt lat="14.435600038643058" lon="120.92168707416874"><ele>8.0</ele><time>2026-04-20T07:29:30.002Z</time></trkpt><trkpt lat="14.435510117012644" lon="120.92177809883486"><ele>8.0</ele><time>2026-04-20T07:29:31.002Z</time></trkpt><trkpt lat="14.435420470536723" lon="120.92187550615695"><ele>8.0</ele><time>2026-04-20T07:29:32.002Z</time></trkpt><trkpt lat="14.435327228165729" lon="120.92195815830398"><ele>8.0</ele><time>2026-04-20T07:29:33.002Z</time></trkpt><trkpt lat="14.435220540595534" lon="120.9220283893145"><ele>8.0</ele><time>2026-04-20T07:29:34.002Z</time></trkpt><trkpt lat="14.435106244715604" lon="120.92206159689194"><ele>8.0</ele><time>2026-04-20T07:29:35.002Z</time></trkpt><trkpt lat="14.435000138959305" lon="120.922038504963"><ele>8.0</ele><time>2026-04-20T07:29:36.002Z</time></trkpt><trkpt lat="14.434877614922634" lon="120.92203271157503"><ele>8.0</ele><time>2026-04-20T07:29:37.002Z</time></trkpt><trkpt lat="14.434752615971652" lon="120.9220281981201"><ele>8.0</ele><time>2026-04-20T07:29:38.002Z</time></trkpt><trkpt lat="14.43463790040799" lon="120.92200751257627"><ele>8.0</ele><time>2026-04-20T07:29:39.002Z</time></trkpt><trkpt lat="14.434517500500453" lon="120.92199074684952"><ele>8.0</ele><time>2026-04-20T07:29:40.002Z</time></trkpt><trkpt lat="14.434377529002237" lon="120.92197109137761"><ele>7.75</ele><time>2026-04-20T07:29:41.002Z</time></trkpt><trkpt lat="14.434250494777364" lon="120.92194490778309"><ele>7.5</ele><time>2026-04-20T07:29:42Z</time></trkpt><trkpt lat="14.434107583255422" lon="120.92192566511201"><ele>7.25</ele><time>2026-04-20T07:29:43Z</time></trkpt><trkpt lat="14.4339670795371" lon="120.92190232679326"><ele>7.0</ele><time>2026-04-20T07:29:44Z</time></trkpt><trkpt lat="14.433835040077007" lon="120.92187169376068"><ele>7.25</ele><time>2026-04-20T07:29:45Z</time></trkpt><trkpt lat="14.433692775885156" lon="120.921843013891"><ele>7.5</ele><time>2026-04-20T07:29:46Z</time></trkpt><trkpt lat="14.433552915575248" lon="120.92181156647436"><ele>7.75</ele><time>2026-04-20T07:29:47Z</time></trkpt><trkpt lat="14.43340955473979" lon="120.92178375958684"><ele>8.0</ele><time>2026-04-20T07:29:48Z</time></trkpt><trkpt lat="14.433276033788697" lon="120.92175282690698"><ele>8.25</ele><time>2026-04-20T07:29:49Z</time></trkpt><trkpt lat="14.43313446434226" lon="120.92172895682677"><ele>8.5</ele><time>2026-04-20T07:29:50Z</time></trkpt><trkpt lat="14.432996792293325" lon="120.92170819863225"><ele>8.75</ele><time>2026-04-20T07:29:51Z</time></trkpt><trkpt lat="14.432861239221342" lon="120.92169806002913"><ele>9.0</ele><time>2026-04-20T07:29:52Z</time></trkpt><trkpt lat="14.432725141074558" lon="120.92170491742714"><ele>9.0</ele><time>2026-04-20T07:29:53Z</time></trkpt><trkpt lat="14.43260453298285" lon="120.92170614702039"><ele>9.0</ele><time>2026-04-20T07:29:54Z</time></trkpt><trkpt lat="14.43249489985138" lon="120.92170406708749"><ele>9.0</ele><time>2026-04-20T07:29:55Z</time></trkpt><trkpt lat="14.432391652710525" lon="120.9217059189961"><ele>9.0</ele><time>2026-04-20T07:29:56Z</time></trkpt><trkpt lat="14.432291225906287" lon="120.92171606164416"><ele>9.0</ele><time>2026-04-20T07:29:57Z</time></trkpt><trkpt lat="14.432188219401004" lon="120.92174215162164"><ele>9.0</ele><time>2026-04-20T07:29:58Z</time></trkpt><trkpt lat="14.432087146486623" lon="120.9217773878637"><ele>9.0</ele><time>2026-04-20T07:29:59Z</time></trkpt><trkpt lat="14.431982829352767" lon="120.92183362983548"><ele>9.0</ele><time>2026-04-20T07:30:00Z</time></trkpt><trkpt lat="14.431881296282823" lon="120.92189553118352"><ele>9.0</ele><time>2026-04-20T07:30:01Z</time></trkpt><trkpt lat="14.431787625555062" lon="120.92196072627333"><ele>9.0</ele><time>2026-04-20T07:30:02Z</time></trkpt><trkpt lat="14.431691976137543" lon="120.92204141731963"><ele>9.0</ele><time>2026-04-20T07:30:03Z</time></trkpt><trkpt lat="14.431599241345145" lon="120.92211646857741"><ele>9.0</ele><time>2026-04-20T07:30:04Z</time></trkpt><trkpt lat="14.431511251324975" lon="120.92218614766499"><ele>9.0</ele><time>2026-04-20T07:30:05Z</time></trkpt><trkpt lat="14.431426672362033" lon="120.92224793786363"><ele>9.0</ele><time>2026-04-20T07:30:06Z</time></trkpt><trkpt lat="14.431347651904655" lon="120.9223013160841"><ele>9.0</ele><time>2026-04-20T07:30:07Z</time></trkpt><trkpt lat="14.431264360599462" lon="120.92236735314424"><ele>9.0</ele><time>2026-04-20T07:30:08Z</time></trkpt><trkpt lat="14.431187746288002" lon="120.92241947093648"><ele>9.0</ele><time>2026-04-20T07:30:09Z</time></trkpt><trkpt lat="14.43110338614759" lon="120.9224578284869"><ele>9.0</ele><time>2026-04-20T07:30:10Z</time></trkpt><trkpt lat="14.431008621414598" lon="120.92247060656034"><ele>9.25</ele><time>2026-04-20T07:30:11Z</time></trkpt><trkpt lat="14.4309043850039" lon="120.92246735672917"><ele>9.5</ele><time>2026-04-20T07:30:12Z</time></trkpt><trkpt lat="14.430783587097638" lon="120.92246366223259"><ele>9.75</ele><time>2026-04-20T07:30:13Z</time></trkpt><trkpt lat="14.430660295460408" lon="120.9224563814869"><ele>10.0</ele><time>2026-04-20T07:30:14Z</time></trkpt><trkpt lat="14.430534191971518" lon="120.92245271515644"><ele>9.75</ele><time>2026-04-20T07:30:15Z</time></trkpt><trkpt lat="14.430417405232266" lon="120.92244231542965"><ele>9.5</ele><time>2026-04-20T07:30:16Z</time></trkpt><trkpt lat="14.430297816532073" lon="120.92243226912115"><ele>9.25</ele><time>2026-04-20T07:30:17Z</time></trkpt><trkpt lat="14.430169637916682" lon="120.92242087765906"><ele>9.0</ele><time>2026-04-20T07:30:18Z</time></trkpt><trkpt lat="14.43006281490001" lon="120.92240676014116"><ele>9.0</ele><time>2026-04-20T07:30:19Z</time></trkpt><trkpt lat="14.429959008525241" lon="120.92239343656468"><ele>9.0</ele><time>2026-04-20T07:30:20Z</time></trkpt><trkpt lat="14.429862796517805" lon="120.92238250139228"><ele>9.0</ele><time>2026-04-20T07:30:21.001Z</time></trkpt><trkpt lat="14.429776936811711" lon="120.9223677115295"><ele>9.0</ele><time>2026-04-20T07:30:22.001Z</time></trkpt><trkpt lat="14.42967372818041" lon="120.92235866661021"><ele>9.0</ele><time>2026-04-20T07:30:23.001Z</time></trkpt><trkpt lat="14.429574829352175" lon="120.92235150744258"><ele>9.0</ele><time>2026-04-20T07:30:24.001Z</time></trkpt><trkpt lat="14.429472340377947" lon="120.92235055856513"><ele>9.0</ele><time>2026-04-20T07:30:25.001Z</time></trkpt><trkpt lat="14.429389208182572" lon="120.92234061144444"><ele>9.0</ele><time>2026-04-20T07:30:26.001Z</time></trkpt><trkpt lat="14.429295413112746" lon="120.92231572275719"><ele>9.0</ele><time>2026-04-20T07:30:27.001Z</time></trkpt><trkpt lat="14.42921885120243" lon="120.92232405949984"><ele>9.0</ele><time>2026-04-20T07:30:28.001Z</time></trkpt><trkpt lat="14.429142809351045" lon="120.92232117838572"><ele>9.0</ele><time>2026-04-20T07:30:29.001Z</time></trkpt><trkpt lat="14.429075757380161" lon="120.9223206331708"><ele>9.000000000000002</ele><time>2026-04-20T07:30:30.001Z</time></trkpt><trkpt lat="14.429002639072875" lon="120.92232002835648"><ele>9.0</ele><time>2026-04-20T07:30:31.001Z</time></trkpt><trkpt lat="14.428927995021551" lon="120.9223108575185"><ele>9.0</ele><time>2026-04-20T07:30:32.001Z</time></trkpt><trkpt lat="14.428854377947745" lon="120.92229804562311"><ele>9.0</ele><time>2026-04-20T07:30:33.001Z</time></trkpt><trkpt lat="14.428776679409221" lon="120.92229001738943"><ele>9.0</ele><time>2026-04-20T07:30:34.001Z</time></trkpt><trkpt lat="14.428713361221618" lon="120.92227929219915"><ele>9.000000000000002</ele><time>2026-04-20T07:30:35.001Z</time></trkpt><trkpt lat="14.428638258116257" lon="120.92226376231913"><ele>9.0</ele><time>2026-04-20T07:30:37.001Z</time></trkpt><trkpt lat="14.428565481155378" lon="120.92225813708555"><ele>9.2</ele><time>2026-04-20T07:30:40.001Z</time></trkpt><trkpt lat="14.428440222381818" lon="120.9222504927494"><ele>9.4</ele><time>2026-04-20T07:30:42.001Z</time></trkpt><trkpt lat="14.428364309222024" lon="120.92224796439808"><ele>9.6</ele><time>2026-04-20T07:30:43.001Z</time></trkpt><trkpt lat="14.428270659169662" lon="120.92225401636608"><ele>9.8</ele><time>2026-04-20T07:30:44.001Z</time></trkpt><trkpt lat="14.428175130240156" lon="120.92227104236673"><ele>10.0</ele><time>2026-04-20T07:30:45.001Z</time></trkpt><trkpt lat="14.42809767839916" lon="120.92228008916987"><ele>10.0</ele><time>2026-04-20T07:30:46.001Z</time></trkpt><trkpt lat="14.428008902978632" lon="120.92227044899514"><ele>10.0</ele><time>2026-04-20T07:30:47.001Z</time></trkpt><trkpt lat="14.42793209330592" lon="120.92226254127775"><ele>10.0</ele><time>2026-04-20T07:30:48.001Z</time></trkpt><trkpt lat="14.427845627183292" lon="120.92225780468569"><ele>10.0</ele><time>2026-04-20T07:30:49.001Z</time></trkpt><trkpt lat="14.427769948318216" lon="120.92225738554833"><ele>10.0</ele><time>2026-04-20T07:30:50.001Z</time></trkpt><trkpt lat="14.42767840584341" lon="120.92225938289337"><ele>10.0</ele><time>2026-04-20T07:30:51.001Z</time></trkpt><trkpt lat="14.427585907232197" lon="120.92226539126202"><ele>11.0</ele><time>2026-04-20T07:30:52.001Z</time></trkpt><trkpt lat="14.427440802206567" lon="120.92270627928025"><ele>11.0</ele><time>2026-04-20T07:30:53.001Z</time></trkpt><trkpt lat="14.427339798546999" lon="120.9227776528966"><ele>11.0</ele><time>2026-04-20T07:30:54.001Z</time></trkpt><trkpt lat="14.427252332553964" lon="120.92283393749014"><ele>11.0</ele><time>2026-04-20T07:30:55.001Z</time></trkpt><trkpt lat="14.427157223772248" lon="120.92290875389925"><ele>11.0</ele><time>2026-04-20T07:30:56.001Z</time></trkpt><trkpt lat="14.427058714293" lon="120.9229816182888"><ele>10.8</ele><time>2026-04-20T07:30:57.001Z</time></trkpt><trkpt lat="14.426968974351121" lon="120.92302561274687"><ele>10.600000000000001</ele><time>2026-04-20T07:30:58.001Z</time></trkpt><trkpt lat="14.42688065499728" lon="120.92308441566449"><ele>10.4</ele><time>2026-04-20T07:30:59.001Z</time></trkpt><trkpt lat="14.426794939807792" lon="120.92313084835217"><ele>10.2</ele><time>2026-04-20T07:31:00.001Z</time></trkpt><trkpt lat="14.426712079373086" lon="120.92317845333191"><ele>10.0</ele><time>2026-04-20T07:31:01.001Z</time></trkpt><trkpt lat="14.426632548834231" lon="120.92319853626101"><ele>10.0</ele><time>2026-04-20T07:31:02.001Z</time></trkpt><trkpt lat="14.426536630739939" lon="120.92320829501044"><ele>10.0</ele><time>2026-04-20T07:31:03.001Z</time></trkpt><trkpt lat="14.426434263439544" lon="120.92319828706484"><ele>10.0</ele><time>2026-04-20T07:31:04.001Z</time></trkpt><trkpt lat="14.426332904570653" lon="120.92318584431118"><ele>10.0</ele><time>2026-04-20T07:31:05.001Z</time></trkpt><trkpt lat="14.426231806628396" lon="120.92318953023386"><ele>10.0</ele><time>2026-04-20T07:31:06.001Z</time></trkpt><trkpt lat="14.4261423171181" lon="120.92318882341364"><ele>10.0</ele><time>2026-04-20T07:31:07.001Z</time></trkpt><trkpt lat="14.426059015829129" lon="120.92318688282309"><ele>10.0</ele><time>2026-04-20T07:31:08.001Z</time></trkpt><trkpt lat="14.425975996886377" lon="120.92318155084122"><ele>10.0</ele><time>2026-04-20T07:31:09.001Z</time></trkpt><trkpt lat="14.42588603574254" lon="120.92317258326405"><ele>10.0</ele><time>2026-04-20T07:31:10.001Z</time></trkpt><trkpt lat="14.425775320686608" lon="120.92318178059381"><ele>10.0</ele><time>2026-04-20T07:31:11.001Z</time></trkpt><trkpt lat="14.425673271990767" lon="120.92318742315696"><ele>10.0</ele><time>2026-04-20T07:31:12.002Z</time></trkpt><trkpt lat="14.425591464550337" lon="120.9231860043721"><ele>10.0</ele><time>2026-04-20T07:31:13.002Z</time></trkpt><trkpt lat="14.425506445697025" lon="120.92318816982116"><ele>10.0</ele><time>2026-04-20T07:31:14.002Z</time></trkpt><trkpt lat="14.425427626742275" lon="120.92318553447764"><ele>10.0</ele><time>2026-04-20T07:31:15.002Z</time></trkpt><trkpt lat="14.425332766014275" lon="120.92319105172784"><ele>10.0</ele><time>2026-04-20T07:31:16.002Z</time></trkpt><trkpt lat="14.425243746385688" lon="120.92319195594004"><ele>10.0</ele><time>2026-04-20T07:31:17.002Z</time></trkpt><trkpt lat="14.425151809442474" lon="120.92319604059797"><ele>10.4</ele><time>2026-04-20T07:31:18.002Z</time></trkpt><trkpt lat="14.425047179241552" lon="120.92320303775588"><ele>10.8</ele><time>2026-04-20T07:31:19.002Z</time></trkpt><trkpt lat="14.424969754948906" lon="120.92319043930354"><ele>11.2</ele><time>2026-04-20T07:31:20.002Z</time></trkpt><trkpt lat="14.424890148853637" lon="120.92317770807183"><ele>11.6</ele><time>2026-04-20T07:31:21.002Z</time></trkpt><trkpt lat="14.424775511936787" lon="120.92320205521168"><ele>12.0</ele><time>2026-04-20T07:31:22.002Z</time></trkpt><trkpt lat="14.424687327561436" lon="120.92319391764025"><ele>12.0</ele><time>2026-04-20T07:31:23.002Z</time></trkpt><trkpt lat="14.424586905394307" lon="120.92320236289696"><ele>12.0</ele><time>2026-04-20T07:31:24.002Z</time></trkpt><trkpt lat="14.42449590154042" lon="120.92319764300198"><ele>12.0</ele><time>2026-04-20T07:31:25.002Z</time></trkpt><trkpt lat="14.424400653874585" lon="120.92319790733794"><ele>12.0</ele><time>2026-04-20T07:31:26.002Z</time></trkpt><trkpt lat="14.424297190328689" lon="120.92320915673011"><ele>12.0</ele><time>2026-04-20T07:31:27.002Z</time></trkpt><trkpt lat="14.424205007902525" lon="120.92320549252916"><ele>12.0</ele><time>2026-04-20T07:31:28.002Z</time></trkpt><trkpt lat="14.424109722079539" lon="120.92320591894854"><ele>12.0</ele><time>2026-04-20T07:31:29.002Z</time></trkpt><trkpt lat="14.424011097976582" lon="120.92322035206811"><ele>12.0</ele><time>2026-04-20T07:31:30.002Z</time></trkpt><trkpt lat="14.423912402136397" lon="120.92323911170423"><ele>12.0</ele><time>2026-04-20T07:31:31.002Z</time></trkpt><trkpt lat="14.423807808935075" lon="120.92323206280872"><ele>12.0</ele><time>2026-04-20T07:31:32.002Z</time></trkpt><trkpt lat="14.423708596112592" lon="120.923235544979"><ele>11.833333333333334</ele><time>2026-04-20T07:31:33.002Z</time></trkpt><trkpt lat="14.423624240773833" lon="120.9232437466555"><ele>11.666666666666666</ele><time>2026-04-20T07:31:34.002Z</time></trkpt><trkpt lat="14.423538069110693" lon="120.92325168532301"><ele>11.5</ele><time>2026-04-20T07:31:35.002Z</time></trkpt><trkpt lat="14.423452499266626" lon="120.92326055418239"><ele>11.333333333333332</ele><time>2026-04-20T07:31:36.002Z</time></trkpt><trkpt lat="14.42337709496362" lon="120.92327057300743"><ele>11.166666666666666</ele><time>2026-04-20T07:31:37.002Z</time></trkpt><trkpt lat="14.423310545360014" lon="120.92327686316601"><ele>11.0</ele><time>2026-04-20T07:31:38.002Z</time></trkpt><trkpt lat="14.423200851013949" lon="120.92328557333768"><ele>11.0</ele><time>2026-04-20T07:31:40.002Z</time></trkpt><trkpt lat="14.42313185233152" lon="120.92329799368952"><ele>11.0</ele><time>2026-04-20T07:31:42.002Z</time></trkpt><trkpt lat="14.423095937185114" lon="120.92338409484377"><ele>11.0</ele><time>2026-04-20T07:35:21.001Z</time></trkpt><trkpt lat="14.423162539290129" lon="120.9233824321585"><ele>11.0</ele><time>2026-04-20T07:52:40.001Z</time></trkpt><trkpt lat="14.42314493610423" lon="120.92331273508965"><ele>11.0</ele><time>2026-04-20T07:54:57Z</time></trkpt><trkpt lat="14.423054019203176" lon="120.92330628276129"><ele>11.0</ele><time>2026-04-20T07:54:59Z</time></trkpt><trkpt lat="14.42293931678342" lon="120.92332230936603"><ele>11.0</ele><time>2026-04-20T07:55:01Z</time></trkpt><trkpt lat="14.422876610665934" lon="120.92333229795106"><ele>11.0</ele><time>2026-04-20T07:55:02Z</time></trkpt><trkpt lat="14.42280977905544" lon="120.92334521466093"><ele>11.0</ele><time>2026-04-20T07:55:03Z</time></trkpt><trkpt lat="14.422737950446855" lon="120.92335891310444"><ele>11.0</ele><time>2026-04-20T07:55:04Z</time></trkpt><trkpt lat="14.422663497244432" lon="120.92337272079568"><ele>11.0</ele><time>2026-04-20T07:55:05Z</time></trkpt><trkpt lat="14.422588733702788" lon="120.92338759123949"><ele>11.0</ele><time>2026-04-20T07:55:06Z</time></trkpt><trkpt lat="14.422516919848592" lon="120.92339844653421"><ele>11.0</ele><time>2026-04-20T07:55:07Z</time></trkpt><trkpt lat="14.422431846865756" lon="120.92341437457489"><ele>10.833333333333332</ele><time>2026-04-20T07:55:08Z</time></trkpt><trkpt lat="14.422355554884838" lon="120.92342335304394"><ele>10.666666666666666</ele><time>2026-04-20T07:55:09Z</time></trkpt><trkpt lat="14.422270978399853" lon="120.92344063238002"><ele>10.5</ele><time>2026-04-20T07:55:10Z</time></trkpt><trkpt lat="14.422200312292954" lon="120.9234584255227"><ele>10.333333333333334</ele><time>2026-04-20T07:55:11Z</time></trkpt><trkpt lat="14.422097123086996" lon="120.92345799968862"><ele>10.166666666666668</ele><time>2026-04-20T07:55:13Z</time></trkpt><trkpt lat="14.422034182435677" lon="120.92346659762617"><ele>10.0</ele><time>2026-04-20T07:55:16Z</time></trkpt><trkpt lat="14.422039433494705" lon="120.92365258629724"><ele>10.0</ele><time>2026-04-20T07:55:28Z</time></trkpt><trkpt lat="14.422040247093594" lon="120.92372251147383"><ele>10.0</ele><time>2026-04-20T07:55:30Z</time></trkpt><trkpt lat="14.422044494235289" lon="120.92381060726693"><ele>10.0</ele><time>2026-04-20T07:55:32Z</time></trkpt><trkpt lat="14.422033918211323" lon="120.92390428973428"><ele>10.0</ele><time>2026-04-20T07:55:34Z</time></trkpt><trkpt lat="14.422035394959204" lon="120.92399368977328"><ele>10.0</ele><time>2026-04-20T07:55:36Z</time></trkpt><trkpt lat="14.42202991906278" lon="120.92406430849233"><ele>10.0</ele><time>2026-04-20T07:55:38Z</time></trkpt><trkpt lat="14.421957229531966" lon="120.92410102336929"><ele>10.0</ele><time>2026-04-20T07:55:40Z</time></trkpt><trkpt lat="14.421953832440508" lon="120.92419385556197"><ele>10.0</ele><time>2026-04-20T07:55:43Z</time></trkpt><trkpt lat="14.421951053966207" lon="120.9242697826841"><ele>10.0</ele><time>2026-04-20T07:55:48Z</time></trkpt><trkpt lat="14.42195242032211" lon="120.92434856413541"><ele>10.0</ele><time>2026-04-20T07:55:50Z</time></trkpt><trkpt lat="14.42195471073711" lon="120.92442231548765"><ele>10.0</ele><time>2026-04-20T07:55:53Z</time></trkpt><trkpt lat="14.421956808454034" lon="120.92448986193838"><ele>10.0</ele><time>2026-04-20T07:55:56Z</time></trkpt><trkpt lat="14.421959533339729" lon="120.92457760351985"><ele>10.0</ele><time>2026-04-20T07:55:58Z</time></trkpt><trkpt lat="14.42196606921781" lon="120.92466640590129"><ele>10.0</ele><time>2026-04-20T07:56:00Z</time></trkpt><trkpt lat="14.42196957655788" lon="120.92473232592965"><ele>10.0</ele><time>2026-04-20T07:56:03Z</time></trkpt><trkpt lat="14.422086549017472" lon="120.92471855901664"><ele>10.0</ele><time>2026-04-20T07:56:08Z</time></trkpt><trkpt lat="14.421982931904976" lon="120.9247272313265"><ele>10.0</ele><time>2026-04-20T07:59:03.999Z</time></trkpt><trkpt lat="14.421978104704088" lon="120.9246573475657"><ele>10.0</ele><time>2026-04-20T07:59:06.999Z</time></trkpt><trkpt lat="14.421964101898714" lon="120.92447999789808"><ele>10.0</ele><time>2026-04-20T07:59:10.999Z</time></trkpt><trkpt lat="14.42196588558353" lon="120.92440567081232"><ele>10.0</ele><time>2026-04-20T07:59:13.999Z</time></trkpt><trkpt lat="14.42196626227727" lon="120.9243064198338"><ele>10.0</ele><time>2026-04-20T07:59:17.999Z</time></trkpt><trkpt lat="14.421982471154756" lon="120.92423886135899"><ele>10.0</ele><time>2026-04-20T07:59:19.999Z</time></trkpt><trkpt lat="14.421957753851775" lon="120.92415224124929"><ele>10.0</ele><time>2026-04-20T07:59:24.999Z</time></trkpt><trkpt lat="14.422011259883016" lon="120.92409908896816"><ele>10.0</ele><time>2026-04-20T07:59:26.999Z</time></trkpt><trkpt lat="14.422072198471582" lon="120.92405623272924"><ele>10.0</ele><time>2026-04-20T07:59:29.999Z</time></trkpt><trkpt lat="14.422067254655829" lon="120.92389768337387"><ele>10.0</ele><time>2026-04-20T07:59:31.999Z</time></trkpt><trkpt lat="14.422066167650469" lon="120.92383187764761"><ele>10.0</ele><time>2026-04-20T07:59:32.999Z</time></trkpt><trkpt lat="14.422065820383281" lon="120.92371249906911"><ele>10.0</ele><time>2026-04-20T07:59:34.999Z</time></trkpt><trkpt lat="14.422063191116026" lon="120.92362914242972"><ele>10.0</ele><time>2026-04-20T07:59:36.999Z</time></trkpt><trkpt lat="14.42206262699443" lon="120.92356396447221"><ele>10.0</ele><time>2026-04-20T07:59:44Z</time></trkpt><trkpt lat="14.421902726298581" lon="120.92350330521388"><ele>10.0</ele><time>2026-04-20T07:59:48Z</time></trkpt><trkpt lat="14.42183970118609" lon="120.9235087205402"><ele>10.0</ele><time>2026-04-20T07:59:49Z</time></trkpt><trkpt lat="14.421772891092147" lon="120.92351597948145"><ele>10.0</ele><time>2026-04-20T07:59:50Z</time></trkpt><trkpt lat="14.4217000249667" lon="120.92352242902196"><ele>10.0</ele><time>2026-04-20T07:59:51Z</time></trkpt><trkpt lat="14.421619454244125" lon="120.92352736824529"><ele>10.0</ele><time>2026-04-20T07:59:52Z</time></trkpt><trkpt lat="14.421535007689606" lon="120.92352656489703"><ele>10.0</ele><time>2026-04-20T07:59:53Z</time></trkpt><trkpt lat="14.42143925219354" lon="120.92352609779856"><ele>10.0</ele><time>2026-04-20T07:59:54Z</time></trkpt><trkpt lat="14.421347045076518" lon="120.92351926861187"><ele>10.0</ele><time>2026-04-20T07:59:55Z</time></trkpt><trkpt lat="14.421243550463444" lon="120.92351902116273"><ele>10.0</ele><time>2026-04-20T07:59:56Z</time></trkpt><trkpt lat="14.421144169143142" lon="120.92351691129326"><ele>10.0</ele><time>2026-04-20T07:59:57Z</time></trkpt><trkpt lat="14.421043963888062" lon="120.92351867809994"><ele>10.0</ele><time>2026-04-20T07:59:58Z</time></trkpt><trkpt lat="14.420941980072993" lon="120.92352128877191"><ele>10.0</ele><time>2026-04-20T07:59:59Z</time></trkpt><trkpt lat="14.420837966699894" lon="120.92352785226518"><ele>10.0</ele><time>2026-04-20T08:00:00Z</time></trkpt><trkpt lat="14.420745158638724" lon="120.923518603151"><ele>10.0</ele><time>2026-04-20T08:00:01Z</time></trkpt><trkpt lat="14.420669263458969" lon="120.92353840002198"><ele>10.0</ele><time>2026-04-20T08:00:02Z</time></trkpt><trkpt lat="14.42058150206361" lon="120.92354247096786"><ele>10.0</ele><time>2026-04-20T08:00:03Z</time></trkpt><trkpt lat="14.42048393324076" lon="120.92354937284031"><ele>10.0</ele><time>2026-04-20T08:00:04Z</time></trkpt><trkpt lat="14.420372360290036" lon="120.92354429087183"><ele>10.0</ele><time>2026-04-20T08:00:05Z</time></trkpt><trkpt lat="14.42025092215221" lon="120.92355234696588"><ele>10.0</ele><time>2026-04-20T08:00:06Z</time></trkpt><trkpt lat="14.420125149351094" lon="120.92356118980189"><ele>10.25</ele><time>2026-04-20T08:00:07Z</time></trkpt><trkpt lat="14.41998749393651" lon="120.92357087706033"><ele>10.5</ele><time>2026-04-20T08:00:08Z</time></trkpt><trkpt lat="14.419857112899388" lon="120.92358005239812"><ele>10.75</ele><time>2026-04-20T08:00:09Z</time></trkpt><trkpt lat="14.419739841347523" lon="120.9235883051785"><ele>11.0</ele><time>2026-04-20T08:00:10Z</time></trkpt><trkpt lat="14.419633115836561" lon="120.92360179057125"><ele>11.4</ele><time>2026-04-20T08:00:11Z</time></trkpt><trkpt lat="14.41953067885959" lon="120.92363040432824"><ele>11.8</ele><time>2026-04-20T08:00:12Z</time></trkpt><trkpt lat="14.419431076879784" lon="120.92363901260384"><ele>12.200000000000001</ele><time>2026-04-20T08:00:13Z</time></trkpt><trkpt lat="14.419344352993681" lon="120.92364478619932"><ele>12.600000000000001</ele><time>2026-04-20T08:00:14Z</time></trkpt><trkpt lat="14.419257798954252" lon="120.9236474449779"><ele>13.0</ele><time>2026-04-20T08:00:15Z</time></trkpt><trkpt lat="14.419167522573854" lon="120.92364756713071"><ele>13.0</ele><time>2026-04-20T08:00:16Z</time></trkpt><trkpt lat="14.419070134500005" lon="120.9236502355878"><ele>13.0</ele><time>2026-04-20T08:00:17Z</time></trkpt><trkpt lat="14.418969532433467" lon="120.923651995883"><ele>13.0</ele><time>2026-04-20T08:00:18Z</time></trkpt><trkpt lat="14.418876621138299" lon="120.92365411814744"><ele>13.0</ele><time>2026-04-20T08:00:19Z</time></trkpt><trkpt lat="14.418780073142731" lon="120.92365700871864"><ele>13.0</ele><time>2026-04-20T08:00:20Z</time></trkpt><trkpt lat="14.418680772919156" lon="120.92366158759296"><ele>13.2</ele><time>2026-04-20T08:00:21Z</time></trkpt><trkpt lat="14.418577634461482" lon="120.9236668583166"><ele>13.4</ele><time>2026-04-20T08:00:22Z</time></trkpt><trkpt lat="14.418476141590459" lon="120.92367575350693"><ele>13.599999999999998</ele><time>2026-04-20T08:00:23Z</time></trkpt><trkpt lat="14.418366406639922" lon="120.9236862765041"><ele>13.799999999999999</ele><time>2026-04-20T08:00:24Z</time></trkpt><trkpt lat="14.41826735648253" lon="120.92369751756823"><ele>14.0</ele><time>2026-04-20T08:00:25Z</time></trkpt><trkpt lat="14.418150621796952" lon="120.92371367005107"><ele>14.0</ele><time>2026-04-20T08:00:26Z</time></trkpt><trkpt lat="14.41804680882515" lon="120.92372457852603"><ele>13.999999999999998</ele><time>2026-04-20T08:00:27Z</time></trkpt><trkpt lat="14.41793118470913" lon="120.92374026783254"><ele>13.999999999999998</ele><time>2026-04-20T08:00:28Z</time></trkpt><trkpt lat="14.417826429564482" lon="120.92374381017969"><ele>14.0</ele><time>2026-04-20T08:00:29Z</time></trkpt><trkpt lat="14.417712206478136" lon="120.92375319772042"><ele>14.0</ele><time>2026-04-20T08:00:30Z</time></trkpt><trkpt lat="14.417601553874501" lon="120.923758346228"><ele>14.0</ele><time>2026-04-20T08:00:31Z</time></trkpt><trkpt lat="14.417486678670691" lon="120.92377222514038"><ele>13.999999999999998</ele><time>2026-04-20T08:00:32Z</time></trkpt><trkpt lat="14.417378845555934" lon="120.92377459599439"><ele>13.999999999999998</ele><time>2026-04-20T08:00:33Z</time></trkpt><trkpt lat="14.417267803842863" lon="120.92378544287641"><ele>14.0</ele><time>2026-04-20T08:00:34Z</time></trkpt><trkpt lat="14.417170084304153" lon="120.92379366446612"><ele>14.0</ele><time>2026-04-20T08:00:35Z</time></trkpt><trkpt lat="14.417071600213701" lon="120.9237978775937"><ele>13.799999999999999</ele><time>2026-04-20T08:00:36Z</time></trkpt><trkpt lat="14.416969701354132" lon="120.92381268647563"><ele>13.599999999999998</ele><time>2026-04-20T08:00:37Z</time></trkpt><trkpt lat="14.41686985093437" lon="120.9238237574767"><ele>13.4</ele><time>2026-04-20T08:00:38Z</time></trkpt><trkpt lat="14.416766229299144" lon="120.92381591981591"><ele>13.2</ele><time>2026-04-20T08:00:39Z</time></trkpt><trkpt lat="14.416664093301572" lon="120.92382441541649"><ele>13.0</ele><time>2026-04-20T08:00:40Z</time></trkpt><trkpt lat="14.416559039905952" lon="120.92383315368379"><ele>13.0</ele><time>2026-04-20T08:00:41Z</time></trkpt><trkpt lat="14.416453955631006" lon="120.92385620508239"><ele>13.0</ele><time>2026-04-20T08:00:42Z</time></trkpt><trkpt lat="14.416339455417633" lon="120.92385531646796"><ele>13.0</ele><time>2026-04-20T08:00:43Z</time></trkpt><trkpt lat="14.416230493921248" lon="120.92387140844023"><ele>13.0</ele><time>2026-04-20T08:00:44Z</time></trkpt><trkpt lat="14.416117921351317" lon="120.92388053180414"><ele>13.0</ele><time>2026-04-20T08:00:45Z</time></trkpt><trkpt lat="14.416008438281949" lon="120.92388167480914"><ele>13.0</ele><time>2026-04-20T08:00:46Z</time></trkpt><trkpt lat="14.415896208153983" lon="120.92388645602766"><ele>13.0</ele><time>2026-04-20T08:00:47Z</time></trkpt><trkpt lat="14.415784731402981" lon="120.92389755721433"><ele>13.0</ele><time>2026-04-20T08:00:48Z</time></trkpt><trkpt lat="14.415670826742971" lon="120.9239111165383"><ele>13.0</ele><time>2026-04-20T08:00:49Z</time></trkpt><trkpt lat="14.415558511828666" lon="120.9239173649314"><ele>13.2</ele><time>2026-04-20T08:00:50Z</time></trkpt><trkpt lat="14.415447113653721" lon="120.92391959671438"><ele>13.4</ele><time>2026-04-20T08:00:51Z</time></trkpt><trkpt lat="14.415335302031666" lon="120.92392544518691"><ele>13.599999999999998</ele><time>2026-04-20T08:00:52.001Z</time></trkpt><trkpt lat="14.415223365391737" lon="120.92393294416925"><ele>13.799999999999999</ele><time>2026-04-20T08:00:53.001Z</time></trkpt><trkpt lat="14.41511147048371" lon="120.92393812239561"><ele>14.0</ele><time>2026-04-20T08:00:54.001Z</time></trkpt><trkpt lat="14.414999949601036" lon="120.92395550825442"><ele>14.0</ele><time>2026-04-20T08:00:55.001Z</time></trkpt><trkpt lat="14.41488587980619" lon="120.92396838570492"><ele>14.0</ele><time>2026-04-20T08:00:56.001Z</time></trkpt><trkpt lat="14.414771425491884" lon="120.92399721464994"><ele>14.0</ele><time>2026-04-20T08:00:57.001Z</time></trkpt><trkpt lat="14.414657029982763" lon="120.92401905831568"><ele>14.0</ele><time>2026-04-20T08:00:58.001Z</time></trkpt><trkpt lat="14.414542514590636" lon="120.92403762838025"><ele>14.75</ele><time>2026-04-20T08:00:59.001Z</time></trkpt><trkpt lat="14.414431581768971" lon="120.92406484700787"><ele>15.5</ele><time>2026-04-20T08:01:00.001Z</time></trkpt><trkpt lat="14.414317015542789" lon="120.92408722808491"><ele>16.25</ele><time>2026-04-20T08:01:01.001Z</time></trkpt><trkpt lat="14.414202871322267" lon="120.92411782109157"><ele>17.0</ele><time>2026-04-20T08:01:02.001Z</time></trkpt><trkpt lat="14.414092092572067" lon="120.92415196034595"><ele>17.0</ele><time>2026-04-20T08:01:03.001Z</time></trkpt><trkpt lat="14.413980466813866" lon="120.92418043677168"><ele>17.0</ele><time>2026-04-20T08:01:04.001Z</time></trkpt><trkpt lat="14.413873679332776" lon="120.9241974108071"><ele>17.0</ele><time>2026-04-20T08:01:05.001Z</time></trkpt><trkpt lat="14.413776107445369" lon="120.92423244437929"><ele>17.0</ele><time>2026-04-20T08:01:06.001Z</time></trkpt><trkpt lat="14.413685013115636" lon="120.92425696072284"><ele>17.0</ele><time>2026-04-20T08:01:07.001Z</time></trkpt><trkpt lat="14.413589656999086" lon="120.92427068402355"><ele>16.6</ele><time>2026-04-20T08:01:08.001Z</time></trkpt><trkpt lat="14.413494017234983" lon="120.92428350025766"><ele>16.2</ele><time>2026-04-20T08:01:09.001Z</time></trkpt><trkpt lat="14.413396172072233" lon="120.92428023407912"><ele>15.8</ele><time>2026-04-20T08:01:09.999Z</time></trkpt><trkpt lat="14.413299462532054" lon="120.92426897054403"><ele>15.4</ele><time>2026-04-20T08:01:10.999Z</time></trkpt><trkpt lat="14.413200469359268" lon="120.92426288425959"><ele>15.0</ele><time>2026-04-20T08:01:11.999Z</time></trkpt><trkpt lat="14.413103121278608" lon="120.92425818249089"><ele>15.0</ele><time>2026-04-20T08:01:12.999Z</time></trkpt><trkpt lat="14.413013681251845" lon="120.92423633194777"><ele>15.0</ele><time>2026-04-20T08:01:13.999Z</time></trkpt><trkpt lat="14.41293273514898" lon="120.92422204811949"><ele>15.0</ele><time>2026-04-20T08:01:14.999Z</time></trkpt><trkpt lat="14.412848980180074" lon="120.9241937768477"><ele>15.0</ele><time>2026-04-20T08:01:15.999Z</time></trkpt><trkpt lat="14.412761129912138" lon="120.92416063811211"><ele>15.0</ele><time>2026-04-20T08:01:16.999Z</time></trkpt><trkpt lat="14.412673242030747" lon="120.92412866422627"><ele>15.0</ele><time>2026-04-20T08:01:17.999Z</time></trkpt><trkpt lat="14.412579601682912" lon="120.92410531860266"><ele>15.2</ele><time>2026-04-20T08:01:18.999Z</time></trkpt><trkpt lat="14.412476093981397" lon="120.92409348273013"><ele>15.4</ele><time>2026-04-20T08:01:19.999Z</time></trkpt><trkpt lat="14.412381507081504" lon="120.9240765311998"><ele>15.600000000000001</ele><time>2026-04-20T08:01:20.999Z</time></trkpt><trkpt lat="14.412276723157508" lon="120.92407399297514"><ele>15.8</ele><time>2026-04-20T08:01:21.999Z</time></trkpt><trkpt lat="14.412174980675838" lon="120.92405983343555"><ele>16.0</ele><time>2026-04-20T08:01:22.999Z</time></trkpt><trkpt lat="14.412069934884995" lon="120.9240443931791"><ele>16.6</ele><time>2026-04-20T08:01:23.999Z</time></trkpt><trkpt lat="14.411961658603742" lon="120.92403482239702"><ele>17.200000000000003</ele><time>2026-04-20T08:01:24.999Z</time></trkpt><trkpt lat="14.411850658531652" lon="120.9240317242023"><ele>17.799999999999997</ele><time>2026-04-20T08:01:25.999Z</time></trkpt><trkpt lat="14.411738356052243" lon="120.9240293787006"><ele>18.4</ele><time>2026-04-20T08:01:26.999Z</time></trkpt><trkpt lat="14.411625617911564" lon="120.92402021254415"><ele>19.0</ele><time>2026-04-20T08:01:27.999Z</time></trkpt><trkpt lat="14.411513516035592" lon="120.92401445127382"><ele>19.0</ele><time>2026-04-20T08:01:28.999Z</time></trkpt><trkpt lat="14.411399590624184" lon="120.92400853170068"><ele>19.0</ele><time>2026-04-20T08:01:29.999Z</time></trkpt><trkpt lat="14.41128491781312" lon="120.92401717294292"><ele>19.0</ele><time>2026-04-20T08:01:30.999Z</time></trkpt><trkpt lat="14.41117706743783" lon="120.9240143663681"><ele>19.0</ele><time>2026-04-20T08:01:31.999Z</time></trkpt><trkpt lat="14.41107515872169" lon="120.92402060212551"><ele>19.0</ele><time>2026-04-20T08:01:32.999Z</time></trkpt><trkpt lat="14.41097493427117" lon="120.92403908875373"><ele>19.166666666666664</ele><time>2026-04-20T08:01:33.999Z</time></trkpt><trkpt lat="14.410882088103158" lon="120.92406037800575"><ele>19.333333333333332</ele><time>2026-04-20T08:01:34.999Z</time></trkpt><trkpt lat="14.410803477047063" lon="120.92409116097464"><ele>19.5</ele><time>2026-04-20T08:01:36Z</time></trkpt><trkpt lat="14.410740843263357" lon="120.9241117701301"><ele>19.666666666666668</ele><time>2026-04-20T08:01:37Z</time></trkpt><trkpt lat="14.410647500149352" lon="120.92415752303042"><ele>19.833333333333336</ele><time>2026-04-20T08:01:39Z</time></trkpt><trkpt lat="14.4105666838236" lon="120.92418846219246"><ele>20.0</ele><time>2026-04-20T08:01:41Z</time></trkpt><trkpt lat="14.41049291097671" lon="120.92423499684607"><ele>19.75</ele><time>2026-04-20T08:01:43Z</time></trkpt><trkpt lat="14.410396270878865" lon="120.92427279229452"><ele>19.5</ele><time>2026-04-20T08:01:45Z</time></trkpt><trkpt lat="14.41028876046436" lon="120.92431912494773"><ele>19.25</ele><time>2026-04-20T08:01:47Z</time></trkpt><trkpt lat="14.410173892593427" lon="120.92437124723173"><ele>19.0</ele><time>2026-04-20T08:01:49Z</time></trkpt><trkpt lat="14.410063081781308" lon="120.92442044743835"><ele>19.0</ele><time>2026-04-20T08:01:51Z</time></trkpt><trkpt lat="14.409946628772637" lon="120.9244668980626"><ele>19.0</ele><time>2026-04-20T08:01:53Z</time></trkpt><trkpt lat="14.40984472353049" lon="120.9245116088942"><ele>19.0</ele><time>2026-04-20T08:01:55Z</time></trkpt><trkpt lat="14.409734062169452" lon="120.92456272067713"><ele>19.0</ele><time>2026-04-20T08:01:57Z</time></trkpt><trkpt lat="14.409670520771225" lon="120.92458871414927"><ele>19.0</ele><time>2026-04-20T08:01:58Z</time></trkpt><trkpt lat="14.409603383119979" lon="120.9246126362121"><ele>18.666666666666664</ele><time>2026-04-20T08:01:59Z</time></trkpt><trkpt lat="14.409535143184584" lon="120.92463349630302"><ele>18.333333333333332</ele><time>2026-04-20T08:02:00Z</time></trkpt><trkpt lat="14.409471393439421" lon="120.92465301135024"><ele>18.0</ele><time>2026-04-20T08:02:01Z</time></trkpt><trkpt lat="14.409378607281838" lon="120.924675524727"><ele>17.666666666666668</ele><time>2026-04-20T08:02:03Z</time></trkpt><trkpt lat="14.409307511711605" lon="120.9246395375098"><ele>17.333333333333336</ele><time>2026-04-20T08:02:06Z</time></trkpt><trkpt lat="14.409267325407647" lon="120.9245772058588"><ele>17.0</ele><time>2026-04-20T08:02:10Z</time></trkpt><trkpt lat="14.409248610986522" lon="120.92448757463836"><ele>17.0</ele><time>2026-04-20T08:02:12Z</time></trkpt><trkpt lat="14.409227946976081" lon="120.92436950616575"><ele>17.0</ele><time>2026-04-20T08:02:14Z</time></trkpt><trkpt lat="14.409215643460042" lon="120.92430418169596"><ele>17.0</ele><time>2026-04-20T08:02:15Z</time></trkpt><trkpt lat="14.409204759714987" lon="120.92423089658197"><ele>17.0</ele><time>2026-04-20T08:02:16Z</time></trkpt><trkpt lat="14.40919250383393" lon="120.92415604769883"><ele>17.0</ele><time>2026-04-20T08:02:17Z</time></trkpt><trkpt lat="14.40917626607384" lon="120.9240800255576"><ele>17.0</ele><time>2026-04-20T08:02:18Z</time></trkpt><trkpt lat="14.409161099108173" lon="120.92400456473294"><ele>16.6</ele><time>2026-04-20T08:02:19Z</time></trkpt><trkpt lat="14.409148395543443" lon="120.92393325640509"><ele>16.2</ele><time>2026-04-20T08:02:20Z</time></trkpt><trkpt lat="14.40913900483274" lon="120.92385579134779"><ele>15.8</ele><time>2026-04-20T08:02:21Z</time></trkpt><trkpt lat="14.409131049094473" lon="120.92378833771059"><ele>15.4</ele><time>2026-04-20T08:02:22Z</time></trkpt><trkpt lat="14.409115742807389" lon="120.9236621719509"><ele>15.0</ele><time>2026-04-20T08:02:24Z</time></trkpt><trkpt lat="14.409098119317271" lon="120.92353950114182"><ele>15.0</ele><time>2026-04-20T08:02:26Z</time></trkpt><trkpt lat="14.40907655191334" lon="120.9234087235367"><ele>15.0</ele><time>2026-04-20T08:02:28Z</time></trkpt><trkpt lat="14.40906640432714" lon="120.92333707607894"><ele>15.0</ele><time>2026-04-20T08:02:29Z</time></trkpt><trkpt lat="14.40905314378573" lon="120.9232632383219"><ele>15.0</ele><time>2026-04-20T08:02:30Z</time></trkpt><trkpt lat="14.409038082763596" lon="120.92318247257221"><ele>15.0</ele><time>2026-04-20T08:02:31Z</time></trkpt><trkpt lat="14.40902549742868" lon="120.9231061538686"><ele>15.0</ele><time>2026-04-20T08:02:32Z</time></trkpt><trkpt lat="14.409012822974907" lon="120.92303823199163"><ele>15.166666666666666</ele><time>2026-04-20T08:02:33Z</time></trkpt><trkpt lat="14.409002425667016" lon="120.92296340157729"><ele>15.333333333333332</ele><time>2026-04-20T08:02:34Z</time></trkpt><trkpt lat="14.408993251245743" lon="120.9228866138325"><ele>15.5</ele><time>2026-04-20T08:02:35Z</time></trkpt><trkpt lat="14.408984581868786" lon="120.92282104102085"><ele>15.666666666666666</ele><time>2026-04-20T08:02:36Z</time></trkpt><trkpt lat="14.408960803428208" lon="120.92270250740806"><ele>15.833333333333332</ele><time>2026-04-20T08:02:38Z</time></trkpt><trkpt lat="14.408927913928476" lon="120.9226061613435"><ele>16.0</ele><time>2026-04-20T08:02:40Z</time></trkpt><trkpt lat="14.40887085285109" lon="120.92251801924759"><ele>16.0</ele><time>2026-04-20T08:02:42Z</time></trkpt><trkpt lat="14.408794372102077" lon="120.92245331544959"><ele>16.0</ele><time>2026-04-20T08:02:44.001Z</time></trkpt><trkpt lat="14.40868202970296" lon="120.92243642399944"><ele>16.0</ele><time>2026-04-20T08:02:46.001Z</time></trkpt><trkpt lat="14.408612550852462" lon="120.92243136922393"><ele>16.0</ele><time>2026-04-20T08:02:47.001Z</time></trkpt><trkpt lat="14.4085523715384" lon="120.92241184052683"><ele>16.0</ele><time>2026-04-20T08:02:48.001Z</time></trkpt><trkpt lat="14.408473645577997" lon="120.92231798907176"><ele>15.999999999999998</ele><time>2026-04-20T08:02:50.001Z</time></trkpt><trkpt lat="14.408438068902822" lon="120.9222055281826"><ele>16.0</ele><time>2026-04-20T08:02:52.001Z</time></trkpt><trkpt lat="14.40842991803919" lon="120.92213796430643"><ele>16.0</ele><time>2026-04-20T08:02:54.001Z</time></trkpt><trkpt lat="14.40841498127365" lon="120.92207246762027"><ele>16.0</ele><time>2026-04-20T08:02:57.001Z</time></trkpt><trkpt lat="14.4083934857817" lon="120.9219812531786"><ele>15.999999999999998</ele><time>2026-04-20T08:03:01.001Z</time></trkpt><trkpt lat="14.408378169659379" lon="120.92188798765703"><ele>16.0</ele><time>2026-04-20T08:03:03.001Z</time></trkpt><trkpt lat="14.408354540618554" lon="120.92176896151051"><ele>16.400000000000002</ele><time>2026-04-20T08:03:05.001Z</time></trkpt><trkpt lat="14.408341875648352" lon="120.92170185337828"><ele>16.8</ele><time>2026-04-20T08:03:06.001Z</time></trkpt><trkpt lat="14.408327835922906" lon="120.92163088718918"><ele>17.200000000000003</ele><time>2026-04-20T08:03:07.001Z</time></trkpt><trkpt lat="14.408310645485033" lon="120.92151352993584"><ele>17.6</ele><time>2026-04-20T08:03:09.001Z</time></trkpt><trkpt lat="14.408288288654596" lon="120.9214047449476"><ele>18.0</ele><time>2026-04-20T08:03:11.001Z</time></trkpt><trkpt lat="14.40826277167899" lon="120.92129709014618"><ele>18.0</ele><time>2026-04-20T08:03:13.001Z</time></trkpt><trkpt lat="14.408237897748295" lon="120.9211898986263"><ele>18.0</ele><time>2026-04-20T08:03:15.001Z</time></trkpt><trkpt lat="14.408209515387085" lon="120.92107046496712"><ele>18.0</ele><time>2026-04-20T08:03:16.999Z</time></trkpt><trkpt lat="14.40819358638495" lon="120.92100374872955"><ele>18.0</ele><time>2026-04-20T08:03:17.999Z</time></trkpt><trkpt lat="14.408162643983115" lon="120.92088614993689"><ele>18.0</ele><time>2026-04-20T08:03:19.999Z</time></trkpt><trkpt lat="14.408135325173902" lon="120.92078507679109"><ele>17.833333333333332</ele><time>2026-04-20T08:03:21.999Z</time></trkpt><trkpt lat="14.408109275089592" lon="120.92066379293138"><ele>17.666666666666668</ele><time>2026-04-20T08:03:24Z</time></trkpt><trkpt lat="14.408092114296588" lon="120.92059159889521"><ele>17.5</ele><time>2026-04-20T08:03:25Z</time></trkpt><trkpt lat="14.408074160252715" lon="120.9205146459254"><ele>17.333333333333336</ele><time>2026-04-20T08:03:26Z</time></trkpt><trkpt lat="14.408063503335043" lon="120.92043136016119"><ele>17.166666666666668</ele><time>2026-04-20T08:03:27Z</time></trkpt><trkpt lat="14.408056508131011" lon="120.92033955091553"><ele>17.0</ele><time>2026-04-20T08:03:28Z</time></trkpt><trkpt lat="14.408051222839239" lon="120.92024706547792"><ele>17.0</ele><time>2026-04-20T08:03:29Z</time></trkpt><trkpt lat="14.408044564915818" lon="120.92013965354214"><ele>17.0</ele><time>2026-04-20T08:03:30Z</time></trkpt><trkpt lat="14.408036950036768" lon="120.92001804426037"><ele>17.0</ele><time>2026-04-20T08:03:31Z</time></trkpt><trkpt lat="14.408034719891766" lon="120.91989066945328"><ele>17.0</ele><time>2026-04-20T08:03:32Z</time></trkpt><trkpt lat="14.408034375009263" lon="120.91974833474211"><ele>16.75</ele><time>2026-04-20T08:03:33Z</time></trkpt><trkpt lat="14.408031329489996" lon="120.91960660707454"><ele>16.5</ele><time>2026-04-20T08:03:34Z</time></trkpt><trkpt lat="14.408025289326261" lon="120.91947684862565"><ele>16.25</ele><time>2026-04-20T08:03:35Z</time></trkpt><trkpt lat="14.408018228316573" lon="120.91936019931138"><ele>16.0</ele><time>2026-04-20T08:03:36Z</time></trkpt><trkpt lat="14.408012618048133" lon="120.91924922220552"><ele>16.0</ele><time>2026-04-20T08:03:37Z</time></trkpt><trkpt lat="14.408007683375548" lon="120.91914548354961"><ele>16.0</ele><time>2026-04-20T08:03:38Z</time></trkpt><trkpt lat="14.40800225334019" lon="120.91904024312097"><ele>16.0</ele><time>2026-04-20T08:03:39Z</time></trkpt><trkpt lat="14.407998267086905" lon="120.91894719311043"><ele>16.0</ele><time>2026-04-20T08:03:40Z</time></trkpt><trkpt lat="14.407994857951373" lon="120.91886076794499"><ele>16.0</ele><time>2026-04-20T08:03:41Z</time></trkpt><trkpt lat="14.407990173027681" lon="120.91876722993227"><ele>16.0</ele><time>2026-04-20T08:03:42Z</time></trkpt><trkpt lat="14.407987609870293" lon="120.9186794797202"><ele>16.0</ele><time>2026-04-20T08:03:43Z</time></trkpt><trkpt lat="14.407984015295199" lon="120.91857093523832"><ele>16.0</ele><time>2026-04-20T08:03:44Z</time></trkpt><trkpt lat="14.407980862663367" lon="120.91847644264155"><ele>16.0</ele><time>2026-04-20T08:03:45Z</time></trkpt><trkpt lat="14.407976245042779" lon="120.91837683626422"><ele>16.0</ele><time>2026-04-20T08:03:46Z</time></trkpt><trkpt lat="14.407967880893603" lon="120.9182741023086"><ele>16.333333333333332</ele><time>2026-04-20T08:03:47Z</time></trkpt><trkpt lat="14.407959326111435" lon="120.91818136616517"><ele>16.666666666666664</ele><time>2026-04-20T08:03:48Z</time></trkpt><trkpt lat="14.407957456239668" lon="120.91810417589016"><ele>17.0</ele><time>2026-04-20T08:03:49Z</time></trkpt><trkpt lat="14.407953900451261" lon="120.91802418227543"><ele>17.333333333333332</ele><time>2026-04-20T08:03:50Z</time></trkpt><trkpt lat="14.407946644640047" lon="120.91794124994604"><ele>17.666666666666668</ele><time>2026-04-20T08:03:51Z</time></trkpt><trkpt lat="14.407940105810551" lon="120.91787428961713"><ele>18.0</ele><time>2026-04-20T08:03:52Z</time></trkpt><trkpt lat="14.407911303803228" lon="120.9178004331858"><ele>18.0</ele><time>2026-04-20T08:03:53Z</time></trkpt><trkpt lat="14.407871155069818" lon="120.91773659766606"><ele>18.0</ele><time>2026-04-20T08:03:54Z</time></trkpt><trkpt lat="14.40781342193677" lon="120.91768366464011"><ele>18.0</ele><time>2026-04-20T08:03:55Z</time></trkpt><trkpt lat="14.407751940165518" lon="120.91764271697951"><ele>18.0</ele><time>2026-04-20T08:03:56Z</time></trkpt><trkpt lat="14.407677034527355" lon="120.91760631329498"><ele>18.0</ele><time>2026-04-20T08:03:57Z</time></trkpt><trkpt lat="14.40760127245534" lon="120.91757829749606"><ele>18.0</ele><time>2026-04-20T08:03:58Z</time></trkpt><trkpt lat="14.407518910050097" lon="120.91756162620919"><ele>18.0</ele><time>2026-04-20T08:03:59Z</time></trkpt><trkpt lat="14.40743753314102" lon="120.9175574693876"><ele>18.0</ele><time>2026-04-20T08:04:00Z</time></trkpt><trkpt lat="14.407340589965013" lon="120.91757149331052"><ele>18.0</ele><time>2026-04-20T08:04:01Z</time></trkpt><trkpt lat="14.40725063488947" lon="120.91759080486312"><ele>18.0</ele><time>2026-04-20T08:04:02Z</time></trkpt><trkpt lat="14.407149209842364" lon="120.91761958112285"><ele>18.0</ele><time>2026-04-20T08:04:03Z</time></trkpt><trkpt lat="14.40704991524405" lon="120.91763787725434"><ele>17.8</ele><time>2026-04-20T08:04:04Z</time></trkpt><trkpt lat="14.406947277239114" lon="120.91765734286574"><ele>17.6</ele><time>2026-04-20T08:04:05Z</time></trkpt><trkpt lat="14.406842113382313" lon="120.91768096276441"><ele>17.4</ele><time>2026-04-20T08:04:06Z</time></trkpt><trkpt lat="14.406742908004192" lon="120.9177020064205"><ele>17.2</ele><time>2026-04-20T08:04:07Z</time></trkpt><trkpt lat="14.406643708905452" lon="120.91772727152872"><ele>17.0</ele><time>2026-04-20T08:04:08Z</time></trkpt><trkpt lat="14.406542750236504" lon="120.91775300356676"><ele>17.0</ele><time>2026-04-20T08:04:09Z</time></trkpt><trkpt lat="14.406452437231623" lon="120.91776993169204"><ele>17.0</ele><time>2026-04-20T08:04:10Z</time></trkpt><trkpt lat="14.406354112955041" lon="120.91779309823137"><ele>17.0</ele><time>2026-04-20T08:04:11Z</time></trkpt><trkpt lat="14.406267402570686" lon="120.91780348118759"><ele>17.0</ele><time>2026-04-20T08:04:12Z</time></trkpt><trkpt lat="14.40618208976079" lon="120.91780901810283"><ele>17.0</ele><time>2026-04-20T08:04:13Z</time></trkpt><trkpt lat="14.406106131045288" lon="120.91779927947604"><ele>17.0</ele><time>2026-04-20T08:04:14Z</time></trkpt><trkpt lat="14.406025803368086" lon="120.91778898185544"><ele>17.166666666666668</ele><time>2026-04-20T08:04:15Z</time></trkpt><trkpt lat="14.405945248777686" lon="120.91777542119803"><ele>17.333333333333336</ele><time>2026-04-20T08:04:16Z</time></trkpt><trkpt lat="14.405872336996229" lon="120.91775317116827"><ele>17.5</ele><time>2026-04-20T08:04:17Z</time></trkpt><trkpt lat="14.4058102573815" lon="120.91771898104567"><ele>17.666666666666668</ele><time>2026-04-20T08:04:18Z</time></trkpt><trkpt lat="14.40575639263792" lon="120.91767482852592"><ele>17.833333333333332</ele><time>2026-04-20T08:04:19Z</time></trkpt><trkpt lat="14.405666993521008" lon="120.91758811943919"><ele>18.0</ele><time>2026-04-20T08:04:21Z</time></trkpt><trkpt lat="14.405566642084276" lon="120.9175357321612"><ele>18.0</ele><time>2026-04-20T08:04:23Z</time></trkpt><trkpt lat="14.4054501092463" lon="120.91753309635354"><ele>18.0</ele><time>2026-04-20T08:04:25Z</time></trkpt><trkpt lat="14.405330606515033" lon="120.91759381597548"><ele>18.0</ele><time>2026-04-20T08:04:27Z</time></trkpt><trkpt lat="14.405279362448013" lon="120.91763838911467"><ele>18.0</ele><time>2026-04-20T08:04:28Z</time></trkpt><trkpt lat="14.40522815850802" lon="120.91768364179514"><ele>18.0</ele><time>2026-04-20T08:04:29Z</time></trkpt><trkpt lat="14.40514739800261" lon="120.91774102365316"><ele>17.833333333333332</ele><time>2026-04-20T08:04:31Z</time></trkpt><trkpt lat="14.405060630105448" lon="120.91777735352942"><ele>17.666666666666668</ele><time>2026-04-20T08:04:33Z</time></trkpt><trkpt lat="14.404946095322163" lon="120.91777283426072"><ele>17.5</ele><time>2026-04-20T08:04:35Z</time></trkpt><trkpt lat="14.404878748027002" lon="120.91775821061681"><ele>17.333333333333336</ele><time>2026-04-20T08:04:36Z</time></trkpt><trkpt lat="14.404809024005841" lon="120.91774557169992"><ele>17.166666666666668</ele><time>2026-04-20T08:04:37Z</time></trkpt><trkpt lat="14.404718084587607" lon="120.91773421078679"><ele>17.0</ele><time>2026-04-20T08:04:38.001Z</time></trkpt><trkpt lat="14.404633344147566" lon="120.91772622422155"><ele>17.0</ele><time>2026-04-20T08:04:39.001Z</time></trkpt><trkpt lat="14.404531102664162" lon="120.91771660125357"><ele>17.0</ele><time>2026-04-20T08:04:40.001Z</time></trkpt><trkpt lat="14.404422775191401" lon="120.91771421195833"><ele>17.0</ele><time>2026-04-20T08:04:41.001Z</time></trkpt><trkpt lat="14.404315041955167" lon="120.91771196455358"><ele>17.0</ele><time>2026-04-20T08:04:42.001Z</time></trkpt><trkpt lat="14.404201839681754" lon="120.9177134414933"><ele>17.0</ele><time>2026-04-20T08:04:43.001Z</time></trkpt><trkpt lat="14.404088919624835" lon="120.91771263482168"><ele>17.0</ele><time>2026-04-20T08:04:44.001Z</time></trkpt><trkpt lat="14.403973873979648" lon="120.9177068018661"><ele>17.0</ele><time>2026-04-20T08:04:45.001Z</time></trkpt><trkpt lat="14.403861132268243" lon="120.9177002827283"><ele>17.0</ele><time>2026-04-20T08:04:46.001Z</time></trkpt><trkpt lat="14.403752569306256" lon="120.91769404216899"><ele>17.0</ele><time>2026-04-20T08:04:47.001Z</time></trkpt><trkpt lat="14.40364798486266" lon="120.91769159955467"><ele>17.0</ele><time>2026-04-20T08:04:48.001Z</time></trkpt><trkpt lat="14.40353606377772" lon="120.91769434647124"><ele>17.0</ele><time>2026-04-20T08:04:49.001Z</time></trkpt><trkpt lat="14.403425900016725" lon="120.91769327307318"><ele>17.0</ele><time>2026-04-20T08:04:50.001Z</time></trkpt><trkpt lat="14.403318649362562" lon="120.91768848839601"><ele>17.0</ele><time>2026-04-20T08:04:51.001Z</time></trkpt><trkpt lat="14.403210768042001" lon="120.9176810909357"><ele>17.0</ele><time>2026-04-20T08:04:52.001Z</time></trkpt><trkpt lat="14.40310055288972" lon="120.91767366012155"><ele>17.0</ele><time>2026-04-20T08:04:53.001Z</time></trkpt><trkpt lat="14.402997148517331" lon="120.91767013420964"><ele>17.0</ele><time>2026-04-20T08:04:54.001Z</time></trkpt><trkpt lat="14.402886125023851" lon="120.91766387595099"><ele>17.0</ele><time>2026-04-20T08:04:55.001Z</time></trkpt><trkpt lat="14.402776052583613" lon="120.91766082032794"><ele>17.0</ele><time>2026-04-20T08:04:56.001Z</time></trkpt><trkpt lat="14.402656990338873" lon="120.91765564600574"><ele>17.0</ele><time>2026-04-20T08:04:57.001Z</time></trkpt><trkpt lat="14.402550199493815" lon="120.91764947962072"><ele>17.0</ele><time>2026-04-20T08:04:58.001Z</time></trkpt><trkpt lat="14.402435515792115" lon="120.9176456349598"><ele>17.0</ele><time>2026-04-20T08:04:59.001Z</time></trkpt><trkpt lat="14.402324394940374" lon="120.91764305404419"><ele>17.0</ele><time>2026-04-20T08:05:00.001Z</time></trkpt><trkpt lat="14.402207913078037" lon="120.91763770369552"><ele>17.0</ele><time>2026-04-20T08:05:01.001Z</time></trkpt><trkpt lat="14.40208730862701" lon="120.91763355811538"><ele>17.0</ele><time>2026-04-20T08:05:02.001Z</time></trkpt><trkpt lat="14.4019741058237" lon="120.91762798619489"><ele>17.4</ele><time>2026-04-20T08:05:03.001Z</time></trkpt><trkpt lat="14.401860235548355" lon="120.91762381492785"><ele>17.799999999999997</ele><time>2026-04-20T08:05:04.001Z</time></trkpt><trkpt lat="14.401755571520443" lon="120.91761773552378"><ele>18.2</ele><time>2026-04-20T08:05:05.001Z</time></trkpt><trkpt lat="14.401647074763822" lon="120.91761432919947"><ele>18.599999999999998</ele><time>2026-04-20T08:05:06.001Z</time></trkpt><trkpt lat="14.401535315681256" lon="120.91760491458588"><ele>19.0</ele><time>2026-04-20T08:05:07.001Z</time></trkpt><trkpt lat="14.401429213675057" lon="120.9175779674531"><ele>19.6</ele><time>2026-04-20T08:05:08.001Z</time></trkpt><trkpt lat="14.401331307505709" lon="120.9175426882092"><ele>20.2</ele><time>2026-04-20T08:05:09.001Z</time></trkpt><trkpt lat="14.40123348967828" lon="120.91750204052221"><ele>20.8</ele><time>2026-04-20T08:05:10.001Z</time></trkpt><trkpt lat="14.401140544135094" lon="120.91746284080742"><ele>21.400000000000002</ele><time>2026-04-20T08:05:11.001Z</time></trkpt><trkpt lat="14.40104622855043" lon="120.9174391333398"><ele>22.0</ele><time>2026-04-20T08:05:12.001Z</time></trkpt><trkpt lat="14.400948345003723" lon="120.91743479499513"><ele>22.0</ele><time>2026-04-20T08:05:13.001Z</time></trkpt><trkpt lat="14.400846926865599" lon="120.91744915552981"><ele>22.0</ele><time>2026-04-20T08:05:14.001Z</time></trkpt><trkpt lat="14.400740955574427" lon="120.91747816638231"><ele>22.0</ele><time>2026-04-20T08:05:15.001Z</time></trkpt><trkpt lat="14.400628708486312" lon="120.91751166399742"><ele>22.0</ele><time>2026-04-20T08:05:16.001Z</time></trkpt><trkpt lat="14.400513462527986" lon="120.9175396547321"><ele>22.0</ele><time>2026-04-20T08:05:17.001Z</time></trkpt><trkpt lat="14.40039600902757" lon="120.91756526259921"><ele>21.5</ele><time>2026-04-20T08:05:18.001Z</time></trkpt><trkpt lat="14.400273314637943" lon="120.91759364778135"><ele>21.0</ele><time>2026-04-20T08:05:19.001Z</time></trkpt><trkpt lat="14.400142570496115" lon="120.91761221884944"><ele>20.5</ele><time>2026-04-20T08:05:20.001Z</time></trkpt><trkpt lat="14.400025240353036" lon="120.91762679673528"><ele>20.0</ele><time>2026-04-20T08:05:21.001Z</time></trkpt><trkpt lat="14.399893543359891" lon="120.91764391967136"><ele>20.0</ele><time>2026-04-20T08:05:22Z</time></trkpt><trkpt lat="14.39976337857558" lon="120.91765304173383"><ele>20.0</ele><time>2026-04-20T08:05:23Z</time></trkpt><trkpt lat="14.399627765899382" lon="120.91766330950126"><ele>20.0</ele><time>2026-04-20T08:05:24Z</time></trkpt><trkpt lat="14.399487241895113" lon="120.91767460494549"><ele>20.0</ele><time>2026-04-20T08:05:25Z</time></trkpt><trkpt lat="14.399342961254465" lon="120.91768354094084"><ele>19.75</ele><time>2026-04-20T08:05:26Z</time></trkpt><trkpt lat="14.399194076061118" lon="120.91769068857033"><ele>19.5</ele><time>2026-04-20T08:05:27Z</time></trkpt><trkpt lat="14.399046990209516" lon="120.91769836672904"><ele>19.25</ele><time>2026-04-20T08:05:28Z</time></trkpt><trkpt lat="14.398894158116951" lon="120.917703173256"><ele>19.0</ele><time>2026-04-20T08:05:29Z</time></trkpt><trkpt lat="14.398746141768138" lon="120.91770275598279"><ele>19.666666666666664</ele><time>2026-04-20T08:05:30Z</time></trkpt><trkpt lat="14.398592286962248" lon="120.91770129398796"><ele>20.333333333333332</ele><time>2026-04-20T08:05:31Z</time></trkpt><trkpt lat="14.3984395468291" lon="120.9177035146531"><ele>21.0</ele><time>2026-04-20T08:05:32Z</time></trkpt><trkpt lat="14.398290658085482" lon="120.91770006870077"><ele>21.0</ele><time>2026-04-20T08:05:33Z</time></trkpt><trkpt lat="14.39813539926625" lon="120.91770323607673"><ele>21.0</ele><time>2026-04-20T08:05:34Z</time></trkpt><trkpt lat="14.397984510971131" lon="120.91770440007087"><ele>21.0</ele><time>2026-04-20T08:05:35Z</time></trkpt><trkpt lat="14.39783285487195" lon="120.91770411727605"><ele>21.0</ele><time>2026-04-20T08:05:36Z</time></trkpt><trkpt lat="14.397670744664167" lon="120.91770975101838"><ele>21.0</ele><time>2026-04-20T08:05:37Z</time></trkpt><trkpt lat="14.39752114741519" lon="120.91770843522238"><ele>21.0</ele><time>2026-04-20T08:05:38Z</time></trkpt><trkpt lat="14.39736364790238" lon="120.91770696829613"><ele>21.0</ele><time>2026-04-20T08:05:39Z</time></trkpt><trkpt lat="14.397203317674954" lon="120.91770387497465"><ele>21.0</ele><time>2026-04-20T08:05:40Z</time></trkpt><trkpt lat="14.397048159162896" lon="120.91769932999331"><ele>21.0</ele><time>2026-04-20T08:05:41Z</time></trkpt><trkpt lat="14.396886517400938" lon="120.91769434134874"><ele>21.0</ele><time>2026-04-20T08:05:42Z</time></trkpt><trkpt lat="14.396725142527334" lon="120.91768985282992"><ele>21.0</ele><time>2026-04-20T08:05:43Z</time></trkpt><trkpt lat="14.39657342317055" lon="120.91768214937834"><ele>21.0</ele><time>2026-04-20T08:05:44Z</time></trkpt><trkpt lat="14.396414527627016" lon="120.91767635414838"><ele>21.0</ele><time>2026-04-20T08:05:45Z</time></trkpt><trkpt lat="14.396264130811112" lon="120.91767293554524"><ele>21.0</ele><time>2026-04-20T08:05:46Z</time></trkpt><trkpt lat="14.396110177149614" lon="120.9176782815576"><ele>21.0</ele><time>2026-04-20T08:05:47Z</time></trkpt><trkpt lat="14.395960260427662" lon="120.91768880533002"><ele>21.0</ele><time>2026-04-20T08:05:48Z</time></trkpt><trkpt lat="14.395809473745478" lon="120.91770295321903"><ele>21.0</ele><time>2026-04-20T08:05:49Z</time></trkpt><trkpt lat="14.395664923243093" lon="120.91771250616621"><ele>21.0</ele><time>2026-04-20T08:05:50Z</time></trkpt><trkpt lat="14.395523233307028" lon="120.91771765679239"><ele>21.0</ele><time>2026-04-20T08:05:51Z</time></trkpt><trkpt lat="14.395389493795621" lon="120.91772256920505"><ele>21.25</ele><time>2026-04-20T08:05:52Z</time></trkpt><trkpt lat="14.395265338468983" lon="120.91773002515647"><ele>21.5</ele><time>2026-04-20T08:05:53Z</time></trkpt><trkpt lat="14.39514030067167" lon="120.9177399576581"><ele>21.75</ele><time>2026-04-20T08:05:54Z</time></trkpt><trkpt lat="14.395021521944221" lon="120.91774736191617"><ele>22.0</ele><time>2026-04-20T08:05:55Z</time></trkpt><trkpt lat="14.394910186333412" lon="120.9177488720914"><ele>22.0</ele><time>2026-04-20T08:05:56Z</time></trkpt><trkpt lat="14.39479366337737" lon="120.91775111765935"><ele>22.0</ele><time>2026-04-20T08:05:57Z</time></trkpt><trkpt lat="14.394672972566363" lon="120.91775557594472"><ele>22.0</ele><time>2026-04-20T08:05:58Z</time></trkpt><trkpt lat="14.394544186378166" lon="120.91776096281731"><ele>22.0</ele><time>2026-04-20T08:05:59Z</time></trkpt><trkpt lat="14.394416669271562" lon="120.91776224188241"><ele>21.75</ele><time>2026-04-20T08:06:00Z</time></trkpt><trkpt lat="14.394287578301588" lon="120.91776587815149"><ele>21.5</ele><time>2026-04-20T08:06:01Z</time></trkpt><trkpt lat="14.394158208490845" lon="120.91777284261036"><ele>21.25</ele><time>2026-04-20T08:06:02Z</time></trkpt><trkpt lat="14.39402426094754" lon="120.91778242170435"><ele>21.0</ele><time>2026-04-20T08:06:03Z</time></trkpt><trkpt lat="14.393890490089344" lon="120.91778875237603"><ele>21.25</ele><time>2026-04-20T08:06:04Z</time></trkpt><trkpt lat="14.393756476630303" lon="120.91779446273851"><ele>21.5</ele><time>2026-04-20T08:06:05Z</time></trkpt><trkpt lat="14.393618076236075" lon="120.9177994502973"><ele>21.75</ele><time>2026-04-20T08:06:06Z</time></trkpt><trkpt lat="14.393489506607246" lon="120.91779657069466"><ele>22.0</ele><time>2026-04-20T08:06:07Z</time></trkpt><trkpt lat="14.393361143784013" lon="120.91779877217662"><ele>22.0</ele><time>2026-04-20T08:06:08Z</time></trkpt><trkpt lat="14.393227721647726" lon="120.91780527691994"><ele>22.0</ele><time>2026-04-20T08:06:09Z</time></trkpt><trkpt lat="14.393090355114422" lon="120.91781406536741"><ele>22.0</ele><time>2026-04-20T08:06:10Z</time></trkpt><trkpt lat="14.392954410989761" lon="120.9178204652248"><ele>22.0</ele><time>2026-04-20T08:06:11Z</time></trkpt><trkpt lat="14.392811807971585" lon="120.91782962550542"><ele>22.5</ele><time>2026-04-20T08:06:12Z</time></trkpt><trkpt lat="14.392668824130919" lon="120.91783339333817"><ele>23.0</ele><time>2026-04-20T08:06:13Z</time></trkpt><trkpt lat="14.392524455802684" lon="120.91783404270834"><ele>23.5</ele><time>2026-04-20T08:06:14Z</time></trkpt><trkpt lat="14.392378490354362" lon="120.91783587644812"><ele>24.0</ele><time>2026-04-20T08:06:15Z</time></trkpt><trkpt lat="14.392238506181082" lon="120.91783520958599"><ele>23.75</ele><time>2026-04-20T08:06:16Z</time></trkpt><trkpt lat="14.392096560328325" lon="120.9178381442056"><ele>23.5</ele><time>2026-04-20T08:06:17Z</time></trkpt><trkpt lat="14.391959624245754" lon="120.91783846614493"><ele>23.25</ele><time>2026-04-20T08:06:18Z</time></trkpt><trkpt lat="14.391822393049374" lon="120.91783986662895"><ele>23.0</ele><time>2026-04-20T08:06:19Z</time></trkpt><trkpt lat="14.39168702632451" lon="120.91784941261716"><ele>23.0</ele><time>2026-04-20T08:06:20Z</time></trkpt><trkpt lat="14.391554849511689" lon="120.91786417614946"><ele>23.0</ele><time>2026-04-20T08:06:21Z</time></trkpt><trkpt lat="14.391418202745156" lon="120.9179004631495"><ele>23.0</ele><time>2026-04-20T08:06:22Z</time></trkpt><trkpt lat="14.391285979741285" lon="120.91794353648733"><ele>23.0</ele><time>2026-04-20T08:06:23Z</time></trkpt><trkpt lat="14.391155504479102" lon="120.91799789798374"><ele>23.25</ele><time>2026-04-20T08:06:24Z</time></trkpt><trkpt lat="14.391026083952882" lon="120.91805484429045"><ele>23.5</ele><time>2026-04-20T08:06:25Z</time></trkpt><trkpt lat="14.390897758401637" lon="120.91810659689793"><ele>23.75</ele><time>2026-04-20T08:06:26Z</time></trkpt><trkpt lat="14.390775902862314" lon="120.91815739679379"><ele>24.0</ele><time>2026-04-20T08:06:27Z</time></trkpt><trkpt lat="14.390662454182197" lon="120.91821134267272"><ele>24.0</ele><time>2026-04-20T08:06:28Z</time></trkpt><trkpt lat="14.390558054736832" lon="120.91826024617946"><ele>24.0</ele><time>2026-04-20T08:06:29Z</time></trkpt><trkpt lat="14.390460141302905" lon="120.91833413938429"><ele>24.0</ele><time>2026-04-20T08:06:30Z</time></trkpt><trkpt lat="14.390370789064344" lon="120.91840661492643"><ele>24.0</ele><time>2026-04-20T08:06:31Z</time></trkpt><trkpt lat="14.390279483613494" lon="120.91848990965832"><ele>24.0</ele><time>2026-04-20T08:06:32Z</time></trkpt><trkpt lat="14.390189534353002" lon="120.91856571995737"><ele>24.0</ele><time>2026-04-20T08:06:33Z</time></trkpt><trkpt lat="14.390090809973996" lon="120.91863915046993"><ele>24.0</ele><time>2026-04-20T08:06:34Z</time></trkpt><trkpt lat="14.38998937567786" lon="120.91870731017444"><ele>24.0</ele><time>2026-04-20T08:06:35Z</time></trkpt><trkpt lat="14.389895326393999" lon="120.91874871989049"><ele>24.0</ele><time>2026-04-20T08:06:36.001Z</time></trkpt><trkpt lat="14.38979825916728" lon="120.91877177662401"><ele>24.0</ele><time>2026-04-20T08:06:37.001Z</time></trkpt><trkpt lat="14.389686127102596" lon="120.9187821353068"><ele>24.0</ele><time>2026-04-20T08:06:38.001Z</time></trkpt><trkpt lat="14.3895632284104" lon="120.91879225938153"><ele>24.0</ele><time>2026-04-20T08:06:39.001Z</time></trkpt><trkpt lat="14.38944663139687" lon="120.91880137677302"><ele>24.0</ele><time>2026-04-20T08:06:40.001Z</time></trkpt><trkpt lat="14.389317925181464" lon="120.91881318865691"><ele>24.0</ele><time>2026-04-20T08:06:41.001Z</time></trkpt><trkpt lat="14.389189850447615" lon="120.91882492491955"><ele>24.0</ele><time>2026-04-20T08:06:42.001Z</time></trkpt><trkpt lat="14.389048365333702" lon="120.91883788255893"><ele>24.0</ele><time>2026-04-20T08:06:43.001Z</time></trkpt><trkpt lat="14.3889105975571" lon="120.91884224829596"><ele>24.25</ele><time>2026-04-20T08:06:44.001Z</time></trkpt><trkpt lat="14.388766594296822" lon="120.91884300876214"><ele>24.5</ele><time>2026-04-20T08:06:45.001Z</time></trkpt><trkpt lat="14.388626650137734" lon="120.91883346297797"><ele>24.75</ele><time>2026-04-20T08:06:46.001Z</time></trkpt><trkpt lat="14.388483982222601" lon="120.91882053609942"><ele>25.0</ele><time>2026-04-20T08:06:47.001Z</time></trkpt><trkpt lat="14.38834190165225" lon="120.91880455334454"><ele>25.0</ele><time>2026-04-20T08:06:48.001Z</time></trkpt><trkpt lat="14.388192069504083" lon="120.91879398321707"><ele>25.0</ele><time>2026-04-20T08:06:49.001Z</time></trkpt><trkpt lat="14.388049500054034" lon="120.91879256288156"><ele>25.0</ele><time>2026-04-20T08:06:50.001Z</time></trkpt><trkpt lat="14.387900031298079" lon="120.91879723435822"><ele>25.0</ele><time>2026-04-20T08:06:51.001Z</time></trkpt><trkpt lat="14.3877479520218" lon="120.91880705009534"><ele>24.333333333333336</ele><time>2026-04-20T08:06:52.001Z</time></trkpt><trkpt lat="14.387594639964545" lon="120.9188172551048"><ele>23.666666666666668</ele><time>2026-04-20T08:06:53.001Z</time></trkpt><trkpt lat="14.387439800277104" lon="120.91882459857517"><ele>23.0</ele><time>2026-04-20T08:06:54.001Z</time></trkpt><trkpt lat="14.387285933520404" lon="120.91883184702657"><ele>24.0</ele><time>2026-04-20T08:06:55.001Z</time></trkpt><trkpt lat="14.387139098389708" lon="120.91884095982988"><ele>25.0</ele><time>2026-04-20T08:06:56.001Z</time></trkpt><trkpt lat="14.38700131972145" lon="120.9188510414917"><ele>26.0</ele><time>2026-04-20T08:06:57.001Z</time></trkpt><trkpt lat="14.386871561459094" lon="120.91885975286259"><ele>27.0</ele><time>2026-04-20T08:06:58.001Z</time></trkpt><trkpt lat="14.386751009084795" lon="120.91886509157463"><ele>27.0</ele><time>2026-04-20T08:06:59.001Z</time></trkpt><trkpt lat="14.386637148058375" lon="120.91885986124223"><ele>27.000000000000004</ele><time>2026-04-20T08:07:00.001Z</time></trkpt><trkpt lat="14.386534194032082" lon="120.91883144314322"><ele>27.000000000000004</ele><time>2026-04-20T08:07:01.001Z</time></trkpt><trkpt lat="14.3864350321264" lon="120.91878014207224"><ele>27.0</ele><time>2026-04-20T08:07:02.001Z</time></trkpt><trkpt lat="14.386349328883188" lon="120.9187119347662"><ele>27.0</ele><time>2026-04-20T08:07:03.001Z</time></trkpt><trkpt lat="14.386274597927626" lon="120.91862896924938"><ele>27.0</ele><time>2026-04-20T08:07:04.001Z</time></trkpt><trkpt lat="14.386193497945207" lon="120.91853919199836"><ele>27.0</ele><time>2026-04-20T08:07:05.001Z</time></trkpt><trkpt lat="14.38611579217522" lon="120.91845205006123"><ele>27.0</ele><time>2026-04-20T08:07:06.001Z</time></trkpt><trkpt lat="14.386034477359535" lon="120.91836038995001"><ele>27.0</ele><time>2026-04-20T08:07:07.001Z</time></trkpt><trkpt lat="14.385942672465413" lon="120.9182686833079"><ele>27.0</ele><time>2026-04-20T08:07:08.001Z</time></trkpt><trkpt lat="14.385859194563151" lon="120.91817784957634"><ele>27.0</ele><time>2026-04-20T08:07:09.001Z</time></trkpt><trkpt lat="14.385770733467183" lon="120.91808430791173"><ele>27.0</ele><time>2026-04-20T08:07:10.001Z</time></trkpt><trkpt lat="14.385681674263529" lon="120.91799168160489"><ele>27.0</ele><time>2026-04-20T08:07:11.001Z</time></trkpt><trkpt lat="14.385594155102428" lon="120.91789554307174"><ele>27.0</ele><time>2026-04-20T08:07:12.001Z</time></trkpt><trkpt lat="14.385501752534013" lon="120.91779546761387"><ele>27.0</ele><time>2026-04-20T08:07:13.001Z</time></trkpt><trkpt lat="14.38541266571364" lon="120.91769889155822"><ele>27.0</ele><time>2026-04-20T08:07:14.001Z</time></trkpt><trkpt lat="14.385325608609076" lon="120.91759664886499"><ele>27.0</ele><time>2026-04-20T08:07:15.001Z</time></trkpt><trkpt lat="14.385239698273931" lon="120.91748894289745"><ele>27.25</ele><time>2026-04-20T08:07:16.001Z</time></trkpt><trkpt lat="14.385153489081027" lon="120.91737960171065"><ele>27.5</ele><time>2026-04-20T08:07:17.001Z</time></trkpt><trkpt lat="14.385064757849333" lon="120.91726665177997"><ele>27.75</ele><time>2026-04-20T08:07:18.001Z</time></trkpt><trkpt lat="14.38497335978362" lon="120.91715357573113"><ele>28.0</ele><time>2026-04-20T08:07:19.001Z</time></trkpt><trkpt lat="14.384880761642178" lon="120.91703894084195"><ele>28.0</ele><time>2026-04-20T08:07:20.001Z</time></trkpt><trkpt lat="14.384787947015706" lon="120.91692831027224"><ele>28.0</ele><time>2026-04-20T08:07:21.001Z</time></trkpt><trkpt lat="14.384704873643711" lon="120.91682382103039"><ele>28.0</ele><time>2026-04-20T08:07:22.001Z</time></trkpt><trkpt lat="14.384629358128983" lon="120.91672024972402"><ele>28.0</ele><time>2026-04-20T08:07:23.001Z</time></trkpt><trkpt lat="14.384564411868656" lon="120.91662140386056"><ele>28.599999999999998</ele><time>2026-04-20T08:07:24.001Z</time></trkpt><trkpt lat="14.384505026574123" lon="120.91651284437998"><ele>29.199999999999996</ele><time>2026-04-20T08:07:25.001Z</time></trkpt><trkpt lat="14.384453111653285" lon="120.91641996858391"><ele>29.8</ele><time>2026-04-20T08:07:26.001Z</time></trkpt><trkpt lat="14.384398737003428" lon="120.91633522632732"><ele>30.4</ele><time>2026-04-20T08:07:27.001Z</time></trkpt><trkpt lat="14.384343991818303" lon="120.91626233470016"><ele>31.0</ele><time>2026-04-20T08:07:28Z</time></trkpt><trkpt lat="14.384274740516267" lon="120.91619073051258"><ele>31.000000000000004</ele><time>2026-04-20T08:07:29Z</time></trkpt><trkpt lat="14.384205493425116" lon="120.91614342015806"><ele>31.0</ele><time>2026-04-20T08:07:30Z</time></trkpt><trkpt lat="14.384133408069507" lon="120.91611695648726"><ele>31.0</ele><time>2026-04-20T08:07:31Z</time></trkpt><trkpt lat="14.384050005968783" lon="120.91610298438935"><ele>31.0</ele><time>2026-04-20T08:07:32Z</time></trkpt><trkpt lat="14.383977247007529" lon="120.91611176119902"><ele>31.000000000000004</ele><time>2026-04-20T08:07:33Z</time></trkpt><trkpt lat="14.38389974305926" lon="120.91613110253854"><ele>31.0</ele><time>2026-04-20T08:07:34Z</time></trkpt><trkpt lat="14.38382566988471" lon="120.91614887761703"><ele>30.8</ele><time>2026-04-20T08:07:35Z</time></trkpt><trkpt lat="14.383738857305744" lon="120.91616086700932"><ele>30.6</ele><time>2026-04-20T08:07:36Z</time></trkpt><trkpt lat="14.383651752834153" lon="120.91616566756625"><ele>30.4</ele><time>2026-04-20T08:07:37Z</time></trkpt><trkpt lat="14.38355337713379" lon="120.91616651406403"><ele>30.2</ele><time>2026-04-20T08:07:38Z</time></trkpt><trkpt lat="14.383454813493826" lon="120.91616418388024"><ele>30.0</ele><time>2026-04-20T08:07:39Z</time></trkpt><trkpt lat="14.383347435859966" lon="120.91616067371592"><ele>30.0</ele><time>2026-04-20T08:07:40Z</time></trkpt><trkpt lat="14.383241528583163" lon="120.91615981032894"><ele>30.0</ele><time>2026-04-20T08:07:41Z</time></trkpt><trkpt lat="14.38313182047796" lon="120.91615802284181"><ele>30.0</ele><time>2026-04-20T08:07:42Z</time></trkpt><trkpt lat="14.383022361243672" lon="120.91615686795414"><ele>30.0</ele><time>2026-04-20T08:07:43Z</time></trkpt><trkpt lat="14.382911454864027" lon="120.9161562422252"><ele>30.0</ele><time>2026-04-20T08:07:44Z</time></trkpt><trkpt lat="14.38281017693683" lon="120.91616137488688"><ele>30.0</ele><time>2026-04-20T08:07:45Z</time></trkpt><trkpt lat="14.382696319051774" lon="120.91616887078602"><ele>30.0</ele><time>2026-04-20T08:07:46Z</time></trkpt><trkpt lat="14.382593584034307" lon="120.91617885455776"><ele>30.0</ele><time>2026-04-20T08:07:47Z</time></trkpt><trkpt lat="14.382480536353677" lon="120.91619170186382"><ele>30.0</ele><time>2026-04-20T08:07:48Z</time></trkpt><trkpt lat="14.38237675901711" lon="120.91619922676018"><ele>30.0</ele><time>2026-04-20T08:07:49Z</time></trkpt><trkpt lat="14.382269649416559" lon="120.91621058527373"><ele>30.166666666666668</ele><time>2026-04-20T08:07:50Z</time></trkpt><trkpt lat="14.3821735659931" lon="120.91621551132236"><ele>30.333333333333336</ele><time>2026-04-20T08:07:51Z</time></trkpt><trkpt lat="14.382082340523558" lon="120.91622091782645"><ele>30.5</ele><time>2026-04-20T08:07:52Z</time></trkpt><trkpt lat="14.38199674347607" lon="120.91623059444574"><ele>30.666666666666668</ele><time>2026-04-20T08:07:53Z</time></trkpt><trkpt lat="14.381918617446551" lon="120.91623738646346"><ele>30.833333333333336</ele><time>2026-04-20T08:07:54Z</time></trkpt><trkpt lat="14.381851789595764" lon="120.91623899475826"><ele>31.0</ele><time>2026-04-20T08:07:55Z</time></trkpt><trkpt lat="14.381777951720771" lon="120.91624612016146"><ele>31.0</ele><time>2026-04-20T08:07:56Z</time></trkpt><trkpt lat="14.38170273139246" lon="120.9162538507224"><ele>31.0</ele><time>2026-04-20T08:07:57Z</time></trkpt><trkpt lat="14.381577247490217" lon="120.91626568446112"><ele>31.0</ele><time>2026-04-20T08:07:59Z</time></trkpt><trkpt lat="14.381460908377363" lon="120.91627268949054"><ele>31.0</ele><time>2026-04-20T08:08:01Z</time></trkpt><trkpt lat="14.381396567551581" lon="120.91627850515628"><ele>31.0</ele><time>2026-04-20T08:08:02Z</time></trkpt><trkpt lat="14.381329798307867" lon="120.91628328780696"><ele>31.000000000000004</ele><time>2026-04-20T08:08:03Z</time></trkpt><trkpt lat="14.381254837653167" lon="120.91628922439362"><ele>31.0</ele><time>2026-04-20T08:08:04Z</time></trkpt><trkpt lat="14.38116870610265" lon="120.91629510730246"><ele>31.0</ele><time>2026-04-20T08:08:05Z</time></trkpt><trkpt lat="14.381079192113067" lon="120.91629906127123"><ele>31.0</ele><time>2026-04-20T08:08:06Z</time></trkpt><trkpt lat="14.380992187318625" lon="120.91629741638828"><ele>31.000000000000004</ele><time>2026-04-20T08:08:07Z</time></trkpt><trkpt lat="14.38088639228242" lon="120.91630342587065"><ele>31.0</ele><time>2026-04-20T08:08:08Z</time></trkpt><trkpt lat="14.380784170577453" lon="120.9163050301889"><ele>31.0</ele><time>2026-04-20T08:08:09Z</time></trkpt><trkpt lat="14.380674136125853" lon="120.91630843082785"><ele>31.0</ele><time>2026-04-20T08:08:10Z</time></trkpt><trkpt lat="14.38056605074299" lon="120.91631007047059"><ele>31.0</ele><time>2026-04-20T08:08:11Z</time></trkpt><trkpt lat="14.380450669912745" lon="120.91631570171857"><ele>31.0</ele><time>2026-04-20T08:08:12Z</time></trkpt><trkpt lat="14.380342883989309" lon="120.91632001764937"><ele>31.0</ele><time>2026-04-20T08:08:13Z</time></trkpt><trkpt lat="14.380235955011383" lon="120.91632552523676"><ele>31.4</ele><time>2026-04-20T08:08:14Z</time></trkpt><trkpt lat="14.380129165207187" lon="120.91633533708243"><ele>31.8</ele><time>2026-04-20T08:08:15Z</time></trkpt><trkpt lat="14.380021481650653" lon="120.91635047715562"><ele>32.199999999999996</ele><time>2026-04-20T08:08:16Z</time></trkpt><trkpt lat="14.379910547556117" lon="120.91636060932807"><ele>32.6</ele><time>2026-04-20T08:08:17Z</time></trkpt><trkpt lat="14.379798879358093" lon="120.91636440043635"><ele>33.0</ele><time>2026-04-20T08:08:18Z</time></trkpt><trkpt lat="14.37967713802114" lon="120.91636740388385"><ele>33.75</ele><time>2026-04-20T08:08:19Z</time></trkpt><trkpt lat="14.379546644248855" lon="120.9163758743998"><ele>34.5</ele><time>2026-04-20T08:08:20Z</time></trkpt><trkpt lat="14.37941652819566" lon="120.91638328164565"><ele>35.25</ele><time>2026-04-20T08:08:21Z</time></trkpt><trkpt lat="14.379283032675312" lon="120.9163976317333"><ele>36.0</ele><time>2026-04-20T08:08:22Z</time></trkpt><trkpt lat="14.379149323335678" lon="120.91641527753549"><ele>36.0</ele><time>2026-04-20T08:08:23Z</time></trkpt><trkpt lat="14.379014804390497" lon="120.91643458322"><ele>36.0</ele><time>2026-04-20T08:08:24Z</time></trkpt><trkpt lat="14.378887840745534" lon="120.91644895270728"><ele>36.0</ele><time>2026-04-20T08:08:25Z</time></trkpt><trkpt lat="14.37875436295575" lon="120.91647095857076"><ele>36.0</ele><time>2026-04-20T08:08:26Z</time></trkpt><trkpt lat="14.378623642565184" lon="120.91649665757242"><ele>35.25</ele><time>2026-04-20T08:08:27Z</time></trkpt><trkpt lat="14.378495876641448" lon="120.91653118155635"><ele>34.5</ele><time>2026-04-20T08:08:28Z</time></trkpt><trkpt lat="14.378363133104457" lon="120.91657223991199"><ele>33.75</ele><time>2026-04-20T08:08:29Z</time></trkpt><trkpt lat="14.378235701265123" lon="120.91661990378647"><ele>33.0</ele><time>2026-04-20T08:08:30Z</time></trkpt><trkpt lat="14.378101949919861" lon="120.91668022140486"><ele>33.0</ele><time>2026-04-20T08:08:31Z</time></trkpt><trkpt lat="14.377976401014909" lon="120.916740517455"><ele>33.0</ele><time>2026-04-20T08:08:32Z</time></trkpt><trkpt lat="14.377848373367755" lon="120.91680352208499"><ele>33.0</ele><time>2026-04-20T08:08:33Z</time></trkpt><trkpt lat="14.377716487191963" lon="120.91686623192447"><ele>33.0</ele><time>2026-04-20T08:08:34Z</time></trkpt><trkpt lat="14.377587371645534" lon="120.91692716548451"><ele>33.0</ele><time>2026-04-20T08:08:35Z</time></trkpt><trkpt lat="14.377459988198085" lon="120.91699424955291"><ele>33.0</ele><time>2026-04-20T08:08:36Z</time></trkpt><trkpt lat="14.377331631403397" lon="120.91706692352547"><ele>33.0</ele><time>2026-04-20T08:08:37Z</time></trkpt><trkpt lat="14.377204677414099" lon="120.9171446207535"><ele>33.0</ele><time>2026-04-20T08:08:38Z</time></trkpt><trkpt lat="14.377084347500247" lon="120.9172249696098"><ele>33.5</ele><time>2026-04-20T08:08:39Z</time></trkpt><trkpt lat="14.376965594997511" lon="120.91731176201554"><ele>34.0</ele><time>2026-04-20T08:08:40Z</time></trkpt><trkpt lat="14.376849537570058" lon="120.91740124367045"><ele>34.5</ele><time>2026-04-20T08:08:41.001Z</time></trkpt><trkpt lat="14.376736581802495" lon="120.91748600934181"><ele>35.0</ele><time>2026-04-20T08:08:42.001Z</time></trkpt><trkpt lat="14.376628061932333" lon="120.91756471575924"><ele>34.75</ele><time>2026-04-20T08:08:43.001Z</time></trkpt><trkpt lat="14.376520512878168" lon="120.91763241326728"><ele>34.5</ele><time>2026-04-20T08:08:44.001Z</time></trkpt><trkpt lat="14.376411557422465" lon="120.9176853395452"><ele>34.25</ele><time>2026-04-20T08:08:45.001Z</time></trkpt><trkpt lat="14.376293952478774" lon="120.91772935303669"><ele>34.0</ele><time>2026-04-20T08:08:46.001Z</time></trkpt><trkpt lat="14.376172403407335" lon="120.91777357154487"><ele>34.0</ele><time>2026-04-20T08:08:47.001Z</time></trkpt><trkpt lat="14.37605251625365" lon="120.91781602507736"><ele>34.0</ele><time>2026-04-20T08:08:48.001Z</time></trkpt><trkpt lat="14.37593690362731" lon="120.91785932354215"><ele>34.0</ele><time>2026-04-20T08:08:49.001Z</time></trkpt><trkpt lat="14.375826776866113" lon="120.91790247874285"><ele>34.0</ele><time>2026-04-20T08:08:50.001Z</time></trkpt><trkpt lat="14.375719517575858" lon="120.91794392717688"><ele>34.0</ele><time>2026-04-20T08:08:51.001Z</time></trkpt><trkpt lat="14.375609104851533" lon="120.91797862411211"><ele>34.0</ele><time>2026-04-20T08:08:52.001Z</time></trkpt><trkpt lat="14.375493786219746" lon="120.91800807501969"><ele>34.0</ele><time>2026-04-20T08:08:53.001Z</time></trkpt><trkpt lat="14.3753838311807" lon="120.91803813798415"><ele>34.0</ele><time>2026-04-20T08:08:54.001Z</time></trkpt><trkpt lat="14.375263840546081" lon="120.918069702793"><ele>34.5</ele><time>2026-04-20T08:08:55.001Z</time></trkpt><trkpt lat="14.375145096999715" lon="120.91810087517682"><ele>35.0</ele><time>2026-04-20T08:08:56.001Z</time></trkpt><trkpt lat="14.375025061179102" lon="120.91812862710763"><ele>35.5</ele><time>2026-04-20T08:08:57.001Z</time></trkpt><trkpt lat="14.37490131516556" lon="120.91815466837284"><ele>36.0</ele><time>2026-04-20T08:08:58.001Z</time></trkpt><trkpt lat="14.374770831918003" lon="120.91818210217629"><ele>35.75</ele><time>2026-04-20T08:08:59.001Z</time></trkpt><trkpt lat="14.374645344322637" lon="120.91820777850283"><ele>35.5</ele><time>2026-04-20T08:09:00.001Z</time></trkpt><trkpt lat="14.374513185881142" lon="120.91823216711997"><ele>35.25</ele><time>2026-04-20T08:09:01.001Z</time></trkpt><trkpt lat="14.374384652343846" lon="120.91825425664423"><ele>35.0</ele><time>2026-04-20T08:09:02.001Z</time></trkpt><trkpt lat="14.374256426559521" lon="120.91827976163397"><ele>35.0</ele><time>2026-04-20T08:09:03.001Z</time></trkpt><trkpt lat="14.374129546394714" lon="120.91830322557294"><ele>35.0</ele><time>2026-04-20T08:09:04.001Z</time></trkpt><trkpt lat="14.373999180675847" lon="120.91832390968865"><ele>35.0</ele><time>2026-04-20T08:09:05.001Z</time></trkpt><trkpt lat="14.373871862528363" lon="120.91834553907056"><ele>35.0</ele><time>2026-04-20T08:09:06.001Z</time></trkpt><trkpt lat="14.373740186350767" lon="120.9183701980513"><ele>35.0</ele><time>2026-04-20T08:09:07.001Z</time></trkpt><trkpt lat="14.373607638343502" lon="120.91839049289082"><ele>35.0</ele><time>2026-04-20T08:09:08.001Z</time></trkpt><trkpt lat="14.373473857689563" lon="120.91840405868032"><ele>35.0</ele><time>2026-04-20T08:09:09.001Z</time></trkpt><trkpt lat="14.373334691013868" lon="120.91841519046642"><ele>35.0</ele><time>2026-04-20T08:09:10.001Z</time></trkpt><trkpt lat="14.37320742009753" lon="120.91842155874514"><ele>35.0</ele><time>2026-04-20T08:09:11.001Z</time></trkpt><trkpt lat="14.373085912575258" lon="120.91842892323615"><ele>35.0</ele><time>2026-04-20T08:09:12.001Z</time></trkpt><trkpt lat="14.372975233318536" lon="120.91844016254059"><ele>35.0</ele><time>2026-04-20T08:09:13.001Z</time></trkpt><trkpt lat="14.372867458327153" lon="120.91844986453052"><ele>35.0</ele><time>2026-04-20T08:09:14.001Z</time></trkpt><trkpt lat="14.37276755142444" lon="120.91845947974545"><ele>35.0</ele><time>2026-04-20T08:09:15.001Z</time></trkpt><trkpt lat="14.3726553572114" lon="120.9184681883535"><ele>35.0</ele><time>2026-04-20T08:09:16.001Z</time></trkpt><trkpt lat="14.37256941256775" lon="120.91847269986218"><ele>35.0</ele><time>2026-04-20T08:09:17.001Z</time></trkpt><trkpt lat="14.372470482981644" lon="120.91848278728958"><ele>35.0</ele><time>2026-04-20T08:09:18.001Z</time></trkpt><trkpt lat="14.372366209329476" lon="120.91849705710504"><ele>35.0</ele><time>2026-04-20T08:09:19.001Z</time></trkpt><trkpt lat="14.37227377714458" lon="120.91850772450186"><ele>35.0</ele><time>2026-04-20T08:09:20.001Z</time></trkpt><trkpt lat="14.372181518793436" lon="120.9185174242979"><ele>35.0</ele><time>2026-04-20T08:09:21.001Z</time></trkpt><trkpt lat="14.37208701740864" lon="120.91852618599157"><ele>35.0</ele><time>2026-04-20T08:09:22.001Z</time></trkpt><trkpt lat="14.371990736300539" lon="120.91853450676054"><ele>35.0</ele><time>2026-04-20T08:09:23.001Z</time></trkpt><trkpt lat="14.371898615714159" lon="120.91854443842344"><ele>35.0</ele><time>2026-04-20T08:09:24.001Z</time></trkpt><trkpt lat="14.371797828805315" lon="120.91855532055861"><ele>35.0</ele><time>2026-04-20T08:09:25.001Z</time></trkpt><trkpt lat="14.37169714039396" lon="120.91856499700509"><ele>35.0</ele><time>2026-04-20T08:09:26.001Z</time></trkpt><trkpt lat="14.371592101521163" lon="120.9185753019939"><ele>35.0</ele><time>2026-04-20T08:09:27.001Z</time></trkpt><trkpt lat="14.371480498179483" lon="120.91858560886632"><ele>35.0</ele><time>2026-04-20T08:09:28.001Z</time></trkpt><trkpt lat="14.371374372268049" lon="120.91858382117086"><ele>35.0</ele><time>2026-04-20T08:09:29.001Z</time></trkpt><trkpt lat="14.371261632811088" lon="120.91857757376502"><ele>35.0</ele><time>2026-04-20T08:09:30.001Z</time></trkpt><trkpt lat="14.371143836289685" lon="120.91856542032284"><ele>35.75</ele><time>2026-04-20T08:09:31.001Z</time></trkpt><trkpt lat="14.371023666583312" lon="120.91855865553856"><ele>36.5</ele><time>2026-04-20T08:09:32.001Z</time></trkpt><trkpt lat="14.370903124992239" lon="120.91855832507544"><ele>37.25</ele><time>2026-04-20T08:09:33.001Z</time></trkpt><trkpt lat="14.370779230939005" lon="120.91857240843797"><ele>38.0</ele><time>2026-04-20T08:09:34Z</time></trkpt><trkpt lat="14.370649213410482" lon="120.91859325652878"><ele>37.75</ele><time>2026-04-20T08:09:35Z</time></trkpt><trkpt lat="14.370524019409272" lon="120.91860803530686"><ele>37.5</ele><time>2026-04-20T08:09:36Z</time></trkpt><trkpt lat="14.370393695915725" lon="120.91862642817675"><ele>37.25</ele><time>2026-04-20T08:09:37Z</time></trkpt><trkpt lat="14.370268308936014" lon="120.91864313046865"><ele>37.0</ele><time>2026-04-20T08:09:38Z</time></trkpt><trkpt lat="14.370142164022234" lon="120.91866336965084"><ele>37.0</ele><time>2026-04-20T08:09:39Z</time></trkpt><trkpt lat="14.370014325597936" lon="120.91869146283925"><ele>37.0</ele><time>2026-04-20T08:09:40Z</time></trkpt><trkpt lat="14.36989596823024" lon="120.91871304948052"><ele>37.0</ele><time>2026-04-20T08:09:41Z</time></trkpt><trkpt lat="14.36976932894157" lon="120.91873348827274"><ele>37.0</ele><time>2026-04-20T08:09:42Z</time></trkpt><trkpt lat="14.36964812636477" lon="120.91875108711896"><ele>38.25</ele><time>2026-04-20T08:09:43Z</time></trkpt><trkpt lat="14.36952808467054" lon="120.91876882189874"><ele>39.5</ele><time>2026-04-20T08:09:44Z</time></trkpt><trkpt lat="14.36940624268505" lon="120.91878902024673"><ele>40.75</ele><time>2026-04-20T08:09:45Z</time></trkpt><trkpt lat="14.369285125553922" lon="120.9188118480627"><ele>42.0</ele><time>2026-04-20T08:09:46Z</time></trkpt><trkpt lat="14.369164371209004" lon="120.91883226783354"><ele>42.0</ele><time>2026-04-20T08:09:47Z</time></trkpt><trkpt lat="14.3690418683901" lon="120.91885346197745"><ele>42.0</ele><time>2026-04-20T08:09:48Z</time></trkpt><trkpt lat="14.368920405890233" lon="120.91887691882184"><ele>42.0</ele><time>2026-04-20T08:09:49Z</time></trkpt><trkpt lat="14.368797624820806" lon="120.91890347235025"><ele>42.0</ele><time>2026-04-20T08:09:50Z</time></trkpt><trkpt lat="14.368671832205608" lon="120.91893011012908"><ele>42.5</ele><time>2026-04-20T08:09:51Z</time></trkpt><trkpt lat="14.368545459223276" lon="120.9189491842044"><ele>43.0</ele><time>2026-04-20T08:09:52Z</time></trkpt><trkpt lat="14.368421455639082" lon="120.91896153104928"><ele>43.5</ele><time>2026-04-20T08:09:53Z</time></trkpt><trkpt lat="14.368294295546674" lon="120.91898343933794"><ele>44.0</ele><time>2026-04-20T08:09:54Z</time></trkpt><trkpt lat="14.368176737344832" lon="120.91900895377402"><ele>44.0</ele><time>2026-04-20T08:09:55Z</time></trkpt><trkpt lat="14.368073022439948" lon="120.91904068087193"><ele>44.0</ele><time>2026-04-20T08:09:56Z</time></trkpt><trkpt lat="14.36796760203797" lon="120.91907122021823"><ele>44.0</ele><time>2026-04-20T08:09:57Z</time></trkpt><trkpt lat="14.367874796507245" lon="120.91909929862247"><ele>44.0</ele><time>2026-04-20T08:09:58Z</time></trkpt><trkpt lat="14.36778925241936" lon="120.91912508289687"><ele>44.0</ele><time>2026-04-20T08:09:59Z</time></trkpt><trkpt lat="14.367675315939557" lon="120.91915893934652"><ele>44.0</ele><time>2026-04-20T08:10:01Z</time></trkpt><trkpt lat="14.36756941197852" lon="120.91919049634922"><ele>44.0</ele><time>2026-04-20T08:10:03Z</time></trkpt><trkpt lat="14.36749852759643" lon="120.9192034024263"><ele>44.0</ele><time>2026-04-20T08:10:05Z</time></trkpt><trkpt lat="14.367415602192837" lon="120.91922463217824"><ele>44.0</ele><time>2026-04-20T08:10:07Z</time></trkpt><trkpt lat="14.367326747539366" lon="120.91925289761087"><ele>44.0</ele><time>2026-04-20T08:10:09Z</time></trkpt><trkpt lat="14.367257957581375" lon="120.91927781879699"><ele>44.0</ele><time>2026-04-20T08:10:11Z</time></trkpt><trkpt lat="14.36718053284504" lon="120.91930239233241"><ele>44.0</ele><time>2026-04-20T08:10:14Z</time></trkpt><trkpt lat="14.3671088276788" lon="120.91931920521552"><ele>44.0</ele><time>2026-04-20T08:10:16Z</time></trkpt><trkpt lat="14.36704161001662" lon="120.91933562545641"><ele>44.0</ele><time>2026-04-20T08:10:18Z</time></trkpt><trkpt lat="14.366964521187654" lon="120.91935696179368"><ele>44.0</ele><time>2026-04-20T08:10:20Z</time></trkpt><trkpt lat="14.366871554659507" lon="120.91938912874734"><ele>44.0</ele><time>2026-04-20T08:10:22Z</time></trkpt><trkpt lat="14.366789876230127" lon="120.91941025226254"><ele>44.0</ele><time>2026-04-20T08:10:24Z</time></trkpt><trkpt lat="14.366724487947103" lon="120.9194227662734"><ele>44.0</ele><time>2026-04-20T08:10:26Z</time></trkpt><trkpt lat="14.366647758408284" lon="120.91939413505582"><ele>44.0</ele><time>2026-04-20T08:10:28Z</time></trkpt><trkpt lat="14.366583181794619" lon="120.9193116322405"><ele>44.0</ele><time>2026-04-20T08:10:30Z</time></trkpt><trkpt lat="14.366541206360557" lon="120.9192453222511"><ele>44.0</ele><time>2026-04-20T08:10:31Z</time></trkpt><trkpt lat="14.366496786488309" lon="120.91917957673091"><ele>44.0</ele><time>2026-04-20T08:10:32Z</time></trkpt><trkpt lat="14.366449314434961" lon="120.91911174510135"><ele>44.0</ele><time>2026-04-20T08:10:33Z</time></trkpt><trkpt lat="14.366396317295019" lon="120.9190217990678"><ele>44.0</ele><time>2026-04-20T08:10:34Z</time></trkpt><trkpt lat="14.366341294697621" lon="120.91894047893135"><ele>44.0</ele><time>2026-04-20T08:10:35Z</time></trkpt><trkpt lat="14.366288255946605" lon="120.91884047429795"><ele>44.0</ele><time>2026-04-20T08:10:36Z</time></trkpt><trkpt lat="14.36623487445926" lon="120.91874090635058"><ele>44.0</ele><time>2026-04-20T08:10:37Z</time></trkpt><trkpt lat="14.36618161217892" lon="120.91863679239394"><ele>44.0</ele><time>2026-04-20T08:10:38Z</time></trkpt><trkpt lat="14.366131589671378" lon="120.91852851242814"><ele>43.5</ele><time>2026-04-20T08:10:39Z</time></trkpt><trkpt lat="14.36609460004324" lon="120.91839660786155"><ele>43.0</ele><time>2026-04-20T08:10:40Z</time></trkpt><trkpt lat="14.366066057272484" lon="120.918277060841"><ele>42.5</ele><time>2026-04-20T08:10:41Z</time></trkpt><trkpt lat="14.366048887425617" lon="120.91814448404197"><ele>42.0</ele><time>2026-04-20T08:10:42Z</time></trkpt><trkpt lat="14.366040678190874" lon="120.91801050727534"><ele>42.0</ele><time>2026-04-20T08:10:43Z</time></trkpt><trkpt lat="14.366037756965708" lon="120.91787101133202"><ele>42.0</ele><time>2026-04-20T08:10:44Z</time></trkpt><trkpt lat="14.366041519384614" lon="120.91773158999861"><ele>42.0</ele><time>2026-04-20T08:10:45Z</time></trkpt><trkpt lat="14.36604523317675" lon="120.91758896096695"><ele>42.0</ele><time>2026-04-20T08:10:46.001Z</time></trkpt><trkpt lat="14.366047677701642" lon="120.91744369526312"><ele>42.25</ele><time>2026-04-20T08:10:47.001Z</time></trkpt><trkpt lat="14.366048815911041" lon="120.91729434846089"><ele>42.5</ele><time>2026-04-20T08:10:48.001Z</time></trkpt><trkpt lat="14.366052185922241" lon="120.91714610925426"><ele>42.75</ele><time>2026-04-20T08:10:49.001Z</time></trkpt><trkpt lat="14.36604960415786" lon="120.91700638248554"><ele>43.0</ele><time>2026-04-20T08:10:50.001Z</time></trkpt><trkpt lat="14.366039755540287" lon="120.91686951415244"><ele>42.5</ele><time>2026-04-20T08:10:51.001Z</time></trkpt><trkpt lat="14.36601685915614" lon="120.91673499884355"><ele>42.0</ele><time>2026-04-20T08:10:52.001Z</time></trkpt><trkpt lat="14.36597998237213" lon="120.9165961000228"><ele>41.5</ele><time>2026-04-20T08:10:53.001Z</time></trkpt><trkpt lat="14.365936040558118" lon="120.91646218041384"><ele>41.0</ele><time>2026-04-20T08:10:54.001Z</time></trkpt><trkpt lat="14.365887714150526" lon="120.91632189583702"><ele>41.0</ele><time>2026-04-20T08:10:55.001Z</time></trkpt><trkpt lat="14.365838578605183" lon="120.91617644246648"><ele>41.0</ele><time>2026-04-20T08:10:56.001Z</time></trkpt><trkpt lat="14.365790586471997" lon="120.91603366273864"><ele>41.0</ele><time>2026-04-20T08:10:57.001Z</time></trkpt><trkpt lat="14.365745962241656" lon="120.91588996644394"><ele>41.0</ele><time>2026-04-20T08:10:58.001Z</time></trkpt><trkpt lat="14.365701117335034" lon="120.91573907182752"><ele>40.75</ele><time>2026-04-20T08:10:59.001Z</time></trkpt><trkpt lat="14.365662624654886" lon="120.91559688479853"><ele>40.5</ele><time>2026-04-20T08:11:00.001Z</time></trkpt><trkpt lat="14.365627162847728" lon="120.91546016085807"><ele>40.25</ele><time>2026-04-20T08:11:01.001Z</time></trkpt><trkpt lat="14.365593006726725" lon="120.91532901435109"><ele>40.0</ele><time>2026-04-20T08:11:02.001Z</time></trkpt><trkpt lat="14.365560339887697" lon="120.91519498715871"><ele>40.25</ele><time>2026-04-20T08:11:03.001Z</time></trkpt><trkpt lat="14.365530872520946" lon="120.91506529085711"><ele>40.5</ele><time>2026-04-20T08:11:04.001Z</time></trkpt><trkpt lat="14.365499917201477" lon="120.91493262000316"><ele>40.75</ele><time>2026-04-20T08:11:05.001Z</time></trkpt><trkpt lat="14.365472360236655" lon="120.91479908200967"><ele>41.0</ele><time>2026-04-20T08:11:06.001Z</time></trkpt><trkpt lat="14.365455835008223" lon="120.91468709030302"><ele>41.0</ele><time>2026-04-20T08:11:07.001Z</time></trkpt><trkpt lat="14.365433559461888" lon="120.91457909674195"><ele>41.0</ele><time>2026-04-20T08:11:08.001Z</time></trkpt><trkpt lat="14.36540070673496" lon="120.91446517907048"><ele>41.0</ele><time>2026-04-20T08:11:09.001Z</time></trkpt><trkpt lat="14.365367751742319" lon="120.91436139733685"><ele>41.0</ele><time>2026-04-20T08:11:10.001Z</time></trkpt><trkpt lat="14.365325864602154" lon="120.91425604635398"><ele>41.0</ele><time>2026-04-20T08:11:11.001Z</time></trkpt><trkpt lat="14.365281850676237" lon="120.91414922140032"><ele>40.75</ele><time>2026-04-20T08:11:12.001Z</time></trkpt><trkpt lat="14.36523516241464" lon="120.91403906990541"><ele>40.5</ele><time>2026-04-20T08:11:13.001Z</time></trkpt><trkpt lat="14.36518641614268" lon="120.91392209764997"><ele>40.25</ele><time>2026-04-20T08:11:14.001Z</time></trkpt><trkpt lat="14.365142761461527" lon="120.91380995816294"><ele>40.0</ele><time>2026-04-20T08:11:15.001Z</time></trkpt><trkpt lat="14.36509005924173" lon="120.91368876775759"><ele>40.0</ele><time>2026-04-20T08:11:16.001Z</time></trkpt><trkpt lat="14.365039689870041" lon="120.9135700277849"><ele>40.0</ele><time>2026-04-20T08:11:17.001Z</time></trkpt><trkpt lat="14.36498286600577" lon="120.91344604840043"><ele>40.0</ele><time>2026-04-20T08:11:18.001Z</time></trkpt><trkpt lat="14.364926297468692" lon="120.91332124932713"><ele>40.0</ele><time>2026-04-20T08:11:19.001Z</time></trkpt><trkpt lat="14.364865934307657" lon="120.91319448170466"><ele>40.0</ele><time>2026-04-20T08:11:20.001Z</time></trkpt><trkpt lat="14.364805097395685" lon="120.9130703422521"><ele>40.0</ele><time>2026-04-20T08:11:21.001Z</time></trkpt><trkpt lat="14.364738699299647" lon="120.9129423755495"><ele>40.0</ele><time>2026-04-20T08:11:22.001Z</time></trkpt><trkpt lat="14.364677708508498" lon="120.91281319448564"><ele>40.0</ele><time>2026-04-20T08:11:23.001Z</time></trkpt><trkpt lat="14.364612628634958" lon="120.91268517249229"><ele>39.75</ele><time>2026-04-20T08:11:24.001Z</time></trkpt><trkpt lat="14.36454947786518" lon="120.91256266750987"><ele>39.5</ele><time>2026-04-20T08:11:25.001Z</time></trkpt><trkpt lat="14.364486707757349" lon="120.91244711536831"><ele>39.25</ele><time>2026-04-20T08:11:26.001Z</time></trkpt><trkpt lat="14.36442930374791" lon="120.91233932160364"><ele>39.0</ele><time>2026-04-20T08:11:27.001Z</time></trkpt><trkpt lat="14.364373582331359" lon="120.91223796842038"><ele>39.0</ele><time>2026-04-20T08:11:28.001Z</time></trkpt><trkpt lat="14.364308067924943" lon="120.91213765886769"><ele>39.0</ele><time>2026-04-20T08:11:29.001Z</time></trkpt><trkpt lat="14.364258176124322" lon="120.9120448789312"><ele>39.0</ele><time>2026-04-20T08:11:30.001Z</time></trkpt><trkpt lat="14.364201430634687" lon="120.9119402995103"><ele>39.0</ele><time>2026-04-20T08:11:31.001Z</time></trkpt><trkpt lat="14.364157899227873" lon="120.9118305584842"><ele>39.75</ele><time>2026-04-20T08:11:32.001Z</time></trkpt><trkpt lat="14.36412406124763" lon="120.9117150900882"><ele>40.5</ele><time>2026-04-20T08:11:33.001Z</time></trkpt><trkpt lat="14.364091693268035" lon="120.91159567933829"><ele>41.25</ele><time>2026-04-20T08:11:34.001Z</time></trkpt><trkpt lat="14.364068268760787" lon="120.91148021988326"><ele>42.0</ele><time>2026-04-20T08:11:35.001Z</time></trkpt><trkpt lat="14.364037475096275" lon="120.91135897423938"><ele>42.0</ele><time>2026-04-20T08:11:36.001Z</time></trkpt><trkpt lat="14.364009576510373" lon="120.91123551276608"><ele>42.0</ele><time>2026-04-20T08:11:37.001Z</time></trkpt><trkpt lat="14.363983130003747" lon="120.91110616355975"><ele>42.0</ele><time>2026-04-20T08:11:38.001Z</time></trkpt><trkpt lat="14.363955523048356" lon="120.9109716954314"><ele>42.0</ele><time>2026-04-20T08:11:39.001Z</time></trkpt><trkpt lat="14.363929015979604" lon="120.91083848468266"><ele>42.0</ele><time>2026-04-20T08:11:40Z</time></trkpt><trkpt lat="14.363903340876515" lon="120.9107053185478"><ele>42.0</ele><time>2026-04-20T08:11:41Z</time></trkpt><trkpt lat="14.363873929320913" lon="120.91056799075022"><ele>42.0</ele><time>2026-04-20T08:11:42Z</time></trkpt><trkpt lat="14.363844062079968" lon="120.91043042067935"><ele>42.0</ele><time>2026-04-20T08:11:43Z</time></trkpt><trkpt lat="14.363813639110553" lon="120.9102887380459"><ele>42.25</ele><time>2026-04-20T08:11:44Z</time></trkpt><trkpt lat="14.363784116785137" lon="120.91014306132722"><ele>42.5</ele><time>2026-04-20T08:11:45Z</time></trkpt><trkpt lat="14.363750905227931" lon="120.91000032170093"><ele>42.75</ele><time>2026-04-20T08:11:46Z</time></trkpt><trkpt lat="14.36370976410459" lon="120.90985451024714"><ele>43.0</ele><time>2026-04-20T08:11:47Z</time></trkpt><trkpt lat="14.363669759568646" lon="120.9097103017659"><ele>43.0</ele><time>2026-04-20T08:11:48Z</time></trkpt><trkpt lat="14.3636294425167" lon="120.90956521600866"><ele>43.0</ele><time>2026-04-20T08:11:49Z</time></trkpt><trkpt lat="14.363590552792614" lon="120.90942285459337"><ele>43.0</ele><time>2026-04-20T08:11:50Z</time></trkpt><trkpt lat="14.363550105655445" lon="120.90928145971823"><ele>43.0</ele><time>2026-04-20T08:11:51Z</time></trkpt><trkpt lat="14.363511321944701" lon="120.90914704716884"><ele>42.25</ele><time>2026-04-20T08:11:52Z</time></trkpt><trkpt lat="14.363468097115156" lon="120.90901446075011"><ele>41.5</ele><time>2026-04-20T08:11:53Z</time></trkpt><trkpt lat="14.363428027844169" lon="120.90889388230954"><ele>40.75</ele><time>2026-04-20T08:11:54Z</time></trkpt><trkpt lat="14.363390537116812" lon="120.90877588583201"><ele>40.0</ele><time>2026-04-20T08:11:55Z</time></trkpt><trkpt lat="14.363351058041456" lon="120.90865726483771"><ele>40.0</ele><time>2026-04-20T08:11:56Z</time></trkpt><trkpt lat="14.363315892591064" lon="120.90853866552298"><ele>40.0</ele><time>2026-04-20T08:11:57Z</time></trkpt><trkpt lat="14.363278351647658" lon="120.90841592597573"><ele>40.0</ele><time>2026-04-20T08:11:58Z</time></trkpt><trkpt lat="14.363248021456833" lon="120.9083073594594"><ele>40.0</ele><time>2026-04-20T08:11:59Z</time></trkpt><trkpt lat="14.363218101963064" lon="120.90820550973537"><ele>40.2</ele><time>2026-04-20T08:12:00Z</time></trkpt><trkpt lat="14.363195375885141" lon="120.90812223579837"><ele>40.4</ele><time>2026-04-20T08:12:01Z</time></trkpt><trkpt lat="14.36316890787849" lon="120.90803990018149"><ele>40.599999999999994</ele><time>2026-04-20T08:12:02Z</time></trkpt><trkpt lat="14.363134742955639" lon="120.90795378308343"><ele>40.8</ele><time>2026-04-20T08:12:03Z</time></trkpt><trkpt lat="14.363087331861156" lon="120.90784459257058"><ele>41.0</ele><time>2026-04-20T08:12:04Z</time></trkpt><trkpt lat="14.363041031248418" lon="120.90773858654967"><ele>41.0</ele><time>2026-04-20T08:12:05Z</time></trkpt><trkpt lat="14.362988489678573" lon="120.90762229775622"><ele>41.0</ele><time>2026-04-20T08:12:06Z</time></trkpt><trkpt lat="14.362938796586871" lon="120.9075046343889"><ele>41.0</ele><time>2026-04-20T08:12:07Z</time></trkpt><trkpt lat="14.362890701105629" lon="120.90738995026487"><ele>41.0</ele><time>2026-04-20T08:12:08Z</time></trkpt><trkpt lat="14.362841643675422" lon="120.90727380355136"><ele>40.5</ele><time>2026-04-20T08:12:09Z</time></trkpt><trkpt lat="14.362788548027199" lon="120.90715467114543"><ele>40.0</ele><time>2026-04-20T08:12:10Z</time></trkpt><trkpt lat="14.362735994404575" lon="120.90704177553386"><ele>39.5</ele><time>2026-04-20T08:12:11Z</time></trkpt><trkpt lat="14.362680556052682" lon="120.9069288350132"><ele>39.0</ele><time>2026-04-20T08:12:12Z</time></trkpt><trkpt lat="14.36261676935616" lon="120.90680435530905"><ele>38.75</ele><time>2026-04-20T08:12:13Z</time></trkpt><trkpt lat="14.362560825271597" lon="120.9066870412316"><ele>38.5</ele><time>2026-04-20T08:12:14Z</time></trkpt><trkpt lat="14.36250757077886" lon="120.90657630032109"><ele>38.25</ele><time>2026-04-20T08:12:15Z</time></trkpt><trkpt lat="14.362454158424624" lon="120.9064631822412"><ele>38.0</ele><time>2026-04-20T08:12:16Z</time></trkpt><trkpt lat="14.362396385570383" lon="120.90635439952543"><ele>38.0</ele><time>2026-04-20T08:12:17Z</time></trkpt><trkpt lat="14.362341919742972" lon="120.90624570525513"><ele>38.0</ele><time>2026-04-20T08:12:18Z</time></trkpt><trkpt lat="14.362288057022964" lon="120.90613606530337"><ele>38.0</ele><time>2026-04-20T08:12:19Z</time></trkpt><trkpt lat="14.362229612915568" lon="120.90602538158083"><ele>38.0</ele><time>2026-04-20T08:12:20Z</time></trkpt><trkpt lat="14.362171398222841" lon="120.90592878256398"><ele>39.0</ele><time>2026-04-20T08:12:21Z</time></trkpt><trkpt lat="14.362108190064482" lon="120.90583901291559"><ele>40.0</ele><time>2026-04-20T08:12:22Z</time></trkpt><trkpt lat="14.362040141289219" lon="120.90575512096218"><ele>41.0</ele><time>2026-04-20T08:12:23Z</time></trkpt><trkpt lat="14.361967293065826" lon="120.90566723850344"><ele>42.0</ele><time>2026-04-20T08:12:24Z</time></trkpt><trkpt lat="14.361896701641127" lon="120.90558005787543"><ele>43.0</ele><time>2026-04-20T08:12:25Z</time></trkpt><trkpt lat="14.3618261441006" lon="120.90549095486163"><ele>43.0</ele><time>2026-04-20T08:12:26Z</time></trkpt><trkpt lat="14.36175756629129" lon="120.90539868878169"><ele>43.0</ele><time>2026-04-20T08:12:27Z</time></trkpt><trkpt lat="14.361680894186987" lon="120.90530348087061"><ele>43.0</ele><time>2026-04-20T08:12:28Z</time></trkpt><trkpt lat="14.361605895733929" lon="120.90520612635187"><ele>43.0</ele><time>2026-04-20T08:12:29Z</time></trkpt><trkpt lat="14.361547784032267" lon="120.90511112040454"><ele>42.75</ele><time>2026-04-20T08:12:30Z</time></trkpt><trkpt lat="14.361492304839688" lon="120.90500049996753"><ele>42.5</ele><time>2026-04-20T08:12:31Z</time></trkpt><trkpt lat="14.361461868466144" lon="120.90489781266875"><ele>42.25</ele><time>2026-04-20T08:12:32Z</time></trkpt><trkpt lat="14.361432656104686" lon="120.90477820502143"><ele>42.0</ele><time>2026-04-20T08:12:33Z</time></trkpt><trkpt lat="14.361414766052812" lon="120.90465926830746"><ele>42.0</ele><time>2026-04-20T08:12:34Z</time></trkpt><trkpt lat="14.361399771417513" lon="120.90454732267483"><ele>42.0</ele><time>2026-04-20T08:12:35Z</time></trkpt><trkpt lat="14.361379865796714" lon="120.90443040635013"><ele>42.0</ele><time>2026-04-20T08:12:36Z</time></trkpt><trkpt lat="14.361355581065352" lon="120.90432062637683"><ele>42.0</ele><time>2026-04-20T08:12:37Z</time></trkpt><trkpt lat="14.361319704518259" lon="120.90421288573748"><ele>42.0</ele><time>2026-04-20T08:12:38Z</time></trkpt><trkpt lat="14.361264827164565" lon="120.90410522302325"><ele>41.75</ele><time>2026-04-20T08:12:39Z</time></trkpt><trkpt lat="14.361197127267037" lon="120.90400099063032"><ele>41.5</ele><time>2026-04-20T08:12:40Z</time></trkpt><trkpt lat="14.361115424781469" lon="120.90389788389793"><ele>41.25</ele><time>2026-04-20T08:12:41Z</time></trkpt><trkpt lat="14.361021162675863" lon="120.90379354134346"><ele>41.0</ele><time>2026-04-20T08:12:42Z</time></trkpt><trkpt lat="14.36093169641508" lon="120.90368987323355"><ele>41.0</ele><time>2026-04-20T08:12:43Z</time></trkpt><trkpt lat="14.360838559336786" lon="120.90358038787116"><ele>41.0</ele><time>2026-04-20T08:12:44Z</time></trkpt><trkpt lat="14.360747746014834" lon="120.90347309010394"><ele>41.0</ele><time>2026-04-20T08:12:45Z</time></trkpt><trkpt lat="14.36066755445116" lon="120.90337790952839"><ele>41.0</ele><time>2026-04-20T08:12:46Z</time></trkpt><trkpt lat="14.360584691150871" lon="120.90328098848997"><ele>41.0</ele><time>2026-04-20T08:12:47Z</time></trkpt><trkpt lat="14.360504832714208" lon="120.9031898907052"><ele>41.0</ele><time>2026-04-20T08:12:48Z</time></trkpt><trkpt lat="14.360421038992985" lon="120.90309268951506"><ele>41.0</ele><time>2026-04-20T08:12:49Z</time></trkpt><trkpt lat="14.360338773310865" lon="120.90298634350363"><ele>41.0</ele><time>2026-04-20T08:12:50Z</time></trkpt><trkpt lat="14.360270793917172" lon="120.90287368157365"><ele>41.0</ele><time>2026-04-20T08:12:51Z</time></trkpt><trkpt lat="14.360199604449168" lon="120.90275219987466"><ele>41.0</ele><time>2026-04-20T08:12:52Z</time></trkpt><trkpt lat="14.360146851450674" lon="120.90263579309978"><ele>41.0</ele><time>2026-04-20T08:12:53Z</time></trkpt><trkpt lat="14.360086464655112" lon="120.90251888687874"><ele>41.0</ele><time>2026-04-20T08:12:54Z</time></trkpt><trkpt lat="14.360023728850138" lon="120.90241230871935"><ele>40.25</ele><time>2026-04-20T08:12:55Z</time></trkpt><trkpt lat="14.359947692091655" lon="120.90232013549657"><ele>39.5</ele><time>2026-04-20T08:12:56.001Z</time></trkpt><trkpt lat="14.35986587061679" lon="120.90224476359434"><ele>38.75</ele><time>2026-04-20T08:12:57.001Z</time></trkpt><trkpt lat="14.359762492361506" lon="120.9021764398959"><ele>38.0</ele><time>2026-04-20T08:12:58.001Z</time></trkpt><trkpt lat="14.359660996619803" lon="120.90211761998881"><ele>37.75</ele><time>2026-04-20T08:12:59.001Z</time></trkpt><trkpt lat="14.359555865092474" lon="120.90205632970185"><ele>37.5</ele><time>2026-04-20T08:13:00.001Z</time></trkpt><trkpt lat="14.35944967540451" lon="120.9019934781378"><ele>37.25</ele><time>2026-04-20T08:13:01.001Z</time></trkpt><trkpt lat="14.359347596825035" lon="120.90193364686019"><ele>37.0</ele><time>2026-04-20T08:13:02.001Z</time></trkpt><trkpt lat="14.35925096252903" lon="120.90187326247646"><ele>37.0</ele><time>2026-04-20T08:13:03.001Z</time></trkpt><trkpt lat="14.35915962899572" lon="120.90181650859348"><ele>37.0</ele><time>2026-04-20T08:13:04.001Z</time></trkpt><trkpt lat="14.359075165957396" lon="120.90176627080871"><ele>37.0</ele><time>2026-04-20T08:13:05.001Z</time></trkpt><trkpt lat="14.358986017612816" lon="120.90170937898414"><ele>37.0</ele><time>2026-04-20T08:13:06.001Z</time></trkpt><trkpt lat="14.358902062414977" lon="120.90165442745933"><ele>37.0</ele><time>2026-04-20T08:13:07.001Z</time></trkpt><trkpt lat="14.358830606066318" lon="120.90161302253402"><ele>37.5</ele><time>2026-04-20T08:13:08.001Z</time></trkpt><trkpt lat="14.35876760771946" lon="120.90157697828232"><ele>38.0</ele><time>2026-04-20T08:13:09.001Z</time></trkpt><trkpt lat="14.358688301615146" lon="120.90152584699683"><ele>38.5</ele><time>2026-04-20T08:13:11.001Z</time></trkpt><trkpt lat="14.35861859812942" lon="120.90148266259948"><ele>39.0</ele><time>2026-04-20T08:13:13.001Z</time></trkpt><trkpt lat="14.358514032757512" lon="120.90141972350683"><ele>39.5</ele><time>2026-04-20T08:13:15.001Z</time></trkpt><trkpt lat="14.358452840179366" lon="120.9013812399027"><ele>40.0</ele><time>2026-04-20T08:13:16.001Z</time></trkpt><trkpt lat="14.358383590544767" lon="120.9013362493987"><ele>40.0</ele><time>2026-04-20T08:13:17.001Z</time></trkpt><trkpt lat="14.35831105545864" lon="120.90128909574909"><ele>40.0</ele><time>2026-04-20T08:13:18.001Z</time></trkpt><trkpt lat="14.358235865264783" lon="120.90124132560182"><ele>40.0</ele><time>2026-04-20T08:13:19.001Z</time></trkpt><trkpt lat="14.358155442215718" lon="120.90119258064486"><ele>40.0</ele><time>2026-04-20T08:13:20.001Z</time></trkpt><trkpt lat="14.35808230456133" lon="120.9011475323719"><ele>40.0</ele><time>2026-04-20T08:13:21.001Z</time></trkpt><trkpt lat="14.358029142056866" lon="120.90111046818113"><ele>40.0</ele><time>2026-04-20T08:13:22.001Z</time></trkpt><trkpt lat="14.35798083959445" lon="120.90106155893842"><ele>40.16666666666667</ele><time>2026-04-20T08:13:29.001Z</time></trkpt><trkpt lat="14.35791882994848" lon="120.90103532097967"><ele>40.333333333333336</ele><time>2026-04-20T08:13:38.001Z</time></trkpt><trkpt lat="14.357844078239697" lon="120.900994288098"><ele>40.5</ele><time>2026-04-20T08:13:40.001Z</time></trkpt><trkpt lat="14.357773755036948" lon="120.90094186798194"><ele>40.666666666666664</ele><time>2026-04-20T08:13:42.001Z</time></trkpt><trkpt lat="14.357710743266928" lon="120.90090040070301"><ele>40.83333333333333</ele><time>2026-04-20T08:13:51Z</time></trkpt><trkpt lat="14.357650821704532" lon="120.90083965653692"><ele>41.0</ele><time>2026-04-20T08:13:53Z</time></trkpt><trkpt lat="14.357600131814767" lon="120.9007862032522"><ele>41.0</ele><time>2026-04-20T08:13:54Z</time></trkpt><trkpt lat="14.357547851204195" lon="120.90072808366772"><ele>41.0</ele><time>2026-04-20T08:13:55Z</time></trkpt><trkpt lat="14.35749891775799" lon="120.90066654769181"><ele>41.0</ele><time>2026-04-20T08:13:56Z</time></trkpt><trkpt lat="14.357456589939313" lon="120.90061224822406"><ele>41.0</ele><time>2026-04-20T08:13:57Z</time></trkpt><trkpt lat="14.357398175122555" lon="120.90053146478625"><ele>41.0</ele><time>2026-04-20T08:13:59Z</time></trkpt><trkpt lat="14.35735132699022" lon="120.90047985074897"><ele>41.0</ele><time>2026-04-20T08:14:02Z</time></trkpt><trkpt lat="14.357295041420803" lon="120.90041923109133"><ele>41.0</ele><time>2026-04-20T08:14:06Z</time></trkpt><trkpt lat="14.357227619218756" lon="120.90035989981679"><ele>41.0</ele><time>2026-04-20T08:14:13Z</time></trkpt><trkpt lat="14.357136008015823" lon="120.90027882611055"><ele>41.0</ele><time>2026-04-20T08:14:15Z</time></trkpt><trkpt lat="14.357086169181335" lon="120.90022971532107"><ele>41.0</ele><time>2026-04-20T08:14:16Z</time></trkpt><trkpt lat="14.357011339682662" lon="120.90016027486523"><ele>41.0</ele><time>2026-04-20T08:14:18Z</time></trkpt><trkpt lat="14.356950582620634" lon="120.90010208254428"><ele>40.666666666666664</ele><time>2026-04-20T08:14:21Z</time></trkpt><trkpt lat="14.3568837800648" lon="120.90005795788797"><ele>40.33333333333333</ele><time>2026-04-20T08:14:28Z</time></trkpt><trkpt lat="14.356803844438701" lon="120.90000369002915"><ele>40.0</ele><time>2026-04-20T08:14:30Z</time></trkpt><trkpt lat="14.356753720414071" lon="120.89995234792971"><ele>39.666666666666664</ele><time>2026-04-20T08:14:33Z</time></trkpt><trkpt lat="14.35669554360115" lon="120.89989314745537"><ele>39.333333333333336</ele><time>2026-04-20T08:14:36Z</time></trkpt><trkpt lat="14.356644104314732" lon="120.89985005204599"><ele>39.0</ele><time>2026-04-20T08:14:39Z</time></trkpt><trkpt lat="14.356583894506569" lon="120.89979078486387"><ele>39.0</ele><time>2026-04-20T08:14:48Z</time></trkpt><trkpt lat="14.356524723041819" lon="120.89973461569862"><ele>39.0</ele><time>2026-04-20T08:14:51Z</time></trkpt><trkpt lat="14.356451404889933" lon="120.89967977154286"><ele>39.0</ele><time>2026-04-20T08:14:55Z</time></trkpt><trkpt lat="14.356390839779264" lon="120.89963371282886"><ele>39.0</ele><time>2026-04-20T08:14:57Z</time></trkpt><trkpt lat="14.356338487172032" lon="120.89958660249586"><ele>39.0</ele><time>2026-04-20T08:14:59Z</time></trkpt><trkpt lat="14.356282581898109" lon="120.89954567294885"><ele>39.0</ele><time>2026-04-20T08:15:01.001Z</time></trkpt><trkpt lat="14.356224799156184" lon="120.89949726938544"><ele>39.0</ele><time>2026-04-20T08:15:03.001Z</time></trkpt><trkpt lat="14.356170665679958" lon="120.89944921766799"><ele>39.0</ele><time>2026-04-20T08:15:06.001Z</time></trkpt><trkpt lat="14.356115523944297" lon="120.89939349268205"><ele>39.0</ele><time>2026-04-20T08:15:11.001Z</time></trkpt><trkpt lat="14.356058527018936" lon="120.89935168937224"><ele>39.0</ele><time>2026-04-20T08:15:15.001Z</time></trkpt><trkpt lat="14.355996040198571" lon="120.89929538192382"><ele>39.0</ele><time>2026-04-20T08:15:28.001Z</time></trkpt><trkpt lat="14.355949129213094" lon="120.89923534575084"><ele>39.0</ele><time>2026-04-20T08:15:31.001Z</time></trkpt><trkpt lat="14.355887810846253" lon="120.89919259314128"><ele>39.0</ele><time>2026-04-20T08:15:34.001Z</time></trkpt><trkpt lat="14.355785378895119" lon="120.89920979017012"><ele>39.0</ele><time>2026-04-20T08:15:37.001Z</time></trkpt><trkpt lat="14.355675566363402" lon="120.89928155393433"><ele>39.0</ele><time>2026-04-20T08:15:39.001Z</time></trkpt><trkpt lat="14.355604536034985" lon="120.8993249409522"><ele>39.0</ele><time>2026-04-20T08:15:40.001Z</time></trkpt><trkpt lat="14.355526653825246" lon="120.89936823754742"><ele>39.0</ele><time>2026-04-20T08:15:41.001Z</time></trkpt><trkpt lat="14.355446175114533" lon="120.89941658017288"><ele>39.6</ele><time>2026-04-20T08:15:42.001Z</time></trkpt><trkpt lat="14.355358077422691" lon="120.89947227957026"><ele>40.2</ele><time>2026-04-20T08:15:43.001Z</time></trkpt><trkpt lat="14.355259385808548" lon="120.89953384291134"><ele>40.800000000000004</ele><time>2026-04-20T08:15:44.001Z</time></trkpt><trkpt lat="14.355177982294242" lon="120.89958288693435"><ele>41.4</ele><time>2026-04-20T08:15:45.001Z</time></trkpt><trkpt lat="14.35507989296887" lon="120.8996419295689"><ele>42.0</ele><time>2026-04-20T08:15:46.001Z</time></trkpt><trkpt lat="14.354988767765148" lon="120.8996924530212"><ele>42.0</ele><time>2026-04-20T08:15:47.001Z</time></trkpt><trkpt lat="14.354893873236005" lon="120.89975087822427"><ele>42.0</ele><time>2026-04-20T08:15:48.001Z</time></trkpt><trkpt lat="14.354797530758376" lon="120.89981115179273"><ele>42.0</ele><time>2026-04-20T08:15:49.001Z</time></trkpt><trkpt lat="14.354700528935318" lon="120.89986946354219"><ele>42.0</ele><time>2026-04-20T08:15:50.001Z</time></trkpt><trkpt lat="14.35460445723724" lon="120.8999251395359"><ele>42.0</ele><time>2026-04-20T08:15:51Z</time></trkpt><trkpt lat="14.354507116425898" lon="120.89997821614185"><ele>42.0</ele><time>2026-04-20T08:15:52Z</time></trkpt><trkpt lat="14.354410467350457" lon="120.90003711648383"><ele>42.0</ele><time>2026-04-20T08:15:53Z</time></trkpt><trkpt lat="14.35432405448345" lon="120.90007818517188"><ele>42.0</ele><time>2026-04-20T08:15:54Z</time></trkpt><trkpt lat="14.35423654248225" lon="120.90012821868982"><ele>42.0</ele><time>2026-04-20T08:15:55Z</time></trkpt><trkpt lat="14.354146218433277" lon="120.90017852353284"><ele>42.0</ele><time>2026-04-20T08:15:56Z</time></trkpt><trkpt lat="14.354057287640432" lon="120.90022393174694"><ele>41.8</ele><time>2026-04-20T08:15:57Z</time></trkpt><trkpt lat="14.353969711250034" lon="120.90027618101617"><ele>41.6</ele><time>2026-04-20T08:15:58Z</time></trkpt><trkpt lat="14.353880110751167" lon="120.9003168833691"><ele>41.4</ele><time>2026-04-20T08:15:59Z</time></trkpt><trkpt lat="14.353792888009657" lon="120.90037400924179"><ele>41.199999999999996</ele><time>2026-04-20T08:16:00Z</time></trkpt><trkpt lat="14.353704739762586" lon="120.9004265273063"><ele>41.0</ele><time>2026-04-20T08:16:01Z</time></trkpt><trkpt lat="14.353618596800578" lon="120.90047739332196"><ele>41.0</ele><time>2026-04-20T08:16:02Z</time></trkpt><trkpt lat="14.35354187334325" lon="120.90052839156947"><ele>41.0</ele><time>2026-04-20T08:16:03Z</time></trkpt><trkpt lat="14.353467624851946" lon="120.9005696184129"><ele>41.0</ele><time>2026-04-20T08:16:04Z</time></trkpt><trkpt lat="14.353394125822787" lon="120.90061375352126"><ele>41.0</ele><time>2026-04-20T08:16:05Z</time></trkpt><trkpt lat="14.353320206767362" lon="120.9006466131913"><ele>41.0</ele><time>2026-04-20T08:16:06Z</time></trkpt><trkpt lat="14.353264163255" lon="120.9006876521426"><ele>41.0</ele><time>2026-04-20T08:16:07Z</time></trkpt><trkpt lat="14.353191619846436" lon="120.90073576113892"><ele>41.0</ele><time>2026-04-20T08:16:09Z</time></trkpt><trkpt lat="14.353123204288579" lon="120.9007806474375"><ele>41.0</ele><time>2026-04-20T08:16:11Z</time></trkpt><trkpt lat="14.353022797147748" lon="120.90083388721177"><ele>41.0</ele><time>2026-04-20T08:16:13Z</time></trkpt><trkpt lat="14.352921807357728" lon="120.9008844902041"><ele>41.0</ele><time>2026-04-20T08:16:15Z</time></trkpt><trkpt lat="14.352863705766469" lon="120.90092072438439"><ele>41.0</ele><time>2026-04-20T08:16:16Z</time></trkpt><trkpt lat="14.352804239617507" lon="120.90095895795801"><ele>41.0</ele><time>2026-04-20T08:16:17Z</time></trkpt><trkpt lat="14.35273914930796" lon="120.90099989934579"><ele>41.5</ele><time>2026-04-20T08:16:18Z</time></trkpt><trkpt lat="14.352672263644111" lon="120.90103156521552"><ele>42.0</ele><time>2026-04-20T08:16:19Z</time></trkpt><trkpt lat="14.352598676007451" lon="120.901074057181"><ele>42.5</ele><time>2026-04-20T08:16:20Z</time></trkpt><trkpt lat="14.352520698766297" lon="120.9011258588712"><ele>43.0</ele><time>2026-04-20T08:16:21Z</time></trkpt><trkpt lat="14.352440116231385" lon="120.90116146412511"><ele>43.5</ele><time>2026-04-20T08:16:22Z</time></trkpt><trkpt lat="14.352358185839526" lon="120.90120970778065"><ele>44.0</ele><time>2026-04-20T08:16:23Z</time></trkpt><trkpt lat="14.352272524095731" lon="120.90126764798032"><ele>43.800000000000004</ele><time>2026-04-20T08:16:24Z</time></trkpt><trkpt lat="14.352186335588817" lon="120.9013168871128"><ele>43.6</ele><time>2026-04-20T08:16:25Z</time></trkpt><trkpt lat="14.35209972701553" lon="120.90136839280974"><ele>43.4</ele><time>2026-04-20T08:16:26Z</time></trkpt><trkpt lat="14.35201727541302" lon="120.9014171980829"><ele>43.2</ele><time>2026-04-20T08:16:27Z</time></trkpt><trkpt lat="14.35194505163796" lon="120.90146882305017"><ele>43.0</ele><time>2026-04-20T08:16:28Z</time></trkpt><trkpt lat="14.351869004696448" lon="120.90150770625259"><ele>43.0</ele><time>2026-04-20T08:16:29Z</time></trkpt><trkpt lat="14.35180483068505" lon="120.90154296178088"><ele>43.0</ele><time>2026-04-20T08:16:30Z</time></trkpt><trkpt lat="14.351719375281803" lon="120.90159247742751"><ele>43.0</ele><time>2026-04-20T08:16:32Z</time></trkpt><trkpt lat="14.351657798976113" lon="120.90162439382765"><ele>43.0</ele><time>2026-04-20T08:16:34Z</time></trkpt><trkpt lat="14.35159876304869" lon="120.90167171440618"><ele>43.0</ele><time>2026-04-20T08:16:38Z</time></trkpt><trkpt lat="14.351546431913933" lon="120.90171759287871"><ele>43.0</ele><time>2026-04-20T08:16:44Z</time></trkpt><trkpt lat="14.351463855556386" lon="120.9017477946924"><ele>43.0</ele><time>2026-04-20T08:16:47Z</time></trkpt><trkpt lat="14.351402583165086" lon="120.90177220694245"><ele>43.0</ele><time>2026-04-20T08:16:48Z</time></trkpt><trkpt lat="14.35133291696079" lon="120.90181608754312"><ele>43.0</ele><time>2026-04-20T08:16:49Z</time></trkpt><trkpt lat="14.351254010730642" lon="120.90187454833381"><ele>43.0</ele><time>2026-04-20T08:16:50Z</time></trkpt><trkpt lat="14.351164292479396" lon="120.9019410055734"><ele>43.0</ele><time>2026-04-20T08:16:51Z</time></trkpt><trkpt lat="14.35107033767038" lon="120.90200025972595"><ele>43.75</ele><time>2026-04-20T08:16:52Z</time></trkpt><trkpt lat="14.350960354629017" lon="120.90206566204915"><ele>44.5</ele><time>2026-04-20T08:16:53Z</time></trkpt><trkpt lat="14.350853453517587" lon="120.90213116687973"><ele>45.25</ele><time>2026-04-20T08:16:54Z</time></trkpt><trkpt lat="14.350741374116" lon="120.90220099704565"><ele>46.0</ele><time>2026-04-20T08:16:55Z</time></trkpt><trkpt lat="14.350626390562482" lon="120.9022726460153"><ele>46.5</ele><time>2026-04-20T08:16:56Z</time></trkpt><trkpt lat="14.350507877701718" lon="120.90234733999715"><ele>47.0</ele><time>2026-04-20T08:16:57Z</time></trkpt><trkpt lat="14.350386789525075" lon="120.90242349263967"><ele>47.5</ele><time>2026-04-20T08:16:58Z</time></trkpt><trkpt lat="14.350269944619413" lon="120.90249629164435"><ele>48.0</ele><time>2026-04-20T08:16:59Z</time></trkpt><trkpt lat="14.350147409182778" lon="120.90257432981409"><ele>48.25</ele><time>2026-04-20T08:17:00Z</time></trkpt><trkpt lat="14.350028730244153" lon="120.90264961808991"><ele>48.5</ele><time>2026-04-20T08:17:01Z</time></trkpt><trkpt lat="14.349914205593244" lon="120.9027242972626"><ele>48.75</ele><time>2026-04-20T08:17:02Z</time></trkpt><trkpt lat="14.349797328452354" lon="120.90280090387674"><ele>49.0</ele><time>2026-04-20T08:17:03Z</time></trkpt><trkpt lat="14.34967487678438" lon="120.9028788734257"><ele>48.5</ele><time>2026-04-20T08:17:04Z</time></trkpt><trkpt lat="14.349565722632518" lon="120.90294953157832"><ele>48.0</ele><time>2026-04-20T08:17:05Z</time></trkpt><trkpt lat="14.349447358253954" lon="120.9030195602337"><ele>47.5</ele><time>2026-04-20T08:17:06Z</time></trkpt><trkpt lat="14.34933091707005" lon="120.90308536002955"><ele>47.0</ele><time>2026-04-20T08:17:07Z</time></trkpt><trkpt lat="14.34921722933027" lon="120.90314899872828"><ele>47.0</ele><time>2026-04-20T08:17:08Z</time></trkpt><trkpt lat="14.34910227634008" lon="120.90320842316521"><ele>47.0</ele><time>2026-04-20T08:17:09Z</time></trkpt><trkpt lat="14.348991361356251" lon="120.90327254735126"><ele>47.0</ele><time>2026-04-20T08:17:10Z</time></trkpt><trkpt lat="14.34887408762551" lon="120.90334157217745"><ele>47.0</ele><time>2026-04-20T08:17:11.001Z</time></trkpt><trkpt lat="14.348762275128149" lon="120.90340423955237"><ele>47.25</ele><time>2026-04-20T08:17:12.001Z</time></trkpt><trkpt lat="14.348642333860326" lon="120.90346675804962"><ele>47.5</ele><time>2026-04-20T08:17:13.001Z</time></trkpt><trkpt lat="14.348533405064044" lon="120.9035329324606"><ele>47.75</ele><time>2026-04-20T08:17:14.001Z</time></trkpt><trkpt lat="14.34842708861496" lon="120.9035975714825"><ele>48.0</ele><time>2026-04-20T08:17:15.001Z</time></trkpt><trkpt lat="14.348317968301306" lon="120.90365910839827"><ele>48.0</ele><time>2026-04-20T08:17:16.001Z</time></trkpt><trkpt lat="14.348211099062848" lon="120.90371983478414"><ele>48.0</ele><time>2026-04-20T08:17:17.001Z</time></trkpt><trkpt lat="14.348108980911823" lon="120.9037802598716"><ele>48.0</ele><time>2026-04-20T08:17:18.001Z</time></trkpt><trkpt lat="14.348017913056132" lon="120.9038456207899"><ele>48.0</ele><time>2026-04-20T08:17:19.001Z</time></trkpt><trkpt lat="14.347927505938353" lon="120.90390256287083"><ele>48.166666666666664</ele><time>2026-04-20T08:17:20.001Z</time></trkpt><trkpt lat="14.347843512090524" lon="120.90395605230222"><ele>48.33333333333333</ele><time>2026-04-20T08:17:21.001Z</time></trkpt><trkpt lat="14.347763835861844" lon="120.9040043210267"><ele>48.5</ele><time>2026-04-20T08:17:22.001Z</time></trkpt><trkpt lat="14.347693571527765" lon="120.90405172394789"><ele>48.666666666666664</ele><time>2026-04-20T08:17:23.001Z</time></trkpt><trkpt lat="14.347628379280003" lon="120.9040956404169"><ele>48.83333333333333</ele><time>2026-04-20T08:17:24.001Z</time></trkpt><trkpt lat="14.347569636302858" lon="120.90413350955569"><ele>49.0</ele><time>2026-04-20T08:17:25.001Z</time></trkpt><trkpt lat="14.347470303762059" lon="120.9041981294011"><ele>49.166666666666664</ele><time>2026-04-20T08:17:27.001Z</time></trkpt><trkpt lat="14.34738149110195" lon="120.90425191576153"><ele>49.33333333333333</ele><time>2026-04-20T08:17:29.001Z</time></trkpt><trkpt lat="14.347319942819118" lon="120.90429959933506"><ele>49.5</ele><time>2026-04-20T08:17:31.001Z</time></trkpt><trkpt lat="14.347262442072221" lon="120.90433361412019"><ele>49.66666666666667</ele><time>2026-04-20T08:17:33.001Z</time></trkpt><trkpt lat="14.347179473797556" lon="120.90438173685901"><ele>49.833333333333336</ele><time>2026-04-20T08:17:36.001Z</time></trkpt><trkpt lat="14.347115629788895" lon="120.90441884214223"><ele>50.0</ele><time>2026-04-20T08:17:38.001Z</time></trkpt><trkpt lat="14.347042182580664" lon="120.9044729006462"><ele>50.16666666666667</ele><time>2026-04-20T08:17:40.001Z</time></trkpt><trkpt lat="14.346937834583096" lon="120.90453486237891"><ele>50.333333333333336</ele><time>2026-04-20T08:17:42.001Z</time></trkpt><trkpt lat="14.346881677956594" lon="120.90457124290297"><ele>50.5</ele><time>2026-04-20T08:17:43.001Z</time></trkpt><trkpt lat="14.346822532854945" lon="120.90460724565799"><ele>50.66666666666667</ele><time>2026-04-20T08:17:44.001Z</time></trkpt><trkpt lat="14.346726120711065" lon="120.90465694105687"><ele>50.833333333333336</ele><time>2026-04-20T08:17:46.001Z</time></trkpt><trkpt lat="14.346656286569962" lon="120.90469693985075"><ele>51.0</ele><time>2026-04-20T08:17:48.001Z</time></trkpt><trkpt lat="14.346572234741702" lon="120.90474567318445"><ele>51.0</ele><time>2026-04-20T08:17:50.001Z</time></trkpt><trkpt lat="14.34647420538419" lon="120.9047991510931"><ele>51.0</ele><time>2026-04-20T08:17:52.001Z</time></trkpt><trkpt lat="14.346372552392005" lon="120.90485613290363"><ele>51.0</ele><time>2026-04-20T08:17:54.001Z</time></trkpt><trkpt lat="14.346270481600968" lon="120.90491618118837"><ele>51.0</ele><time>2026-04-20T08:17:56Z</time></trkpt><trkpt lat="14.346180015474895" lon="120.9049603108588"><ele>51.0</ele><time>2026-04-20T08:17:58Z</time></trkpt><trkpt lat="14.346077138584402" lon="120.90501343738646"><ele>51.0</ele><time>2026-04-20T08:18:00Z</time></trkpt><trkpt lat="14.345974261111753" lon="120.90506134223656"><ele>51.0</ele><time>2026-04-20T08:18:02Z</time></trkpt><trkpt lat="14.34588567637887" lon="120.90507852077516"><ele>51.0</ele><time>2026-04-20T08:18:05Z</time></trkpt><trkpt lat="14.3457776287273" lon="120.90512933302902"><ele>51.0</ele><time>2026-04-20T08:18:07Z</time></trkpt><trkpt lat="14.345709218683748" lon="120.90516036451176"><ele>51.0</ele><time>2026-04-20T08:18:08Z</time></trkpt><trkpt lat="14.345645081453657" lon="120.90519289018961"><ele>51.0</ele><time>2026-04-20T08:18:09Z</time></trkpt><trkpt lat="14.345587990726722" lon="120.90522556402597"><ele>51.0</ele><time>2026-04-20T08:18:10Z</time></trkpt><trkpt lat="14.3454923183875" lon="120.90527212714528"><ele>51.0</ele><time>2026-04-20T08:18:12Z</time></trkpt><trkpt lat="14.345401944076404" lon="120.90532703866891"><ele>51.0</ele><time>2026-04-20T08:18:14Z</time></trkpt><trkpt lat="14.345341643457806" lon="120.90536075799639"><ele>51.0</ele><time>2026-04-20T08:18:15Z</time></trkpt><trkpt lat="14.345271996532047" lon="120.90539113004859"><ele>51.0</ele><time>2026-04-20T08:18:16Z</time></trkpt><trkpt lat="14.345188125543928" lon="120.90542998682915"><ele>51.0</ele><time>2026-04-20T08:18:17Z</time></trkpt><trkpt lat="14.345099093326366" lon="120.90547391494012"><ele>51.0</ele><time>2026-04-20T08:18:18Z</time></trkpt><trkpt lat="14.344999513396417" lon="120.90552416589478"><ele>51.0</ele><time>2026-04-20T08:18:19Z</time></trkpt><trkpt lat="14.344900314449225" lon="120.90557603554201"><ele>51.0</ele><time>2026-04-20T08:18:20Z</time></trkpt><trkpt lat="14.344805441058904" lon="120.90562143224241"><ele>51.0</ele><time>2026-04-20T08:18:21Z</time></trkpt><trkpt lat="14.34469543928331" lon="120.9056801833559"><ele>51.0</ele><time>2026-04-20T08:18:22Z</time></trkpt><trkpt lat="14.344586296926565" lon="120.9057340599286"><ele>51.0</ele><time>2026-04-20T08:18:23Z</time></trkpt><trkpt lat="14.344481721290066" lon="120.90578632211708"><ele>51.0</ele><time>2026-04-20T08:18:24Z</time></trkpt><trkpt lat="14.344372255195827" lon="120.90583424663863"><ele>51.0</ele><time>2026-04-20T08:18:25Z</time></trkpt><trkpt lat="14.344273137141093" lon="120.9058792500713"><ele>51.25</ele><time>2026-04-20T08:18:26Z</time></trkpt><trkpt lat="14.34415953961967" lon="120.90593207096177"><ele>51.5</ele><time>2026-04-20T08:18:27Z</time></trkpt><trkpt lat="14.344051191078062" lon="120.90598297029317"><ele>51.75</ele><time>2026-04-20T08:18:28Z</time></trkpt><trkpt lat="14.343939617574772" lon="120.9060350460666"><ele>52.0</ele><time>2026-04-20T08:18:29Z</time></trkpt><trkpt lat="14.343829196389851" lon="120.90608598896753"><ele>52.0</ele><time>2026-04-20T08:18:30Z</time></trkpt><trkpt lat="14.34372123363227" lon="120.90613814066595"><ele>52.0</ele><time>2026-04-20T08:18:31Z</time></trkpt><trkpt lat="14.343620890952177" lon="120.90618528376756"><ele>52.0</ele><time>2026-04-20T08:18:32Z</time></trkpt><trkpt lat="14.343521868797499" lon="120.90623070105643"><ele>52.0</ele><time>2026-04-20T08:18:33Z</time></trkpt><trkpt lat="14.343426409458406" lon="120.90627075822212"><ele>52.0</ele><time>2026-04-20T08:18:34Z</time></trkpt><trkpt lat="14.343334399236614" lon="120.90631193584173"><ele>51.99999999999999</ele><time>2026-04-20T08:18:35Z</time></trkpt><trkpt lat="14.34325043761262" lon="120.90634438370286"><ele>52.0</ele><time>2026-04-20T08:18:36Z</time></trkpt><trkpt lat="14.34316775087795" lon="120.90637819785628"><ele>52.0</ele><time>2026-04-20T08:18:37Z</time></trkpt><trkpt lat="14.343093669105558" lon="120.90640662453912"><ele>52.0</ele><time>2026-04-20T08:18:38Z</time></trkpt><trkpt lat="14.343018306957577" lon="120.90644169619954"><ele>51.99999999999999</ele><time>2026-04-20T08:18:39Z</time></trkpt><trkpt lat="14.342954714219962" lon="120.90647308547993"><ele>52.0</ele><time>2026-04-20T08:18:40Z</time></trkpt><trkpt lat="14.342846873927574" lon="120.90651916200197"><ele>52.33333333333333</ele><time>2026-04-20T08:18:42Z</time></trkpt><trkpt lat="14.342741997811478" lon="120.90657002960367"><ele>52.666666666666664</ele><time>2026-04-20T08:18:44Z</time></trkpt><trkpt lat="14.342632342703551" lon="120.90661744165011"><ele>53.0</ele><time>2026-04-20T08:18:46Z</time></trkpt><trkpt lat="14.342569096573683" lon="120.90664292570975"><ele>53.33333333333333</ele><time>2026-04-20T08:18:47Z</time></trkpt><trkpt lat="14.342507630065949" lon="120.90666811552079"><ele>53.666666666666664</ele><time>2026-04-20T08:18:48Z</time></trkpt><trkpt lat="14.34243441117539" lon="120.90669936822879"><ele>54.0</ele><time>2026-04-20T08:18:49Z</time></trkpt><trkpt lat="14.3423554238674" lon="120.90673246263314"><ele>53.833333333333336</ele><time>2026-04-20T08:18:50Z</time></trkpt><trkpt lat="14.342284348561027" lon="120.90676309680136"><ele>53.66666666666667</ele><time>2026-04-20T08:18:51Z</time></trkpt><trkpt lat="14.342208295941063" lon="120.90679744579086"><ele>53.5</ele><time>2026-04-20T08:18:52Z</time></trkpt><trkpt lat="14.342137511044644" lon="120.9068257755973"><ele>53.333333333333336</ele><time>2026-04-20T08:18:53Z</time></trkpt><trkpt lat="14.34207127331856" lon="120.90685572667503"><ele>53.16666666666667</ele><time>2026-04-20T08:18:54Z</time></trkpt><trkpt lat="14.34199993110245" lon="120.90688323475862"><ele>53.0</ele><time>2026-04-20T08:18:55Z</time></trkpt><trkpt lat="14.341919062977464" lon="120.90691740845854"><ele>53.4</ele><time>2026-04-20T08:18:56Z</time></trkpt><trkpt lat="14.341834165362517" lon="120.9069545559961"><ele>53.8</ele><time>2026-04-20T08:18:57Z</time></trkpt><trkpt lat="14.341743166020564" lon="120.90700289128026"><ele>54.2</ele><time>2026-04-20T08:18:58Z</time></trkpt><trkpt lat="14.341650450475449" lon="120.90705275204223"><ele>54.6</ele><time>2026-04-20T08:18:59Z</time></trkpt><trkpt lat="14.341549803342254" lon="120.90710653418596"><ele>55.0</ele><time>2026-04-20T08:19:00Z</time></trkpt><trkpt lat="14.341457087952069" lon="120.90714859806268"><ele>55.2</ele><time>2026-04-20T08:19:01Z</time></trkpt><trkpt lat="14.341355836408546" lon="120.90718939124093"><ele>55.4</ele><time>2026-04-20T08:19:02Z</time></trkpt><trkpt lat="14.341255806538639" lon="120.90722708627435"><ele>55.599999999999994</ele><time>2026-04-20T08:19:03Z</time></trkpt><trkpt lat="14.341154166822262" lon="120.90726536076384"><ele>55.8</ele><time>2026-04-20T08:19:04Z</time></trkpt><trkpt lat="14.341053422338222" lon="120.90730404624408"><ele>56.0</ele><time>2026-04-20T08:19:05Z</time></trkpt><trkpt lat="14.34095328181869" lon="120.90734629871243"><ele>56.0</ele><time>2026-04-20T08:19:06Z</time></trkpt><trkpt lat="14.340854560688859" lon="120.90738772838324"><ele>56.0</ele><time>2026-04-20T08:19:07Z</time></trkpt><trkpt lat="14.340749767184551" lon="120.90743377966307"><ele>56.0</ele><time>2026-04-20T08:19:08Z</time></trkpt><trkpt lat="14.340638930276475" lon="120.90748743759305"><ele>56.0</ele><time>2026-04-20T08:19:09Z</time></trkpt><trkpt lat="14.340534207619852" lon="120.90753897800107"><ele>56.25</ele><time>2026-04-20T08:19:10Z</time></trkpt><trkpt lat="14.340419422114097" lon="120.90759318801018"><ele>56.5</ele><time>2026-04-20T08:19:11Z</time></trkpt><trkpt lat="14.34030224193401" lon="120.9076471626167"><ele>56.75</ele><time>2026-04-20T08:19:12Z</time></trkpt><trkpt lat="14.34019256200125" lon="120.90769295883973"><ele>57.0</ele><time>2026-04-20T08:19:13Z</time></trkpt><trkpt lat="14.340082796716" lon="120.90774311950547"><ele>57.0</ele><time>2026-04-20T08:19:14Z</time></trkpt><trkpt lat="14.339977595333076" lon="120.90778451556695"><ele>57.0</ele><time>2026-04-20T08:19:15Z</time></trkpt><trkpt lat="14.339874613548215" lon="120.90783211791671"><ele>57.0</ele><time>2026-04-20T08:19:16Z</time></trkpt><trkpt lat="14.339781916362927" lon="120.90786940073157"><ele>57.0</ele><time>2026-04-20T08:19:17Z</time></trkpt><trkpt lat="14.339687921253113" lon="120.90790739846892"><ele>57.0</ele><time>2026-04-20T08:19:18Z</time></trkpt><trkpt lat="14.339592802181155" lon="120.90794685877191"><ele>57.333333333333336</ele><time>2026-04-20T08:19:19Z</time></trkpt><trkpt lat="14.339508850292061" lon="120.90798101516208"><ele>57.66666666666667</ele><time>2026-04-20T08:19:20Z</time></trkpt><trkpt lat="14.339426487742704" lon="120.90801784409916"><ele>58.0</ele><time>2026-04-20T08:19:21Z</time></trkpt><trkpt lat="14.339355057722388" lon="120.90804204363658"><ele>58.333333333333336</ele><time>2026-04-20T08:19:22Z</time></trkpt><trkpt lat="14.339279117909594" lon="120.90807656540885"><ele>58.66666666666667</ele><time>2026-04-20T08:19:23Z</time></trkpt><trkpt lat="14.3392034466797" lon="120.90810331976351"><ele>59.0</ele><time>2026-04-20T08:19:24Z</time></trkpt><trkpt lat="14.339120660891073" lon="120.90814214580871"><ele>59.0</ele><time>2026-04-20T08:19:25Z</time></trkpt><trkpt lat="14.339037430291503" lon="120.90817877347651"><ele>59.00000000000001</ele><time>2026-04-20T08:19:26Z</time></trkpt><trkpt lat="14.338953876413775" lon="120.90821418804103"><ele>59.00000000000001</ele><time>2026-04-20T08:19:27.001Z</time></trkpt><trkpt lat="14.338868795599915" lon="120.9082457930312"><ele>59.0</ele><time>2026-04-20T08:19:28.001Z</time></trkpt><trkpt lat="14.338782621089635" lon="120.90826817400321"><ele>59.0</ele><time>2026-04-20T08:19:29.001Z</time></trkpt><trkpt lat="14.338694050350938" lon="120.90829654945743"><ele>59.2</ele><time>2026-04-20T08:19:30.001Z</time></trkpt><trkpt lat="14.33860237099183" lon="120.90833088336906"><ele>59.400000000000006</ele><time>2026-04-20T08:19:31.001Z</time></trkpt><trkpt lat="14.338511494673135" lon="120.90835894157411"><ele>59.6</ele><time>2026-04-20T08:19:32.001Z</time></trkpt><trkpt lat="14.338420423419036" lon="120.90839028215592"><ele>59.8</ele><time>2026-04-20T08:19:33.001Z</time></trkpt><trkpt lat="14.338331578694103" lon="120.90841535185385"><ele>60.0</ele><time>2026-04-20T08:19:34.001Z</time></trkpt><trkpt lat="14.338243888156287" lon="120.9084432404894"><ele>60.0</ele><time>2026-04-20T08:19:35.001Z</time></trkpt><trkpt lat="14.338154912933636" lon="120.90847599173404"><ele>60.0</ele><time>2026-04-20T08:19:36.001Z</time></trkpt><trkpt lat="14.33806113674632" lon="120.9085068948842"><ele>60.0</ele><time>2026-04-20T08:19:37.001Z</time></trkpt><trkpt lat="14.337972394141195" lon="120.90852435234424"><ele>60.0</ele><time>2026-04-20T08:19:38.001Z</time></trkpt><trkpt lat="14.337880265354373" lon="120.90854166480419"><ele>60.0</ele><time>2026-04-20T08:19:39.001Z</time></trkpt><trkpt lat="14.337784041460399" lon="120.90856208992614"><ele>59.833333333333336</ele><time>2026-04-20T08:19:40.001Z</time></trkpt><trkpt lat="14.337691141412785" lon="120.90858030607653"><ele>59.66666666666667</ele><time>2026-04-20T08:19:41.001Z</time></trkpt><trkpt lat="14.33760085424992" lon="120.90859206353238"><ele>59.5</ele><time>2026-04-20T08:19:42.001Z</time></trkpt><trkpt lat="14.337521682316948" lon="120.90860693148805"><ele>59.333333333333336</ele><time>2026-04-20T08:19:43.001Z</time></trkpt><trkpt lat="14.337449507211952" lon="120.9086157858896"><ele>59.16666666666667</ele><time>2026-04-20T08:19:44.001Z</time></trkpt><trkpt lat="14.3373764186241" lon="120.90862953324542"><ele>59.0</ele><time>2026-04-20T08:19:45.001Z</time></trkpt><trkpt lat="14.337307061087666" lon="120.90864280619266"><ele>59.0</ele><time>2026-04-20T08:19:46.001Z</time></trkpt><trkpt lat="14.337242961374743" lon="120.90865072198385"><ele>59.0</ele><time>2026-04-20T08:19:47.001Z</time></trkpt><trkpt lat="14.337171474971754" lon="120.90867186483052"><ele>59.0</ele><time>2026-04-20T08:19:48.001Z</time></trkpt><trkpt lat="14.337102137638817" lon="120.9086904518742"><ele>59.0</ele><time>2026-04-20T08:19:49.001Z</time></trkpt><trkpt lat="14.337025891254385" lon="120.90871535844515"><ele>59.0</ele><time>2026-04-20T08:19:50.001Z</time></trkpt><trkpt lat="14.336956870243144" lon="120.90873567108154"><ele>59.0</ele><time>2026-04-20T08:19:51.001Z</time></trkpt><trkpt lat="14.336888580040927" lon="120.90875392559403"><ele>59.0</ele><time>2026-04-20T08:19:52.001Z</time></trkpt><trkpt lat="14.3368154289057" lon="120.9087743365212"><ele>59.16666666666667</ele><time>2026-04-20T08:19:53.001Z</time></trkpt><trkpt lat="14.336738253600263" lon="120.90879561019861"><ele>59.333333333333336</ele><time>2026-04-20T08:19:54.001Z</time></trkpt><trkpt lat="14.336659051234156" lon="120.90881854085654"><ele>59.5</ele><time>2026-04-20T08:19:55.001Z</time></trkpt><trkpt lat="14.336577166155061" lon="120.90884087161335"><ele>59.66666666666667</ele><time>2026-04-20T08:19:56.001Z</time></trkpt><trkpt lat="14.336502623411544" lon="120.90886143336685"><ele>59.833333333333336</ele><time>2026-04-20T08:19:57.001Z</time></trkpt><trkpt lat="14.33643551127927" lon="120.9088809546311"><ele>60.0</ele><time>2026-04-20T08:19:58.001Z</time></trkpt><trkpt lat="14.336371704405913" lon="120.90889807713329"><ele>60.0</ele><time>2026-04-20T08:19:59.001Z</time></trkpt><trkpt lat="14.336250439455588" lon="120.90893054832055"><ele>60.0</ele><time>2026-04-20T08:20:01.001Z</time></trkpt><trkpt lat="14.336184097704727" lon="120.90894660597692"><ele>60.0</ele><time>2026-04-20T08:20:02Z</time></trkpt><trkpt lat="14.336115658537587" lon="120.90896590888033"><ele>60.0</ele><time>2026-04-20T08:20:03Z</time></trkpt><trkpt lat="14.336043389960071" lon="120.9089834271418"><ele>60.0</ele><time>2026-04-20T08:20:04Z</time></trkpt><trkpt lat="14.335971746548461" lon="120.90900355263103"><ele>60.0</ele><time>2026-04-20T08:20:05Z</time></trkpt><trkpt lat="14.335898131532142" lon="120.90902345688919"><ele>60.0</ele><time>2026-04-20T08:20:06Z</time></trkpt><trkpt lat="14.335823192473248" lon="120.90904436101799"><ele>60.0</ele><time>2026-04-20T08:20:07Z</time></trkpt><trkpt lat="14.33575291490944" lon="120.90906046778734"><ele>60.0</ele><time>2026-04-20T08:20:08Z</time></trkpt><trkpt lat="14.335669563927505" lon="120.90908099215446"><ele>60.0</ele><time>2026-04-20T08:20:09Z</time></trkpt><trkpt lat="14.335597251346774" lon="120.90909891812984"><ele>60.0</ele><time>2026-04-20T08:20:10Z</time></trkpt><trkpt lat="14.335510142217652" lon="120.90912022309152"><ele>60.0</ele><time>2026-04-20T08:20:11Z</time></trkpt><trkpt lat="14.335421538021413" lon="120.90914931306393"><ele>60.0</ele><time>2026-04-20T08:20:12Z</time></trkpt><trkpt lat="14.335343250403362" lon="120.90916685630272"><ele>60.0</ele><time>2026-04-20T08:20:13Z</time></trkpt><trkpt lat="14.335261082342493" lon="120.9091893208864"><ele>60.0</ele><time>2026-04-20T08:20:14Z</time></trkpt><trkpt lat="14.335178667273388" lon="120.90921336011037"><ele>60.0</ele><time>2026-04-20T08:20:15Z</time></trkpt><trkpt lat="14.335114131216342" lon="120.90922856763696"><ele>60.0</ele><time>2026-04-20T08:20:16Z</time></trkpt><trkpt lat="14.335046369957078" lon="120.90924843327856"><ele>60.0</ele><time>2026-04-20T08:20:17Z</time></trkpt><trkpt lat="14.334931425458324" lon="120.9092715258523"><ele>60.2</ele><time>2026-04-20T08:20:19Z</time></trkpt><trkpt lat="14.334816635159111" lon="120.90930334377555"><ele>60.4</ele><time>2026-04-20T08:20:21Z</time></trkpt><trkpt lat="14.33470900174296" lon="120.90932928602001"><ele>60.599999999999994</ele><time>2026-04-20T08:20:23Z</time></trkpt><trkpt lat="14.334592811649548" lon="120.90936420332437"><ele>60.8</ele><time>2026-04-20T08:20:25Z</time></trkpt><trkpt lat="14.334518439218506" lon="120.90939672093398"><ele>61.0</ele><time>2026-04-20T08:20:27Z</time></trkpt><trkpt lat="14.334454105225321" lon="120.90941961589819"><ele>61.49999999999999</ele><time>2026-04-20T08:20:29Z</time></trkpt><trkpt lat="14.334390804128061" lon="120.90944603403472"><ele>62.0</ele><time>2026-04-20T08:20:31Z</time></trkpt><trkpt lat="14.334324732611275" lon="120.90947077590711"><ele>62.5</ele><time>2026-04-20T08:20:33Z</time></trkpt><trkpt lat="14.334195795808979" lon="120.90949254940168"><ele>63.0</ele><time>2026-04-20T08:20:35Z</time></trkpt><trkpt lat="14.334119386109435" lon="120.90951158036391"><ele>63.49999999999999</ele><time>2026-04-20T08:20:36Z</time></trkpt><trkpt lat="14.334035446138605" lon="120.9095331728431"><ele>64.0</ele><time>2026-04-20T08:20:37Z</time></trkpt><trkpt lat="14.333943253983383" lon="120.90955903220433"><ele>63.800000000000004</ele><time>2026-04-20T08:20:38Z</time></trkpt><trkpt lat="14.333847025579974" lon="120.90958142095161"><ele>63.60000000000001</ele><time>2026-04-20T08:20:39Z</time></trkpt><trkpt lat="14.333742581487122" lon="120.9096101352753"><ele>63.4</ele><time>2026-04-20T08:20:40Z</time></trkpt><trkpt lat="14.333651265739137" lon="120.90963277526484"><ele>63.2</ele><time>2026-04-20T08:20:41Z</time></trkpt><trkpt lat="14.33356576353013" lon="120.90965212563547"><ele>63.0</ele><time>2026-04-20T08:20:42Z</time></trkpt><trkpt lat="14.333475891496452" lon="120.90967677634946"><ele>63.0</ele><time>2026-04-20T08:20:43Z</time></trkpt><trkpt lat="14.333395055613574" lon="120.90969801533625"><ele>63.0</ele><time>2026-04-20T08:20:44Z</time></trkpt><trkpt lat="14.333308928928583" lon="120.90971683888357"><ele>63.0</ele><time>2026-04-20T08:20:45Z</time></trkpt><trkpt lat="14.333233859915959" lon="120.90972571703313"><ele>63.0</ele><time>2026-04-20T08:20:46Z</time></trkpt><trkpt lat="14.333113320201633" lon="120.90978673201917"><ele>63.0</ele><time>2026-04-20T08:20:47Z</time></trkpt><trkpt lat="14.333026864513936" lon="120.90981181744324"><ele>63.5</ele><time>2026-04-20T08:20:48Z</time></trkpt><trkpt lat="14.332939827101331" lon="120.90983870699169"><ele>64.0</ele><time>2026-04-20T08:20:49Z</time></trkpt><trkpt lat="14.332851802886744" lon="120.90986826347964"><ele>64.5</ele><time>2026-04-20T08:20:50Z</time></trkpt><trkpt lat="14.332762721503274" lon="120.9098940638347"><ele>65.0</ele><time>2026-04-20T08:20:51Z</time></trkpt><trkpt lat="14.332683039064632" lon="120.90992304047661"><ele>65.5</ele><time>2026-04-20T08:20:52Z</time></trkpt><trkpt lat="14.332614428387632" lon="120.90994897631192"><ele>66.0</ele><time>2026-04-20T08:20:53Z</time></trkpt><trkpt lat="14.332538546659572" lon="120.9099769763326"><ele>66.0</ele><time>2026-04-20T08:20:54Z</time></trkpt><trkpt lat="14.33246289587429" lon="120.91000363633083"><ele>66.0</ele><time>2026-04-20T08:20:55Z</time></trkpt><trkpt lat="14.33239184791276" lon="120.91003392693321"><ele>66.0</ele><time>2026-04-20T08:20:56Z</time></trkpt><trkpt lat="14.33231021747607" lon="120.91006906792757"><ele>66.0</ele><time>2026-04-20T08:20:57Z</time></trkpt><trkpt lat="14.332212736311483" lon="120.91010911131286"><ele>66.0</ele><time>2026-04-20T08:20:58Z</time></trkpt><trkpt lat="14.332102390155532" lon="120.91014121269335"><ele>66.5</ele><time>2026-04-20T08:20:59Z</time></trkpt><trkpt lat="14.331985057282418" lon="120.91017466765055"><ele>67.0</ele><time>2026-04-20T08:21:00Z</time></trkpt><trkpt lat="14.331873991271673" lon="120.91021350384374"><ele>67.5</ele><time>2026-04-20T08:21:01Z</time></trkpt><trkpt lat="14.331759929231453" lon="120.91025642644132"><ele>68.0</ele><time>2026-04-20T08:21:02Z</time></trkpt><trkpt lat="14.331643092605027" lon="120.91030275568184"><ele>68.0</ele><time>2026-04-20T08:21:03Z</time></trkpt><trkpt lat="14.331523494206953" lon="120.91034468190288"><ele>68.0</ele><time>2026-04-20T08:21:04Z</time></trkpt><trkpt lat="14.331400311602053" lon="120.91038622602639"><ele>68.0</ele><time>2026-04-20T08:21:05Z</time></trkpt><trkpt lat="14.331275332521615" lon="120.91043140967041"><ele>68.0</ele><time>2026-04-20T08:21:06Z</time></trkpt><trkpt lat="14.331153606533334" lon="120.9104788160848"><ele>68.0</ele><time>2026-04-20T08:21:07Z</time></trkpt><trkpt lat="14.331044320306445" lon="120.9105247850514"><ele>68.0</ele><time>2026-04-20T08:21:08Z</time></trkpt><trkpt lat="14.33095211291313" lon="120.9105645430317"><ele>68.0</ele><time>2026-04-20T08:21:09Z</time></trkpt><trkpt lat="14.330848349550738" lon="120.91060436242356"><ele>68.0</ele><time>2026-04-20T08:21:10Z</time></trkpt><trkpt lat="14.33074476037291" lon="120.91064089717557"><ele>68.0</ele><time>2026-04-20T08:21:11Z</time></trkpt><trkpt lat="14.330632037817155" lon="120.91068628085303"><ele>68.25</ele><time>2026-04-20T08:21:12Z</time></trkpt><trkpt lat="14.330515376604286" lon="120.91073335762786"><ele>68.5</ele><time>2026-04-20T08:21:13Z</time></trkpt><trkpt lat="14.330398449592531" lon="120.9107743252486"><ele>68.75</ele><time>2026-04-20T08:21:14Z</time></trkpt><trkpt lat="14.33027751749367" lon="120.91082311573622"><ele>69.0</ele><time>2026-04-20T08:21:15Z</time></trkpt><trkpt lat="14.330152610517864" lon="120.9108757212104"><ele>69.25</ele><time>2026-04-20T08:21:16Z</time></trkpt><trkpt lat="14.330028050721506" lon="120.9109251024991"><ele>69.5</ele><time>2026-04-20T08:21:17Z</time></trkpt><trkpt lat="14.32990221714196" lon="120.91097670561054"><ele>69.75</ele><time>2026-04-20T08:21:18Z</time></trkpt><trkpt lat="14.32977758621835" lon="120.91102600570925"><ele>70.0</ele><time>2026-04-20T08:21:19Z</time></trkpt><trkpt lat="14.329656316450286" lon="120.91107914579577"><ele>70.75</ele><time>2026-04-20T08:21:20Z</time></trkpt><trkpt lat="14.329536496569112" lon="120.91113051354874"><ele>71.5</ele><time>2026-04-20T08:21:21Z</time></trkpt><trkpt lat="14.329422981786285" lon="120.91117511016849"><ele>72.25</ele><time>2026-04-20T08:21:22Z</time></trkpt><trkpt lat="14.329311220835342" lon="120.91121656578443"><ele>73.0</ele><time>2026-04-20T08:21:23Z</time></trkpt><trkpt lat="14.329203767542165" lon="120.91126420009427"><ele>73.0</ele><time>2026-04-20T08:21:24Z</time></trkpt><trkpt lat="14.329096620697555" lon="120.91131679635527"><ele>73.0</ele><time>2026-04-20T08:21:25Z</time></trkpt><trkpt lat="14.32899427830122" lon="120.91135869249756"><ele>73.0</ele><time>2026-04-20T08:21:26Z</time></trkpt><trkpt lat="14.328891498078944" lon="120.9114025607763"><ele>73.0</ele><time>2026-04-20T08:21:27Z</time></trkpt><trkpt lat="14.328784739503865" lon="120.9114514476199"><ele>73.2</ele><time>2026-04-20T08:21:28Z</time></trkpt><trkpt lat="14.32867934095577" lon="120.91148068395417"><ele>73.4</ele><time>2026-04-20T08:21:29Z</time></trkpt><trkpt lat="14.328576598401172" lon="120.9115000082786"><ele>73.60000000000001</ele><time>2026-04-20T08:21:30Z</time></trkpt><trkpt lat="14.32847091256975" lon="120.91152003347706"><ele>73.8</ele><time>2026-04-20T08:21:31Z</time></trkpt><trkpt lat="14.328356507610456" lon="120.9115451438348"><ele>74.0</ele><time>2026-04-20T08:21:32Z</time></trkpt><trkpt lat="14.328242964549771" lon="120.91155993990486"><ele>74.0</ele><time>2026-04-20T08:21:33Z</time></trkpt><trkpt lat="14.328123594821514" lon="120.9115758068754"><ele>74.0</ele><time>2026-04-20T08:21:34Z</time></trkpt><trkpt lat="14.328004416631545" lon="120.91158817374506"><ele>74.0</ele><time>2026-04-20T08:21:35Z</time></trkpt><trkpt lat="14.327881376210241" lon="120.9116017025698"><ele>74.0</ele><time>2026-04-20T08:21:36Z</time></trkpt><trkpt lat="14.327759306022894" lon="120.91161852109975"><ele>74.0</ele><time>2026-04-20T08:21:37Z</time></trkpt><trkpt lat="14.327635263794088" lon="120.9116434245915"><ele>74.0</ele><time>2026-04-20T08:21:38Z</time></trkpt><trkpt lat="14.32750906845108" lon="120.91167079458782"><ele>74.0</ele><time>2026-04-20T08:21:39Z</time></trkpt><trkpt lat="14.32738233082097" lon="120.9116993632865"><ele>74.0</ele><time>2026-04-20T08:21:40Z</time></trkpt><trkpt lat="14.327258701177575" lon="120.9117272834665"><ele>73.75</ele><time>2026-04-20T08:21:41Z</time></trkpt><trkpt lat="14.327132177067034" lon="120.91175564951814"><ele>73.5</ele><time>2026-04-20T08:21:42Z</time></trkpt><trkpt lat="14.327009149482821" lon="120.91178586748346"><ele>73.25</ele><time>2026-04-20T08:21:43Z</time></trkpt><trkpt lat="14.32688203744734" lon="120.91181557416142"><ele>73.0</ele><time>2026-04-20T08:21:44Z</time></trkpt><trkpt lat="14.326754363945486" lon="120.91184186410392"><ele>73.0</ele><time>2026-04-20T08:21:45.001Z</time></trkpt><trkpt lat="14.326627172147107" lon="120.9118670376989"><ele>73.0</ele><time>2026-04-20T08:21:46.001Z</time></trkpt><trkpt lat="14.326497042462734" lon="120.91189386579951"><ele>73.0</ele><time>2026-04-20T08:21:47.001Z</time></trkpt><trkpt lat="14.326365433751487" lon="120.91191806733083"><ele>73.0</ele><time>2026-04-20T08:21:48.001Z</time></trkpt><trkpt lat="14.32623576258493" lon="120.911939523597"><ele>73.75</ele><time>2026-04-20T08:21:49.001Z</time></trkpt><trkpt lat="14.32610485886522" lon="120.91196335495398"><ele>74.5</ele><time>2026-04-20T08:21:50.001Z</time></trkpt><trkpt lat="14.32597382091349" lon="120.91198959693784"><ele>75.25</ele><time>2026-04-20T08:21:51.001Z</time></trkpt><trkpt lat="14.325839479325928" lon="120.9120185113333"><ele>76.0</ele><time>2026-04-20T08:21:52.001Z</time></trkpt><trkpt lat="14.325706681844185" lon="120.91204562446245"><ele>76.0</ele><time>2026-04-20T08:21:53.001Z</time></trkpt><trkpt lat="14.325568645260844" lon="120.91207357185026"><ele>76.0</ele><time>2026-04-20T08:21:54.001Z</time></trkpt><trkpt lat="14.325434544595295" lon="120.9121005116045"><ele>76.0</ele><time>2026-04-20T08:21:55.001Z</time></trkpt><trkpt lat="14.325297924361767" lon="120.91212719393458"><ele>76.0</ele><time>2026-04-20T08:21:56.001Z</time></trkpt><trkpt lat="14.32516287305665" lon="120.91215448333908"><ele>76.25</ele><time>2026-04-20T08:21:57.001Z</time></trkpt><trkpt lat="14.325024016865555" lon="120.91218181892916"><ele>76.5</ele><time>2026-04-20T08:21:58.001Z</time></trkpt><trkpt lat="14.324880611401934" lon="120.91221040082019"><ele>76.75</ele><time>2026-04-20T08:21:59.001Z</time></trkpt><trkpt lat="14.324738992035943" lon="120.91224024414838"><ele>77.0</ele><time>2026-04-20T08:22:00.001Z</time></trkpt><trkpt lat="14.324603902337426" lon="120.91227105219991"><ele>77.0</ele><time>2026-04-20T08:22:01.001Z</time></trkpt><trkpt lat="14.32446834682539" lon="120.91230111171326"><ele>77.0</ele><time>2026-04-20T08:22:02.001Z</time></trkpt><trkpt lat="14.324327456254613" lon="120.91233611112303"><ele>77.0</ele><time>2026-04-20T08:22:03.001Z</time></trkpt><trkpt lat="14.324193520149606" lon="120.91236356633533"><ele>77.0</ele><time>2026-04-20T08:22:04.001Z</time></trkpt><trkpt lat="14.324058422637222" lon="120.91239627271457"><ele>77.0</ele><time>2026-04-20T08:22:05.001Z</time></trkpt><trkpt lat="14.323925601203133" lon="120.91243001824625"><ele>77.0</ele><time>2026-04-20T08:22:06.001Z</time></trkpt><trkpt lat="14.323801315530575" lon="120.91245803820738"><ele>77.0</ele><time>2026-04-20T08:22:07.001Z</time></trkpt><trkpt lat="14.323678134492859" lon="120.91248977757013"><ele>77.0</ele><time>2026-04-20T08:22:08Z</time></trkpt><trkpt lat="14.323561140379768" lon="120.91252883168121"><ele>77.0</ele><time>2026-04-20T08:22:09Z</time></trkpt><trkpt lat="14.323451801087963" lon="120.9125610005418"><ele>77.0</ele><time>2026-04-20T08:22:10Z</time></trkpt><trkpt lat="14.323349447387308" lon="120.91258620589497"><ele>77.0</ele><time>2026-04-20T08:22:11Z</time></trkpt><trkpt lat="14.323245910529716" lon="120.91261040617157"><ele>77.0</ele><time>2026-04-20T08:22:12Z</time></trkpt><trkpt lat="14.323141329983098" lon="120.91264000804966"><ele>77.0</ele><time>2026-04-20T08:22:13Z</time></trkpt><trkpt lat="14.323032113822421" lon="120.91267181475459"><ele>77.0</ele><time>2026-04-20T08:22:14Z</time></trkpt><trkpt lat="14.322922839835773" lon="120.91270122059679"><ele>77.0</ele><time>2026-04-20T08:22:15Z</time></trkpt><trkpt lat="14.32282135078632" lon="120.91272618823568"><ele>77.0</ele><time>2026-04-20T08:22:16Z</time></trkpt><trkpt lat="14.322723289930435" lon="120.91275474359036"><ele>77.0</ele><time>2026-04-20T08:22:17Z</time></trkpt><trkpt lat="14.322625675667474" lon="120.9127834893937"><ele>77.0</ele><time>2026-04-20T08:22:18Z</time></trkpt><trkpt lat="14.32253012963994" lon="120.91281395397215"><ele>77.0</ele><time>2026-04-20T08:22:19Z</time></trkpt><trkpt lat="14.322441247464832" lon="120.91283118694838"><ele>77.0</ele><time>2026-04-20T08:22:20Z</time></trkpt><trkpt lat="14.322350429323587" lon="120.91285995852797"><ele>77.0</ele><time>2026-04-20T08:22:21Z</time></trkpt><trkpt lat="14.32225438181639" lon="120.91289188155855"><ele>77.0</ele><time>2026-04-20T08:22:22Z</time></trkpt><trkpt lat="14.32216513579582" lon="120.91291121793597"><ele>77.0</ele><time>2026-04-20T08:22:23Z</time></trkpt><trkpt lat="14.322067914544478" lon="120.91294116061933"><ele>77.66666666666667</ele><time>2026-04-20T08:22:24Z</time></trkpt><trkpt lat="14.321967781979904" lon="120.91297446777963"><ele>78.33333333333334</ele><time>2026-04-20T08:22:25Z</time></trkpt><trkpt lat="14.321875282053139" lon="120.91299540577424"><ele>79.0</ele><time>2026-04-20T08:22:26Z</time></trkpt><trkpt lat="14.321791175008821" lon="120.9130182241361"><ele>79.66666666666667</ele><time>2026-04-20T08:22:27.001Z</time></trkpt><trkpt lat="14.32171032068107" lon="120.91304200431935"><ele>80.33333333333333</ele><time>2026-04-20T08:22:28.001Z</time></trkpt><trkpt lat="14.321635982620931" lon="120.91306391861784"><ele>81.0</ele><time>2026-04-20T08:22:29.001Z</time></trkpt><trkpt lat="14.3215604238832" lon="120.91309448842068"><ele>81.0</ele><time>2026-04-20T08:22:30.001Z</time></trkpt><trkpt lat="14.321495063685651" lon="120.91311721284826"><ele>81.0</ele><time>2026-04-20T08:22:31.001Z</time></trkpt><trkpt lat="14.321430351207715" lon="120.91314694459689"><ele>81.0</ele><time>2026-04-20T08:22:32.001Z</time></trkpt><trkpt lat="14.321369644913956" lon="120.91317357965325"><ele>81.0</ele><time>2026-04-20T08:22:33.001Z</time></trkpt><trkpt lat="14.321306632015581" lon="120.91319875160198"><ele>81.0</ele><time>2026-04-20T08:22:34.001Z</time></trkpt><trkpt lat="14.321239601755194" lon="120.91322748093096"><ele>81.0</ele><time>2026-04-20T08:22:35.001Z</time></trkpt><trkpt lat="14.32111793845518" lon="120.91327896971967"><ele>81.0</ele><time>2026-04-20T08:22:37.001Z</time></trkpt><trkpt lat="14.321056028977202" lon="120.91329736598462"><ele>81.0</ele><time>2026-04-20T08:22:38.001Z</time></trkpt><trkpt lat="14.320992839747573" lon="120.91331911020391"><ele>81.0</ele><time>2026-04-20T08:22:39.001Z</time></trkpt><trkpt lat="14.320933427475294" lon="120.9133434632245"><ele>81.0</ele><time>2026-04-20T08:22:40.001Z</time></trkpt><trkpt lat="14.320872111476225" lon="120.91336990247437"><ele>81.0</ele><time>2026-04-20T08:22:41.001Z</time></trkpt><trkpt lat="14.320806371879348" lon="120.9133989140482"><ele>81.0</ele><time>2026-04-20T08:22:42.001Z</time></trkpt><trkpt lat="14.32074362292992" lon="120.91342313432325"><ele>81.0</ele><time>2026-04-20T08:22:43.001Z</time></trkpt><trkpt lat="14.32067334685159" lon="120.91345019722115"><ele>81.0</ele><time>2026-04-20T08:22:44.001Z</time></trkpt><trkpt lat="14.32060080644582" lon="120.91347897015557"><ele>81.0</ele><time>2026-04-20T08:22:45.001Z</time></trkpt><trkpt lat="14.320530347531696" lon="120.9135024935878"><ele>81.0</ele><time>2026-04-20T08:22:46.001Z</time></trkpt><trkpt lat="14.320470472601864" lon="120.91352593596469"><ele>81.0</ele><time>2026-04-20T08:22:47.001Z</time></trkpt><trkpt lat="14.320356071118573" lon="120.91356704917725"><ele>81.0</ele><time>2026-04-20T08:22:49.001Z</time></trkpt><trkpt lat="14.320237374283382" lon="120.91360618069636"><ele>81.19999999999999</ele><time>2026-04-20T08:22:51.001Z</time></trkpt><trkpt lat="14.320128777742047" lon="120.91365092008787"><ele>81.39999999999999</ele><time>2026-04-20T08:22:53.001Z</time></trkpt><trkpt lat="14.320035136680517" lon="120.9136951043942"><ele>81.6</ele><time>2026-04-20T08:22:55.001Z</time></trkpt><trkpt lat="14.319927342631026" lon="120.91376484563001"><ele>81.8</ele><time>2026-04-20T08:22:57.001Z</time></trkpt><trkpt lat="14.319872523461179" lon="120.91380445343079"><ele>82.0</ele><time>2026-04-20T08:22:58.001Z</time></trkpt><trkpt lat="14.319811958484786" lon="120.91385967628531"><ele>82.0</ele><time>2026-04-20T08:22:59.001Z</time></trkpt><trkpt lat="14.319750413995546" lon="120.91392267328507"><ele>82.0</ele><time>2026-04-20T08:23:00.001Z</time></trkpt><trkpt lat="14.319693527298996" lon="120.91397296508424"><ele>82.0</ele><time>2026-04-20T08:23:01.001Z</time></trkpt><trkpt lat="14.319628691045507" lon="120.91403005656323"><ele>82.0</ele><time>2026-04-20T08:23:02.001Z</time></trkpt><trkpt lat="14.319568008098601" lon="120.91408933596074"><ele>82.0</ele><time>2026-04-20T08:23:03.001Z</time></trkpt><trkpt lat="14.319506467559464" lon="120.91415740024401"><ele>82.0</ele><time>2026-04-20T08:23:04.001Z</time></trkpt><trkpt lat="14.319442861750224" lon="120.91421987559376"><ele>82.39999999999999</ele><time>2026-04-20T08:23:05.001Z</time></trkpt><trkpt lat="14.319378499218656" lon="120.91428103092908"><ele>82.8</ele><time>2026-04-20T08:23:06.001Z</time></trkpt><trkpt lat="14.319312818811024" lon="120.91434792152162"><ele>83.2</ele><time>2026-04-20T08:23:07.001Z</time></trkpt><trkpt lat="14.319246817535898" lon="120.91441531010628"><ele>83.6</ele><time>2026-04-20T08:23:08.001Z</time></trkpt><trkpt lat="14.319180649074701" lon="120.9144773706607"><ele>84.0</ele><time>2026-04-20T08:23:09.001Z</time></trkpt><trkpt lat="14.319106140029831" lon="120.91454359752812"><ele>84.0</ele><time>2026-04-20T08:23:10.001Z</time></trkpt><trkpt lat="14.319021702235718" lon="120.91461452922859"><ele>84.0</ele><time>2026-04-20T08:23:11.001Z</time></trkpt><trkpt lat="14.318928877395571" lon="120.91469964591427"><ele>84.0</ele><time>2026-04-20T08:23:12.001Z</time></trkpt><trkpt lat="14.31883250950821" lon="120.91478252857775"><ele>84.0</ele><time>2026-04-20T08:23:13.001Z</time></trkpt><trkpt lat="14.318732456973416" lon="120.91486743133733"><ele>84.25</ele><time>2026-04-20T08:23:14.001Z</time></trkpt><trkpt lat="14.318629321824647" lon="120.91496278369108"><ele>84.5</ele><time>2026-04-20T08:23:15.001Z</time></trkpt><trkpt lat="14.318526093733944" lon="120.91505345500543"><ele>84.75</ele><time>2026-04-20T08:23:16.001Z</time></trkpt><trkpt lat="14.318421022238557" lon="120.91513421932042"><ele>85.0</ele><time>2026-04-20T08:23:17.001Z</time></trkpt><trkpt lat="14.318309542899309" lon="120.91520673238502"><ele>85.0</ele><time>2026-04-20T08:23:18.001Z</time></trkpt><trkpt lat="14.318193564646725" lon="120.91526698395634"><ele>85.0</ele><time>2026-04-20T08:23:19.001Z</time></trkpt><trkpt lat="14.318073693647925" lon="120.91532252852912"><ele>85.0</ele><time>2026-04-20T08:23:20.001Z</time></trkpt><trkpt lat="14.317961033951304" lon="120.91536462133344"><ele>85.0</ele><time>2026-04-20T08:23:21.001Z</time></trkpt><trkpt lat="14.31783394096379" lon="120.91541420459485"><ele>85.5</ele><time>2026-04-20T08:23:22.001Z</time></trkpt><trkpt lat="14.317713072558494" lon="120.91545260296823"><ele>86.0</ele><time>2026-04-20T08:23:23.001Z</time></trkpt><trkpt lat="14.317592080718681" lon="120.91548309328894"><ele>86.5</ele><time>2026-04-20T08:23:24.001Z</time></trkpt><trkpt lat="14.317463248377521" lon="120.91550473726849"><ele>87.0</ele><time>2026-04-20T08:23:25.001Z</time></trkpt><trkpt lat="14.317335485119717" lon="120.91551865973899"><ele>87.25</ele><time>2026-04-20T08:23:26.001Z</time></trkpt><trkpt lat="14.317208671985323" lon="120.91552768206289"><ele>87.5</ele><time>2026-04-20T08:23:27.001Z</time></trkpt><trkpt lat="14.317071054321422" lon="120.91552985488573"><ele>87.75</ele><time>2026-04-20T08:23:28.001Z</time></trkpt><trkpt lat="14.316946114201096" lon="120.91552543443575"><ele>88.0</ele><time>2026-04-20T08:23:29.001Z</time></trkpt><trkpt lat="14.316807703360018" lon="120.91551269535864"><ele>88.0</ele><time>2026-04-20T08:23:30.001Z</time></trkpt><trkpt lat="14.31667881906439" lon="120.91549577923215"><ele>88.0</ele><time>2026-04-20T08:23:31.001Z</time></trkpt><trkpt lat="14.316542272917596" lon="120.9154789346452"><ele>88.0</ele><time>2026-04-20T08:23:32.001Z</time></trkpt><trkpt lat="14.316406457425117" lon="120.91546335775185"><ele>88.0</ele><time>2026-04-20T08:23:33.001Z</time></trkpt><trkpt lat="14.316277543210164" lon="120.91545208058562"><ele>88.2</ele><time>2026-04-20T08:23:34.001Z</time></trkpt><trkpt lat="14.316165124528093" lon="120.91543774690297"><ele>88.4</ele><time>2026-04-20T08:23:35.001Z</time></trkpt><trkpt lat="14.316048490457936" lon="120.91542833519865"><ele>88.60000000000001</ele><time>2026-04-20T08:23:36.001Z</time></trkpt><trkpt lat="14.315946725834143" lon="120.91541861080734"><ele>88.80000000000001</ele><time>2026-04-20T08:23:37.001Z</time></trkpt><trkpt lat="14.315854259201808" lon="120.91541006010107"><ele>89.0</ele><time>2026-04-20T08:23:38.001Z</time></trkpt><trkpt lat="14.31577444599037" lon="120.91540801126216"><ele>89.0</ele><time>2026-04-20T08:23:39.001Z</time></trkpt><trkpt lat="14.315699671796166" lon="120.91541362862701"><ele>89.0</ele><time>2026-04-20T08:23:40.001Z</time></trkpt><trkpt lat="14.31562119754708" lon="120.91542447326502"><ele>89.0</ele><time>2026-04-20T08:23:42.001Z</time></trkpt><trkpt lat="14.315550803270819" lon="120.9154343352527"><ele>89.0</ele><time>2026-04-20T08:23:46.001Z</time></trkpt><trkpt lat="14.315448730333875" lon="120.91546759690144"><ele>89.0</ele><time>2026-04-20T08:23:48.001Z</time></trkpt><trkpt lat="14.315386441028489" lon="120.91548802265568"><ele>89.0</ele><time>2026-04-20T08:23:49.001Z</time></trkpt><trkpt lat="14.315322432091532" lon="120.915508344968"><ele>89.0</ele><time>2026-04-20T08:23:50.001Z</time></trkpt><trkpt lat="14.315256710611495" lon="120.91552753119582"><ele>89.0</ele><time>2026-04-20T08:23:51.001Z</time></trkpt><trkpt lat="14.315188780935507" lon="120.9155471791546"><ele>89.0</ele><time>2026-04-20T08:23:52.001Z</time></trkpt><trkpt lat="14.315110432419756" lon="120.91556847274377"><ele>89.0</ele><time>2026-04-20T08:23:53.001Z</time></trkpt><trkpt lat="14.315038040457305" lon="120.91558725678279"><ele>89.0</ele><time>2026-04-20T08:23:54.002Z</time></trkpt><trkpt lat="14.314957360349698" lon="120.91561265259645"><ele>89.0</ele><time>2026-04-20T08:23:55.002Z</time></trkpt><trkpt lat="14.314881284546598" lon="120.91563553735548"><ele>89.0</ele><time>2026-04-20T08:23:56.002Z</time></trkpt><trkpt lat="14.314806117598666" lon="120.91565572322601"><ele>89.0</ele><time>2026-04-20T08:23:57.002Z</time></trkpt><trkpt lat="14.31473231317878" lon="120.91566794420079"><ele>89.0</ele><time>2026-04-20T08:23:58.002Z</time></trkpt><trkpt lat="14.314652246691013" lon="120.91567539290764"><ele>89.0</ele><time>2026-04-20T08:23:59.002Z</time></trkpt><trkpt lat="14.314580040728519" lon="120.91568082757853"><ele>89.0</ele><time>2026-04-20T08:24:00.002Z</time></trkpt><trkpt lat="14.3145049055791" lon="120.91568502934486"><ele>89.0</ele><time>2026-04-20T08:24:01.002Z</time></trkpt><trkpt lat="14.314420258241219" lon="120.91569228561953"><ele>89.80000000000001</ele><time>2026-04-20T08:24:02.002Z</time></trkpt><trkpt lat="14.31435365425515" lon="120.91569644260362"><ele>90.60000000000001</ele><time>2026-04-20T08:24:03.002Z</time></trkpt><trkpt lat="14.314285421671402" lon="120.91569624510589"><ele>91.4</ele><time>2026-04-20T08:24:04.002Z</time></trkpt><trkpt lat="14.314151543406927" lon="120.91570304636438"><ele>92.2</ele><time>2026-04-20T08:24:06.002Z</time></trkpt><trkpt lat="14.314032251192348" lon="120.91570801081158"><ele>93.0</ele><time>2026-04-20T08:24:08.002Z</time></trkpt><trkpt lat="14.313906110766519" lon="120.91571116883583"><ele>92.71428571428572</ele><time>2026-04-20T08:24:10.002Z</time></trkpt><trkpt lat="14.313841172166043" lon="120.91571258871502"><ele>92.42857142857143</ele><time>2026-04-20T08:24:11.002Z</time></trkpt><trkpt lat="14.313770354038136" lon="120.91571645728172"><ele>92.14285714285714</ele><time>2026-04-20T08:24:12.002Z</time></trkpt><trkpt lat="14.313703971436441" lon="120.9157160920771"><ele>91.85714285714286</ele><time>2026-04-20T08:24:13.002Z</time></trkpt><trkpt lat="14.31362871728896" lon="120.91571861945616"><ele>91.57142857142857</ele><time>2026-04-20T08:24:14Z</time></trkpt><trkpt lat="14.313560739259449" lon="120.91572069122103"><ele>91.28571428571429</ele><time>2026-04-20T08:24:15Z</time></trkpt><trkpt lat="14.313478597783714" lon="120.91572729756683"><ele>91.0</ele><time>2026-04-20T08:24:16Z</time></trkpt><trkpt lat="14.313393281762664" lon="120.91573455618496"><ele>91.0</ele><time>2026-04-20T08:24:17Z</time></trkpt><trkpt lat="14.313315577971911" lon="120.91574225713008"><ele>91.0</ele><time>2026-04-20T08:24:18Z</time></trkpt><trkpt lat="14.313221166821998" lon="120.91574863508527"><ele>91.0</ele><time>2026-04-20T08:24:19Z</time></trkpt><trkpt lat="14.313133527536344" lon="120.9157554812387"><ele>91.0</ele><time>2026-04-20T08:24:20Z</time></trkpt><trkpt lat="14.313040401426857" lon="120.9157609105157"><ele>91.0</ele><time>2026-04-20T08:24:21Z</time></trkpt><trkpt lat="14.31295046965359" lon="120.91576550823692"><ele>91.0</ele><time>2026-04-20T08:24:22Z</time></trkpt><trkpt lat="14.312854714201405" lon="120.91576865819843"><ele>91.19999999999999</ele><time>2026-04-20T08:24:23Z</time></trkpt><trkpt lat="14.312762533521605" lon="120.91577303132324"><ele>91.39999999999999</ele><time>2026-04-20T08:24:24Z</time></trkpt><trkpt lat="14.312652928993478" lon="120.91577702005577"><ele>91.6</ele><time>2026-04-20T08:24:25Z</time></trkpt><trkpt lat="14.312552024329051" lon="120.91578233827197"><ele>91.8</ele><time>2026-04-20T08:24:26Z</time></trkpt><trkpt lat="14.312459792350044" lon="120.91578682141885"><ele>92.0</ele><time>2026-04-20T08:24:27Z</time></trkpt><trkpt lat="14.312377737337648" lon="120.91579129334018"><ele>92.0</ele><time>2026-04-20T08:24:28Z</time></trkpt><trkpt lat="14.31229980173677" lon="120.91579170295903"><ele>92.0</ele><time>2026-04-20T08:24:29Z</time></trkpt><trkpt lat="14.312219781063153" lon="120.91579452315561"><ele>92.0</ele><time>2026-04-20T08:24:30Z</time></trkpt><trkpt lat="14.312136731581797" lon="120.91579527443312"><ele>92.0</ele><time>2026-04-20T08:24:31Z</time></trkpt><trkpt lat="14.31205438421696" lon="120.91579496201875"><ele>92.0</ele><time>2026-04-20T08:24:32Z</time></trkpt><trkpt lat="14.311960925636283" lon="120.91579299441489"><ele>92.0</ele><time>2026-04-20T08:24:33Z</time></trkpt><trkpt lat="14.311869342445203" lon="120.91579112091429"><ele>92.19999999999999</ele><time>2026-04-20T08:24:34Z</time></trkpt><trkpt lat="14.311768184060268" lon="120.91579320506844"><ele>92.4</ele><time>2026-04-20T08:24:35Z</time></trkpt><trkpt lat="14.311658665119715" lon="120.91579831623004"><ele>92.6</ele><time>2026-04-20T08:24:36Z</time></trkpt><trkpt lat="14.311562493419787" lon="120.91579774738486"><ele>92.80000000000001</ele><time>2026-04-20T08:24:37Z</time></trkpt><trkpt lat="14.311466084941513" lon="120.91579804672526"><ele>93.0</ele><time>2026-04-20T08:24:38Z</time></trkpt><trkpt lat="14.311350759926315" lon="120.91581892677996"><ele>93.60000000000001</ele><time>2026-04-20T08:24:39Z</time></trkpt><trkpt lat="14.311248481211877" lon="120.91582734005706"><ele>94.2</ele><time>2026-04-20T08:24:40Z</time></trkpt><trkpt lat="14.311146211962596" lon="120.91583490541404"><ele>94.8</ele><time>2026-04-20T08:24:41Z</time></trkpt><trkpt lat="14.311044556665431" lon="120.9158408130829"><ele>95.4</ele><time>2026-04-20T08:24:42Z</time></trkpt><trkpt lat="14.310938074498836" lon="120.91585464552223"><ele>96.0</ele><time>2026-04-20T08:24:43Z</time></trkpt><trkpt lat="14.31083170957244" lon="120.91587606838776"><ele>95.8</ele><time>2026-04-20T08:24:44Z</time></trkpt><trkpt lat="14.310724772284733" lon="120.91591194757297"><ele>95.6</ele><time>2026-04-20T08:24:45.001Z</time></trkpt><trkpt lat="14.310619773144722" lon="120.91595083494516"><ele>95.4</ele><time>2026-04-20T08:24:46.001Z</time></trkpt><trkpt lat="14.310521451585283" lon="120.91598936534773"><ele>95.2</ele><time>2026-04-20T08:24:47.001Z</time></trkpt><trkpt lat="14.310431907373843" lon="120.91603061176168"><ele>95.0</ele><time>2026-04-20T08:24:48.001Z</time></trkpt><trkpt lat="14.310345942688864" lon="120.91607435523585"><ele>95.33333333333334</ele><time>2026-04-20T08:24:49.001Z</time></trkpt><trkpt lat="14.310267844069545" lon="120.9161256305917"><ele>95.66666666666667</ele><time>2026-04-20T08:24:50.001Z</time></trkpt><trkpt lat="14.310194599119006" lon="120.91617498719644"><ele>96.0</ele><time>2026-04-20T08:24:51.001Z</time></trkpt><trkpt lat="14.310125051527372" lon="120.9162247644195"><ele>96.33333333333334</ele><time>2026-04-20T08:24:52.001Z</time></trkpt><trkpt lat="14.310071502554598" lon="120.916270687742"><ele>96.66666666666667</ele><time>2026-04-20T08:24:53.001Z</time></trkpt><trkpt lat="14.310020355764347" lon="120.91631421756942"><ele>97.0</ele><time>2026-04-20T08:24:54.001Z</time></trkpt><trkpt lat="14.30994149212476" lon="120.91639241741093"><ele>97.00000000000001</ele><time>2026-04-20T08:24:56.001Z</time></trkpt><trkpt lat="14.309890732281378" lon="120.91644114283585"><ele>97.0</ele><time>2026-04-20T08:24:58.001Z</time></trkpt><trkpt lat="14.309837574058768" lon="120.91649107740649"><ele>97.0</ele><time>2026-04-20T08:25:01.001Z</time></trkpt><trkpt lat="14.30979192603353" lon="120.91655658589026"><ele>97.0</ele><time>2026-04-20T08:25:03.001Z</time></trkpt><trkpt lat="14.309740226766577" lon="120.91662444782604"><ele>97.00000000000001</ele><time>2026-04-20T08:25:05.001Z</time></trkpt><trkpt lat="14.30967210105875" lon="120.91663820578235"><ele>97.0</ele><time>2026-04-20T08:25:10.001Z</time></trkpt><trkpt lat="14.309594660319723" lon="120.91664709085258"><ele>97.6</ele><time>2026-04-20T08:25:23.001Z</time></trkpt><trkpt lat="14.30945892999824" lon="120.91662316857084"><ele>98.19999999999999</ele><time>2026-04-20T08:28:29.025Z</time></trkpt><trkpt lat="14.30939274735437" lon="120.91673762235006"><ele>98.8</ele><time>2026-04-20T08:28:35.024Z</time></trkpt><trkpt lat="14.309309811284798" lon="120.91680337637835"><ele>99.4</ele><time>2026-04-20T08:28:45.025Z</time></trkpt><trkpt lat="14.309290333727112" lon="120.91686639393049"><ele>100.0</ele><time>2026-04-20T08:28:46.019Z</time></trkpt><trkpt lat="14.309236491521279" lon="120.91691964319453"><ele>100.00000000000001</ele><time>2026-04-20T08:28:48.018Z</time></trkpt><trkpt lat="14.309338229816017" lon="120.91687625550131"><ele>100.0</ele><time>2026-04-20T08:29:01.016Z</time></trkpt><trkpt lat="14.309338692831991" lon="120.91680811208823"><ele>100.0</ele><time>2026-04-20T08:29:06.019Z</time></trkpt><trkpt lat="14.30939613601119" lon="120.91685351763493"><ele>100.0</ele><time>2026-04-20T08:29:30.016Z</time></trkpt><trkpt lat="14.309456248176598" lon="120.9169160356679"><ele>100.00000000000001</ele><time>2026-04-20T08:29:33.014Z</time></trkpt><trkpt lat="14.309446456510715" lon="120.91684720297789"><ele>100.0</ele><time>2026-04-20T08:29:36.016Z</time></trkpt><trkpt lat="14.309427098568023" lon="120.91674109367291"><ele>100.0</ele><time>2026-04-20T08:29:39.017Z</time></trkpt><trkpt lat="14.309413666849167" lon="120.91680693909979"><ele>100.0</ele><time>2026-04-20T08:29:49.015Z</time></trkpt><trkpt lat="14.3093806839478" lon="120.91690851723317"><ele>100.0</ele><time>2026-04-20T08:29:55.016Z</time></trkpt><trkpt lat="14.309352440518621" lon="120.91682327343986"><ele>100.0</ele><time>2026-04-20T08:29:56.015Z</time></trkpt><trkpt lat="14.309300954534882" lon="120.91675987004622"><ele>100.0</ele><time>2026-04-20T08:29:57.014Z</time></trkpt><trkpt lat="14.309185087508315" lon="120.91670875530673"><ele>100.66666666666667</ele><time>2026-04-20T08:29:58.014Z</time></trkpt><trkpt lat="14.309106905993122" lon="120.91668403999981"><ele>101.33333333333334</ele><time>2026-04-20T08:29:59.013Z</time></trkpt><trkpt lat="14.309371941665894" lon="120.91667609729708"><ele>102.0</ele><time>2026-04-20T08:30:18.013Z</time></trkpt><trkpt lat="14.309492517202056" lon="120.91660628053717"><ele>99.5</ele><time>2026-04-20T08:30:22.013Z</time></trkpt><trkpt lat="14.309896472406217" lon="120.91668688769607"><ele>97.0</ele><time>2026-04-20T08:58:25Z</time></trkpt><trkpt lat="14.309841108226369" lon="120.91704016423208"><ele>97.0</ele><time>2026-04-20T08:58:27Z</time></trkpt><trkpt lat="14.30991922398238" lon="120.91677675463495"><ele>97.0</ele><time>2026-04-20T08:58:38Z</time></trkpt><trkpt lat="14.309773744054231" lon="120.91658319837966"><ele>97.83333333333334</ele><time>2026-04-20T08:59:18.001Z</time></trkpt><trkpt lat="14.309693068204046" lon="120.91660387046335"><ele>98.66666666666667</ele><time>2026-04-20T08:59:31Z</time></trkpt><trkpt lat="14.30964402487207" lon="120.91668199485328"><ele>99.5</ele><time>2026-04-20T08:59:34Z</time></trkpt><trkpt lat="14.309611780811355" lon="120.91662523336086"><ele>100.33333333333334</ele><time>2026-04-20T08:59:37Z</time></trkpt><trkpt lat="14.309543539903485" lon="120.91662697830732"><ele>101.16666666666667</ele><time>2026-04-20T08:59:39Z</time></trkpt><trkpt lat="14.309456201871628" lon="120.91659688695913"><ele>102.0</ele><time>2026-04-20T08:59:42Z</time></trkpt><trkpt lat="14.309664218429477" lon="120.91670638233386"><ele>101.5</ele><time>2026-04-20T09:00:06.027Z</time></trkpt><trkpt lat="14.30963910710141" lon="120.91681916327106"><ele>101.0</ele><time>2026-04-20T09:00:28.027Z</time></trkpt><trkpt lat="14.309682308535644" lon="120.91690061041236"><ele>100.5</ele><time>2026-04-20T09:00:29.027Z</time></trkpt><trkpt lat="14.309683983363161" lon="120.9169901398312"><ele>100.0</ele><time>2026-04-20T09:00:33.021Z</time></trkpt><trkpt lat="14.309631402736022" lon="120.91714923839258"><ele>100.0</ele><time>2026-04-20T09:00:42.017Z</time></trkpt><trkpt lat="14.309619776859023" lon="120.9172191838653"><ele>100.0</ele><time>2026-04-20T09:00:43.021Z</time></trkpt><trkpt lat="14.309689741650995" lon="120.91713766663955"><ele>100.0</ele><time>2026-04-20T09:00:46.021Z</time></trkpt><trkpt lat="14.309780412277618" lon="120.91697175162972"><ele>100.0</ele><time>2026-04-20T09:01:14.018Z</time></trkpt><trkpt lat="14.309810072364236" lon="120.91689658320931"><ele>100.0</ele><time>2026-04-20T09:01:15.017Z</time></trkpt><trkpt lat="14.309789317685743" lon="120.91696087794266"><ele>99.0</ele><time>2026-04-20T09:01:52.016Z</time></trkpt><trkpt lat="14.30977073176435" lon="120.91704566899571"><ele>98.0</ele><time>2026-04-20T09:01:54.015Z</time></trkpt><trkpt lat="14.30988527848226" lon="120.91696151884518"><ele>97.0</ele><time>2026-04-20T09:01:57.023Z</time></trkpt><trkpt lat="14.309943042605791" lon="120.91672672880995"><ele>97.00000000000001</ele><time>2026-04-20T09:01:58.024Z</time></trkpt><trkpt lat="14.309902807425255" lon="120.91666465065536"><ele>97.0</ele><time>2026-04-20T09:02:00Z</time></trkpt><trkpt lat="14.309806792245956" lon="120.91663978309793"><ele>97.0</ele><time>2026-04-20T09:02:03Z</time></trkpt><trkpt lat="14.309741209184512" lon="120.91658683017644"><ele>97.0</ele><time>2026-04-20T09:02:04Z</time></trkpt><trkpt lat="14.309666797611063" lon="120.91657453747695"><ele>97.00000000000001</ele><time>2026-04-20T09:02:06Z</time></trkpt><trkpt lat="14.309602703216825" lon="120.91656685346393"><ele>97.0</ele><time>2026-04-20T09:02:11Z</time></trkpt><trkpt lat="14.309616384570315" lon="120.91663340424792"><ele>97.00000000000001</ele><time>2026-04-20T09:04:44Z</time></trkpt><trkpt lat="14.309685178231582" lon="120.91663481078555"><ele>97.0</ele><time>2026-04-20T09:05:04Z</time></trkpt><trkpt lat="14.309767576177958" lon="120.91662589598108"><ele>97.0</ele><time>2026-04-20T09:05:11Z</time></trkpt><trkpt lat="14.309847708675747" lon="120.91657715173514"><ele>97.0</ele><time>2026-04-20T09:05:13Z</time></trkpt><trkpt lat="14.309893026855805" lon="120.91652961952269"><ele>97.00000000000001</ele><time>2026-04-20T09:05:14Z</time></trkpt><trkpt lat="14.309945890951319" lon="120.9164774540505"><ele>97.0</ele><time>2026-04-20T09:05:15Z</time></trkpt><trkpt lat="14.31000643453233" lon="120.91642203517615"><ele>97.0</ele><time>2026-04-20T09:05:16Z</time></trkpt><trkpt lat="14.310073161542931" lon="120.91635554847628"><ele>97.0</ele><time>2026-04-20T09:05:17Z</time></trkpt><trkpt lat="14.310147204204608" lon="120.91628785029627"><ele>97.0</ele><time>2026-04-20T09:05:18Z</time></trkpt><trkpt lat="14.310229683913061" lon="120.91622253956325"><ele>97.0</ele><time>2026-04-20T09:05:19Z</time></trkpt><trkpt lat="14.310315482328262" lon="120.91615945304542"><ele>97.0</ele><time>2026-04-20T09:05:20Z</time></trkpt><trkpt lat="14.31041545708179" lon="120.91609620580638"><ele>97.0</ele><time>2026-04-20T09:05:21Z</time></trkpt><trkpt lat="14.310523972531255" lon="120.91604106863049"><ele>97.0</ele><time>2026-04-20T09:05:22Z</time></trkpt><trkpt lat="14.310637645748603" lon="120.91599432529598"><ele>97.0</ele><time>2026-04-20T09:05:23Z</time></trkpt><trkpt lat="14.310759481191328" lon="120.9159521696188"><ele>97.0</ele><time>2026-04-20T09:05:24Z</time></trkpt><trkpt lat="14.310884726526485" lon="120.91591621545781"><ele>96.75</ele><time>2026-04-20T09:05:25Z</time></trkpt><trkpt lat="14.31100715235614" lon="120.91588639693208"><ele>96.5</ele><time>2026-04-20T09:05:26Z</time></trkpt><trkpt lat="14.311125390524113" lon="120.91586650217106"><ele>96.25</ele><time>2026-04-20T09:05:27Z</time></trkpt><trkpt lat="14.31124747739492" lon="120.91585764924108"><ele>96.0</ele><time>2026-04-20T09:05:28Z</time></trkpt><trkpt lat="14.311363738838065" lon="120.91585241147627"><ele>95.25</ele><time>2026-04-20T09:05:29Z</time></trkpt><trkpt lat="14.311493684065612" lon="120.91585329956708"><ele>94.5</ele><time>2026-04-20T09:05:30Z</time></trkpt><trkpt lat="14.311617749718543" lon="120.91584270097411"><ele>93.75</ele><time>2026-04-20T09:05:31Z</time></trkpt><trkpt lat="14.31170091629077" lon="120.91583628549634"><ele>93.0</ele><time>2026-04-20T09:05:32Z</time></trkpt><trkpt lat="14.311827765868514" lon="120.91583211178005"><ele>93.0</ele><time>2026-04-20T09:05:33Z</time></trkpt><trkpt lat="14.311932884857047" lon="120.91582250552632"><ele>93.0</ele><time>2026-04-20T09:05:34Z</time></trkpt><trkpt lat="14.312043360201544" lon="120.91581704992393"><ele>93.0</ele><time>2026-04-20T09:05:35Z</time></trkpt><trkpt lat="14.312150539625007" lon="120.9158097978977"><ele>93.0</ele><time>2026-04-20T09:05:36Z</time></trkpt><trkpt lat="14.312262524018251" lon="120.91580209249503"><ele>93.0</ele><time>2026-04-20T09:05:37Z</time></trkpt><trkpt lat="14.312359142995714" lon="120.9157995020565"><ele>92.80000000000001</ele><time>2026-04-20T09:05:38Z</time></trkpt><trkpt lat="14.31245464668762" lon="120.91580268689452"><ele>92.6</ele><time>2026-04-20T09:05:39Z</time></trkpt><trkpt lat="14.312537098396962" lon="120.91580369960641"><ele>92.4</ele><time>2026-04-20T09:05:40Z</time></trkpt><trkpt lat="14.312630120035545" lon="120.91580119273858"><ele>92.19999999999999</ele><time>2026-04-20T09:05:41Z</time></trkpt><trkpt lat="14.312722811584935" lon="120.91578194297372"><ele>92.0</ele><time>2026-04-20T09:05:42Z</time></trkpt><trkpt lat="14.312825025467657" lon="120.91579451697682"><ele>92.0</ele><time>2026-04-20T09:05:43Z</time></trkpt><trkpt lat="14.312926186568365" lon="120.91578910391948"><ele>92.0</ele><time>2026-04-20T09:05:44Z</time></trkpt><trkpt lat="14.313028256494936" lon="120.91578033553729"><ele>92.0</ele><time>2026-04-20T09:05:45Z</time></trkpt><trkpt lat="14.313131585524246" lon="120.915775979345"><ele>92.0</ele><time>2026-04-20T09:05:46Z</time></trkpt><trkpt lat="14.313231610815983" lon="120.91576177403167"><ele>92.0</ele><time>2026-04-20T09:05:47Z</time></trkpt><trkpt lat="14.313333300003569" lon="120.91574626842771"><ele>91.8</ele><time>2026-04-20T09:05:48Z</time></trkpt><trkpt lat="14.313434472707847" lon="120.91573916144435"><ele>91.6</ele><time>2026-04-20T09:05:49Z</time></trkpt><trkpt lat="14.313509747396967" lon="120.91573474796691"><ele>91.39999999999999</ele><time>2026-04-20T09:05:50Z</time></trkpt><trkpt lat="14.313603624416343" lon="120.91573261042723"><ele>91.19999999999999</ele><time>2026-04-20T09:05:52Z</time></trkpt><trkpt lat="14.313688361594918" lon="120.91572950291905"><ele>91.0</ele><time>2026-04-20T09:05:54Z</time></trkpt><trkpt lat="14.313782389497385" lon="120.9157184013505"><ele>91.0</ele><time>2026-04-20T09:05:56Z</time></trkpt><trkpt lat="14.313872764135644" lon="120.91571948941981"><ele>91.0</ele><time>2026-04-20T09:05:58Z</time></trkpt><trkpt lat="14.313956035530255" lon="120.91571724533091"><ele>91.0</ele><time>2026-04-20T09:06:00Z</time></trkpt><trkpt lat="14.31404380359223" lon="120.91571586746032"><ele>91.0</ele><time>2026-04-20T09:06:02Z</time></trkpt><trkpt lat="14.314155695346303" lon="120.91571041742515"><ele>91.0</ele><time>2026-04-20T09:06:04Z</time></trkpt><trkpt lat="14.314231400023774" lon="120.91570693040642"><ele>91.0</ele><time>2026-04-20T09:06:06Z</time></trkpt><trkpt lat="14.314298721317673" lon="120.91570551100178"><ele>91.4</ele><time>2026-04-20T09:06:08Z</time></trkpt><trkpt lat="14.314399943935454" lon="120.91569120103904"><ele>91.8</ele><time>2026-04-20T09:06:10Z</time></trkpt><trkpt lat="14.314522685177549" lon="120.91568316922344"><ele>92.2</ele><time>2026-04-20T09:06:12Z</time></trkpt><trkpt lat="14.314589659411501" lon="120.9156795988596"><ele>92.60000000000001</ele><time>2026-04-20T09:06:13Z</time></trkpt><trkpt lat="14.314717729529367" lon="120.91566810845929"><ele>93.0</ele><time>2026-04-20T09:06:15Z</time></trkpt><trkpt lat="14.314782410011256" lon="120.91565498579969"><ele>92.0</ele><time>2026-04-20T09:06:16Z</time></trkpt><trkpt lat="14.314899799646586" lon="120.91562133153693"><ele>91.0</ele><time>2026-04-20T09:06:18Z</time></trkpt><trkpt lat="14.315018270580007" lon="120.91558899148507"><ele>90.0</ele><time>2026-04-20T09:06:20Z</time></trkpt><trkpt lat="14.315139122496651" lon="120.91555589743955"><ele>89.0</ele><time>2026-04-20T09:06:22Z</time></trkpt><trkpt lat="14.315271563115104" lon="120.91552512509315"><ele>89.0</ele><time>2026-04-20T09:06:24Z</time></trkpt><trkpt lat="14.315417552741724" lon="120.91548175745174"><ele>89.0</ele><time>2026-04-20T09:06:26Z</time></trkpt><trkpt lat="14.31549771985857" lon="120.91546354904685"><ele>89.0</ele><time>2026-04-20T09:06:27Z</time></trkpt><trkpt lat="14.315599411289222" lon="120.91544532348978"><ele>89.0</ele><time>2026-04-20T09:06:28Z</time></trkpt><trkpt lat="14.315703560814546" lon="120.91543076175135"><ele>89.0</ele><time>2026-04-20T09:06:29Z</time></trkpt><trkpt lat="14.315804347285612" lon="120.9154211778944"><ele>89.0</ele><time>2026-04-20T09:06:30Z</time></trkpt><trkpt lat="14.315920783507577" lon="120.9154263489845"><ele>89.0</ele><time>2026-04-20T09:06:31Z</time></trkpt><trkpt lat="14.316032417044417" lon="120.91543465018599"><ele>89.0</ele><time>2026-04-20T09:06:32Z</time></trkpt><trkpt lat="14.316147273355677" lon="120.9154464833037"><ele>89.0</ele><time>2026-04-20T09:06:33Z</time></trkpt><trkpt lat="14.316263644797152" lon="120.91546744583013"><ele>89.0</ele><time>2026-04-20T09:06:34Z</time></trkpt><trkpt lat="14.316384175408443" lon="120.91548239632017"><ele>89.0</ele><time>2026-04-20T09:06:35Z</time></trkpt><trkpt lat="14.316509047488868" lon="120.91550463267171"><ele>89.0</ele><time>2026-04-20T09:06:36Z</time></trkpt><trkpt lat="14.316633749542223" lon="120.91552021639232"><ele>89.0</ele><time>2026-04-20T09:06:37Z</time></trkpt><trkpt lat="14.316759923294802" lon="120.91553554677726"><ele>88.75</ele><time>2026-04-20T09:06:38Z</time></trkpt><trkpt lat="14.316887946253566" lon="120.91554929786525"><ele>88.5</ele><time>2026-04-20T09:06:39Z</time></trkpt><trkpt lat="14.317007142566299" lon="120.91556350757925"><ele>88.25</ele><time>2026-04-20T09:06:40Z</time></trkpt><trkpt lat="14.317130683783912" lon="120.91556943381121"><ele>88.0</ele><time>2026-04-20T09:06:41Z</time></trkpt><trkpt lat="14.317247730542565" lon="120.91556684733729"><ele>87.75</ele><time>2026-04-20T09:06:42Z</time></trkpt><trkpt lat="14.317365971635544" lon="120.91555420348523"><ele>87.5</ele><time>2026-04-20T09:06:43Z</time></trkpt><trkpt lat="14.317471973159007" lon="120.91554286634566"><ele>87.25</ele><time>2026-04-20T09:06:44Z</time></trkpt><trkpt lat="14.317595188019387" lon="120.91553534821847"><ele>87.0</ele><time>2026-04-20T09:06:45Z</time></trkpt><trkpt lat="14.31769887996525" lon="120.91550071373929"><ele>87.0</ele><time>2026-04-20T09:06:46Z</time></trkpt><trkpt lat="14.317813929267404" lon="120.91549378810686"><ele>87.0</ele><time>2026-04-20T09:06:47Z</time></trkpt><trkpt lat="14.317909524509538" lon="120.91543112436578"><ele>87.0</ele><time>2026-04-20T09:06:48Z</time></trkpt><trkpt lat="14.317974629810138" lon="120.91541081515062"><ele>87.0</ele><time>2026-04-20T09:06:49Z</time></trkpt><trkpt lat="14.318036089223337" lon="120.91538757741475"><ele>87.0</ele><time>2026-04-20T09:06:50Z</time></trkpt><trkpt lat="14.318106235639277" lon="120.91536597536331"><ele>87.0</ele><time>2026-04-20T09:06:51Z</time></trkpt><trkpt lat="14.318171252372942" lon="120.91533511163716"><ele>86.66666666666667</ele><time>2026-04-20T09:06:52Z</time></trkpt><trkpt lat="14.318237299713862" lon="120.91530268032123"><ele>86.33333333333333</ele><time>2026-04-20T09:06:53Z</time></trkpt><trkpt lat="14.318294855419675" lon="120.91525440672898"><ele>86.0</ele><time>2026-04-20T09:06:54Z</time></trkpt><trkpt lat="14.318364053658623" lon="120.91521960496235"><ele>85.66666666666666</ele><time>2026-04-20T09:06:55Z</time></trkpt><trkpt lat="14.31843641175539" lon="120.91517059230965"><ele>85.33333333333333</ele><time>2026-04-20T09:06:56Z</time></trkpt><trkpt lat="14.318509567523034" lon="120.9151154649858"><ele>85.0</ele><time>2026-04-20T09:06:57Z</time></trkpt><trkpt lat="14.31859607886839" lon="120.91507009656193"><ele>85.0</ele><time>2026-04-20T09:06:58Z</time></trkpt><trkpt lat="14.31866901672059" lon="120.91501173364905"><ele>85.0</ele><time>2026-04-20T09:06:59Z</time></trkpt><trkpt lat="14.318732584864783" lon="120.91492883708544"><ele>85.0</ele><time>2026-04-20T09:07:00Z</time></trkpt><trkpt lat="14.318803142613964" lon="120.91486544463275"><ele>85.0</ele><time>2026-04-20T09:07:01Z</time></trkpt><trkpt lat="14.318894486721886" lon="120.91479714223748"><ele>85.0</ele><time>2026-04-20T09:07:02Z</time></trkpt><trkpt lat="14.318971648425409" lon="120.91472389107066"><ele>84.8</ele><time>2026-04-20T09:07:03Z</time></trkpt><trkpt lat="14.319052832125747" lon="120.91464713080553"><ele>84.6</ele><time>2026-04-20T09:07:04Z</time></trkpt><trkpt lat="14.319129041547633" lon="120.91457017855089"><ele>84.4</ele><time>2026-04-20T09:07:05Z</time></trkpt><trkpt lat="14.319208567709074" lon="120.91449189303935"><ele>84.2</ele><time>2026-04-20T09:07:06Z</time></trkpt><trkpt lat="14.31929275742296" lon="120.91440983280802"><ele>84.0</ele><time>2026-04-20T09:07:07Z</time></trkpt><trkpt lat="14.319374714722729" lon="120.91432994853001"><ele>84.0</ele><time>2026-04-20T09:07:08Z</time></trkpt><trkpt lat="14.319454580601528" lon="120.91425210303488"><ele>84.0</ele><time>2026-04-20T09:07:09Z</time></trkpt><trkpt lat="14.319528531671214" lon="120.91417963235479"><ele>84.0</ele><time>2026-04-20T09:07:10Z</time></trkpt><trkpt lat="14.319597635156793" lon="120.91411165965461"><ele>84.0</ele><time>2026-04-20T09:07:11Z</time></trkpt><trkpt lat="14.319668611326055" lon="120.91404198344785"><ele>84.0</ele><time>2026-04-20T09:07:12Z</time></trkpt><trkpt lat="14.31972938770437" lon="120.91398265039246"><ele>83.66666666666667</ele><time>2026-04-20T09:07:13Z</time></trkpt><trkpt lat="14.319788425980994" lon="120.91392501415936"><ele>83.33333333333333</ele><time>2026-04-20T09:07:14Z</time></trkpt><trkpt lat="14.319843384158785" lon="120.91387136113448"><ele>83.0</ele><time>2026-04-20T09:07:15Z</time></trkpt><trkpt lat="14.319900602458922" lon="120.91381518579101"><ele>82.66666666666666</ele><time>2026-04-20T09:07:16Z</time></trkpt><trkpt lat="14.31995262731141" lon="120.91376502852341"><ele>82.33333333333333</ele><time>2026-04-20T09:07:17Z</time></trkpt><trkpt lat="14.320033460421213" lon="120.91368283965048"><ele>82.0</ele><time>2026-04-20T09:07:19Z</time></trkpt><trkpt lat="14.320125754567561" lon="120.91365793912571"><ele>82.0</ele><time>2026-04-20T09:07:21Z</time></trkpt><trkpt lat="14.320209643015271" lon="120.91360471542241"><ele>82.0</ele><time>2026-04-20T09:07:23Z</time></trkpt><trkpt lat="14.320295151023881" lon="120.91357285565535"><ele>82.0</ele><time>2026-04-20T09:07:25Z</time></trkpt><trkpt lat="14.320384715269718" lon="120.91354251510315"><ele>82.0</ele><time>2026-04-20T09:07:27Z</time></trkpt><trkpt lat="14.320482484720753" lon="120.91350415510598"><ele>82.0</ele><time>2026-04-20T09:07:29Z</time></trkpt><trkpt lat="14.320576068128764" lon="120.91346687790762"><ele>82.0</ele><time>2026-04-20T09:07:31Z</time></trkpt><trkpt lat="14.320683124350483" lon="120.91342511847212"><ele>82.0</ele><time>2026-04-20T09:07:33Z</time></trkpt><trkpt lat="14.320792821103993" lon="120.91337915503694"><ele>82.0</ele><time>2026-04-20T09:07:35Z</time></trkpt><trkpt lat="14.320900165496397" lon="120.91333767670031"><ele>82.0</ele><time>2026-04-20T09:07:37Z</time></trkpt><trkpt lat="14.32099895188439" lon="120.91330214498481"><ele>82.0</ele><time>2026-04-20T09:07:39Z</time></trkpt><trkpt lat="14.321108421958858" lon="120.91326164654855"><ele>82.0</ele><time>2026-04-20T09:07:41Z</time></trkpt><trkpt lat="14.32116993818891" lon="120.91323778853638"><ele>82.0</ele><time>2026-04-20T09:07:42Z</time></trkpt><trkpt lat="14.321296809717827" lon="120.91319120716928"><ele>82.0</ele><time>2026-04-20T09:07:44Z</time></trkpt><trkpt lat="14.321358860995572" lon="120.91316876126916"><ele>82.0</ele><time>2026-04-20T09:07:45Z</time></trkpt><trkpt lat="14.32141926030094" lon="120.9131482214427"><ele>82.0</ele><time>2026-04-20T09:07:46Z</time></trkpt><trkpt lat="14.321481343573959" lon="120.9131308699934"><ele>81.8</ele><time>2026-04-20T09:07:47Z</time></trkpt><trkpt lat="14.321579984099198" lon="120.91309912876707"><ele>81.6</ele><time>2026-04-20T09:07:49Z</time></trkpt><trkpt lat="14.321668565291851" lon="120.9130728004116"><ele>81.39999999999999</ele><time>2026-04-20T09:07:51Z</time></trkpt><trkpt lat="14.321777743315254" lon="120.91303607449626"><ele>81.19999999999999</ele><time>2026-04-20T09:07:53Z</time></trkpt><trkpt lat="14.321896309186195" lon="120.91300487434727"><ele>81.0</ele><time>2026-04-20T09:07:55Z</time></trkpt><trkpt lat="14.321966005564388" lon="120.91298109954148"><ele>81.0</ele><time>2026-04-20T09:07:56Z</time></trkpt><trkpt lat="14.322028715591722" lon="120.91295984807364"><ele>81.0</ele><time>2026-04-20T09:07:57Z</time></trkpt><trkpt lat="14.322095163662853" lon="120.91293422689427"><ele>81.0</ele><time>2026-04-20T09:07:58Z</time></trkpt><trkpt lat="14.322156499276465" lon="120.91291333531265"><ele>81.0</ele><time>2026-04-20T09:07:59Z</time></trkpt><trkpt lat="14.322227614563241" lon="120.91289039882038"><ele>81.0</ele><time>2026-04-20T09:08:00Z</time></trkpt><trkpt lat="14.32229188080973" lon="120.91287060619258"><ele>81.0</ele><time>2026-04-20T09:08:01Z</time></trkpt><trkpt lat="14.322369781088186" lon="120.91284789372266"><ele>81.0</ele><time>2026-04-20T09:08:02Z</time></trkpt><trkpt lat="14.32244328564464" lon="120.91283233929535"><ele>80.33333333333333</ele><time>2026-04-20T09:08:03Z</time></trkpt><trkpt lat="14.32252435725285" lon="120.91281038745367"><ele>79.66666666666667</ele><time>2026-04-20T09:08:04Z</time></trkpt><trkpt lat="14.322606518839557" lon="120.91279196769618"><ele>79.0</ele><time>2026-04-20T09:08:05Z</time></trkpt><trkpt lat="14.322688023575736" lon="120.91276524513059"><ele>78.33333333333334</ele><time>2026-04-20T09:08:06Z</time></trkpt><trkpt lat="14.32275238777997" lon="120.91274827948118"><ele>77.66666666666667</ele><time>2026-04-20T09:08:07Z</time></trkpt><trkpt lat="14.322847601134047" lon="120.91272799578863"><ele>77.0</ele><time>2026-04-20T09:08:09Z</time></trkpt><trkpt lat="14.322912587758427" lon="120.91271393834938"><ele>77.0</ele><time>2026-04-20T09:08:11Z</time></trkpt><trkpt lat="14.323032429758376" lon="120.91266732371896"><ele>77.0</ele><time>2026-04-20T09:08:13Z</time></trkpt><trkpt lat="14.323113960576567" lon="120.91264362226322"><ele>77.0</ele><time>2026-04-20T09:08:14Z</time></trkpt><trkpt lat="14.323199878654908" lon="120.91261991751591"><ele>77.0</ele><time>2026-04-20T09:08:15Z</time></trkpt><trkpt lat="14.323296359097695" lon="120.91258917207088"><ele>77.0</ele><time>2026-04-20T09:08:16Z</time></trkpt><trkpt lat="14.323402813873987" lon="120.91255910983776"><ele>77.75</ele><time>2026-04-20T09:08:17Z</time></trkpt><trkpt lat="14.323507995134909" lon="120.91252986348124"><ele>78.5</ele><time>2026-04-20T09:08:18Z</time></trkpt><trkpt lat="14.323619271877758" lon="120.91250225990761"><ele>79.25</ele><time>2026-04-20T09:08:19Z</time></trkpt><trkpt lat="14.323739547807683" lon="120.91246732606913"><ele>80.0</ele><time>2026-04-20T09:08:20Z</time></trkpt><trkpt lat="14.323856926510533" lon="120.91243604444514"><ele>79.25</ele><time>2026-04-20T09:08:21Z</time></trkpt><trkpt lat="14.323978851691342" lon="120.91240366485384"><ele>78.5</ele><time>2026-04-20T09:08:22Z</time></trkpt><trkpt lat="14.324103153604739" lon="120.91237292416919"><ele>77.75</ele><time>2026-04-20T09:08:23Z</time></trkpt><trkpt lat="14.32423520801173" lon="120.9123415733688"><ele>77.0</ele><time>2026-04-20T09:08:24Z</time></trkpt><trkpt lat="14.324359689177486" lon="120.91231421426208"><ele>77.0</ele><time>2026-04-20T09:08:25Z</time></trkpt><trkpt lat="14.324487379555103" lon="120.91228755262374"><ele>77.0</ele><time>2026-04-20T09:08:26Z</time></trkpt><trkpt lat="14.324621429212202" lon="120.91225693555484"><ele>77.0</ele><time>2026-04-20T09:08:27Z</time></trkpt><trkpt lat="14.324746628233475" lon="120.91222761223"><ele>77.0</ele><time>2026-04-20T09:08:28Z</time></trkpt><trkpt lat="14.324874668611114" lon="120.9121985995612"><ele>77.0</ele><time>2026-04-20T09:08:29Z</time></trkpt><trkpt lat="14.325002917785284" lon="120.91217252227823"><ele>77.0</ele><time>2026-04-20T09:08:30Z</time></trkpt><trkpt lat="14.32512665695245" lon="120.91215109073971"><ele>77.0</ele><time>2026-04-20T09:08:31Z</time></trkpt><trkpt lat="14.325244077035665" lon="120.91212799141314"><ele>77.0</ele><time>2026-04-20T09:08:32Z</time></trkpt><trkpt lat="14.325354643429007" lon="120.91210590509608"><ele>77.0</ele><time>2026-04-20T09:08:33Z</time></trkpt><trkpt lat="14.325455500708376" lon="120.9120871596161"><ele>77.0</ele><time>2026-04-20T09:08:34Z</time></trkpt><trkpt lat="14.325555719746868" lon="120.91206610215508"><ele>77.0</ele><time>2026-04-20T09:08:35Z</time></trkpt><trkpt lat="14.325652145326243" lon="120.91204788132566"><ele>77.0</ele><time>2026-04-20T09:08:36Z</time></trkpt><trkpt lat="14.325742165631162" lon="120.91203145953479"><ele>77.0</ele><time>2026-04-20T09:08:37Z</time></trkpt><trkpt lat="14.325831399121512" lon="120.91201261389611"><ele>76.8</ele><time>2026-04-20T09:08:38Z</time></trkpt><trkpt lat="14.32592831448976" lon="120.9119892384824"><ele>76.6</ele><time>2026-04-20T09:08:39Z</time></trkpt><trkpt lat="14.326029905843617" lon="120.91196393028103"><ele>76.39999999999999</ele><time>2026-04-20T09:08:40Z</time></trkpt><trkpt lat="14.326132225741306" lon="120.91194810823886"><ele>76.2</ele><time>2026-04-20T09:08:41Z</time></trkpt><trkpt lat="14.326236144974423" lon="120.91193293311245"><ele>76.0</ele><time>2026-04-20T09:08:42Z</time></trkpt><trkpt lat="14.326342555359341" lon="120.91191264908983"><ele>75.5</ele><time>2026-04-20T09:08:43Z</time></trkpt><trkpt lat="14.326447973927769" lon="120.91188871829733"><ele>75.0</ele><time>2026-04-20T09:08:44Z</time></trkpt><trkpt lat="14.326534332359818" lon="120.911874987956"><ele>74.5</ele><time>2026-04-20T09:08:45Z</time></trkpt><trkpt lat="14.32661487447589" lon="120.91186498241986"><ele>74.0</ele><time>2026-04-20T09:08:46Z</time></trkpt><trkpt lat="14.326700036523576" lon="120.91183842718269"><ele>73.5</ele><time>2026-04-20T09:08:47Z</time></trkpt><trkpt lat="14.326772332670581" lon="120.91182705468441"><ele>73.0</ele><time>2026-04-20T09:08:48Z</time></trkpt><trkpt lat="14.326841574825698" lon="120.91180617412779"><ele>73.0</ele><time>2026-04-20T09:08:49Z</time></trkpt><trkpt lat="14.32690410696463" lon="120.91179843073516"><ele>73.0</ele><time>2026-04-20T09:08:50Z</time></trkpt><trkpt lat="14.326965530122735" lon="120.91178352559439"><ele>73.0</ele><time>2026-04-20T09:08:51Z</time></trkpt><trkpt lat="14.327093513680824" lon="120.91175454130862"><ele>73.0</ele><time>2026-04-20T09:08:53Z</time></trkpt><trkpt lat="14.327163448499025" lon="120.91173804534236"><ele>73.0</ele><time>2026-04-20T09:08:54Z</time></trkpt><trkpt lat="14.327232573753491" lon="120.91172739178634"><ele>73.0</ele><time>2026-04-20T09:08:55Z</time></trkpt><trkpt lat="14.327312636227676" lon="120.91170713220461"><ele>73.2</ele><time>2026-04-20T09:08:56Z</time></trkpt><trkpt lat="14.327395161483858" lon="120.91168646896116"><ele>73.4</ele><time>2026-04-20T09:08:57Z</time></trkpt><trkpt lat="14.32747682685253" lon="120.91166691011988"><ele>73.60000000000001</ele><time>2026-04-20T09:08:58Z</time></trkpt><trkpt lat="14.327566314088358" lon="120.91164581283282"><ele>73.8</ele><time>2026-04-20T09:08:59Z</time></trkpt><trkpt lat="14.327662823443925" lon="120.91162290632779"><ele>74.0</ele><time>2026-04-20T09:09:00Z</time></trkpt><trkpt lat="14.327756054376366" lon="120.91160553729324"><ele>74.0</ele><time>2026-04-20T09:09:01Z</time></trkpt><trkpt lat="14.327846498321092" lon="120.9115934647844"><ele>74.0</ele><time>2026-04-20T09:09:02Z</time></trkpt><trkpt lat="14.327945611000116" lon="120.91157628173784"><ele>74.0</ele><time>2026-04-20T09:09:03Z</time></trkpt><trkpt lat="14.328041795763287" lon="120.91156382946028"><ele>74.0</ele><time>2026-04-20T09:09:04Z</time></trkpt><trkpt lat="14.328138559058507" lon="120.9115521637255"><ele>74.0</ele><time>2026-04-20T09:09:05Z</time></trkpt><trkpt lat="14.328218383481197" lon="120.91154783593139"><ele>74.0</ele><time>2026-04-20T09:09:06Z</time></trkpt><trkpt lat="14.3283051289504" lon="120.91153054466804"><ele>74.0</ele><time>2026-04-20T09:09:07Z</time></trkpt><trkpt lat="14.328393142108073" lon="120.91151042174796"><ele>74.0</ele><time>2026-04-20T09:09:08Z</time></trkpt><trkpt lat="14.328468165846548" lon="120.91150784757204"><ele>74.0</ele><time>2026-04-20T09:09:09Z</time></trkpt><trkpt lat="14.328541648666986" lon="120.911495237218"><ele>74.0</ele><time>2026-04-20T09:09:10Z</time></trkpt><trkpt lat="14.328621187394607" lon="120.91147968658078"><ele>74.0</ele><time>2026-04-20T09:09:11Z</time></trkpt><trkpt lat="14.328697739435997" lon="120.91146185433453"><ele>74.0</ele><time>2026-04-20T09:09:12Z</time></trkpt><trkpt lat="14.328773830963629" lon="120.91144198556536"><ele>74.0</ele><time>2026-04-20T09:09:13Z</time></trkpt><trkpt lat="14.328857593176036" lon="120.91141380963317"><ele>74.0</ele><time>2026-04-20T09:09:14Z</time></trkpt><trkpt lat="14.32893772578793" lon="120.91138802389796"><ele>74.0</ele><time>2026-04-20T09:09:15Z</time></trkpt><trkpt lat="14.329016318879656" lon="120.91135543742153"><ele>74.0</ele><time>2026-04-20T09:09:16Z</time></trkpt><trkpt lat="14.329093161784497" lon="120.91132457116989"><ele>74.0</ele><time>2026-04-20T09:09:17Z</time></trkpt><trkpt lat="14.329160895548306" lon="120.91129957315863"><ele>73.85714285714286</ele><time>2026-04-20T09:09:18Z</time></trkpt><trkpt lat="14.329226609188224" lon="120.91127385034524"><ele>73.71428571428571</ele><time>2026-04-20T09:09:19Z</time></trkpt><trkpt lat="14.329287555544717" lon="120.91124972543079"><ele>73.57142857142857</ele><time>2026-04-20T09:09:20Z</time></trkpt><trkpt lat="14.329352384990473" lon="120.91122346942645"><ele>73.42857142857143</ele><time>2026-04-20T09:09:21Z</time></trkpt><trkpt lat="14.329422149392029" lon="120.9111940723221"><ele>73.28571428571429</ele><time>2026-04-20T09:09:22Z</time></trkpt><trkpt lat="14.329490736038508" lon="120.91116779069115"><ele>73.14285714285714</ele><time>2026-04-20T09:09:23Z</time></trkpt><trkpt lat="14.32956617748853" lon="120.91113890391273"><ele>73.0</ele><time>2026-04-20T09:09:24Z</time></trkpt><trkpt lat="14.329644366494703" lon="120.91110684139811"><ele>72.4</ele><time>2026-04-20T09:09:25Z</time></trkpt><trkpt lat="14.329730882286546" lon="120.91107663782566"><ele>71.8</ele><time>2026-04-20T09:09:26Z</time></trkpt><trkpt lat="14.329812698646393" lon="120.9110479240034"><ele>71.2</ele><time>2026-04-20T09:09:27Z</time></trkpt><trkpt lat="14.329903999184516" lon="120.9110096667893"><ele>70.6</ele><time>2026-04-20T09:09:28Z</time></trkpt><trkpt lat="14.32998350915181" lon="120.91098688546207"><ele>70.0</ele><time>2026-04-20T09:09:29Z</time></trkpt><trkpt lat="14.330075404280159" lon="120.91094671393235"><ele>69.8</ele><time>2026-04-20T09:09:30Z</time></trkpt><trkpt lat="14.330168537575538" lon="120.91090115335982"><ele>69.6</ele><time>2026-04-20T09:09:31Z</time></trkpt><trkpt lat="14.330250355711017" lon="120.910874850554"><ele>69.4</ele><time>2026-04-20T09:09:32Z</time></trkpt><trkpt lat="14.33034230462373" lon="120.91083565332654"><ele>69.2</ele><time>2026-04-20T09:09:33Z</time></trkpt><trkpt lat="14.330427368702663" lon="120.91080255824974"><ele>69.0</ele><time>2026-04-20T09:09:34Z</time></trkpt><trkpt lat="14.330516905839161" lon="120.91076649318858"><ele>68.8</ele><time>2026-04-20T09:09:35Z</time></trkpt><trkpt lat="14.330606424300772" lon="120.91073103950008"><ele>68.60000000000001</ele><time>2026-04-20T09:09:36Z</time></trkpt><trkpt lat="14.330704784770148" lon="120.91068804293707"><ele>68.4</ele><time>2026-04-20T09:09:37Z</time></trkpt><trkpt lat="14.330796140619839" lon="120.91065333505662"><ele>68.2</ele><time>2026-04-20T09:09:38Z</time></trkpt><trkpt lat="14.330890151598751" lon="120.91062015219882"><ele>68.0</ele><time>2026-04-20T09:09:39Z</time></trkpt><trkpt lat="14.330989250848857" lon="120.91057768060888"><ele>68.0</ele><time>2026-04-20T09:09:40Z</time></trkpt><trkpt lat="14.331088241813285" lon="120.91053968068455"><ele>68.0</ele><time>2026-04-20T09:09:41Z</time></trkpt><trkpt lat="14.33117428157058" lon="120.91050893138176"><ele>68.0</ele><time>2026-04-20T09:09:42Z</time></trkpt><trkpt lat="14.331255477372169" lon="120.91047984162039"><ele>68.0</ele><time>2026-04-20T09:09:43Z</time></trkpt><trkpt lat="14.331323854213398" lon="120.91045598067888"><ele>68.0</ele><time>2026-04-20T09:09:44Z</time></trkpt><trkpt lat="14.331382872614755" lon="120.91043233406837"><ele>68.0</ele><time>2026-04-20T09:09:45Z</time></trkpt><trkpt lat="14.331447904374778" lon="120.9104066987256"><ele>68.0</ele><time>2026-04-20T09:09:46Z</time></trkpt><trkpt lat="14.331517295678216" lon="120.9103757973163"><ele>68.0</ele><time>2026-04-20T09:09:47Z</time></trkpt><trkpt lat="14.331585977656376" lon="120.91034784970296"><ele>68.0</ele><time>2026-04-20T09:09:48Z</time></trkpt><trkpt lat="14.331657060447865" lon="120.91031681068023"><ele>68.0</ele><time>2026-04-20T09:09:49Z</time></trkpt><trkpt lat="14.3317284813148" lon="120.9102836519037"><ele>68.0</ele><time>2026-04-20T09:09:50Z</time></trkpt><trkpt lat="14.33180862702248" lon="120.91025084266695"><ele>68.0</ele><time>2026-04-20T09:09:51Z</time></trkpt><trkpt lat="14.331888315920205" lon="120.91022236235352"><ele>68.0</ele><time>2026-04-20T09:09:52Z</time></trkpt><trkpt lat="14.331975919233821" lon="120.91018908007105"><ele>68.0</ele><time>2026-04-20T09:09:53Z</time></trkpt><trkpt lat="14.332056114923926" lon="120.91016337723792"><ele>68.0</ele><time>2026-04-20T09:09:54Z</time></trkpt><trkpt lat="14.332133815484799" lon="120.91013666790892"><ele>68.0</ele><time>2026-04-20T09:09:55Z</time></trkpt><trkpt lat="14.332212002099158" lon="120.91010622875837"><ele>68.0</ele><time>2026-04-20T09:09:56Z</time></trkpt><trkpt lat="14.332283428128337" lon="120.9100753845487"><ele>68.0</ele><time>2026-04-20T09:09:57Z</time></trkpt><trkpt lat="14.332352949423646" lon="120.91004686076144"><ele>67.66666666666667</ele><time>2026-04-20T09:09:58Z</time></trkpt><trkpt lat="14.33242379564391" lon="120.91002219635197"><ele>67.33333333333334</ele><time>2026-04-20T09:09:59Z</time></trkpt><trkpt lat="14.332502806279816" lon="120.9099933348798"><ele>67.0</ele><time>2026-04-20T09:10:00Z</time></trkpt><trkpt lat="14.332574900034372" lon="120.90996680254739"><ele>66.66666666666667</ele><time>2026-04-20T09:10:01Z</time></trkpt><trkpt lat="14.332658275288763" lon="120.90993197139483"><ele>66.33333333333333</ele><time>2026-04-20T09:10:02Z</time></trkpt><trkpt lat="14.332745299195123" lon="120.90989393104267"><ele>66.0</ele><time>2026-04-20T09:10:03Z</time></trkpt><trkpt lat="14.332832230641769" lon="120.90986283702945"><ele>66.0</ele><time>2026-04-20T09:10:04Z</time></trkpt><trkpt lat="14.332934859975907" lon="120.90983058380513"><ele>66.0</ele><time>2026-04-20T09:10:05Z</time></trkpt><trkpt lat="14.333042739032717" lon="120.90979839669194"><ele>66.0</ele><time>2026-04-20T09:10:06Z</time></trkpt><trkpt lat="14.333144708858743" lon="120.90977626494733"><ele>66.0</ele><time>2026-04-20T09:10:07Z</time></trkpt><trkpt lat="14.333240730256785" lon="120.90975881274174"><ele>66.0</ele><time>2026-04-20T09:10:08Z</time></trkpt><trkpt lat="14.333340169065396" lon="120.90973954693594"><ele>65.5</ele><time>2026-04-20T09:10:09Z</time></trkpt><trkpt lat="14.333423052980176" lon="120.90972081764684"><ele>65.0</ele><time>2026-04-20T09:10:10Z</time></trkpt><trkpt lat="14.333506035132698" lon="120.90970305956787"><ele>64.5</ele><time>2026-04-20T09:10:11Z</time></trkpt><trkpt lat="14.333588383332362" lon="120.90968222070721"><ele>64.0</ele><time>2026-04-20T09:10:12Z</time></trkpt><trkpt lat="14.333681706737268" lon="120.90965595029658"><ele>63.5</ele><time>2026-04-20T09:10:13Z</time></trkpt><trkpt lat="14.333767549243072" lon="120.90962860778421"><ele>63.0</ele><time>2026-04-20T09:10:14Z</time></trkpt><trkpt lat="14.333839703166495" lon="120.90960147070541"><ele>63.2</ele><time>2026-04-20T09:10:15Z</time></trkpt><trkpt lat="14.333901237465074" lon="120.90957782160119"><ele>63.4</ele><time>2026-04-20T09:10:16Z</time></trkpt><trkpt lat="14.33403527062056" lon="120.90953829823005"><ele>63.60000000000001</ele><time>2026-04-20T09:10:17Z</time></trkpt><trkpt lat="14.33412805004295" lon="120.90950509824539"><ele>63.800000000000004</ele><time>2026-04-20T09:10:18Z</time></trkpt><trkpt lat="14.334222776055766" lon="120.90947608614545"><ele>64.0</ele><time>2026-04-20T09:10:19Z</time></trkpt><trkpt lat="14.334307817636967" lon="120.90944881651993"><ele>63.99999999999999</ele><time>2026-04-20T09:10:20Z</time></trkpt><trkpt lat="14.33437535092172" lon="120.90943485290519"><ele>64.0</ele><time>2026-04-20T09:10:21Z</time></trkpt><trkpt lat="14.334459026257232" lon="120.9094127486386"><ele>64.0</ele><time>2026-04-20T09:10:23Z</time></trkpt><trkpt lat="14.334556924235867" lon="120.90938734456634"><ele>64.0</ele><time>2026-04-20T09:10:25Z</time></trkpt><trkpt lat="14.334620286584153" lon="120.90937271417002"><ele>63.99999999999999</ele><time>2026-04-20T09:10:26Z</time></trkpt><trkpt lat="14.334687759788505" lon="120.90935355798345"><ele>64.0</ele><time>2026-04-20T09:10:27Z</time></trkpt><trkpt lat="14.334758453597416" lon="120.90933057305311"><ele>63.49999999999999</ele><time>2026-04-20T09:10:28Z</time></trkpt><trkpt lat="14.33483744886373" lon="120.9093107136346"><ele>63.0</ele><time>2026-04-20T09:10:29Z</time></trkpt><trkpt lat="14.334920038801705" lon="120.90928894322246"><ele>62.5</ele><time>2026-04-20T09:10:30Z</time></trkpt><trkpt lat="14.335006052282054" lon="120.9092630817528"><ele>62.0</ele><time>2026-04-20T09:10:31Z</time></trkpt><trkpt lat="14.335089067192785" lon="120.90924042342773"><ele>61.49999999999999</ele><time>2026-04-20T09:10:32Z</time></trkpt><trkpt lat="14.335173219253852" lon="120.90921559304942"><ele>61.0</ele><time>2026-04-20T09:10:33Z</time></trkpt><trkpt lat="14.335261314804427" lon="120.90919097184008"><ele>60.8</ele><time>2026-04-20T09:10:34Z</time></trkpt><trkpt lat="14.335352784418205" lon="120.90916855273717"><ele>60.599999999999994</ele><time>2026-04-20T09:10:35Z</time></trkpt><trkpt lat="14.335443886089092" lon="120.90915131890372"><ele>60.4</ele><time>2026-04-20T09:10:36Z</time></trkpt><trkpt lat="14.335535456342924" lon="120.90912859537492"><ele>60.2</ele><time>2026-04-20T09:10:37Z</time></trkpt><trkpt lat="14.335623484427618" lon="120.90910439880017"><ele>60.0</ele><time>2026-04-20T09:10:38Z</time></trkpt><trkpt lat="14.33571277266979" lon="120.90906833341151"><ele>60.0</ele><time>2026-04-20T09:10:39Z</time></trkpt><trkpt lat="14.335806369302857" lon="120.90903634098899"><ele>60.0</ele><time>2026-04-20T09:10:40Z</time></trkpt><trkpt lat="14.335898083871207" lon="120.90901034206223"><ele>60.0</ele><time>2026-04-20T09:10:41Z</time></trkpt><trkpt lat="14.33598865239055" lon="120.90898673503794"><ele>60.0</ele><time>2026-04-20T09:10:42Z</time></trkpt><trkpt lat="14.336083287667899" lon="120.90895874443922"><ele>60.0</ele><time>2026-04-20T09:10:43Z</time></trkpt><trkpt lat="14.33617512013833" lon="120.90893660875733"><ele>60.0</ele><time>2026-04-20T09:10:44Z</time></trkpt><trkpt lat="14.336265164620817" lon="120.90890103051932"><ele>60.0</ele><time>2026-04-20T09:10:45Z</time></trkpt><trkpt lat="14.336353558490316" lon="120.90888498519287"><ele>60.0</ele><time>2026-04-20T09:10:46Z</time></trkpt><trkpt lat="14.33643969086655" lon="120.9088650656799"><ele>60.0</ele><time>2026-04-20T09:10:47Z</time></trkpt><trkpt lat="14.336519391106439" lon="120.90884363163403"><ele>60.0</ele><time>2026-04-20T09:10:48Z</time></trkpt><trkpt lat="14.336609604559461" lon="120.90881609249169"><ele>60.0</ele><time>2026-04-20T09:10:49Z</time></trkpt><trkpt lat="14.336694378287483" lon="120.90879272970453"><ele>60.0</ele><time>2026-04-20T09:10:50Z</time></trkpt><trkpt lat="14.33678027411925" lon="120.90876790125192"><ele>60.0</ele><time>2026-04-20T09:10:51Z</time></trkpt><trkpt lat="14.336869571124167" lon="120.9087399936869"><ele>60.0</ele><time>2026-04-20T09:10:52Z</time></trkpt><trkpt lat="14.336953697937215" lon="120.9087151369798"><ele>60.0</ele><time>2026-04-20T09:10:53Z</time></trkpt><trkpt lat="14.33703320725465" lon="120.90869464338913"><ele>60.0</ele><time>2026-04-20T09:10:54Z</time></trkpt><trkpt lat="14.337109756043679" lon="120.90866983230428"><ele>60.0</ele><time>2026-04-20T09:10:55Z</time></trkpt><trkpt lat="14.337177697982673" lon="120.90865210283873"><ele>60.0</ele><time>2026-04-20T09:10:56Z</time></trkpt><trkpt lat="14.337247282913983" lon="120.90863653286198"><ele>60.0</ele><time>2026-04-20T09:10:57Z</time></trkpt><trkpt lat="14.33731286713625" lon="120.90862364613557"><ele>60.0</ele><time>2026-04-20T09:10:58Z</time></trkpt><trkpt lat="14.337375564763326" lon="120.90861404881473"><ele>60.0</ele><time>2026-04-20T09:10:59Z</time></trkpt><trkpt lat="14.33748107261394" lon="120.90859553797829"><ele>60.0</ele><time>2026-04-20T09:11:01Z</time></trkpt><trkpt lat="14.33757898686362" lon="120.90858105212241"><ele>59.8</ele><time>2026-04-20T09:11:03Z</time></trkpt><trkpt lat="14.337688173723857" lon="120.90855882409646"><ele>59.6</ele><time>2026-04-20T09:11:05Z</time></trkpt><trkpt lat="14.337802615937555" lon="120.90853777492634"><ele>59.400000000000006</ele><time>2026-04-20T09:11:07Z</time></trkpt><trkpt lat="14.33786849996501" lon="120.90852635820886"><ele>59.2</ele><time>2026-04-20T09:11:08Z</time></trkpt><trkpt lat="14.337936404240049" lon="120.90851285714942"><ele>59.0</ele><time>2026-04-20T09:11:09Z</time></trkpt><trkpt lat="14.338045407913908" lon="120.90848553121927"><ele>59.16666666666667</ele><time>2026-04-20T09:11:11Z</time></trkpt><trkpt lat="14.33812168575955" lon="120.90846068152499"><ele>59.333333333333336</ele><time>2026-04-20T09:11:13Z</time></trkpt><trkpt lat="14.338190410438843" lon="120.90843446203442"><ele>59.5</ele><time>2026-04-20T09:11:16Z</time></trkpt><trkpt lat="14.338258944129" lon="120.90841574247942"><ele>59.66666666666667</ele><time>2026-04-20T09:11:19Z</time></trkpt><trkpt lat="14.338341667009411" lon="120.90839327044492"><ele>59.833333333333336</ele><time>2026-04-20T09:11:21Z</time></trkpt><trkpt lat="14.33841603822939" lon="120.90837024590134"><ele>60.0</ele><time>2026-04-20T09:11:23Z</time></trkpt><trkpt lat="14.33850608750492" lon="120.90833774963717"><ele>59.8</ele><time>2026-04-20T09:11:25Z</time></trkpt><trkpt lat="14.338621565881999" lon="120.9083024033003"><ele>59.6</ele><time>2026-04-20T09:11:27Z</time></trkpt><trkpt lat="14.338686235101479" lon="120.90828197660419"><ele>59.400000000000006</ele><time>2026-04-20T09:11:28Z</time></trkpt><trkpt lat="14.338753474648005" lon="120.90826209787195"><ele>59.2</ele><time>2026-04-20T09:11:29Z</time></trkpt><trkpt lat="14.338864664406014" lon="120.908230179386"><ele>59.0</ele><time>2026-04-20T09:11:31Z</time></trkpt><trkpt lat="14.338979392774755" lon="120.90817981704919"><ele>59.00000000000001</ele><time>2026-04-20T09:11:33Z</time></trkpt><trkpt lat="14.339049625005089" lon="120.90815271465777"><ele>59.0</ele><time>2026-04-20T09:11:34Z</time></trkpt><trkpt lat="14.339117860234431" lon="120.90811941240268"><ele>59.0</ele><time>2026-04-20T09:11:35Z</time></trkpt><trkpt lat="14.33920114795394" lon="120.90808313971245"><ele>59.0</ele><time>2026-04-20T09:11:36Z</time></trkpt><trkpt lat="14.339297137690632" lon="120.9080478137696"><ele>59.00000000000001</ele><time>2026-04-20T09:11:37Z</time></trkpt><trkpt lat="14.33939136957286" lon="120.90801377481034"><ele>59.0</ele><time>2026-04-20T09:11:38Z</time></trkpt><trkpt lat="14.33947249801684" lon="120.90798605877956"><ele>59.00000000000001</ele><time>2026-04-20T09:11:39Z</time></trkpt><trkpt lat="14.339552190299058" lon="120.90795587129422"><ele>59.0</ele><time>2026-04-20T09:11:40Z</time></trkpt><trkpt lat="14.339619628848842" lon="120.90792786952225"><ele>59.0</ele><time>2026-04-20T09:11:41Z</time></trkpt><trkpt lat="14.339683061081622" lon="120.90789807722923"><ele>59.0</ele><time>2026-04-20T09:11:42Z</time></trkpt><trkpt lat="14.339796412592452" lon="120.9078439140823"><ele>59.00000000000001</ele><time>2026-04-20T09:11:44Z</time></trkpt><trkpt lat="14.339867986156737" lon="120.90781742301083"><ele>59.0</ele><time>2026-04-20T09:11:45Z</time></trkpt><trkpt lat="14.33993334448441" lon="120.90779362887064"><ele>58.66666666666667</ele><time>2026-04-20T09:11:46Z</time></trkpt><trkpt lat="14.340042344998462" lon="120.90775228296853"><ele>58.333333333333336</ele><time>2026-04-20T09:11:48Z</time></trkpt><trkpt lat="14.34010550943341" lon="120.9077273501528"><ele>58.0</ele><time>2026-04-20T09:11:49Z</time></trkpt><trkpt lat="14.34016645727119" lon="120.90769969485756"><ele>57.66666666666667</ele><time>2026-04-20T09:11:50Z</time></trkpt><trkpt lat="14.340225086548273" lon="120.90767443258699"><ele>57.333333333333336</ele><time>2026-04-20T09:11:51Z</time></trkpt><trkpt lat="14.340294902247201" lon="120.90764595630067"><ele>57.0</ele><time>2026-04-20T09:11:52Z</time></trkpt><trkpt lat="14.340357733341019" lon="120.90762106275666"><ele>57.0</ele><time>2026-04-20T09:11:53Z</time></trkpt><trkpt lat="14.340428735586555" lon="120.90759285865622"><ele>57.0</ele><time>2026-04-20T09:11:54Z</time></trkpt><trkpt lat="14.340495648431299" lon="120.90756322194946"><ele>57.0</ele><time>2026-04-20T09:11:55Z</time></trkpt><trkpt lat="14.340596535108066" lon="120.9075118158126"><ele>57.0</ele><time>2026-04-20T09:11:57Z</time></trkpt><trkpt lat="14.340685846262309" lon="120.90747576867464"><ele>57.0</ele><time>2026-04-20T09:11:59Z</time></trkpt><trkpt lat="14.340760222028992" lon="120.90744333281945"><ele>57.0</ele><time>2026-04-20T09:12:01Z</time></trkpt><trkpt lat="14.340824786410954" lon="120.9074156822265"><ele>56.833333333333336</ele><time>2026-04-20T09:12:04Z</time></trkpt><trkpt lat="14.3408967064457" lon="120.90737449591738"><ele>56.66666666666667</ele><time>2026-04-20T09:12:10Z</time></trkpt><trkpt lat="14.34095876469549" lon="120.9073562670748"><ele>56.5</ele><time>2026-04-20T09:12:12Z</time></trkpt><trkpt lat="14.341048046004145" lon="120.90732463275002"><ele>56.333333333333336</ele><time>2026-04-20T09:12:16Z</time></trkpt><trkpt lat="14.341147541238458" lon="120.90728945153032"><ele>56.16666666666667</ele><time>2026-04-20T09:12:18Z</time></trkpt><trkpt lat="14.341213683687746" lon="120.90725779804868"><ele>56.0</ele><time>2026-04-20T09:12:19Z</time></trkpt><trkpt lat="14.341276289839778" lon="120.90723007789815"><ele>56.00000000000001</ele><time>2026-04-20T09:12:20Z</time></trkpt><trkpt lat="14.34134161003144" lon="120.90720299945824"><ele>56.0</ele><time>2026-04-20T09:12:21Z</time></trkpt><trkpt lat="14.341409477771634" lon="120.90717515315954"><ele>56.0</ele><time>2026-04-20T09:12:22Z</time></trkpt><trkpt lat="14.341483079339657" lon="120.90714245120476"><ele>56.0</ele><time>2026-04-20T09:12:23Z</time></trkpt><trkpt lat="14.341565460879142" lon="120.90710844596916"><ele>56.00000000000001</ele><time>2026-04-20T09:12:24Z</time></trkpt><trkpt lat="14.341646427794693" lon="120.90707199819616"><ele>56.0</ele><time>2026-04-20T09:12:25Z</time></trkpt><trkpt lat="14.34173347676865" lon="120.90703011998423"><ele>55.8</ele><time>2026-04-20T09:12:26Z</time></trkpt><trkpt lat="14.341813245985032" lon="120.90699496159102"><ele>55.599999999999994</ele><time>2026-04-20T09:12:27Z</time></trkpt><trkpt lat="14.341908765288734" lon="120.90695389194846"><ele>55.4</ele><time>2026-04-20T09:12:28Z</time></trkpt><trkpt lat="14.341991432313659" lon="120.90691642802605"><ele>55.2</ele><time>2026-04-20T09:12:29Z</time></trkpt><trkpt lat="14.34208097161745" lon="120.90687457186534"><ele>55.0</ele><time>2026-04-20T09:12:30Z</time></trkpt><trkpt lat="14.342175364431716" lon="120.90683217294261"><ele>54.83333333333333</ele><time>2026-04-20T09:12:31Z</time></trkpt><trkpt lat="14.342272594347708" lon="120.90678977782063"><ele>54.666666666666664</ele><time>2026-04-20T09:12:32Z</time></trkpt><trkpt lat="14.342348189288941" lon="120.90675547524273"><ele>54.5</ele><time>2026-04-20T09:12:33Z</time></trkpt><trkpt lat="14.342422580307412" lon="120.90672177228348"><ele>54.33333333333333</ele><time>2026-04-20T09:12:34Z</time></trkpt><trkpt lat="14.342509475167562" lon="120.90668471295274"><ele>54.166666666666664</ele><time>2026-04-20T09:12:35Z</time></trkpt><trkpt lat="14.342579594210795" lon="120.90664883797452"><ele>54.0</ele><time>2026-04-20T09:12:36Z</time></trkpt><trkpt lat="14.342664560380483" lon="120.90660961225743"><ele>54.0</ele><time>2026-04-20T09:12:37Z</time></trkpt><trkpt lat="14.342741585061578" lon="120.90657581897288"><ele>54.00000000000001</ele><time>2026-04-20T09:12:38Z</time></trkpt><trkpt lat="14.342828260692256" lon="120.90653652591868"><ele>54.00000000000001</ele><time>2026-04-20T09:12:39Z</time></trkpt><trkpt lat="14.342906909141675" lon="120.90650291461075"><ele>54.0</ele><time>2026-04-20T09:12:40Z</time></trkpt><trkpt lat="14.34299793552569" lon="120.90646191940277"><ele>54.0</ele><time>2026-04-20T09:12:41Z</time></trkpt><trkpt lat="14.343083419841745" lon="120.90642635399935"><ele>53.6</ele><time>2026-04-20T09:12:42Z</time></trkpt><trkpt lat="14.343174410384062" lon="120.90638170582226"><ele>53.2</ele><time>2026-04-20T09:12:43Z</time></trkpt><trkpt lat="14.343263669353897" lon="120.90633959853193"><ele>52.800000000000004</ele><time>2026-04-20T09:12:44Z</time></trkpt><trkpt lat="14.343350576341626" lon="120.90630070418871"><ele>52.400000000000006</ele><time>2026-04-20T09:12:45Z</time></trkpt><trkpt lat="14.343443074194782" lon="120.90626234650254"><ele>52.0</ele><time>2026-04-20T09:12:46Z</time></trkpt><trkpt lat="14.34353578759179" lon="120.9062153353939"><ele>52.0</ele><time>2026-04-20T09:12:47Z</time></trkpt><trkpt lat="14.343629311627444" lon="120.90617075154456"><ele>52.0</ele><time>2026-04-20T09:12:48Z</time></trkpt><trkpt lat="14.3437266402547" lon="120.90612346973106"><ele>52.0</ele><time>2026-04-20T09:12:49Z</time></trkpt><trkpt lat="14.343812950131493" lon="120.90608393560633"><ele>52.0</ele><time>2026-04-20T09:12:50Z</time></trkpt><trkpt lat="14.343903798212708" lon="120.90603927120658"><ele>52.0</ele><time>2026-04-20T09:12:51Z</time></trkpt><trkpt lat="14.343976436812993" lon="120.90601235906965"><ele>51.99999999999999</ele><time>2026-04-20T09:12:52Z</time></trkpt><trkpt lat="14.344054636518736" lon="120.90597015938916"><ele>52.0</ele><time>2026-04-20T09:12:53Z</time></trkpt><trkpt lat="14.344122151804449" lon="120.90594972494291"><ele>52.0</ele><time>2026-04-20T09:12:54Z</time></trkpt><trkpt lat="14.3441958519317" lon="120.90590439651463"><ele>52.0</ele><time>2026-04-20T09:12:55Z</time></trkpt><trkpt lat="14.344265256735781" lon="120.9058795895187"><ele>51.99999999999999</ele><time>2026-04-20T09:12:56Z</time></trkpt><trkpt lat="14.344332358604477" lon="120.90584860029064"><ele>52.0</ele><time>2026-04-20T09:12:57Z</time></trkpt><trkpt lat="14.344407699703698" lon="120.90581126792202"><ele>51.83333333333333</ele><time>2026-04-20T09:12:58Z</time></trkpt><trkpt lat="14.344474595438625" lon="120.90578962691285"><ele>51.666666666666664</ele><time>2026-04-20T09:12:59Z</time></trkpt><trkpt lat="14.344557624551111" lon="120.9057463224881"><ele>51.5</ele><time>2026-04-20T09:13:00Z</time></trkpt><trkpt lat="14.34464171922155" lon="120.9057045053853"><ele>51.33333333333333</ele><time>2026-04-20T09:13:01Z</time></trkpt><trkpt lat="14.344724491634349" lon="120.90566795461841"><ele>51.166666666666664</ele><time>2026-04-20T09:13:02Z</time></trkpt><trkpt lat="14.344802841621645" lon="120.90562751252527"><ele>51.0</ele><time>2026-04-20T09:13:03Z</time></trkpt><trkpt lat="14.344887258326086" lon="120.90559301242263"><ele>51.0</ele><time>2026-04-20T09:13:04Z</time></trkpt><trkpt lat="14.344969233839933" lon="120.90555327728558"><ele>51.0</ele><time>2026-04-20T09:13:05Z</time></trkpt><trkpt lat="14.345041849647348" lon="120.90551596440439"><ele>51.0</ele><time>2026-04-20T09:13:06Z</time></trkpt><trkpt lat="14.345109989575144" lon="120.90547767391604"><ele>51.0</ele><time>2026-04-20T09:13:07Z</time></trkpt><trkpt lat="14.34517233529531" lon="120.90544633763562"><ele>51.0</ele><time>2026-04-20T09:13:08Z</time></trkpt><trkpt lat="14.34523847058322" lon="120.90541704839792"><ele>51.0</ele><time>2026-04-20T09:13:09Z</time></trkpt><trkpt lat="14.34530223697062" lon="120.90538184509325"><ele>51.0</ele><time>2026-04-20T09:13:10Z</time></trkpt><trkpt lat="14.345364920697206" lon="120.90534566572668"><ele>51.0</ele><time>2026-04-20T09:13:11Z</time></trkpt><trkpt lat="14.345433425101447" lon="120.9053112788726"><ele>51.0</ele><time>2026-04-20T09:13:12Z</time></trkpt><trkpt lat="14.345501124736655" lon="120.90528246888992"><ele>51.0</ele><time>2026-04-20T09:13:13Z</time></trkpt><trkpt lat="14.345563016584316" lon="120.90525140827359"><ele>51.0</ele><time>2026-04-20T09:13:14Z</time></trkpt><trkpt lat="14.345667334233127" lon="120.90520025692858"><ele>51.0</ele><time>2026-04-20T09:13:16Z</time></trkpt><trkpt lat="14.345740606049823" lon="120.90516386495169"><ele>51.0</ele><time>2026-04-20T09:13:18Z</time></trkpt><trkpt lat="14.345828865689642" lon="120.9051277640355"><ele>51.0</ele><time>2026-04-20T09:13:21Z</time></trkpt><trkpt lat="14.345920653154938" lon="120.90509995605315"><ele>51.0</ele><time>2026-04-20T09:13:23Z</time></trkpt><trkpt lat="14.346015411345622" lon="120.9050686539357"><ele>51.0</ele><time>2026-04-20T09:13:25Z</time></trkpt><trkpt lat="14.346116928243633" lon="120.90501072769419"><ele>51.0</ele><time>2026-04-20T09:13:27Z</time></trkpt><trkpt lat="14.346195455871591" lon="120.90496930205575"><ele>51.0</ele><time>2026-04-20T09:13:29Z</time></trkpt><trkpt lat="14.346261652080193" lon="120.90492191425203"><ele>51.0</ele><time>2026-04-20T09:13:31Z</time></trkpt><trkpt lat="14.346350086548194" lon="120.90486710516086"><ele>51.0</ele><time>2026-04-20T09:13:33Z</time></trkpt><trkpt lat="14.346457225970473" lon="120.90481137265152"><ele>51.0</ele><time>2026-04-20T09:13:35Z</time></trkpt><trkpt lat="14.346557486431994" lon="120.90476674867472"><ele>51.0</ele><time>2026-04-20T09:13:37Z</time></trkpt><trkpt lat="14.346666358376128" lon="120.90470350458811"><ele>51.0</ele><time>2026-04-20T09:13:39Z</time></trkpt><trkpt lat="14.34677927840397" lon="120.90463041355798"><ele>51.0</ele><time>2026-04-20T09:13:41Z</time></trkpt><trkpt lat="14.346835250060336" lon="120.90459635998702"><ele>51.0</ele><time>2026-04-20T09:13:42Z</time></trkpt><trkpt lat="14.34689134302219" lon="120.90456551721883"><ele>51.0</ele><time>2026-04-20T09:13:43Z</time></trkpt><trkpt lat="14.346949755403108" lon="120.90453613001797"><ele>51.0</ele><time>2026-04-20T09:13:44Z</time></trkpt><trkpt lat="14.347005007656989" lon="120.90450220158284"><ele>51.0</ele><time>2026-04-20T09:13:45Z</time></trkpt><trkpt lat="14.34711340833739" lon="120.90443750071006"><ele>51.0</ele><time>2026-04-20T09:13:47Z</time></trkpt><trkpt lat="14.347175547306234" lon="120.90440033036359"><ele>51.0</ele><time>2026-04-20T09:13:48Z</time></trkpt><trkpt lat="14.347234174375506" lon="120.904367132308"><ele>51.0</ele><time>2026-04-20T09:13:49Z</time></trkpt><trkpt lat="14.347307296082153" lon="120.90432524553589"><ele>51.0</ele><time>2026-04-20T09:13:50Z</time></trkpt><trkpt lat="14.34736397526996" lon="120.90428890018536"><ele>51.0</ele><time>2026-04-20T09:13:51Z</time></trkpt><trkpt lat="14.34742341909524" lon="120.90425502891739"><ele>51.0</ele><time>2026-04-20T09:13:52Z</time></trkpt><trkpt lat="14.347477764188838" lon="120.90421903523803"><ele>51.0</ele><time>2026-04-20T09:13:53Z</time></trkpt><trkpt lat="14.34754387932904" lon="120.90417930819325"><ele>50.666666666666664</ele><time>2026-04-20T09:13:54Z</time></trkpt><trkpt lat="14.347607546927721" lon="120.90414131858545"><ele>50.33333333333333</ele><time>2026-04-20T09:13:55Z</time></trkpt><trkpt lat="14.34767671886342" lon="120.90409843593895"><ele>50.0</ele><time>2026-04-20T09:13:56Z</time></trkpt><trkpt lat="14.347740514708288" lon="120.90405478517886"><ele>49.666666666666664</ele><time>2026-04-20T09:13:57Z</time></trkpt><trkpt lat="14.347813767750194" lon="120.90400929570154"><ele>49.33333333333333</ele><time>2026-04-20T09:13:58Z</time></trkpt><trkpt lat="14.347884384957354" lon="120.9039715568915"><ele>49.0</ele><time>2026-04-20T09:13:59Z</time></trkpt><trkpt lat="14.347952130296793" lon="120.9039299281226"><ele>48.99999999999999</ele><time>2026-04-20T09:14:00Z</time></trkpt><trkpt lat="14.348031487771923" lon="120.90387850618846"><ele>49.0</ele><time>2026-04-20T09:14:01Z</time></trkpt><trkpt lat="14.348108865885502" lon="120.90382649822502"><ele>49.0</ele><time>2026-04-20T09:14:02Z</time></trkpt><trkpt lat="14.348174732554588" lon="120.90378362039789"><ele>49.0</ele><time>2026-04-20T09:14:03Z</time></trkpt><trkpt lat="14.348254918087212" lon="120.90372978048237"><ele>48.99999999999999</ele><time>2026-04-20T09:14:04Z</time></trkpt><trkpt lat="14.348317631046612" lon="120.90368688648583"><ele>49.0</ele><time>2026-04-20T09:14:05Z</time></trkpt><trkpt lat="14.348397490018437" lon="120.90363170217395"><ele>48.800000000000004</ele><time>2026-04-20T09:14:06Z</time></trkpt><trkpt lat="14.348485444422451" lon="120.90357415149114"><ele>48.6</ele><time>2026-04-20T09:14:07Z</time></trkpt><trkpt lat="14.348576803725141" lon="120.90351740552347"><ele>48.4</ele><time>2026-04-20T09:14:08Z</time></trkpt><trkpt lat="14.34867325144875" lon="120.90345574013602"><ele>48.2</ele><time>2026-04-20T09:14:09Z</time></trkpt><trkpt lat="14.34876397494469" lon="120.90339235085568"><ele>48.0</ele><time>2026-04-20T09:14:10Z</time></trkpt><trkpt lat="14.34886338169947" lon="120.90332765316025"><ele>47.75</ele><time>2026-04-20T09:14:11Z</time></trkpt><trkpt lat="14.348973930615179" lon="120.90325870148173"><ele>47.5</ele><time>2026-04-20T09:14:12Z</time></trkpt><trkpt lat="14.349078597903834" lon="120.90320495410161"><ele>47.25</ele><time>2026-04-20T09:14:13Z</time></trkpt><trkpt lat="14.349187667244053" lon="120.90314260881523"><ele>47.0</ele><time>2026-04-20T09:14:14Z</time></trkpt><trkpt lat="14.349304145674811" lon="120.90307295294764"><ele>47.0</ele><time>2026-04-20T09:14:15Z</time></trkpt><trkpt lat="14.349421592808355" lon="120.90300208177293"><ele>47.0</ele><time>2026-04-20T09:14:16Z</time></trkpt><trkpt lat="14.349537286471698" lon="120.90293159807405"><ele>47.0</ele><time>2026-04-20T09:14:17Z</time></trkpt><trkpt lat="14.349646981741989" lon="120.90286788761398"><ele>47.0</ele><time>2026-04-20T09:14:18Z</time></trkpt><trkpt lat="14.349760043114674" lon="120.90280670911547"><ele>47.2</ele><time>2026-04-20T09:14:19Z</time></trkpt><trkpt lat="14.349854622024962" lon="120.90274600042609"><ele>47.400000000000006</ele><time>2026-04-20T09:14:20Z</time></trkpt><trkpt lat="14.349958347990881" lon="120.90268409928596"><ele>47.599999999999994</ele><time>2026-04-20T09:14:21Z</time></trkpt><trkpt lat="14.350048252069897" lon="120.90262763689839"><ele>47.8</ele><time>2026-04-20T09:14:22Z</time></trkpt><trkpt lat="14.350139156199505" lon="120.90257277840918"><ele>48.0</ele><time>2026-04-20T09:14:23Z</time></trkpt><trkpt lat="14.350238226346214" lon="120.90250767879077"><ele>48.0</ele><time>2026-04-20T09:14:24Z</time></trkpt><trkpt lat="14.35032272584069" lon="120.90246012688985"><ele>48.0</ele><time>2026-04-20T09:14:25Z</time></trkpt><trkpt lat="14.350416040570302" lon="120.90240014368278"><ele>48.0</ele><time>2026-04-20T09:14:26Z</time></trkpt><trkpt lat="14.350504512230815" lon="120.90234327927413"><ele>48.0</ele><time>2026-04-20T09:14:27Z</time></trkpt><trkpt lat="14.350590266870581" lon="120.90228839966545"><ele>48.0</ele><time>2026-04-20T09:14:28Z</time></trkpt><trkpt lat="14.350671856924915" lon="120.90223807466961"><ele>47.666666666666664</ele><time>2026-04-20T09:14:29Z</time></trkpt><trkpt lat="14.35075076691812" lon="120.90218782789147"><ele>47.333333333333336</ele><time>2026-04-20T09:14:30Z</time></trkpt><trkpt lat="14.35081935690209" lon="120.90214377870434"><ele>47.0</ele><time>2026-04-20T09:14:31Z</time></trkpt><trkpt lat="14.35088586432559" lon="120.90210422655404"><ele>46.66666666666667</ele><time>2026-04-20T09:14:32Z</time></trkpt><trkpt lat="14.350944223516896" lon="120.9020674219108"><ele>46.333333333333336</ele><time>2026-04-20T09:14:33Z</time></trkpt><trkpt lat="14.351006874572573" lon="120.90203132138801"><ele>46.0</ele><time>2026-04-20T09:14:34Z</time></trkpt><trkpt lat="14.351063834032395" lon="120.90199800895189"><ele>46.0</ele><time>2026-04-20T09:14:35Z</time></trkpt><trkpt lat="14.3511203559111" lon="120.9019620514758"><ele>46.0</ele><time>2026-04-20T09:14:36Z</time></trkpt><trkpt lat="14.351182287147479" lon="120.90192292060959"><ele>46.0</ele><time>2026-04-20T09:14:37Z</time></trkpt><trkpt lat="14.35124004018202" lon="120.9018857528194"><ele>46.0</ele><time>2026-04-20T09:14:38Z</time></trkpt><trkpt lat="14.351311265577996" lon="120.90184635407299"><ele>46.0</ele><time>2026-04-20T09:14:39Z</time></trkpt><trkpt lat="14.351379606609793" lon="120.90180974002084"><ele>46.0</ele><time>2026-04-20T09:14:40Z</time></trkpt><trkpt lat="14.3514394219335" lon="120.90177690688793"><ele>46.0</ele><time>2026-04-20T09:14:41Z</time></trkpt><trkpt lat="14.351506944903985" lon="120.9017349046182"><ele>45.57142857142858</ele><time>2026-04-20T09:14:42Z</time></trkpt><trkpt lat="14.351571096506436" lon="120.90169704782852"><ele>45.14285714285714</ele><time>2026-04-20T09:14:43Z</time></trkpt><trkpt lat="14.351634652857081" lon="120.9016607631631"><ele>44.714285714285715</ele><time>2026-04-20T09:14:44Z</time></trkpt><trkpt lat="14.35169739480727" lon="120.90162686201663"><ele>44.28571428571429</ele><time>2026-04-20T09:14:45Z</time></trkpt><trkpt lat="14.351771806032756" lon="120.90158397511765"><ele>43.85714285714286</ele><time>2026-04-20T09:14:46Z</time></trkpt><trkpt lat="14.35183356313587" lon="120.90154481006537"><ele>43.42857142857143</ele><time>2026-04-20T09:14:47Z</time></trkpt><trkpt lat="14.35189081931635" lon="120.90150262866445"><ele>43.0</ele><time>2026-04-20T09:14:48Z</time></trkpt><trkpt lat="14.35199906209661" lon="120.90144326461395"><ele>43.0</ele><time>2026-04-20T09:14:50Z</time></trkpt><trkpt lat="14.352104282499392" lon="120.90138215937483"><ele>43.0</ele><time>2026-04-20T09:14:52Z</time></trkpt><trkpt lat="14.35216383014331" lon="120.90134836999616"><ele>43.0</ele><time>2026-04-20T09:14:53Z</time></trkpt><trkpt lat="14.352222892029593" lon="120.90131682354894"><ele>43.0</ele><time>2026-04-20T09:14:54Z</time></trkpt><trkpt lat="14.352286892402518" lon="120.90127935660125"><ele>43.0</ele><time>2026-04-20T09:14:55Z</time></trkpt><trkpt lat="14.352349504032569" lon="120.90124486983241"><ele>43.0</ele><time>2026-04-20T09:14:56Z</time></trkpt><trkpt lat="14.352412973656426" lon="120.90120720231616"><ele>43.16666666666667</ele><time>2026-04-20T09:14:57Z</time></trkpt><trkpt lat="14.352480135090849" lon="120.9011611537885"><ele>43.333333333333336</ele><time>2026-04-20T09:14:58Z</time></trkpt><trkpt lat="14.352542337227208" lon="120.90112182528057"><ele>43.5</ele><time>2026-04-20T09:14:59Z</time></trkpt><trkpt lat="14.352614282061992" lon="120.90108015554596"><ele>43.666666666666664</ele><time>2026-04-20T09:15:00Z</time></trkpt><trkpt lat="14.352689410783691" lon="120.90103494098176"><ele>43.83333333333333</ele><time>2026-04-20T09:15:01Z</time></trkpt><trkpt lat="14.352767735897507" lon="120.90098868471416"><ele>44.0</ele><time>2026-04-20T09:15:02Z</time></trkpt><trkpt lat="14.352836760131975" lon="120.90094881502148"><ele>43.666666666666664</ele><time>2026-04-20T09:15:03Z</time></trkpt><trkpt lat="14.35290524898325" lon="120.90091110179735"><ele>43.33333333333333</ele><time>2026-04-20T09:15:04Z</time></trkpt><trkpt lat="14.352966049990265" lon="120.90087504213926"><ele>43.0</ele><time>2026-04-20T09:15:05Z</time></trkpt><trkpt lat="14.353028036607656" lon="120.90084128064782"><ele>42.666666666666664</ele><time>2026-04-20T09:15:06Z</time></trkpt><trkpt lat="14.353097217673348" lon="120.90079920183094"><ele>42.333333333333336</ele><time>2026-04-20T09:15:07Z</time></trkpt><trkpt lat="14.353166007155352" lon="120.90076036710666"><ele>42.0</ele><time>2026-04-20T09:15:08Z</time></trkpt><trkpt lat="14.353240632596131" lon="120.9007144848389"><ele>41.8</ele><time>2026-04-20T09:15:09Z</time></trkpt><trkpt lat="14.35331809404752" lon="120.90066764405849"><ele>41.6</ele><time>2026-04-20T09:15:10Z</time></trkpt><trkpt lat="14.353395283128531" lon="120.90061887979573"><ele>41.4</ele><time>2026-04-20T09:15:11Z</time></trkpt><trkpt lat="14.353476955605792" lon="120.90057060474469"><ele>41.199999999999996</ele><time>2026-04-20T09:15:12Z</time></trkpt><trkpt lat="14.353557207321526" lon="120.90052256163447"><ele>41.0</ele><time>2026-04-20T09:15:13Z</time></trkpt><trkpt lat="14.353635760278774" lon="120.90047898275643"><ele>41.0</ele><time>2026-04-20T09:15:14Z</time></trkpt><trkpt lat="14.353706726065866" lon="120.90043777667064"><ele>41.0</ele><time>2026-04-20T09:15:15Z</time></trkpt><trkpt lat="14.3537785970582" lon="120.90039446578652"><ele>41.0</ele><time>2026-04-20T09:15:16Z</time></trkpt><trkpt lat="14.353846889238731" lon="120.90035557086085"><ele>41.0</ele><time>2026-04-20T09:15:17Z</time></trkpt><trkpt lat="14.353918020525784" lon="120.90031447156314"><ele>41.0</ele><time>2026-04-20T09:15:18Z</time></trkpt><trkpt lat="14.353989024653862" lon="120.9002739388458"><ele>41.0</ele><time>2026-04-20T09:15:19Z</time></trkpt><trkpt lat="14.354070534792058" lon="120.90021909224222"><ele>41.0</ele><time>2026-04-20T09:15:20Z</time></trkpt><trkpt lat="14.354155784648176" lon="120.9001692400578"><ele>41.0</ele><time>2026-04-20T09:15:21Z</time></trkpt><trkpt lat="14.35424201688365" lon="120.90012453422702"><ele>41.0</ele><time>2026-04-20T09:15:22Z</time></trkpt><trkpt lat="14.354318956748592" lon="120.90008153906639"><ele>41.0</ele><time>2026-04-20T09:15:23Z</time></trkpt><trkpt lat="14.3543893883512" lon="120.9000510950273"><ele>41.0</ele><time>2026-04-20T09:15:24Z</time></trkpt><trkpt lat="14.354449992224849" lon="120.90002959457826"><ele>41.0</ele><time>2026-04-20T09:15:25Z</time></trkpt><trkpt lat="14.354510704286954" lon="120.90000299728783"><ele>41.166666666666664</ele><time>2026-04-20T09:15:26Z</time></trkpt><trkpt lat="14.354571051691376" lon="120.89997593386478"><ele>41.33333333333333</ele><time>2026-04-20T09:15:27Z</time></trkpt><trkpt lat="14.354645830102626" lon="120.89993643363549"><ele>41.5</ele><time>2026-04-20T09:15:28Z</time></trkpt><trkpt lat="14.354715467933493" lon="120.89990360824639"><ele>41.666666666666664</ele><time>2026-04-20T09:15:29Z</time></trkpt><trkpt lat="14.354777900111678" lon="120.89986791707322"><ele>41.833333333333336</ele><time>2026-04-20T09:15:30Z</time></trkpt><trkpt lat="14.35487805532292" lon="120.89980820880527"><ele>42.0</ele><time>2026-04-20T09:15:32Z</time></trkpt><trkpt lat="14.35493944617322" lon="120.89977207007388"><ele>42.0</ele><time>2026-04-20T09:15:34Z</time></trkpt><trkpt lat="14.355008310225779" lon="120.89973620718209"><ele>42.0</ele><time>2026-04-20T09:15:38Z</time></trkpt><trkpt lat="14.355068597450218" lon="120.89971528990229"><ele>42.0</ele><time>2026-04-20T09:15:40Z</time></trkpt><trkpt lat="14.355143149518677" lon="120.89966469909282"><ele>42.0</ele><time>2026-04-20T09:15:42Z</time></trkpt><trkpt lat="14.355204997762225" lon="120.89962910945258"><ele>42.0</ele><time>2026-04-20T09:15:44Z</time></trkpt><trkpt lat="14.355259092507241" lon="120.89958918325819"><ele>42.0</ele><time>2026-04-20T09:15:47Z</time></trkpt><trkpt lat="14.355319064387775" lon="120.89955989950175"><ele>42.0</ele><time>2026-04-20T09:15:49Z</time></trkpt><trkpt lat="14.355379644482406" lon="120.89952669369805"><ele>42.0</ele><time>2026-04-20T09:15:51Z</time></trkpt><trkpt lat="14.355435669768262" lon="120.89949516385971"><ele>42.0</ele><time>2026-04-20T09:15:53Z</time></trkpt><trkpt lat="14.355497269259608" lon="120.8994574959118"><ele>42.0</ele><time>2026-04-20T09:15:55Z</time></trkpt><trkpt lat="14.355561944377783" lon="120.89942094081249"><ele>42.0</ele><time>2026-04-20T09:15:58Z</time></trkpt><trkpt lat="14.355620253457055" lon="120.89938161787333"><ele>42.0</ele><time>2026-04-20T09:16:01Z</time></trkpt><trkpt lat="14.355683494516644" lon="120.89933751334105"><ele>42.0</ele><time>2026-04-20T09:16:04Z</time></trkpt><trkpt lat="14.355740798011237" lon="120.89930921346543"><ele>42.0</ele><time>2026-04-20T09:16:08Z</time></trkpt><trkpt lat="14.355799613356814" lon="120.89926680785133"><ele>41.4</ele><time>2026-04-20T09:16:12Z</time></trkpt><trkpt lat="14.35585290278934" lon="120.89922815139523"><ele>40.800000000000004</ele><time>2026-04-20T09:16:15Z</time></trkpt><trkpt lat="14.355918338514337" lon="120.89917656242625"><ele>40.2</ele><time>2026-04-20T09:16:19Z</time></trkpt><trkpt lat="14.355984345658328" lon="120.89914500067646"><ele>39.6</ele><time>2026-04-20T09:16:23Z</time></trkpt><trkpt lat="14.356079130880355" lon="120.89909744224461"><ele>39.0</ele><time>2026-04-20T09:16:25Z</time></trkpt><trkpt lat="14.35619017992773" lon="120.89903020635538"><ele>39.0</ele><time>2026-04-20T09:16:27Z</time></trkpt><trkpt lat="14.35625142975468" lon="120.89899059419582"><ele>39.0</ele><time>2026-04-20T09:16:28Z</time></trkpt><trkpt lat="14.356322094479196" lon="120.89894925352299"><ele>39.0</ele><time>2026-04-20T09:16:29Z</time></trkpt><trkpt lat="14.356392912564077" lon="120.89891043656581"><ele>39.0</ele><time>2026-04-20T09:16:30Z</time></trkpt><trkpt lat="14.356466719214637" lon="120.8988706107607"><ele>39.0</ele><time>2026-04-20T09:16:31Z</time></trkpt><trkpt lat="14.356542458795943" lon="120.8988282901474"><ele>39.0</ele><time>2026-04-20T09:16:32Z</time></trkpt><trkpt lat="14.356611069564634" lon="120.89878912602883"><ele>39.142857142857146</ele><time>2026-04-20T09:16:33Z</time></trkpt><trkpt lat="14.356678286564073" lon="120.89875086517075"><ele>39.285714285714285</ele><time>2026-04-20T09:16:34Z</time></trkpt><trkpt lat="14.356741464803207" lon="120.89871413594855"><ele>39.42857142857143</ele><time>2026-04-20T09:16:35Z</time></trkpt><trkpt lat="14.356804288516566" lon="120.89867670821239"><ele>39.57142857142857</ele><time>2026-04-20T09:16:36Z</time></trkpt><trkpt lat="14.356863740975989" lon="120.89864062017473"><ele>39.714285714285715</ele><time>2026-04-20T09:16:37Z</time></trkpt><trkpt lat="14.356924517865462" lon="120.89860432293386"><ele>39.857142857142854</ele><time>2026-04-20T09:16:38Z</time></trkpt><trkpt lat="14.356991794747865" lon="120.89856820332419"><ele>40.0</ele><time>2026-04-20T09:16:39Z</time></trkpt><trkpt lat="14.357057675740716" lon="120.89853153047946"><ele>40.0</ele><time>2026-04-20T09:16:40Z</time></trkpt><trkpt lat="14.357124581366172" lon="120.89849306938976"><ele>40.0</ele><time>2026-04-20T09:16:41Z</time></trkpt><trkpt lat="14.357192745332902" lon="120.89845330466783"><ele>40.0</ele><time>2026-04-20T09:16:42Z</time></trkpt><trkpt lat="14.35726610687534" lon="120.89841257173141"><ele>40.0</ele><time>2026-04-20T09:16:43Z</time></trkpt><trkpt lat="14.357343995690044" lon="120.89836790770819"><ele>40.0</ele><time>2026-04-20T09:16:44Z</time></trkpt><trkpt lat="14.357412468971118" lon="120.89832571910937"><ele>40.0</ele><time>2026-04-20T09:16:45Z</time></trkpt><trkpt lat="14.35748822847388" lon="120.89827945344527"><ele>40.0</ele><time>2026-04-20T09:16:46Z</time></trkpt><trkpt lat="14.357557438871469" lon="120.89823960387555"><ele>40.0</ele><time>2026-04-20T09:16:47Z</time></trkpt><trkpt lat="14.357627266682519" lon="120.89819704524915"><ele>40.0</ele><time>2026-04-20T09:16:48Z</time></trkpt><trkpt lat="14.357692749496763" lon="120.89815714096534"><ele>40.0</ele><time>2026-04-20T09:16:49Z</time></trkpt><trkpt lat="14.357757403841305" lon="120.89811699430912"><ele>40.0</ele><time>2026-04-20T09:16:50Z</time></trkpt><trkpt lat="14.357825908947229" lon="120.89807426776355"><ele>40.0</ele><time>2026-04-20T09:16:51Z</time></trkpt><trkpt lat="14.357888859458695" lon="120.89803754607843"><ele>40.0</ele><time>2026-04-20T09:16:52Z</time></trkpt><trkpt lat="14.357946083575603" lon="120.89799809595907"><ele>40.0</ele><time>2026-04-20T09:16:53Z</time></trkpt><trkpt lat="14.358049526971735" lon="120.89794057046244"><ele>40.0</ele><time>2026-04-20T09:16:55Z</time></trkpt><trkpt lat="14.358120186145662" lon="120.89789644268689"><ele>40.0</ele><time>2026-04-20T09:16:57Z</time></trkpt><trkpt lat="14.35819380620401" lon="120.8978496645265"><ele>40.0</ele><time>2026-04-20T09:16:59Z</time></trkpt><trkpt lat="14.358280404332994" lon="120.8978037554825"><ele>40.0</ele><time>2026-04-20T09:17:01Z</time></trkpt><trkpt lat="14.358391148397455" lon="120.89774575853652"><ele>40.0</ele><time>2026-04-20T09:17:03Z</time></trkpt><trkpt lat="14.358450207142171" lon="120.89771495664739"><ele>40.0</ele><time>2026-04-20T09:17:04Z</time></trkpt><trkpt lat="14.358513594025025" lon="120.89767525685282"><ele>40.0</ele><time>2026-04-20T09:17:05Z</time></trkpt><trkpt lat="14.358604582696188" lon="120.89762352629056"><ele>40.0</ele><time>2026-04-20T09:17:07Z</time></trkpt><trkpt lat="14.358680136732561" lon="120.89758501587151"><ele>40.0</ele><time>2026-04-20T09:17:11Z</time></trkpt><trkpt lat="14.35874871429951" lon="120.89753958895761"><ele>40.0</ele><time>2026-04-20T09:17:15Z</time></trkpt><trkpt lat="14.358823550045454" lon="120.89749636363003"><ele>40.0</ele><time>2026-04-20T09:17:19Z</time></trkpt><trkpt lat="14.358885173133023" lon="120.89745645752363"><ele>40.0</ele><time>2026-04-20T09:17:21Z</time></trkpt><trkpt lat="14.35895677277713" lon="120.89741478605983"><ele>40.0</ele><time>2026-04-20T09:17:23Z</time></trkpt><trkpt lat="14.359049224830684" lon="120.89735959670696"><ele>40.0</ele><time>2026-04-20T09:17:25Z</time></trkpt><trkpt lat="14.35914784103588" lon="120.89730078109196"><ele>39.714285714285715</ele><time>2026-04-20T09:17:27Z</time></trkpt><trkpt lat="14.359207201918561" lon="120.89726525419482"><ele>39.42857142857143</ele><time>2026-04-20T09:17:28Z</time></trkpt><trkpt lat="14.359268889497837" lon="120.8972305747322"><ele>39.14285714285714</ele><time>2026-04-20T09:17:29Z</time></trkpt><trkpt lat="14.359327954438827" lon="120.89719519877127"><ele>38.85714285714286</ele><time>2026-04-20T09:17:30Z</time></trkpt><trkpt lat="14.359387558272125" lon="120.8971600042636"><ele>38.57142857142858</ele><time>2026-04-20T09:17:31Z</time></trkpt><trkpt lat="14.359452158491292" lon="120.8971184280868"><ele>38.285714285714285</ele><time>2026-04-20T09:17:32Z</time></trkpt><trkpt lat="14.35951440521271" lon="120.8970806051091"><ele>38.0</ele><time>2026-04-20T09:17:33Z</time></trkpt><trkpt lat="14.359583151686364" lon="120.89703802598183"><ele>38.0</ele><time>2026-04-20T09:17:34Z</time></trkpt><trkpt lat="14.359654962013876" lon="120.89699362636104"><ele>38.0</ele><time>2026-04-20T09:17:35Z</time></trkpt><trkpt lat="14.359732114476193" lon="120.89694310509556"><ele>38.0</ele><time>2026-04-20T09:17:36Z</time></trkpt><trkpt lat="14.359814663157133" lon="120.89689576573342"><ele>38.0</ele><time>2026-04-20T09:17:37Z</time></trkpt><trkpt lat="14.359897058192809" lon="120.89685354401429"><ele>38.0</ele><time>2026-04-20T09:17:38Z</time></trkpt><trkpt lat="14.359984220923089" lon="120.89680541983691"><ele>38.199999999999996</ele><time>2026-04-20T09:17:39Z</time></trkpt><trkpt lat="14.360077620489028" lon="120.89674791023577"><ele>38.4</ele><time>2026-04-20T09:17:40Z</time></trkpt><trkpt lat="14.360161486548753" lon="120.89670486093965"><ele>38.599999999999994</ele><time>2026-04-20T09:17:41Z</time></trkpt><trkpt lat="14.360252624301477" lon="120.8966501335809"><ele>38.8</ele><time>2026-04-20T09:17:42Z</time></trkpt><trkpt lat="14.360339686968905" lon="120.896600304125"><ele>39.0</ele><time>2026-04-20T09:17:43Z</time></trkpt><trkpt lat="14.360429706293983" lon="120.8965475162955"><ele>39.0</ele><time>2026-04-20T09:17:44Z</time></trkpt><trkpt lat="14.36052013648145" lon="120.89649627696349"><ele>39.0</ele><time>2026-04-20T09:17:45Z</time></trkpt><trkpt lat="14.360613280109066" lon="120.89644454783583"><ele>39.0</ele><time>2026-04-20T09:17:46Z</time></trkpt><trkpt lat="14.360709376076729" lon="120.89638793145444"><ele>39.0</ele><time>2026-04-20T09:17:47Z</time></trkpt><trkpt lat="14.360802991981846" lon="120.89633481308375"><ele>39.0</ele><time>2026-04-20T09:17:48Z</time></trkpt><trkpt lat="14.360893213919434" lon="120.89628347621532"><ele>39.0</ele><time>2026-04-20T09:17:49Z</time></trkpt><trkpt lat="14.36099566162917" lon="120.89622025894181"><ele>39.0</ele><time>2026-04-20T09:17:50Z</time></trkpt><trkpt lat="14.361084047862516" lon="120.89616569883016"><ele>39.0</ele><time>2026-04-20T09:17:51Z</time></trkpt><trkpt lat="14.361179271563755" lon="120.89610932122557"><ele>39.0</ele><time>2026-04-20T09:17:52Z</time></trkpt><trkpt lat="14.36127069346098" lon="120.89605810833129"><ele>39.0</ele><time>2026-04-20T09:17:53Z</time></trkpt><trkpt lat="14.361365462594218" lon="120.89599754413061"><ele>38.8</ele><time>2026-04-20T09:17:54Z</time></trkpt><trkpt lat="14.36145215064116" lon="120.895947728564"><ele>38.599999999999994</ele><time>2026-04-20T09:17:55Z</time></trkpt><trkpt lat="14.36155029361559" lon="120.89589149391391"><ele>38.4</ele><time>2026-04-20T09:17:56Z</time></trkpt><trkpt lat="14.361651017458579" lon="120.89583563525102"><ele>38.199999999999996</ele><time>2026-04-20T09:17:57Z</time></trkpt><trkpt lat="14.361738803505634" lon="120.89578906769175"><ele>38.0</ele><time>2026-04-20T09:17:58Z</time></trkpt><trkpt lat="14.36183058440846" lon="120.89573416040696"><ele>38.0</ele><time>2026-04-20T09:17:59Z</time></trkpt><trkpt lat="14.36191581526327" lon="120.89568430272796"><ele>38.0</ele><time>2026-04-20T09:18:00Z</time></trkpt><trkpt lat="14.362005504410616" lon="120.8956315721302"><ele>38.0</ele><time>2026-04-20T09:18:01Z</time></trkpt><trkpt lat="14.362082352321824" lon="120.89558783538914"><ele>38.0</ele><time>2026-04-20T09:18:02Z</time></trkpt><trkpt lat="14.362156919641201" lon="120.8955427915825"><ele>38.0</ele><time>2026-04-20T09:18:03Z</time></trkpt><trkpt lat="14.362231338820797" lon="120.89550153989879"><ele>38.0</ele><time>2026-04-20T09:18:04Z</time></trkpt><trkpt lat="14.362311816164889" lon="120.89545540622595"><ele>38.0</ele><time>2026-04-20T09:18:05Z</time></trkpt><trkpt lat="14.36237500472971" lon="120.89542565079303"><ele>38.0</ele><time>2026-04-20T09:18:06Z</time></trkpt><trkpt lat="14.362449793577053" lon="120.89537954118586"><ele>38.0</ele><time>2026-04-20T09:18:07Z</time></trkpt><trkpt lat="14.362526026612898" lon="120.89533239832127"><ele>38.0</ele><time>2026-04-20T09:18:08Z</time></trkpt><trkpt lat="14.362602944462765" lon="120.89528637600425"><ele>38.0</ele><time>2026-04-20T09:18:09Z</time></trkpt><trkpt lat="14.362681545145072" lon="120.89523451917512"><ele>38.0</ele><time>2026-04-20T09:18:10Z</time></trkpt><trkpt lat="14.362755052938034" lon="120.89519475227695"><ele>38.0</ele><time>2026-04-20T09:18:11Z</time></trkpt><trkpt lat="14.362826742120342" lon="120.8951590775307"><ele>38.0</ele><time>2026-04-20T09:18:12Z</time></trkpt><trkpt lat="14.36291001149279" lon="120.89511069007483"><ele>38.0</ele><time>2026-04-20T09:18:13Z</time></trkpt><trkpt lat="14.362992199872048" lon="120.89506349182547"><ele>38.0</ele><time>2026-04-20T09:18:14Z</time></trkpt><trkpt lat="14.363067440985981" lon="120.89502100780456"><ele>38.0</ele><time>2026-04-20T09:18:15Z</time></trkpt><trkpt lat="14.363151019434053" lon="120.89496668647298"><ele>37.199999999999996</ele><time>2026-04-20T09:18:16Z</time></trkpt><trkpt lat="14.363230678698509" lon="120.89492210937598"><ele>36.4</ele><time>2026-04-20T09:18:17Z</time></trkpt><trkpt lat="14.36330745399492" lon="120.89487599002092"><ele>35.599999999999994</ele><time>2026-04-20T09:18:18Z</time></trkpt><trkpt lat="14.363393762902575" lon="120.8948252737411"><ele>34.8</ele><time>2026-04-20T09:18:19Z</time></trkpt><trkpt lat="14.363477075946928" lon="120.89477666985448"><ele>34.0</ele><time>2026-04-20T09:18:20Z</time></trkpt><trkpt lat="14.363565450794137" lon="120.89472096379845"><ele>34.0</ele><time>2026-04-20T09:18:21Z</time></trkpt><trkpt lat="14.363653552825133" lon="120.89467111233702"><ele>34.0</ele><time>2026-04-20T09:18:22Z</time></trkpt><trkpt lat="14.363740815094697" lon="120.89462151108634"><ele>34.0</ele><time>2026-04-20T09:18:23Z</time></trkpt><trkpt lat="14.36383146340606" lon="120.8945685181444"><ele>34.0</ele><time>2026-04-20T09:18:24Z</time></trkpt><trkpt lat="14.363921536362582" lon="120.89451346837626"><ele>34.0</ele><time>2026-04-20T09:18:25Z</time></trkpt><trkpt lat="14.36400810028937" lon="120.89446398343364"><ele>34.16666666666667</ele><time>2026-04-20T09:18:26Z</time></trkpt><trkpt lat="14.364085447765103" lon="120.8944167063699"><ele>34.333333333333336</ele><time>2026-04-20T09:18:27Z</time></trkpt><trkpt lat="14.36415663940538" lon="120.8943806569022"><ele>34.5</ele><time>2026-04-20T09:18:28Z</time></trkpt><trkpt lat="14.364229705659831" lon="120.89433110517895"><ele>34.666666666666664</ele><time>2026-04-20T09:18:29Z</time></trkpt><trkpt lat="14.36429855561177" lon="120.89429871004253"><ele>34.83333333333333</ele><time>2026-04-20T09:18:30Z</time></trkpt><trkpt lat="14.364372211547758" lon="120.89425029726293"><ele>35.0</ele><time>2026-04-20T09:18:31Z</time></trkpt><trkpt lat="14.364439907563872" lon="120.89421622113528"><ele>35.0</ele><time>2026-04-20T09:18:32Z</time></trkpt><trkpt lat="14.364508543013386" lon="120.8941707494595"><ele>35.0</ele><time>2026-04-20T09:18:33Z</time></trkpt><trkpt lat="14.36457279777669" lon="120.8941390992071"><ele>35.0</ele><time>2026-04-20T09:18:34Z</time></trkpt><trkpt lat="14.364635028776048" lon="120.89410053881056"><ele>35.0</ele><time>2026-04-20T09:18:35Z</time></trkpt><trkpt lat="14.364693767484319" lon="120.89407311141275"><ele>35.0</ele><time>2026-04-20T09:18:36Z</time></trkpt><trkpt lat="14.364753883909678" lon="120.89403484340835"><ele>35.0</ele><time>2026-04-20T09:18:37Z</time></trkpt><trkpt lat="14.364813270618907" lon="120.89400304409378"><ele>35.0</ele><time>2026-04-20T09:18:38Z</time></trkpt><trkpt lat="14.364872248115509" lon="120.89396928384609"><ele>35.0</ele><time>2026-04-20T09:18:39Z</time></trkpt><trkpt lat="14.364969323597768" lon="120.89391266617291"><ele>35.0</ele><time>2026-04-20T09:18:41Z</time></trkpt><trkpt lat="14.365040265264929" lon="120.89387322299628"><ele>35.0</ele><time>2026-04-20T09:18:43Z</time></trkpt><trkpt lat="14.36511585914791" lon="120.89382576207896"><ele>35.0</ele><time>2026-04-20T09:18:45Z</time></trkpt><trkpt lat="14.365199823011807" lon="120.89378927305034"><ele>35.0</ele><time>2026-04-20T09:18:47Z</time></trkpt><trkpt lat="14.365297481175302" lon="120.8937367292863"><ele>35.0</ele><time>2026-04-20T09:18:49Z</time></trkpt><trkpt lat="14.365387624779272" lon="120.89367629062968"><ele>35.0</ele><time>2026-04-20T09:18:51Z</time></trkpt><trkpt lat="14.365486872235879" lon="120.89361246118187"><ele>35.0</ele><time>2026-04-20T09:18:53Z</time></trkpt><trkpt lat="14.365560008497553" lon="120.89356926460765"><ele>35.0</ele><time>2026-04-20T09:18:55Z</time></trkpt><trkpt lat="14.365622004795604" lon="120.8935272050975"><ele>35.0</ele><time>2026-04-20T09:18:57Z</time></trkpt><trkpt lat="14.365688890842762" lon="120.89348882888432"><ele>34.6</ele><time>2026-04-20T09:18:59Z</time></trkpt><trkpt lat="14.365769930914178" lon="120.89344610284206"><ele>34.2</ele><time>2026-04-20T09:19:01Z</time></trkpt><trkpt lat="14.365855215872703" lon="120.89339667203083"><ele>33.8</ele><time>2026-04-20T09:19:03Z</time></trkpt><trkpt lat="14.365964438853343" lon="120.89332538674833"><ele>33.4</ele><time>2026-04-20T09:19:05Z</time></trkpt><trkpt lat="14.366026291885706" lon="120.89328857059256"><ele>33.0</ele><time>2026-04-20T09:19:06Z</time></trkpt><trkpt lat="14.366092109383978" lon="120.8932436005153"><ele>33.0</ele><time>2026-04-20T09:19:07Z</time></trkpt><trkpt lat="14.36616005904832" lon="120.89319291006838"><ele>33.0</ele><time>2026-04-20T09:19:08Z</time></trkpt><trkpt lat="14.366227801683099" lon="120.89313584777905"><ele>33.0</ele><time>2026-04-20T09:19:09Z</time></trkpt><trkpt lat="14.366296568601149" lon="120.89307081674518"><ele>33.0</ele><time>2026-04-20T09:19:10Z</time></trkpt><trkpt lat="14.366371136148626" lon="120.89300424706852"><ele>33.0</ele><time>2026-04-20T09:19:11Z</time></trkpt><trkpt lat="14.366445858942045" lon="120.89294050493935"><ele>33.0</ele><time>2026-04-20T09:19:12Z</time></trkpt><trkpt lat="14.366515467176482" lon="120.89287697657213"><ele>33.0</ele><time>2026-04-20T09:19:13Z</time></trkpt><trkpt lat="14.366589375267605" lon="120.89280862327192"><ele>33.0</ele><time>2026-04-20T09:19:14Z</time></trkpt><trkpt lat="14.366656662512055" lon="120.8927477401757"><ele>33.0</ele><time>2026-04-20T09:19:15Z</time></trkpt><trkpt lat="14.366728054221662" lon="120.89267737069554"><ele>33.0</ele><time>2026-04-20T09:19:16Z</time></trkpt><trkpt lat="14.36679590839566" lon="120.89260681920577"><ele>32.833333333333336</ele><time>2026-04-20T09:19:17Z</time></trkpt><trkpt lat="14.366857769762225" lon="120.89253809018048"><ele>32.666666666666664</ele><time>2026-04-20T09:19:18Z</time></trkpt><trkpt lat="14.366915784097351" lon="120.89247434936819"><ele>32.5</ele><time>2026-04-20T09:19:19Z</time></trkpt><trkpt lat="14.366975639150002" lon="120.89241066767156"><ele>32.33333333333333</ele><time>2026-04-20T09:19:20Z</time></trkpt><trkpt lat="14.367038055772625" lon="120.89234849642027"><ele>32.166666666666664</ele><time>2026-04-20T09:19:21Z</time></trkpt><trkpt lat="14.367101447379483" lon="120.89228654626064"><ele>32.0</ele><time>2026-04-20T09:19:22Z</time></trkpt><trkpt lat="14.367157355977824" lon="120.8922251752393"><ele>31.999999999999996</ele><time>2026-04-20T09:19:23Z</time></trkpt><trkpt lat="14.367207310809729" lon="120.89217022446265"><ele>32.0</ele><time>2026-04-20T09:19:24Z</time></trkpt><trkpt lat="14.3672633670415" lon="120.89210548572217"><ele>32.0</ele><time>2026-04-20T09:19:25Z</time></trkpt><trkpt lat="14.36731801224294" lon="120.8920496841748"><ele>32.0</ele><time>2026-04-20T09:19:26Z</time></trkpt><trkpt lat="14.36737881181272" lon="120.89198723140885"><ele>31.999999999999996</ele><time>2026-04-20T09:19:27Z</time></trkpt><trkpt lat="14.36743297621349" lon="120.89193021227977"><ele>32.0</ele><time>2026-04-20T09:19:28Z</time></trkpt><trkpt lat="14.367486776280852" lon="120.8918775800514"><ele>31.999999999999996</ele><time>2026-04-20T09:19:29Z</time></trkpt><trkpt lat="14.367538643183511" lon="120.8918231691794"><ele>32.0</ele><time>2026-04-20T09:19:30Z</time></trkpt><trkpt lat="14.367592035767142" lon="120.89177012585412"><ele>32.0</ele><time>2026-04-20T09:19:31Z</time></trkpt><trkpt lat="14.36765036380153" lon="120.89170999725475"><ele>32.0</ele><time>2026-04-20T09:19:32Z</time></trkpt><trkpt lat="14.3677089974209" lon="120.89165270565535"><ele>31.999999999999996</ele><time>2026-04-20T09:19:33Z</time></trkpt><trkpt lat="14.367769105240663" lon="120.89159358142099"><ele>32.0</ele><time>2026-04-20T09:19:34Z</time></trkpt><trkpt lat="14.367830851815611" lon="120.89152997031087"><ele>32.0</ele><time>2026-04-20T09:19:35Z</time></trkpt><trkpt lat="14.367896675718923" lon="120.8914607085411"><ele>32.0</ele><time>2026-04-20T09:19:36Z</time></trkpt><trkpt lat="14.367963758530625" lon="120.89139604051854"><ele>32.0</ele><time>2026-04-20T09:19:37Z</time></trkpt><trkpt lat="14.368030275461788" lon="120.89132876677583"><ele>32.0</ele><time>2026-04-20T09:19:38Z</time></trkpt><trkpt lat="14.368093039261266" lon="120.89126948675096"><ele>32.0</ele><time>2026-04-20T09:19:39Z</time></trkpt><trkpt lat="14.368158855067426" lon="120.89121057154712"><ele>31.999999999999996</ele><time>2026-04-20T09:19:40Z</time></trkpt><trkpt lat="14.36822598201851" lon="120.89114913836335"><ele>32.0</ele><time>2026-04-20T09:19:41Z</time></trkpt><trkpt lat="14.368290114256128" lon="120.89108793916654"><ele>32.0</ele><time>2026-04-20T09:19:42Z</time></trkpt><trkpt lat="14.3683552020482" lon="120.89102813373546"><ele>32.0</ele><time>2026-04-20T09:19:43Z</time></trkpt><trkpt lat="14.368418280119762" lon="120.8909717754796"><ele>31.999999999999996</ele><time>2026-04-20T09:19:44Z</time></trkpt><trkpt lat="14.368476008821677" lon="120.890923086937"><ele>32.0</ele><time>2026-04-20T09:19:45Z</time></trkpt><trkpt lat="14.368534500783463" lon="120.89087206106606"><ele>31.666666666666664</ele><time>2026-04-20T09:19:46Z</time></trkpt><trkpt lat="14.368591134330082" lon="120.89081995509359"><ele>31.333333333333332</ele><time>2026-04-20T09:19:47Z</time></trkpt><trkpt lat="14.36867763002559" lon="120.89073997467844"><ele>31.0</ele><time>2026-04-20T09:19:49Z</time></trkpt><trkpt lat="14.36873580731984" lon="120.89068579158452"><ele>30.666666666666664</ele><time>2026-04-20T09:19:52Z</time></trkpt><trkpt lat="14.368795767360561" lon="120.89063880904895"><ele>30.333333333333332</ele><time>2026-04-20T09:19:58Z</time></trkpt><trkpt lat="14.368870702167925" lon="120.89064595803858"><ele>30.0</ele><time>2026-04-20T09:20:01Z</time></trkpt><trkpt lat="14.36893686406" lon="120.8907333616545"><ele>30.0</ele><time>2026-04-20T09:20:03Z</time></trkpt><trkpt lat="14.3690159547271" lon="120.89081388862061"><ele>30.0</ele><time>2026-04-20T09:20:05Z</time></trkpt><trkpt lat="14.369104478271181" lon="120.89091979345655"><ele>30.0</ele><time>2026-04-20T09:20:07Z</time></trkpt><trkpt lat="14.36915248582343" lon="120.89099689096747"><ele>30.0</ele><time>2026-04-20T09:20:08Z</time></trkpt><trkpt lat="14.36919829182509" lon="120.89107853246564"><ele>30.0</ele><time>2026-04-20T09:20:09Z</time></trkpt><trkpt lat="14.369235124324275" lon="120.89117038235433"><ele>30.0</ele><time>2026-04-20T09:20:10Z</time></trkpt><trkpt lat="14.36927063466541" lon="120.89127371142776"><ele>30.0</ele><time>2026-04-20T09:20:11Z</time></trkpt><trkpt lat="14.369296075256102" lon="120.89138048982527"><ele>30.0</ele><time>2026-04-20T09:20:12Z</time></trkpt><trkpt lat="14.369316025707588" lon="120.891497736259"><ele>30.0</ele><time>2026-04-20T09:20:13Z</time></trkpt><trkpt lat="14.369332916326464" lon="120.89161461553438"><ele>30.0</ele><time>2026-04-20T09:20:14Z</time></trkpt><trkpt lat="14.369353181177072" lon="120.89174212842904"><ele>29.8</ele><time>2026-04-20T09:20:15Z</time></trkpt><trkpt lat="14.3693764130302" lon="120.89186821943328"><ele>29.6</ele><time>2026-04-20T09:20:16Z</time></trkpt><trkpt lat="14.369400290330494" lon="120.89198821280961"><ele>29.4</ele><time>2026-04-20T09:20:17Z</time></trkpt><trkpt lat="14.369420062687238" lon="120.89209489617298"><ele>29.2</ele><time>2026-04-20T09:20:18Z</time></trkpt><trkpt lat="14.369434767489782" lon="120.89219750829422"><ele>29.0</ele><time>2026-04-20T09:20:19Z</time></trkpt><trkpt lat="14.369450099819414" lon="120.8923022515985"><ele>29.0</ele><time>2026-04-20T09:20:20Z</time></trkpt><trkpt lat="14.369466682943838" lon="120.89238927045277"><ele>29.0</ele><time>2026-04-20T09:20:21Z</time></trkpt><trkpt lat="14.369485232636926" lon="120.89248731836207"><ele>29.0</ele><time>2026-04-20T09:20:22Z</time></trkpt><trkpt lat="14.369505331686895" lon="120.89258448726349"><ele>29.0</ele><time>2026-04-20T09:20:23Z</time></trkpt><trkpt lat="14.369526159113354" lon="120.8926803756727"><ele>29.0</ele><time>2026-04-20T09:20:24Z</time></trkpt><trkpt lat="14.3695495793722" lon="120.89276792570368"><ele>29.6</ele><time>2026-04-20T09:20:25Z</time></trkpt><trkpt lat="14.369574700326982" lon="120.89285527905072"><ele>30.2</ele><time>2026-04-20T09:20:26Z</time></trkpt><trkpt lat="14.369603090723425" lon="120.89294816248929"><ele>30.800000000000004</ele><time>2026-04-20T09:20:27Z</time></trkpt><trkpt lat="14.369632036795002" lon="120.89304383731505"><ele>31.400000000000002</ele><time>2026-04-20T09:20:28Z</time></trkpt><trkpt lat="14.369660586261295" lon="120.89313971019705"><ele>32.0</ele><time>2026-04-20T09:20:29Z</time></trkpt><trkpt lat="14.369691204162638" lon="120.89324304174238"><ele>31.5</ele><time>2026-04-20T09:20:30Z</time></trkpt><trkpt lat="14.36972176308764" lon="120.8933510908995"><ele>31.0</ele><time>2026-04-20T09:20:31Z</time></trkpt><trkpt lat="14.369754414519619" lon="120.89346979965013"><ele>30.5</ele><time>2026-04-20T09:20:32Z</time></trkpt><trkpt lat="14.369783477409571" lon="120.8935839645359"><ele>30.0</ele><time>2026-04-20T09:20:33Z</time></trkpt><trkpt lat="14.36981501084168" lon="120.89369990210831"><ele>29.5</ele><time>2026-04-20T09:20:34Z</time></trkpt><trkpt lat="14.369849265281292" lon="120.89382142970233"><ele>29.0</ele><time>2026-04-20T09:20:35Z</time></trkpt><trkpt lat="14.369887522821333" lon="120.89394745221082"><ele>28.5</ele><time>2026-04-20T09:20:36Z</time></trkpt><trkpt lat="14.369925475467438" lon="120.8940737974855"><ele>28.0</ele><time>2026-04-20T09:20:37Z</time></trkpt><trkpt lat="14.369957416566793" lon="120.89419418740633"><ele>28.5</ele><time>2026-04-20T09:20:38Z</time></trkpt><trkpt lat="14.369996437332444" lon="120.89432667503038"><ele>29.0</ele><time>2026-04-20T09:20:39Z</time></trkpt><trkpt lat="14.370035876128437" lon="120.89445805733271"><ele>29.5</ele><time>2026-04-20T09:20:40Z</time></trkpt><trkpt lat="14.370067750148952" lon="120.89458892032265"><ele>30.0</ele><time>2026-04-20T09:20:41Z</time></trkpt><trkpt lat="14.37010404956648" lon="120.89472273200482"><ele>30.0</ele><time>2026-04-20T09:20:42Z</time></trkpt><trkpt lat="14.370138256313792" lon="120.89485498775359"><ele>30.0</ele><time>2026-04-20T09:20:43Z</time></trkpt><trkpt lat="14.370169353281343" lon="120.8949849425586"><ele>30.0</ele><time>2026-04-20T09:20:44Z</time></trkpt><trkpt lat="14.370202583514377" lon="120.89510583574582"><ele>30.0</ele><time>2026-04-20T09:20:45Z</time></trkpt><trkpt lat="14.370232904545777" lon="120.895219255195"><ele>29.75</ele><time>2026-04-20T09:20:46Z</time></trkpt><trkpt lat="14.370269394160427" lon="120.89533725681622"><ele>29.5</ele><time>2026-04-20T09:20:47Z</time></trkpt><trkpt lat="14.370291063764618" lon="120.89544010404357"><ele>29.25</ele><time>2026-04-20T09:20:48Z</time></trkpt><trkpt lat="14.370324328121951" lon="120.89555864002776"><ele>29.0</ele><time>2026-04-20T09:20:49Z</time></trkpt><trkpt lat="14.370358592755142" lon="120.89568129435581"><ele>29.0</ele><time>2026-04-20T09:20:50Z</time></trkpt><trkpt lat="14.370387726357547" lon="120.89579763636623"><ele>29.0</ele><time>2026-04-20T09:20:51Z</time></trkpt><trkpt lat="14.370410810601937" lon="120.89590479040338"><ele>29.0</ele><time>2026-04-20T09:20:52Z</time></trkpt><trkpt lat="14.37043842325954" lon="120.89600924064223"><ele>29.0</ele><time>2026-04-20T09:20:53Z</time></trkpt><trkpt lat="14.370475184742856" lon="120.8961171611694"><ele>29.0</ele><time>2026-04-20T09:20:54Z</time></trkpt><trkpt lat="14.37049995548341" lon="120.89620368452469"><ele>29.666666666666664</ele><time>2026-04-20T09:20:55Z</time></trkpt><trkpt lat="14.370526081218669" lon="120.89628597160834"><ele>30.333333333333332</ele><time>2026-04-20T09:20:56Z</time></trkpt><trkpt lat="14.37054882404964" lon="120.89636652781472"><ele>31.0</ele><time>2026-04-20T09:20:57Z</time></trkpt><trkpt lat="14.370572601898022" lon="120.89644454531202"><ele>31.666666666666664</ele><time>2026-04-20T09:20:58Z</time></trkpt><trkpt lat="14.370602707352878" lon="120.8965151416317"><ele>32.333333333333336</ele><time>2026-04-20T09:20:59Z</time></trkpt><trkpt lat="14.370641917310909" lon="120.8965842126635"><ele>33.0</ele><time>2026-04-20T09:21:00Z</time></trkpt><trkpt lat="14.370693924112468" lon="120.89665244253946"><ele>33.0</ele><time>2026-04-20T09:21:01Z</time></trkpt><trkpt lat="14.37075685568119" lon="120.89671537606354"><ele>33.0</ele><time>2026-04-20T09:21:02Z</time></trkpt><trkpt lat="14.37083541377275" lon="120.89677737058678"><ele>33.0</ele><time>2026-04-20T09:21:03Z</time></trkpt><trkpt lat="14.37092190922813" lon="120.89684009130244"><ele>33.0</ele><time>2026-04-20T09:21:04Z</time></trkpt><trkpt lat="14.371015160401218" lon="120.8969076264467"><ele>33.0</ele><time>2026-04-20T09:21:05Z</time></trkpt><trkpt lat="14.371122762809728" lon="120.89698149497984"><ele>32.75</ele><time>2026-04-20T09:21:06Z</time></trkpt><trkpt lat="14.371225943081411" lon="120.89705597001256"><ele>32.5</ele><time>2026-04-20T09:21:07Z</time></trkpt><trkpt lat="14.371330676474294" lon="120.8971327062086"><ele>32.25</ele><time>2026-04-20T09:21:08Z</time></trkpt><trkpt lat="14.371433440576014" lon="120.8972137546393"><ele>32.0</ele><time>2026-04-20T09:21:09Z</time></trkpt><trkpt lat="14.371539727528258" lon="120.8972960389186"><ele>32.0</ele><time>2026-04-20T09:21:10Z</time></trkpt><trkpt lat="14.371645171029623" lon="120.89737744705889"><ele>32.0</ele><time>2026-04-20T09:21:11Z</time></trkpt><trkpt lat="14.371753017851935" lon="120.8974580055112"><ele>32.0</ele><time>2026-04-20T09:21:12Z</time></trkpt><trkpt lat="14.37186117810247" lon="120.8975379725527"><ele>32.0</ele><time>2026-04-20T09:21:13Z</time></trkpt><trkpt lat="14.371970463106335" lon="120.89761997808253"><ele>31.5</ele><time>2026-04-20T09:21:14Z</time></trkpt><trkpt lat="14.37207536865317" lon="120.8977020722951"><ele>31.0</ele><time>2026-04-20T09:21:15Z</time></trkpt><trkpt lat="14.37218523083985" lon="120.89778547326766"><ele>30.5</ele><time>2026-04-20T09:21:16Z</time></trkpt><trkpt lat="14.372293264122947" lon="120.89786566566744"><ele>30.0</ele><time>2026-04-20T09:21:17Z</time></trkpt><trkpt lat="14.372405194504392" lon="120.89794755447224"><ele>30.0</ele><time>2026-04-20T09:21:18Z</time></trkpt><trkpt lat="14.372516600623976" lon="120.89803114997532"><ele>30.0</ele><time>2026-04-20T09:21:19Z</time></trkpt><trkpt lat="14.37262756016693" lon="120.89811535147153"><ele>30.0</ele><time>2026-04-20T09:21:20Z</time></trkpt><trkpt lat="14.372736425560861" lon="120.89820139349698"><ele>30.0</ele><time>2026-04-20T09:21:21Z</time></trkpt><trkpt lat="14.37284663640342" lon="120.8982893602361"><ele>30.0</ele><time>2026-04-20T09:21:22Z</time></trkpt><trkpt lat="14.37294976648825" lon="120.89838266741508"><ele>30.0</ele><time>2026-04-20T09:21:23Z</time></trkpt><trkpt lat="14.373048523094662" lon="120.898479640143"><ele>30.0</ele><time>2026-04-20T09:21:24Z</time></trkpt><trkpt lat="14.373131819606593" lon="120.89858606758152"><ele>30.0</ele><time>2026-04-20T09:21:25Z</time></trkpt><trkpt lat="14.373204036431444" lon="120.89869661788747"><ele>30.0</ele><time>2026-04-20T09:21:26Z</time></trkpt><trkpt lat="14.373276209546505" lon="120.89881141490457"><ele>30.0</ele><time>2026-04-20T09:21:27Z</time></trkpt><trkpt lat="14.373338596620481" lon="120.89892382100174"><ele>30.0</ele><time>2026-04-20T09:21:28Z</time></trkpt><trkpt lat="14.373385691600058" lon="120.89903082469756"><ele>30.0</ele><time>2026-04-20T09:21:29Z</time></trkpt><trkpt lat="14.373415118137338" lon="120.89913974188772"><ele>30.0</ele><time>2026-04-20T09:21:30Z</time></trkpt><trkpt lat="14.373453979358557" lon="120.89925717581605"><ele>30.0</ele><time>2026-04-20T09:21:31Z</time></trkpt><trkpt lat="14.373477777062686" lon="120.89937451915584"><ele>30.0</ele><time>2026-04-20T09:21:32Z</time></trkpt><trkpt lat="14.373497049435338" lon="120.89949191102568"><ele>30.0</ele><time>2026-04-20T09:21:33Z</time></trkpt><trkpt lat="14.37352593055511" lon="120.89962132714008"><ele>30.0</ele><time>2026-04-20T09:21:34Z</time></trkpt><trkpt lat="14.373546081887984" lon="120.89975306557648"><ele>30.0</ele><time>2026-04-20T09:21:35Z</time></trkpt><trkpt lat="14.373564672757931" lon="120.8998852353672"><ele>30.0</ele><time>2026-04-20T09:21:36Z</time></trkpt><trkpt lat="14.373585648819153" lon="120.90002241718457"><ele>30.0</ele><time>2026-04-20T09:21:37Z</time></trkpt><trkpt lat="14.3736113579604" lon="120.90016424090331"><ele>30.5</ele><time>2026-04-20T09:21:38Z</time></trkpt><trkpt lat="14.373638149254104" lon="120.9003097226986"><ele>31.0</ele><time>2026-04-20T09:21:39Z</time></trkpt><trkpt lat="14.373662373483848" lon="120.90045097540123"><ele>31.5</ele><time>2026-04-20T09:21:40Z</time></trkpt><trkpt lat="14.373690535178437" lon="120.90059052495668"><ele>32.0</ele><time>2026-04-20T09:21:41Z</time></trkpt><trkpt lat="14.373719092553458" lon="120.90071789402913"><ele>32.0</ele><time>2026-04-20T09:21:42Z</time></trkpt><trkpt lat="14.373747832273502" lon="120.90083289804824"><ele>32.0</ele><time>2026-04-20T09:21:43Z</time></trkpt><trkpt lat="14.373790800794398" lon="120.9009444456531"><ele>32.0</ele><time>2026-04-20T09:21:44Z</time></trkpt><trkpt lat="14.37383939290695" lon="120.90103818522329"><ele>32.0</ele><time>2026-04-20T09:21:45Z</time></trkpt><trkpt lat="14.37390313666556" lon="120.90111960343303"><ele>32.0</ele><time>2026-04-20T09:21:46Z</time></trkpt><trkpt lat="14.373979883570229" lon="120.90118408761231"><ele>31.400000000000002</ele><time>2026-04-20T09:21:47Z</time></trkpt><trkpt lat="14.37405966647664" lon="120.9012410445509"><ele>30.800000000000004</ele><time>2026-04-20T09:21:48Z</time></trkpt><trkpt lat="14.374160630357704" lon="120.9012875022389"><ele>30.2</ele><time>2026-04-20T09:21:49Z</time></trkpt><trkpt lat="14.374254112450679" lon="120.90132696039333"><ele>29.6</ele><time>2026-04-20T09:21:50Z</time></trkpt><trkpt lat="14.374355855172626" lon="120.90135466734301"><ele>29.0</ele><time>2026-04-20T09:21:51Z</time></trkpt><trkpt lat="14.374466647855382" lon="120.90137059723192"><ele>29.0</ele><time>2026-04-20T09:21:52Z</time></trkpt><trkpt lat="14.374577268074763" lon="120.90138283824028"><ele>29.0</ele><time>2026-04-20T09:21:53Z</time></trkpt><trkpt lat="14.374691036764492" lon="120.90139333072555"><ele>29.0</ele><time>2026-04-20T09:21:54Z</time></trkpt><trkpt lat="14.374809791840528" lon="120.9014038838199"><ele>29.0</ele><time>2026-04-20T09:21:55Z</time></trkpt><trkpt lat="14.374935473541985" lon="120.90141014192375"><ele>29.0</ele><time>2026-04-20T09:21:56Z</time></trkpt><trkpt lat="14.37506507807228" lon="120.90142047691415"><ele>29.0</ele><time>2026-04-20T09:21:57Z</time></trkpt><trkpt lat="14.375192647160672" lon="120.90143690453297"><ele>29.0</ele><time>2026-04-20T09:21:58Z</time></trkpt><trkpt lat="14.375329298338865" lon="120.90144644218"><ele>29.0</ele><time>2026-04-20T09:21:59Z</time></trkpt><trkpt lat="14.37546399928431" lon="120.90145977500907"><ele>28.75</ele><time>2026-04-20T09:22:00Z</time></trkpt><trkpt lat="14.375603595189927" lon="120.90146898299624"><ele>28.5</ele><time>2026-04-20T09:22:01Z</time></trkpt><trkpt lat="14.375748421909826" lon="120.90147610600967"><ele>28.25</ele><time>2026-04-20T09:22:02Z</time></trkpt><trkpt lat="14.375890416871037" lon="120.90149025086292"><ele>28.0</ele><time>2026-04-20T09:22:03Z</time></trkpt><trkpt lat="14.376033457573556" lon="120.90150689936276"><ele>28.0</ele><time>2026-04-20T09:22:04Z</time></trkpt><trkpt lat="14.376185320162719" lon="120.90151400147931"><ele>28.0</ele><time>2026-04-20T09:22:05Z</time></trkpt><trkpt lat="14.37632939535948" lon="120.9015320839833"><ele>28.0</ele><time>2026-04-20T09:22:06Z</time></trkpt><trkpt lat="14.376477716560071" lon="120.90154843906446"><ele>28.0</ele><time>2026-04-20T09:22:07Z</time></trkpt><trkpt lat="14.376630373913729" lon="120.90156634871789"><ele>27.0</ele><time>2026-04-20T09:22:08Z</time></trkpt><trkpt lat="14.376784103958054" lon="120.90158479090371"><ele>26.0</ele><time>2026-04-20T09:22:09Z</time></trkpt><trkpt lat="14.376935301414312" lon="120.90160344171026"><ele>25.0</ele><time>2026-04-20T09:22:10Z</time></trkpt><trkpt lat="14.377089483576501" lon="120.90162398134413"><ele>25.0</ele><time>2026-04-20T09:22:11Z</time></trkpt><trkpt lat="14.377245975648764" lon="120.9016448326299"><ele>25.0</ele><time>2026-04-20T09:22:12Z</time></trkpt><trkpt lat="14.377402196666635" lon="120.90166412982852"><ele>25.0</ele><time>2026-04-20T09:22:13Z</time></trkpt><trkpt lat="14.377551773376215" lon="120.90169035083989"><ele>25.0</ele><time>2026-04-20T09:22:14Z</time></trkpt><trkpt lat="14.377696363589887" lon="120.90171023574635"><ele>25.0</ele><time>2026-04-20T09:22:15Z</time></trkpt><trkpt lat="14.377829917175433" lon="120.90173239003228"><ele>25.0</ele><time>2026-04-20T09:22:16Z</time></trkpt><trkpt lat="14.377961196957996" lon="120.9017491872483"><ele>25.0</ele><time>2026-04-20T09:22:17Z</time></trkpt><trkpt lat="14.378085188737487" lon="120.90176863475827"><ele>25.5</ele><time>2026-04-20T09:22:18Z</time></trkpt><trkpt lat="14.378199586485364" lon="120.90179028096964"><ele>26.0</ele><time>2026-04-20T09:22:19Z</time></trkpt><trkpt lat="14.378319436811756" lon="120.90180990297821"><ele>26.5</ele><time>2026-04-20T09:22:20Z</time></trkpt><trkpt lat="14.378431327147377" lon="120.90183488590729"><ele>27.0</ele><time>2026-04-20T09:22:21Z</time></trkpt><trkpt lat="14.378559634679306" lon="120.90185515447159"><ele>27.0</ele><time>2026-04-20T09:22:22Z</time></trkpt><trkpt lat="14.378673570601965" lon="120.90187984343873"><ele>27.0</ele><time>2026-04-20T09:22:23Z</time></trkpt><trkpt lat="14.378801284707881" lon="120.90189871767815"><ele>27.0</ele><time>2026-04-20T09:22:24Z</time></trkpt><trkpt lat="14.378923786489148" lon="120.90192343390378"><ele>27.0</ele><time>2026-04-20T09:22:25Z</time></trkpt><trkpt lat="14.37905338504209" lon="120.90194962754754"><ele>26.25</ele><time>2026-04-20T09:22:26Z</time></trkpt><trkpt lat="14.379182130063697" lon="120.90198197393977"><ele>25.5</ele><time>2026-04-20T09:22:27Z</time></trkpt><trkpt lat="14.37931737069961" lon="120.90200869401384"><ele>24.75</ele><time>2026-04-20T09:22:28Z</time></trkpt><trkpt lat="14.379450508369917" lon="120.90203642531384"><ele>24.0</ele><time>2026-04-20T09:22:29Z</time></trkpt><trkpt lat="14.37958686606026" lon="120.90206554151115"><ele>23.75</ele><time>2026-04-20T09:22:30Z</time></trkpt><trkpt lat="14.379726791236727" lon="120.90209540170014"><ele>23.5</ele><time>2026-04-20T09:22:31Z</time></trkpt><trkpt lat="14.379861655099171" lon="120.90212165334412"><ele>23.25</ele><time>2026-04-20T09:22:32Z</time></trkpt><trkpt lat="14.379995462751046" lon="120.90214549697255"><ele>23.0</ele><time>2026-04-20T09:22:33Z</time></trkpt><trkpt lat="14.38012675605628" lon="120.90217010638672"><ele>23.0</ele><time>2026-04-20T09:22:34Z</time></trkpt><trkpt lat="14.380255955973427" lon="120.90219644334975"><ele>23.0</ele><time>2026-04-20T09:22:35Z</time></trkpt><trkpt lat="14.380383674309105" lon="120.90221784432096"><ele>23.0</ele><time>2026-04-20T09:22:36Z</time></trkpt><trkpt lat="14.380517278191176" lon="120.90224125823981"><ele>23.0</ele><time>2026-04-20T09:22:37Z</time></trkpt><trkpt lat="14.380649407084775" lon="120.9022622568845"><ele>23.5</ele><time>2026-04-20T09:22:38Z</time></trkpt><trkpt lat="14.380780511397763" lon="120.9022827785992"><ele>24.0</ele><time>2026-04-20T09:22:39Z</time></trkpt><trkpt lat="14.380906983796548" lon="120.90229409894107"><ele>24.5</ele><time>2026-04-20T09:22:40Z</time></trkpt><trkpt lat="14.381035732632567" lon="120.90228684491038"><ele>25.0</ele><time>2026-04-20T09:22:41Z</time></trkpt><trkpt lat="14.381163423379109" lon="120.90225785369492"><ele>25.0</ele><time>2026-04-20T09:22:42Z</time></trkpt><trkpt lat="14.381283867812238" lon="120.90221971150856"><ele>25.0</ele><time>2026-04-20T09:22:43Z</time></trkpt><trkpt lat="14.381394945593568" lon="120.90217284385304"><ele>25.0</ele><time>2026-04-20T09:22:44Z</time></trkpt><trkpt lat="14.381500394577387" lon="120.90210991799833"><ele>25.0</ele><time>2026-04-20T09:22:45Z</time></trkpt><trkpt lat="14.381596536195985" lon="120.90204077941183"><ele>24.6</ele><time>2026-04-20T09:22:46Z</time></trkpt><trkpt lat="14.381683224966116" lon="120.90197727919858"><ele>24.2</ele><time>2026-04-20T09:22:47Z</time></trkpt><trkpt lat="14.381769583329463" lon="120.90189520269853"><ele>23.799999999999997</ele><time>2026-04-20T09:22:48Z</time></trkpt><trkpt lat="14.381853281178726" lon="120.9018251629504"><ele>23.4</ele><time>2026-04-20T09:22:49Z</time></trkpt><trkpt lat="14.381934759112038" lon="120.90174554615794"><ele>23.0</ele><time>2026-04-20T09:22:50Z</time></trkpt><trkpt lat="14.382021384357815" lon="120.9016708725095"><ele>22.75</ele><time>2026-04-20T09:22:51Z</time></trkpt><trkpt lat="14.382096068011888" lon="120.90158789843747"><ele>22.5</ele><time>2026-04-20T09:22:52Z</time></trkpt><trkpt lat="14.38218373488828" lon="120.90150555030553"><ele>22.25</ele><time>2026-04-20T09:22:53Z</time></trkpt><trkpt lat="14.382265506602435" lon="120.90142264994748"><ele>22.0</ele><time>2026-04-20T09:22:54Z</time></trkpt><trkpt lat="14.382344465188096" lon="120.90134624758396"><ele>22.0</ele><time>2026-04-20T09:22:55Z</time></trkpt><trkpt lat="14.382424017703102" lon="120.90126391664127"><ele>22.0</ele><time>2026-04-20T09:22:56Z</time></trkpt><trkpt lat="14.382505971629758" lon="120.90118685575881"><ele>22.0</ele><time>2026-04-20T09:22:57Z</time></trkpt><trkpt lat="14.382591031227948" lon="120.90110146633317"><ele>22.0</ele><time>2026-04-20T09:22:58Z</time></trkpt><trkpt lat="14.382679474047784" lon="120.90101024077161"><ele>22.0</ele><time>2026-04-20T09:22:59Z</time></trkpt><trkpt lat="14.382766185108945" lon="120.90092250693527"><ele>22.0</ele><time>2026-04-20T09:23:00Z</time></trkpt><trkpt lat="14.382856520388904" lon="120.90083018784247"><ele>22.0</ele><time>2026-04-20T09:23:01Z</time></trkpt><trkpt lat="14.382950047273374" lon="120.90073477746414"><ele>22.0</ele><time>2026-04-20T09:23:02Z</time></trkpt><trkpt lat="14.3830438046034" lon="120.90064098393337"><ele>22.0</ele><time>2026-04-20T09:23:03Z</time></trkpt><trkpt lat="14.38313863460119" lon="120.90053957876727"><ele>22.0</ele><time>2026-04-20T09:23:04Z</time></trkpt><trkpt lat="14.383235883549908" lon="120.90044371616685"><ele>22.0</ele><time>2026-04-20T09:23:05Z</time></trkpt><trkpt lat="14.383334196430758" lon="120.90034567369382"><ele>22.0</ele><time>2026-04-20T09:23:06Z</time></trkpt><trkpt lat="14.383431231367094" lon="120.90024874523625"><ele>22.0</ele><time>2026-04-20T09:23:07Z</time></trkpt><trkpt lat="14.383530191719403" lon="120.90014642243639"><ele>22.0</ele><time>2026-04-20T09:23:08Z</time></trkpt><trkpt lat="14.383627201230698" lon="120.90004543588411"><ele>22.0</ele><time>2026-04-20T09:23:09Z</time></trkpt><trkpt lat="14.383720803964335" lon="120.89995172432297"><ele>22.0</ele><time>2026-04-20T09:23:10Z</time></trkpt><trkpt lat="14.383822422467949" lon="120.89985785692438"><ele>22.0</ele><time>2026-04-20T09:23:11Z</time></trkpt><trkpt lat="14.38392887769261" lon="120.89977668008784"><ele>22.0</ele><time>2026-04-20T09:23:12Z</time></trkpt><trkpt lat="14.384042597330035" lon="120.89970131394121"><ele>22.0</ele><time>2026-04-20T09:23:13Z</time></trkpt><trkpt lat="14.384157030560766" lon="120.89963268699638"><ele>22.0</ele><time>2026-04-20T09:23:14Z</time></trkpt><trkpt lat="14.384270841051569" lon="120.89956633333799"><ele>22.0</ele><time>2026-04-20T09:23:15Z</time></trkpt><trkpt lat="14.384385746018534" lon="120.89951500503342"><ele>22.0</ele><time>2026-04-20T09:23:16Z</time></trkpt><trkpt lat="14.384504618979813" lon="120.89945934355414"><ele>22.0</ele><time>2026-04-20T09:23:17Z</time></trkpt><trkpt lat="14.384623574028112" lon="120.89941736765618"><ele>22.0</ele><time>2026-04-20T09:23:18Z</time></trkpt><trkpt lat="14.384743861952888" lon="120.89938040527663"><ele>22.0</ele><time>2026-04-20T09:23:19Z</time></trkpt><trkpt lat="14.384865024112178" lon="120.89934734220016"><ele>22.0</ele><time>2026-04-20T09:23:20Z</time></trkpt><trkpt lat="14.384974806126506" lon="120.89931826551847"><ele>22.0</ele><time>2026-04-20T09:23:21Z</time></trkpt><trkpt lat="14.385076253050055" lon="120.89929432127643"><ele>22.0</ele><time>2026-04-20T09:23:22Z</time></trkpt><trkpt lat="14.385175550425073" lon="120.89927284781442"><ele>22.0</ele><time>2026-04-20T09:23:23Z</time></trkpt><trkpt lat="14.385260396894056" lon="120.89926276968652"><ele>22.0</ele><time>2026-04-20T09:23:24Z</time></trkpt><trkpt lat="14.38533119492859" lon="120.89925433151151"><ele>22.0</ele><time>2026-04-20T09:23:25Z</time></trkpt><trkpt lat="14.385454384577034" lon="120.89923172279092"><ele>22.0</ele><time>2026-04-20T09:23:27Z</time></trkpt><trkpt lat="14.385546725261994" lon="120.89920832295819"><ele>22.0</ele><time>2026-04-20T09:23:29Z</time></trkpt><trkpt lat="14.385620418004674" lon="120.89918422220053"><ele>22.0</ele><time>2026-04-20T09:23:31Z</time></trkpt><trkpt lat="14.385721761467016" lon="120.89916022409888"><ele>22.0</ele><time>2026-04-20T09:23:34Z</time></trkpt><trkpt lat="14.385822518950375" lon="120.89912981289474"><ele>22.0</ele><time>2026-04-20T09:23:36Z</time></trkpt><trkpt lat="14.38591940215303" lon="120.89910957966057"><ele>22.0</ele><time>2026-04-20T09:23:38Z</time></trkpt><trkpt lat="14.386026611705974" lon="120.89908146972058"><ele>22.0</ele><time>2026-04-20T09:23:40Z</time></trkpt><trkpt lat="14.386131125676107" lon="120.89905193119193"><ele>22.0</ele><time>2026-04-20T09:23:42Z</time></trkpt><trkpt lat="14.386222594185337" lon="120.89903006151515"><ele>22.0</ele><time>2026-04-20T09:23:44Z</time></trkpt><trkpt lat="14.386314266926643" lon="120.89899877815552"><ele>22.0</ele><time>2026-04-20T09:23:46Z</time></trkpt><trkpt lat="14.386420994258982" lon="120.89896743804206"><ele>22.0</ele><time>2026-04-20T09:23:48Z</time></trkpt><trkpt lat="14.386531458381299" lon="120.8989156423437"><ele>22.0</ele><time>2026-04-20T09:23:50Z</time></trkpt><trkpt lat="14.38664263049007" lon="120.8988699486793"><ele>22.0</ele><time>2026-04-20T09:23:52Z</time></trkpt><trkpt lat="14.38671698711138" lon="120.89884332579481"><ele>22.0</ele><time>2026-04-20T09:23:54Z</time></trkpt><trkpt lat="14.386800801499701" lon="120.89880999698447"><ele>22.0</ele><time>2026-04-20T09:23:57Z</time></trkpt><trkpt lat="14.38688343277821" lon="120.89877623722712"><ele>22.0</ele><time>2026-04-20T09:24:01Z</time></trkpt><trkpt lat="14.386946758888548" lon="120.89874708604184"><ele>22.0</ele><time>2026-04-20T09:24:03Z</time></trkpt><trkpt lat="14.38701755880975" lon="120.89871714902209"><ele>22.0</ele><time>2026-04-20T09:24:06Z</time></trkpt><trkpt lat="14.387079351352032" lon="120.89868821515083"><ele>22.0</ele><time>2026-04-20T09:24:08Z</time></trkpt><trkpt lat="14.387147423671701" lon="120.89865760698227"><ele>22.0</ele><time>2026-04-20T09:24:10Z</time></trkpt><trkpt lat="14.38723675886928" lon="120.89861569168052"><ele>22.0</ele><time>2026-04-20T09:24:12Z</time></trkpt><trkpt lat="14.387295325870259" lon="120.8985890228804"><ele>22.0</ele><time>2026-04-20T09:24:13Z</time></trkpt><trkpt lat="14.387358793355716" lon="120.89856246790809"><ele>22.0</ele><time>2026-04-20T09:24:14Z</time></trkpt><trkpt lat="14.387424123489994" lon="120.89853331647583"><ele>22.0</ele><time>2026-04-20T09:24:15Z</time></trkpt><trkpt lat="14.387493889225142" lon="120.89850258865275"><ele>22.0</ele><time>2026-04-20T09:24:16Z</time></trkpt><trkpt lat="14.387568182971313" lon="120.89847290868562"><ele>22.0</ele><time>2026-04-20T09:24:17Z</time></trkpt><trkpt lat="14.387649968640645" lon="120.89844461459056"><ele>22.0</ele><time>2026-04-20T09:24:18Z</time></trkpt><trkpt lat="14.38774413441329" lon="120.8984225965424"><ele>22.0</ele><time>2026-04-20T09:24:19Z</time></trkpt><trkpt lat="14.387825108042662" lon="120.89840722023216"><ele>22.0</ele><time>2026-04-20T09:24:20Z</time></trkpt><trkpt lat="14.387918011365073" lon="120.89839646323148"><ele>22.0</ele><time>2026-04-20T09:24:21Z</time></trkpt><trkpt lat="14.388001348076038" lon="120.89838749453864"><ele>22.0</ele><time>2026-04-20T09:24:22Z</time></trkpt><trkpt lat="14.388082634619785" lon="120.89838079909934"><ele>21.666666666666664</ele><time>2026-04-20T09:24:23Z</time></trkpt><trkpt lat="14.388153464104143" lon="120.8983719821785"><ele>21.333333333333332</ele><time>2026-04-20T09:24:24Z</time></trkpt><trkpt lat="14.388225144915333" lon="120.89836615576172"><ele>21.0</ele><time>2026-04-20T09:24:25Z</time></trkpt><trkpt lat="14.388344917988373" lon="120.89835226098882"><ele>20.666666666666668</ele><time>2026-04-20T09:24:27Z</time></trkpt><trkpt lat="14.38846204968691" lon="120.89833958535738"><ele>20.333333333333336</ele><time>2026-04-20T09:24:29Z</time></trkpt><trkpt lat="14.388528258337324" lon="120.89832556148863"><ele>20.0</ele><time>2026-04-20T09:24:30Z</time></trkpt><trkpt lat="14.38861206036009" lon="120.89831515806338"><ele>20.0</ele><time>2026-04-20T09:24:31Z</time></trkpt><trkpt lat="14.388693621427109" lon="120.89830628850684"><ele>20.0</ele><time>2026-04-20T09:24:32Z</time></trkpt><trkpt lat="14.388785989898851" lon="120.89829940914979"><ele>20.0</ele><time>2026-04-20T09:24:33Z</time></trkpt><trkpt lat="14.388880450478657" lon="120.89829440012689"><ele>20.0</ele><time>2026-04-20T09:24:34Z</time></trkpt><trkpt lat="14.388974635478375" lon="120.89828969387723"><ele>20.0</ele><time>2026-04-20T09:24:35Z</time></trkpt><trkpt lat="14.3890748707404" lon="120.89828945880681"><ele>19.75</ele><time>2026-04-20T09:24:36Z</time></trkpt><trkpt lat="14.389180067711777" lon="120.89829464675329"><ele>19.5</ele><time>2026-04-20T09:24:37Z</time></trkpt><trkpt lat="14.389295645618928" lon="120.8983118427374"><ele>19.25</ele><time>2026-04-20T09:24:38Z</time></trkpt><trkpt lat="14.389405922831372" lon="120.89834395645295"><ele>19.0</ele><time>2026-04-20T09:24:39Z</time></trkpt><trkpt lat="14.389513860557392" lon="120.89839402228426"><ele>18.75</ele><time>2026-04-20T09:24:40Z</time></trkpt><trkpt lat="14.389619215887867" lon="120.89845557595007"><ele>18.5</ele><time>2026-04-20T09:24:41Z</time></trkpt><trkpt lat="14.389715073250628" lon="120.89852976519293"><ele>18.25</ele><time>2026-04-20T09:24:42Z</time></trkpt><trkpt lat="14.389800690340243" lon="120.8986044541317"><ele>18.0</ele><time>2026-04-20T09:24:43Z</time></trkpt><trkpt lat="14.3898742964209" lon="120.89869715767182"><ele>17.75</ele><time>2026-04-20T09:24:44Z</time></trkpt><trkpt lat="14.38993808975152" lon="120.89879745271861"><ele>17.5</ele><time>2026-04-20T09:24:45Z</time></trkpt><trkpt lat="14.38999675178073" lon="120.89890184360472"><ele>17.25</ele><time>2026-04-20T09:24:46Z</time></trkpt><trkpt lat="14.390047052711651" lon="120.89901552853705"><ele>17.0</ele><time>2026-04-20T09:24:47Z</time></trkpt><trkpt lat="14.390095784492797" lon="120.89912446192099"><ele>17.0</ele><time>2026-04-20T09:24:48Z</time></trkpt><trkpt lat="14.390146410269315" lon="120.89923151770756"><ele>17.0</ele><time>2026-04-20T09:24:49Z</time></trkpt><trkpt lat="14.390200378007197" lon="120.89933965802837"><ele>17.0</ele><time>2026-04-20T09:24:50Z</time></trkpt><trkpt lat="14.390249439337712" lon="120.89944467610275"><ele>17.0</ele><time>2026-04-20T09:24:51Z</time></trkpt><trkpt lat="14.390297560702125" lon="120.899558899011"><ele>17.5</ele><time>2026-04-20T09:24:52Z</time></trkpt><trkpt lat="14.390343277071254" lon="120.89966526117854"><ele>18.0</ele><time>2026-04-20T09:24:53Z</time></trkpt><trkpt lat="14.390395843772563" lon="120.89977485641091"><ele>18.5</ele><time>2026-04-20T09:24:54Z</time></trkpt><trkpt lat="14.3904491720001" lon="120.89988734020751"><ele>19.0</ele><time>2026-04-20T09:24:55Z</time></trkpt><trkpt lat="14.390499536268734" lon="120.89999879153754"><ele>19.25</ele><time>2026-04-20T09:24:56Z</time></trkpt><trkpt lat="14.390555356084514" lon="120.90011555301692"><ele>19.5</ele><time>2026-04-20T09:24:57Z</time></trkpt><trkpt lat="14.390606820586148" lon="120.90023322720218"><ele>19.75</ele><time>2026-04-20T09:24:58Z</time></trkpt><trkpt lat="14.390664561872475" lon="120.90035979469015"><ele>20.0</ele><time>2026-04-20T09:24:59Z</time></trkpt><trkpt lat="14.390723874479246" lon="120.90049672060788"><ele>20.0</ele><time>2026-04-20T09:25:00Z</time></trkpt><trkpt lat="14.390787397538737" lon="120.90063604582598"><ele>20.0</ele><time>2026-04-20T09:25:01Z</time></trkpt><trkpt lat="14.3908546478694" lon="120.90077466981481"><ele>20.0</ele><time>2026-04-20T09:25:02Z</time></trkpt><trkpt lat="14.390924394977203" lon="120.9009138865298"><ele>20.25</ele><time>2026-04-20T09:25:03Z</time></trkpt><trkpt lat="14.390988090684315" lon="120.90104374499624"><ele>20.5</ele><time>2026-04-20T09:25:04Z</time></trkpt><trkpt lat="14.391048085338689" lon="120.90117193024506"><ele>20.75</ele><time>2026-04-20T09:25:05Z</time></trkpt><trkpt lat="14.391101899298578" lon="120.90128985287419"><ele>21.0</ele><time>2026-04-20T09:25:06Z</time></trkpt><trkpt lat="14.391154225042495" lon="120.90140667489786"><ele>21.0</ele><time>2026-04-20T09:25:07Z</time></trkpt><trkpt lat="14.391202024341956" lon="120.90151048079413"><ele>21.0</ele><time>2026-04-20T09:25:08Z</time></trkpt><trkpt lat="14.391254739452137" lon="120.90161895741986"><ele>21.0</ele><time>2026-04-20T09:25:09Z</time></trkpt><trkpt lat="14.39130727728779" lon="120.90172949009633"><ele>21.0</ele><time>2026-04-20T09:25:10Z</time></trkpt><trkpt lat="14.391356171054687" lon="120.9018345569032"><ele>21.0</ele><time>2026-04-20T09:25:11Z</time></trkpt><trkpt lat="14.39140948581088" lon="120.90195102369206"><ele>21.0</ele><time>2026-04-20T09:25:12Z</time></trkpt><trkpt lat="14.391461534738351" lon="120.90206066833977"><ele>21.0</ele><time>2026-04-20T09:25:13Z</time></trkpt><trkpt lat="14.391517342990614" lon="120.90217342267623"><ele>21.0</ele><time>2026-04-20T09:25:14Z</time></trkpt><trkpt lat="14.391568765265077" lon="120.90228170362174"><ele>21.0</ele><time>2026-04-20T09:25:15Z</time></trkpt><trkpt lat="14.391620076399235" lon="120.90238194405073"><ele>21.0</ele><time>2026-04-20T09:25:16Z</time></trkpt><trkpt lat="14.391672173259009" lon="120.90248830468917"><ele>21.0</ele><time>2026-04-20T09:25:17Z</time></trkpt><trkpt lat="14.391710254841987" lon="120.90257149209361"><ele>21.0</ele><time>2026-04-20T09:25:18Z</time></trkpt><trkpt lat="14.391758221759739" lon="120.9026641596949"><ele>21.0</ele><time>2026-04-20T09:25:19Z</time></trkpt><trkpt lat="14.391808785176144" lon="120.90276637304"><ele>20.8</ele><time>2026-04-20T09:25:20Z</time></trkpt><trkpt lat="14.391857595419099" lon="120.90286794341002"><ele>20.6</ele><time>2026-04-20T09:25:21Z</time></trkpt><trkpt lat="14.391907680295388" lon="120.90296346792323"><ele>20.4</ele><time>2026-04-20T09:25:22Z</time></trkpt><trkpt lat="14.391959611019276" lon="120.90305941329801"><ele>20.2</ele><time>2026-04-20T09:25:23Z</time></trkpt><trkpt lat="14.392013714827687" lon="120.90316148689584"><ele>20.0</ele><time>2026-04-20T09:25:24Z</time></trkpt><trkpt lat="14.392064579495626" lon="120.90326884063776"><ele>20.0</ele><time>2026-04-20T09:25:25Z</time></trkpt><trkpt lat="14.392114818690619" lon="120.90338085176327"><ele>20.0</ele><time>2026-04-20T09:25:26Z</time></trkpt><trkpt lat="14.392161427800797" lon="120.9034891851111"><ele>20.0</ele><time>2026-04-20T09:25:27Z</time></trkpt><trkpt lat="14.392207888320979" lon="120.90359533184676"><ele>20.0</ele><time>2026-04-20T09:25:28Z</time></trkpt><trkpt lat="14.392253024684416" lon="120.9036957106876"><ele>20.0</ele><time>2026-04-20T09:25:29Z</time></trkpt><trkpt lat="14.392297374930138" lon="120.90378894268575"><ele>20.0</ele><time>2026-04-20T09:25:30Z</time></trkpt><trkpt lat="14.392342048918554" lon="120.90387619280662"><ele>20.0</ele><time>2026-04-20T09:25:31Z</time></trkpt><trkpt lat="14.39238768120633" lon="120.90395534568032"><ele>20.0</ele><time>2026-04-20T09:25:32Z</time></trkpt><trkpt lat="14.392440237108453" lon="120.9040284495837"><ele>20.0</ele><time>2026-04-20T09:25:33Z</time></trkpt><trkpt lat="14.39249766126679" lon="120.90408800613235"><ele>20.0</ele><time>2026-04-20T09:25:34Z</time></trkpt><trkpt lat="14.392558103167508" lon="120.90414005709775"><ele>20.0</ele><time>2026-04-20T09:25:35Z</time></trkpt><trkpt lat="14.392621584630103" lon="120.90418329657355"><ele>20.0</ele><time>2026-04-20T09:25:36Z</time></trkpt><trkpt lat="14.392692653214977" lon="120.90422826924231"><ele>20.0</ele><time>2026-04-20T09:25:37Z</time></trkpt><trkpt lat="14.39277263493507" lon="120.90427790213299"><ele>20.0</ele><time>2026-04-20T09:25:38Z</time></trkpt><trkpt lat="14.39285684552028" lon="120.90433651786084"><ele>20.0</ele><time>2026-04-20T09:25:39Z</time></trkpt><trkpt lat="14.392941501278168" lon="120.90440028635238"><ele>20.4</ele><time>2026-04-20T09:25:40Z</time></trkpt><trkpt lat="14.393025484989597" lon="120.90446558601161"><ele>20.8</ele><time>2026-04-20T09:25:41Z</time></trkpt><trkpt lat="14.393114751035963" lon="120.90453023699614"><ele>21.200000000000003</ele><time>2026-04-20T09:25:42Z</time></trkpt><trkpt lat="14.393199671119882" lon="120.90459252901871"><ele>21.6</ele><time>2026-04-20T09:25:43Z</time></trkpt><trkpt lat="14.393300588818589" lon="120.90465584892874"><ele>22.0</ele><time>2026-04-20T09:25:44Z</time></trkpt><trkpt lat="14.393390160310917" lon="120.90471829836059"><ele>22.0</ele><time>2026-04-20T09:25:45Z</time></trkpt><trkpt lat="14.39347771488009" lon="120.9047802473198"><ele>22.0</ele><time>2026-04-20T09:25:46Z</time></trkpt><trkpt lat="14.393567672998294" lon="120.90484504759115"><ele>22.0</ele><time>2026-04-20T09:25:47Z</time></trkpt><trkpt lat="14.39365121230228" lon="120.90490627135172"><ele>22.0</ele><time>2026-04-20T09:25:48Z</time></trkpt><trkpt lat="14.393743638249713" lon="120.90496564576299"><ele>22.0</ele><time>2026-04-20T09:25:49Z</time></trkpt><trkpt lat="14.393829241413819" lon="120.90502562502651"><ele>22.200000000000003</ele><time>2026-04-20T09:25:50Z</time></trkpt><trkpt lat="14.393914627089565" lon="120.90508216219527"><ele>22.4</ele><time>2026-04-20T09:25:51Z</time></trkpt><trkpt lat="14.394003799492232" lon="120.90514026840687"><ele>22.6</ele><time>2026-04-20T09:25:52Z</time></trkpt><trkpt lat="14.394092685573952" lon="120.90519685412444"><ele>22.799999999999997</ele><time>2026-04-20T09:25:53Z</time></trkpt><trkpt lat="14.394168050716454" lon="120.90525464858523"><ele>23.0</ele><time>2026-04-20T09:25:54Z</time></trkpt><trkpt lat="14.394257939592816" lon="120.90531327281276"><ele>23.0</ele><time>2026-04-20T09:25:55Z</time></trkpt><trkpt lat="14.394339491671515" lon="120.90537296334938"><ele>23.0</ele><time>2026-04-20T09:25:56Z</time></trkpt><trkpt lat="14.394430697519361" lon="120.90543141273805"><ele>23.0</ele><time>2026-04-20T09:25:57Z</time></trkpt><trkpt lat="14.39451362775832" lon="120.90549299465191"><ele>23.0</ele><time>2026-04-20T09:25:58Z</time></trkpt><trkpt lat="14.394610572920003" lon="120.90555400835744"><ele>23.0</ele><time>2026-04-20T09:25:59Z</time></trkpt><trkpt lat="14.394702200441259" lon="120.90561823348898"><ele>22.4</ele><time>2026-04-20T09:26:00Z</time></trkpt><trkpt lat="14.394799601541537" lon="120.90568265143786"><ele>21.799999999999997</ele><time>2026-04-20T09:26:01Z</time></trkpt><trkpt lat="14.394894066137754" lon="120.9057450694693"><ele>21.2</ele><time>2026-04-20T09:26:02Z</time></trkpt><trkpt lat="14.394982945559363" lon="120.90580405725296"><ele>20.6</ele><time>2026-04-20T09:26:03Z</time></trkpt><trkpt lat="14.395053982731215" lon="120.90585540388412"><ele>20.0</ele><time>2026-04-20T09:26:04Z</time></trkpt><trkpt lat="14.395138534946664" lon="120.90588697656558"><ele>20.0</ele><time>2026-04-20T09:26:05Z</time></trkpt><trkpt lat="14.395224642074819" lon="120.905903732816"><ele>20.0</ele><time>2026-04-20T09:26:06Z</time></trkpt><trkpt lat="14.395314094227361" lon="120.90591111575283"><ele>20.0</ele><time>2026-04-20T09:26:07Z</time></trkpt><trkpt lat="14.39540553420296" lon="120.90591511231136"><ele>20.0</ele><time>2026-04-20T09:26:08Z</time></trkpt><trkpt lat="14.395500869712494" lon="120.90592075958385"><ele>20.0</ele><time>2026-04-20T09:26:09Z</time></trkpt><trkpt lat="14.395594252724603" lon="120.9059211039763"><ele>19.833333333333336</ele><time>2026-04-20T09:26:10Z</time></trkpt><trkpt lat="14.39566825701924" lon="120.9059247962192"><ele>19.666666666666668</ele><time>2026-04-20T09:26:11Z</time></trkpt><trkpt lat="14.395753288784345" lon="120.90590253699212"><ele>19.5</ele><time>2026-04-20T09:26:12Z</time></trkpt><trkpt lat="14.395828270957063" lon="120.90586998001649"><ele>19.333333333333332</ele><time>2026-04-20T09:26:13Z</time></trkpt><trkpt lat="14.395910782891702" lon="120.9058213726417"><ele>19.166666666666664</ele><time>2026-04-20T09:26:14Z</time></trkpt><trkpt lat="14.39598444973707" lon="120.90577733060405"><ele>19.0</ele><time>2026-04-20T09:26:15Z</time></trkpt><trkpt lat="14.396069115874576" lon="120.9057309083975"><ele>19.0</ele><time>2026-04-20T09:26:16Z</time></trkpt><trkpt lat="14.39615833401748" lon="120.90568847443556"><ele>19.0</ele><time>2026-04-20T09:26:17Z</time></trkpt><trkpt lat="14.396245933226114" lon="120.9056505481184"><ele>19.0</ele><time>2026-04-20T09:26:18Z</time></trkpt><trkpt lat="14.396339430717166" lon="120.90562490698288"><ele>19.0</ele><time>2026-04-20T09:26:19Z</time></trkpt><trkpt lat="14.396409524938091" lon="120.90561998275709"><ele>19.0</ele><time>2026-04-20T09:26:20Z</time></trkpt><trkpt lat="14.396487318160768" lon="120.90562611109962"><ele>19.0</ele><time>2026-04-20T09:26:21Z</time></trkpt><trkpt lat="14.396556782087158" lon="120.90562987845867"><ele>19.0</ele><time>2026-04-20T09:26:22Z</time></trkpt><trkpt lat="14.396624771848478" lon="120.9056135322794"><ele>19.0</ele><time>2026-04-20T09:26:23Z</time></trkpt><trkpt lat="14.39669254623521" lon="120.90557320082331"><ele>19.0</ele><time>2026-04-20T09:26:24Z</time></trkpt><trkpt lat="14.396747545064995" lon="120.90551874785237"><ele>19.0</ele><time>2026-04-20T09:26:25Z</time></trkpt><trkpt lat="14.396797409949963" lon="120.9054523388715"><ele>19.0</ele><time>2026-04-20T09:26:26Z</time></trkpt><trkpt lat="14.39684783234832" lon="120.9053920442806"><ele>19.0</ele><time>2026-04-20T09:26:27Z</time></trkpt><trkpt lat="14.396908839015012" lon="120.9053443402795"><ele>19.0</ele><time>2026-04-20T09:26:28Z</time></trkpt><trkpt lat="14.396978797733395" lon="120.90531572350572"><ele>19.0</ele><time>2026-04-20T09:26:29Z</time></trkpt><trkpt lat="14.397059803425135" lon="120.90529422526208"><ele>19.0</ele><time>2026-04-20T09:26:30Z</time></trkpt><trkpt lat="14.397143318697758" lon="120.9052815095935"><ele>19.0</ele><time>2026-04-20T09:26:31Z</time></trkpt><trkpt lat="14.397231256238166" lon="120.90527122226852"><ele>19.0</ele><time>2026-04-20T09:26:32Z</time></trkpt><trkpt lat="14.397319728665623" lon="120.90526023618335"><ele>19.0</ele><time>2026-04-20T09:26:33Z</time></trkpt><trkpt lat="14.397417702658606" lon="120.90524711307904"><ele>18.599999999999998</ele><time>2026-04-20T09:26:34Z</time></trkpt><trkpt lat="14.397519141762334" lon="120.90522906211784"><ele>18.2</ele><time>2026-04-20T09:26:35Z</time></trkpt><trkpt lat="14.39761154915639" lon="120.90521466599496"><ele>17.799999999999997</ele><time>2026-04-20T09:26:36Z</time></trkpt><trkpt lat="14.397701905804462" lon="120.90520114224886"><ele>17.4</ele><time>2026-04-20T09:26:37Z</time></trkpt><trkpt lat="14.397788956956497" lon="120.90518934766693"><ele>17.0</ele><time>2026-04-20T09:26:38Z</time></trkpt><trkpt lat="14.397863485159863" lon="120.90517545658139"><ele>17.0</ele><time>2026-04-20T09:26:39Z</time></trkpt><trkpt lat="14.39793406380441" lon="120.90516176094535"><ele>17.0</ele><time>2026-04-20T09:26:40Z</time></trkpt><trkpt lat="14.398018814260023" lon="120.90514624256579"><ele>17.0</ele><time>2026-04-20T09:26:41Z</time></trkpt><trkpt lat="14.39810161307177" lon="120.90513240458334"><ele>17.0</ele><time>2026-04-20T09:26:42Z</time></trkpt><trkpt lat="14.398187899588772" lon="120.90512279934109"><ele>17.0</ele><time>2026-04-20T09:26:43Z</time></trkpt><trkpt lat="14.398282607561379" lon="120.90511019952135"><ele>17.0</ele><time>2026-04-20T09:26:44Z</time></trkpt><trkpt lat="14.398377375460138" lon="120.90509568282229"><ele>17.0</ele><time>2026-04-20T09:26:45Z</time></trkpt><trkpt lat="14.398478823749294" lon="120.90508172365588"><ele>17.0</ele><time>2026-04-20T09:26:46Z</time></trkpt><trkpt lat="14.398583354439877" lon="120.90506704719388"><ele>17.0</ele><time>2026-04-20T09:26:47Z</time></trkpt><trkpt lat="14.398681648850555" lon="120.9050527733054"><ele>17.0</ele><time>2026-04-20T09:26:48Z</time></trkpt><trkpt lat="14.39877847585597" lon="120.90504211695006"><ele>17.0</ele><time>2026-04-20T09:26:49Z</time></trkpt><trkpt lat="14.398863264193343" lon="120.90503092150804"><ele>17.2</ele><time>2026-04-20T09:26:50Z</time></trkpt><trkpt lat="14.398947315753317" lon="120.90501992640885"><ele>17.4</ele><time>2026-04-20T09:26:51Z</time></trkpt><trkpt lat="14.399036543522213" lon="120.90500620365876"><ele>17.6</ele><time>2026-04-20T09:26:52Z</time></trkpt><trkpt lat="14.399127304187212" lon="120.9049928989374"><ele>17.8</ele><time>2026-04-20T09:26:53Z</time></trkpt><trkpt lat="14.399231574213173" lon="120.90497932897735"><ele>18.0</ele><time>2026-04-20T09:26:54Z</time></trkpt><trkpt lat="14.399325037139475" lon="120.90496029964864"><ele>18.0</ele><time>2026-04-20T09:26:55Z</time></trkpt><trkpt lat="14.39942634897808" lon="120.90493332611416"><ele>18.0</ele><time>2026-04-20T09:26:56Z</time></trkpt><trkpt lat="14.399530210195064" lon="120.90489913229689"><ele>18.0</ele><time>2026-04-20T09:26:57Z</time></trkpt><trkpt lat="14.399633540737018" lon="120.90486366806523"><ele>18.0</ele><time>2026-04-20T09:26:58Z</time></trkpt><trkpt lat="14.399748382781576" lon="120.90482639235296"><ele>18.0</ele><time>2026-04-20T09:26:59Z</time></trkpt><trkpt lat="14.399860011594512" lon="120.9047927931772"><ele>17.0</ele><time>2026-04-20T09:27:00Z</time></trkpt><trkpt lat="14.39998176816588" lon="120.90475190498502"><ele>16.0</ele><time>2026-04-20T09:27:01Z</time></trkpt><trkpt lat="14.400092965544545" lon="120.90471525608649"><ele>15.0</ele><time>2026-04-20T09:27:02Z</time></trkpt><trkpt lat="14.400207697064383" lon="120.9046784810029"><ele>14.0</ele><time>2026-04-20T09:27:03Z</time></trkpt><trkpt lat="14.400317500960837" lon="120.90464453841929"><ele>14.0</ele><time>2026-04-20T09:27:04Z</time></trkpt><trkpt lat="14.400449103867969" lon="120.90459522745464"><ele>14.0</ele><time>2026-04-20T09:27:05Z</time></trkpt><trkpt lat="14.400566898504989" lon="120.90455396344802"><ele>14.0</ele><time>2026-04-20T09:27:06Z</time></trkpt><trkpt lat="14.40068303443809" lon="120.90451968825192"><ele>14.0</ele><time>2026-04-20T09:27:07Z</time></trkpt><trkpt lat="14.400804977152506" lon="120.90448112272371"><ele>14.0</ele><time>2026-04-20T09:27:08Z</time></trkpt><trkpt lat="14.40092441211114" lon="120.90444175376794"><ele>14.0</ele><time>2026-04-20T09:27:09Z</time></trkpt><trkpt lat="14.401038234812056" lon="120.90440468796298"><ele>14.0</ele><time>2026-04-20T09:27:10Z</time></trkpt><trkpt lat="14.401154265447484" lon="120.90436779214012"><ele>14.0</ele><time>2026-04-20T09:27:11Z</time></trkpt><trkpt lat="14.401269689530267" lon="120.9043305341608"><ele>14.0</ele><time>2026-04-20T09:27:12Z</time></trkpt><trkpt lat="14.4013848159975" lon="120.90429492723094"><ele>13.999999999999998</ele><time>2026-04-20T09:27:13Z</time></trkpt><trkpt lat="14.401494109232917" lon="120.90426019615907"><ele>13.999999999999998</ele><time>2026-04-20T09:27:14Z</time></trkpt><trkpt lat="14.40158660980668" lon="120.90422731462803"><ele>14.0</ele><time>2026-04-20T09:27:15Z</time></trkpt><trkpt lat="14.40169395820407" lon="120.90418774580786"><ele>14.0</ele><time>2026-04-20T09:27:16Z</time></trkpt><trkpt lat="14.401796721237067" lon="120.90415674131255"><ele>14.0</ele><time>2026-04-20T09:27:17Z</time></trkpt><trkpt lat="14.401907829458173" lon="120.9041211032921"><ele>14.0</ele><time>2026-04-20T09:27:18Z</time></trkpt><trkpt lat="14.402019443611842" lon="120.90408823148549"><ele>14.0</ele><time>2026-04-20T09:27:19Z</time></trkpt><trkpt lat="14.402139596017044" lon="120.90405044532699"><ele>14.0</ele><time>2026-04-20T09:27:20Z</time></trkpt><trkpt lat="14.40224558242965" lon="120.90402303369754"><ele>13.799999999999999</ele><time>2026-04-20T09:27:21Z</time></trkpt><trkpt lat="14.402352589784769" lon="120.90400814049225"><ele>13.599999999999998</ele><time>2026-04-20T09:27:22Z</time></trkpt><trkpt lat="14.402468131829057" lon="120.90401246433908"><ele>13.4</ele><time>2026-04-20T09:27:23Z</time></trkpt><trkpt lat="14.40256392501348" lon="120.90404449959107"><ele>13.2</ele><time>2026-04-20T09:27:24Z</time></trkpt><trkpt lat="14.402658806135298" lon="120.90408745108401"><ele>13.0</ele><time>2026-04-20T09:27:25Z</time></trkpt><trkpt lat="14.402751525637552" lon="120.90413685870048"><ele>12.999999999999998</ele><time>2026-04-20T09:27:26Z</time></trkpt><trkpt lat="14.40283129016462" lon="120.90418306745"><ele>13.0</ele><time>2026-04-20T09:27:27Z</time></trkpt><trkpt lat="14.40291092606397" lon="120.90422814345763"><ele>13.0</ele><time>2026-04-20T09:27:28Z</time></trkpt><trkpt lat="14.402985543993312" lon="120.90426816363276"><ele>13.0</ele><time>2026-04-20T09:27:29Z</time></trkpt><trkpt lat="14.40305333300512" lon="120.90430726513043"><ele>12.999999999999998</ele><time>2026-04-20T09:27:30Z</time></trkpt><trkpt lat="14.403119715371236" lon="120.90434918212951"><ele>13.0</ele><time>2026-04-20T09:27:31Z</time></trkpt><trkpt lat="14.403188390800338" lon="120.90439566351962"><ele>13.4</ele><time>2026-04-20T09:27:32Z</time></trkpt><trkpt lat="14.403239378091081" lon="120.90444462567599"><ele>13.8</ele><time>2026-04-20T09:27:33Z</time></trkpt><trkpt lat="14.403294206835648" lon="120.9045574369515"><ele>14.2</ele><time>2026-04-20T09:27:35Z</time></trkpt><trkpt lat="14.40335573278487" lon="120.90464968953358"><ele>14.6</ele><time>2026-04-20T09:27:37Z</time></trkpt><trkpt lat="14.403457950205715" lon="120.90472041374129"><ele>15.0</ele><time>2026-04-20T09:27:39Z</time></trkpt><trkpt lat="14.403525456944685" lon="120.90474072100561"><ele>15.0</ele><time>2026-04-20T09:27:40Z</time></trkpt><trkpt lat="14.403592550250167" lon="120.90475216490516"><ele>15.0</ele><time>2026-04-20T09:27:41Z</time></trkpt><trkpt lat="14.403704912349196" lon="120.90480178060699"><ele>15.0</ele><time>2026-04-20T09:27:43Z</time></trkpt><trkpt lat="14.40375353147549" lon="120.90484757755738"><ele>15.0</ele><time>2026-04-20T09:27:44Z</time></trkpt><trkpt lat="14.403789617251382" lon="120.90490457397352"><ele>15.0</ele><time>2026-04-20T09:27:45Z</time></trkpt><trkpt lat="14.403815133401388" lon="120.90497124219522"><ele>15.0</ele><time>2026-04-20T09:27:46Z</time></trkpt><trkpt lat="14.403835086924849" lon="120.90504520353808"><ele>14.333333333333334</ele><time>2026-04-20T09:27:47Z</time></trkpt><trkpt lat="14.40385828441612" lon="120.90512643835092"><ele>13.666666666666666</ele><time>2026-04-20T09:27:48Z</time></trkpt><trkpt lat="14.403880147571494" lon="120.90520018755865"><ele>13.0</ele><time>2026-04-20T09:27:49Z</time></trkpt><trkpt lat="14.403906048133424" lon="120.90529089620671"><ele>12.333333333333332</ele><time>2026-04-20T09:27:50Z</time></trkpt><trkpt lat="14.403931078620985" lon="120.90537494709245"><ele>11.666666666666666</ele><time>2026-04-20T09:27:51Z</time></trkpt><trkpt lat="14.403958531430975" lon="120.90546809009936"><ele>11.0</ele><time>2026-04-20T09:27:52Z</time></trkpt><trkpt lat="14.403979761486717" lon="120.90554324085353"><ele>11.0</ele><time>2026-04-20T09:27:53Z</time></trkpt><trkpt lat="14.403997829282712" lon="120.90563001746196"><ele>11.0</ele><time>2026-04-20T09:27:54Z</time></trkpt><trkpt lat="14.404016637400089" lon="120.905721873551"><ele>11.0</ele><time>2026-04-20T09:27:55Z</time></trkpt><trkpt lat="14.40403606200202" lon="120.90580414349651"><ele>11.0</ele><time>2026-04-20T09:27:56Z</time></trkpt><trkpt lat="14.404056580381049" lon="120.9058883510445"><ele>11.0</ele><time>2026-04-20T09:27:57Z</time></trkpt><trkpt lat="14.404075465458616" lon="120.90597247820249"><ele>11.0</ele><time>2026-04-20T09:27:58Z</time></trkpt><trkpt lat="14.404094611577989" lon="120.90605095983366"><ele>11.333333333333332</ele><time>2026-04-20T09:27:59Z</time></trkpt><trkpt lat="14.404111670143505" lon="120.90612340657964"><ele>11.666666666666666</ele><time>2026-04-20T09:28:00Z</time></trkpt><trkpt lat="14.404128851110826" lon="120.90619734045315"><ele>12.0</ele><time>2026-04-20T09:28:01Z</time></trkpt><trkpt lat="14.404142725420892" lon="120.90626747802058"><ele>12.333333333333332</ele><time>2026-04-20T09:28:02Z</time></trkpt><trkpt lat="14.404157740004251" lon="120.90633427501973"><ele>12.666666666666666</ele><time>2026-04-20T09:28:03Z</time></trkpt><trkpt lat="14.404171837633225" lon="120.90639908350974"><ele>13.0</ele><time>2026-04-20T09:28:04Z</time></trkpt><trkpt lat="14.404195440349051" lon="120.90651436924534"><ele>13.0</ele><time>2026-04-20T09:28:06Z</time></trkpt><trkpt lat="14.404211610242905" lon="120.90660923483328"><ele>13.0</ele><time>2026-04-20T09:28:08Z</time></trkpt><trkpt lat="14.404232201671165" lon="120.90671411619547"><ele>13.0</ele><time>2026-04-20T09:28:10Z</time></trkpt><trkpt lat="14.404250888758778" lon="120.90682497232841"><ele>13.0</ele><time>2026-04-20T09:28:12Z</time></trkpt><trkpt lat="14.40427805506011" lon="120.9069546029753"><ele>13.0</ele><time>2026-04-20T09:28:14Z</time></trkpt><trkpt lat="14.40429684488153" lon="120.90707415199262"><ele>13.2</ele><time>2026-04-20T09:28:16Z</time></trkpt><trkpt lat="14.404328560863945" lon="120.90720056738503"><ele>13.4</ele><time>2026-04-20T09:28:18Z</time></trkpt><trkpt lat="14.404359551524038" lon="120.90732320033534"><ele>13.599999999999998</ele><time>2026-04-20T09:28:20Z</time></trkpt><trkpt lat="14.404381398585862" lon="120.90739195942307"><ele>13.799999999999999</ele><time>2026-04-20T09:28:21Z</time></trkpt><trkpt lat="14.404397954903951" lon="120.90746270843604"><ele>14.0</ele><time>2026-04-20T09:28:22Z</time></trkpt><trkpt lat="14.404416044567002" lon="120.907541823803"><ele>14.000000000000002</ele><time>2026-04-20T09:28:23Z</time></trkpt><trkpt lat="14.404432885900668" lon="120.90762476507345"><ele>14.0</ele><time>2026-04-20T09:28:24Z</time></trkpt><trkpt lat="14.404446062316245" lon="120.90770245506789"><ele>14.0</ele><time>2026-04-20T09:28:25Z</time></trkpt><trkpt lat="14.40446394923343" lon="120.90778539964693"><ele>14.0</ele><time>2026-04-20T09:28:26Z</time></trkpt><trkpt lat="14.404482084874095" lon="120.90787248967868"><ele>14.000000000000002</ele><time>2026-04-20T09:28:27Z</time></trkpt><trkpt lat="14.40449915655918" lon="120.90796104745039"><ele>14.0</ele><time>2026-04-20T09:28:28Z</time></trkpt><trkpt lat="14.40452041307123" lon="120.90805237857977"><ele>14.0</ele><time>2026-04-20T09:28:29Z</time></trkpt><trkpt lat="14.404539959534631" lon="120.90814473655847"><ele>13.999999999999998</ele><time>2026-04-20T09:28:30Z</time></trkpt><trkpt lat="14.404561449128565" lon="120.9082426784413"><ele>13.999999999999998</ele><time>2026-04-20T09:28:31Z</time></trkpt><trkpt lat="14.404574721096623" lon="120.90833725703861"><ele>14.0</ele><time>2026-04-20T09:28:32Z</time></trkpt><trkpt lat="14.404597350091397" lon="120.90844010728169"><ele>14.0</ele><time>2026-04-20T09:28:33Z</time></trkpt><trkpt lat="14.404614594415419" lon="120.90853983682752"><ele>13.799999999999999</ele><time>2026-04-20T09:28:34Z</time></trkpt><trkpt lat="14.404635834329845" lon="120.90864262474085"><ele>13.599999999999998</ele><time>2026-04-20T09:28:35Z</time></trkpt><trkpt lat="14.404652216762857" lon="120.90874353715849"><ele>13.4</ele><time>2026-04-20T09:28:36Z</time></trkpt><trkpt lat="14.404674552662538" lon="120.90885030730666"><ele>13.2</ele><time>2026-04-20T09:28:37Z</time></trkpt><trkpt lat="14.404688101613313" lon="120.90894975364311"><ele>13.0</ele><time>2026-04-20T09:28:38Z</time></trkpt><trkpt lat="14.404706727387811" lon="120.90904227245589"><ele>13.333333333333332</ele><time>2026-04-20T09:28:39Z</time></trkpt><trkpt lat="14.404726458761104" lon="120.90913034151517"><ele>13.666666666666666</ele><time>2026-04-20T09:28:40Z</time></trkpt><trkpt lat="14.404741516236573" lon="120.90921269146352"><ele>14.0</ele><time>2026-04-20T09:28:41Z</time></trkpt><trkpt lat="14.404758345101895" lon="120.90929147054824"><ele>14.333333333333332</ele><time>2026-04-20T09:28:42Z</time></trkpt><trkpt lat="14.404776618133369" lon="120.90936722966916"><ele>14.666666666666666</ele><time>2026-04-20T09:28:43Z</time></trkpt><trkpt lat="14.404786426008084" lon="120.90943190892258"><ele>15.0</ele><time>2026-04-20T09:28:44Z</time></trkpt><trkpt lat="14.404800552849869" lon="120.90949862225757"><ele>15.0</ele><time>2026-04-20T09:28:45Z</time></trkpt><trkpt lat="14.404819011348948" lon="120.90960769425546"><ele>15.0</ele><time>2026-04-20T09:28:47Z</time></trkpt><trkpt lat="14.404822137794978" lon="120.90969906626512"><ele>15.0</ele><time>2026-04-20T09:28:49Z</time></trkpt><trkpt lat="14.404820833335645" lon="120.90980339187568"><ele>15.0</ele><time>2026-04-20T09:28:51Z</time></trkpt><trkpt lat="14.404803205746143" lon="120.90990820992812"><ele>15.0</ele><time>2026-04-20T09:28:53Z</time></trkpt><trkpt lat="14.404788070366703" lon="120.90998775872492"><ele>14.8</ele><time>2026-04-20T09:28:55Z</time></trkpt><trkpt lat="14.404777016454055" lon="120.91009030842041"><ele>14.6</ele><time>2026-04-20T09:28:57Z</time></trkpt><trkpt lat="14.404751865543723" lon="120.91020468377303"><ele>14.399999999999999</ele><time>2026-04-20T09:28:59Z</time></trkpt><trkpt lat="14.404731863256409" lon="120.9103010233693"><ele>14.2</ele><time>2026-04-20T09:29:01Z</time></trkpt><trkpt lat="14.404719872241664" lon="120.91038505606973"><ele>14.0</ele><time>2026-04-20T09:29:06Z</time></trkpt><trkpt lat="14.404699988570608" lon="120.91045876765246"><ele>14.000000000000002</ele><time>2026-04-20T09:29:08Z</time></trkpt><trkpt lat="14.404675511664598" lon="120.91056845488941"><ele>14.0</ele><time>2026-04-20T09:29:10Z</time></trkpt><trkpt lat="14.404662267177592" lon="120.9106366632811"><ele>14.0</ele><time>2026-04-20T09:29:11Z</time></trkpt><trkpt lat="14.40464711483035" lon="120.91070311691695"><ele>14.0</ele><time>2026-04-20T09:29:12Z</time></trkpt><trkpt lat="14.404627386144705" lon="120.91076960959411"><ele>14.000000000000002</ele><time>2026-04-20T09:29:13Z</time></trkpt><trkpt lat="14.404607497921496" lon="120.91084673939245"><ele>14.0</ele><time>2026-04-20T09:29:14Z</time></trkpt><trkpt lat="14.404588888541056" lon="120.91092937075916"><ele>14.500000000000002</ele><time>2026-04-20T09:29:15Z</time></trkpt><trkpt lat="14.404572340329914" lon="120.91102174398974"><ele>15.0</ele><time>2026-04-20T09:29:16Z</time></trkpt><trkpt lat="14.404554978569891" lon="120.91110390628188"><ele>15.5</ele><time>2026-04-20T09:29:17Z</time></trkpt><trkpt lat="14.404536449859396" lon="120.9111987938352"><ele>16.0</ele><time>2026-04-20T09:29:18Z</time></trkpt><trkpt lat="14.404519047212148" lon="120.91128766032784"><ele>16.5</ele><time>2026-04-20T09:29:19Z</time></trkpt><trkpt lat="14.404496485637564" lon="120.91138251887753"><ele>17.0</ele><time>2026-04-20T09:29:20Z</time></trkpt><trkpt lat="14.404474288041278" lon="120.91148330945632"><ele>17.0</ele><time>2026-04-20T09:29:21Z</time></trkpt><trkpt lat="14.404456610965537" lon="120.91157651299261"><ele>17.0</ele><time>2026-04-20T09:29:22Z</time></trkpt><trkpt lat="14.404441264336098" lon="120.9116767089966"><ele>17.0</ele><time>2026-04-20T09:29:23Z</time></trkpt><trkpt lat="14.404424467701066" lon="120.91178437103719"><ele>17.0</ele><time>2026-04-20T09:29:24Z</time></trkpt><trkpt lat="14.404407771849574" lon="120.9118957518273"><ele>17.0</ele><time>2026-04-20T09:29:25Z</time></trkpt><trkpt lat="14.404390038996437" lon="120.91200185893636"><ele>16.8</ele><time>2026-04-20T09:29:26Z</time></trkpt><trkpt lat="14.404373507270803" lon="120.9121223101926"><ele>16.6</ele><time>2026-04-20T09:29:27Z</time></trkpt><trkpt lat="14.404357530936583" lon="120.91222988534469"><ele>16.400000000000002</ele><time>2026-04-20T09:29:28Z</time></trkpt><trkpt lat="14.404340957701232" lon="120.91233874330563"><ele>16.2</ele><time>2026-04-20T09:29:29Z</time></trkpt><trkpt lat="14.40432639662234" lon="120.91244215280386"><ele>16.0</ele><time>2026-04-20T09:29:30Z</time></trkpt><trkpt lat="14.40431619373081" lon="120.91252999857085"><ele>15.600000000000001</ele><time>2026-04-20T09:29:31Z</time></trkpt><trkpt lat="14.404304379814505" lon="120.91264699017078"><ele>15.200000000000001</ele><time>2026-04-20T09:29:33Z</time></trkpt><trkpt lat="14.404299887771314" lon="120.91279017475863"><ele>14.799999999999999</ele><time>2026-04-20T09:29:35Z</time></trkpt><trkpt lat="14.404290226645763" lon="120.9128645500887"><ele>14.399999999999999</ele><time>2026-04-20T09:29:36Z</time></trkpt><trkpt lat="14.404280029884578" lon="120.91293568641827"><ele>14.0</ele><time>2026-04-20T09:29:37Z</time></trkpt><trkpt lat="14.40426790595668" lon="120.91300889637976"><ele>14.000000000000002</ele><time>2026-04-20T09:29:38Z</time></trkpt><trkpt lat="14.404256764188165" lon="120.91313843392234"><ele>14.0</ele><time>2026-04-20T09:29:40Z</time></trkpt><trkpt lat="14.404239655951965" lon="120.91322133170412"><ele>14.0</ele><time>2026-04-20T09:29:42Z</time></trkpt><trkpt lat="14.404234439764387" lon="120.91330543514965"><ele>14.0</ele><time>2026-04-20T09:29:45Z</time></trkpt><trkpt lat="14.40421625571766" lon="120.91339106676975"><ele>14.000000000000002</ele><time>2026-04-20T09:29:49Z</time></trkpt><trkpt lat="14.404204735850843" lon="120.91346727219054"><ele>14.0</ele><time>2026-04-20T09:29:51Z</time></trkpt><trkpt lat="14.404201951615867" lon="120.9135676840612"><ele>14.333333333333334</ele><time>2026-04-20T09:29:53Z</time></trkpt><trkpt lat="14.404194264261804" lon="120.91367692999103"><ele>14.666666666666668</ele><time>2026-04-20T09:29:55Z</time></trkpt><trkpt lat="14.404179468194553" lon="120.91378081435214"><ele>15.0</ele><time>2026-04-20T09:29:57Z</time></trkpt><trkpt lat="14.404173812775769" lon="120.91386275818773"><ele>15.333333333333332</ele><time>2026-04-20T09:29:59Z</time></trkpt><trkpt lat="14.404164549912116" lon="120.91394923624055"><ele>15.666666666666666</ele><time>2026-04-20T09:30:01Z</time></trkpt><trkpt lat="14.404157302361432" lon="120.91402343861547"><ele>16.0</ele><time>2026-04-20T09:30:03Z</time></trkpt><trkpt lat="14.404144922278272" lon="120.91410840101759"><ele>15.999999999999998</ele><time>2026-04-20T09:30:06Z</time></trkpt><trkpt lat="14.404133449569287" lon="120.91419903094715"><ele>16.0</ele><time>2026-04-20T09:30:09Z</time></trkpt><trkpt lat="14.4041294804241" lon="120.91428888359106"><ele>16.0</ele><time>2026-04-20T09:30:11Z</time></trkpt><trkpt lat="14.40412747422763" lon="120.91436123519713"><ele>16.0</ele><time>2026-04-20T09:30:13Z</time></trkpt><trkpt lat="14.404112626154904" lon="120.91443317839412"><ele>15.999999999999998</ele><time>2026-04-20T09:30:15Z</time></trkpt><trkpt lat="14.404098678198958" lon="120.91451428110788"><ele>16.0</ele><time>2026-04-20T09:30:18Z</time></trkpt><trkpt lat="14.404029319110634" lon="120.91458344359295"><ele>16.0</ele><time>2026-04-20T09:30:21Z</time></trkpt><trkpt lat="14.403950569584289" lon="120.91458971731198"><ele>16.0</ele><time>2026-04-20T09:30:23Z</time></trkpt><trkpt lat="14.403842115983092" lon="120.9145918662449"><ele>16.0</ele><time>2026-04-20T09:30:25Z</time></trkpt><trkpt lat="14.40371550421946" lon="120.91460410474609"><ele>16.0</ele><time>2026-04-20T09:30:27Z</time></trkpt><trkpt lat="14.403646732442327" lon="120.9146077749977"><ele>16.0</ele><time>2026-04-20T09:30:28Z</time></trkpt><trkpt lat="14.403577635674381" lon="120.91461328847008"><ele>16.333333333333332</ele><time>2026-04-20T09:30:29Z</time></trkpt><trkpt lat="14.403497594074528" lon="120.91462035322655"><ele>16.666666666666664</ele><time>2026-04-20T09:30:30Z</time></trkpt><trkpt lat="14.40342690534457" lon="120.91462363194934"><ele>17.0</ele><time>2026-04-20T09:30:31Z</time></trkpt><trkpt lat="14.403346894063386" lon="120.91463285747776"><ele>17.333333333333332</ele><time>2026-04-20T09:30:32Z</time></trkpt><trkpt lat="14.403282222126693" lon="120.91463581725733"><ele>17.666666666666668</ele><time>2026-04-20T09:30:33Z</time></trkpt><trkpt lat="14.403162234443355" lon="120.91464565272084"><ele>18.0</ele><time>2026-04-20T09:30:35Z</time></trkpt><trkpt lat="14.403078494412616" lon="120.91465785628245"><ele>18.0</ele><time>2026-04-20T09:30:37Z</time></trkpt><trkpt lat="14.403019742438916" lon="120.91469567159275"><ele>18.0</ele><time>2026-04-20T09:30:39Z</time></trkpt><trkpt lat="14.402999281482902" lon="120.91477594885272"><ele>18.0</ele><time>2026-04-20T09:30:41Z</time></trkpt><trkpt lat="14.4029924553501" lon="120.91488127895973"><ele>18.0</ele><time>2026-04-20T09:30:43Z</time></trkpt><trkpt lat="14.402989149410667" lon="120.9149932453726"><ele>18.0</ele><time>2026-04-20T09:30:45Z</time></trkpt><trkpt lat="14.402978829043187" lon="120.91512125636261"><ele>17.666666666666668</ele><time>2026-04-20T09:30:47Z</time></trkpt><trkpt lat="14.402977081266558" lon="120.91525115180758"><ele>17.333333333333332</ele><time>2026-04-20T09:30:49Z</time></trkpt><trkpt lat="14.402974186365856" lon="120.91531881324768"><ele>17.0</ele><time>2026-04-20T09:30:50Z</time></trkpt><trkpt lat="14.402970200065425" lon="120.91539027688692"><ele>16.666666666666664</ele><time>2026-04-20T09:30:51Z</time></trkpt><trkpt lat="14.4029647661392" lon="120.91546445905614"><ele>16.333333333333332</ele><time>2026-04-20T09:30:52Z</time></trkpt><trkpt lat="14.402964098948834" lon="120.91552970272217"><ele>16.0</ele><time>2026-04-20T09:30:53Z</time></trkpt><trkpt lat="14.402955825148355" lon="120.91565168625856"><ele>16.0</ele><time>2026-04-20T09:30:55Z</time></trkpt><trkpt lat="14.402952388781443" lon="120.91576671608429"><ele>16.0</ele><time>2026-04-20T09:30:57Z</time></trkpt><trkpt lat="14.402948321322677" lon="120.91587628136853"><ele>16.0</ele><time>2026-04-20T09:30:59Z</time></trkpt><trkpt lat="14.402960889225284" lon="120.91595641289638"><ele>16.0</ele><time>2026-04-20T09:31:01Z</time></trkpt><trkpt lat="14.403028309583169" lon="120.91600364260199"><ele>16.0</ele><time>2026-04-20T09:31:03Z</time></trkpt><trkpt lat="14.403128498905959" lon="120.91600683350732"><ele>16.400000000000002</ele><time>2026-04-20T09:31:05Z</time></trkpt><trkpt lat="14.403237516869691" lon="120.91601465206625"><ele>16.8</ele><time>2026-04-20T09:31:07Z</time></trkpt><trkpt lat="14.40334853080502" lon="120.91601714832645"><ele>17.200000000000003</ele><time>2026-04-20T09:31:09Z</time></trkpt><trkpt lat="14.403468747141421" lon="120.91602063724825"><ele>17.6</ele><time>2026-04-20T09:31:11Z</time></trkpt><trkpt lat="14.40353221536308" lon="120.91602378848461"><ele>18.0</ele><time>2026-04-20T09:31:12Z</time></trkpt><trkpt lat="14.403618597518067" lon="120.91602819232331"><ele>18.0</ele><time>2026-04-20T09:31:14Z</time></trkpt><trkpt lat="14.40370382585212" lon="120.91603357658398"><ele>18.0</ele><time>2026-04-20T09:31:17Z</time></trkpt><trkpt lat="14.403789949854593" lon="120.91603514128138"><ele>18.0</ele><time>2026-04-20T09:31:22Z</time></trkpt><trkpt lat="14.403869468977124" lon="120.91604061887854"><ele>18.0</ele><time>2026-04-20T09:31:25Z</time></trkpt><trkpt lat="14.40392133034847" lon="120.91608174053518"><ele>18.0</ele><time>2026-04-20T09:31:28Z</time></trkpt><trkpt lat="14.403932972093926" lon="120.91614925120594"><ele>18.0</ele><time>2026-04-20T09:31:30Z</time></trkpt><trkpt lat="14.403910376182134" lon="120.91624020519767"><ele>18.0</ele><time>2026-04-20T09:31:32Z</time></trkpt><trkpt lat="14.403906019217061" lon="120.91632661230373"><ele>18.0</ele><time>2026-04-20T09:31:34Z</time></trkpt><trkpt lat="14.403895616467645" lon="120.916427326288"><ele>18.0</ele><time>2026-04-20T09:31:36Z</time></trkpt><trkpt lat="14.403887668819358" lon="120.91654587373137"><ele>18.0</ele><time>2026-04-20T09:31:38Z</time></trkpt><trkpt lat="14.403885466203477" lon="120.9166537524329"><ele>18.0</ele><time>2026-04-20T09:31:40Z</time></trkpt><trkpt lat="14.403877961331775" lon="120.91674720749549"><ele>17.833333333333332</ele><time>2026-04-20T09:31:42Z</time></trkpt><trkpt lat="14.40386818738316" lon="120.91684433754057"><ele>17.666666666666668</ele><time>2026-04-20T09:31:44Z</time></trkpt><trkpt lat="14.403864453343225" lon="120.91692099111584"><ele>17.5</ele><time>2026-04-20T09:31:46Z</time></trkpt><trkpt lat="14.403862077075445" lon="120.91701037916272"><ele>17.333333333333336</ele><time>2026-04-20T09:31:49Z</time></trkpt><trkpt lat="14.403856069675646" lon="120.91708419773745"><ele>17.166666666666668</ele><time>2026-04-20T09:31:52Z</time></trkpt><trkpt lat="14.403852045851599" lon="120.91716178478585"><ele>17.0</ele><time>2026-04-20T09:31:54Z</time></trkpt><trkpt lat="14.403846927300345" lon="120.91723437134833"><ele>16.999999999999996</ele><time>2026-04-20T09:31:56Z</time></trkpt><trkpt lat="14.40384046408169" lon="120.91732274976152"><ele>17.0</ele><time>2026-04-20T09:31:59Z</time></trkpt><trkpt lat="14.403842665614784" lon="120.91739043814226"><ele>17.0</ele><time>2026-04-20T09:32:08Z</time></trkpt><trkpt lat="14.403846911542127" lon="120.9174565521631"><ele>17.0</ele><time>2026-04-20T09:32:11Z</time></trkpt><trkpt lat="14.403836695193974" lon="120.91754182112828"><ele>17.0</ele><time>2026-04-20T09:32:13Z</time></trkpt><trkpt lat="14.403823296668815" lon="120.91761423713027"><ele>16.999999999999996</ele><time>2026-04-20T09:32:15Z</time></trkpt><trkpt lat="14.403826871223787" lon="120.91768433750765"><ele>17.0</ele><time>2026-04-20T09:32:18Z</time></trkpt><trkpt lat="14.403884442610913" lon="120.91776152727309"><ele>17.0</ele><time>2026-04-20T09:32:21Z</time></trkpt><trkpt lat="14.403995294021902" lon="120.91778038927715"><ele>17.0</ele><time>2026-04-20T09:32:23Z</time></trkpt><trkpt lat="14.404061947026717" lon="120.91778167354661"><ele>17.0</ele><time>2026-04-20T09:32:24Z</time></trkpt><trkpt lat="14.404135760153727" lon="120.9177866423587"><ele>17.0</ele><time>2026-04-20T09:32:25Z</time></trkpt><trkpt lat="14.404219246924104" lon="120.91779073339141"><ele>17.0</ele><time>2026-04-20T09:32:26Z</time></trkpt><trkpt lat="14.404309161153067" lon="120.91779525550794"><ele>17.0</ele><time>2026-04-20T09:32:27Z</time></trkpt><trkpt lat="14.404403478781973" lon="120.91780034558175"><ele>17.0</ele><time>2026-04-20T09:32:28Z</time></trkpt><trkpt lat="14.404504753465913" lon="120.91780897511956"><ele>17.0</ele><time>2026-04-20T09:32:29Z</time></trkpt><trkpt lat="14.4046131632085" lon="120.91781051932898"><ele>17.0</ele><time>2026-04-20T09:32:30Z</time></trkpt><trkpt lat="14.40471962131304" lon="120.91781547099083"><ele>17.0</ele><time>2026-04-20T09:32:31Z</time></trkpt><trkpt lat="14.404824980650824" lon="120.91781854169292"><ele>17.0</ele><time>2026-04-20T09:32:32Z</time></trkpt><trkpt lat="14.404920080331562" lon="120.91782213231527"><ele>17.0</ele><time>2026-04-20T09:32:33Z</time></trkpt><trkpt lat="14.405012898940491" lon="120.91783215514103"><ele>17.0</ele><time>2026-04-20T09:32:34Z</time></trkpt><trkpt lat="14.405098718240708" lon="120.91785134802964"><ele>17.0</ele><time>2026-04-20T09:32:35Z</time></trkpt><trkpt lat="14.405182783039836" lon="120.91788275265628"><ele>17.0</ele><time>2026-04-20T09:32:36Z</time></trkpt><trkpt lat="14.405252571425564" lon="120.91792209646445"><ele>17.0</ele><time>2026-04-20T09:32:37Z</time></trkpt><trkpt lat="14.405316269378046" lon="120.91797215322786"><ele>17.0</ele><time>2026-04-20T09:32:38Z</time></trkpt><trkpt lat="14.40536795286506" lon="120.91801993721694"><ele>17.0</ele><time>2026-04-20T09:32:39Z</time></trkpt><trkpt lat="14.405423263847485" lon="120.9180611324287"><ele>17.0</ele><time>2026-04-20T09:32:40Z</time></trkpt><trkpt lat="14.405485460651757" lon="120.91807601852148"><ele>17.0</ele><time>2026-04-20T09:32:41Z</time></trkpt><trkpt lat="14.405561329162873" lon="120.91807197951208"><ele>17.0</ele><time>2026-04-20T09:32:42Z</time></trkpt><trkpt lat="14.405641127341786" lon="120.91804084205175"><ele>17.0</ele><time>2026-04-20T09:32:43Z</time></trkpt><trkpt lat="14.40570561142319" lon="120.91799708306353"><ele>17.0</ele><time>2026-04-20T09:32:44Z</time></trkpt><trkpt lat="14.405768322676744" lon="120.9179432448098"><ele>17.4</ele><time>2026-04-20T09:32:45Z</time></trkpt><trkpt lat="14.405836106195148" lon="120.91789291439002"><ele>17.799999999999997</ele><time>2026-04-20T09:32:46Z</time></trkpt><trkpt lat="14.40592353158078" lon="120.91785519421907"><ele>18.2</ele><time>2026-04-20T09:32:47Z</time></trkpt><trkpt lat="14.40601118973498" lon="120.91784220485015"><ele>18.599999999999998</ele><time>2026-04-20T09:32:48Z</time></trkpt><trkpt lat="14.406099398127425" lon="120.91784652821751"><ele>19.0</ele><time>2026-04-20T09:32:49Z</time></trkpt><trkpt lat="14.406205082875813" lon="120.9178488895474"><ele>19.0</ele><time>2026-04-20T09:32:50Z</time></trkpt><trkpt lat="14.406303199444917" lon="120.91784630006518"><ele>19.0</ele><time>2026-04-20T09:32:51Z</time></trkpt><trkpt lat="14.406412576789856" lon="120.91783321980678"><ele>19.0</ele><time>2026-04-20T09:32:52Z</time></trkpt><trkpt lat="14.40652454528486" lon="120.91780931856479"><ele>19.0</ele><time>2026-04-20T09:32:53Z</time></trkpt><trkpt lat="14.406649835217735" lon="120.9177757158486"><ele>18.5</ele><time>2026-04-20T09:32:54Z</time></trkpt><trkpt lat="14.406773387892393" lon="120.91774776962569"><ele>18.0</ele><time>2026-04-20T09:32:55Z</time></trkpt><trkpt lat="14.406892954718614" lon="120.91771995993723"><ele>17.5</ele><time>2026-04-20T09:32:56Z</time></trkpt><trkpt lat="14.407023833410978" lon="120.91768984320035"><ele>17.0</ele><time>2026-04-20T09:32:57Z</time></trkpt><trkpt lat="14.407143940938044" lon="120.91766408294227"><ele>17.2</ele><time>2026-04-20T09:32:58Z</time></trkpt><trkpt lat="14.407256177561754" lon="120.9176368111226"><ele>17.4</ele><time>2026-04-20T09:32:59Z</time></trkpt><trkpt lat="14.407363836370036" lon="120.91761436810415"><ele>17.6</ele><time>2026-04-20T09:33:00Z</time></trkpt><trkpt lat="14.407466125583836" lon="120.91760182514305"><ele>17.8</ele><time>2026-04-20T09:33:01Z</time></trkpt><trkpt lat="14.407565087098874" lon="120.91760589124173"><ele>18.0</ele><time>2026-04-20T09:33:02Z</time></trkpt><trkpt lat="14.407656627076925" lon="120.91763360122421"><ele>18.0</ele><time>2026-04-20T09:33:03Z</time></trkpt><trkpt lat="14.407732645568302" lon="120.91768094471978"><ele>18.0</ele><time>2026-04-20T09:33:04Z</time></trkpt><trkpt lat="14.407805703842307" lon="120.91773898743465"><ele>18.0</ele><time>2026-04-20T09:33:05Z</time></trkpt><trkpt lat="14.407863721211955" lon="120.91780514731175"><ele>18.0</ele><time>2026-04-20T09:33:06Z</time></trkpt><trkpt lat="14.407896376958176" lon="120.91787423343509"><ele>18.0</ele><time>2026-04-20T09:33:07Z</time></trkpt><trkpt lat="14.407916983607096" lon="120.91795338544863"><ele>18.0</ele><time>2026-04-20T09:33:08Z</time></trkpt><trkpt lat="14.407923360645023" lon="120.91803355350841"><ele>18.0</ele><time>2026-04-20T09:33:09Z</time></trkpt><trkpt lat="14.407927225945912" lon="120.91812366886599"><ele>18.0</ele><time>2026-04-20T09:33:10Z</time></trkpt><trkpt lat="14.40793061015037" lon="120.91821407362546"><ele>18.0</ele><time>2026-04-20T09:33:11Z</time></trkpt><trkpt lat="14.407937892473155" lon="120.91831054164565"><ele>18.0</ele><time>2026-04-20T09:33:12Z</time></trkpt><trkpt lat="14.407939271832127" lon="120.91840405717237"><ele>18.0</ele><time>2026-04-20T09:33:13Z</time></trkpt><trkpt lat="14.407949347808401" lon="120.91851254355596"><ele>17.6</ele><time>2026-04-20T09:33:14Z</time></trkpt><trkpt lat="14.407950969798627" lon="120.91860971355065"><ele>17.200000000000003</ele><time>2026-04-20T09:33:15Z</time></trkpt><trkpt lat="14.407956165970077" lon="120.9187120046989"><ele>16.8</ele><time>2026-04-20T09:33:16Z</time></trkpt><trkpt lat="14.407962434085151" lon="120.91882236640741"><ele>16.400000000000002</ele><time>2026-04-20T09:33:17Z</time></trkpt><trkpt lat="14.407968223245694" lon="120.91893226047637"><ele>16.0</ele><time>2026-04-20T09:33:18Z</time></trkpt><trkpt lat="14.407973689234865" lon="120.91904815255938"><ele>16.0</ele><time>2026-04-20T09:33:19Z</time></trkpt><trkpt lat="14.407980922743644" lon="120.91917021327212"><ele>16.0</ele><time>2026-04-20T09:33:20Z</time></trkpt><trkpt lat="14.407981050068836" lon="120.91928602067543"><ele>16.0</ele><time>2026-04-20T09:33:21Z</time></trkpt><trkpt lat="14.407988397754023" lon="120.91941317951249"><ele>16.0</ele><time>2026-04-20T09:33:22Z</time></trkpt><trkpt lat="14.407994653144515" lon="120.91953995807617"><ele>16.0</ele><time>2026-04-20T09:33:23Z</time></trkpt><trkpt lat="14.408003391052132" lon="120.91967174944162"><ele>16.0</ele><time>2026-04-20T09:33:24Z</time></trkpt><trkpt lat="14.408003953612585" lon="120.9197979988736"><ele>16.0</ele><time>2026-04-20T09:33:25Z</time></trkpt><trkpt lat="14.408008069529842" lon="120.91992174716054"><ele>16.0</ele><time>2026-04-20T09:33:26Z</time></trkpt><trkpt lat="14.408014585460593" lon="120.920044736836"><ele>16.2</ele><time>2026-04-20T09:33:27Z</time></trkpt><trkpt lat="14.408025447819574" lon="120.92016202757604"><ele>16.400000000000002</ele><time>2026-04-20T09:33:28Z</time></trkpt><trkpt lat="14.408028851688716" lon="120.92026443150247"><ele>16.6</ele><time>2026-04-20T09:33:29Z</time></trkpt><trkpt lat="14.408034325876455" lon="120.9203654612088"><ele>16.8</ele><time>2026-04-20T09:33:30Z</time></trkpt><trkpt lat="14.408036869641563" lon="120.920453874203"><ele>17.0</ele><time>2026-04-20T09:33:31Z</time></trkpt><trkpt lat="14.408048052741194" lon="120.92054408166726"><ele>17.0</ele><time>2026-04-20T09:33:32Z</time></trkpt><trkpt lat="14.40806953430177" lon="120.92062930343644"><ele>17.0</ele><time>2026-04-20T09:33:33Z</time></trkpt><trkpt lat="14.408074165901466" lon="120.92069934082468"><ele>17.0</ele><time>2026-04-20T09:33:34Z</time></trkpt><trkpt lat="14.40809076259775" lon="120.92077219243329"><ele>17.0</ele><time>2026-04-20T09:33:35Z</time></trkpt><trkpt lat="14.408106004909067" lon="120.9208401794883"><ele>17.0</ele><time>2026-04-20T09:33:36Z</time></trkpt><trkpt lat="14.408127074999696" lon="120.920957472313"><ele>17.0</ele><time>2026-04-20T09:33:38Z</time></trkpt><trkpt lat="14.408156747339232" lon="120.92107561692576"><ele>17.166666666666668</ele><time>2026-04-20T09:33:40Z</time></trkpt><trkpt lat="14.408181153580895" lon="120.92116506338874"><ele>17.333333333333336</ele><time>2026-04-20T09:33:42Z</time></trkpt><trkpt lat="14.40820290699666" lon="120.92123075059884"><ele>17.5</ele><time>2026-04-20T09:33:44Z</time></trkpt><trkpt lat="14.408228732875987" lon="120.9213142248932"><ele>17.666666666666668</ele><time>2026-04-20T09:33:47Z</time></trkpt><trkpt lat="14.40826148482414" lon="120.92139191525322"><ele>17.833333333333332</ele><time>2026-04-20T09:33:50Z</time></trkpt><trkpt lat="14.408282890411714" lon="120.92146039130024"><ele>18.0</ele><time>2026-04-20T09:33:52Z</time></trkpt><trkpt lat="14.408298223654946" lon="120.92152950546357"><ele>18.0</ele><time>2026-04-20T09:33:54Z</time></trkpt><trkpt lat="14.408321272962738" lon="120.92160560683936"><ele>18.0</ele><time>2026-04-20T09:33:56Z</time></trkpt><trkpt lat="14.40834346934798" lon="120.92170644728253"><ele>18.0</ele><time>2026-04-20T09:33:59Z</time></trkpt><trkpt lat="14.408360743844641" lon="120.9217692490301"><ele>18.0</ele><time>2026-04-20T09:34:01Z</time></trkpt><trkpt lat="14.40837078778235" lon="120.92183483346545"><ele>18.0</ele><time>2026-04-20T09:34:03Z</time></trkpt><trkpt lat="14.408386778409913" lon="120.9218987791393"><ele>18.0</ele><time>2026-04-20T09:34:05Z</time></trkpt><trkpt lat="14.40841623853357" lon="120.92198581845432"><ele>17.714285714285715</ele><time>2026-04-20T09:34:08Z</time></trkpt><trkpt lat="14.408423370699344" lon="120.92206703363965"><ele>17.42857142857143</ele><time>2026-04-20T09:34:12Z</time></trkpt><trkpt lat="14.40841789353178" lon="120.9221323809063"><ele>17.142857142857142</ele><time>2026-04-20T09:34:14Z</time></trkpt><trkpt lat="14.40842650323643" lon="120.9222415456632"><ele>16.857142857142858</ele><time>2026-04-20T09:34:16Z</time></trkpt><trkpt lat="14.40844907113264" lon="120.92230542996691"><ele>16.57142857142857</ele><time>2026-04-20T09:34:17Z</time></trkpt><trkpt lat="14.408485240018528" lon="120.92236270589336"><ele>16.285714285714285</ele><time>2026-04-20T09:34:18Z</time></trkpt><trkpt lat="14.408531901703451" lon="120.9224138803465"><ele>16.0</ele><time>2026-04-20T09:34:19Z</time></trkpt><trkpt lat="14.408588775230275" lon="120.9224569067074"><ele>15.999999999999998</ele><time>2026-04-20T09:34:20Z</time></trkpt><trkpt lat="14.408661173588408" lon="120.92248587393202"><ele>16.0</ele><time>2026-04-20T09:34:21Z</time></trkpt><trkpt lat="14.408732780660594" lon="120.92250463653605"><ele>16.0</ele><time>2026-04-20T09:34:22Z</time></trkpt><trkpt lat="14.40884538294207" lon="120.92256056475765"><ele>16.0</ele><time>2026-04-20T09:34:24Z</time></trkpt><trkpt lat="14.408885084632782" lon="120.92261740266687"><ele>15.999999999999998</ele><time>2026-04-20T09:34:25Z</time></trkpt><trkpt lat="14.408912339759263" lon="120.92269073150196"><ele>16.0</ele><time>2026-04-20T09:34:26Z</time></trkpt><trkpt lat="14.408924578884328" lon="120.92276793051003"><ele>15.999999999999998</ele><time>2026-04-20T09:34:27Z</time></trkpt><trkpt lat="14.408937810387553" lon="120.92284992318343"><ele>16.0</ele><time>2026-04-20T09:34:28Z</time></trkpt><trkpt lat="14.408954967862009" lon="120.92294111159465"><ele>16.0</ele><time>2026-04-20T09:34:29Z</time></trkpt><trkpt lat="14.408972380770111" lon="120.92302740156688"><ele>16.0</ele><time>2026-04-20T09:34:30Z</time></trkpt><trkpt lat="14.408990515601216" lon="120.92311958734732"><ele>15.999999999999998</ele><time>2026-04-20T09:34:31Z</time></trkpt><trkpt lat="14.409006725560523" lon="120.92321784840549"><ele>16.0</ele><time>2026-04-20T09:34:32Z</time></trkpt><trkpt lat="14.409021139877446" lon="120.92331438409488"><ele>15.8</ele><time>2026-04-20T09:34:33Z</time></trkpt><trkpt lat="14.409035957599773" lon="120.92340637901911"><ele>15.600000000000001</ele><time>2026-04-20T09:34:34Z</time></trkpt><trkpt lat="14.409054476452935" lon="120.923519392549"><ele>15.4</ele><time>2026-04-20T09:34:35Z</time></trkpt><trkpt lat="14.40906716496745" lon="120.92362061104231"><ele>15.2</ele><time>2026-04-20T09:34:36Z</time></trkpt><trkpt lat="14.409083130203593" lon="120.92371974260823"><ele>15.0</ele><time>2026-04-20T09:34:37Z</time></trkpt><trkpt lat="14.409104249366127" lon="120.92382340850354"><ele>15.0</ele><time>2026-04-20T09:34:38Z</time></trkpt><trkpt lat="14.409123700901036" lon="120.92391630532563"><ele>15.0</ele><time>2026-04-20T09:34:39Z</time></trkpt><trkpt lat="14.4091378837033" lon="120.92400023658105"><ele>15.0</ele><time>2026-04-20T09:34:40Z</time></trkpt><trkpt lat="14.409149446876638" lon="120.9240818794931"><ele>15.0</ele><time>2026-04-20T09:34:41Z</time></trkpt><trkpt lat="14.409163393646304" lon="120.92416630895669"><ele>15.0</ele><time>2026-04-20T09:34:42Z</time></trkpt><trkpt lat="14.409177770323993" lon="120.92423970513855"><ele>15.0</ele><time>2026-04-20T09:34:43Z</time></trkpt><trkpt lat="14.409191146456136" lon="120.92430799631025"><ele>15.4</ele><time>2026-04-20T09:34:44Z</time></trkpt><trkpt lat="14.40921068401744" lon="120.92442903322969"><ele>15.8</ele><time>2026-04-20T09:34:46Z</time></trkpt><trkpt lat="14.409228624703468" lon="120.9245265661477"><ele>16.2</ele><time>2026-04-20T09:34:48Z</time></trkpt><trkpt lat="14.409244540581215" lon="120.92459898125641"><ele>16.6</ele><time>2026-04-20T09:34:51Z</time></trkpt><trkpt lat="14.409285084237768" lon="120.92466364582214"><ele>17.0</ele><time>2026-04-20T09:34:57Z</time></trkpt><trkpt lat="14.409384286537728" lon="120.92469503711102"><ele>17.0</ele><time>2026-04-20T09:35:00Z</time></trkpt><trkpt lat="14.409484053599114" lon="120.92466843540826"><ele>17.0</ele><time>2026-04-20T09:35:03Z</time></trkpt><trkpt lat="14.409551033766025" lon="120.92464086896841"><ele>17.0</ele><time>2026-04-20T09:35:05Z</time></trkpt><trkpt lat="14.409621142945001" lon="120.92461114722933"><ele>17.0</ele><time>2026-04-20T09:35:07Z</time></trkpt><trkpt lat="14.409696230768205" lon="120.92458354464547"><ele>17.0</ele><time>2026-04-20T09:35:09Z</time></trkpt><trkpt lat="14.409763134254337" lon="120.92455472246918"><ele>17.0</ele><time>2026-04-20T09:35:11Z</time></trkpt><trkpt lat="14.409829789235042" lon="120.92452951111616"><ele>17.333333333333336</ele><time>2026-04-20T09:35:13Z</time></trkpt><trkpt lat="14.409904339917821" lon="120.92449644519807"><ele>17.666666666666668</ele><time>2026-04-20T09:35:15Z</time></trkpt><trkpt lat="14.409986902198424" lon="120.92446340830284"><ele>18.0</ele><time>2026-04-20T09:35:17Z</time></trkpt><trkpt lat="14.410053737866429" lon="120.92443719440479"><ele>18.333333333333332</ele><time>2026-04-20T09:35:19Z</time></trkpt><trkpt lat="14.410132520559296" lon="120.92440137766215"><ele>18.666666666666664</ele><time>2026-04-20T09:35:21Z</time></trkpt><trkpt lat="14.410208994506364" lon="120.92436841053397"><ele>19.0</ele><time>2026-04-20T09:35:23Z</time></trkpt><trkpt lat="14.410275474469003" lon="120.92433857599795"><ele>19.0</ele><time>2026-04-20T09:35:25Z</time></trkpt><trkpt lat="14.410351686633028" lon="120.92430553797377"><ele>19.0</ele><time>2026-04-20T09:35:27Z</time></trkpt><trkpt lat="14.410425314973468" lon="120.92427060567768"><ele>19.0</ele><time>2026-04-20T09:35:29Z</time></trkpt><trkpt lat="14.410496386954867" lon="120.92423870870842"><ele>19.0</ele><time>2026-04-20T09:35:31Z</time></trkpt><trkpt lat="14.410566812181294" lon="120.9242020461836"><ele>19.0</ele><time>2026-04-20T09:35:33Z</time></trkpt><trkpt lat="14.410660939499998" lon="120.92415781370742"><ele>19.0</ele><time>2026-04-20T09:35:35Z</time></trkpt><trkpt lat="14.410720170561834" lon="120.92413576262406"><ele>19.333333333333332</ele><time>2026-04-20T09:35:36Z</time></trkpt><trkpt lat="14.410796469613112" lon="120.92412932692473"><ele>19.666666666666664</ele><time>2026-04-20T09:35:37Z</time></trkpt><trkpt lat="14.41086577727916" lon="120.924105594434"><ele>20.0</ele><time>2026-04-20T09:35:38Z</time></trkpt><trkpt lat="14.410942243823099" lon="120.92408222798912"><ele>20.333333333333332</ele><time>2026-04-20T09:35:39Z</time></trkpt><trkpt lat="14.4110303477286" lon="120.92406662616449"><ele>20.666666666666668</ele><time>2026-04-20T09:35:40Z</time></trkpt><trkpt lat="14.411117624745478" lon="120.9240587821249"><ele>21.0</ele><time>2026-04-20T09:35:41Z</time></trkpt><trkpt lat="14.411211418047357" lon="120.92405617035446"><ele>21.0</ele><time>2026-04-20T09:35:42Z</time></trkpt><trkpt lat="14.411305340218082" lon="120.92405355499457"><ele>21.0</ele><time>2026-04-20T09:35:43Z</time></trkpt><trkpt lat="14.411393442663204" lon="120.92405606284974"><ele>21.0</ele><time>2026-04-20T09:35:44Z</time></trkpt><trkpt lat="14.411482433990304" lon="120.92405879326657"><ele>21.0</ele><time>2026-04-20T09:35:45Z</time></trkpt><trkpt lat="14.41156790266901" lon="120.92406141560109"><ele>21.0</ele><time>2026-04-20T09:35:46Z</time></trkpt><trkpt lat="14.411644059905933" lon="120.9240637522442"><ele>21.0</ele><time>2026-04-20T09:35:47Z</time></trkpt><trkpt lat="14.411716466702158" lon="120.92406782067827"><ele>20.666666666666668</ele><time>2026-04-20T09:35:48Z</time></trkpt><trkpt lat="14.411800651627766" lon="120.92407315388435"><ele>20.333333333333332</ele><time>2026-04-20T09:35:49Z</time></trkpt><trkpt lat="14.411885797346422" lon="120.92407888811502"><ele>20.0</ele><time>2026-04-20T09:35:50Z</time></trkpt><trkpt lat="14.411969973374193" lon="120.92408483854503"><ele>19.666666666666664</ele><time>2026-04-20T09:35:51Z</time></trkpt><trkpt lat="14.412057239948513" lon="120.92409859106162"><ele>19.333333333333332</ele><time>2026-04-20T09:35:52Z</time></trkpt><trkpt lat="14.412138377198247" lon="120.92411136691405"><ele>19.0</ele><time>2026-04-20T09:35:53Z</time></trkpt><trkpt lat="14.412217458622042" lon="120.9241238190567"><ele>18.4</ele><time>2026-04-20T09:35:54Z</time></trkpt><trkpt lat="14.412282356263985" lon="120.92413306742414"><ele>17.799999999999997</ele><time>2026-04-20T09:35:55Z</time></trkpt><trkpt lat="14.412402161487917" lon="120.92414971521569"><ele>17.200000000000003</ele><time>2026-04-20T09:35:57Z</time></trkpt><trkpt lat="14.412506769150212" lon="120.92416425119804"><ele>16.6</ele><time>2026-04-20T09:35:59Z</time></trkpt><trkpt lat="14.412586873686148" lon="120.9241742644698"><ele>16.0</ele><time>2026-04-20T09:36:01Z</time></trkpt><trkpt lat="14.412677624831492" lon="120.92419887200178"><ele>15.999999999999998</ele><time>2026-04-20T09:36:03Z</time></trkpt><trkpt lat="14.41277246510538" lon="120.92422812157753"><ele>16.0</ele><time>2026-04-20T09:36:05Z</time></trkpt><trkpt lat="14.412867423208608" lon="120.92425630266314"><ele>16.0</ele><time>2026-04-20T09:36:07Z</time></trkpt><trkpt lat="14.412945202926995" lon="120.92427768074009"><ele>16.0</ele><time>2026-04-20T09:36:10Z</time></trkpt><trkpt lat="14.413043246208126" lon="120.92429389060742"><ele>15.999999999999998</ele><time>2026-04-20T09:36:13Z</time></trkpt><trkpt lat="14.41311456804003" lon="120.9242966698571"><ele>16.0</ele><time>2026-04-20T09:36:15Z</time></trkpt><trkpt lat="14.413221972957942" lon="120.9243131432979"><ele>15.8</ele><time>2026-04-20T09:36:17Z</time></trkpt><trkpt lat="14.413352817352417" lon="120.92432339087564"><ele>15.600000000000001</ele><time>2026-04-20T09:36:19Z</time></trkpt><trkpt lat="14.413423992001904" lon="120.92432706420601"><ele>15.4</ele><time>2026-04-20T09:36:20Z</time></trkpt><trkpt lat="14.413490787553956" lon="120.92433067270166"><ele>15.2</ele><time>2026-04-20T09:36:21Z</time></trkpt><trkpt lat="14.413615208561424" lon="120.92432962710079"><ele>15.0</ele><time>2026-04-20T09:36:23Z</time></trkpt><trkpt lat="14.413680194648723" lon="120.92432061992913"><ele>15.0</ele><time>2026-04-20T09:36:24Z</time></trkpt><trkpt lat="14.41374891131524" lon="120.92431109569146"><ele>15.0</ele><time>2026-04-20T09:36:25Z</time></trkpt><trkpt lat="14.413820700108856" lon="120.92430114564856"><ele>15.0</ele><time>2026-04-20T09:36:26Z</time></trkpt><trkpt lat="14.413897959380746" lon="120.92428432169127"><ele>15.0</ele><time>2026-04-20T09:36:27Z</time></trkpt><trkpt lat="14.413981554528483" lon="120.92426375018148"><ele>15.0</ele><time>2026-04-20T09:36:28Z</time></trkpt><trkpt lat="14.414076276596479" lon="120.92424044049153"><ele>15.0</ele><time>2026-04-20T09:36:29Z</time></trkpt><trkpt lat="14.414167617206589" lon="120.92421811410205"><ele>14.8</ele><time>2026-04-20T09:36:30Z</time></trkpt><trkpt lat="14.414269363209778" lon="120.92419310759344"><ele>14.6</ele><time>2026-04-20T09:36:31Z</time></trkpt><trkpt lat="14.41437519993973" lon="120.92416726170413"><ele>14.399999999999999</ele><time>2026-04-20T09:36:32Z</time></trkpt><trkpt lat="14.41447737826816" lon="120.92414246768608"><ele>14.2</ele><time>2026-04-20T09:36:33Z</time></trkpt><trkpt lat="14.414579521044862" lon="120.92412004473022"><ele>14.0</ele><time>2026-04-20T09:36:34Z</time></trkpt><trkpt lat="14.414687528628827" lon="120.92409670768514"><ele>14.0</ele><time>2026-04-20T09:36:35Z</time></trkpt><trkpt lat="14.414793368627604" lon="120.92407383897324"><ele>13.999999999999998</ele><time>2026-04-20T09:36:36Z</time></trkpt><trkpt lat="14.414896402483546" lon="120.92405157658523"><ele>13.999999999999998</ele><time>2026-04-20T09:36:37Z</time></trkpt><trkpt lat="14.415002773731272" lon="120.92402979258138"><ele>14.0</ele><time>2026-04-20T09:36:38Z</time></trkpt><trkpt lat="14.415110799749327" lon="120.92400772918023"><ele>14.0</ele><time>2026-04-20T09:36:39Z</time></trkpt><trkpt lat="14.415207370667183" lon="120.92398800574743"><ele>14.0</ele><time>2026-04-20T09:36:40Z</time></trkpt><trkpt lat="14.415312279559101" lon="120.92398671639259"><ele>13.999999999999998</ele><time>2026-04-20T09:36:41Z</time></trkpt><trkpt lat="14.415422923150023" lon="120.9239768152444"><ele>13.999999999999998</ele><time>2026-04-20T09:36:42Z</time></trkpt><trkpt lat="14.415538053510263" lon="120.9239520678985"><ele>14.0</ele><time>2026-04-20T09:36:43Z</time></trkpt><trkpt lat="14.415643232582118" lon="120.9239425886366"><ele>14.0</ele><time>2026-04-20T09:36:44Z</time></trkpt><trkpt lat="14.415754863619092" lon="120.92393433858446"><ele>13.799999999999999</ele><time>2026-04-20T09:36:45Z</time></trkpt><trkpt lat="14.415875568321907" lon="120.92392636961749"><ele>13.599999999999998</ele><time>2026-04-20T09:36:46Z</time></trkpt><trkpt lat="14.41599629132487" lon="120.92391446472554"><ele>13.4</ele><time>2026-04-20T09:36:47Z</time></trkpt><trkpt lat="14.416097121151452" lon="120.9239031434381"><ele>13.2</ele><time>2026-04-20T09:36:48Z</time></trkpt><trkpt lat="14.416201634135705" lon="120.92389053181584"><ele>13.0</ele><time>2026-04-20T09:36:49Z</time></trkpt><trkpt lat="14.416301817002067" lon="120.92389455565964"><ele>13.0</ele><time>2026-04-20T09:36:50Z</time></trkpt><trkpt lat="14.416396540642454" lon="120.92386648577585"><ele>13.0</ele><time>2026-04-20T09:36:51Z</time></trkpt><trkpt lat="14.416501469652262" lon="120.9238568845015"><ele>13.0</ele><time>2026-04-20T09:36:52Z</time></trkpt><trkpt lat="14.41659516337422" lon="120.92384823361"><ele>13.0</ele><time>2026-04-20T09:36:53Z</time></trkpt><trkpt lat="14.416687198607429" lon="120.92384044104986"><ele>13.0</ele><time>2026-04-20T09:36:54Z</time></trkpt><trkpt lat="14.416778340982626" lon="120.92383740409765"><ele>12.999999999999998</ele><time>2026-04-20T09:36:55Z</time></trkpt><trkpt lat="14.416862931176038" lon="120.92383000014487"><ele>13.0</ele><time>2026-04-20T09:36:56Z</time></trkpt><trkpt lat="14.41693722032393" lon="120.92382498987922"><ele>13.0</ele><time>2026-04-20T09:36:57Z</time></trkpt><trkpt lat="14.417008082117654" lon="120.92381571225296"><ele>13.0</ele><time>2026-04-20T09:36:58Z</time></trkpt><trkpt lat="14.417078785811695" lon="120.92381366825123"><ele>12.999999999999998</ele><time>2026-04-20T09:36:59Z</time></trkpt><trkpt lat="14.4171958687693" lon="120.92379796834011"><ele>13.0</ele><time>2026-04-20T09:37:01Z</time></trkpt><trkpt lat="14.417259286019819" lon="120.9238106315283"><ele>13.166666666666666</ele><time>2026-04-20T09:37:02Z</time></trkpt><trkpt lat="14.41738716440345" lon="120.92380356166117"><ele>13.333333333333332</ele><time>2026-04-20T09:37:04Z</time></trkpt><trkpt lat="14.41745534813359" lon="120.92379971366753"><ele>13.5</ele><time>2026-04-20T09:37:05Z</time></trkpt><trkpt lat="14.417527392422134" lon="120.9237816693802"><ele>13.666666666666668</ele><time>2026-04-20T09:37:06Z</time></trkpt><trkpt lat="14.417606624912658" lon="120.92378087873034"><ele>13.833333333333334</ele><time>2026-04-20T09:37:07Z</time></trkpt><trkpt lat="14.41768663180212" lon="120.92377776758403"><ele>14.0</ele><time>2026-04-20T09:37:08Z</time></trkpt><trkpt lat="14.417766556233117" lon="120.92377268132635"><ele>14.0</ele><time>2026-04-20T09:37:09Z</time></trkpt><trkpt lat="14.41785660696308" lon="120.92377043616952"><ele>13.999999999999998</ele><time>2026-04-20T09:37:10Z</time></trkpt><trkpt lat="14.417944239822742" lon="120.92376377105104"><ele>13.999999999999998</ele><time>2026-04-20T09:37:11Z</time></trkpt><trkpt lat="14.418037999897596" lon="120.92375587290374"><ele>14.0</ele><time>2026-04-20T09:37:12Z</time></trkpt><trkpt lat="14.418129520228476" lon="120.92374692247985"><ele>14.0</ele><time>2026-04-20T09:37:13Z</time></trkpt><trkpt lat="14.418222437340129" lon="120.92373673468938"><ele>14.0</ele><time>2026-04-20T09:37:14Z</time></trkpt><trkpt lat="14.418312516877464" lon="120.92374133718695"><ele>13.999999999999998</ele><time>2026-04-20T09:37:15Z</time></trkpt><trkpt lat="14.418417997823553" lon="120.92373291100029"><ele>13.999999999999998</ele><time>2026-04-20T09:37:16Z</time></trkpt><trkpt lat="14.418519113412257" lon="120.92370914904275"><ele>14.0</ele><time>2026-04-20T09:37:17Z</time></trkpt><trkpt lat="14.418627801942431" lon="120.92370031239116"><ele>14.0</ele><time>2026-04-20T09:37:18Z</time></trkpt><trkpt lat="14.418738436707889" lon="120.92369227032007"><ele>13.799999999999999</ele><time>2026-04-20T09:37:19Z</time></trkpt><trkpt lat="14.418833879517518" lon="120.92368863756278"><ele>13.599999999999998</ele><time>2026-04-20T09:37:20Z</time></trkpt><trkpt lat="14.418934755974371" lon="120.92368488406404"><ele>13.4</ele><time>2026-04-20T09:37:21Z</time></trkpt><trkpt lat="14.41903363223993" lon="120.92367633737939"><ele>13.2</ele><time>2026-04-20T09:37:22Z</time></trkpt><trkpt lat="14.419124472392113" lon="120.92369566015954"><ele>13.0</ele><time>2026-04-20T09:37:23Z</time></trkpt><trkpt lat="14.41921594181517" lon="120.92369044460168"><ele>12.999999999999998</ele><time>2026-04-20T09:37:24Z</time></trkpt><trkpt lat="14.4193037221004" lon="120.92367906742321"><ele>13.0</ele><time>2026-04-20T09:37:25Z</time></trkpt><trkpt lat="14.419386738608733" lon="120.9236683076737"><ele>13.0</ele><time>2026-04-20T09:37:26Z</time></trkpt><trkpt lat="14.41946397520906" lon="120.92364578204969"><ele>13.0</ele><time>2026-04-20T09:37:27Z</time></trkpt><trkpt lat="14.419539702743567" lon="120.92364142092796"><ele>12.999999999999998</ele><time>2026-04-20T09:37:28Z</time></trkpt><trkpt lat="14.419615866539367" lon="120.92363380265381"><ele>13.0</ele><time>2026-04-20T09:37:29Z</time></trkpt><trkpt lat="14.419683752107009" lon="120.9236309388838"><ele>12.600000000000001</ele><time>2026-04-20T09:37:30Z</time></trkpt><trkpt lat="14.419802769935487" lon="120.923621818144"><ele>12.200000000000001</ele><time>2026-04-20T09:37:32Z</time></trkpt><trkpt lat="14.419865661734347" lon="120.92361821870766"><ele>11.8</ele><time>2026-04-20T09:37:33Z</time></trkpt><trkpt lat="14.419985845149618" lon="120.92361279277955"><ele>11.4</ele><time>2026-04-20T09:37:35Z</time></trkpt><trkpt lat="14.420111109512707" lon="120.9236015484987"><ele>11.0</ele><time>2026-04-20T09:37:37Z</time></trkpt><trkpt lat="14.420183604970816" lon="120.92359111603893"><ele>11.0</ele><time>2026-04-20T09:37:38Z</time></trkpt><trkpt lat="14.420249898010189" lon="120.92358841749592"><ele>11.0</ele><time>2026-04-20T09:37:39Z</time></trkpt><trkpt lat="14.420318610139322" lon="120.92358043007958"><ele>11.0</ele><time>2026-04-20T09:37:40Z</time></trkpt><trkpt lat="14.420382723378792" lon="120.92357790704283"><ele>11.0</ele><time>2026-04-20T09:37:41Z</time></trkpt><trkpt lat="14.420451675892359" lon="120.92357366374335"><ele>11.0</ele><time>2026-04-20T09:37:42Z</time></trkpt><trkpt lat="14.420571898551152" lon="120.92356679026679"><ele>11.0</ele><time>2026-04-20T09:37:44Z</time></trkpt><trkpt lat="14.420699665021733" lon="120.92355693457021"><ele>10.833333333333332</ele><time>2026-04-20T09:37:46Z</time></trkpt><trkpt lat="14.420828452228097" lon="120.9235466367022"><ele>10.666666666666666</ele><time>2026-04-20T09:37:48Z</time></trkpt><trkpt lat="14.42090244595711" lon="120.92354404803791"><ele>10.5</ele><time>2026-04-20T09:37:49Z</time></trkpt><trkpt lat="14.42097463040765" lon="120.92354345144207"><ele>10.333333333333334</ele><time>2026-04-20T09:37:50Z</time></trkpt><trkpt lat="14.421041722957812" lon="120.92354533092883"><ele>10.166666666666668</ele><time>2026-04-20T09:37:51Z</time></trkpt><trkpt lat="14.421109154541583" lon="120.9235444190362"><ele>10.0</ele><time>2026-04-20T09:37:52Z</time></trkpt><trkpt lat="14.42118795591031" lon="120.92354427542018"><ele>10.0</ele><time>2026-04-20T09:37:53Z</time></trkpt><trkpt lat="14.42127254654052" lon="120.92354448933258"><ele>10.0</ele><time>2026-04-20T09:37:54Z</time></trkpt><trkpt lat="14.421353366516737" lon="120.9235455608939"><ele>10.0</ele><time>2026-04-20T09:37:55Z</time></trkpt><trkpt lat="14.421424695695858" lon="120.9235473064261"><ele>10.0</ele><time>2026-04-20T09:37:56Z</time></trkpt><trkpt lat="14.42149842810583" lon="120.92354860367563"><ele>10.0</ele><time>2026-04-20T09:37:57Z</time></trkpt><trkpt lat="14.421572860555582" lon="120.92354931735686"><ele>10.0</ele><time>2026-04-20T09:37:58Z</time></trkpt><trkpt lat="14.421641056942068" lon="120.92354872999076"><ele>10.0</ele><time>2026-04-20T09:37:59Z</time></trkpt><trkpt lat="14.421712424777445" lon="120.92354824699386"><ele>10.0</ele><time>2026-04-20T09:38:00Z</time></trkpt><trkpt lat="14.421790337223893" lon="120.92354223639244"><ele>10.0</ele><time>2026-04-20T09:38:01Z</time></trkpt><trkpt lat="14.421859294822413" lon="120.92353282219803"><ele>10.0</ele><time>2026-04-20T09:38:02Z</time></trkpt><trkpt lat="14.42193727312006" lon="120.92351678017644"><ele>10.0</ele><time>2026-04-20T09:38:03Z</time></trkpt><trkpt lat="14.422023122807753" lon="120.92350310060219"><ele>10.0</ele><time>2026-04-20T09:38:04Z</time></trkpt><trkpt lat="14.422109944863697" lon="120.9234916724558"><ele>10.0</ele><time>2026-04-20T09:38:05Z</time></trkpt><trkpt lat="14.42220509448123" lon="120.92348177749616"><ele>10.0</ele><time>2026-04-20T09:38:06Z</time></trkpt><trkpt lat="14.422304183979769" lon="120.92346977511234"><ele>10.0</ele><time>2026-04-20T09:38:07Z</time></trkpt><trkpt lat="14.422390510455465" lon="120.92345653962627"><ele>10.0</ele><time>2026-04-20T09:38:08Z</time></trkpt><trkpt lat="14.422481224719853" lon="120.92344273140965"><ele>10.0</ele><time>2026-04-20T09:38:09Z</time></trkpt><trkpt lat="14.422560357467011" lon="120.92342845895315"><ele>10.0</ele><time>2026-04-20T09:38:10Z</time></trkpt><trkpt lat="14.42263762440397" lon="120.9234156065056"><ele>10.0</ele><time>2026-04-20T09:38:11Z</time></trkpt><trkpt lat="14.422707366252546" lon="120.92340148512034"><ele>10.0</ele><time>2026-04-20T09:38:12Z</time></trkpt><trkpt lat="14.42277258351674" lon="120.92338822975373"><ele>10.0</ele><time>2026-04-20T09:38:13Z</time></trkpt><trkpt lat="14.422888205106098" lon="120.92337330691258"><ele>10.0</ele><time>2026-04-20T09:38:15Z</time></trkpt><trkpt lat="14.422973717762668" lon="120.92337437213779"><ele>10.0</ele><time>2026-04-20T09:38:17Z</time></trkpt><trkpt lat="14.423045365887758" lon="120.92336348693512"><ele>10.142857142857142</ele><time>2026-04-20T09:38:19Z</time></trkpt><trkpt lat="14.423117150326748" lon="120.92335203505696"><ele>10.285714285714286</ele><time>2026-04-20T09:39:23Z</time></trkpt><trkpt lat="14.42316570009131" lon="120.92339759318959"><ele>10.428571428571429</ele><time>2026-04-20T09:39:43Z</time></trkpt><trkpt lat="14.42310402202095" lon="120.92338122481692"><ele>10.571428571428571</ele><time>2026-04-20T09:40:36Z</time></trkpt><trkpt lat="14.423149423924505" lon="120.92333335026025"><ele>10.714285714285714</ele><time>2026-04-20T09:42:36Z</time></trkpt><trkpt lat="14.423187715958237" lon="120.92326745656234"><ele>10.857142857142858</ele><time>2026-04-20T09:42:41Z</time></trkpt><trkpt lat="14.423211888620614" lon="120.92320324864671"><ele>11.0</ele><time>2026-04-20T09:42:49Z</time></trkpt><trkpt lat="14.423255782206558" lon="120.92315268023992"><ele>11.0</ele><time>2026-04-20T09:43:03Z</time></trkpt><trkpt lat="14.42338806758268" lon="120.92316593212837"><ele>11.0</ele><time>2026-04-20T09:43:35Z</time></trkpt><trkpt lat="14.423322145537703" lon="120.92312681482292"><ele>11.0</ele><time>2026-04-20T09:43:50Z</time></trkpt><trkpt lat="14.423256087758787" lon="120.92314794490655"><ele>11.0</ele><time>2026-04-20T09:43:56Z</time></trkpt><trkpt lat="14.423195970172943" lon="120.92311910664125"><ele>11.0</ele><time>2026-04-20T09:44:06Z</time></trkpt><trkpt lat="14.423179387934551" lon="120.92305603416276"><ele>11.0</ele><time>2026-04-20T09:44:17Z</time></trkpt><trkpt lat="14.42322838844155" lon="120.9231059513587"><ele>11.0</ele><time>2026-04-20T10:02:12Z</time></trkpt><trkpt lat="14.423227839328138" lon="120.92317157687711"><ele>11.0</ele><time>2026-04-20T10:02:17Z</time></trkpt><trkpt lat="14.42320795907594" lon="120.92323618303462"><ele>11.0</ele><time>2026-04-20T10:02:23Z</time></trkpt><trkpt lat="14.423185275849718" lon="120.92330504871177"><ele>11.0</ele><time>2026-04-20T10:02:28Z</time></trkpt><trkpt lat="14.423138049842144" lon="120.92335417726609"><ele>11.0</ele><time>2026-04-20T10:02:38Z</time></trkpt><trkpt lat="14.423213369772135" lon="120.92332407720845"><ele>11.0</ele><time>2026-04-20T10:18:10Z</time></trkpt><trkpt lat="14.42331515496527" lon="120.92330135305417"><ele>11.0</ele><time>2026-04-20T10:18:12Z</time></trkpt><trkpt lat="14.423412165305168" lon="120.92329555062936"><ele>11.0</ele><time>2026-04-20T10:18:14Z</time></trkpt><trkpt lat="14.42352239281645" lon="120.92328489633745"><ele>11.0</ele><time>2026-04-20T10:18:16Z</time></trkpt><trkpt lat="14.423650570686894" lon="120.92326956816908"><ele>11.0</ele><time>2026-04-20T10:18:18Z</time></trkpt><trkpt lat="14.423740648797802" lon="120.92325594313034"><ele>11.0</ele><time>2026-04-20T10:18:19Z</time></trkpt><trkpt lat="14.42380888934127" lon="120.92325849749969"><ele>11.200000000000001</ele><time>2026-04-20T10:18:20Z</time></trkpt><trkpt lat="14.42388791502482" lon="120.92325699672112"><ele>11.4</ele><time>2026-04-20T10:18:21Z</time></trkpt><trkpt lat="14.423980489222135" lon="120.92324006786212"><ele>11.6</ele><time>2026-04-20T10:18:22Z</time></trkpt><trkpt lat="14.42407477189906" lon="120.92325473890996"><ele>11.8</ele><time>2026-04-20T10:18:23Z</time></trkpt><trkpt lat="14.42417194213346" lon="120.92325270186163"><ele>12.0</ele><time>2026-04-20T10:18:24Z</time></trkpt><trkpt lat="14.424272322872225" lon="120.9232505975103"><ele>12.0</ele><time>2026-04-20T10:18:25Z</time></trkpt><trkpt lat="14.424370684589647" lon="120.92324882980026"><ele>12.0</ele><time>2026-04-20T10:18:26Z</time></trkpt><trkpt lat="14.424473060583242" lon="120.92324953426272"><ele>12.0</ele><time>2026-04-20T10:18:27Z</time></trkpt><trkpt lat="14.424570169959166" lon="120.92325020248457"><ele>12.0</ele><time>2026-04-20T10:18:28Z</time></trkpt><trkpt lat="14.424660602650034" lon="120.92325082476374"><ele>12.0</ele><time>2026-04-20T10:18:29Z</time></trkpt><trkpt lat="14.42475651966292" lon="120.92325148478147"><ele>12.0</ele><time>2026-04-20T10:18:30Z</time></trkpt><trkpt lat="14.424850886123554" lon="120.92325213412882"><ele>12.0</ele><time>2026-04-20T10:18:31Z</time></trkpt><trkpt lat="14.424943550338867" lon="120.92325277176319"><ele>12.0</ele><time>2026-04-20T10:18:32Z</time></trkpt><trkpt lat="14.425037151101634" lon="120.92325341584308"><ele>12.0</ele><time>2026-04-20T10:18:33Z</time></trkpt><trkpt lat="14.425134663264444" lon="120.92325408683703"><ele>12.0</ele><time>2026-04-20T10:18:34Z</time></trkpt><trkpt lat="14.425228764563744" lon="120.92325473472754"><ele>12.0</ele><time>2026-04-20T10:18:35Z</time></trkpt><trkpt lat="14.425329530680974" lon="120.9232554281124"><ele>12.0</ele><time>2026-04-20T10:18:36Z</time></trkpt><trkpt lat="14.425421624295849" lon="120.92325606182088"><ele>12.0</ele><time>2026-04-20T10:18:37Z</time></trkpt><trkpt lat="14.425528174016513" lon="120.92325682013305"><ele>12.0</ele><time>2026-04-20T10:18:38Z</time></trkpt><trkpt lat="14.425642167480277" lon="120.9232581051836"><ele>12.0</ele><time>2026-04-20T10:18:39Z</time></trkpt><trkpt lat="14.425742200597226" lon="120.92325923285999"><ele>11.6</ele><time>2026-04-20T10:18:40Z</time></trkpt><trkpt lat="14.425853898039282" lon="120.92326049202875"><ele>11.2</ele><time>2026-04-20T10:18:41Z</time></trkpt><trkpt lat="14.425961414971031" lon="120.92325953418742"><ele>10.8</ele><time>2026-04-20T10:18:42Z</time></trkpt><trkpt lat="14.426050702802803" lon="120.92325795964928"><ele>10.4</ele><time>2026-04-20T10:18:43Z</time></trkpt><trkpt lat="14.426148833044723" lon="120.92325622917555"><ele>10.0</ele><time>2026-04-20T10:18:44.001Z</time></trkpt><trkpt lat="14.426219399821962" lon="120.92325551858266"><ele>10.0</ele><time>2026-04-20T10:18:45.001Z</time></trkpt><trkpt lat="14.426287517911346" lon="120.92325467968914"><ele>10.0</ele><time>2026-04-20T10:18:46.001Z</time></trkpt><trkpt lat="14.426371194658694" lon="120.92325364918743"><ele>10.0</ele><time>2026-04-20T10:18:47.001Z</time></trkpt><trkpt lat="14.426443176091116" lon="120.92325276271671"><ele>10.0</ele><time>2026-04-20T10:18:48.001Z</time></trkpt><trkpt lat="14.426519495478887" lon="120.92325255737018"><ele>10.0</ele><time>2026-04-20T10:18:49.001Z</time></trkpt><trkpt lat="14.426591876872985" lon="120.92325166292294"><ele>10.0</ele><time>2026-04-20T10:18:50.001Z</time></trkpt><trkpt lat="14.426689407156205" lon="120.92321471701982"><ele>10.0</ele><time>2026-04-20T10:18:51.001Z</time></trkpt><trkpt lat="14.42676697858633" lon="120.92317781013513"><ele>10.0</ele><time>2026-04-20T10:18:52.001Z</time></trkpt><trkpt lat="14.42684213406376" lon="120.92312555172904"><ele>10.0</ele><time>2026-04-20T10:18:53.001Z</time></trkpt><trkpt lat="14.42692054125366" lon="120.92308797281626"><ele>10.0</ele><time>2026-04-20T10:18:54.001Z</time></trkpt><trkpt lat="14.427001519459228" lon="120.92304641256277"><ele>10.0</ele><time>2026-04-20T10:18:55.001Z</time></trkpt><trkpt lat="14.427098649946078" lon="120.92299219083128"><ele>10.2</ele><time>2026-04-20T10:18:56.001Z</time></trkpt><trkpt lat="14.427166190494104" lon="120.92293614648482"><ele>10.4</ele><time>2026-04-20T10:18:57.001Z</time></trkpt><trkpt lat="14.427259076299867" lon="120.92287930844589"><ele>10.600000000000001</ele><time>2026-04-20T10:18:58.001Z</time></trkpt><trkpt lat="14.42735034496039" lon="120.92282345996193"><ele>10.8</ele><time>2026-04-20T10:18:59.001Z</time></trkpt><trkpt lat="14.427427659845222" lon="120.92277614998018"><ele>11.0</ele><time>2026-04-20T10:19:00.001Z</time></trkpt><trkpt lat="14.42750501736319" lon="120.9227288139038"><ele>11.0</ele><time>2026-04-20T10:19:01.001Z</time></trkpt><trkpt lat="14.427562423099655" lon="120.92269368658607"><ele>11.0</ele><time>2026-04-20T10:19:02.001Z</time></trkpt><trkpt lat="14.427644441203482" lon="120.9226603391346"><ele>11.0</ele><time>2026-04-20T10:19:03.001Z</time></trkpt><trkpt lat="14.427719233727043" lon="120.92261212433237"><ele>11.0</ele><time>2026-04-20T10:19:04.001Z</time></trkpt><trkpt lat="14.42778904308765" lon="120.92257005932065"><ele>11.0</ele><time>2026-04-20T10:19:05.001Z</time></trkpt><trkpt lat="14.427864853521111" lon="120.922519938218"><ele>11.0</ele><time>2026-04-20T10:19:06.001Z</time></trkpt><trkpt lat="14.427946049023594" lon="120.92246418781819"><ele>10.833333333333332</ele><time>2026-04-20T10:19:07.001Z</time></trkpt><trkpt lat="14.428018182736933" lon="120.92241989026022"><ele>10.666666666666666</ele><time>2026-04-20T10:19:08.001Z</time></trkpt><trkpt lat="14.428097063783705" lon="120.92237459073631"><ele>10.5</ele><time>2026-04-20T10:19:09.001Z</time></trkpt><trkpt lat="14.42815634969287" lon="120.92234073101042"><ele>10.333333333333334</ele><time>2026-04-20T10:19:10.001Z</time></trkpt><trkpt lat="14.428233394502366" lon="120.92229572147932"><ele>10.166666666666668</ele><time>2026-04-20T10:19:12.001Z</time></trkpt><trkpt lat="14.428330226910699" lon="120.92228261752324"><ele>10.0</ele><time>2026-04-20T10:19:15.001Z</time></trkpt><trkpt lat="14.428404238423763" lon="120.92229274649465"><ele>10.0</ele><time>2026-04-20T10:19:17.001Z</time></trkpt><trkpt lat="14.428479489312927" lon="120.92230361990016"><ele>10.0</ele><time>2026-04-20T10:19:20.001Z</time></trkpt><trkpt lat="14.428567257552785" lon="120.92231389872086"><ele>10.0</ele><time>2026-04-20T10:19:23.001Z</time></trkpt><trkpt lat="14.42863099621491" lon="120.92231892133343"><ele>10.0</ele><time>2026-04-20T10:19:25.001Z</time></trkpt><trkpt lat="14.428738226680553" lon="120.92232766932122"><ele>10.0</ele><time>2026-04-20T10:19:27.001Z</time></trkpt><trkpt lat="14.42883989039985" lon="120.92234177839342"><ele>10.0</ele><time>2026-04-20T10:19:29.001Z</time></trkpt><trkpt lat="14.428931225418642" lon="120.9223518726751"><ele>9.8</ele><time>2026-04-20T10:19:31.001Z</time></trkpt><trkpt lat="14.42902620817192" lon="120.92235720006741"><ele>9.6</ele><time>2026-04-20T10:19:33.002Z</time></trkpt><trkpt lat="14.429122868307838" lon="120.9223614660208"><ele>9.4</ele><time>2026-04-20T10:19:35.002Z</time></trkpt><trkpt lat="14.429262037713196" lon="120.92236497138434"><ele>9.2</ele><time>2026-04-20T10:19:37.002Z</time></trkpt><trkpt lat="14.42935528111727" lon="120.92237592421218"><ele>9.0</ele><time>2026-04-20T10:19:38.002Z</time></trkpt><trkpt lat="14.429445385064227" lon="120.9223886618612"><ele>9.0</ele><time>2026-04-20T10:19:39.002Z</time></trkpt><trkpt lat="14.429543666632823" lon="120.92239767775187"><ele>9.0</ele><time>2026-04-20T10:19:40.002Z</time></trkpt><trkpt lat="14.42964060210916" lon="120.92240632555753"><ele>9.0</ele><time>2026-04-20T10:19:41.002Z</time></trkpt><trkpt lat="14.429743551792406" lon="120.92242011448052"><ele>9.0</ele><time>2026-04-20T10:19:42.002Z</time></trkpt><trkpt lat="14.42985186806368" lon="120.92244142255933"><ele>9.0</ele><time>2026-04-20T10:19:43.002Z</time></trkpt><trkpt lat="14.429951393332123" lon="120.92245916108304"><ele>9.0</ele><time>2026-04-20T10:19:44.002Z</time></trkpt><trkpt lat="14.430074747015134" lon="120.92246993373963"><ele>9.0</ele><time>2026-04-20T10:19:45.002Z</time></trkpt><trkpt lat="14.430186429726003" lon="120.9224864169615"><ele>9.0</ele><time>2026-04-20T10:19:46Z</time></trkpt><trkpt lat="14.430290419663763" lon="120.92250016725674"><ele>9.0</ele><time>2026-04-20T10:19:47Z</time></trkpt><trkpt lat="14.430398683650772" lon="120.92251435796858"><ele>9.2</ele><time>2026-04-20T10:19:48Z</time></trkpt><trkpt lat="14.43051992100979" lon="120.92251915019114"><ele>9.4</ele><time>2026-04-20T10:19:49Z</time></trkpt><trkpt lat="14.430627851704969" lon="120.92252889749648"><ele>9.6</ele><time>2026-04-20T10:19:50Z</time></trkpt><trkpt lat="14.43072524414454" lon="120.9225385254966"><ele>9.8</ele><time>2026-04-20T10:19:51Z</time></trkpt><trkpt lat="14.43082521527248" lon="120.92254496980506"><ele>10.0</ele><time>2026-04-20T10:19:52Z</time></trkpt><trkpt lat="14.430925699427812" lon="120.9225510694882"><ele>10.0</ele><time>2026-04-20T10:19:53Z</time></trkpt><trkpt lat="14.431025139675942" lon="120.92255366251389"><ele>10.0</ele><time>2026-04-20T10:19:54Z</time></trkpt><trkpt lat="14.431130977243722" lon="120.92254578257392"><ele>10.0</ele><time>2026-04-20T10:19:55Z</time></trkpt><trkpt lat="14.431214699836724" lon="120.92255388623562"><ele>10.0</ele><time>2026-04-20T10:19:56Z</time></trkpt><trkpt lat="14.431302725966525" lon="120.92254907349208"><ele>10.0</ele><time>2026-04-20T10:19:57Z</time></trkpt><trkpt lat="14.43139132620795" lon="120.92254794038769"><ele>9.833333333333334</ele><time>2026-04-20T10:19:58Z</time></trkpt><trkpt lat="14.431474836013427" lon="120.9225451534818"><ele>9.666666666666668</ele><time>2026-04-20T10:19:59Z</time></trkpt><trkpt lat="14.431564948353413" lon="120.92254133772558"><ele>9.5</ele><time>2026-04-20T10:20:00Z</time></trkpt><trkpt lat="14.431653690551622" lon="120.92254019002978"><ele>9.333333333333334</ele><time>2026-04-20T10:20:01Z</time></trkpt><trkpt lat="14.431728379530814" lon="120.92254141804038"><ele>9.166666666666666</ele><time>2026-04-20T10:20:02Z</time></trkpt><trkpt lat="14.431799746325904" lon="120.92254383409185"><ele>9.0</ele><time>2026-04-20T10:20:03Z</time></trkpt><trkpt lat="14.43186816425823" lon="120.92255657845915"><ele>8.8</ele><time>2026-04-20T10:20:04Z</time></trkpt><trkpt lat="14.431932156318155" lon="120.92257845599674"><ele>8.600000000000001</ele><time>2026-04-20T10:20:05Z</time></trkpt><trkpt lat="14.432052835520258" lon="120.9226115145736"><ele>8.4</ele><time>2026-04-20T10:20:07Z</time></trkpt><trkpt lat="14.432134266984226" lon="120.92261051968408"><ele>8.200000000000001</ele><time>2026-04-20T10:20:08Z</time></trkpt><trkpt lat="14.432230680461904" lon="120.92261532659688"><ele>8.0</ele><time>2026-04-20T10:20:09Z</time></trkpt><trkpt lat="14.432325961822322" lon="120.92263264419391"><ele>7.800000000000001</ele><time>2026-04-20T10:20:10Z</time></trkpt><trkpt lat="14.432429596021384" lon="120.92265318829455"><ele>7.6000000000000005</ele><time>2026-04-20T10:20:11Z</time></trkpt><trkpt lat="14.432539016293505" lon="120.92267118710336"><ele>7.3999999999999995</ele><time>2026-04-20T10:20:12Z</time></trkpt><trkpt lat="14.432635380683873" lon="120.92268305463988"><ele>7.199999999999999</ele><time>2026-04-20T10:20:13Z</time></trkpt><trkpt lat="14.432751644674827" lon="120.92269684139559"><ele>7.0</ele><time>2026-04-20T10:20:14Z</time></trkpt><trkpt lat="14.432855826246206" lon="120.92270763073586"><ele>7.0</ele><time>2026-04-20T10:20:15Z</time></trkpt><trkpt lat="14.432950461442402" lon="120.92272067431671"><ele>6.999999999999999</ele><time>2026-04-20T10:20:16Z</time></trkpt><trkpt lat="14.43305767115536" lon="120.92273577067688"><ele>6.999999999999999</ele><time>2026-04-20T10:20:17Z</time></trkpt><trkpt lat="14.433166543331483" lon="120.92274918866991"><ele>7.0</ele><time>2026-04-20T10:20:18Z</time></trkpt><trkpt lat="14.433278232295073" lon="120.92276297452275"><ele>7.0</ele><time>2026-04-20T10:20:19.001Z</time></trkpt><trkpt lat="14.433383246352282" lon="120.9227750357551"><ele>7.199999999999999</ele><time>2026-04-20T10:20:20.001Z</time></trkpt><trkpt lat="14.433504521579547" lon="120.92278491053294"><ele>7.3999999999999995</ele><time>2026-04-20T10:20:21.001Z</time></trkpt><trkpt lat="14.43360198390865" lon="120.92279327353013"><ele>7.6000000000000005</ele><time>2026-04-20T10:20:22.001Z</time></trkpt><trkpt lat="14.433719961910533" lon="120.92279680158242"><ele>7.800000000000001</ele><time>2026-04-20T10:20:23.001Z</time></trkpt><trkpt lat="14.433827624443353" lon="120.92279748069555"><ele>8.0</ele><time>2026-04-20T10:20:24.001Z</time></trkpt><trkpt lat="14.433936431552125" lon="120.92280004654621"><ele>7.5</ele><time>2026-04-20T10:20:25.001Z</time></trkpt><trkpt lat="14.434050022397567" lon="120.92279770053368"><ele>7.0</ele><time>2026-04-20T10:20:26.001Z</time></trkpt><trkpt lat="14.434162417848691" lon="120.92279584321318"><ele>6.5</ele><time>2026-04-20T10:20:27.001Z</time></trkpt><trkpt lat="14.43427942982565" lon="120.92280023275407"><ele>6.0</ele><time>2026-04-20T10:20:28.001Z</time></trkpt><trkpt lat="14.43439746482877" lon="120.92280546507975"><ele>6.0</ele><time>2026-04-20T10:20:29.001Z</time></trkpt><trkpt lat="14.434510805967472" lon="120.9228172703393"><ele>6.0</ele><time>2026-04-20T10:20:30.001Z</time></trkpt><trkpt lat="14.434626936469508" lon="120.9228324452091"><ele>6.0</ele><time>2026-04-20T10:20:31.001Z</time></trkpt><trkpt lat="14.434745107784268" lon="120.92284980137177"><ele>6.0</ele><time>2026-04-20T10:20:32.001Z</time></trkpt><trkpt lat="14.434858069126118" lon="120.9228686405554"><ele>6.4</ele><time>2026-04-20T10:20:33.001Z</time></trkpt><trkpt lat="14.434964593972273" lon="120.92288934823439"><ele>6.8</ele><time>2026-04-20T10:20:34.001Z</time></trkpt><trkpt lat="14.435059746618807" lon="120.92291338782677"><ele>7.200000000000001</ele><time>2026-04-20T10:20:35.001Z</time></trkpt><trkpt lat="14.435163227664685" lon="120.92293610067969"><ele>7.6000000000000005</ele><time>2026-04-20T10:20:36.001Z</time></trkpt><trkpt lat="14.435274891909984" lon="120.922965291534"><ele>8.0</ele><time>2026-04-20T10:20:37.001Z</time></trkpt><trkpt lat="14.435382807396838" lon="120.92299176837538"><ele>8.0</ele><time>2026-04-20T10:20:38.001Z</time></trkpt><trkpt lat="14.435491341997647" lon="120.92302955459961"><ele>8.0</ele><time>2026-04-20T10:20:39.001Z</time></trkpt><trkpt lat="14.435601265518791" lon="120.92305933608425"><ele>8.0</ele><time>2026-04-20T10:20:40.001Z</time></trkpt><trkpt lat="14.435703363449539" lon="120.92307935976325"><ele>8.0</ele><time>2026-04-20T10:20:41.001Z</time></trkpt><trkpt lat="14.435808060403168" lon="120.92309724805862"><ele>8.0</ele><time>2026-04-20T10:20:42.001Z</time></trkpt><trkpt lat="14.435914877802992" lon="120.92312242295522"><ele>8.0</ele><time>2026-04-20T10:20:43.001Z</time></trkpt><trkpt lat="14.436007009235505" lon="120.92315057841658"><ele>8.0</ele><time>2026-04-20T10:20:44.001Z</time></trkpt><trkpt lat="14.436109799619285" lon="120.92317783832416"><ele>8.0</ele><time>2026-04-20T10:20:45.001Z</time></trkpt><trkpt lat="14.436194143556841" lon="120.92320176324641"><ele>8.0</ele><time>2026-04-20T10:20:46.001Z</time></trkpt><trkpt lat="14.436291642026642" lon="120.92322810391761"><ele>8.0</ele><time>2026-04-20T10:20:47.001Z</time></trkpt><trkpt lat="14.436387220941171" lon="120.923248953938"><ele>7.6000000000000005</ele><time>2026-04-20T10:20:48.001Z</time></trkpt><trkpt lat="14.436494937417619" lon="120.92326160629283"><ele>7.200000000000001</ele><time>2026-04-20T10:20:49.001Z</time></trkpt><trkpt lat="14.436609310722158" lon="120.92327276359036"><ele>6.8</ele><time>2026-04-20T10:20:50.001Z</time></trkpt><trkpt lat="14.436716990741832" lon="120.92328928826569"><ele>6.4</ele><time>2026-04-20T10:20:51.001Z</time></trkpt><trkpt lat="14.436811832892948" lon="120.92330761860349"><ele>6.0</ele><time>2026-04-20T10:20:52.001Z</time></trkpt><trkpt lat="14.43690745943758" lon="120.9233183520027"><ele>6.0</ele><time>2026-04-20T10:20:53.001Z</time></trkpt><trkpt lat="14.43699721376015" lon="120.92332816227619"><ele>6.0</ele><time>2026-04-20T10:20:54.001Z</time></trkpt><trkpt lat="14.43707539323564" lon="120.92333775599838"><ele>6.0</ele><time>2026-04-20T10:20:55.001Z</time></trkpt><trkpt lat="14.437174292572823" lon="120.92334541326532"><ele>6.0</ele><time>2026-04-20T10:20:56.001Z</time></trkpt><trkpt lat="14.437269528501911" lon="120.92335240156714"><ele>6.0</ele><time>2026-04-20T10:20:57.001Z</time></trkpt><trkpt lat="14.437356136005867" lon="120.92336495438573"><ele>5.8</ele><time>2026-04-20T10:20:58.001Z</time></trkpt><trkpt lat="14.437450581617194" lon="120.92337289450211"><ele>5.6</ele><time>2026-04-20T10:20:59.001Z</time></trkpt><trkpt lat="14.437550036509393" lon="120.92338154854657"><ele>5.4</ele><time>2026-04-20T10:21:00.001Z</time></trkpt><trkpt lat="14.437646003782202" lon="120.92339470971004"><ele>5.2</ele><time>2026-04-20T10:21:01.001Z</time></trkpt><trkpt lat="14.437739395459927" lon="120.92341025374911"><ele>5.0</ele><time>2026-04-20T10:21:02.001Z</time></trkpt><trkpt lat="14.437838001856493" lon="120.92341519343398"><ele>5.0</ele><time>2026-04-20T10:21:03.001Z</time></trkpt><trkpt lat="14.437924529559586" lon="120.92342470724041"><ele>5.0</ele><time>2026-04-20T10:21:04.001Z</time></trkpt><trkpt lat="14.437998489566118" lon="120.92343498062323"><ele>5.0</ele><time>2026-04-20T10:21:05.001Z</time></trkpt><trkpt lat="14.43806991585287" lon="120.92344225556391"><ele>5.0</ele><time>2026-04-20T10:21:06.001Z</time></trkpt><trkpt lat="14.438161525619533" lon="120.9234511230881"><ele>5.0</ele><time>2026-04-20T10:21:08.001Z</time></trkpt><trkpt lat="14.438259359580428" lon="120.92346167497264"><ele>5.0</ele><time>2026-04-20T10:21:11.001Z</time></trkpt><trkpt lat="14.438326260591106" lon="120.92346545079836"><ele>5.166666666666667</ele><time>2026-04-20T10:21:12.001Z</time></trkpt><trkpt lat="14.438393131110287" lon="120.92347257259195"><ele>5.333333333333334</ele><time>2026-04-20T10:21:13.002Z</time></trkpt><trkpt lat="14.438508921913916" lon="120.92349669045004"><ele>5.5</ele><time>2026-04-20T10:21:15.002Z</time></trkpt><trkpt lat="14.438606444502796" lon="120.9235072090621"><ele>5.666666666666667</ele><time>2026-04-20T10:21:17.002Z</time></trkpt><trkpt lat="14.438692864738655" lon="120.92352128989938"><ele>5.833333333333333</ele><time>2026-04-20T10:21:19.002Z</time></trkpt><trkpt lat="14.438758179245918" lon="120.92353589396723"><ele>6.0</ele><time>2026-04-20T10:21:21.002Z</time></trkpt><trkpt lat="14.43884147864013" lon="120.92354080342807"><ele>5.999999999999999</ele><time>2026-04-20T10:21:28.002Z</time></trkpt><trkpt lat="14.438924117090073" lon="120.92351641977224"><ele>6.0</ele><time>2026-04-20T10:21:31.002Z</time></trkpt><trkpt lat="14.439003342772669" lon="120.92353375249085"><ele>6.0</ele><time>2026-04-20T10:21:35.002Z</time></trkpt><trkpt lat="14.439067973945825" lon="120.92352568317783"><ele>6.0</ele><time>2026-04-20T10:21:39.002Z</time></trkpt><trkpt lat="14.439037118015857" lon="120.92346405501735"><ele>6.0</ele><time>2026-04-20T10:23:17.002Z</time></trkpt><trkpt lat="14.43899802470305" lon="120.9233963580241"><ele>5.999999999999999</ele><time>2026-04-20T10:23:20.002Z</time></trkpt><trkpt lat="14.439028707278244" lon="120.92346158647342"><ele>6.0</ele><time>2026-04-20T10:23:22.002Z</time></trkpt><trkpt lat="14.439084186774753" lon="120.9235186012946"><ele>6.0</ele><time>2026-04-20T10:24:25.001Z</time></trkpt><trkpt lat="14.438989570144832" lon="120.92351845857073"><ele>6.0</ele><time>2026-04-20T10:25:22.002Z</time></trkpt><trkpt lat="14.43890169695338" lon="120.9235132318825"><ele>6.0</ele><time>2026-04-20T10:25:24.002Z</time></trkpt><trkpt lat="14.438844137825198" lon="120.92356346561377"><ele>6.0</ele><time>2026-04-20T10:25:35.002Z</time></trkpt><trkpt lat="14.43890842920245" lon="120.92363737862141"><ele>6.0</ele><time>2026-04-20T10:25:37.002Z</time></trkpt><trkpt lat="14.438936848975755" lon="120.92372553907451"><ele>6.0</ele><time>2026-04-20T10:25:39.002Z</time></trkpt><trkpt lat="14.43899332894854" lon="120.9237973913573"><ele>6.0</ele><time>2026-04-20T10:25:41.002Z</time></trkpt><trkpt lat="14.439074341374026" lon="120.92390101701122"><ele>6.0</ele><time>2026-04-20T10:25:43.002Z</time></trkpt><trkpt lat="14.439123414795766" lon="120.92396378843353"><ele>6.0</ele><time>2026-04-20T10:25:44.002Z</time></trkpt><trkpt lat="14.439185673068847" lon="120.92404365129978"><ele>6.0</ele><time>2026-04-20T10:25:46.002Z</time></trkpt><trkpt lat="14.439244446444926" lon="120.92411926298098"><ele>6.0</ele><time>2026-04-20T10:25:47.002Z</time></trkpt><trkpt lat="14.439319401705607" lon="120.924215692592"><ele>5.8</ele><time>2026-04-20T10:25:49.002Z</time></trkpt><trkpt lat="14.439389507749993" lon="120.92430588371192"><ele>5.6</ele><time>2026-04-20T10:25:51.002Z</time></trkpt><trkpt lat="14.439456686404018" lon="120.92439503069792"><ele>5.4</ele><time>2026-04-20T10:25:53.002Z</time></trkpt><trkpt lat="14.439503880205068" lon="120.92445767332777"><ele>5.2</ele><time>2026-04-20T10:25:54.002Z</time></trkpt><trkpt lat="14.439552365363667" lon="120.92452193009622"><ele>5.0</ele><time>2026-04-20T10:25:55.002Z</time></trkpt><trkpt lat="14.439608438069122" lon="120.92459642616996"><ele>5.4</ele><time>2026-04-20T10:25:56.002Z</time></trkpt><trkpt lat="14.43966906034029" lon="120.92467706051987"><ele>5.8</ele><time>2026-04-20T10:25:57.002Z</time></trkpt><trkpt lat="14.439731798635629" lon="120.9247605094168"><ele>6.199999999999999</ele><time>2026-04-20T10:25:58.002Z</time></trkpt><trkpt lat="14.439797052151919" lon="120.92484730383435"><ele>6.6</ele><time>2026-04-20T10:25:59.002Z</time></trkpt><trkpt lat="14.43985286254743" lon="120.92492170504227"><ele>7.0</ele><time>2026-04-20T10:26:00.002Z</time></trkpt><trkpt lat="14.43990222472461" lon="120.92498986804807"><ele>7.0</ele><time>2026-04-20T10:26:01.002Z</time></trkpt><trkpt lat="14.439945210463685" lon="120.92504922615673"><ele>6.999999999999999</ele><time>2026-04-20T10:26:02.002Z</time></trkpt><trkpt lat="14.440024440318199" lon="120.92513323186725"><ele>6.999999999999999</ele><time>2026-04-20T10:26:04.002Z</time></trkpt><trkpt lat="14.440085673907511" lon="120.92521805237084"><ele>7.0</ele><time>2026-04-20T10:26:06.002Z</time></trkpt><trkpt lat="14.440151974390236" lon="120.92531060693686"><ele>7.0</ele><time>2026-04-20T10:26:08.002Z</time></trkpt><trkpt lat="14.440212400759442" lon="120.9254079454729"><ele>7.199999999999999</ele><time>2026-04-20T10:26:10.002Z</time></trkpt><trkpt lat="14.440263668093756" lon="120.92548062027556"><ele>7.3999999999999995</ele><time>2026-04-20T10:26:12.002Z</time></trkpt><trkpt lat="14.440310774039276" lon="120.92555803758151"><ele>7.6000000000000005</ele><time>2026-04-20T10:26:17.001Z</time></trkpt><trkpt lat="14.440408908339737" lon="120.92551109631894"><ele>7.800000000000001</ele><time>2026-04-20T10:26:18.001Z</time></trkpt><trkpt lat="14.4404861052116" lon="120.92545351674931"><ele>8.0</ele><time>2026-04-20T10:26:19.001Z</time></trkpt><trkpt lat="14.440562243888646" lon="120.92541216846661"><ele>7.999999999999999</ele><time>2026-04-20T10:26:20.001Z</time></trkpt><trkpt lat="14.440638600806944" lon="120.92536540376122"><ele>8.0</ele><time>2026-04-20T10:26:21.001Z</time></trkpt><trkpt lat="14.440717640998551" lon="120.92531462914548"><ele>8.0</ele><time>2026-04-20T10:26:22.001Z</time></trkpt><trkpt lat="14.440804098294162" lon="120.92526071565429"><ele>8.0</ele><time>2026-04-20T10:26:23.001Z</time></trkpt><trkpt lat="14.440880633024436" lon="120.92522060362133"><ele>7.999999999999999</ele><time>2026-04-20T10:26:24.001Z</time></trkpt><trkpt lat="14.44094588303178" lon="120.92518216318275"><ele>8.0</ele><time>2026-04-20T10:26:25.001Z</time></trkpt><trkpt lat="14.441008517806116" lon="120.92515303670203"><ele>8.0</ele><time>2026-04-20T10:26:26.001Z</time></trkpt><trkpt lat="14.441066663486513" lon="120.92512015817371"><ele>8.0</ele><time>2026-04-20T10:26:27.001Z</time></trkpt><trkpt lat="14.441126078557787" lon="120.92509031229366"><ele>8.0</ele><time>2026-04-20T10:26:28.001Z</time></trkpt><trkpt lat="14.441230966526838" lon="120.92503375518092"><ele>8.0</ele><time>2026-04-20T10:26:30.001Z</time></trkpt><trkpt lat="14.44131912785039" lon="120.9249754824538"><ele>8.0</ele><time>2026-04-20T10:26:32.001Z</time></trkpt><trkpt lat="14.441421212420654" lon="120.92492107010958"><ele>8.0</ele><time>2026-04-20T10:26:34.001Z</time></trkpt><trkpt lat="14.441529704639814" lon="120.92486305216357"><ele>8.0</ele><time>2026-04-20T10:26:36.001Z</time></trkpt><trkpt lat="14.441604913165781" lon="120.92481972446481"><ele>8.0</ele><time>2026-04-20T10:26:37.001Z</time></trkpt><trkpt lat="14.441688536279237" lon="120.92478683304236"><ele>8.0</ele><time>2026-04-20T10:26:38.001Z</time></trkpt><trkpt lat="14.441772004992112" lon="120.92474583975495"><ele>8.0</ele><time>2026-04-20T10:26:39.001Z</time></trkpt><trkpt lat="14.441849359677501" lon="120.9246986209213"><ele>8.0</ele><time>2026-04-20T10:26:40.001Z</time></trkpt><trkpt lat="14.441933012481723" lon="120.92464611684473"><ele>8.0</ele><time>2026-04-20T10:26:41.001Z</time></trkpt><trkpt lat="14.44201504285792" lon="120.9245998963886"><ele>8.0</ele><time>2026-04-20T10:26:42.001Z</time></trkpt><trkpt lat="14.442095027016459" lon="120.92455848147996"><ele>8.0</ele><time>2026-04-20T10:26:43.001Z</time></trkpt><trkpt lat="14.44217490846961" lon="120.92451277590389"><ele>8.0</ele><time>2026-04-20T10:26:44.001Z</time></trkpt><trkpt lat="14.442248037194119" lon="120.92447072673365"><ele>7.999999999999999</ele><time>2026-04-20T10:26:45.001Z</time></trkpt><trkpt lat="14.442310553547793" lon="120.92443487612606"><ele>8.0</ele><time>2026-04-20T10:26:46.001Z</time></trkpt><trkpt lat="14.442373181095434" lon="120.9244022798756"><ele>8.0</ele><time>2026-04-20T10:26:47.001Z</time></trkpt><trkpt lat="14.442444739484161" lon="120.92436669568401"><ele>8.0</ele><time>2026-04-20T10:26:48.001Z</time></trkpt><trkpt lat="14.442531277744234" lon="120.92433668446705"><ele>7.999999999999999</ele><time>2026-04-20T10:26:49.001Z</time></trkpt><trkpt lat="14.442604856223362" lon="120.9242990872238"><ele>8.0</ele><time>2026-04-20T10:26:50.001Z</time></trkpt><trkpt lat="14.442685645154016" lon="120.92425548546454"><ele>7.999999999999999</ele><time>2026-04-20T10:26:51.001Z</time></trkpt><trkpt lat="14.442767095291353" lon="120.9242120041011"><ele>8.0</ele><time>2026-04-20T10:26:52.001Z</time></trkpt><trkpt lat="14.442845965854293" lon="120.92416854593986"><ele>8.0</ele><time>2026-04-20T10:26:53.001Z</time></trkpt><trkpt lat="14.442922904295548" lon="120.92412676736575"><ele>8.0</ele><time>2026-04-20T10:26:54.001Z</time></trkpt><trkpt lat="14.442999327811442" lon="120.92408526840154"><ele>7.999999999999999</ele><time>2026-04-20T10:26:55.001Z</time></trkpt><trkpt lat="14.443073748401567" lon="120.92404485705265"><ele>8.0</ele><time>2026-04-20T10:26:56.001Z</time></trkpt><trkpt lat="14.443137010535509" lon="120.9239937366718"><ele>7.999999999999999</ele><time>2026-04-20T10:26:57.001Z</time></trkpt><trkpt lat="14.44319898488513" lon="120.92396233822448"><ele>8.0</ele><time>2026-04-20T10:26:58.001Z</time></trkpt><trkpt lat="14.44330240660691" lon="120.92391012498074"><ele>8.0</ele><time>2026-04-20T10:27:00.001Z</time></trkpt><trkpt lat="14.443370709850564" lon="120.92387950511035"><ele>8.0</ele><time>2026-04-20T10:27:02.001Z</time></trkpt><trkpt lat="14.443428781418252" lon="120.92384944152627"><ele>7.999999999999999</ele><time>2026-04-20T10:27:04.001Z</time></trkpt><trkpt lat="14.443496946435207" lon="120.92381821800224"><ele>8.0</ele><time>2026-04-20T10:27:07.001Z</time></trkpt><trkpt lat="14.443577420384603" lon="120.92380004999873"><ele>8.0</ele><time>2026-04-20T10:27:11.001Z</time></trkpt><trkpt lat="14.443666084826589" lon="120.92376583310381"><ele>8.0</ele><time>2026-04-20T10:27:16.001Z</time></trkpt><trkpt lat="14.4437343937171" lon="120.92374109215628"><ele>8.0</ele><time>2026-04-20T10:27:17.001Z</time></trkpt><trkpt lat="14.443828891210675" lon="120.92371411961041"><ele>8.0</ele><time>2026-04-20T10:27:19.001Z</time></trkpt><trkpt lat="14.443964244142204" lon="120.9236872805777"><ele>8.0</ele><time>2026-04-20T10:27:21.001Z</time></trkpt><trkpt lat="14.444075253574146" lon="120.92367058900365"><ele>7.800000000000001</ele><time>2026-04-20T10:27:23.001Z</time></trkpt><trkpt lat="14.444189587225425" lon="120.92365211270284"><ele>7.6000000000000005</ele><time>2026-04-20T10:27:25.001Z</time></trkpt><trkpt lat="14.444300567198855" lon="120.92363340372017"><ele>7.3999999999999995</ele><time>2026-04-20T10:27:27.001Z</time></trkpt><trkpt lat="14.444397577881864" lon="120.92361572817701"><ele>7.199999999999999</ele><time>2026-04-20T10:27:29.001Z</time></trkpt><trkpt lat="14.444493503774108" lon="120.92359824993521"><ele>7.0</ele><time>2026-04-20T10:27:31.001Z</time></trkpt><trkpt lat="14.44458121151924" lon="120.92358226908273"><ele>6.8</ele><time>2026-04-20T10:27:33.001Z</time></trkpt><trkpt lat="14.444668672520491" lon="120.9235663755822"><ele>6.6</ele><time>2026-04-20T10:27:35.001Z</time></trkpt><trkpt lat="14.444756665230798" lon="120.92355058865928"><ele>6.3999999999999995</ele><time>2026-04-20T10:27:37.001Z</time></trkpt><trkpt lat="14.444851469023472" lon="120.92353357974476"><ele>6.199999999999999</ele><time>2026-04-20T10:27:39.001Z</time></trkpt><trkpt lat="14.444942509673073" lon="120.92351724597087"><ele>6.0</ele><time>2026-04-20T10:27:41.001Z</time></trkpt><trkpt lat="14.445031606443793" lon="120.92350126097159"><ele>6.0</ele><time>2026-04-20T10:27:43.001Z</time></trkpt><trkpt lat="14.445168604234885" lon="120.92347762914571"><ele>6.0</ele><time>2026-04-20T10:27:45.001Z</time></trkpt><trkpt lat="14.445251064960807" lon="120.92346120689187"><ele>6.0</ele><time>2026-04-20T10:27:46.001Z</time></trkpt><trkpt lat="14.44533497448875" lon="120.92344446738274"><ele>6.0</ele><time>2026-04-20T10:27:47.001Z</time></trkpt><trkpt lat="14.445437170061943" lon="120.92342640451156"><ele>6.0</ele><time>2026-04-20T10:27:48.002Z</time></trkpt><trkpt lat="14.445540967500111" lon="120.923407534532"><ele>6.0</ele><time>2026-04-20T10:27:49.002Z</time></trkpt><trkpt lat="14.445652683821262" lon="120.92338722492936"><ele>6.0</ele><time>2026-04-20T10:27:50.002Z</time></trkpt><trkpt lat="14.445743805111572" lon="120.92337065942883"><ele>6.0</ele><time>2026-04-20T10:27:51.002Z</time></trkpt><trkpt lat="14.445811656607944" lon="120.92335832430466"><ele>6.0</ele><time>2026-04-20T10:27:52.002Z</time></trkpt><trkpt lat="14.445933169455744" lon="120.92334800498237"><ele>6.0</ele><time>2026-04-20T10:27:54.002Z</time></trkpt><trkpt lat="14.44600918767267" lon="120.92334004805991"><ele>5.999999999999999</ele><time>2026-04-20T10:27:55.002Z</time></trkpt><trkpt lat="14.446080100191313" lon="120.92334435846989"><ele>6.0</ele><time>2026-04-20T10:27:56.002Z</time></trkpt><trkpt lat="14.44615084302472" lon="120.92335375016411"><ele>6.0</ele><time>2026-04-20T10:27:57.002Z</time></trkpt><trkpt lat="14.446226295668973" lon="120.92335335188515"><ele>6.0</ele><time>2026-04-20T10:27:58.002Z</time></trkpt><trkpt lat="14.446295657914721" lon="120.92338614436703"><ele>6.0</ele><time>2026-04-20T10:27:59.002Z</time></trkpt><trkpt lat="14.446363259902354" lon="120.92340069628021"><ele>5.999999999999999</ele><time>2026-04-20T10:28:00.002Z</time></trkpt><trkpt lat="14.446429279710063" lon="120.92341448029295"><ele>6.0</ele><time>2026-04-20T10:28:01.002Z</time></trkpt><trkpt lat="14.446548156443635" lon="120.9234393000743"><ele>6.333333333333333</ele><time>2026-04-20T10:28:03.002Z</time></trkpt><trkpt lat="14.446617359457916" lon="120.92344860608308"><ele>6.666666666666666</ele><time>2026-04-20T10:28:04.002Z</time></trkpt><trkpt lat="14.446738579033335" lon="120.92346700783887"><ele>7.0</ele><time>2026-04-20T10:28:06.002Z</time></trkpt><trkpt lat="14.446847838659385" lon="120.92346324492328"><ele>7.333333333333333</ele><time>2026-04-20T10:28:08.002Z</time></trkpt><trkpt lat="14.446919289261013" lon="120.92348745437306"><ele>7.666666666666666</ele><time>2026-04-20T10:28:10.001Z</time></trkpt><trkpt lat="14.446982843958322" lon="120.92346904414892"><ele>8.0</ele><time>2026-04-20T10:28:14.001Z</time></trkpt><trkpt lat="14.447065098999296" lon="120.92348634627228"><ele>8.200000000000001</ele><time>2026-04-20T10:28:16.001Z</time></trkpt><trkpt lat="14.447183439111674" lon="120.92349118222744"><ele>8.4</ele><time>2026-04-20T10:28:18.001Z</time></trkpt><trkpt lat="14.447247329571468" lon="120.9234943231795"><ele>8.600000000000001</ele><time>2026-04-20T10:28:19.001Z</time></trkpt><trkpt lat="14.447346245864813" lon="120.92349477892115"><ele>8.8</ele><time>2026-04-20T10:28:21.001Z</time></trkpt><trkpt lat="14.447451985500441" lon="120.92348984929956"><ele>9.0</ele><time>2026-04-20T10:28:23.001Z</time></trkpt><trkpt lat="14.447519584145944" lon="120.9234818198262"><ele>9.0</ele><time>2026-04-20T10:28:24.001Z</time></trkpt><trkpt lat="14.44759242080848" lon="120.92348076995596"><ele>9.0</ele><time>2026-04-20T10:28:25.001Z</time></trkpt><trkpt lat="14.447667942374864" lon="120.92347976983514"><ele>9.0</ele><time>2026-04-20T10:28:26.001Z</time></trkpt><trkpt lat="14.447753873508056" lon="120.92347369609493"><ele>9.0</ele><time>2026-04-20T10:28:27.001Z</time></trkpt><trkpt lat="14.447840616591005" lon="120.92346854247717"><ele>9.0</ele><time>2026-04-20T10:28:28.001Z</time></trkpt><trkpt lat="14.447922031881381" lon="120.92346395877647"><ele>9.0</ele><time>2026-04-20T10:28:29.001Z</time></trkpt><trkpt lat="14.447993828896811" lon="120.92346162999165"><ele>8.6</ele><time>2026-04-20T10:28:30.001Z</time></trkpt><trkpt lat="14.448079570541207" lon="120.92345767613223"><ele>8.2</ele><time>2026-04-20T10:28:31.001Z</time></trkpt><trkpt lat="14.448161885461214" lon="120.92345555560556"><ele>7.799999999999999</ele><time>2026-04-20T10:28:32.001Z</time></trkpt><trkpt lat="14.448248798991143" lon="120.92345477580092"><ele>7.3999999999999995</ele><time>2026-04-20T10:28:33.001Z</time></trkpt><trkpt lat="14.448338560604318" lon="120.92345128380829"><ele>7.0</ele><time>2026-04-20T10:28:34.001Z</time></trkpt><trkpt lat="14.448469856413096" lon="120.92343874049506"><ele>7.000000000000001</ele><time>2026-04-20T10:28:36.001Z</time></trkpt><trkpt lat="14.448553406064459" lon="120.92342890730345"><ele>7.0</ele><time>2026-04-20T10:28:37.001Z</time></trkpt><trkpt lat="14.448626107047462" lon="120.92342560430873"><ele>7.0</ele><time>2026-04-20T10:28:38.001Z</time></trkpt><trkpt lat="14.448735765510403" lon="120.92341832732004"><ele>7.0</ele><time>2026-04-20T10:28:40.001Z</time></trkpt><trkpt lat="14.448799296194935" lon="120.92340898176403"><ele>7.000000000000001</ele><time>2026-04-20T10:28:45.001Z</time></trkpt><trkpt lat="14.448862155409753" lon="120.9233978708844"><ele>7.0</ele><time>2026-04-20T10:28:48.001Z</time></trkpt><trkpt lat="14.448950868681399" lon="120.92340561225923"><ele>7.000000000000001</ele><time>2026-04-20T10:28:50.001Z</time></trkpt><trkpt lat="14.44903497910796" lon="120.92340012791857"><ele>7.0</ele><time>2026-04-20T10:28:52.001Z</time></trkpt><trkpt lat="14.449137263635384" lon="120.92338774790112"><ele>7.0</ele><time>2026-04-20T10:28:54.001Z</time></trkpt><trkpt lat="14.449240987591164" lon="120.92337298612937"><ele>7.0</ele><time>2026-04-20T10:28:56.001Z</time></trkpt><trkpt lat="14.449322687525079" lon="120.92333991951827"><ele>7.000000000000001</ele><time>2026-04-20T10:28:58.001Z</time></trkpt><trkpt lat="14.449383667742822" lon="120.92332174555168"><ele>7.0</ele><time>2026-04-20T10:28:59.001Z</time></trkpt><trkpt lat="14.449451714361958" lon="120.92329837404252"><ele>7.000000000000001</ele><time>2026-04-20T10:29:01.001Z</time></trkpt><trkpt lat="14.449531237667099" lon="120.92326784219156"><ele>7.0</ele><time>2026-04-20T10:29:03.001Z</time></trkpt><trkpt lat="14.449620435331425" lon="120.92323135905153"><ele>7.0</ele><time>2026-04-20T10:29:06.001Z</time></trkpt><trkpt lat="14.449697051638546" lon="120.92320167704223"><ele>7.0</ele><time>2026-04-20T10:29:08.001Z</time></trkpt><trkpt lat="14.449773856823326" lon="120.92318410279131"><ele>7.000000000000001</ele><time>2026-04-20T10:29:10.001Z</time></trkpt><trkpt lat="14.449839727986214" lon="120.92321837465177"><ele>7.0</ele><time>2026-04-20T10:29:14.001Z</time></trkpt><trkpt lat="14.449887885617697" lon="120.92327675779273"><ele>6.833333333333334</ele><time>2026-04-20T10:29:17.001Z</time></trkpt><trkpt lat="14.449910739660512" lon="120.92334104887865"><ele>6.666666666666667</ele><time>2026-04-20T10:29:30.001Z</time></trkpt><trkpt lat="14.449913520603506" lon="120.92341512255948"><ele>6.5</ele><time>2026-04-20T10:29:34.001Z</time></trkpt><trkpt lat="14.449934204052965" lon="120.92349413363783"><ele>6.333333333333334</ele><time>2026-04-20T10:29:37.001Z</time></trkpt><trkpt lat="14.449945098954508" lon="120.92356846219535"><ele>6.166666666666667</ele><time>2026-04-20T10:29:43.001Z</time></trkpt><trkpt lat="14.449971218859128" lon="120.92366597412507"><ele>6.0</ele><time>2026-04-20T10:29:47.001Z</time></trkpt><trkpt lat="14.44998250859102" lon="120.92375293310063"><ele>6.0</ele><time>2026-04-20T10:29:49.001Z</time></trkpt><trkpt lat="14.450005778406442" lon="120.92385776511618"><ele>6.0</ele><time>2026-04-20T10:29:51.001Z</time></trkpt><trkpt lat="14.45002820762365" lon="120.92397226372736"><ele>6.0</ele><time>2026-04-20T10:29:53.001Z</time></trkpt><trkpt lat="14.450044805727135" lon="120.92403661204096"><ele>6.0</ele><time>2026-04-20T10:29:54.001Z</time></trkpt><trkpt lat="14.450060419537232" lon="120.92410530639295"><ele>6.0</ele><time>2026-04-20T10:29:55.001Z</time></trkpt><trkpt lat="14.450077070255203" lon="120.92417756250205"><ele>6.0</ele><time>2026-04-20T10:29:56.001Z</time></trkpt><trkpt lat="14.450095354141725" lon="120.92425148521349"><ele>6.0</ele><time>2026-04-20T10:29:57.001Z</time></trkpt><trkpt lat="14.450113104164876" lon="120.92432991194063"><ele>6.0</ele><time>2026-04-20T10:29:58.001Z</time></trkpt><trkpt lat="14.450128301344158" lon="120.92440321320423"><ele>6.0</ele><time>2026-04-20T10:29:59.001Z</time></trkpt><trkpt lat="14.450141755242475" lon="120.92447694700876"><ele>6.0</ele><time>2026-04-20T10:30:00.001Z</time></trkpt><trkpt lat="14.450157744466201" lon="120.92455570123973"><ele>6.0</ele><time>2026-04-20T10:30:01.001Z</time></trkpt><trkpt lat="14.450180953942395" lon="120.92464365313586"><ele>6.0</ele><time>2026-04-20T10:30:02.001Z</time></trkpt><trkpt lat="14.450198222915294" lon="120.92473531422708"><ele>6.0</ele><time>2026-04-20T10:30:03.001Z</time></trkpt><trkpt lat="14.450217517649941" lon="120.92481722383232"><ele>6.0</ele><time>2026-04-20T10:30:04.001Z</time></trkpt><trkpt lat="14.450236485397136" lon="120.92490293668808"><ele>6.0</ele><time>2026-04-20T10:30:05.001Z</time></trkpt><trkpt lat="14.450255373764218" lon="120.92498373934973"><ele>6.0</ele><time>2026-04-20T10:30:06.001Z</time></trkpt><trkpt lat="14.450275339651428" lon="120.92505627160502"><ele>6.0</ele><time>2026-04-20T10:30:07.001Z</time></trkpt><trkpt lat="14.450306302131025" lon="120.92518446701585"><ele>6.0</ele><time>2026-04-20T10:30:09.001Z</time></trkpt><trkpt lat="14.450315537834669" lon="120.92525539669364"><ele>6.166666666666667</ele><time>2026-04-20T10:30:10.001Z</time></trkpt><trkpt lat="14.450332917801838" lon="120.92534190362389"><ele>6.333333333333334</ele><time>2026-04-20T10:30:11.001Z</time></trkpt><trkpt lat="14.450349610175428" lon="120.92542426672586"><ele>6.5</ele><time>2026-04-20T10:30:12.001Z</time></trkpt><trkpt lat="14.450366657984459" lon="120.9255181273264"><ele>6.666666666666667</ele><time>2026-04-20T10:30:13.001Z</time></trkpt><trkpt lat="14.450382820989091" lon="120.92560653095738"><ele>6.833333333333334</ele><time>2026-04-20T10:30:14.001Z</time></trkpt><trkpt lat="14.450396050044752" lon="120.92568193103034"><ele>7.0</ele><time>2026-04-20T10:30:15.001Z</time></trkpt><trkpt lat="14.45041132145818" lon="120.92575929198223"><ele>7.000000000000001</ele><time>2026-04-20T10:30:16.001Z</time></trkpt><trkpt lat="14.450426112345115" lon="120.92583734690623"><ele>7.0</ele><time>2026-04-20T10:30:17.001Z</time></trkpt><trkpt lat="14.450440215836888" lon="120.92591923871092"><ele>7.0</ele><time>2026-04-20T10:30:18.001Z</time></trkpt><trkpt lat="14.45044823174588" lon="120.92599298806813"><ele>7.0</ele><time>2026-04-20T10:30:19.001Z</time></trkpt><trkpt lat="14.450462619661238" lon="120.92609986414757"><ele>7.000000000000001</ele><time>2026-04-20T10:30:21.001Z</time></trkpt><trkpt lat="14.450474108726933" lon="120.92619441076309"><ele>7.0</ele><time>2026-04-20T10:30:23.001Z</time></trkpt><trkpt lat="14.450483033248421" lon="120.92627287761931"><ele>7.199999999999999</ele><time>2026-04-20T10:30:25.001Z</time></trkpt><trkpt lat="14.450504214706191" lon="120.92637706451443"><ele>7.3999999999999995</ele><time>2026-04-20T10:30:27.001Z</time></trkpt><trkpt lat="14.450521077004966" lon="120.92645162520135"><ele>7.6000000000000005</ele><time>2026-04-20T10:30:28.001Z</time></trkpt><trkpt lat="14.450543878931628" lon="120.92652943358675"><ele>7.800000000000001</ele><time>2026-04-20T10:30:29.001Z</time></trkpt><trkpt lat="14.450572875615322" lon="120.92665152389381"><ele>8.0</ele><time>2026-04-20T10:30:31.001Z</time></trkpt><trkpt lat="14.450594761677882" lon="120.92674626036073"><ele>7.666666666666666</ele><time>2026-04-20T10:30:32.001Z</time></trkpt><trkpt lat="14.450609469569871" lon="120.92682043329687"><ele>7.333333333333333</ele><time>2026-04-20T10:30:33.001Z</time></trkpt><trkpt lat="14.450629101053794" lon="120.92689489318732"><ele>7.0</ele><time>2026-04-20T10:30:34.001Z</time></trkpt><trkpt lat="14.45064400991387" lon="120.92698366785856"><ele>6.666666666666666</ele><time>2026-04-20T10:30:35.001Z</time></trkpt><trkpt lat="14.450653317206955" lon="120.92709242962361"><ele>6.333333333333333</ele><time>2026-04-20T10:30:36.001Z</time></trkpt><trkpt lat="14.450667481011399" lon="120.92719876297863"><ele>6.0</ele><time>2026-04-20T10:30:37.001Z</time></trkpt><trkpt lat="14.450668934755663" lon="120.9272864320253"><ele>5.999999999999999</ele><time>2026-04-20T10:30:38.001Z</time></trkpt><trkpt lat="14.45065780708813" lon="120.92736903033673"><ele>6.0</ele><time>2026-04-20T10:30:39.001Z</time></trkpt><trkpt lat="14.450641948841298" lon="120.92743899358686"><ele>6.0</ele><time>2026-04-20T10:30:40.001Z</time></trkpt><trkpt lat="14.450625471016247" lon="120.92750903548334"><ele>6.0</ele><time>2026-04-20T10:30:41.001Z</time></trkpt><trkpt lat="14.450610327908171" lon="120.92757941339578"><ele>6.0</ele><time>2026-04-20T10:30:42.001Z</time></trkpt><trkpt lat="14.45059364881347" lon="120.92765488422275"><ele>5.999999999999999</ele><time>2026-04-20T10:30:43.001Z</time></trkpt><trkpt lat="14.450580370880266" lon="120.92771845551428"><ele>6.0</ele><time>2026-04-20T10:30:44.001Z</time></trkpt><trkpt lat="14.450557522479075" lon="120.92782656549834"><ele>6.285714285714285</ele><time>2026-04-20T10:30:46.001Z</time></trkpt><trkpt lat="14.450540442876594" lon="120.92791206105838"><ele>6.571428571428571</ele><time>2026-04-20T10:30:48.001Z</time></trkpt><trkpt lat="14.450522747707025" lon="120.9279865283992"><ele>6.857142857142857</ele><time>2026-04-20T10:30:50.001Z</time></trkpt><trkpt lat="14.450515425364838" lon="120.92805222187164"><ele>7.142857142857142</ele><time>2026-04-20T10:30:53.001Z</time></trkpt><trkpt lat="14.450520855246417" lon="120.92812038014509"><ele>7.428571428571428</ele><time>2026-04-20T10:30:55.001Z</time></trkpt><trkpt lat="14.450547631774267" lon="120.9281883252755"><ele>7.7142857142857135</ele><time>2026-04-20T10:30:56.001Z</time></trkpt><trkpt lat="14.450574359382692" lon="120.92825354709151"><ele>8.0</ele><time>2026-04-20T10:30:57.001Z</time></trkpt><trkpt lat="14.45061567314364" lon="120.9283102607746"><ele>8.0</ele><time>2026-04-20T10:30:58.001Z</time></trkpt><trkpt lat="14.450655466431979" lon="120.92836633511219"><ele>8.0</ele><time>2026-04-20T10:30:59.001Z</time></trkpt><trkpt lat="14.450749248764156" lon="120.92841173968513"><ele>8.0</ele><time>2026-04-20T10:31:01.001Z</time></trkpt><trkpt lat="14.450840674215707" lon="120.92842092154052"><ele>8.0</ele><time>2026-04-20T10:31:05.001Z</time></trkpt><trkpt lat="14.4509471830168" lon="120.92840635155464"><ele>8.0</ele><time>2026-04-20T10:31:07.001Z</time></trkpt><trkpt lat="14.451036799465314" lon="120.9283977116887"><ele>7.999999999999999</ele><time>2026-04-20T10:31:09.001Z</time></trkpt><trkpt lat="14.45113701027874" lon="120.92838096940066"><ele>8.0</ele><time>2026-04-20T10:31:11.001Z</time></trkpt><trkpt lat="14.451231197276753" lon="120.92837174041003"><ele>8.0</ele><time>2026-04-20T10:31:13.001Z</time></trkpt><trkpt lat="14.451316158227877" lon="120.92837377935884"><ele>8.0</ele><time>2026-04-20T10:31:15.001Z</time></trkpt><trkpt lat="14.451380735919347" lon="120.92836228691368"><ele>7.999999999999999</ele><time>2026-04-20T10:31:16.001Z</time></trkpt><trkpt lat="14.451445737117515" lon="120.9283559758014"><ele>8.0</ele><time>2026-04-20T10:31:17.001Z</time></trkpt><trkpt lat="14.45151933634953" lon="120.92834837781062"><ele>7.800000000000001</ele><time>2026-04-20T10:31:18.001Z</time></trkpt><trkpt lat="14.451608881536494" lon="120.92833240389709"><ele>7.6000000000000005</ele><time>2026-04-20T10:31:19.001Z</time></trkpt><trkpt lat="14.451712557719855" lon="120.92832202931305"><ele>7.3999999999999995</ele><time>2026-04-20T10:31:20.001Z</time></trkpt><trkpt lat="14.4518245915208" lon="120.92831494330596"><ele>7.199999999999999</ele><time>2026-04-20T10:31:21.001Z</time></trkpt><trkpt lat="14.451935411345533" lon="120.92831667032695"><ele>7.0</ele><time>2026-04-20T10:31:22.001Z</time></trkpt><trkpt lat="14.452037071405048" lon="120.92831757808604"><ele>6.666666666666667</ele><time>2026-04-20T10:31:23.001Z</time></trkpt><trkpt lat="14.452129914316297" lon="120.9283158086208"><ele>6.333333333333334</ele><time>2026-04-20T10:31:24.001Z</time></trkpt><trkpt lat="14.452202232278497" lon="120.92832193376712"><ele>6.0</ele><time>2026-04-20T10:31:25.001Z</time></trkpt><trkpt lat="14.452304023538998" lon="120.92833422508623"><ele>5.666666666666667</ele><time>2026-04-20T10:31:27.001Z</time></trkpt><trkpt lat="14.45236634618225" lon="120.92835426957338"><ele>5.333333333333334</ele><time>2026-04-20T10:31:28.001Z</time></trkpt><trkpt lat="14.452439046682088" lon="120.92837111688667"><ele>5.0</ele><time>2026-04-20T10:31:29.001Z</time></trkpt><trkpt lat="14.452516877047188" lon="120.92840633331708"><ele>5.0</ele><time>2026-04-20T10:31:30.001Z</time></trkpt><trkpt lat="14.45259212133518" lon="120.92844819386428"><ele>5.0</ele><time>2026-04-20T10:31:31.001Z</time></trkpt><trkpt lat="14.452684381888199" lon="120.92848982679202"><ele>5.0</ele><time>2026-04-20T10:31:32.001Z</time></trkpt><trkpt lat="14.452757027641924" lon="120.92853539896956"><ele>5.0</ele><time>2026-04-20T10:31:33.001Z</time></trkpt><trkpt lat="14.452823298364718" lon="120.92859012860393"><ele>5.0</ele><time>2026-04-20T10:31:34.001Z</time></trkpt><trkpt lat="14.45288579052006" lon="120.92864440596813"><ele>5.0</ele><time>2026-04-20T10:31:35.001Z</time></trkpt><trkpt lat="14.452955718645132" lon="120.92869711785357"><ele>5.0</ele><time>2026-04-20T10:31:36.001Z</time></trkpt><trkpt lat="14.453024196217804" lon="120.9287512338867"><ele>5.0</ele><time>2026-04-20T10:31:37.001Z</time></trkpt><trkpt lat="14.453089105799133" lon="120.92880232565028"><ele>5.0</ele><time>2026-04-20T10:31:38.001Z</time></trkpt><trkpt lat="14.453148723634493" lon="120.92885397043459"><ele>5.0</ele><time>2026-04-20T10:31:39.001Z</time></trkpt><trkpt lat="14.453196237372472" lon="120.9289059816685"><ele>5.0</ele><time>2026-04-20T10:31:40.001Z</time></trkpt><trkpt lat="14.453251145480413" lon="120.92895905989016"><ele>5.0</ele><time>2026-04-20T10:31:41.001Z</time></trkpt><trkpt lat="14.453311100650627" lon="120.92901480694582"><ele>5.0</ele><time>2026-04-20T10:31:42.001Z</time></trkpt><trkpt lat="14.45336935811239" lon="120.92906611446142"><ele>5.0</ele><time>2026-04-20T10:31:43.001Z</time></trkpt><trkpt lat="14.453429886456512" lon="120.92912231183531"><ele>5.0</ele><time>2026-04-20T10:31:44.001Z</time></trkpt><trkpt lat="14.453495238410579" lon="120.92918130794591"><ele>5.0</ele><time>2026-04-20T10:31:45.001Z</time></trkpt><trkpt lat="14.453555775267178" lon="120.92923727899421"><ele>5.0</ele><time>2026-04-20T10:31:46.001Z</time></trkpt><trkpt lat="14.453606373078715" lon="120.92928515328948"><ele>5.0</ele><time>2026-04-20T10:31:47.001Z</time></trkpt><trkpt lat="14.453657928247825" lon="120.92933290581331"><ele>5.0</ele><time>2026-04-20T10:31:48.001Z</time></trkpt><trkpt lat="14.453706503885691" lon="120.92938113644438"><ele>5.0</ele><time>2026-04-20T10:31:49.001Z</time></trkpt><trkpt lat="14.453758321338142" lon="120.92943065525492"><ele>5.0</ele><time>2026-04-20T10:31:50.001Z</time></trkpt><trkpt lat="14.453808274959236" lon="120.92947424160144"><ele>5.0</ele><time>2026-04-20T10:31:51.001Z</time></trkpt><trkpt lat="14.453893338473192" lon="120.9295490294136"><ele>5.0</ele><time>2026-04-20T10:31:53.001Z</time></trkpt><trkpt lat="14.45397661527749" lon="120.92961636310109"><ele>5.0</ele><time>2026-04-20T10:31:55.001Z</time></trkpt><trkpt lat="14.454047654497826" lon="120.92966752923829"><ele>5.0</ele><time>2026-04-20T10:31:57.001Z</time></trkpt><trkpt lat="14.454101528139491" lon="120.92970333070859"><ele>5.0</ele><time>2026-04-20T10:31:58.001Z</time></trkpt><trkpt lat="14.454214377505165" lon="120.9297723505947"><ele>5.0</ele><time>2026-04-20T10:32:00.001Z</time></trkpt><trkpt lat="14.454279070412401" lon="120.92980405420754"><ele>5.0</ele><time>2026-04-20T10:32:01.001Z</time></trkpt><trkpt lat="14.454351762280833" lon="120.9298355997408"><ele>5.0</ele><time>2026-04-20T10:32:02.001Z</time></trkpt><trkpt lat="14.454426701090243" lon="120.92986433932745"><ele>5.0</ele><time>2026-04-20T10:32:03.001Z</time></trkpt><trkpt lat="14.454497963386835" lon="120.92988994178484"><ele>5.0</ele><time>2026-04-20T10:32:04.001Z</time></trkpt><trkpt lat="14.454563733164322" lon="120.92991004833758"><ele>5.0</ele><time>2026-04-20T10:32:05.001Z</time></trkpt><trkpt lat="14.454636470826955" lon="120.92992937015464"><ele>5.0</ele><time>2026-04-20T10:32:06.001Z</time></trkpt><trkpt lat="14.454709793244445" lon="120.92994542179297"><ele>5.0</ele><time>2026-04-20T10:32:07.001Z</time></trkpt><trkpt lat="14.454783942046266" lon="120.92996329878581"><ele>5.0</ele><time>2026-04-20T10:32:08.001Z</time></trkpt><trkpt lat="14.454856359522303" lon="120.92997612874345"><ele>5.0</ele><time>2026-04-20T10:32:09.001Z</time></trkpt><trkpt lat="14.454920005363576" lon="120.9299867655395"><ele>5.0</ele><time>2026-04-20T10:32:10.001Z</time></trkpt><trkpt lat="14.454992822794258" lon="120.93000035028847"><ele>5.166666666666667</ele><time>2026-04-20T10:32:11.001Z</time></trkpt><trkpt lat="14.455126798599533" lon="120.93002034600184"><ele>5.333333333333334</ele><time>2026-04-20T10:32:13.001Z</time></trkpt><trkpt lat="14.455205109184613" lon="120.93003383127103"><ele>5.5</ele><time>2026-04-20T10:32:14.001Z</time></trkpt><trkpt lat="14.455272192055029" lon="120.93004471292016"><ele>5.666666666666667</ele><time>2026-04-20T10:32:15.001Z</time></trkpt><trkpt lat="14.455343125722287" lon="120.93005952430829"><ele>5.833333333333333</ele><time>2026-04-20T10:32:16.001Z</time></trkpt><trkpt lat="14.455420921460629" lon="120.93007584161283"><ele>6.0</ele><time>2026-04-20T10:32:17.001Z</time></trkpt><trkpt lat="14.455497646396447" lon="120.93009207240226"><ele>6.333333333333333</ele><time>2026-04-20T10:32:18.001Z</time></trkpt><trkpt lat="14.455567005779002" lon="120.93010222570888"><ele>6.666666666666666</ele><time>2026-04-20T10:32:19.001Z</time></trkpt><trkpt lat="14.45564699569813" lon="120.93011577315961"><ele>7.0</ele><time>2026-04-20T10:32:20.001Z</time></trkpt><trkpt lat="14.455724335611457" lon="120.93013117023717"><ele>7.333333333333333</ele><time>2026-04-20T10:32:21.001Z</time></trkpt><trkpt lat="14.4558090933004" lon="120.93014720513553"><ele>7.666666666666666</ele><time>2026-04-20T10:32:22.001Z</time></trkpt><trkpt lat="14.45588629227932" lon="120.93015968746545"><ele>8.0</ele><time>2026-04-20T10:32:23.001Z</time></trkpt><trkpt lat="14.455969966821714" lon="120.93017553894518"><ele>7.999999999999999</ele><time>2026-04-20T10:32:24.001Z</time></trkpt><trkpt lat="14.456062114123034" lon="120.93019551806182"><ele>8.0</ele><time>2026-04-20T10:32:25.001Z</time></trkpt><trkpt lat="14.456128820053152" lon="120.93020855043656"><ele>8.0</ele><time>2026-04-20T10:32:26.001Z</time></trkpt><trkpt lat="14.456241684853456" lon="120.93023563095291"><ele>8.0</ele><time>2026-04-20T10:32:28.001Z</time></trkpt><trkpt lat="14.456305022764132" lon="120.93025202080756"><ele>7.999999999999999</ele><time>2026-04-20T10:32:29.001Z</time></trkpt><trkpt lat="14.456376497019091" lon="120.93026578754873"><ele>8.0</ele><time>2026-04-20T10:32:30.001Z</time></trkpt><trkpt lat="14.456452982247736" lon="120.93028746657356"><ele>8.0</ele><time>2026-04-20T10:32:31.001Z</time></trkpt><trkpt lat="14.456542424957844" lon="120.93030643260379"><ele>8.0</ele><time>2026-04-20T10:32:32.001Z</time></trkpt><trkpt lat="14.456655758155785" lon="120.93032661381658"><ele>8.0</ele><time>2026-04-20T10:32:33.001Z</time></trkpt><trkpt lat="14.456745893825007" lon="120.93034592273466"><ele>8.0</ele><time>2026-04-20T10:32:34.001Z</time></trkpt><trkpt lat="14.456822444933286" lon="120.93036337447835"><ele>8.0</ele><time>2026-04-20T10:32:35.001Z</time></trkpt><trkpt lat="14.456893855165967" lon="120.9303859254613"><ele>8.0</ele><time>2026-04-20T10:32:36.001Z</time></trkpt><trkpt lat="14.456951317719172" lon="120.93042422693658"><ele>8.0</ele><time>2026-04-20T10:32:37.001Z</time></trkpt><trkpt lat="14.45701560653555" lon="120.93047978710146"><ele>8.0</ele><time>2026-04-20T10:32:38Z</time></trkpt><trkpt lat="14.457068733899943" lon="120.93055410985431"><ele>8.0</ele><time>2026-04-20T10:32:39Z</time></trkpt><trkpt lat="14.457129863356228" lon="120.93064316233857"><ele>8.0</ele><time>2026-04-20T10:32:40Z</time></trkpt><trkpt lat="14.457187293221905" lon="120.93074964249186"><ele>7.800000000000001</ele><time>2026-04-20T10:32:41Z</time></trkpt><trkpt lat="14.457224936259758" lon="120.93083603496768"><ele>7.6000000000000005</ele><time>2026-04-20T10:32:42Z</time></trkpt><trkpt lat="14.457252250513145" lon="120.93090974218497"><ele>7.3999999999999995</ele><time>2026-04-20T10:32:43Z</time></trkpt><trkpt lat="14.457290173901974" lon="120.93100761334404"><ele>7.199999999999999</ele><time>2026-04-20T10:32:44Z</time></trkpt><trkpt lat="14.457321371832476" lon="120.93110559501523"><ele>7.0</ele><time>2026-04-20T10:32:45Z</time></trkpt><trkpt lat="14.457351368805973" lon="120.93118820809818"><ele>7.000000000000001</ele><time>2026-04-20T10:32:46Z</time></trkpt><trkpt lat="14.457384587785032" lon="120.93127449957937"><ele>7.0</ele><time>2026-04-20T10:32:47Z</time></trkpt><trkpt lat="14.457421104301508" lon="120.93137189587952"><ele>7.0</ele><time>2026-04-20T10:32:48Z</time></trkpt><trkpt lat="14.457449628037248" lon="120.9314474513317"><ele>7.0</ele><time>2026-04-20T10:32:49Z</time></trkpt><trkpt lat="14.457476284862434" lon="120.93153544498982"><ele>7.000000000000001</ele><time>2026-04-20T10:32:50Z</time></trkpt><trkpt lat="14.457497941779195" lon="120.93160917462811"><ele>7.0</ele><time>2026-04-20T10:32:51Z</time></trkpt><trkpt lat="14.45751861192256" lon="120.93168068308283"><ele>6.8</ele><time>2026-04-20T10:32:52Z</time></trkpt><trkpt lat="14.457563678565714" lon="120.93180578598141"><ele>6.6</ele><time>2026-04-20T10:32:54Z</time></trkpt><trkpt lat="14.457610477757022" lon="120.93192194003687"><ele>6.3999999999999995</ele><time>2026-04-20T10:32:56Z</time></trkpt><trkpt lat="14.45765045331555" lon="120.93201386731054"><ele>6.199999999999999</ele><time>2026-04-20T10:32:58Z</time></trkpt><trkpt lat="14.457674676188343" lon="120.93208007861912"><ele>6.0</ele><time>2026-04-20T10:33:00Z</time></trkpt><trkpt lat="14.457715241428453" lon="120.93218643510963"><ele>6.0</ele><time>2026-04-20T10:33:03Z</time></trkpt><trkpt lat="14.457750621326564" lon="120.93230255183258"><ele>6.0</ele><time>2026-04-20T10:33:05Z</time></trkpt><trkpt lat="14.457783037029866" lon="120.93241914110338"><ele>6.0</ele><time>2026-04-20T10:33:07Z</time></trkpt><trkpt lat="14.457805427587523" lon="120.93253259100987"><ele>6.0</ele><time>2026-04-20T10:33:09Z</time></trkpt><trkpt lat="14.45783101048374" lon="120.93263465295787"><ele>6.0</ele><time>2026-04-20T10:33:11Z</time></trkpt><trkpt lat="14.457841660587608" lon="120.93270962250206"><ele>6.0</ele><time>2026-04-20T10:33:13Z</time></trkpt><trkpt lat="14.457859269956893" lon="120.9328148646617"><ele>6.0</ele><time>2026-04-20T10:33:15Z</time></trkpt><trkpt lat="14.457871485820359" lon="120.93294557250216"><ele>6.0</ele><time>2026-04-20T10:33:17Z</time></trkpt><trkpt lat="14.457882195740261" lon="120.93301989065283"><ele>6.0</ele><time>2026-04-20T10:33:18Z</time></trkpt><trkpt lat="14.457889353833062" lon="120.93308769588442"><ele>6.0</ele><time>2026-04-20T10:33:19Z</time></trkpt><trkpt lat="14.457899410110151" lon="120.93316455141353"><ele>5.999999999999999</ele><time>2026-04-20T10:33:20Z</time></trkpt><trkpt lat="14.457904332297103" lon="120.93323163921703"><ele>6.0</ele><time>2026-04-20T10:33:21Z</time></trkpt><trkpt lat="14.457912550917824" lon="120.93331068199417"><ele>6.0</ele><time>2026-04-20T10:33:22Z</time></trkpt><trkpt lat="14.457920335555412" lon="120.9333843496634"><ele>6.0</ele><time>2026-04-20T10:33:23Z</time></trkpt><trkpt lat="14.457927888863438" lon="120.93345457550048"><ele>6.0</ele><time>2026-04-20T10:33:24Z</time></trkpt><trkpt lat="14.457941245439711" lon="120.93353177921249"><ele>5.999999999999999</ele><time>2026-04-20T10:33:25Z</time></trkpt><trkpt lat="14.457959968533338" lon="120.93362115492843"><ele>6.0</ele><time>2026-04-20T10:33:26Z</time></trkpt><trkpt lat="14.457980989966307" lon="120.9337399829782"><ele>6.0</ele><time>2026-04-20T10:33:27Z</time></trkpt><trkpt lat="14.45799322365298" lon="120.9338693501052"><ele>6.0</ele><time>2026-04-20T10:33:28Z</time></trkpt><trkpt lat="14.458009177783424" lon="120.93401300663237"><ele>6.0</ele><time>2026-04-20T10:33:29Z</time></trkpt><trkpt lat="14.458032483265299" lon="120.93417082122103"><ele>6.0</ele><time>2026-04-20T10:33:30Z</time></trkpt><trkpt lat="14.45805112028931" lon="120.93432845936493"><ele>6.0</ele><time>2026-04-20T10:33:31Z</time></trkpt><trkpt lat="14.458071771434442" lon="120.93449428808151"><ele>6.0</ele><time>2026-04-20T10:33:32Z</time></trkpt><trkpt lat="14.458088929596343" lon="120.9346160537514"><ele>6.0</ele><time>2026-04-20T10:33:33Z</time></trkpt><trkpt lat="14.45810711181268" lon="120.93472262952704"><ele>6.0</ele><time>2026-04-20T10:33:34Z</time></trkpt><trkpt lat="14.458125635422906" lon="120.93482720749955"><ele>6.0</ele><time>2026-04-20T10:33:35Z</time></trkpt><trkpt lat="14.458144652841623" lon="120.9348998331312"><ele>6.0</ele><time>2026-04-20T10:33:36Z</time></trkpt><trkpt lat="14.45816237484033" lon="120.93498200968725"><ele>6.0</ele><time>2026-04-20T10:33:37Z</time></trkpt><trkpt lat="14.458176884931584" lon="120.93504977009066"><ele>6.0</ele><time>2026-04-20T10:33:38Z</time></trkpt><trkpt lat="14.45819887249441" lon="120.93513988779861"><ele>6.0</ele><time>2026-04-20T10:33:39Z</time></trkpt><trkpt lat="14.458216904161713" lon="120.93522483041563"><ele>6.0</ele><time>2026-04-20T10:33:40Z</time></trkpt><trkpt lat="14.458238237677605" lon="120.93531345943683"><ele>5.666666666666667</ele><time>2026-04-20T10:33:41Z</time></trkpt><trkpt lat="14.458259088555526" lon="120.93540082476507"><ele>5.333333333333333</ele><time>2026-04-20T10:33:42Z</time></trkpt><trkpt lat="14.45827572937886" lon="120.93548918707181"><ele>5.0</ele><time>2026-04-20T10:33:43Z</time></trkpt><trkpt lat="14.458296549717641" lon="120.93558198735963"><ele>4.666666666666666</ele><time>2026-04-20T10:33:44Z</time></trkpt><trkpt lat="14.458314735981403" lon="120.93566531946554"><ele>4.333333333333333</ele><time>2026-04-20T10:33:45Z</time></trkpt><trkpt lat="14.458337131478546" lon="120.93575396010253"><ele>4.0</ele><time>2026-04-20T10:33:46Z</time></trkpt><trkpt lat="14.458354413998572" lon="120.93583331070303"><ele>4.142857142857142</ele><time>2026-04-20T10:33:47Z</time></trkpt><trkpt lat="14.45836954293504" lon="120.93590046838568"><ele>4.285714285714286</ele><time>2026-04-20T10:33:48Z</time></trkpt><trkpt lat="14.45838621986657" lon="120.93596880639068"><ele>4.428571428571429</ele><time>2026-04-20T10:33:49Z</time></trkpt><trkpt lat="14.458405812710396" lon="120.93603884960213"><ele>4.571428571428571</ele><time>2026-04-20T10:33:50Z</time></trkpt><trkpt lat="14.458421177624267" lon="120.93610315507674"><ele>4.714285714285714</ele><time>2026-04-20T10:33:51Z</time></trkpt><trkpt lat="14.45843863980719" lon="120.93618074252315"><ele>4.857142857142857</ele><time>2026-04-20T10:33:52Z</time></trkpt><trkpt lat="14.458456236929965" lon="120.93625912683532"><ele>5.0</ele><time>2026-04-20T10:33:53Z</time></trkpt><trkpt lat="14.45847017588823" lon="120.93632385136202"><ele>5.0</ele><time>2026-04-20T10:33:54Z</time></trkpt><trkpt lat="14.458490609096996" lon="120.93639893074929"><ele>5.0</ele><time>2026-04-20T10:33:55Z</time></trkpt><trkpt lat="14.458505731349566" lon="120.93646661252288"><ele>5.0</ele><time>2026-04-20T10:33:56Z</time></trkpt><trkpt lat="14.458538377642167" lon="120.93659501811062"><ele>5.0</ele><time>2026-04-20T10:33:58Z</time></trkpt><trkpt lat="14.458554669309185" lon="120.9366672895119"><ele>5.0</ele><time>2026-04-20T10:33:59Z</time></trkpt><trkpt lat="14.458571873573906" lon="120.936742933132"><ele>5.0</ele><time>2026-04-20T10:34:00Z</time></trkpt><trkpt lat="14.45858519078604" lon="120.93681274955779"><ele>5.333333333333334</ele><time>2026-04-20T10:34:01Z</time></trkpt><trkpt lat="14.458603656908133" lon="120.9368928764428"><ele>5.666666666666667</ele><time>2026-04-20T10:34:02Z</time></trkpt><trkpt lat="14.458624771941096" lon="120.93697762268013"><ele>6.0</ele><time>2026-04-20T10:34:03Z</time></trkpt><trkpt lat="14.458644149878511" lon="120.9370634271775"><ele>6.333333333333334</ele><time>2026-04-20T10:34:04Z</time></trkpt><trkpt lat="14.458668611163649" lon="120.93716110647973"><ele>6.666666666666667</ele><time>2026-04-20T10:34:05Z</time></trkpt><trkpt lat="14.45868660052278" lon="120.93724654947913"><ele>7.0</ele><time>2026-04-20T10:34:06Z</time></trkpt><trkpt lat="14.45870648624887" lon="120.93733721145489"><ele>7.0</ele><time>2026-04-20T10:34:07Z</time></trkpt><trkpt lat="14.458728967321242" lon="120.93742158768762"><ele>6.999999999999999</ele><time>2026-04-20T10:34:08Z</time></trkpt><trkpt lat="14.458751318946918" lon="120.93753099265626"><ele>6.999999999999999</ele><time>2026-04-20T10:34:09Z</time></trkpt><trkpt lat="14.458784769533843" lon="120.9376564526196"><ele>7.0</ele><time>2026-04-20T10:34:10Z</time></trkpt><trkpt lat="14.458809127037783" lon="120.93777844087816"><ele>7.0</ele><time>2026-04-20T10:34:11Z</time></trkpt><trkpt lat="14.458840165783378" lon="120.93790774615566"><ele>6.6</ele><time>2026-04-20T10:34:12Z</time></trkpt><trkpt lat="14.4588620830464" lon="120.93801191623835"><ele>6.199999999999999</ele><time>2026-04-20T10:34:13Z</time></trkpt><trkpt lat="14.458883576820392" lon="120.93810833492239"><ele>5.8</ele><time>2026-04-20T10:34:14Z</time></trkpt><trkpt lat="14.458904784329377" lon="120.93819883408561"><ele>5.4</ele><time>2026-04-20T10:34:15Z</time></trkpt><trkpt lat="14.458920381425271" lon="120.93827727415648"><ele>5.0</ele><time>2026-04-20T10:34:16Z</time></trkpt><trkpt lat="14.458938324419043" lon="120.93836509594433"><ele>5.5</ele><time>2026-04-20T10:34:17Z</time></trkpt><trkpt lat="14.45896266435462" lon="120.93845784324117"><ele>6.0</ele><time>2026-04-20T10:34:18Z</time></trkpt><trkpt lat="14.458984797045341" lon="120.93854978866194"><ele>6.5</ele><time>2026-04-20T10:34:19Z</time></trkpt><trkpt lat="14.459000638628854" lon="120.93862891246219"><ele>7.0</ele><time>2026-04-20T10:34:20Z</time></trkpt><trkpt lat="14.459015904837248" lon="120.93869942002871"><ele>7.499999999999999</ele><time>2026-04-20T10:34:21Z</time></trkpt><trkpt lat="14.459032567318827" lon="120.9387631734273"><ele>8.0</ele><time>2026-04-20T10:34:22.001Z</time></trkpt><trkpt lat="14.45906722457239" lon="120.93888488488189"><ele>7.999999999999999</ele><time>2026-04-20T10:34:24.001Z</time></trkpt><trkpt lat="14.459089863020933" lon="120.93900388890563"><ele>8.0</ele><time>2026-04-20T10:34:26.001Z</time></trkpt><trkpt lat="14.459101749462736" lon="120.93906912977599"><ele>8.0</ele><time>2026-04-20T10:34:27.001Z</time></trkpt><trkpt lat="14.459117063156864" lon="120.9391407242639"><ele>8.0</ele><time>2026-04-20T10:34:28.001Z</time></trkpt><trkpt lat="14.45913689113101" lon="120.93922153116404"><ele>7.999999999999999</ele><time>2026-04-20T10:34:29.001Z</time></trkpt><trkpt lat="14.459155719869011" lon="120.93929383985781"><ele>8.0</ele><time>2026-04-20T10:34:30.001Z</time></trkpt><trkpt lat="14.459171700170076" lon="120.93935968499099"><ele>8.0</ele><time>2026-04-20T10:34:31.001Z</time></trkpt><trkpt lat="14.459185998127255" lon="120.93942622326713"><ele>8.0</ele><time>2026-04-20T10:34:32.001Z</time></trkpt><trkpt lat="14.459202952740412" lon="120.93949646985719"><ele>8.0</ele><time>2026-04-20T10:34:33Z</time></trkpt><trkpt lat="14.459229234044093" lon="120.93962769604362"><ele>8.0</ele><time>2026-04-20T10:34:35Z</time></trkpt><trkpt lat="14.459249159074542" lon="120.93972701431623"><ele>8.0</ele><time>2026-04-20T10:34:37Z</time></trkpt><trkpt lat="14.459266835169828" lon="120.93981678416878"><ele>8.0</ele><time>2026-04-20T10:34:39Z</time></trkpt><trkpt lat="14.459283251110934" lon="120.93991204864761"><ele>8.0</ele><time>2026-04-20T10:34:41Z</time></trkpt><trkpt lat="14.459305786040119" lon="120.94002843997622"><ele>8.0</ele><time>2026-04-20T10:34:43Z</time></trkpt><trkpt lat="14.459318272786476" lon="120.94009296422573"><ele>8.0</ele><time>2026-04-20T10:34:44Z</time></trkpt><trkpt lat="14.45932991090775" lon="120.94019086156229"><ele>8.0</ele><time>2026-04-20T10:34:46Z</time></trkpt><trkpt lat="14.459335254663182" lon="120.9402798920403"><ele>8.0</ele><time>2026-04-20T10:34:49Z</time></trkpt><trkpt lat="14.45933802438421" lon="120.94042614329828"><ele>8.0</ele><time>2026-04-20T10:34:51Z</time></trkpt><trkpt lat="14.459344494531113" lon="120.94051046030762"><ele>8.0</ele><time>2026-04-20T10:34:52Z</time></trkpt><trkpt lat="14.459360425474964" lon="120.9406224523678"><ele>8.0</ele><time>2026-04-20T10:34:53Z</time></trkpt><trkpt lat="14.459368487566188" lon="120.94072341873223"><ele>8.0</ele><time>2026-04-20T10:34:54Z</time></trkpt><trkpt lat="14.45937764332186" lon="120.94081925505424"><ele>7.6000000000000005</ele><time>2026-04-20T10:34:55Z</time></trkpt><trkpt lat="14.459383034082748" lon="120.94089816934792"><ele>7.200000000000001</ele><time>2026-04-20T10:34:56Z</time></trkpt><trkpt lat="14.459392501163807" lon="120.94098995535771"><ele>6.8</ele><time>2026-04-20T10:34:57Z</time></trkpt><trkpt lat="14.459401125533063" lon="120.94109111229399"><ele>6.4</ele><time>2026-04-20T10:34:58Z</time></trkpt><trkpt lat="14.459407177270581" lon="120.94119698044936"><ele>6.0</ele><time>2026-04-20T10:34:59Z</time></trkpt><trkpt lat="14.459417559780325" lon="120.94130929611778"><ele>6.0</ele><time>2026-04-20T10:35:00Z</time></trkpt><trkpt lat="14.459434618185746" lon="120.94143197447319"><ele>6.0</ele><time>2026-04-20T10:35:01Z</time></trkpt><trkpt lat="14.459444646074106" lon="120.94154833883486"><ele>6.0</ele><time>2026-04-20T10:35:02Z</time></trkpt><trkpt lat="14.459453102151475" lon="120.94167355452399"><ele>6.0</ele><time>2026-04-20T10:35:03Z</time></trkpt><trkpt lat="14.459462448664159" lon="120.94179869441886"><ele>6.5</ele><time>2026-04-20T10:35:04Z</time></trkpt><trkpt lat="14.459480631522823" lon="120.94193978921064"><ele>7.0</ele><time>2026-04-20T10:35:05Z</time></trkpt><trkpt lat="14.459487961972359" lon="120.9420644220715"><ele>7.5</ele><time>2026-04-20T10:35:06Z</time></trkpt><trkpt lat="14.459501830707064" lon="120.9421989103823"><ele>8.0</ele><time>2026-04-20T10:35:07Z</time></trkpt><trkpt lat="14.459512306772544" lon="120.94233096965645"><ele>8.0</ele><time>2026-04-20T10:35:08Z</time></trkpt><trkpt lat="14.459520164845921" lon="120.94245889859869"><ele>8.0</ele><time>2026-04-20T10:35:09Z</time></trkpt><trkpt lat="14.459534350744745" lon="120.94258640197992"><ele>8.0</ele><time>2026-04-20T10:35:10Z</time></trkpt><trkpt lat="14.459545944696403" lon="120.94269519494374"><ele>8.0</ele><time>2026-04-20T10:35:11Z</time></trkpt><trkpt lat="14.459559896585038" lon="120.9428076319027"><ele>8.0</ele><time>2026-04-20T10:35:12Z</time></trkpt><trkpt lat="14.45956464040888" lon="120.9428967358785"><ele>8.0</ele><time>2026-04-20T10:35:13Z</time></trkpt><trkpt lat="14.45957383151347" lon="120.94297551960298"><ele>8.0</ele><time>2026-04-20T10:35:14Z</time></trkpt><trkpt lat="14.459586022584269" lon="120.94309667856156"><ele>8.0</ele><time>2026-04-20T10:35:16Z</time></trkpt><trkpt lat="14.45959513416217" lon="120.94318332376172"><ele>8.0</ele><time>2026-04-20T10:35:18Z</time></trkpt><trkpt lat="14.45960272966348" lon="120.94328959345167"><ele>8.0</ele><time>2026-04-20T10:35:20Z</time></trkpt><trkpt lat="14.4596151574042" lon="120.94339657024369"><ele>8.0</ele><time>2026-04-20T10:35:22Z</time></trkpt><trkpt lat="14.459627601161193" lon="120.94350884831667"><ele>8.0</ele><time>2026-04-20T10:35:24Z</time></trkpt><trkpt lat="14.459634558520678" lon="120.9435794907382"><ele>8.0</ele><time>2026-04-20T10:35:25Z</time></trkpt><trkpt lat="14.45964160502666" lon="120.94366437770233"><ele>8.0</ele><time>2026-04-20T10:35:26Z</time></trkpt><trkpt lat="14.459651809768339" lon="120.943756504682"><ele>8.0</ele><time>2026-04-20T10:35:27Z</time></trkpt><trkpt lat="14.459661707568799" lon="120.94385066408454"><ele>8.0</ele><time>2026-04-20T10:35:28Z</time></trkpt><trkpt lat="14.459670756710834" lon="120.94395452761246"><ele>8.0</ele><time>2026-04-20T10:35:29Z</time></trkpt><trkpt lat="14.459683255390503" lon="120.94408386009981"><ele>8.0</ele><time>2026-04-20T10:35:30Z</time></trkpt><trkpt lat="14.459692983858053" lon="120.94421781793429"><ele>8.0</ele><time>2026-04-20T10:35:31Z</time></trkpt><trkpt lat="14.459695499296206" lon="120.94433685430862"><ele>7.6000000000000005</ele><time>2026-04-20T10:35:32Z</time></trkpt><trkpt lat="14.459698510675963" lon="120.94443991481626"><ele>7.200000000000001</ele><time>2026-04-20T10:35:33Z</time></trkpt><trkpt lat="14.459703484762331" lon="120.94453988725603"><ele>6.8</ele><time>2026-04-20T10:35:34Z</time></trkpt><trkpt lat="14.459707340453496" lon="120.94463670510403"><ele>6.4</ele><time>2026-04-20T10:35:35Z</time></trkpt><trkpt lat="14.45971312079306" lon="120.9447263559388"><ele>6.0</ele><time>2026-04-20T10:35:36Z</time></trkpt><trkpt lat="14.459718844419564" lon="120.94482474415112"><ele>6.0</ele><time>2026-04-20T10:35:37Z</time></trkpt><trkpt lat="14.459726808441957" lon="120.94493043890616"><ele>6.0</ele><time>2026-04-20T10:35:38Z</time></trkpt><trkpt lat="14.459734582923653" lon="120.94503485565286"><ele>6.0</ele><time>2026-04-20T10:35:39Z</time></trkpt><trkpt lat="14.459736350829829" lon="120.94512646037236"><ele>6.0</ele><time>2026-04-20T10:35:40Z</time></trkpt><trkpt lat="14.45974015692213" lon="120.94523184904867"><ele>6.0</ele><time>2026-04-20T10:35:41Z</time></trkpt><trkpt lat="14.459743809281054" lon="120.94533066473618"><ele>6.166666666666667</ele><time>2026-04-20T10:35:42Z</time></trkpt><trkpt lat="14.459748381257393" lon="120.94542892523549"><ele>6.333333333333334</ele><time>2026-04-20T10:35:43Z</time></trkpt><trkpt lat="14.45974842676566" lon="120.94552250526183"><ele>6.5</ele><time>2026-04-20T10:35:44Z</time></trkpt><trkpt lat="14.459749833632307" lon="120.94560522807377"><ele>6.666666666666667</ele><time>2026-04-20T10:35:45Z</time></trkpt><trkpt lat="14.45975269522677" lon="120.94569212344447"><ele>6.833333333333334</ele><time>2026-04-20T10:35:46Z</time></trkpt><trkpt lat="14.45975540604479" lon="120.94578529418538"><ele>7.0</ele><time>2026-04-20T10:35:47Z</time></trkpt><trkpt lat="14.459756420551992" lon="120.94587751387854"><ele>7.166666666666667</ele><time>2026-04-20T10:35:48Z</time></trkpt><trkpt lat="14.459757199079991" lon="120.9459801737258"><ele>7.333333333333334</ele><time>2026-04-20T10:35:49Z</time></trkpt><trkpt lat="14.45975710884956" lon="120.94606574931201"><ele>7.5</ele><time>2026-04-20T10:35:50Z</time></trkpt><trkpt lat="14.459760611961379" lon="120.94616278507425"><ele>7.666666666666666</ele><time>2026-04-20T10:35:51Z</time></trkpt><trkpt lat="14.45976627210024" lon="120.94624942785045"><ele>7.833333333333333</ele><time>2026-04-20T10:35:52Z</time></trkpt><trkpt lat="14.459768735380347" lon="120.94633271883941"><ele>8.0</ele><time>2026-04-20T10:35:53Z</time></trkpt><trkpt lat="14.45977027077433" lon="120.94640673621764"><ele>7.999999999999999</ele><time>2026-04-20T10:35:54Z</time></trkpt><trkpt lat="14.459775510487177" lon="120.94647703228446"><ele>8.0</ele><time>2026-04-20T10:35:55Z</time></trkpt><trkpt lat="14.459778326257016" lon="120.94654384592361"><ele>8.0</ele><time>2026-04-20T10:35:56Z</time></trkpt><trkpt lat="14.459780686175147" lon="120.94663945594783"><ele>8.0</ele><time>2026-04-20T10:35:58Z</time></trkpt><trkpt lat="14.45978202126892" lon="120.94672826260893"><ele>7.999999999999999</ele><time>2026-04-20T10:36:00Z</time></trkpt><trkpt lat="14.459789061495526" lon="120.94683682875555"><ele>8.0</ele><time>2026-04-20T10:36:02Z</time></trkpt><trkpt lat="14.459798470031643" lon="120.94691276201789"><ele>7.999999999999999</ele><time>2026-04-20T10:36:03Z</time></trkpt><trkpt lat="14.45980725343267" lon="120.94698255217054"><ele>8.0</ele><time>2026-04-20T10:36:04Z</time></trkpt><trkpt lat="14.45981180289947" lon="120.94708793490854"><ele>8.0</ele><time>2026-04-20T10:36:06Z</time></trkpt><trkpt lat="14.459819535090098" lon="120.94717827755696"><ele>8.0</ele><time>2026-04-20T10:36:08Z</time></trkpt><trkpt lat="14.459826937697734" lon="120.94729021557157"><ele>7.999999999999999</ele><time>2026-04-20T10:36:10Z</time></trkpt><trkpt lat="14.459834328281621" lon="120.94736654622436"><ele>8.0</ele><time>2026-04-20T10:36:11Z</time></trkpt><trkpt lat="14.45983986798535" lon="120.9474489215562"><ele>7.800000000000001</ele><time>2026-04-20T10:36:12Z</time></trkpt><trkpt lat="14.459843391141545" lon="120.94755886433423"><ele>7.6000000000000005</ele><time>2026-04-20T10:36:13Z</time></trkpt><trkpt lat="14.45984946155689" lon="120.94765537339636"><ele>7.3999999999999995</ele><time>2026-04-20T10:36:14Z</time></trkpt><trkpt lat="14.459857393005088" lon="120.94773923363263"><ele>7.199999999999999</ele><time>2026-04-20T10:36:15Z</time></trkpt><trkpt lat="14.459867741681128" lon="120.94782752521178"><ele>7.0</ele><time>2026-04-20T10:36:16Z</time></trkpt><trkpt lat="14.459872736779719" lon="120.94792073487082"><ele>7.000000000000001</ele><time>2026-04-20T10:36:17Z</time></trkpt><trkpt lat="14.459881183139144" lon="120.94801373401674"><ele>7.0</ele><time>2026-04-20T10:36:18Z</time></trkpt><trkpt lat="14.459893241265766" lon="120.94810393443784"><ele>7.0</ele><time>2026-04-20T10:36:19Z</time></trkpt><trkpt lat="14.459901563820628" lon="120.9481821986235"><ele>7.0</ele><time>2026-04-20T10:36:20Z</time></trkpt><trkpt lat="14.459912689549066" lon="120.94827230268776"><ele>7.000000000000001</ele><time>2026-04-20T10:36:21Z</time></trkpt><trkpt lat="14.459920161657381" lon="120.94834628939489"><ele>7.0</ele><time>2026-04-20T10:36:22Z</time></trkpt><trkpt lat="14.459929464042798" lon="120.94843242411436"><ele>7.0</ele><time>2026-04-20T10:36:23Z</time></trkpt><trkpt lat="14.459937812654601" lon="120.94849939643203"><ele>6.999999999999999</ele><time>2026-04-20T10:36:24Z</time></trkpt><trkpt lat="14.459948958281071" lon="120.94862399988729"><ele>6.999999999999999</ele><time>2026-04-20T10:36:26Z</time></trkpt><trkpt lat="14.459955063495265" lon="120.94876204019381"><ele>7.0</ele><time>2026-04-20T10:36:28Z</time></trkpt><trkpt lat="14.45996549098623" lon="120.94884074677707"><ele>7.0</ele><time>2026-04-20T10:36:29Z</time></trkpt><trkpt lat="14.459976246281663" lon="120.94891812019246"><ele>7.000000000000001</ele><time>2026-04-20T10:36:30Z</time></trkpt><trkpt lat="14.459983033220805" lon="120.94898748211038"><ele>7.0</ele><time>2026-04-20T10:36:31Z</time></trkpt><trkpt lat="14.459991198818562" lon="120.94906073952161"><ele>7.0</ele><time>2026-04-20T10:36:32Z</time></trkpt><trkpt lat="14.460002746000722" lon="120.94919444637009"><ele>7.0</ele><time>2026-04-20T10:36:34Z</time></trkpt><trkpt lat="14.460012068988318" lon="120.94927534619471"><ele>7.000000000000001</ele><time>2026-04-20T10:36:35Z</time></trkpt><trkpt lat="14.460022648925484" lon="120.9493622980022"><ele>7.0</ele><time>2026-04-20T10:36:36Z</time></trkpt><trkpt lat="14.460031432015814" lon="120.94945294137936"><ele>7.000000000000001</ele><time>2026-04-20T10:36:37Z</time></trkpt><trkpt lat="14.460037972364939" lon="120.94954022739019"><ele>7.0</ele><time>2026-04-20T10:36:38Z</time></trkpt><trkpt lat="14.460048253879227" lon="120.94963713533593"><ele>7.0</ele><time>2026-04-20T10:36:39Z</time></trkpt><trkpt lat="14.460056534036012" lon="120.94972807614828"><ele>7.0</ele><time>2026-04-20T10:36:40Z</time></trkpt><trkpt lat="14.46006763755331" lon="120.94982103282665"><ele>7.000000000000001</ele><time>2026-04-20T10:36:41Z</time></trkpt><trkpt lat="14.460075552428476" lon="120.94989968373058"><ele>7.0</ele><time>2026-04-20T10:36:42Z</time></trkpt><trkpt lat="14.460085131914544" lon="120.94998026537485"><ele>7.333333333333334</ele><time>2026-04-20T10:36:43Z</time></trkpt><trkpt lat="14.460092263625766" lon="120.95005432157059"><ele>7.666666666666667</ele><time>2026-04-20T10:36:44Z</time></trkpt><trkpt lat="14.460101623351663" lon="120.95013803898038"><ele>8.0</ele><time>2026-04-20T10:36:45Z</time></trkpt><trkpt lat="14.460109809928083" lon="120.95021558716059"><ele>8.333333333333334</ele><time>2026-04-20T10:36:46Z</time></trkpt><trkpt lat="14.460117515612113" lon="120.95028863625238"><ele>8.666666666666666</ele><time>2026-04-20T10:36:47Z</time></trkpt><trkpt lat="14.460124712627694" lon="120.95035926272286"><ele>9.0</ele><time>2026-04-20T10:36:48Z</time></trkpt><trkpt lat="14.460133597977515" lon="120.95048507433737"><ele>9.0</ele><time>2026-04-20T10:36:50Z</time></trkpt><trkpt lat="14.460141975207872" lon="120.95055492231519"><ele>9.0</ele><time>2026-04-20T10:36:51Z</time></trkpt><trkpt lat="14.460150970539708" lon="120.95063232022474"><ele>9.0</ele><time>2026-04-20T10:36:52Z</time></trkpt><trkpt lat="14.460161559238117" lon="120.9507274528902"><ele>9.0</ele><time>2026-04-20T10:36:53Z</time></trkpt><trkpt lat="14.46016784156915" lon="120.95080903836049"><ele>9.0</ele><time>2026-04-20T10:36:54Z</time></trkpt><trkpt lat="14.460177566018281" lon="120.95090411822203"><ele>9.0</ele><time>2026-04-20T10:36:55Z</time></trkpt><trkpt lat="14.460192455859415" lon="120.95101434920768"><ele>8.8</ele><time>2026-04-20T10:36:56Z</time></trkpt><trkpt lat="14.460200349123205" lon="120.95111832257179"><ele>8.600000000000001</ele><time>2026-04-20T10:36:57Z</time></trkpt><trkpt lat="14.460205837026034" lon="120.95121818821066"><ele>8.4</ele><time>2026-04-20T10:36:58Z</time></trkpt><trkpt lat="14.460216456793782" lon="120.9513217359684"><ele>8.200000000000001</ele><time>2026-04-20T10:36:59Z</time></trkpt><trkpt lat="14.46022825438473" lon="120.95141987453928"><ele>8.0</ele><time>2026-04-20T10:37:00Z</time></trkpt><trkpt lat="14.460242072420455" lon="120.95151496776828"><ele>7.999999999999999</ele><time>2026-04-20T10:37:01Z</time></trkpt><trkpt lat="14.460251122137409" lon="120.95160748282407"><ele>8.0</ele><time>2026-04-20T10:37:02Z</time></trkpt><trkpt lat="14.460256505673222" lon="120.95168964247576"><ele>8.0</ele><time>2026-04-20T10:37:03Z</time></trkpt><trkpt lat="14.460263686724181" lon="120.95176329452433"><ele>8.0</ele><time>2026-04-20T10:37:04Z</time></trkpt><trkpt lat="14.460267826742061" lon="120.9518383720309"><ele>7.999999999999999</ele><time>2026-04-20T10:37:05Z</time></trkpt><trkpt lat="14.460275732427677" lon="120.95192368878004"><ele>8.0</ele><time>2026-04-20T10:37:06Z</time></trkpt><trkpt lat="14.460284639202687" lon="120.95201386220289"><ele>7.833333333333333</ele><time>2026-04-20T10:37:07Z</time></trkpt><trkpt lat="14.460295422838536" lon="120.95209282040959"><ele>7.666666666666666</ele><time>2026-04-20T10:37:08Z</time></trkpt><trkpt lat="14.460306673372974" lon="120.95217282901518"><ele>7.5</ele><time>2026-04-20T10:37:09Z</time></trkpt><trkpt lat="14.460316215592423" lon="120.95223984714899"><ele>7.333333333333334</ele><time>2026-04-20T10:37:10Z</time></trkpt><trkpt lat="14.460325161662809" lon="120.95232305579627"><ele>7.166666666666667</ele><time>2026-04-20T10:37:11Z</time></trkpt><trkpt lat="14.46033382644656" lon="120.9524078556084"><ele>7.0</ele><time>2026-04-20T10:37:12Z</time></trkpt><trkpt lat="14.460343384330386" lon="120.95249276571754"><ele>7.166666666666667</ele><time>2026-04-20T10:37:13Z</time></trkpt><trkpt lat="14.460350950229008" lon="120.95256710291436"><ele>7.333333333333334</ele><time>2026-04-20T10:37:14Z</time></trkpt><trkpt lat="14.460360298538028" lon="120.95263464147527"><ele>7.5</ele><time>2026-04-20T10:37:15Z</time></trkpt><trkpt lat="14.460368251226848" lon="120.95270197287817"><ele>7.666666666666666</ele><time>2026-04-20T10:37:16Z</time></trkpt><trkpt lat="14.460379504736807" lon="120.95281252698283"><ele>7.833333333333333</ele><time>2026-04-20T10:37:18Z</time></trkpt><trkpt lat="14.460385600627935" lon="120.95290226053974"><ele>8.0</ele><time>2026-04-20T10:37:20Z</time></trkpt><trkpt lat="14.460391757499536" lon="120.95301412344857"><ele>7.999999999999999</ele><time>2026-04-20T10:37:22Z</time></trkpt><trkpt lat="14.460410660556642" lon="120.95313822504048"><ele>8.0</ele><time>2026-04-20T10:37:24Z</time></trkpt><trkpt lat="14.460424824282208" lon="120.95320824937474"><ele>8.0</ele><time>2026-04-20T10:37:25Z</time></trkpt><trkpt lat="14.460452613570762" lon="120.95329525985838"><ele>8.0</ele><time>2026-04-20T10:37:27Z</time></trkpt><trkpt lat="14.46047229317085" lon="120.95336288672311"><ele>7.999999999999999</ele><time>2026-04-20T10:37:29Z</time></trkpt><trkpt lat="14.460488829707616" lon="120.95343818381943"><ele>8.0</ele><time>2026-04-20T10:37:34Z</time></trkpt><trkpt lat="14.46052796207495" lon="120.95352358242768"><ele>8.0</ele><time>2026-04-20T10:37:43Z</time></trkpt><trkpt lat="14.46054559055965" lon="120.9535909245202"><ele>7.999999999999999</ele><time>2026-04-20T10:37:44Z</time></trkpt><trkpt lat="14.460563920151989" lon="120.95367186946004"><ele>8.0</ele><time>2026-04-20T10:37:45Z</time></trkpt><trkpt lat="14.460579061600274" lon="120.95373578386543"><ele>8.0</ele><time>2026-04-20T10:37:46Z</time></trkpt><trkpt lat="14.460588286968232" lon="120.95380451286631"><ele>7.999999999999999</ele><time>2026-04-20T10:37:47Z</time></trkpt><trkpt lat="14.460616106510196" lon="120.9538780369969"><ele>8.0</ele><time>2026-04-20T10:37:48Z</time></trkpt><trkpt lat="14.460638405638766" lon="120.95394633152847"><ele>8.0</ele><time>2026-04-20T10:37:49Z</time></trkpt><trkpt lat="14.460678632152376" lon="120.95406845018378"><ele>7.999999999999999</ele><time>2026-04-20T10:37:51Z</time></trkpt><trkpt lat="14.460698401688669" lon="120.95413119131207"><ele>8.0</ele><time>2026-04-20T10:37:52Z</time></trkpt><trkpt lat="14.460718417625085" lon="120.95420344030114"><ele>8.0</ele><time>2026-04-20T10:37:53Z</time></trkpt><trkpt lat="14.460743912519073" lon="120.95429140516028"><ele>8.0</ele><time>2026-04-20T10:37:54Z</time></trkpt><trkpt lat="14.460766421563992" lon="120.95439169547339"><ele>7.999999999999999</ele><time>2026-04-20T10:37:55Z</time></trkpt><trkpt lat="14.460790517997474" lon="120.9545034915024"><ele>8.0</ele><time>2026-04-20T10:37:56Z</time></trkpt><trkpt lat="14.460819604276091" lon="120.95461648460979"><ele>8.0</ele><time>2026-04-20T10:37:57Z</time></trkpt><trkpt lat="14.460850701902237" lon="120.95472928566005"><ele>8.0</ele><time>2026-04-20T10:37:58Z</time></trkpt><trkpt lat="14.460881707993169" lon="120.95484432922639"><ele>8.0</ele><time>2026-04-20T10:37:59Z</time></trkpt><trkpt lat="14.460909604971455" lon="120.95494207207508"><ele>8.0</ele><time>2026-04-20T10:38:00Z</time></trkpt><trkpt lat="14.460936013109968" lon="120.9550378334249"><ele>8.0</ele><time>2026-04-20T10:38:01Z</time></trkpt><trkpt lat="14.460957223311734" lon="120.95511877772115"><ele>8.285714285714285</ele><time>2026-04-20T10:38:02Z</time></trkpt><trkpt lat="14.46098152251854" lon="120.95520173658778"><ele>8.571428571428571</ele><time>2026-04-20T10:38:03Z</time></trkpt><trkpt lat="14.460998028402344" lon="120.95526513024502"><ele>8.857142857142858</ele><time>2026-04-20T10:38:04Z</time></trkpt><trkpt lat="14.461019981167771" lon="120.955343382246"><ele>9.142857142857142</ele><time>2026-04-20T10:38:05Z</time></trkpt><trkpt lat="14.461041165696786" lon="120.9554189594288"><ele>9.428571428571429</ele><time>2026-04-20T10:38:06Z</time></trkpt><trkpt lat="14.461061644916688" lon="120.9554889931712"><ele>9.714285714285714</ele><time>2026-04-20T10:38:07Z</time></trkpt><trkpt lat="14.461080929919985" lon="120.95555549540359"><ele>10.0</ele><time>2026-04-20T10:38:08Z</time></trkpt><trkpt lat="14.461112815868068" lon="120.95567057101329"><ele>10.0</ele><time>2026-04-20T10:38:10Z</time></trkpt><trkpt lat="14.461129769101628" lon="120.9557369850048"><ele>10.0</ele><time>2026-04-20T10:38:11Z</time></trkpt><trkpt lat="14.461148093267742" lon="120.9558051003972"><ele>10.0</ele><time>2026-04-20T10:38:12Z</time></trkpt><trkpt lat="14.461182456647784" lon="120.95591835780588"><ele>10.0</ele><time>2026-04-20T10:38:14Z</time></trkpt><trkpt lat="14.461206448833162" lon="120.95599814185422"><ele>10.0</ele><time>2026-04-20T10:38:16Z</time></trkpt><trkpt lat="14.461237964153534" lon="120.95605978894808"><ele>10.0</ele><time>2026-04-20T10:38:20Z</time></trkpt><trkpt lat="14.461258555115228" lon="120.95616426404607"><ele>9.333333333333334</ele><time>2026-04-20T10:38:22Z</time></trkpt><trkpt lat="14.461273433841153" lon="120.95624206660919"><ele>8.666666666666668</ele><time>2026-04-20T10:38:23Z</time></trkpt><trkpt lat="14.461291884093235" lon="120.95631939481868"><ele>8.0</ele><time>2026-04-20T10:38:24Z</time></trkpt><trkpt lat="14.46131926332282" lon="120.95641228162958"><ele>7.333333333333334</ele><time>2026-04-20T10:38:25Z</time></trkpt><trkpt lat="14.461345087507594" lon="120.95650717949414"><ele>6.666666666666667</ele><time>2026-04-20T10:38:26Z</time></trkpt><trkpt lat="14.461370723369976" lon="120.95660922677013"><ele>6.0</ele><time>2026-04-20T10:38:27Z</time></trkpt><trkpt lat="14.46139287298114" lon="120.95669965319559"><ele>6.0</ele><time>2026-04-20T10:38:28Z</time></trkpt><trkpt lat="14.461420475352375" lon="120.9568004273684"><ele>6.0</ele><time>2026-04-20T10:38:29Z</time></trkpt><trkpt lat="14.461444450186455" lon="120.95690001897826"><ele>6.0</ele><time>2026-04-20T10:38:30Z</time></trkpt><trkpt lat="14.461469225829548" lon="120.95699072694912"><ele>6.0</ele><time>2026-04-20T10:38:31Z</time></trkpt><trkpt lat="14.461498649644156" lon="120.9570964786332"><ele>6.0</ele><time>2026-04-20T10:38:32Z</time></trkpt><trkpt lat="14.461526449311185" lon="120.95719613748427"><ele>6.0</ele><time>2026-04-20T10:38:33Z</time></trkpt><trkpt lat="14.461551790485219" lon="120.95728715515676"><ele>6.0</ele><time>2026-04-20T10:38:34Z</time></trkpt><trkpt lat="14.461574729442367" lon="120.95736995293579"><ele>6.0</ele><time>2026-04-20T10:38:35Z</time></trkpt><trkpt lat="14.461580487402415" lon="120.95746967132148"><ele>6.0</ele><time>2026-04-20T10:38:37Z</time></trkpt><trkpt lat="14.461600633010788" lon="120.95755147533143"><ele>6.0</ele><time>2026-04-20T10:38:39Z</time></trkpt><trkpt lat="14.461621137105174" lon="120.9576194779317"><ele>6.0</ele><time>2026-04-20T10:38:40Z</time></trkpt><trkpt lat="14.461638461264375" lon="120.9576852071327"><ele>6.166666666666667</ele><time>2026-04-20T10:38:41Z</time></trkpt><trkpt lat="14.461668856810132" lon="120.95777057239893"><ele>6.333333333333334</ele><time>2026-04-20T10:38:43Z</time></trkpt><trkpt lat="14.461698921075389" lon="120.9578762861224"><ele>6.5</ele><time>2026-04-20T10:38:45Z</time></trkpt><trkpt lat="14.46171394049144" lon="120.9579414861856"><ele>6.666666666666667</ele><time>2026-04-20T10:38:46Z</time></trkpt><trkpt lat="14.461742510068099" lon="120.95806275088108"><ele>6.833333333333334</ele><time>2026-04-20T10:38:48Z</time></trkpt><trkpt lat="14.461757204488851" lon="120.95812750108324"><ele>7.0</ele><time>2026-04-20T10:38:49Z</time></trkpt><trkpt lat="14.461789297473512" lon="120.95823567585907"><ele>7.0</ele><time>2026-04-20T10:38:51Z</time></trkpt><trkpt lat="14.46182138930529" lon="120.95833772998806"><ele>6.999999999999999</ele><time>2026-04-20T10:38:53Z</time></trkpt><trkpt lat="14.46184079561847" lon="120.95841275769587"><ele>6.999999999999999</ele><time>2026-04-20T10:38:55Z</time></trkpt><trkpt lat="14.461862943245915" lon="120.95851094802673"><ele>7.0</ele><time>2026-04-20T10:38:57Z</time></trkpt><trkpt lat="14.461894361899459" lon="120.95862625326927"><ele>7.0</ele><time>2026-04-20T10:38:59Z</time></trkpt><trkpt lat="14.461925148148705" lon="120.9587340246285"><ele>7.166666666666667</ele><time>2026-04-20T10:39:01Z</time></trkpt><trkpt lat="14.461947461092393" lon="120.95881304772618"><ele>7.333333333333334</ele><time>2026-04-20T10:39:03Z</time></trkpt><trkpt lat="14.461970266958687" lon="120.95889396334702"><ele>7.5</ele><time>2026-04-20T10:39:42Z</time></trkpt><trkpt lat="14.461995307897064" lon="120.95897012325787"><ele>7.666666666666666</ele><time>2026-04-20T10:39:46Z</time></trkpt><trkpt lat="14.461999353815909" lon="120.95904140052136"><ele>7.833333333333333</ele><time>2026-04-20T10:40:00Z</time></trkpt><trkpt lat="14.462034676084201" lon="120.95911817595618"><ele>8.0</ele><time>2026-04-20T10:40:03Z</time></trkpt><trkpt lat="14.462052847228545" lon="120.95918261201773"><ele>7.666666666666666</ele><time>2026-04-20T10:40:09Z</time></trkpt><trkpt lat="14.462060073268384" lon="120.95925060928873"><ele>7.333333333333333</ele><time>2026-04-20T10:40:18Z</time></trkpt><trkpt lat="14.462073429035756" lon="120.95932430707083"><ele>7.0</ele><time>2026-04-20T10:40:21Z</time></trkpt><trkpt lat="14.462089144164889" lon="120.95939077834905"><ele>6.666666666666666</ele><time>2026-04-20T10:40:23Z</time></trkpt><trkpt lat="14.462115948849094" lon="120.95946680737082"><ele>6.333333333333333</ele><time>2026-04-20T10:40:26Z</time></trkpt><trkpt lat="14.46215161249729" lon="120.9595419866378"><ele>6.0</ele><time>2026-04-20T10:40:29Z</time></trkpt><trkpt lat="14.46217527281947" lon="120.95964713695386"><ele>5.8</ele><time>2026-04-20T10:40:32Z</time></trkpt><trkpt lat="14.462208065648746" lon="120.95974683223409"><ele>5.6</ele><time>2026-04-20T10:40:34Z</time></trkpt><trkpt lat="14.462241398925457" lon="120.95983376528399"><ele>5.4</ele><time>2026-04-20T10:40:36Z</time></trkpt><trkpt lat="14.462279081200839" lon="120.95993468471666"><ele>5.2</ele><time>2026-04-20T10:40:38Z</time></trkpt><trkpt lat="14.462321775205831" lon="120.9600543932468"><ele>5.0</ele><time>2026-04-20T10:40:40Z</time></trkpt><trkpt lat="14.462347013565727" lon="120.96012946456264"><ele>5.0</ele><time>2026-04-20T10:40:41Z</time></trkpt><trkpt lat="14.462364161502062" lon="120.96021921033905"><ele>5.0</ele><time>2026-04-20T10:40:42Z</time></trkpt><trkpt lat="14.46238554931427" lon="120.96031889380352"><ele>5.0</ele><time>2026-04-20T10:40:43Z</time></trkpt><trkpt lat="14.462405745148846" lon="120.9604089153589"><ele>5.0</ele><time>2026-04-20T10:40:44Z</time></trkpt><trkpt lat="14.46242723998837" lon="120.96048931393014"><ele>5.0</ele><time>2026-04-20T10:40:45Z</time></trkpt><trkpt lat="14.462452320774064" lon="120.96057178523094"><ele>5.0</ele><time>2026-04-20T10:40:46Z</time></trkpt><trkpt lat="14.462475276577273" lon="120.96065478864243"><ele>5.0</ele><time>2026-04-20T10:40:47Z</time></trkpt><trkpt lat="14.462498177042278" lon="120.9607396779506"><ele>5.0</ele><time>2026-04-20T10:40:48Z</time></trkpt><trkpt lat="14.462510449636353" lon="120.96082495911556"><ele>5.0</ele><time>2026-04-20T10:40:49Z</time></trkpt><trkpt lat="14.46251519188788" lon="120.96091438108333"><ele>5.0</ele><time>2026-04-20T10:40:50Z</time></trkpt><trkpt lat="14.462514436426984" lon="120.9609878103705"><ele>5.0</ele><time>2026-04-20T10:40:51Z</time></trkpt><trkpt lat="14.462510305695666" lon="120.96111132364159"><ele>5.0</ele><time>2026-04-20T10:40:53Z</time></trkpt><trkpt lat="14.462506582713154" lon="120.96118961193257"><ele>5.5</ele><time>2026-04-20T10:40:54Z</time></trkpt><trkpt lat="14.462490497762364" lon="120.96127770349332"><ele>6.0</ele><time>2026-04-20T10:40:55Z</time></trkpt><trkpt lat="14.462465580113559" lon="120.96136800133576"><ele>6.5</ele><time>2026-04-20T10:40:56Z</time></trkpt><trkpt lat="14.462445651514509" lon="120.96145676719388"><ele>7.0</ele><time>2026-04-20T10:40:57Z</time></trkpt><trkpt lat="14.462427701715946" lon="120.96153647293652"><ele>7.499999999999999</ele><time>2026-04-20T10:40:58Z</time></trkpt><trkpt lat="14.462412566486272" lon="120.96160398806396"><ele>8.0</ele><time>2026-04-20T10:40:59Z</time></trkpt><trkpt lat="14.462398905849604" lon="120.96167299502333"><ele>8.5</ele><time>2026-04-20T10:41:00Z</time></trkpt><trkpt lat="14.462353533139606" lon="120.96175716231323"><ele>9.0</ele><time>2026-04-20T10:41:02Z</time></trkpt><trkpt lat="14.46231626786425" lon="120.96184391639056"><ele>9.5</ele><time>2026-04-20T10:41:04Z</time></trkpt><trkpt lat="14.462297977455426" lon="120.96191833340664"><ele>10.0</ele><time>2026-04-20T10:41:06Z</time></trkpt><trkpt lat="14.462282934594516" lon="120.96200188003206"><ele>10.5</ele><time>2026-04-20T10:41:08Z</time></trkpt><trkpt lat="14.462255408962376" lon="120.96210407075918"><ele>11.0</ele><time>2026-04-20T10:41:10Z</time></trkpt><trkpt lat="14.462216726329775" lon="120.96218947802339"><ele>11.0</ele><time>2026-04-20T10:41:12Z</time></trkpt><trkpt lat="14.462183583732337" lon="120.9622582009663"><ele>11.0</ele><time>2026-04-20T10:41:14Z</time></trkpt><trkpt lat="14.462163066463381" lon="120.96234468845608"><ele>11.0</ele><time>2026-04-20T10:41:17Z</time></trkpt><trkpt lat="14.462146214248953" lon="120.96243579392588"><ele>11.0</ele><time>2026-04-20T10:41:20Z</time></trkpt><trkpt lat="14.462115150241305" lon="120.96251516512191"><ele>11.0</ele><time>2026-04-20T10:41:22Z</time></trkpt><trkpt lat="14.462083738428658" lon="120.9625774144484"><ele>11.0</ele><time>2026-04-20T10:41:24Z</time></trkpt><trkpt lat="14.462045372577789" lon="120.96265327638314"><ele>10.5</ele><time>2026-04-20T10:41:26Z</time></trkpt><trkpt lat="14.462002069708001" lon="120.96271554632709"><ele>10.0</ele><time>2026-04-20T10:41:28Z</time></trkpt><trkpt lat="14.461975180254312" lon="120.96277772616449"><ele>9.5</ele><time>2026-04-20T10:41:31Z</time></trkpt><trkpt lat="14.461910973356362" lon="120.96281718020197"><ele>9.0</ele><time>2026-04-20T10:41:34Z</time></trkpt><trkpt lat="14.461948523800793" lon="120.96287653188097"><ele>8.5</ele><time>2026-04-20T10:43:08.999Z</time></trkpt><trkpt lat="14.46193559735255" lon="120.96295229868345"><ele>8.0</ele><time>2026-04-20T10:43:11.999Z</time></trkpt><trkpt lat="14.461965413017344" lon="120.96305599541708"><ele>7.999999999999999</ele><time>2026-04-20T10:43:13.999Z</time></trkpt><trkpt lat="14.462013513012302" lon="120.96315226355165"><ele>8.0</ele><time>2026-04-20T10:43:16.999Z</time></trkpt><trkpt lat="14.46208323343666" lon="120.96325438682412"><ele>8.0</ele><time>2026-04-20T10:43:18.999Z</time></trkpt><trkpt lat="14.462118715635555" lon="120.96331462370404"><ele>8.0</ele><time>2026-04-20T10:43:19.999Z</time></trkpt><trkpt lat="14.462156209573337" lon="120.96337901211507"><ele>7.999999999999999</ele><time>2026-04-20T10:43:20.999Z</time></trkpt><trkpt lat="14.462193729337153" lon="120.96344841713257"><ele>8.0</ele><time>2026-04-20T10:43:22Z</time></trkpt><trkpt lat="14.462231383353057" lon="120.9635163118229"><ele>8.166666666666666</ele><time>2026-04-20T10:43:23Z</time></trkpt><trkpt lat="14.462278596304845" lon="120.96358695751995"><ele>8.333333333333332</ele><time>2026-04-20T10:43:24Z</time></trkpt><trkpt lat="14.462331564424638" lon="120.96365806207064"><ele>8.5</ele><time>2026-04-20T10:43:25Z</time></trkpt><trkpt lat="14.462384889855306" lon="120.96373482371358"><ele>8.666666666666666</ele><time>2026-04-20T10:43:26Z</time></trkpt><trkpt lat="14.462436126767841" lon="120.96381413388941"><ele>8.833333333333334</ele><time>2026-04-20T10:43:27Z</time></trkpt><trkpt lat="14.462477833238053" lon="120.963884665359"><ele>9.0</ele><time>2026-04-20T10:43:28Z</time></trkpt><trkpt lat="14.462516943003495" lon="120.96394753786596"><ele>9.0</ele><time>2026-04-20T10:43:29Z</time></trkpt><trkpt lat="14.46255799179995" lon="120.96400779760839"><ele>9.0</ele><time>2026-04-20T10:43:30Z</time></trkpt><trkpt lat="14.462591591074334" lon="120.96406335244514"><ele>9.0</ele><time>2026-04-20T10:43:31Z</time></trkpt><trkpt lat="14.462639561074893" lon="120.96414609744778"><ele>9.0</ele><time>2026-04-20T10:43:33Z</time></trkpt><trkpt lat="14.46267917559944" lon="120.96422041841055"><ele>9.0</ele><time>2026-04-20T10:43:35Z</time></trkpt><trkpt lat="14.462758115670956" lon="120.96432308133808"><ele>9.0</ele><time>2026-04-20T10:43:37Z</time></trkpt><trkpt lat="14.462799969918139" lon="120.96439340949759"><ele>8.833333333333334</ele><time>2026-04-20T10:43:38Z</time></trkpt><trkpt lat="14.462846250472095" lon="120.96446298547974"><ele>8.666666666666666</ele><time>2026-04-20T10:43:39Z</time></trkpt><trkpt lat="14.46289191939564" lon="120.96453281547103"><ele>8.5</ele><time>2026-04-20T10:43:40Z</time></trkpt><trkpt lat="14.462943144610934" lon="120.96461015355611"><ele>8.333333333333332</ele><time>2026-04-20T10:43:41Z</time></trkpt><trkpt lat="14.462986387674704" lon="120.96468061075826"><ele>8.166666666666666</ele><time>2026-04-20T10:43:42Z</time></trkpt><trkpt lat="14.463029846788562" lon="120.96474879837656"><ele>8.0</ele><time>2026-04-20T10:43:43Z</time></trkpt><trkpt lat="14.463074664870446" lon="120.96481916173633"><ele>7.999999999999999</ele><time>2026-04-20T10:43:44Z</time></trkpt><trkpt lat="14.463124110637025" lon="120.96489475827639"><ele>8.0</ele><time>2026-04-20T10:43:45Z</time></trkpt><trkpt lat="14.463169804345613" lon="120.96496054279774"><ele>8.0</ele><time>2026-04-20T10:43:46Z</time></trkpt><trkpt lat="14.463210851852631" lon="120.96501998192535"><ele>8.0</ele><time>2026-04-20T10:43:47Z</time></trkpt><trkpt lat="14.463259981063143" lon="120.96509496984712"><ele>7.999999999999999</ele><time>2026-04-20T10:43:49Z</time></trkpt><trkpt lat="14.46330165403945" lon="120.9651570325077"><ele>8.0</ele><time>2026-04-20T10:43:52Z</time></trkpt><trkpt lat="14.463346554078782" lon="120.96521433864491"><ele>8.200000000000001</ele><time>2026-04-20T10:43:54Z</time></trkpt><trkpt lat="14.463397126059887" lon="120.96529550498039"><ele>8.4</ele><time>2026-04-20T10:43:56Z</time></trkpt><trkpt lat="14.463453285159751" lon="120.96538575446871"><ele>8.600000000000001</ele><time>2026-04-20T10:43:58Z</time></trkpt><trkpt lat="14.463508130528579" lon="120.96546578963073"><ele>8.8</ele><time>2026-04-20T10:44:00Z</time></trkpt><trkpt lat="14.463575131427477" lon="120.96556379955231"><ele>9.0</ele><time>2026-04-20T10:44:02Z</time></trkpt><trkpt lat="14.463610096220123" lon="120.96561811485752"><ele>9.0</ele><time>2026-04-20T10:44:03Z</time></trkpt><trkpt lat="14.463650127415361" lon="120.96567354136913"><ele>9.0</ele><time>2026-04-20T10:44:04Z</time></trkpt><trkpt lat="14.46372618039594" lon="120.96577012163868"><ele>9.0</ele><time>2026-04-20T10:44:06Z</time></trkpt><trkpt lat="14.463788348118731" lon="120.96585792438749"><ele>9.0</ele><time>2026-04-20T10:44:08Z</time></trkpt><trkpt lat="14.4638298731994" lon="120.96593042598069"><ele>9.0</ele><time>2026-04-20T10:44:11Z</time></trkpt><trkpt lat="14.463863226383923" lon="120.9659948625436"><ele>9.0</ele><time>2026-04-20T10:44:13Z</time></trkpt><trkpt lat="14.463914355588752" lon="120.9660912081512"><ele>9.0</ele><time>2026-04-20T10:44:15Z</time></trkpt><trkpt lat="14.463961732351063" lon="120.96615732506577"><ele>9.0</ele><time>2026-04-20T10:44:17Z</time></trkpt><trkpt lat="14.464009978553213" lon="120.96622889977361"><ele>9.0</ele><time>2026-04-20T10:44:19Z</time></trkpt><trkpt lat="14.464041486321761" lon="120.96628832204956"><ele>9.0</ele><time>2026-04-20T10:44:20Z</time></trkpt><trkpt lat="14.46408499001097" lon="120.96636380934324"><ele>9.0</ele><time>2026-04-20T10:44:21Z</time></trkpt><trkpt lat="14.464132642132551" lon="120.96643841154317"><ele>9.0</ele><time>2026-04-20T10:44:22Z</time></trkpt><trkpt lat="14.464182624422405" lon="120.96651760097163"><ele>9.0</ele><time>2026-04-20T10:44:23Z</time></trkpt><trkpt lat="14.464245923996813" lon="120.96661693407655"><ele>9.0</ele><time>2026-04-20T10:44:25Z</time></trkpt><trkpt lat="14.464279692915932" lon="120.96667943856906"><ele>9.0</ele><time>2026-04-20T10:44:26Z</time></trkpt><trkpt lat="14.464312170342684" lon="120.96674176967863"><ele>9.0</ele><time>2026-04-20T10:44:27Z</time></trkpt><trkpt lat="14.464355834742054" lon="120.96681023432596"><ele>9.0</ele><time>2026-04-20T10:44:28Z</time></trkpt><trkpt lat="14.464397208980975" lon="120.96687714823176"><ele>9.0</ele><time>2026-04-20T10:44:29Z</time></trkpt><trkpt lat="14.46444007834339" lon="120.96694230638958"><ele>8.857142857142858</ele><time>2026-04-20T10:44:30Z</time></trkpt><trkpt lat="14.464485773895754" lon="120.96700413018702"><ele>8.714285714285715</ele><time>2026-04-20T10:44:31Z</time></trkpt><trkpt lat="14.464532845155038" lon="120.96706929956771"><ele>8.571428571428571</ele><time>2026-04-20T10:44:32Z</time></trkpt><trkpt lat="14.464579744814623" lon="120.96711968050961"><ele>8.428571428571429</ele><time>2026-04-20T10:44:33Z</time></trkpt><trkpt lat="14.46463001537664" lon="120.9671669000859"><ele>8.285714285714285</ele><time>2026-04-20T10:44:34Z</time></trkpt><trkpt lat="14.464690040784468" lon="120.96721450929218"><ele>8.142857142857142</ele><time>2026-04-20T10:44:35Z</time></trkpt><trkpt lat="14.46475484893552" lon="120.96726353034232"><ele>8.0</ele><time>2026-04-20T10:44:36Z</time></trkpt><trkpt lat="14.464825988820133" lon="120.96731511884494"><ele>8.333333333333332</ele><time>2026-04-20T10:44:37Z</time></trkpt><trkpt lat="14.46489739014278" lon="120.96736878383402"><ele>8.666666666666666</ele><time>2026-04-20T10:44:38Z</time></trkpt><trkpt lat="14.46497295904288" lon="120.96742417441513"><ele>9.0</ele><time>2026-04-20T10:44:39Z</time></trkpt><trkpt lat="14.46504233621837" lon="120.96747586762116"><ele>9.333333333333334</ele><time>2026-04-20T10:44:40Z</time></trkpt><trkpt lat="14.46509916912416" lon="120.96751683653957"><ele>9.666666666666668</ele><time>2026-04-20T10:44:41Z</time></trkpt><trkpt lat="14.465191352761307" lon="120.96758509534614"><ele>10.0</ele><time>2026-04-20T10:44:43Z</time></trkpt><trkpt lat="14.465255184887607" lon="120.96762959835466"><ele>10.0</ele><time>2026-04-20T10:44:44Z</time></trkpt><trkpt lat="14.465317560501331" lon="120.9676713667246"><ele>10.0</ele><time>2026-04-20T10:44:45Z</time></trkpt><trkpt lat="14.465384604207935" lon="120.96770608701796"><ele>10.0</ele><time>2026-04-20T10:44:46Z</time></trkpt><trkpt lat="14.465448627304248" lon="120.96774393332498"><ele>10.0</ele><time>2026-04-20T10:44:47Z</time></trkpt><trkpt lat="14.465504986419127" lon="120.9677829589337"><ele>10.0</ele><time>2026-04-20T10:44:48Z</time></trkpt><trkpt lat="14.465577926246374" lon="120.96785304184279"><ele>10.0</ele><time>2026-04-20T10:44:50Z</time></trkpt><trkpt lat="14.465633028879926" lon="120.96788562820053"><ele>9.4</ele><time>2026-04-20T10:46:06Z</time></trkpt><trkpt lat="14.465693905226095" lon="120.96793245789873"><ele>8.8</ele><time>2026-04-20T10:46:10Z</time></trkpt><trkpt lat="14.465803365735646" lon="120.96802286430922"><ele>8.2</ele><time>2026-04-20T10:46:12Z</time></trkpt><trkpt lat="14.465864120786552" lon="120.9680745476357"><ele>7.6</ele><time>2026-04-20T10:46:13Z</time></trkpt><trkpt lat="14.465932217402212" lon="120.96812876807374"><ele>7.0</ele><time>2026-04-20T10:46:14Z</time></trkpt><trkpt lat="14.466009433105246" lon="120.9682001116728"><ele>7.0</ele><time>2026-04-20T10:46:15Z</time></trkpt><trkpt lat="14.46608058011986" lon="120.96827999288782"><ele>6.999999999999999</ele><time>2026-04-20T10:46:16Z</time></trkpt><trkpt lat="14.466146241136007" lon="120.96830652180391"><ele>6.999999999999999</ele><time>2026-04-20T10:46:17Z</time></trkpt><trkpt lat="14.46622905580948" lon="120.96836954242204"><ele>7.0</ele><time>2026-04-20T10:46:18Z</time></trkpt><trkpt lat="14.466319201150808" lon="120.96844019077807"><ele>7.0</ele><time>2026-04-20T10:46:19Z</time></trkpt><trkpt lat="14.466401224838581" lon="120.96851325226076"><ele>7.199999999999999</ele><time>2026-04-20T10:46:20Z</time></trkpt><trkpt lat="14.466485467484992" lon="120.96857978465104"><ele>7.3999999999999995</ele><time>2026-04-20T10:46:21Z</time></trkpt><trkpt lat="14.466561048516187" lon="120.96864753871331"><ele>7.6000000000000005</ele><time>2026-04-20T10:46:22Z</time></trkpt><trkpt lat="14.466627049670645" lon="120.9687135185198"><ele>7.800000000000001</ele><time>2026-04-20T10:46:23Z</time></trkpt><trkpt lat="14.466691929161549" lon="120.96877707409584"><ele>8.0</ele><time>2026-04-20T10:46:24Z</time></trkpt><trkpt lat="14.466760779321492" lon="120.96883549174846"><ele>8.0</ele><time>2026-04-20T10:46:25Z</time></trkpt><trkpt lat="14.466835915035249" lon="120.96889243571546"><ele>8.0</ele><time>2026-04-20T10:46:26Z</time></trkpt><trkpt lat="14.46691279249245" lon="120.96895256338411"><ele>8.0</ele><time>2026-04-20T10:46:27Z</time></trkpt><trkpt lat="14.466986981918897" lon="120.96900924144161"><ele>8.0</ele><time>2026-04-20T10:46:28Z</time></trkpt><trkpt lat="14.467060352969858" lon="120.96906342042917"><ele>8.0</ele><time>2026-04-20T10:46:29Z</time></trkpt><trkpt lat="14.46714535099989" lon="120.96912998559651"><ele>7.800000000000001</ele><time>2026-04-20T10:46:30Z</time></trkpt><trkpt lat="14.467228422337685" lon="120.9692005990109"><ele>7.6000000000000005</ele><time>2026-04-20T10:46:31Z</time></trkpt><trkpt lat="14.467314982334456" lon="120.96926986540714"><ele>7.3999999999999995</ele><time>2026-04-20T10:46:32Z</time></trkpt><trkpt lat="14.467398691343218" lon="120.96933488464705"><ele>7.199999999999999</ele><time>2026-04-20T10:46:33Z</time></trkpt><trkpt lat="14.467476019901648" lon="120.96939352783814"><ele>7.0</ele><time>2026-04-20T10:46:34Z</time></trkpt><trkpt lat="14.467551735093435" lon="120.96945126811482"><ele>7.0</ele><time>2026-04-20T10:46:35Z</time></trkpt><trkpt lat="14.467631745037151" lon="120.96951808154468"><ele>6.999999999999999</ele><time>2026-04-20T10:46:36Z</time></trkpt><trkpt lat="14.467716807915783" lon="120.96958135652179"><ele>6.999999999999999</ele><time>2026-04-20T10:46:37Z</time></trkpt><trkpt lat="14.467794852616136" lon="120.96964855800552"><ele>7.0</ele><time>2026-04-20T10:46:38Z</time></trkpt><trkpt lat="14.4678757720886" lon="120.96970615949323"><ele>7.0</ele><time>2026-04-20T10:46:39Z</time></trkpt><trkpt lat="14.467945349979402" lon="120.96975533867734"><ele>7.000000000000001</ele><time>2026-04-20T10:46:40Z</time></trkpt><trkpt lat="14.468012965882876" lon="120.96980006155616"><ele>7.0</ele><time>2026-04-20T10:46:41Z</time></trkpt><trkpt lat="14.468083037337342" lon="120.96984214118372"><ele>7.0</ele><time>2026-04-20T10:46:42Z</time></trkpt><trkpt lat="14.46813816437609" lon="120.96987561853012"><ele>7.0</ele><time>2026-04-20T10:46:43Z</time></trkpt><trkpt lat="14.46824989611313" lon="120.96994333327369"><ele>7.000000000000001</ele><time>2026-04-20T10:46:45Z</time></trkpt><trkpt lat="14.468317244688452" lon="120.96996957401176"><ele>7.0</ele><time>2026-04-20T10:46:46Z</time></trkpt><trkpt lat="14.468383542500566" lon="120.96999584389047"><ele>7.0</ele><time>2026-04-20T10:46:47Z</time></trkpt><trkpt lat="14.468448237373064" lon="120.97002273675032"><ele>6.999999999999999</ele><time>2026-04-20T10:46:48Z</time></trkpt><trkpt lat="14.468536241374105" lon="120.97004799178602"><ele>6.999999999999999</ele><time>2026-04-20T10:46:49Z</time></trkpt><trkpt lat="14.46862952094983" lon="120.97007920732122"><ele>7.0</ele><time>2026-04-20T10:46:50Z</time></trkpt><trkpt lat="14.468730659755826" lon="120.97011214490308"><ele>7.0</ele><time>2026-04-20T10:46:51Z</time></trkpt><trkpt lat="14.468815436030905" lon="120.97014743707429"><ele>7.166666666666667</ele><time>2026-04-20T10:46:52Z</time></trkpt><trkpt lat="14.468898571992789" lon="120.97018650823127"><ele>7.333333333333334</ele><time>2026-04-20T10:46:53Z</time></trkpt><trkpt lat="14.468962984269268" lon="120.97023302814266"><ele>7.5</ele><time>2026-04-20T10:46:54Z</time></trkpt><trkpt lat="14.469035332767287" lon="120.97028749272783"><ele>7.666666666666666</ele><time>2026-04-20T10:46:55Z</time></trkpt><trkpt lat="14.469107254537386" lon="120.97035111003989"><ele>7.833333333333333</ele><time>2026-04-20T10:46:56Z</time></trkpt><trkpt lat="14.469169117413458" lon="120.97041782417713"><ele>8.0</ele><time>2026-04-20T10:46:57Z</time></trkpt><trkpt lat="14.469235882204933" lon="120.97049027059514"><ele>8.0</ele><time>2026-04-20T10:46:58Z</time></trkpt><trkpt lat="14.469292381652675" lon="120.97055928824709"><ele>8.0</ele><time>2026-04-20T10:46:59Z</time></trkpt><trkpt lat="14.469354511042534" lon="120.97062763423853"><ele>8.0</ele><time>2026-04-20T10:47:00Z</time></trkpt><trkpt lat="14.46941593514466" lon="120.97069663854938"><ele>8.0</ele><time>2026-04-20T10:47:01Z</time></trkpt><trkpt lat="14.469480646934702" lon="120.97077282429233"><ele>8.0</ele><time>2026-04-20T10:47:02Z</time></trkpt><trkpt lat="14.469540580617624" lon="120.97084679308276"><ele>7.833333333333333</ele><time>2026-04-20T10:47:02.999Z</time></trkpt><trkpt lat="14.469591076633238" lon="120.97091096022477"><ele>7.666666666666666</ele><time>2026-04-20T10:47:03.999Z</time></trkpt><trkpt lat="14.469634725313874" lon="120.97096737418657"><ele>7.5</ele><time>2026-04-20T10:47:04.999Z</time></trkpt><trkpt lat="14.469720109286627" lon="120.97106742073288"><ele>7.333333333333334</ele><time>2026-04-20T10:47:06.999Z</time></trkpt><trkpt lat="14.46977140191386" lon="120.97112100686383"><ele>7.166666666666667</ele><time>2026-04-20T10:47:07.999Z</time></trkpt><trkpt lat="14.46982791426007" lon="120.97118706189887"><ele>7.0</ele><time>2026-04-20T10:47:08.999Z</time></trkpt><trkpt lat="14.46988862485488" lon="120.97126185469153"><ele>7.0</ele><time>2026-04-20T10:47:09.999Z</time></trkpt><trkpt lat="14.469953514162091" lon="120.97133850242233"><ele>6.999999999999999</ele><time>2026-04-20T10:47:10.999Z</time></trkpt><trkpt lat="14.470018898534157" lon="120.97141509646504"><ele>6.999999999999999</ele><time>2026-04-20T10:47:11.999Z</time></trkpt><trkpt lat="14.470084768785359" lon="120.97150347040075"><ele>7.0</ele><time>2026-04-20T10:47:12.999Z</time></trkpt><trkpt lat="14.470137763916062" lon="120.97158520948659"><ele>7.0</ele><time>2026-04-20T10:47:13.999Z</time></trkpt><trkpt lat="14.470198269400221" lon="120.97167189254733"><ele>7.000000000000001</ele><time>2026-04-20T10:47:14.999Z</time></trkpt><trkpt lat="14.47025400800398" lon="120.97174924512541"><ele>7.0</ele><time>2026-04-20T10:47:15.999Z</time></trkpt><trkpt lat="14.470310687112315" lon="120.97183208143467"><ele>7.0</ele><time>2026-04-20T10:47:16.999Z</time></trkpt><trkpt lat="14.470366959117863" lon="120.97191176611629"><ele>7.0</ele><time>2026-04-20T10:47:17.999Z</time></trkpt><trkpt lat="14.470413065964197" lon="120.97198598048432"><ele>7.000000000000001</ele><time>2026-04-20T10:47:18.999Z</time></trkpt><trkpt lat="14.470450064911986" lon="120.97204273884452"><ele>7.0</ele><time>2026-04-20T10:47:19.999Z</time></trkpt><trkpt lat="14.470488837385119" lon="120.97211158526113"><ele>7.000000000000001</ele><time>2026-04-20T10:47:21.999Z</time></trkpt><trkpt lat="14.470529685282772" lon="120.97218152087542"><ele>7.0</ele><time>2026-04-20T10:47:24.999Z</time></trkpt><trkpt lat="14.470568638357381" lon="120.97223814322228"><ele>7.0</ele><time>2026-04-20T10:47:27.999Z</time></trkpt><trkpt lat="14.470622087810629" lon="120.97231056258516"><ele>7.0</ele><time>2026-04-20T10:47:30.999Z</time></trkpt><trkpt lat="14.47068135352179" lon="120.97240520251025"><ele>7.000000000000001</ele><time>2026-04-20T10:47:33.999Z</time></trkpt><trkpt lat="14.470729220688904" lon="120.97248724043682"><ele>7.0</ele><time>2026-04-20T10:47:35.999Z</time></trkpt><trkpt lat="14.470779170542139" lon="120.97256301383553"><ele>7.0</ele><time>2026-04-20T10:47:37.999Z</time></trkpt><trkpt lat="14.47083533122855" lon="120.97266398768693"><ele>6.999999999999999</ele><time>2026-04-20T10:47:39.999Z</time></trkpt><trkpt lat="14.470890964577375" lon="120.97275174946023"><ele>6.999999999999999</ele><time>2026-04-20T10:47:41.999Z</time></trkpt><trkpt lat="14.470937083135587" lon="120.97284018631593"><ele>7.0</ele><time>2026-04-20T10:47:43.999Z</time></trkpt><trkpt lat="14.470993854107393" lon="120.97294223935405"><ele>7.0</ele><time>2026-04-20T10:47:45.999Z</time></trkpt><trkpt lat="14.471032851113799" lon="120.9730115422976"><ele>7.000000000000001</ele><time>2026-04-20T10:47:46.999Z</time></trkpt><trkpt lat="14.471062953318784" lon="120.97308002995652"><ele>7.0</ele><time>2026-04-20T10:47:47.999Z</time></trkpt><trkpt lat="14.47109866191691" lon="120.97314559835966"><ele>7.0</ele><time>2026-04-20T10:47:48.999Z</time></trkpt><trkpt lat="14.471129774689992" lon="120.97320894241263"><ele>7.0</ele><time>2026-04-20T10:47:49.999Z</time></trkpt><trkpt lat="14.471184310999027" lon="120.97331102677097"><ele>7.000000000000001</ele><time>2026-04-20T10:47:51.999Z</time></trkpt><trkpt lat="14.4712329817592" lon="120.97341527799668"><ele>7.0</ele><time>2026-04-20T10:47:53.999Z</time></trkpt><trkpt lat="14.47128617602151" lon="120.9735267926528"><ele>6.833333333333334</ele><time>2026-04-20T10:47:55.999Z</time></trkpt><trkpt lat="14.47131652009163" lon="120.97358968355978"><ele>6.666666666666667</ele><time>2026-04-20T10:47:56.999Z</time></trkpt><trkpt lat="14.471346987592963" lon="120.97365583539175"><ele>6.5</ele><time>2026-04-20T10:47:57.999Z</time></trkpt><trkpt lat="14.47137638999916" lon="120.97372205881724"><ele>6.333333333333334</ele><time>2026-04-20T10:47:58.999Z</time></trkpt><trkpt lat="14.471406697815286" lon="120.97378080774305"><ele>6.166666666666667</ele><time>2026-04-20T10:47:59.999Z</time></trkpt><trkpt lat="14.471444656116251" lon="120.97388068117958"><ele>6.0</ele><time>2026-04-20T10:48:01.999Z</time></trkpt><trkpt lat="14.471479827147373" lon="120.97395929616141"><ele>6.0</ele><time>2026-04-20T10:48:03.999Z</time></trkpt><trkpt lat="14.471511892167182" lon="120.97403447680138"><ele>6.0</ele><time>2026-04-20T10:48:05.999Z</time></trkpt><trkpt lat="14.471550048730041" lon="120.97411077267694"><ele>6.0</ele><time>2026-04-20T10:48:07.999Z</time></trkpt><trkpt lat="14.471600910212592" lon="120.97421924746016"><ele>6.0</ele><time>2026-04-20T10:48:09.999Z</time></trkpt><trkpt lat="14.471631264426179" lon="120.97428036280499"><ele>6.0</ele><time>2026-04-20T10:48:10.999Z</time></trkpt><trkpt lat="14.471682847943026" lon="120.97438094258267"><ele>6.199999999999999</ele><time>2026-04-20T10:48:12.999Z</time></trkpt><trkpt lat="14.47173475572237" lon="120.97448717731224"><ele>6.3999999999999995</ele><time>2026-04-20T10:48:14.999Z</time></trkpt><trkpt lat="14.471792155541635" lon="120.97459940325288"><ele>6.6</ele><time>2026-04-20T10:48:16.999Z</time></trkpt><trkpt lat="14.471831476857616" lon="120.97466916307948"><ele>6.8</ele><time>2026-04-20T10:48:17.999Z</time></trkpt><trkpt lat="14.471868088179916" lon="120.97474748772842"><ele>7.0</ele><time>2026-04-20T10:48:18.999Z</time></trkpt><trkpt lat="14.471914486496978" lon="120.9748183435779"><ele>7.0</ele><time>2026-04-20T10:48:19.999Z</time></trkpt><trkpt lat="14.471957511397704" lon="120.97490181998913"><ele>6.999999999999999</ele><time>2026-04-20T10:48:20.999Z</time></trkpt><trkpt lat="14.472009300366862" lon="120.97498405909516"><ele>6.999999999999999</ele><time>2026-04-20T10:48:21.999Z</time></trkpt><trkpt lat="14.472066530266913" lon="120.9750723757559"><ele>7.0</ele><time>2026-04-20T10:48:22.999Z</time></trkpt><trkpt lat="14.47211996277276" lon="120.97515970310641"><ele>7.0</ele><time>2026-04-20T10:48:23.999Z</time></trkpt><trkpt lat="14.472173198846255" lon="120.97523688627624"><ele>7.000000000000001</ele><time>2026-04-20T10:48:24.999Z</time></trkpt><trkpt lat="14.472222175241862" lon="120.97530720136385"><ele>7.0</ele><time>2026-04-20T10:48:25.999Z</time></trkpt><trkpt lat="14.472267061974897" lon="120.97537281870865"><ele>7.0</ele><time>2026-04-20T10:48:26.999Z</time></trkpt><trkpt lat="14.472311838186727" lon="120.97543205489748"><ele>7.0</ele><time>2026-04-20T10:48:27.999Z</time></trkpt><trkpt lat="14.472355072491204" lon="120.97549487731253"><ele>7.000000000000001</ele><time>2026-04-20T10:48:28.999Z</time></trkpt><trkpt lat="14.472396597687876" lon="120.97555676499667"><ele>7.0</ele><time>2026-04-20T10:48:29.999Z</time></trkpt><trkpt lat="14.472441178542862" lon="120.97560997644273"><ele>7.0</ele><time>2026-04-20T10:48:30.999Z</time></trkpt><trkpt lat="14.472511181091345" lon="120.97570364041017"><ele>6.999999999999999</ele><time>2026-04-20T10:48:32.999Z</time></trkpt><trkpt lat="14.472590836532351" lon="120.97579208124901"><ele>6.999999999999999</ele><time>2026-04-20T10:48:35Z</time></trkpt><trkpt lat="14.472642175509675" lon="120.97584905149924"><ele>7.0</ele><time>2026-04-20T10:48:36Z</time></trkpt><trkpt lat="14.47268856109846" lon="120.97590503039007"><ele>7.0</ele><time>2026-04-20T10:48:37Z</time></trkpt><trkpt lat="14.472745581043059" lon="120.97596894875554"><ele>7.000000000000001</ele><time>2026-04-20T10:48:38Z</time></trkpt><trkpt lat="14.472797124820481" lon="120.97603136455346"><ele>7.0</ele><time>2026-04-20T10:48:39Z</time></trkpt><trkpt lat="14.472845650689937" lon="120.97609006341756"><ele>7.0</ele><time>2026-04-20T10:48:40Z</time></trkpt><trkpt lat="14.472889892005506" lon="120.97614408261987"><ele>7.0</ele><time>2026-04-20T10:48:41Z</time></trkpt><trkpt lat="14.472942452402064" lon="120.97620749446638"><ele>7.000000000000001</ele><time>2026-04-20T10:48:42Z</time></trkpt><trkpt lat="14.47299234009538" lon="120.9762769243505"><ele>7.0</ele><time>2026-04-20T10:48:43Z</time></trkpt><trkpt lat="14.473038757169885" lon="120.97634604944066"><ele>7.000000000000001</ele><time>2026-04-20T10:48:44Z</time></trkpt><trkpt lat="14.47308032777618" lon="120.97640123463346"><ele>7.0</ele><time>2026-04-20T10:48:45Z</time></trkpt><trkpt lat="14.47314103818172" lon="120.97647582696138"><ele>7.0</ele><time>2026-04-20T10:48:47Z</time></trkpt><trkpt lat="14.473191904160286" lon="120.97653394498454"><ele>7.0</ele><time>2026-04-20T10:48:49Z</time></trkpt><trkpt lat="14.4732282990781" lon="120.97659231459104"><ele>7.000000000000001</ele><time>2026-04-20T10:48:52Z</time></trkpt><trkpt lat="14.473279384128144" lon="120.97665811922113"><ele>7.0</ele><time>2026-04-20T10:48:56Z</time></trkpt><trkpt lat="14.47332722058226" lon="120.97671666000001"><ele>6.833333333333334</ele><time>2026-04-20T10:48:59Z</time></trkpt><trkpt lat="14.473374179543113" lon="120.97677815444281"><ele>6.666666666666667</ele><time>2026-04-20T10:49:03Z</time></trkpt><trkpt lat="14.473414591028744" lon="120.97684026247586"><ele>6.5</ele><time>2026-04-20T10:49:05Z</time></trkpt><trkpt lat="14.473458342814597" lon="120.97690689014436"><ele>6.333333333333334</ele><time>2026-04-20T10:49:07Z</time></trkpt><trkpt lat="14.473507950675717" lon="120.97697964804081"><ele>6.166666666666667</ele><time>2026-04-20T10:49:08.999Z</time></trkpt><trkpt lat="14.473548390123518" lon="120.97704951386736"><ele>6.0</ele><time>2026-04-20T10:49:10.999Z</time></trkpt><trkpt lat="14.473598741630186" lon="120.97713308043194"><ele>6.0</ele><time>2026-04-20T10:49:12.999Z</time></trkpt><trkpt lat="14.473645567164164" lon="120.97721924335393"><ele>6.0</ele><time>2026-04-20T10:49:14.999Z</time></trkpt><trkpt lat="14.473694066879801" lon="120.97731414880023"><ele>6.0</ele><time>2026-04-20T10:49:16.999Z</time></trkpt><trkpt lat="14.47373742186154" lon="120.97738832706861"><ele>6.0</ele><time>2026-04-20T10:49:18.999Z</time></trkpt><trkpt lat="14.473783647438665" lon="120.97747163405946"><ele>6.0</ele><time>2026-04-20T10:49:21.999Z</time></trkpt><trkpt lat="14.473827130677652" lon="120.97754407218697"><ele>6.0</ele><time>2026-04-20T10:49:23.999Z</time></trkpt><trkpt lat="14.473881284687057" lon="120.97763344352647"><ele>6.0</ele><time>2026-04-20T10:49:25.999Z</time></trkpt><trkpt lat="14.473942461922396" lon="120.977736697726"><ele>6.0</ele><time>2026-04-20T10:49:27.999Z</time></trkpt><trkpt lat="14.473972250505659" lon="120.97779401672256"><ele>6.0</ele><time>2026-04-20T10:49:28.999Z</time></trkpt><trkpt lat="14.473999493701399" lon="120.97785852742489"><ele>6.0</ele><time>2026-04-20T10:49:29.999Z</time></trkpt><trkpt lat="14.474017960366972" lon="120.97792860544027"><ele>6.0</ele><time>2026-04-20T10:49:30.999Z</time></trkpt><trkpt lat="14.474015616943666" lon="120.97800193541036"><ele>6.0</ele><time>2026-04-20T10:49:31.999Z</time></trkpt><trkpt lat="14.474000394408554" lon="120.97807975668593"><ele>6.0</ele><time>2026-04-20T10:49:33Z</time></trkpt><trkpt lat="14.473970438521427" lon="120.97815383771528"><ele>6.0</ele><time>2026-04-20T10:49:34Z</time></trkpt><trkpt lat="14.473933683362953" lon="120.97824196224025"><ele>6.0</ele><time>2026-04-20T10:49:35Z</time></trkpt><trkpt lat="14.473897397071386" lon="120.97832496381646"><ele>6.0</ele><time>2026-04-20T10:49:36Z</time></trkpt><trkpt lat="14.473859804135266" lon="120.97840556839945"><ele>6.0</ele><time>2026-04-20T10:49:37Z</time></trkpt><trkpt lat="14.473827398060475" lon="120.97848129359103"><ele>6.166666666666667</ele><time>2026-04-20T10:49:38Z</time></trkpt><trkpt lat="14.473800221237434" lon="120.97854950564147"><ele>6.333333333333334</ele><time>2026-04-20T10:49:39Z</time></trkpt><trkpt lat="14.473774485216506" lon="120.97861296807469"><ele>6.5</ele><time>2026-04-20T10:49:40Z</time></trkpt><trkpt lat="14.47374977114758" lon="120.97868289217303"><ele>6.666666666666667</ele><time>2026-04-20T10:49:41Z</time></trkpt><trkpt lat="14.473735278806858" lon="120.97875640353928"><ele>6.833333333333334</ele><time>2026-04-20T10:49:42Z</time></trkpt><trkpt lat="14.473725296620222" lon="120.97884789742959"><ele>7.0</ele><time>2026-04-20T10:49:43Z</time></trkpt><trkpt lat="14.473725602840865" lon="120.97893555235478"><ele>6.8</ele><time>2026-04-20T10:49:44Z</time></trkpt><trkpt lat="14.47373199315853" lon="120.9790280549748"><ele>6.6</ele><time>2026-04-20T10:49:45Z</time></trkpt><trkpt lat="14.473731198365517" lon="120.97912073578249"><ele>6.3999999999999995</ele><time>2026-04-20T10:49:46Z</time></trkpt><trkpt lat="14.473734292995744" lon="120.97921603985422"><ele>6.199999999999999</ele><time>2026-04-20T10:49:47Z</time></trkpt><trkpt lat="14.47374645504136" lon="120.97932060482971"><ele>6.0</ele><time>2026-04-20T10:49:48Z</time></trkpt><trkpt lat="14.473762653133385" lon="120.97944258179751"><ele>6.0</ele><time>2026-04-20T10:49:49Z</time></trkpt><trkpt lat="14.473782832589093" lon="120.97955016016809"><ele>6.0</ele><time>2026-04-20T10:49:50Z</time></trkpt><trkpt lat="14.473805668008517" lon="120.97968502211101"><ele>6.0</ele><time>2026-04-20T10:49:51Z</time></trkpt><trkpt lat="14.473830472587311" lon="120.97981497885782"><ele>6.0</ele><time>2026-04-20T10:49:52Z</time></trkpt><trkpt lat="14.473852715260639" lon="120.97995268826982"><ele>5.75</ele><time>2026-04-20T10:49:53Z</time></trkpt><trkpt lat="14.473880025991736" lon="120.98009202087114"><ele>5.5</ele><time>2026-04-20T10:49:54Z</time></trkpt><trkpt lat="14.473918433338174" lon="120.98021259767201"><ele>5.25</ele><time>2026-04-20T10:49:55Z</time></trkpt><trkpt lat="14.473968840404051" lon="120.98032968204309"><ele>5.0</ele><time>2026-04-20T10:49:56Z</time></trkpt><trkpt lat="14.474039665677923" lon="120.98044955703823"><ele>5.0</ele><time>2026-04-20T10:49:57Z</time></trkpt><trkpt lat="14.474117442524285" lon="120.98056914226842"><ele>5.0</ele><time>2026-04-20T10:49:58Z</time></trkpt><trkpt lat="14.474191074023649" lon="120.98068931358448"><ele>5.0</ele><time>2026-04-20T10:49:59Z</time></trkpt><trkpt lat="14.47426525587903" lon="120.98081317709838"><ele>5.0</ele><time>2026-04-20T10:50:00Z</time></trkpt><trkpt lat="14.474339927593663" lon="120.9809392328135"><ele>5.75</ele><time>2026-04-20T10:50:01Z</time></trkpt><trkpt lat="14.474420267630324" lon="120.98105659434447"><ele>6.5</ele><time>2026-04-20T10:50:02Z</time></trkpt><trkpt lat="14.474497453355927" lon="120.9811651839449"><ele>7.25</ele><time>2026-04-20T10:50:03Z</time></trkpt><trkpt lat="14.474570058323527" lon="120.98126228770894"><ele>8.0</ele><time>2026-04-20T10:50:04Z</time></trkpt><trkpt lat="14.47464803917243" lon="120.98135962974236"><ele>8.0</ele><time>2026-04-20T10:50:05Z</time></trkpt><trkpt lat="14.474727993296153" lon="120.98145362415286"><ele>8.0</ele><time>2026-04-20T10:50:06Z</time></trkpt><trkpt lat="14.474823091012901" lon="120.98154733357221"><ele>8.0</ele><time>2026-04-20T10:50:07Z</time></trkpt><trkpt lat="14.474919825887268" lon="120.98164569089525"><ele>8.0</ele><time>2026-04-20T10:50:08Z</time></trkpt><trkpt lat="14.47501712379066" lon="120.98174693925802"><ele>8.0</ele><time>2026-04-20T10:50:09Z</time></trkpt><trkpt lat="14.475112846959238" lon="120.98184742724582"><ele>8.0</ele><time>2026-04-20T10:50:10Z</time></trkpt><trkpt lat="14.475210510675337" lon="120.98194978831404"><ele>8.0</ele><time>2026-04-20T10:50:11Z</time></trkpt><trkpt lat="14.475308992141569" lon="120.9820511372239"><ele>8.0</ele><time>2026-04-20T10:50:12Z</time></trkpt><trkpt lat="14.475414618370902" lon="120.98215759120244"><ele>8.0</ele><time>2026-04-20T10:50:13Z</time></trkpt><trkpt lat="14.475521314009168" lon="120.98226835830933"><ele>8.0</ele><time>2026-04-20T10:50:14Z</time></trkpt><trkpt lat="14.47562723112586" lon="120.98238225226851"><ele>8.0</ele><time>2026-04-20T10:50:15Z</time></trkpt><trkpt lat="14.475733583815815" lon="120.98250231626294"><ele>7.333333333333333</ele><time>2026-04-20T10:50:16Z</time></trkpt><trkpt lat="14.475843874871009" lon="120.98262366131463"><ele>6.666666666666666</ele><time>2026-04-20T10:50:17Z</time></trkpt><trkpt lat="14.475957066555901" lon="120.98274381859832"><ele>6.0</ele><time>2026-04-20T10:50:18Z</time></trkpt><trkpt lat="14.476072412423454" lon="120.98286297236551"><ele>6.0</ele><time>2026-04-20T10:50:19Z</time></trkpt><trkpt lat="14.47618777930228" lon="120.98298069037601"><ele>6.0</ele><time>2026-04-20T10:50:20Z</time></trkpt><trkpt lat="14.476302517665676" lon="120.98309507393297"><ele>6.0</ele><time>2026-04-20T10:50:21Z</time></trkpt><trkpt lat="14.476410994625006" lon="120.98320373523929"><ele>6.199999999999999</ele><time>2026-04-20T10:50:22Z</time></trkpt><trkpt lat="14.476509650680342" lon="120.98330254740038"><ele>6.3999999999999995</ele><time>2026-04-20T10:50:23Z</time></trkpt><trkpt lat="14.476597604828864" lon="120.98338872827162"><ele>6.6</ele><time>2026-04-20T10:50:24Z</time></trkpt><trkpt lat="14.476665395402248" lon="120.9834542787954"><ele>6.8</ele><time>2026-04-20T10:50:25Z</time></trkpt><trkpt lat="14.476727045608687" lon="120.98351868662297"><ele>7.0</ele><time>2026-04-20T10:50:26Z</time></trkpt><trkpt lat="14.47680144703952" lon="120.9835914784005"><ele>7.5</ele><time>2026-04-20T10:50:27Z</time></trkpt><trkpt lat="14.47688971939188" lon="120.98368341385113"><ele>8.0</ele><time>2026-04-20T10:50:28Z</time></trkpt><trkpt lat="14.47697922401985" lon="120.98377541794073"><ele>8.5</ele><time>2026-04-20T10:50:29Z</time></trkpt><trkpt lat="14.477074614792576" lon="120.9838754723437"><ele>9.0</ele><time>2026-04-20T10:50:30Z</time></trkpt><trkpt lat="14.477174716949227" lon="120.98398094052233"><ele>6.666666666666667</ele><time>2026-04-20T10:50:31Z</time></trkpt><trkpt lat="14.477280609757813" lon="120.98409151577226"><ele>4.333333333333333</ele><time>2026-04-20T10:50:32Z</time></trkpt><trkpt lat="14.477390638588487" lon="120.98420480991587"><ele>2.0</ele><time>2026-04-20T10:50:33Z</time></trkpt><trkpt lat="14.477503657683721" lon="120.98431927572281"><ele>2.0</ele><time>2026-04-20T10:50:34Z</time></trkpt><trkpt lat="14.477620286382331" lon="120.98443848537796"><ele>2.0</ele><time>2026-04-20T10:50:35Z</time></trkpt><trkpt lat="14.477741629003416" lon="120.98456338014795"><ele>2.0</ele><time>2026-04-20T10:50:36Z</time></trkpt><trkpt lat="14.477866923602049" lon="120.9846926404923"><ele>3.666666666666667</ele><time>2026-04-20T10:50:37Z</time></trkpt><trkpt lat="14.477994651619936" lon="120.98482391799978"><ele>5.333333333333334</ele><time>2026-04-20T10:50:38Z</time></trkpt><trkpt lat="14.478129210016036" lon="120.98495957149143"><ele>7.0</ele><time>2026-04-20T10:50:39Z</time></trkpt><trkpt lat="14.4782636142243" lon="120.98509066964903"><ele>8.333333333333334</ele><time>2026-04-20T10:50:40Z</time></trkpt><trkpt lat="14.478389694198698" lon="120.9852125556822"><ele>9.666666666666666</ele><time>2026-04-20T10:50:41Z</time></trkpt><trkpt lat="14.47850175092351" lon="120.98532502384772"><ele>11.0</ele><time>2026-04-20T10:50:42Z</time></trkpt><trkpt lat="14.478607137287103" lon="120.98543259772346"><ele>11.0</ele><time>2026-04-20T10:50:43Z</time></trkpt><trkpt lat="14.478703254397109" lon="120.98552767965296"><ele>11.0</ele><time>2026-04-20T10:50:44Z</time></trkpt><trkpt lat="14.478785147593355" lon="120.98561270257825"><ele>11.0</ele><time>2026-04-20T10:50:45Z</time></trkpt><trkpt lat="14.478846949701857" lon="120.98567935557155"><ele>11.0</ele><time>2026-04-20T10:50:46Z</time></trkpt><trkpt lat="14.478909326825166" lon="120.98574191095626"><ele>11.0</ele><time>2026-04-20T10:50:48Z</time></trkpt><trkpt lat="14.478990679070254" lon="120.98581650159439"><ele>9.200000000000001</ele><time>2026-04-20T10:50:51Z</time></trkpt><trkpt lat="14.479054304490974" lon="120.98588200421757"><ele>7.4</ele><time>2026-04-20T10:50:52Z</time></trkpt><trkpt lat="14.479121525442894" lon="120.98595144031876"><ele>5.6000000000000005</ele><time>2026-04-20T10:50:53Z</time></trkpt><trkpt lat="14.479207389307774" lon="120.98603621881013"><ele>3.8000000000000003</ele><time>2026-04-20T10:50:54Z</time></trkpt><trkpt lat="14.479301929113365" lon="120.98613454016314"><ele>2.0</ele><time>2026-04-20T10:50:55Z</time></trkpt><trkpt lat="14.479399454443882" lon="120.98623575541642"><ele>2.0</ele><time>2026-04-20T10:50:56Z</time></trkpt><trkpt lat="14.479509069690096" lon="120.9863459386517"><ele>2.0</ele><time>2026-04-20T10:50:57Z</time></trkpt><trkpt lat="14.479621430725347" lon="120.98645974490911"><ele>2.0</ele><time>2026-04-20T10:50:58Z</time></trkpt><trkpt lat="14.479735143957297" lon="120.98658089694652"><ele>2.6666666666666665</ele><time>2026-04-20T10:50:59Z</time></trkpt><trkpt lat="14.479844716955363" lon="120.98670078561908"><ele>3.333333333333333</ele><time>2026-04-20T10:51:00Z</time></trkpt><trkpt lat="14.479949773665396" lon="120.98681310378616"><ele>4.0</ele><time>2026-04-20T10:51:01Z</time></trkpt><trkpt lat="14.480049421528351" lon="120.98691533469344"><ele>4.0</ele><time>2026-04-20T10:51:02Z</time></trkpt><trkpt lat="14.48014357818188" lon="120.98701274420003"><ele>4.0</ele><time>2026-04-20T10:51:03Z</time></trkpt><trkpt lat="14.48024494124863" lon="120.9871080143847"><ele>4.0</ele><time>2026-04-20T10:51:04Z</time></trkpt><trkpt lat="14.48035421314326" lon="120.98720182043971"><ele>4.0</ele><time>2026-04-20T10:51:05Z</time></trkpt><trkpt lat="14.480470512559195" lon="120.9872914251401"><ele>3.75</ele><time>2026-04-20T10:51:06Z</time></trkpt><trkpt lat="14.480589769144178" lon="120.9873780567278"><ele>3.5</ele><time>2026-04-20T10:51:07Z</time></trkpt><trkpt lat="14.480713592355967" lon="120.98745686368346"><ele>3.25</ele><time>2026-04-20T10:51:08Z</time></trkpt><trkpt lat="14.480839443549058" lon="120.98751887624326"><ele>3.0</ele><time>2026-04-20T10:51:09Z</time></trkpt><trkpt lat="14.480962999872114" lon="120.98757818064924"><ele>3.0</ele><time>2026-04-20T10:51:10Z</time></trkpt><trkpt lat="14.481084008125599" lon="120.9876347747752"><ele>3.0</ele><time>2026-04-20T10:51:11Z</time></trkpt><trkpt lat="14.481197051658706" lon="120.98769039106996"><ele>3.0</ele><time>2026-04-20T10:51:12Z</time></trkpt><trkpt lat="14.481312220000843" lon="120.98774807374598"><ele>3.0</ele><time>2026-04-20T10:51:13Z</time></trkpt><trkpt lat="14.481429792549529" lon="120.9878081415939"><ele>0.6666666666666667</ele><time>2026-04-20T10:51:14Z</time></trkpt><trkpt lat="14.481558107807263" lon="120.98787761985072"><ele>-1.6666666666666665</ele><time>2026-04-20T10:51:15Z</time></trkpt><trkpt lat="14.481696356679683" lon="120.98795571118026"><ele>-4.0</ele><time>2026-04-20T10:51:16Z</time></trkpt><trkpt lat="14.481852510930592" lon="120.98802880144568"><ele>-4.0</ele><time>2026-04-20T10:51:17Z</time></trkpt><trkpt lat="14.482011386911992" lon="120.98809693214382"><ele>-4.0</ele><time>2026-04-20T10:51:18Z</time></trkpt><trkpt lat="14.48216025354908" lon="120.9881709371241"><ele>-4.0</ele><time>2026-04-20T10:51:19Z</time></trkpt><trkpt lat="14.482302137609214" lon="120.988241093489"><ele>-2.0</ele><time>2026-04-20T10:51:20Z</time></trkpt><trkpt lat="14.482454642431671" lon="120.98831630220792"><ele>0.0</ele><time>2026-04-20T10:51:21Z</time></trkpt><trkpt lat="14.482601444188193" lon="120.98838641019009"><ele>2.0</ele><time>2026-04-20T10:51:22Z</time></trkpt><trkpt lat="14.482721425068718" lon="120.98846020371641"><ele>2.25</ele><time>2026-04-20T10:51:23Z</time></trkpt><trkpt lat="14.482826837921909" lon="120.98854270128844"><ele>2.5</ele><time>2026-04-20T10:51:24Z</time></trkpt><trkpt lat="14.482919024074244" lon="120.98864198214058"><ele>2.75</ele><time>2026-04-20T10:51:25Z</time></trkpt><trkpt lat="14.48298513623223" lon="120.98875268446568"><ele>3.0</ele><time>2026-04-20T10:51:26Z</time></trkpt><trkpt lat="14.483042292865742" lon="120.98887274674902"><ele>3.0</ele><time>2026-04-20T10:51:27Z</time></trkpt><trkpt lat="14.483097591213832" lon="120.988989589083"><ele>3.0</ele><time>2026-04-20T10:51:28Z</time></trkpt><trkpt lat="14.483160987844313" lon="120.98911701619846"><ele>3.0</ele><time>2026-04-20T10:51:29Z</time></trkpt><trkpt lat="14.483222481277028" lon="120.9892444132411"><ele>3.0</ele><time>2026-04-20T10:51:30Z</time></trkpt><trkpt lat="14.483287077333362" lon="120.98937248276081"><ele>3.0</ele><time>2026-04-20T10:51:31Z</time></trkpt><trkpt lat="14.483354797402558" lon="120.98949923005011"><ele>3.0</ele><time>2026-04-20T10:51:32Z</time></trkpt><trkpt lat="14.483419135982482" lon="120.98962524912176"><ele>3.0</ele><time>2026-04-20T10:51:33Z</time></trkpt><trkpt lat="14.483472746585672" lon="120.98974505125045"><ele>3.0</ele><time>2026-04-20T10:51:34Z</time></trkpt><trkpt lat="14.483501558677721" lon="120.98986593138181"><ele>3.0</ele><time>2026-04-20T10:51:35Z</time></trkpt><trkpt lat="14.483503599487745" lon="120.98999417343006"><ele>3.0</ele><time>2026-04-20T10:51:36Z</time></trkpt><trkpt lat="14.483486594357688" lon="120.99013441335127"><ele>3.0</ele><time>2026-04-20T10:51:37Z</time></trkpt><trkpt lat="14.483449046417716" lon="120.99028242780489"><ele>3.0</ele><time>2026-04-20T10:51:38Z</time></trkpt><trkpt lat="14.48339375625749" lon="120.99043426413837"><ele>4.333333333333334</ele><time>2026-04-20T10:51:39Z</time></trkpt><trkpt lat="14.483329355441933" lon="120.99058192014016"><ele>5.666666666666667</ele><time>2026-04-20T10:51:40Z</time></trkpt><trkpt lat="14.483271293983709" lon="120.99073114089478"><ele>7.0</ele><time>2026-04-20T10:51:41Z</time></trkpt><trkpt lat="14.483225892612586" lon="120.99088004504978"><ele>7.0</ele><time>2026-04-20T10:51:42Z</time></trkpt><trkpt lat="14.483190987966365" lon="120.9910271461729"><ele>7.0</ele><time>2026-04-20T10:51:43Z</time></trkpt><trkpt lat="14.483163480306539" lon="120.99117590619323"><ele>7.0</ele><time>2026-04-20T10:51:44Z</time></trkpt><trkpt lat="14.48315704394397" lon="120.99132294900016"><ele>7.0</ele><time>2026-04-20T10:51:45Z</time></trkpt><trkpt lat="14.483179682292981" lon="120.99147033291966"><ele>7.0</ele><time>2026-04-20T10:51:46Z</time></trkpt><trkpt lat="14.483227387236068" lon="120.99161722408353"><ele>7.0</ele><time>2026-04-20T10:51:47Z</time></trkpt><trkpt lat="14.48328770378066" lon="120.99176097763264"><ele>7.0</ele><time>2026-04-20T10:51:48Z</time></trkpt><trkpt lat="14.483342319330557" lon="120.99190461015486"><ele>5.75</ele><time>2026-04-20T10:51:49Z</time></trkpt><trkpt lat="14.483392389029357" lon="120.99204263515001"><ele>4.5</ele><time>2026-04-20T10:51:50Z</time></trkpt><trkpt lat="14.483445770181715" lon="120.99215638092973"><ele>3.25</ele><time>2026-04-20T10:51:51Z</time></trkpt><trkpt lat="14.4834969836878" lon="120.9922575869365"><ele>2.0</ele><time>2026-04-20T10:51:52Z</time></trkpt><trkpt lat="14.483561437472083" lon="120.99235897517994"><ele>2.0</ele><time>2026-04-20T10:51:53Z</time></trkpt><trkpt lat="14.4836538305676" lon="120.9924526887389"><ele>2.0</ele><time>2026-04-20T10:51:54Z</time></trkpt><trkpt lat="14.483753981142348" lon="120.9925252917808"><ele>2.0</ele><time>2026-04-20T10:51:55Z</time></trkpt><trkpt lat="14.483871426143384" lon="120.99259813811004"><ele>2.0</ele><time>2026-04-20T10:51:56Z</time></trkpt><trkpt lat="14.483996351896137" lon="120.99266705058865"><ele>3.0</ele><time>2026-04-20T10:51:57Z</time></trkpt><trkpt lat="14.484120023173626" lon="120.99274522050027"><ele>4.0</ele><time>2026-04-20T10:51:58Z</time></trkpt><trkpt lat="14.484241597895961" lon="120.99282544626396"><ele>5.0</ele><time>2026-04-20T10:51:59Z</time></trkpt><trkpt lat="14.484366467256903" lon="120.99290807466924"><ele>6.0</ele><time>2026-04-20T10:52:00Z</time></trkpt><trkpt lat="14.48449565158074" lon="120.99299098045425"><ele>6.333333333333334</ele><time>2026-04-20T10:52:01Z</time></trkpt><trkpt lat="14.484622454475533" lon="120.9930710729358"><ele>6.666666666666667</ele><time>2026-04-20T10:52:02Z</time></trkpt><trkpt lat="14.48475208370453" lon="120.99315384140687"><ele>7.0</ele><time>2026-04-20T10:52:03Z</time></trkpt><trkpt lat="14.484878336318594" lon="120.993236164684"><ele>7.0</ele><time>2026-04-20T10:52:04Z</time></trkpt><trkpt lat="14.48500839112364" lon="120.99332252723107"><ele>7.0</ele><time>2026-04-20T10:52:05Z</time></trkpt><trkpt lat="14.485131130721928" lon="120.99340662885766"><ele>7.0</ele><time>2026-04-20T10:52:06Z</time></trkpt><trkpt lat="14.485251377747641" lon="120.99349742426996"><ele>6.0</ele><time>2026-04-20T10:52:07Z</time></trkpt><trkpt lat="14.48537799057291" lon="120.99360894165645"><ele>5.0</ele><time>2026-04-20T10:52:08Z</time></trkpt><trkpt lat="14.485499172887597" lon="120.99372297849936"><ele>4.0</ele><time>2026-04-20T10:52:09Z</time></trkpt><trkpt lat="14.485616842155553" lon="120.99383625942147"><ele>4.0</ele><time>2026-04-20T10:52:10Z</time></trkpt><trkpt lat="14.485723374523445" lon="120.99394678789564"><ele>4.0</ele><time>2026-04-20T10:52:11Z</time></trkpt><trkpt lat="14.485829136593495" lon="120.9940685915527"><ele>4.0</ele><time>2026-04-20T10:52:12Z</time></trkpt><trkpt lat="14.485929884391474" lon="120.99418805068204"><ele>4.0</ele><time>2026-04-20T10:52:13Z</time></trkpt><trkpt lat="14.486025725976113" lon="120.99431593326756"><ele>4.0</ele><time>2026-04-20T10:52:14Z</time></trkpt><trkpt lat="14.486113509005985" lon="120.99444800122424"><ele>4.0</ele><time>2026-04-20T10:52:15Z</time></trkpt><trkpt lat="14.48618377841534" lon="120.99457401039977"><ele>4.0</ele><time>2026-04-20T10:52:16Z</time></trkpt><trkpt lat="14.486234306376076" lon="120.99469420596839"><ele>4.0</ele><time>2026-04-20T10:52:17Z</time></trkpt><trkpt lat="14.486268086741099" lon="120.99481841291447"><ele>4.0</ele><time>2026-04-20T10:52:18Z</time></trkpt><trkpt lat="14.48628841881224" lon="120.99494387056284"><ele>4.0</ele><time>2026-04-20T10:52:19Z</time></trkpt><trkpt lat="14.486294969188254" lon="120.99507953891118"><ele>4.25</ele><time>2026-04-20T10:52:20Z</time></trkpt><trkpt lat="14.486293184143392" lon="120.99521521516807"><ele>4.5</ele><time>2026-04-20T10:52:21Z</time></trkpt><trkpt lat="14.486278301317363" lon="120.99534523014728"><ele>4.75</ele><time>2026-04-20T10:52:22Z</time></trkpt><trkpt lat="14.48624800276196" lon="120.9954658493377"><ele>5.0</ele><time>2026-04-20T10:52:23Z</time></trkpt><trkpt lat="14.486213073370322" lon="120.99558113462126"><ele>5.0</ele><time>2026-04-20T10:52:24Z</time></trkpt><trkpt lat="14.486176301656396" lon="120.9956932266191"><ele>5.0</ele><time>2026-04-20T10:52:25Z</time></trkpt><trkpt lat="14.486131891672999" lon="120.99580866367693"><ele>5.0</ele><time>2026-04-20T10:52:26Z</time></trkpt><trkpt lat="14.486084950584369" lon="120.99593067547866"><ele>5.0</ele><time>2026-04-20T10:52:27Z</time></trkpt><trkpt lat="14.486039162328796" lon="120.99605388101833"><ele>4.75</ele><time>2026-04-20T10:52:28Z</time></trkpt><trkpt lat="14.485994884665491" lon="120.99617465344096"><ele>4.5</ele><time>2026-04-20T10:52:29Z</time></trkpt><trkpt lat="14.485953047299706" lon="120.99629282788226"><ele>4.25</ele><time>2026-04-20T10:52:30Z</time></trkpt><trkpt lat="14.485919836438615" lon="120.99641317212907"><ele>4.0</ele><time>2026-04-20T10:52:31Z</time></trkpt><trkpt lat="14.485906561986223" lon="120.99653570385348"><ele>4.0</ele><time>2026-04-20T10:52:32Z</time></trkpt><trkpt lat="14.485905804466597" lon="120.99666019089176"><ele>4.0</ele><time>2026-04-20T10:52:33Z</time></trkpt><trkpt lat="14.485917250569027" lon="120.996783180551"><ele>4.0</ele><time>2026-04-20T10:52:34Z</time></trkpt><trkpt lat="14.48593795571873" lon="120.99690471010453"><ele>4.0</ele><time>2026-04-20T10:52:35Z</time></trkpt><trkpt lat="14.485970807356503" lon="120.9970325325545"><ele>4.75</ele><time>2026-04-20T10:52:36Z</time></trkpt><trkpt lat="14.486017324581015" lon="120.99716514175108"><ele>5.5</ele><time>2026-04-20T10:52:37Z</time></trkpt><trkpt lat="14.486074568987588" lon="120.99729155784581"><ele>6.25</ele><time>2026-04-20T10:52:38Z</time></trkpt><trkpt lat="14.486147347568632" lon="120.9974071271811"><ele>7.0</ele><time>2026-04-20T10:52:39Z</time></trkpt><trkpt lat="14.48622885574855" lon="120.99751975034627"><ele>7.25</ele><time>2026-04-20T10:52:40Z</time></trkpt><trkpt lat="14.486315099674139" lon="120.99763396010992"><ele>7.5</ele><time>2026-04-20T10:52:41Z</time></trkpt><trkpt lat="14.486406183382783" lon="120.997755010747"><ele>7.75</ele><time>2026-04-20T10:52:42Z</time></trkpt><trkpt lat="14.486502241257805" lon="120.99787795366566"><ele>8.0</ele><time>2026-04-20T10:52:43Z</time></trkpt><trkpt lat="14.486602204990525" lon="120.99800146999956"><ele>8.0</ele><time>2026-04-20T10:52:44Z</time></trkpt><trkpt lat="14.48671011570416" lon="120.99812622994816"><ele>8.0</ele><time>2026-04-20T10:52:45Z</time></trkpt><trkpt lat="14.486817586135595" lon="120.99824363472999"><ele>8.0</ele><time>2026-04-20T10:52:46Z</time></trkpt><trkpt lat="14.486927720026937" lon="120.99836459746264"><ele>7.666666666666666</ele><time>2026-04-20T10:52:47Z</time></trkpt><trkpt lat="14.487029065726551" lon="120.99848150156383"><ele>7.333333333333334</ele><time>2026-04-20T10:52:48Z</time></trkpt><trkpt lat="14.487136356011225" lon="120.99859899452119"><ele>7.0</ele><time>2026-04-20T10:52:49Z</time></trkpt><trkpt lat="14.487239352171184" lon="120.9987111966153"><ele>6.5</ele><time>2026-04-20T10:52:50Z</time></trkpt><trkpt lat="14.487336539038989" lon="120.99882335230107"><ele>6.0</ele><time>2026-04-20T10:52:51Z</time></trkpt><trkpt lat="14.487434151212804" lon="120.99893462740162"><ele>5.5</ele><time>2026-04-20T10:52:52Z</time></trkpt><trkpt lat="14.487524806641284" lon="120.99903688207057"><ele>5.0</ele><time>2026-04-20T10:52:53Z</time></trkpt><trkpt lat="14.487613617647064" lon="120.99913442082246"><ele>5.75</ele><time>2026-04-20T10:52:54Z</time></trkpt><trkpt lat="14.487700040578634" lon="120.99922661052182"><ele>6.5</ele><time>2026-04-20T10:52:55Z</time></trkpt><trkpt lat="14.487782741997894" lon="120.99931646261614"><ele>7.25</ele><time>2026-04-20T10:52:56Z</time></trkpt><trkpt lat="14.48786843265392" lon="120.9993941855547"><ele>8.0</ele><time>2026-04-20T10:52:57Z</time></trkpt><trkpt lat="14.487975875847463" lon="120.99946886978137"><ele>8.0</ele><time>2026-04-20T10:52:58Z</time></trkpt><trkpt lat="14.488091797293821" lon="120.99953675215225"><ele>8.0</ele><time>2026-04-20T10:52:59Z</time></trkpt><trkpt lat="14.488208265922866" lon="120.999591917327"><ele>8.0</ele><time>2026-04-20T10:53:00Z</time></trkpt><trkpt lat="14.488329138213606" lon="120.99963730336867"><ele>8.0</ele><time>2026-04-20T10:53:01Z</time></trkpt><trkpt lat="14.488459595892927" lon="120.9996730961595"><ele>8.0</ele><time>2026-04-20T10:53:02Z</time></trkpt><trkpt lat="14.488592677770088" lon="120.99969886195503"><ele>8.0</ele><time>2026-04-20T10:53:03Z</time></trkpt><trkpt lat="14.48872132630747" lon="120.99971048587719"><ele>8.0</ele><time>2026-04-20T10:53:04Z</time></trkpt><trkpt lat="14.488846346913963" lon="120.9997067872151"><ele>8.0</ele><time>2026-04-20T10:53:05Z</time></trkpt><trkpt lat="14.488963443188325" lon="120.99969587267978"><ele>6.75</ele><time>2026-04-20T10:53:06Z</time></trkpt><trkpt lat="14.489086309862602" lon="120.99967281575111"><ele>5.5</ele><time>2026-04-20T10:53:07Z</time></trkpt><trkpt lat="14.489214452203328" lon="120.99963683414094"><ele>4.25</ele><time>2026-04-20T10:53:08Z</time></trkpt><trkpt lat="14.489336009119242" lon="120.99959499264595"><ele>3.0</ele><time>2026-04-20T10:53:09Z</time></trkpt><trkpt lat="14.489456252512106" lon="120.99953951049491"><ele>3.0</ele><time>2026-04-20T10:53:10Z</time></trkpt><trkpt lat="14.489565262012501" lon="120.99946877358926"><ele>3.0</ele><time>2026-04-20T10:53:11Z</time></trkpt><trkpt lat="14.48967006053479" lon="120.99939278847943"><ele>3.0</ele><time>2026-04-20T10:53:12Z</time></trkpt><trkpt lat="14.489766542543803" lon="120.99930659136963"><ele>3.0</ele><time>2026-04-20T10:53:13Z</time></trkpt><trkpt lat="14.489861335783567" lon="120.99921573970258"><ele>2.0</ele><time>2026-04-20T10:53:14Z</time></trkpt><trkpt lat="14.489957574564945" lon="120.99911972308608"><ele>1.0</ele><time>2026-04-20T10:53:15Z</time></trkpt><trkpt lat="14.490055870230968" lon="120.99902708730602"><ele>0.0</ele><time>2026-04-20T10:53:16Z</time></trkpt><trkpt lat="14.490155753363377" lon="120.99893490586379"><ele>-1.0</ele><time>2026-04-20T10:53:17Z</time></trkpt><trkpt lat="14.490257525076803" lon="120.99883782516821"><ele>-1.0</ele><time>2026-04-20T10:53:18Z</time></trkpt><trkpt lat="14.4903615531111" lon="120.9987391638262"><ele>-1.0</ele><time>2026-04-20T10:53:19Z</time></trkpt><trkpt lat="14.490462654159547" lon="120.99865312768655"><ele>-1.0</ele><time>2026-04-20T10:53:20Z</time></trkpt><trkpt lat="14.490563199271987" lon="120.99856813161341"><ele>-1.0</ele><time>2026-04-20T10:53:21Z</time></trkpt><trkpt lat="14.4906585366696" lon="120.99846968803867"><ele>-1.5</ele><time>2026-04-20T10:53:22Z</time></trkpt><trkpt lat="14.49077112164837" lon="120.99836633792323"><ele>-2.0</ele><time>2026-04-20T10:53:23Z</time></trkpt><trkpt lat="14.490873438369732" lon="120.99826262594927"><ele>-2.5</ele><time>2026-04-20T10:53:24Z</time></trkpt><trkpt lat="14.490966917415934" lon="120.99816083052718"><ele>-3.0</ele><time>2026-04-20T10:53:25Z</time></trkpt><trkpt lat="14.491049275414888" lon="120.99804824871367"><ele>-2.0</ele><time>2026-04-20T10:53:26Z</time></trkpt><trkpt lat="14.491115494150494" lon="120.99792527968205"><ele>-1.0</ele><time>2026-04-20T10:53:27Z</time></trkpt><trkpt lat="14.491176566700444" lon="120.99779445840531"><ele>0.0</ele><time>2026-04-20T10:53:28Z</time></trkpt><trkpt lat="14.491230680074496" lon="120.99765574278595"><ele>1.0</ele><time>2026-04-20T10:53:29Z</time></trkpt><trkpt lat="14.491275673615075" lon="120.99751455613291"><ele>0.6666666666666666</ele><time>2026-04-20T10:53:30Z</time></trkpt><trkpt lat="14.491316501350163" lon="120.9973663713203"><ele>0.3333333333333333</ele><time>2026-04-20T10:53:31Z</time></trkpt><trkpt lat="14.491357276226058" lon="120.99721650307359"><ele>0.0</ele><time>2026-04-20T10:53:32Z</time></trkpt><trkpt lat="14.49139839197485" lon="120.99706658974128"><ele>0.0</ele><time>2026-04-20T10:53:33Z</time></trkpt><trkpt lat="14.491437671913413" lon="120.99693042651813"><ele>0.0</ele><time>2026-04-20T10:53:34Z</time></trkpt><trkpt lat="14.491477005613977" lon="120.99680396952267"><ele>0.0</ele><time>2026-04-20T10:53:35Z</time></trkpt><trkpt lat="14.4915262817752" lon="120.99668798962382"><ele>0.0</ele><time>2026-04-20T10:53:36Z</time></trkpt><trkpt lat="14.491595907042525" lon="120.99657223244478"><ele>1.25</ele><time>2026-04-20T10:53:37Z</time></trkpt><trkpt lat="14.491689448689058" lon="120.99646861181846"><ele>2.5</ele><time>2026-04-20T10:53:38Z</time></trkpt><trkpt lat="14.491793124308117" lon="120.99637044878092"><ele>3.75</ele><time>2026-04-20T10:53:39Z</time></trkpt><trkpt lat="14.491912162197885" lon="120.9962858707447"><ele>5.0</ele><time>2026-04-20T10:53:40Z</time></trkpt><trkpt lat="14.492040702232368" lon="120.99622672337009"><ele>6.25</ele><time>2026-04-20T10:53:41Z</time></trkpt><trkpt lat="14.492181541104241" lon="120.99619570652763"><ele>7.5</ele><time>2026-04-20T10:53:42Z</time></trkpt><trkpt lat="14.492330818004312" lon="120.99618725114453"><ele>8.75</ele><time>2026-04-20T10:53:43Z</time></trkpt><trkpt lat="14.492481870294242" lon="120.9961979341648"><ele>10.0</ele><time>2026-04-20T10:53:44Z</time></trkpt><trkpt lat="14.492626320539085" lon="120.99621589491265"><ele>10.0</ele><time>2026-04-20T10:53:45Z</time></trkpt><trkpt lat="14.492778577060609" lon="120.9962276525829"><ele>10.0</ele><time>2026-04-20T10:53:46Z</time></trkpt><trkpt lat="14.492934741823335" lon="120.99623221736539"><ele>10.0</ele><time>2026-04-20T10:53:47Z</time></trkpt><trkpt lat="14.493094938801304" lon="120.99623866881429"><ele>9.75</ele><time>2026-04-20T10:53:48Z</time></trkpt><trkpt lat="14.493247024726243" lon="120.99624465989385"><ele>9.5</ele><time>2026-04-20T10:53:49Z</time></trkpt><trkpt lat="14.49338854056946" lon="120.99624897101465"><ele>9.25</ele><time>2026-04-20T10:53:50Z</time></trkpt><trkpt lat="14.49352436386414" lon="120.9962557342009"><ele>9.0</ele><time>2026-04-20T10:53:51Z</time></trkpt><trkpt lat="14.493657336497826" lon="120.99626108400044"><ele>7.75</ele><time>2026-04-20T10:53:52Z</time></trkpt><trkpt lat="14.49378426717914" lon="120.99627307195183"><ele>6.5</ele><time>2026-04-20T10:53:53Z</time></trkpt><trkpt lat="14.493906451747579" lon="120.99630867997003"><ele>5.25</ele><time>2026-04-20T10:53:54Z</time></trkpt><trkpt lat="14.49402296376566" lon="120.99637369473015"><ele>4.0</ele><time>2026-04-20T10:53:55Z</time></trkpt><trkpt lat="14.494123691182601" lon="120.99646097724776"><ele>4.0</ele><time>2026-04-20T10:53:56Z</time></trkpt><trkpt lat="14.49421843477114" lon="120.99656964397734"><ele>4.0</ele><time>2026-04-20T10:53:57Z</time></trkpt><trkpt lat="14.49428555003538" lon="120.99670063038687"><ele>4.0</ele><time>2026-04-20T10:53:58Z</time></trkpt><trkpt lat="14.494347692469121" lon="120.9968394569579"><ele>4.0</ele><time>2026-04-20T10:53:59Z</time></trkpt><trkpt lat="14.494396449005343" lon="120.99698526390026"><ele>5.333333333333333</ele><time>2026-04-20T10:54:00Z</time></trkpt><trkpt lat="14.494456157513056" lon="120.99713554440488"><ele>6.666666666666666</ele><time>2026-04-20T10:54:01Z</time></trkpt><trkpt lat="14.494516205909559" lon="120.9972828328616"><ele>8.0</ele><time>2026-04-20T10:54:02Z</time></trkpt><trkpt lat="14.494583015318035" lon="120.99744057698537"><ele>6.333333333333333</ele><time>2026-04-20T10:54:03Z</time></trkpt><trkpt lat="14.494648701225717" lon="120.99759703180766"><ele>4.666666666666666</ele><time>2026-04-20T10:54:04Z</time></trkpt><trkpt lat="14.494717659571664" lon="120.99775363526402"><ele>3.0</ele><time>2026-04-20T10:54:05Z</time></trkpt><trkpt lat="14.494789411327506" lon="120.99791207521957"><ele>3.0</ele><time>2026-04-20T10:54:06Z</time></trkpt><trkpt lat="14.494865770034666" lon="120.9980684918953"><ele>3.0</ele><time>2026-04-20T10:54:07Z</time></trkpt><trkpt lat="14.494947035516967" lon="120.99822831745223"><ele>3.0</ele><time>2026-04-20T10:54:08Z</time></trkpt><trkpt lat="14.495033468929572" lon="120.9983912509629"><ele>4.666666666666666</ele><time>2026-04-20T10:54:09Z</time></trkpt><trkpt lat="14.495120675979198" lon="120.99854943015572"><ele>6.333333333333333</ele><time>2026-04-20T10:54:10Z</time></trkpt><trkpt lat="14.49521399155584" lon="120.99871010157747"><ele>8.0</ele><time>2026-04-20T10:54:11Z</time></trkpt><trkpt lat="14.49531257435698" lon="120.99887321808272"><ele>8.0</ele><time>2026-04-20T10:54:12Z</time></trkpt><trkpt lat="14.495412480859875" lon="120.99904305672887"><ele>8.0</ele><time>2026-04-20T10:54:13Z</time></trkpt><trkpt lat="14.495497898038044" lon="120.99920541432576"><ele>8.0</ele><time>2026-04-20T10:54:14Z</time></trkpt><trkpt lat="14.495582496864818" lon="120.99936349996096"><ele>7.25</ele><time>2026-04-20T10:54:15Z</time></trkpt><trkpt lat="14.495663383056637" lon="120.99950759439119"><ele>6.5</ele><time>2026-04-20T10:54:16Z</time></trkpt><trkpt lat="14.495735566084099" lon="120.99963744216224"><ele>5.75</ele><time>2026-04-20T10:54:17Z</time></trkpt><trkpt lat="14.495798561287776" lon="120.99974792793122"><ele>5.0</ele><time>2026-04-20T10:54:18Z</time></trkpt><trkpt lat="14.495850981096947" lon="120.99983444023465"><ele>5.0</ele><time>2026-04-20T10:54:19Z</time></trkpt><trkpt lat="14.495892328420906" lon="120.99990815661532"><ele>5.0</ele><time>2026-04-20T10:54:20Z</time></trkpt><trkpt lat="14.495925871026639" lon="120.99996698263055"><ele>5.0</ele><time>2026-04-20T10:54:21Z</time></trkpt><trkpt lat="14.495972787570123" lon="121.00003644643263"><ele>5.0</ele><time>2026-04-20T10:54:23Z</time></trkpt><trkpt lat="14.496026178541317" lon="121.00010312695785"><ele>5.0</ele><time>2026-04-20T10:57:12Z</time></trkpt><trkpt lat="14.496073377766528" lon="121.00016564755734"><ele>5.0</ele><time>2026-04-20T10:57:15Z</time></trkpt><trkpt lat="14.496139302814566" lon="121.00020313962482"><ele>5.0</ele><time>2026-04-20T10:57:17Z</time></trkpt><trkpt lat="14.496211322543088" lon="121.0002079221466"><ele>5.0</ele><time>2026-04-20T10:57:19Z</time></trkpt><trkpt lat="14.496284820529578" lon="121.0001693481518"><ele>5.0</ele><time>2026-04-20T10:57:21Z</time></trkpt><trkpt lat="14.496358035999537" lon="121.00008736660774"><ele>5.0</ele><time>2026-04-20T10:57:23Z</time></trkpt><trkpt lat="14.496404573772157" lon="121.000029482416"><ele>5.0</ele><time>2026-04-20T10:57:24Z</time></trkpt><trkpt lat="14.496463534329974" lon="120.99996076192035"><ele>5.0</ele><time>2026-04-20T10:57:25Z</time></trkpt><trkpt lat="14.496520651116018" lon="120.99989294807179"><ele>4.8</ele><time>2026-04-20T10:57:26Z</time></trkpt><trkpt lat="14.49657902238139" lon="120.99982040972493"><ele>4.6</ele><time>2026-04-20T10:57:27Z</time></trkpt><trkpt lat="14.496643775813672" lon="120.99974523636601"><ele>4.4</ele><time>2026-04-20T10:57:28Z</time></trkpt><trkpt lat="14.496705475250035" lon="120.99967425725463"><ele>4.2</ele><time>2026-04-20T10:57:29Z</time></trkpt><trkpt lat="14.496769008516042" lon="120.99959427316202"><ele>4.0</ele><time>2026-04-20T10:57:30Z</time></trkpt><trkpt lat="14.496823209277803" lon="120.99952184004863"><ele>4.0</ele><time>2026-04-20T10:57:30.999Z</time></trkpt><trkpt lat="14.496864074133466" lon="120.99944113518102"><ele>4.0</ele><time>2026-04-20T10:57:31.999Z</time></trkpt><trkpt lat="14.496896528812897" lon="120.99934336257853"><ele>4.0</ele><time>2026-04-20T10:57:32.999Z</time></trkpt><trkpt lat="14.496915173670185" lon="120.99924397257621"><ele>4.0</ele><time>2026-04-20T10:57:33.999Z</time></trkpt><trkpt lat="14.496934133682707" lon="120.99914560566263"><ele>4.0</ele><time>2026-04-20T10:57:34.999Z</time></trkpt><trkpt lat="14.496953839118163" lon="120.99904560987169"><ele>4.0</ele><time>2026-04-20T10:57:35.999Z</time></trkpt><trkpt lat="14.496974991003968" lon="120.9989331158877"><ele>4.0</ele><time>2026-04-20T10:57:36.999Z</time></trkpt><trkpt lat="14.496992824439253" lon="120.99884571263344"><ele>4.0</ele><time>2026-04-20T10:57:37.999Z</time></trkpt><trkpt lat="14.49701718147072" lon="120.99874307025296"><ele>4.0</ele><time>2026-04-20T10:57:38.999Z</time></trkpt><trkpt lat="14.497045685046352" lon="120.99865791584249"><ele>4.0</ele><time>2026-04-20T10:57:39.999Z</time></trkpt><trkpt lat="14.497107074661344" lon="120.9985848994584"><ele>4.166666666666666</ele><time>2026-04-20T10:57:40.999Z</time></trkpt><trkpt lat="14.497160389912848" lon="120.99850506347364"><ele>4.333333333333333</ele><time>2026-04-20T10:57:41.999Z</time></trkpt><trkpt lat="14.49721571068166" lon="120.9984253743573"><ele>4.5</ele><time>2026-04-20T10:57:42.999Z</time></trkpt><trkpt lat="14.497274783720304" lon="120.99834628111786"><ele>4.666666666666667</ele><time>2026-04-20T10:57:43.999Z</time></trkpt><trkpt lat="14.497310261335102" lon="120.99827516306989"><ele>4.833333333333334</ele><time>2026-04-20T10:57:44.999Z</time></trkpt><trkpt lat="14.497365204340117" lon="120.99821548407148"><ele>5.0</ele><time>2026-04-20T10:57:45.999Z</time></trkpt><trkpt lat="14.497418754273541" lon="120.99814928843648"><ele>5.0</ele><time>2026-04-20T10:57:46.999Z</time></trkpt><trkpt lat="14.497481632248448" lon="120.99809473718904"><ele>5.0</ele><time>2026-04-20T10:57:47.999Z</time></trkpt><trkpt lat="14.497561805098991" lon="120.9980788347421"><ele>5.0</ele><time>2026-04-20T10:57:48.999Z</time></trkpt><trkpt lat="14.49765043411197" lon="120.99806223258553"><ele>5.0</ele><time>2026-04-20T10:57:49.999Z</time></trkpt><trkpt lat="14.497733991756402" lon="120.99803173536779"><ele>5.0</ele><time>2026-04-20T10:57:50.999Z</time></trkpt><trkpt lat="14.49782581877781" lon="120.99801484081135"><ele>5.0</ele><time>2026-04-20T10:57:51.999Z</time></trkpt><trkpt lat="14.497923387134824" lon="120.9979973680842"><ele>5.0</ele><time>2026-04-20T10:57:52.999Z</time></trkpt><trkpt lat="14.498015468900519" lon="120.99797861552086"><ele>5.0</ele><time>2026-04-20T10:57:53.999Z</time></trkpt><trkpt lat="14.498097314231885" lon="120.99796320633428"><ele>5.0</ele><time>2026-04-20T10:57:54.999Z</time></trkpt><trkpt lat="14.49819216394121" lon="120.99794190118392"><ele>5.0</ele><time>2026-04-20T10:57:55.999Z</time></trkpt><trkpt lat="14.498267718391313" lon="120.9979300867846"><ele>5.0</ele><time>2026-04-20T10:57:56.999Z</time></trkpt><trkpt lat="14.498345096571935" lon="120.99791855089816"><ele>5.0</ele><time>2026-04-20T10:57:57.999Z</time></trkpt><trkpt lat="14.498411765243562" lon="120.99790322850413"><ele>5.0</ele><time>2026-04-20T10:57:58.999Z</time></trkpt><trkpt lat="14.498519495475472" lon="120.9978774712721"><ele>5.0</ele><time>2026-04-20T10:58:00.999Z</time></trkpt><trkpt lat="14.49860489280895" lon="120.99787266729014"><ele>5.0</ele><time>2026-04-20T10:58:02.999Z</time></trkpt><trkpt lat="14.498602204996967" lon="120.99774037770341"><ele>5.0</ele><time>2026-04-20T10:58:07.999Z</time></trkpt><trkpt lat="14.498592167569438" lon="120.99766560482284"><ele>5.0</ele><time>2026-04-20T10:58:09.999Z</time></trkpt><trkpt lat="14.498626440659809" lon="120.997601972779"><ele>5.0</ele><time>2026-04-20T10:58:12.999Z</time></trkpt><trkpt lat="14.498471334099671" lon="120.99759321081876"><ele>5.0</ele><time>2026-04-20T10:58:13.999Z</time></trkpt><trkpt lat="14.498662289409141" lon="120.99761816406891"><ele>5.0</ele><time>2026-04-20T10:59:44.999Z</time></trkpt><trkpt lat="14.498613492042322" lon="120.99766685401264"><ele>5.0</ele><time>2026-04-20T10:59:59Z</time></trkpt><trkpt lat="14.498594823196893" lon="120.99772936652502"><ele>5.0</ele><time>2026-04-20T11:00:01Z</time></trkpt><trkpt lat="14.498662296413496" lon="120.99761640039853"><ele>5.0</ele><time>2026-04-20T11:00:03Z</time></trkpt><trkpt lat="14.4986968347033" lon="120.99756083079266"><ele>5.0</ele><time>2026-04-20T11:00:05Z</time></trkpt><trkpt lat="14.498730267161372" lon="120.99764056189024"><ele>5.0</ele><time>2026-04-20T11:14:10.001Z</time></trkpt><trkpt lat="14.498716544662127" lon="120.99772464729944"><ele>5.0</ele><time>2026-04-20T11:14:12.001Z</time></trkpt><trkpt lat="14.498749609524728" lon="120.99779498217468"><ele>5.0</ele><time>2026-04-20T11:14:17.001Z</time></trkpt><trkpt lat="14.498822330053983" lon="120.99781087584567"><ele>4.666666666666667</ele><time>2026-04-20T11:14:20.001Z</time></trkpt><trkpt lat="14.498931604232308" lon="120.99779893481036"><ele>4.333333333333334</ele><time>2026-04-20T11:14:22.001Z</time></trkpt><trkpt lat="14.499004223296058" lon="120.99778221794786"><ele>4.0</ele><time>2026-04-20T11:14:23.001Z</time></trkpt><trkpt lat="14.499073058818459" lon="120.99776847331239"><ele>3.666666666666667</ele><time>2026-04-20T11:14:24.001Z</time></trkpt><trkpt lat="14.499149620696075" lon="120.99774810355655"><ele>3.3333333333333335</ele><time>2026-04-20T11:14:25.001Z</time></trkpt><trkpt lat="14.499213712169462" lon="120.997734764759"><ele>3.0</ele><time>2026-04-20T11:14:26.001Z</time></trkpt><trkpt lat="14.499368918437506" lon="120.99769274829339"><ele>3.0</ele><time>2026-04-20T11:14:28.001Z</time></trkpt><trkpt lat="14.499437422692942" lon="120.99767574359672"><ele>3.0</ele><time>2026-04-20T11:14:29.001Z</time></trkpt><trkpt lat="14.499556782972773" lon="120.99765570667695"><ele>3.0</ele><time>2026-04-20T11:14:31.001Z</time></trkpt><trkpt lat="14.499620018040767" lon="120.99764372559744"><ele>3.0</ele><time>2026-04-20T11:14:32.001Z</time></trkpt><trkpt lat="14.499686282741944" lon="120.99763238802564"><ele>3.0</ele><time>2026-04-20T11:14:33.001Z</time></trkpt><trkpt lat="14.49975282939953" lon="120.99761940351311"><ele>3.0</ele><time>2026-04-20T11:14:34.001Z</time></trkpt><trkpt lat="14.49981745033497" lon="120.99760231678904"><ele>3.1666666666666665</ele><time>2026-04-20T11:14:35.001Z</time></trkpt><trkpt lat="14.499885250169717" lon="120.99758659026539"><ele>3.333333333333333</ele><time>2026-04-20T11:14:36.001Z</time></trkpt><trkpt lat="14.500002591541953" lon="120.9975570956625"><ele>3.5</ele><time>2026-04-20T11:14:38.001Z</time></trkpt><trkpt lat="14.500083651789048" lon="120.99753313188106"><ele>3.6666666666666665</ele><time>2026-04-20T11:14:40.001Z</time></trkpt><trkpt lat="14.50014162445974" lon="120.99750326187744"><ele>3.833333333333333</ele><time>2026-04-20T11:14:42.001Z</time></trkpt><trkpt lat="14.500230129790324" lon="120.99747905573514"><ele>4.0</ele><time>2026-04-20T11:14:44.001Z</time></trkpt><trkpt lat="14.500303088499008" lon="120.99744505062775"><ele>4.2</ele><time>2026-04-20T11:14:46.001Z</time></trkpt><trkpt lat="14.500367486853463" lon="120.99738982156433"><ele>4.4</ele><time>2026-04-20T11:14:49.001Z</time></trkpt><trkpt lat="14.500455045378866" lon="120.99749211956541"><ele>4.6</ele><time>2026-04-20T11:14:50.001Z</time></trkpt><trkpt lat="14.500565650094229" lon="120.99756079656045"><ele>4.8</ele><time>2026-04-20T11:14:52.001Z</time></trkpt><trkpt lat="14.500626991513819" lon="120.99760502940187"><ele>5.0</ele><time>2026-04-20T11:14:53.001Z</time></trkpt><trkpt lat="14.500682552552652" lon="120.9976427808981"><ele>5.0</ele><time>2026-04-20T11:14:54.001Z</time></trkpt><trkpt lat="14.500737975765368" lon="120.99768288858408"><ele>5.0</ele><time>2026-04-20T11:14:55.001Z</time></trkpt><trkpt lat="14.500806145521812" lon="120.99772163916626"><ele>5.0</ele><time>2026-04-20T11:14:56.001Z</time></trkpt><trkpt lat="14.500874257056115" lon="120.99776765799659"><ele>5.0</ele><time>2026-04-20T11:14:57.001Z</time></trkpt><trkpt lat="14.500941683740653" lon="120.99781713693629"><ele>5.0</ele><time>2026-04-20T11:14:58.001Z</time></trkpt><trkpt lat="14.501013773781311" lon="120.99786506730307"><ele>5.0</ele><time>2026-04-20T11:14:59.001Z</time></trkpt><trkpt lat="14.501089239767454" lon="120.9979136213011"><ele>5.0</ele><time>2026-04-20T11:15:00.001Z</time></trkpt><trkpt lat="14.501170818381464" lon="120.99796500373863"><ele>5.0</ele><time>2026-04-20T11:15:01.001Z</time></trkpt><trkpt lat="14.5012567759755" lon="120.99802122165717"><ele>5.0</ele><time>2026-04-20T11:15:02.001Z</time></trkpt><trkpt lat="14.501345285274107" lon="120.99807900431615"><ele>5.0</ele><time>2026-04-20T11:15:03.001Z</time></trkpt><trkpt lat="14.501434984116026" lon="120.99813804223588"><ele>5.0</ele><time>2026-04-20T11:15:04.001Z</time></trkpt><trkpt lat="14.50152207156028" lon="120.99819498986183"><ele>5.2</ele><time>2026-04-20T11:15:05.001Z</time></trkpt><trkpt lat="14.501609191587056" lon="120.99824934279376"><ele>5.4</ele><time>2026-04-20T11:15:06.001Z</time></trkpt><trkpt lat="14.501698554237201" lon="120.99830592861964"><ele>5.6</ele><time>2026-04-20T11:15:07.001Z</time></trkpt><trkpt lat="14.50178849638203" lon="120.99835874380106"><ele>5.8</ele><time>2026-04-20T11:15:08.001Z</time></trkpt><trkpt lat="14.501876876727009" lon="120.99841142678673"><ele>6.0</ele><time>2026-04-20T11:15:09.001Z</time></trkpt><trkpt lat="14.501958121702318" lon="120.99845981462335"><ele>6.6</ele><time>2026-04-20T11:15:10.001Z</time></trkpt><trkpt lat="14.502048454203766" lon="120.99851730575412"><ele>7.199999999999999</ele><time>2026-04-20T11:15:11.001Z</time></trkpt><trkpt lat="14.502140320933545" lon="120.99857431191012"><ele>7.800000000000001</ele><time>2026-04-20T11:15:12.001Z</time></trkpt><trkpt lat="14.502221192750476" lon="120.9986227558442"><ele>8.4</ele><time>2026-04-20T11:15:13.001Z</time></trkpt><trkpt lat="14.502306666063594" lon="120.99867756098757"><ele>9.0</ele><time>2026-04-20T11:15:14.001Z</time></trkpt><trkpt lat="14.502394145328386" lon="120.9987182480372"><ele>9.0</ele><time>2026-04-20T11:15:15.001Z</time></trkpt><trkpt lat="14.502495812916315" lon="120.99877017734529"><ele>9.0</ele><time>2026-04-20T11:15:16.001Z</time></trkpt><trkpt lat="14.502584793374915" lon="120.99883120001827"><ele>9.0</ele><time>2026-04-20T11:15:17.001Z</time></trkpt><trkpt lat="14.502688609095546" lon="120.99889409764596"><ele>9.0</ele><time>2026-04-20T11:15:18.001Z</time></trkpt><trkpt lat="14.50278443235148" lon="120.99896585277335"><ele>9.0</ele><time>2026-04-20T11:15:19.001Z</time></trkpt><trkpt lat="14.502885428468357" lon="120.99903123771706"><ele>9.0</ele><time>2026-04-20T11:15:20.001Z</time></trkpt><trkpt lat="14.502991101681642" lon="120.99909011253303"><ele>9.0</ele><time>2026-04-20T11:15:21.001Z</time></trkpt><trkpt lat="14.50310492687999" lon="120.99915659500834"><ele>9.0</ele><time>2026-04-20T11:15:22.001Z</time></trkpt><trkpt lat="14.503212052077208" lon="120.99923266800052"><ele>9.0</ele><time>2026-04-20T11:15:23.001Z</time></trkpt><trkpt lat="14.503323302967853" lon="120.99930400839723"><ele>9.0</ele><time>2026-04-20T11:15:24.001Z</time></trkpt><trkpt lat="14.50343787123972" lon="120.99937227813598"><ele>9.0</ele><time>2026-04-20T11:15:25.001Z</time></trkpt><trkpt lat="14.50355343354091" lon="120.99944479621377"><ele>9.0</ele><time>2026-04-20T11:15:26.001Z</time></trkpt><trkpt lat="14.503666792023793" lon="120.99951812095165"><ele>9.25</ele><time>2026-04-20T11:15:27.001Z</time></trkpt><trkpt lat="14.503783117735605" lon="120.99958600922997"><ele>9.5</ele><time>2026-04-20T11:15:28.001Z</time></trkpt><trkpt lat="14.50390609337646" lon="120.99965743343868"><ele>9.75</ele><time>2026-04-20T11:15:29.001Z</time></trkpt><trkpt lat="14.5040271708451" lon="120.9997327442739"><ele>10.0</ele><time>2026-04-20T11:15:30.001Z</time></trkpt><trkpt lat="14.504145440749994" lon="120.99980876567811"><ele>10.0</ele><time>2026-04-20T11:15:31.001Z</time></trkpt><trkpt lat="14.504265177363948" lon="120.99989300313347"><ele>10.0</ele><time>2026-04-20T11:15:32.001Z</time></trkpt><trkpt lat="14.504374605904127" lon="120.99998464055795"><ele>10.0</ele><time>2026-04-20T11:15:33.001Z</time></trkpt><trkpt lat="14.504484831891977" lon="121.00007619310631"><ele>10.0</ele><time>2026-04-20T11:15:34.001Z</time></trkpt><trkpt lat="14.504602883283553" lon="121.0001615157685"><ele>9.25</ele><time>2026-04-20T11:15:35.001Z</time></trkpt><trkpt lat="14.504723117114304" lon="121.00023537554638"><ele>8.5</ele><time>2026-04-20T11:15:36.001Z</time></trkpt><trkpt lat="14.504843432766798" lon="121.00030828582874"><ele>7.75</ele><time>2026-04-20T11:15:37.001Z</time></trkpt><trkpt lat="14.504965006776517" lon="121.00038538744364"><ele>7.0</ele><time>2026-04-20T11:15:38.001Z</time></trkpt><trkpt lat="14.50508734022509" lon="121.00046083047629"><ele>7.0</ele><time>2026-04-20T11:15:39.001Z</time></trkpt><trkpt lat="14.505208013795338" lon="121.00053877520251"><ele>7.0</ele><time>2026-04-20T11:15:40.001Z</time></trkpt><trkpt lat="14.505326177770321" lon="121.00061859249185"><ele>7.0</ele><time>2026-04-20T11:15:41.001Z</time></trkpt><trkpt lat="14.505442876333028" lon="121.00068151854741"><ele>7.0</ele><time>2026-04-20T11:15:42.001Z</time></trkpt><trkpt lat="14.505563834515135" lon="121.00074096573358"><ele>7.75</ele><time>2026-04-20T11:15:43.001Z</time></trkpt><trkpt lat="14.505684485255115" lon="121.00079890650166"><ele>8.5</ele><time>2026-04-20T11:15:44.001Z</time></trkpt><trkpt lat="14.505801214165874" lon="121.00085054962054"><ele>9.25</ele><time>2026-04-20T11:15:45.001Z</time></trkpt><trkpt lat="14.505920098590892" lon="121.00090570573711"><ele>10.0</ele><time>2026-04-20T11:15:46.001Z</time></trkpt><trkpt lat="14.506037517596464" lon="121.00095632305766"><ele>10.0</ele><time>2026-04-20T11:15:47.001Z</time></trkpt><trkpt lat="14.506153856345374" lon="121.00100972919587"><ele>10.0</ele><time>2026-04-20T11:15:48.001Z</time></trkpt><trkpt lat="14.506256046939596" lon="121.00105054334793"><ele>10.0</ele><time>2026-04-20T11:15:49.001Z</time></trkpt><trkpt lat="14.506340437590987" lon="121.00107557513022"><ele>10.0</ele><time>2026-04-20T11:15:50.001Z</time></trkpt><trkpt lat="14.50641111432823" lon="121.00109329697402"><ele>10.0</ele><time>2026-04-20T11:15:51.001Z</time></trkpt><trkpt lat="14.506477565421612" lon="121.00110864730856"><ele>10.0</ele><time>2026-04-20T11:15:52.001Z</time></trkpt><trkpt lat="14.506552031279922" lon="121.00113989560528"><ele>10.0</ele><time>2026-04-20T11:15:53.001Z</time></trkpt><trkpt lat="14.50662666470182" lon="121.00116779256973"><ele>10.0</ele><time>2026-04-20T11:15:54.001Z</time></trkpt><trkpt lat="14.506692179441542" lon="121.00119421209168"><ele>10.0</ele><time>2026-04-20T11:15:55.001Z</time></trkpt><trkpt lat="14.506790749210305" lon="121.00122352310613"><ele>10.0</ele><time>2026-04-20T11:15:57.001Z</time></trkpt><trkpt lat="14.50689111254361" lon="121.00125833787546"><ele>10.0</ele><time>2026-04-20T11:15:59.001Z</time></trkpt><trkpt lat="14.507001578801603" lon="121.00130448307863"><ele>10.0</ele><time>2026-04-20T11:16:01.001Z</time></trkpt><trkpt lat="14.507062391367905" lon="121.00132534320527"><ele>10.0</ele><time>2026-04-20T11:16:02.001Z</time></trkpt><trkpt lat="14.507130750244315" lon="121.00134706342325"><ele>10.0</ele><time>2026-04-20T11:16:03.001Z</time></trkpt><trkpt lat="14.507238017910062" lon="121.00138898053612"><ele>10.0</ele><time>2026-04-20T11:16:05.001Z</time></trkpt><trkpt lat="14.507352605966005" lon="121.00143318240532"><ele>10.0</ele><time>2026-04-20T11:16:07.001Z</time></trkpt><trkpt lat="14.50741013477613" lon="121.00146236443096"><ele>10.0</ele><time>2026-04-20T11:16:08.001Z</time></trkpt><trkpt lat="14.507473974771685" lon="121.00149980994975"><ele>9.6</ele><time>2026-04-20T11:16:09.001Z</time></trkpt><trkpt lat="14.507548058334995" lon="121.0015381807329"><ele>9.2</ele><time>2026-04-20T11:16:10.001Z</time></trkpt><trkpt lat="14.507629815040522" lon="121.00158695551073"><ele>8.8</ele><time>2026-04-20T11:16:11.001Z</time></trkpt><trkpt lat="14.50770960069921" lon="121.00163320457602"><ele>8.4</ele><time>2026-04-20T11:16:12.001Z</time></trkpt><trkpt lat="14.50779496545243" lon="121.00168388500462"><ele>8.0</ele><time>2026-04-20T11:16:13.001Z</time></trkpt><trkpt lat="14.507880811804378" lon="121.00173176279739"><ele>8.166666666666666</ele><time>2026-04-20T11:16:14.001Z</time></trkpt><trkpt lat="14.507980684242446" lon="121.00178179238159"><ele>8.333333333333332</ele><time>2026-04-20T11:16:15.001Z</time></trkpt><trkpt lat="14.508070544841873" lon="121.00181982315497"><ele>8.5</ele><time>2026-04-20T11:16:16.001Z</time></trkpt><trkpt lat="14.508143770953433" lon="121.00185141929063"><ele>8.666666666666666</ele><time>2026-04-20T11:16:17.001Z</time></trkpt><trkpt lat="14.508208579172683" lon="121.00187805778732"><ele>8.833333333333334</ele><time>2026-04-20T11:16:18.001Z</time></trkpt><trkpt lat="14.508287817989244" lon="121.00190691256547"><ele>9.0</ele><time>2026-04-20T11:16:19.001Z</time></trkpt><trkpt lat="14.50836471380324" lon="121.00193518356065"><ele>9.0</ele><time>2026-04-20T11:16:20.001Z</time></trkpt><trkpt lat="14.50843517359995" lon="121.00195780597264"><ele>9.0</ele><time>2026-04-20T11:16:21.001Z</time></trkpt><trkpt lat="14.508510412353822" lon="121.00198236439671"><ele>9.0</ele><time>2026-04-20T11:16:22.001Z</time></trkpt><trkpt lat="14.50859692833634" lon="121.002012443109"><ele>9.0</ele><time>2026-04-20T11:16:23.001Z</time></trkpt><trkpt lat="14.508680743394017" lon="121.00203743052049"><ele>9.0</ele><time>2026-04-20T11:16:24.001Z</time></trkpt><trkpt lat="14.508773064322854" lon="121.00206136289873"><ele>9.0</ele><time>2026-04-20T11:16:25.001Z</time></trkpt><trkpt lat="14.50885932340301" lon="121.0020800344328"><ele>8.6</ele><time>2026-04-20T11:16:26.001Z</time></trkpt><trkpt lat="14.50894641919392" lon="121.00209366146035"><ele>8.2</ele><time>2026-04-20T11:16:27.001Z</time></trkpt><trkpt lat="14.509033844878074" lon="121.00210828755873"><ele>7.799999999999999</ele><time>2026-04-20T11:16:28.001Z</time></trkpt><trkpt lat="14.509127361905836" lon="121.00212364161503"><ele>7.3999999999999995</ele><time>2026-04-20T11:16:29.001Z</time></trkpt><trkpt lat="14.509218494511405" lon="121.00214414624135"><ele>7.0</ele><time>2026-04-20T11:16:30.001Z</time></trkpt><trkpt lat="14.509317143696434" lon="121.0021751940571"><ele>7.0</ele><time>2026-04-20T11:16:31.001Z</time></trkpt><trkpt lat="14.509412590953797" lon="121.00221176306572"><ele>6.999999999999999</ele><time>2026-04-20T11:16:32.001Z</time></trkpt><trkpt lat="14.509509098779208" lon="121.00224630929775"><ele>6.999999999999999</ele><time>2026-04-20T11:16:33.001Z</time></trkpt><trkpt lat="14.509609098032238" lon="121.00228005775153"><ele>7.0</ele><time>2026-04-20T11:16:34.001Z</time></trkpt><trkpt lat="14.509716667339204" lon="121.00231824529482"><ele>7.0</ele><time>2026-04-20T11:16:35.001Z</time></trkpt><trkpt lat="14.509822380369073" lon="121.00235349625129"><ele>6.5</ele><time>2026-04-20T11:16:36.001Z</time></trkpt><trkpt lat="14.509933134078963" lon="121.00238390740043"><ele>6.0</ele><time>2026-04-20T11:16:37.001Z</time></trkpt><trkpt lat="14.51006263310101" lon="121.00240154649322"><ele>5.5</ele><time>2026-04-20T11:16:38.001Z</time></trkpt><trkpt lat="14.51018201112358" lon="121.0024619861569"><ele>5.0</ele><time>2026-04-20T11:16:39.001Z</time></trkpt><trkpt lat="14.51030800700105" lon="121.00251738955238"><ele>5.333333333333334</ele><time>2026-04-20T11:16:40.001Z</time></trkpt><trkpt lat="14.510444186658168" lon="121.0025660313751"><ele>5.666666666666667</ele><time>2026-04-20T11:16:41.001Z</time></trkpt><trkpt lat="14.51058668272569" lon="121.00261656265594"><ele>6.0</ele><time>2026-04-20T11:16:42.001Z</time></trkpt><trkpt lat="14.510739145805935" lon="121.00266382979459"><ele>6.0</ele><time>2026-04-20T11:16:43.001Z</time></trkpt><trkpt lat="14.510885844853677" lon="121.00271215079755"><ele>6.0</ele><time>2026-04-20T11:16:44.001Z</time></trkpt><trkpt lat="14.51102267762227" lon="121.00276302123387"><ele>6.0</ele><time>2026-04-20T11:16:45.001Z</time></trkpt><trkpt lat="14.511145608715214" lon="121.00281076850246"><ele>6.0</ele><time>2026-04-20T11:16:46.001Z</time></trkpt><trkpt lat="14.51126437120714" lon="121.00285559485329"><ele>6.0</ele><time>2026-04-20T11:16:47.001Z</time></trkpt><trkpt lat="14.511374782113165" lon="121.00289640921096"><ele>6.0</ele><time>2026-04-20T11:16:48.001Z</time></trkpt><trkpt lat="14.511478982708542" lon="121.00293218963235"><ele>6.0</ele><time>2026-04-20T11:16:49.001Z</time></trkpt><trkpt lat="14.511572896147857" lon="121.00296566796867"><ele>6.0</ele><time>2026-04-20T11:16:50.001Z</time></trkpt><trkpt lat="14.511669122229735" lon="121.00300007683252"><ele>6.0</ele><time>2026-04-20T11:16:51.001Z</time></trkpt><trkpt lat="14.511771473584343" lon="121.00303217706293"><ele>6.0</ele><time>2026-04-20T11:16:52.001Z</time></trkpt><trkpt lat="14.511875527710913" lon="121.00307172711209"><ele>6.0</ele><time>2026-04-20T11:16:53.001Z</time></trkpt><trkpt lat="14.511988087324632" lon="121.00310869001702"><ele>6.0</ele><time>2026-04-20T11:16:54.001Z</time></trkpt><trkpt lat="14.51209618340707" lon="121.00314773727276"><ele>6.0</ele><time>2026-04-20T11:16:55.001Z</time></trkpt><trkpt lat="14.51220210782469" lon="121.00318655998419"><ele>6.25</ele><time>2026-04-20T11:16:56.001Z</time></trkpt><trkpt lat="14.512308367512103" lon="121.00323466566248"><ele>6.5</ele><time>2026-04-20T11:16:57.001Z</time></trkpt><trkpt lat="14.512433542219235" lon="121.00328438333656"><ele>6.75</ele><time>2026-04-20T11:16:58.001Z</time></trkpt><trkpt lat="14.512548762806793" lon="121.00333120817434"><ele>7.0</ele><time>2026-04-20T11:16:59.001Z</time></trkpt><trkpt lat="14.51267014670079" lon="121.00337570467862"><ele>7.0</ele><time>2026-04-20T11:17:00.001Z</time></trkpt><trkpt lat="14.512799346224604" lon="121.00341930165138"><ele>7.0</ele><time>2026-04-20T11:17:01.001Z</time></trkpt><trkpt lat="14.512922136202397" lon="121.00345793980145"><ele>7.0</ele><time>2026-04-20T11:17:02.001Z</time></trkpt><trkpt lat="14.513040482096649" lon="121.0034915074222"><ele>7.0</ele><time>2026-04-20T11:17:03.001Z</time></trkpt><trkpt lat="14.513156769620007" lon="121.00353447372223"><ele>7.25</ele><time>2026-04-20T11:17:04.001Z</time></trkpt><trkpt lat="14.513272614972864" lon="121.00357568226804"><ele>7.5</ele><time>2026-04-20T11:17:05.001Z</time></trkpt><trkpt lat="14.513394444620396" lon="121.00361648515435"><ele>7.75</ele><time>2026-04-20T11:17:06.001Z</time></trkpt><trkpt lat="14.51351072616573" lon="121.00365718263245"><ele>8.0</ele><time>2026-04-20T11:17:07.001Z</time></trkpt><trkpt lat="14.513629160300216" lon="121.00369904358845"><ele>9.0</ele><time>2026-04-20T11:17:08.001Z</time></trkpt><trkpt lat="14.513743082621438" lon="121.00374399435913"><ele>10.0</ele><time>2026-04-20T11:17:09.001Z</time></trkpt><trkpt lat="14.513871721011373" lon="121.00379242994312"><ele>11.0</ele><time>2026-04-20T11:17:10.001Z</time></trkpt><trkpt lat="14.51398746636358" lon="121.00383242752827"><ele>12.0</ele><time>2026-04-20T11:17:11.001Z</time></trkpt><trkpt lat="14.514106967518313" lon="121.00386952480939"><ele>12.0</ele><time>2026-04-20T11:17:12.001Z</time></trkpt><trkpt lat="14.514199086298271" lon="121.00390222752723"><ele>12.0</ele><time>2026-04-20T11:17:13.001Z</time></trkpt><trkpt lat="14.514293677131883" lon="121.00392968712619"><ele>12.0</ele><time>2026-04-20T11:17:14.001Z</time></trkpt><trkpt lat="14.514372590708446" lon="121.003954973947"><ele>12.0</ele><time>2026-04-20T11:17:15.001Z</time></trkpt><trkpt lat="14.51443934872074" lon="121.00397641920253"><ele>12.0</ele><time>2026-04-20T11:17:16.001Z</time></trkpt><trkpt lat="14.514504947221521" lon="121.00399889523737"><ele>12.0</ele><time>2026-04-20T11:17:17.001Z</time></trkpt><trkpt lat="14.514610517240213" lon="121.00402674468751"><ele>11.571428571428571</ele><time>2026-04-20T11:17:19.001Z</time></trkpt><trkpt lat="14.514687884057953" lon="121.00405371548885"><ele>11.142857142857142</ele><time>2026-04-20T11:17:21.001Z</time></trkpt><trkpt lat="14.514737059362664" lon="121.00410690484985"><ele>10.714285714285715</ele><time>2026-04-20T11:17:24.001Z</time></trkpt><trkpt lat="14.51480654610871" lon="121.00410910419306"><ele>10.285714285714285</ele><time>2026-04-20T11:17:30.001Z</time></trkpt><trkpt lat="14.514882905789804" lon="121.0041030471804"><ele>9.857142857142858</ele><time>2026-04-20T11:17:34.001Z</time></trkpt><trkpt lat="14.514942834990995" lon="121.00412546408992"><ele>9.428571428571429</ele><time>2026-04-20T11:18:16.001Z</time></trkpt><trkpt lat="14.515004471321577" lon="121.00414613064653"><ele>9.0</ele><time>2026-04-20T11:18:18.001Z</time></trkpt><trkpt lat="14.51507231969647" lon="121.00417025273136"><ele>9.0</ele><time>2026-04-20T11:18:20.001Z</time></trkpt><trkpt lat="14.515125300418026" lon="121.00422458286229"><ele>9.0</ele><time>2026-04-20T11:18:22.001Z</time></trkpt><trkpt lat="14.515200834862275" lon="121.00425324915543"><ele>9.0</ele><time>2026-04-20T11:18:25.001Z</time></trkpt><trkpt lat="14.515277797695468" lon="121.00428173389803"><ele>9.0</ele><time>2026-04-20T11:18:28.001Z</time></trkpt><trkpt lat="14.515443179802073" lon="121.00410716789375"><ele>8.8</ele><time>2026-04-20T11:18:31.001Z</time></trkpt><trkpt lat="14.515476117446989" lon="121.0040361375586"><ele>8.600000000000001</ele><time>2026-04-20T11:18:32.001Z</time></trkpt><trkpt lat="14.515519379293277" lon="121.00394611259522"><ele>8.4</ele><time>2026-04-20T11:18:33.001Z</time></trkpt><trkpt lat="14.51555968020745" lon="121.00386221897618"><ele>8.200000000000001</ele><time>2026-04-20T11:18:34.001Z</time></trkpt><trkpt lat="14.515610731957063" lon="121.00375391453711"><ele>8.0</ele><time>2026-04-20T11:18:35.001Z</time></trkpt><trkpt lat="14.515665659396952" lon="121.00363671870323"><ele>8.0</ele><time>2026-04-20T11:18:36.001Z</time></trkpt><trkpt lat="14.515722677005451" lon="121.00351259249562"><ele>8.0</ele><time>2026-04-20T11:18:37.001Z</time></trkpt><trkpt lat="14.515781504049636" lon="121.00339353976051"><ele>8.0</ele><time>2026-04-20T11:18:38.001Z</time></trkpt><trkpt lat="14.515845370669291" lon="121.00326759456026"><ele>8.0</ele><time>2026-04-20T11:18:39.001Z</time></trkpt><trkpt lat="14.515912808475008" lon="121.00313463671554"><ele>7.5</ele><time>2026-04-20T11:18:40.001Z</time></trkpt><trkpt lat="14.51598284212194" lon="121.00299662759724"><ele>7.0</ele><time>2026-04-20T11:18:41.001Z</time></trkpt><trkpt lat="14.516051657360753" lon="121.00286957579776"><ele>6.5</ele><time>2026-04-20T11:18:42.001Z</time></trkpt><trkpt lat="14.516120426609678" lon="121.00273176960334"><ele>6.0</ele><time>2026-04-20T11:18:43.001Z</time></trkpt><trkpt lat="14.516188453070034" lon="121.00259729650712"><ele>6.25</ele><time>2026-04-20T11:18:44.001Z</time></trkpt><trkpt lat="14.516256960451805" lon="121.0024633403831"><ele>6.5</ele><time>2026-04-20T11:18:45.001Z</time></trkpt><trkpt lat="14.516326349639947" lon="121.00232766002233"><ele>6.75</ele><time>2026-04-20T11:18:46.001Z</time></trkpt><trkpt lat="14.516395616406667" lon="121.00219221903404"><ele>7.0</ele><time>2026-04-20T11:18:47.001Z</time></trkpt><trkpt lat="14.516465777449026" lon="121.00205381498232"><ele>7.0</ele><time>2026-04-20T11:18:48.001Z</time></trkpt><trkpt lat="14.516535292199658" lon="121.00191657035968"><ele>7.0</ele><time>2026-04-20T11:18:49.001Z</time></trkpt><trkpt lat="14.516605356652777" lon="121.00177824044204"><ele>7.0</ele><time>2026-04-20T11:18:50.001Z</time></trkpt><trkpt lat="14.51667057320262" lon="121.00163437893896"><ele>6.75</ele><time>2026-04-20T11:18:51.001Z</time></trkpt><trkpt lat="14.516724092728337" lon="121.00151291617871"><ele>6.5</ele><time>2026-04-20T11:18:52.001Z</time></trkpt><trkpt lat="14.516771982270196" lon="121.00138271968116"><ele>6.25</ele><time>2026-04-20T11:18:53.001Z</time></trkpt><trkpt lat="14.516816642639762" lon="121.00126378165449"><ele>6.0</ele><time>2026-04-20T11:18:54.001Z</time></trkpt><trkpt lat="14.516854355397594" lon="121.00116334630421"><ele>6.0</ele><time>2026-04-20T11:18:55.001Z</time></trkpt><trkpt lat="14.516885925689932" lon="121.00107458048672"><ele>6.0</ele><time>2026-04-20T11:18:56.001Z</time></trkpt><trkpt lat="14.516906307497624" lon="121.00099255937964"><ele>6.0</ele><time>2026-04-20T11:18:57.001Z</time></trkpt><trkpt lat="14.516926551380864" lon="121.00091948973184"><ele>6.0</ele><time>2026-04-20T11:18:58.001Z</time></trkpt><trkpt lat="14.51693252482876" lon="121.00083056231394"><ele>6.0</ele><time>2026-04-20T11:18:59.001Z</time></trkpt><trkpt lat="14.516944987502976" lon="121.00075513258923"><ele>6.0</ele><time>2026-04-20T11:19:00.001Z</time></trkpt><trkpt lat="14.51692326598883" lon="121.00066738468809"><ele>5.857142857142857</ele><time>2026-04-20T11:19:01.001Z</time></trkpt><trkpt lat="14.516933700968785" lon="121.00058220363259"><ele>5.714285714285714</ele><time>2026-04-20T11:19:02.001Z</time></trkpt><trkpt lat="14.516942072866945" lon="121.00050989701431"><ele>5.571428571428571</ele><time>2026-04-20T11:19:03.001Z</time></trkpt><trkpt lat="14.516946601783497" lon="121.00044170987039"><ele>5.428571428571429</ele><time>2026-04-20T11:19:04.001Z</time></trkpt><trkpt lat="14.516950740211312" lon="121.00037116735274"><ele>5.285714285714286</ele><time>2026-04-20T11:19:05.001Z</time></trkpt><trkpt lat="14.516953914880947" lon="121.00029652780017"><ele>5.142857142857142</ele><time>2026-04-20T11:19:06.001Z</time></trkpt><trkpt lat="14.516955451089647" lon="121.00021696340922"><ele>5.0</ele><time>2026-04-20T11:19:07.001Z</time></trkpt><trkpt lat="14.516967846092834" lon="121.0001115034208"><ele>5.0</ele><time>2026-04-20T11:19:08.001Z</time></trkpt><trkpt lat="14.516983553267265" lon="121.00001460771861"><ele>5.0</ele><time>2026-04-20T11:19:09.001Z</time></trkpt><trkpt lat="14.516983682567009" lon="120.99992714874652"><ele>5.0</ele><time>2026-04-20T11:19:10.001Z</time></trkpt><trkpt lat="14.516985338691619" lon="120.99983436837661"><ele>5.0</ele><time>2026-04-20T11:19:11.001Z</time></trkpt><trkpt lat="14.516988758367118" lon="120.99975203989949"><ele>5.0</ele><time>2026-04-20T11:19:12.001Z</time></trkpt><trkpt lat="14.516993585369276" lon="120.99966636789115"><ele>5.0</ele><time>2026-04-20T11:19:13.001Z</time></trkpt><trkpt lat="14.51698844193769" lon="120.99959444464183"><ele>5.0</ele><time>2026-04-20T11:19:14.001Z</time></trkpt><trkpt lat="14.517006431864553" lon="120.99948188635969"><ele>5.0</ele><time>2026-04-20T11:19:16.001Z</time></trkpt><trkpt lat="14.517008188495149" lon="120.99934545467816"><ele>5.0</ele><time>2026-04-20T11:19:18.001Z</time></trkpt><trkpt lat="14.517013381500533" lon="120.9992078302806"><ele>5.0</ele><time>2026-04-20T11:19:20.001Z</time></trkpt><trkpt lat="14.517021972467957" lon="120.9991185166463"><ele>5.2</ele><time>2026-04-20T11:19:21.001Z</time></trkpt><trkpt lat="14.517005716338318" lon="120.99902809709214"><ele>5.4</ele><time>2026-04-20T11:19:22.001Z</time></trkpt><trkpt lat="14.51700231710936" lon="120.99894727037062"><ele>5.6</ele><time>2026-04-20T11:19:23.001Z</time></trkpt><trkpt lat="14.517003557839637" lon="120.99887110366488"><ele>5.8</ele><time>2026-04-20T11:19:24.001Z</time></trkpt><trkpt lat="14.517015753192924" lon="120.99874241020443"><ele>6.0</ele><time>2026-04-20T11:19:26.001Z</time></trkpt><trkpt lat="14.5170206848007" lon="120.99860357914781"><ele>6.0</ele><time>2026-04-20T11:19:28.001Z</time></trkpt><trkpt lat="14.51701580234941" lon="120.99852171881736"><ele>6.0</ele><time>2026-04-20T11:19:29.001Z</time></trkpt><trkpt lat="14.51701047640298" lon="120.9984279468208"><ele>6.0</ele><time>2026-04-20T11:19:30.001Z</time></trkpt><trkpt lat="14.517009190553999" lon="120.99831894865444"><ele>6.0</ele><time>2026-04-20T11:19:31.001Z</time></trkpt><trkpt lat="14.517017185690777" lon="120.99820529174448"><ele>6.0</ele><time>2026-04-20T11:19:32.001Z</time></trkpt><trkpt lat="14.517016336026336" lon="120.99807959104643"><ele>5.75</ele><time>2026-04-20T11:19:33.001Z</time></trkpt><trkpt lat="14.517019949779227" lon="120.99793327451547"><ele>5.5</ele><time>2026-04-20T11:19:34.001Z</time></trkpt><trkpt lat="14.517023567153009" lon="120.99779749650769"><ele>5.25</ele><time>2026-04-20T11:19:35.001Z</time></trkpt><trkpt lat="14.517016137060432" lon="120.99766452439103"><ele>5.0</ele><time>2026-04-20T11:19:36.001Z</time></trkpt><trkpt lat="14.51702635946692" lon="120.9975370000364"><ele>4.8</ele><time>2026-04-20T11:19:37.001Z</time></trkpt><trkpt lat="14.51702771815251" lon="120.99742609251089"><ele>4.6</ele><time>2026-04-20T11:19:38.001Z</time></trkpt><trkpt lat="14.517036876331877" lon="120.997314861383"><ele>4.4</ele><time>2026-04-20T11:19:39.001Z</time></trkpt><trkpt lat="14.517039731821672" lon="120.99719101286205"><ele>4.2</ele><time>2026-04-20T11:19:40.001Z</time></trkpt><trkpt lat="14.517049337064213" lon="120.99709292697274"><ele>4.0</ele><time>2026-04-20T11:19:41.001Z</time></trkpt><trkpt lat="14.517074272829301" lon="120.9970294677293"><ele>3.9999999999999996</ele><time>2026-04-20T11:19:42.001Z</time></trkpt><trkpt lat="14.517084635051033" lon="120.9969609303295"><ele>4.0</ele><time>2026-04-20T11:19:43.001Z</time></trkpt><trkpt lat="14.517090438734998" lon="120.99684545188916"><ele>4.0</ele><time>2026-04-20T11:19:45.001Z</time></trkpt><trkpt lat="14.517113296206508" lon="120.99675483137989"><ele>4.0</ele><time>2026-04-20T11:19:47.001Z</time></trkpt><trkpt lat="14.517127433984305" lon="120.99668848261926"><ele>3.9999999999999996</ele><time>2026-04-20T11:19:51.001Z</time></trkpt><trkpt lat="14.517152936221386" lon="120.99659660013852"><ele>4.0</ele><time>2026-04-20T11:20:55.001Z</time></trkpt><trkpt lat="14.517163445478612" lon="120.99651875177433"><ele>4.6</ele><time>2026-04-20T11:20:57.001Z</time></trkpt><trkpt lat="14.517195599662307" lon="120.99641396714932"><ele>5.2</ele><time>2026-04-20T11:20:59.001Z</time></trkpt><trkpt lat="14.517223264432136" lon="120.99628266425786"><ele>5.799999999999999</ele><time>2026-04-20T11:21:01.001Z</time></trkpt><trkpt lat="14.51722903508211" lon="120.99620492477985"><ele>6.3999999999999995</ele><time>2026-04-20T11:21:02.001Z</time></trkpt><trkpt lat="14.517234189423164" lon="120.99611338280882"><ele>7.0</ele><time>2026-04-20T11:21:03.001Z</time></trkpt><trkpt lat="14.517242872451579" lon="120.99602774721971"><ele>7.0</ele><time>2026-04-20T11:21:04.001Z</time></trkpt><trkpt lat="14.517248154714409" lon="120.99592213796174"><ele>6.999999999999999</ele><time>2026-04-20T11:21:05.001Z</time></trkpt><trkpt lat="14.51725888210344" lon="120.9958126245906"><ele>6.999999999999999</ele><time>2026-04-20T11:21:06.001Z</time></trkpt><trkpt lat="14.517275038202648" lon="120.99569557339491"><ele>7.0</ele><time>2026-04-20T11:21:07.001Z</time></trkpt><trkpt lat="14.517290036449127" lon="120.99556880043255"><ele>7.0</ele><time>2026-04-20T11:21:08.001Z</time></trkpt><trkpt lat="14.517304276137155" lon="120.99544490832884"><ele>7.0</ele><time>2026-04-20T11:21:09.001Z</time></trkpt><trkpt lat="14.517317362654865" lon="120.99532146862326"><ele>7.0</ele><time>2026-04-20T11:21:10.001Z</time></trkpt><trkpt lat="14.517330421883237" lon="120.9951948818456"><ele>7.0</ele><time>2026-04-20T11:21:11.001Z</time></trkpt><trkpt lat="14.517343161959149" lon="120.99507370424477"><ele>7.0</ele><time>2026-04-20T11:21:12.001Z</time></trkpt><trkpt lat="14.517354247500592" lon="120.99495665864985"><ele>7.199999999999999</ele><time>2026-04-20T11:21:13.001Z</time></trkpt><trkpt lat="14.517364825352637" lon="120.99484614156296"><ele>7.3999999999999995</ele><time>2026-04-20T11:21:14.001Z</time></trkpt><trkpt lat="14.517381997379257" lon="120.99474175419004"><ele>7.6000000000000005</ele><time>2026-04-20T11:21:15.001Z</time></trkpt><trkpt lat="14.517366564685103" lon="120.99465966087001"><ele>7.800000000000001</ele><time>2026-04-20T11:21:16.001Z</time></trkpt><trkpt lat="14.517416425830477" lon="120.9945589255469"><ele>8.0</ele><time>2026-04-20T11:21:17.001Z</time></trkpt><trkpt lat="14.517429539376764" lon="120.99445875972611"><ele>8.0</ele><time>2026-04-20T11:21:18.001Z</time></trkpt><trkpt lat="14.517439450799474" lon="120.99435337711024"><ele>8.0</ele><time>2026-04-20T11:21:19.001Z</time></trkpt><trkpt lat="14.517454134977768" lon="120.99424198936164"><ele>8.0</ele><time>2026-04-20T11:21:20.001Z</time></trkpt><trkpt lat="14.517463333345031" lon="120.9941432989769"><ele>8.0</ele><time>2026-04-20T11:21:21.001Z</time></trkpt><trkpt lat="14.517472802843127" lon="120.9940597594412"><ele>8.0</ele><time>2026-04-20T11:21:22.001Z</time></trkpt><trkpt lat="14.517485114037527" lon="120.99398490026962"><ele>8.166666666666666</ele><time>2026-04-20T11:21:23.001Z</time></trkpt><trkpt lat="14.517494779792754" lon="120.99391662268197"><ele>8.333333333333332</ele><time>2026-04-20T11:21:24.001Z</time></trkpt><trkpt lat="14.517506112017958" lon="120.99384130928516"><ele>8.5</ele><time>2026-04-20T11:21:25.001Z</time></trkpt><trkpt lat="14.51752321136371" lon="120.99377834636063"><ele>8.666666666666666</ele><time>2026-04-20T11:21:26.001Z</time></trkpt><trkpt lat="14.517559896887265" lon="120.99367943292698"><ele>8.833333333333334</ele><time>2026-04-20T11:21:28.001Z</time></trkpt><trkpt lat="14.517596966213555" lon="120.993588238274"><ele>9.0</ele><time>2026-04-20T11:21:30.001Z</time></trkpt><trkpt lat="14.517669906276469" lon="120.99353972592594"><ele>9.0</ele><time>2026-04-20T11:21:31.001Z</time></trkpt><trkpt lat="14.517812381260274" lon="120.99350085539935"><ele>9.0</ele><time>2026-04-20T11:21:33.001Z</time></trkpt><trkpt lat="14.51790971308066" lon="120.99350203735521"><ele>9.0</ele><time>2026-04-20T11:21:34.001Z</time></trkpt><trkpt lat="14.518019259979793" lon="120.9935048142084"><ele>9.0</ele><time>2026-04-20T11:21:35.001Z</time></trkpt><trkpt lat="14.518144690633104" lon="120.99350359899961"><ele>12.0</ele><time>2026-04-20T11:21:36.001Z</time></trkpt><trkpt lat="14.518271831618868" lon="120.99351429555692"><ele>15.0</ele><time>2026-04-20T11:21:37.001Z</time></trkpt><trkpt lat="14.518411891855136" lon="120.99352738705623"><ele>18.0</ele><time>2026-04-20T11:21:38.001Z</time></trkpt><trkpt lat="14.51855973061573" lon="120.99354119840584"><ele>21.0</ele><time>2026-04-20T11:21:39.001Z</time></trkpt><trkpt lat="14.518714733070029" lon="120.99355634801519"><ele>23.0</ele><time>2026-04-20T11:21:40.001Z</time></trkpt><trkpt lat="14.518879927037384" lon="120.99356879523856"><ele>25.0</ele><time>2026-04-20T11:21:41.001Z</time></trkpt><trkpt lat="14.519049145118554" lon="120.99358089848114"><ele>27.0</ele><time>2026-04-20T11:21:42.001Z</time></trkpt><trkpt lat="14.519225806731031" lon="120.99359033367719"><ele>27.0</ele><time>2026-04-20T11:21:43.001Z</time></trkpt><trkpt lat="14.519407689776234" lon="120.99359662205428"><ele>27.0</ele><time>2026-04-20T11:21:44.001Z</time></trkpt><trkpt lat="14.519587419589538" lon="120.99360617006303"><ele>27.0</ele><time>2026-04-20T11:21:45.001Z</time></trkpt><trkpt lat="14.519781578104912" lon="120.9936177947556"><ele>20.666666666666668</ele><time>2026-04-20T11:21:46.001Z</time></trkpt><trkpt lat="14.519970191950815" lon="120.99362911456797"><ele>14.333333333333332</ele><time>2026-04-20T11:21:47.001Z</time></trkpt><trkpt lat="14.520166333977771" lon="120.99364064428958"><ele>8.0</ele><time>2026-04-20T11:21:48.001Z</time></trkpt><trkpt lat="14.520367882559468" lon="120.99365106255672"><ele>7.0</ele><time>2026-04-20T11:21:49.001Z</time></trkpt><trkpt lat="14.520566624762882" lon="120.99366314519268"><ele>6.0</ele><time>2026-04-20T11:21:50.001Z</time></trkpt><trkpt lat="14.52076887644783" lon="120.99367717175839"><ele>5.0</ele><time>2026-04-20T11:21:51.001Z</time></trkpt><trkpt lat="14.520978592300725" lon="120.99369093176837"><ele>5.0</ele><time>2026-04-20T11:21:52.001Z</time></trkpt><trkpt lat="14.521188751293993" lon="120.99370904334062"><ele>5.0</ele><time>2026-04-20T11:21:53.001Z</time></trkpt><trkpt lat="14.521406947940138" lon="120.99371956273933"><ele>5.0</ele><time>2026-04-20T11:21:54.001Z</time></trkpt><trkpt lat="14.521630936960582" lon="120.99373358885505"><ele>5.0</ele><time>2026-04-20T11:21:55.001Z</time></trkpt><trkpt lat="14.521836227649077" lon="120.9937407816148"><ele>5.0</ele><time>2026-04-20T11:21:56.001Z</time></trkpt><trkpt lat="14.522058206622672" lon="120.99375485994132"><ele>5.0</ele><time>2026-04-20T11:21:57.001Z</time></trkpt><trkpt lat="14.522272355034266" lon="120.99376354503718"><ele>5.0</ele><time>2026-04-20T11:21:58.001Z</time></trkpt><trkpt lat="14.522488578603035" lon="120.99376448267849"><ele>5.0</ele><time>2026-04-20T11:21:59.001Z</time></trkpt><trkpt lat="14.52271024750658" lon="120.99376382343472"><ele>5.0</ele><time>2026-04-20T11:22:00.001Z</time></trkpt><trkpt lat="14.52293640377885" lon="120.99376001999197"><ele>6.0</ele><time>2026-04-20T11:22:01.001Z</time></trkpt><trkpt lat="14.523158046080468" lon="120.99375962568995"><ele>7.0</ele><time>2026-04-20T11:22:02.001Z</time></trkpt><trkpt lat="14.523381149044264" lon="120.99375499277194"><ele>8.0</ele><time>2026-04-20T11:22:03.001Z</time></trkpt><trkpt lat="14.523600407829925" lon="120.99375570680273"><ele>8.0</ele><time>2026-04-20T11:22:04.001Z</time></trkpt><trkpt lat="14.523837221359857" lon="120.99375630563367"><ele>8.0</ele><time>2026-04-20T11:22:05.001Z</time></trkpt><trkpt lat="14.524071170421555" lon="120.99376241355095"><ele>8.0</ele><time>2026-04-20T11:22:06.001Z</time></trkpt><trkpt lat="14.524294679387667" lon="120.99375952483415"><ele>8.0</ele><time>2026-04-20T11:22:07.001Z</time></trkpt><trkpt lat="14.524517473545501" lon="120.99375651334104"><ele>8.0</ele><time>2026-04-20T11:22:08.001Z</time></trkpt><trkpt lat="14.524760979359026" lon="120.99376343974944"><ele>8.5</ele><time>2026-04-20T11:22:09.001Z</time></trkpt><trkpt lat="14.52499371710243" lon="120.99376601815365"><ele>9.0</ele><time>2026-04-20T11:22:10.001Z</time></trkpt><trkpt lat="14.525229769084552" lon="120.99376960823497"><ele>12.0</ele><time>2026-04-20T11:22:11.001Z</time></trkpt><trkpt lat="14.525468619220089" lon="120.99377357467854"><ele>15.0</ele><time>2026-04-20T11:22:12.001Z</time></trkpt><trkpt lat="14.525690545378781" lon="120.99377347771579"><ele>15.0</ele><time>2026-04-20T11:22:13.001Z</time></trkpt><trkpt lat="14.525899778801854" lon="120.993772795108"><ele>15.0</ele><time>2026-04-20T11:22:14.001Z</time></trkpt><trkpt lat="14.526109263658997" lon="120.99377959487768"><ele>15.0</ele><time>2026-04-20T11:22:15.001Z</time></trkpt><trkpt lat="14.5262947491315" lon="120.99377548331418"><ele>12.333333333333334</ele><time>2026-04-20T11:22:16.001Z</time></trkpt><trkpt lat="14.526485032481062" lon="120.99376699200621"><ele>9.666666666666668</ele><time>2026-04-20T11:22:17.001Z</time></trkpt><trkpt lat="14.526683607399631" lon="120.99375894993554"><ele>7.0</ele><time>2026-04-20T11:22:18.001Z</time></trkpt><trkpt lat="14.526874200968864" lon="120.99374405828152"><ele>7.0</ele><time>2026-04-20T11:22:19.001Z</time></trkpt><trkpt lat="14.52705009081611" lon="120.99373480946377"><ele>7.0</ele><time>2026-04-20T11:22:20.001Z</time></trkpt><trkpt lat="14.527213159165653" lon="120.99371857177313"><ele>7.0</ele><time>2026-04-20T11:22:21.001Z</time></trkpt><trkpt lat="14.527368130628052" lon="120.9937005025023"><ele>7.75</ele><time>2026-04-20T11:22:22.001Z</time></trkpt><trkpt lat="14.527509427365379" lon="120.9936819226024"><ele>8.5</ele><time>2026-04-20T11:22:23.001Z</time></trkpt><trkpt lat="14.527655019855521" lon="120.99365923853567"><ele>9.25</ele><time>2026-04-20T11:22:24.001Z</time></trkpt><trkpt lat="14.527781515122838" lon="120.99364409578565"><ele>10.0</ele><time>2026-04-20T11:22:25.001Z</time></trkpt><trkpt lat="14.527889263121263" lon="120.99363271336112"><ele>9.8</ele><time>2026-04-20T11:22:26.001Z</time></trkpt><trkpt lat="14.52798559411249" lon="120.99362514123318"><ele>9.6</ele><time>2026-04-20T11:22:27.001Z</time></trkpt><trkpt lat="14.528084940321827" lon="120.99361044480065"><ele>9.4</ele><time>2026-04-20T11:22:28.001Z</time></trkpt><trkpt lat="14.528179144132194" lon="120.99359883588258"><ele>9.2</ele><time>2026-04-20T11:22:29.001Z</time></trkpt><trkpt lat="14.528285833212534" lon="120.99358489467294"><ele>9.0</ele><time>2026-04-20T11:22:30.001Z</time></trkpt><trkpt lat="14.528404559585997" lon="120.99357477680128"><ele>9.0</ele><time>2026-04-20T11:22:31.001Z</time></trkpt><trkpt lat="14.528535745588274" lon="120.99356066423216"><ele>9.0</ele><time>2026-04-20T11:22:32.001Z</time></trkpt><trkpt lat="14.528674109808836" lon="120.99353907979634"><ele>9.0</ele><time>2026-04-20T11:22:33.001Z</time></trkpt><trkpt lat="14.528804190014256" lon="120.99352157920963"><ele>9.0</ele><time>2026-04-20T11:22:34.001Z</time></trkpt><trkpt lat="14.528937653150145" lon="120.99350692859365"><ele>8.5</ele><time>2026-04-20T11:22:35.001Z</time></trkpt><trkpt lat="14.529056315168678" lon="120.99349468357474"><ele>8.0</ele><time>2026-04-20T11:22:36.001Z</time></trkpt><trkpt lat="14.529176937254828" lon="120.99348142140144"><ele>7.5</ele><time>2026-04-20T11:22:37.001Z</time></trkpt><trkpt lat="14.529288814557791" lon="120.99346851804059"><ele>7.0</ele><time>2026-04-20T11:22:38.001Z</time></trkpt><trkpt lat="14.529389778947628" lon="120.99345750822194"><ele>7.0</ele><time>2026-04-20T11:22:39.001Z</time></trkpt><trkpt lat="14.529487560917389" lon="120.99344577973228"><ele>6.999999999999999</ele><time>2026-04-20T11:22:40.001Z</time></trkpt><trkpt lat="14.529586603033053" lon="120.99343367579586"><ele>6.999999999999999</ele><time>2026-04-20T11:22:41.001Z</time></trkpt><trkpt lat="14.529673861931725" lon="120.99342074953977"><ele>7.0</ele><time>2026-04-20T11:22:42.001Z</time></trkpt><trkpt lat="14.5297738994266" lon="120.99340713995018"><ele>7.0</ele><time>2026-04-20T11:22:43.001Z</time></trkpt><trkpt lat="14.529874762274028" lon="120.99339711712227"><ele>7.6</ele><time>2026-04-20T11:22:44.001Z</time></trkpt><trkpt lat="14.529972749647957" lon="120.99338718315421"><ele>8.2</ele><time>2026-04-20T11:22:45.001Z</time></trkpt><trkpt lat="14.530072490110536" lon="120.99337366511473"><ele>8.8</ele><time>2026-04-20T11:22:46.001Z</time></trkpt><trkpt lat="14.53017449773422" lon="120.9933621885432"><ele>9.4</ele><time>2026-04-20T11:22:47.001Z</time></trkpt><trkpt lat="14.530273819325572" lon="120.99335606265791"><ele>10.0</ele><time>2026-04-20T11:22:48.001Z</time></trkpt><trkpt lat="14.530369883662841" lon="120.99334360278505"><ele>8.6</ele><time>2026-04-20T11:22:49.001Z</time></trkpt><trkpt lat="14.530461655847944" lon="120.99332765085913"><ele>7.2</ele><time>2026-04-20T11:22:50.001Z</time></trkpt><trkpt lat="14.530548575394945" lon="120.99331716574063"><ele>5.8</ele><time>2026-04-20T11:22:51.001Z</time></trkpt><trkpt lat="14.530638322664633" lon="120.99330707687325"><ele>4.4</ele><time>2026-04-20T11:22:52.001Z</time></trkpt><trkpt lat="14.53073169935046" lon="120.99329693666415"><ele>3.0</ele><time>2026-04-20T11:22:53.001Z</time></trkpt><trkpt lat="14.530829949577177" lon="120.99328514501197"><ele>3.0</ele><time>2026-04-20T11:22:54.001Z</time></trkpt><trkpt lat="14.530919013039817" lon="120.99327652684097"><ele>3.0</ele><time>2026-04-20T11:22:55.001Z</time></trkpt><trkpt lat="14.53099513572804" lon="120.99326627522973"><ele>3.0</ele><time>2026-04-20T11:22:56.001Z</time></trkpt><trkpt lat="14.53106737502552" lon="120.99325863409015"><ele>3.0</ele><time>2026-04-20T11:22:57.001Z</time></trkpt><trkpt lat="14.531149576319871" lon="120.99324787520142"><ele>3.0</ele><time>2026-04-20T11:22:58.001Z</time></trkpt><trkpt lat="14.53122427231754" lon="120.99324102831883"><ele>3.0</ele><time>2026-04-20T11:22:59.001Z</time></trkpt><trkpt lat="14.531297725947352" lon="120.99323169782524"><ele>3.4285714285714284</ele><time>2026-04-20T11:23:00.001Z</time></trkpt><trkpt lat="14.531365483178805" lon="120.9932238341411"><ele>3.8571428571428568</ele><time>2026-04-20T11:23:01.001Z</time></trkpt><trkpt lat="14.531434242011395" lon="120.9932175382827"><ele>4.285714285714286</ele><time>2026-04-20T11:23:02.001Z</time></trkpt><trkpt lat="14.531505596026513" lon="120.99320737996175"><ele>4.7142857142857135</ele><time>2026-04-20T11:23:03.001Z</time></trkpt><trkpt lat="14.531576293259098" lon="120.99320029399685"><ele>5.142857142857142</ele><time>2026-04-20T11:23:04.001Z</time></trkpt><trkpt lat="14.531648019889149" lon="120.99319216504797"><ele>5.571428571428571</ele><time>2026-04-20T11:23:05.001Z</time></trkpt><trkpt lat="14.531723818378289" lon="120.99318481631887"><ele>6.0</ele><time>2026-04-20T11:23:06.001Z</time></trkpt><trkpt lat="14.531809095297938" lon="120.99317385701703"><ele>6.0</ele><time>2026-04-20T11:23:07.001Z</time></trkpt><trkpt lat="14.531902265901232" lon="120.9931622993865"><ele>6.0</ele><time>2026-04-20T11:23:08.001Z</time></trkpt><trkpt lat="14.531988598490589" lon="120.99315590219366"><ele>6.0</ele><time>2026-04-20T11:23:09.001Z</time></trkpt><trkpt lat="14.532062689581414" lon="120.99314479658007"><ele>6.0</ele><time>2026-04-20T11:23:10.001Z</time></trkpt><trkpt lat="14.532137578546228" lon="120.99313429029078"><ele>6.0</ele><time>2026-04-20T11:23:11.001Z</time></trkpt><trkpt lat="14.532214831951926" lon="120.99312341158003"><ele>6.0</ele><time>2026-04-20T11:23:12.001Z</time></trkpt><trkpt lat="14.53230113675393" lon="120.99311211489282"><ele>6.333333333333333</ele><time>2026-04-20T11:23:13.001Z</time></trkpt><trkpt lat="14.532379313165901" lon="120.99310347096242"><ele>6.666666666666666</ele><time>2026-04-20T11:23:14.001Z</time></trkpt><trkpt lat="14.532456725359827" lon="120.99309534519621"><ele>7.0</ele><time>2026-04-20T11:23:15.001Z</time></trkpt><trkpt lat="14.532543854035566" lon="120.9930823305925"><ele>7.333333333333333</ele><time>2026-04-20T11:23:16.001Z</time></trkpt><trkpt lat="14.53262687985218" lon="120.99306720992266"><ele>7.666666666666666</ele><time>2026-04-20T11:23:17.001Z</time></trkpt><trkpt lat="14.532717319506446" lon="120.99305180795912"><ele>8.0</ele><time>2026-04-20T11:23:18.001Z</time></trkpt><trkpt lat="14.532802740240745" lon="120.99303718635652"><ele>8.833333333333332</ele><time>2026-04-20T11:23:19.001Z</time></trkpt><trkpt lat="14.532889411058305" lon="120.99301934605624"><ele>9.666666666666666</ele><time>2026-04-20T11:23:20.001Z</time></trkpt><trkpt lat="14.532973338629818" lon="120.99300507484755"><ele>10.5</ele><time>2026-04-20T11:23:21.001Z</time></trkpt><trkpt lat="14.533051995411467" lon="120.99299221523012"><ele>11.333333333333332</ele><time>2026-04-20T11:23:22.001Z</time></trkpt><trkpt lat="14.53313921922634" lon="120.99297954376084"><ele>12.166666666666666</ele><time>2026-04-20T11:23:23.001Z</time></trkpt><trkpt lat="14.533225124303183" lon="120.9929687627946"><ele>13.0</ele><time>2026-04-20T11:23:24.001Z</time></trkpt><trkpt lat="14.533308383892685" lon="120.99296025544709"><ele>12.999999999999998</ele><time>2026-04-20T11:23:25.001Z</time></trkpt><trkpt lat="14.53338800141989" lon="120.99295242945496"><ele>13.0</ele><time>2026-04-20T11:23:26.001Z</time></trkpt><trkpt lat="14.53346787468968" lon="120.992944811381"><ele>13.0</ele><time>2026-04-20T11:23:27.001Z</time></trkpt><trkpt lat="14.53354613891175" lon="120.99293764817442"><ele>13.0</ele><time>2026-04-20T11:23:28.001Z</time></trkpt><trkpt lat="14.533643164913041" lon="120.99292477369842"><ele>12.999999999999998</ele><time>2026-04-20T11:23:29.001Z</time></trkpt><trkpt lat="14.533731398655473" lon="120.99292174099757"><ele>13.0</ele><time>2026-04-20T11:23:30.001Z</time></trkpt><trkpt lat="14.533807927033248" lon="120.9929148070171"><ele>11.999999999999998</ele><time>2026-04-20T11:23:31.001Z</time></trkpt><trkpt lat="14.533901396210025" lon="120.992902786007"><ele>11.0</ele><time>2026-04-20T11:23:32.001Z</time></trkpt><trkpt lat="14.533980399088236" lon="120.99289380116795"><ele>10.0</ele><time>2026-04-20T11:23:33.001Z</time></trkpt><trkpt lat="14.534061002867668" lon="120.99288416031081"><ele>9.0</ele><time>2026-04-20T11:23:34.001Z</time></trkpt><trkpt lat="14.534144679948529" lon="120.99287387745913"><ele>8.0</ele><time>2026-04-20T11:23:35.001Z</time></trkpt><trkpt lat="14.534225619296231" lon="120.99286078354808"><ele>7.0</ele><time>2026-04-20T11:23:36.001Z</time></trkpt><trkpt lat="14.534301404386666" lon="120.99285705975657"><ele>7.000000000000001</ele><time>2026-04-20T11:23:37.001Z</time></trkpt><trkpt lat="14.534396584410056" lon="120.99283827450674"><ele>7.0</ele><time>2026-04-20T11:23:38.001Z</time></trkpt><trkpt lat="14.534478093555634" lon="120.99283213263517"><ele>7.0</ele><time>2026-04-20T11:23:39.001Z</time></trkpt><trkpt lat="14.534561247099488" lon="120.99282505241801"><ele>7.0</ele><time>2026-04-20T11:23:40.001Z</time></trkpt><trkpt lat="14.534650233349286" lon="120.99283242474814"><ele>7.000000000000001</ele><time>2026-04-20T11:23:41.001Z</time></trkpt><trkpt lat="14.534733271676037" lon="120.99283080308366"><ele>7.0</ele><time>2026-04-20T11:23:42.001Z</time></trkpt><trkpt lat="14.534824547607359" lon="120.99282337303059"><ele>7.333333333333334</ele><time>2026-04-20T11:23:43.001Z</time></trkpt><trkpt lat="14.534904623453606" lon="120.99281696609282"><ele>7.666666666666667</ele><time>2026-04-20T11:23:44.001Z</time></trkpt><trkpt lat="14.534994863223508" lon="120.99280974593174"><ele>8.0</ele><time>2026-04-20T11:23:45.001Z</time></trkpt><trkpt lat="14.535093265885976" lon="120.9928020723043"><ele>8.333333333333334</ele><time>2026-04-20T11:23:46.001Z</time></trkpt><trkpt lat="14.53516925354994" lon="120.99279210623928"><ele>8.666666666666666</ele><time>2026-04-20T11:23:47.001Z</time></trkpt><trkpt lat="14.535247917592356" lon="120.99278178915675"><ele>9.0</ele><time>2026-04-20T11:23:48.001Z</time></trkpt><trkpt lat="14.53533364739598" lon="120.99272093749727"><ele>9.0</ele><time>2026-04-20T11:23:49.001Z</time></trkpt><trkpt lat="14.535429463251978" lon="120.99270889218177"><ele>9.0</ele><time>2026-04-20T11:23:50.001Z</time></trkpt><trkpt lat="14.535534295324746" lon="120.99270496466454"><ele>9.0</ele><time>2026-04-20T11:23:51.001Z</time></trkpt><trkpt lat="14.53563474181552" lon="120.99270132235957"><ele>9.0</ele><time>2026-04-20T11:23:52.001Z</time></trkpt><trkpt lat="14.535717746758182" lon="120.99268684847615"><ele>9.0</ele><time>2026-04-20T11:23:53.001Z</time></trkpt><trkpt lat="14.53578308753647" lon="120.99267997465483"><ele>9.0</ele><time>2026-04-20T11:23:54.001Z</time></trkpt><trkpt lat="14.535854946027188" lon="120.99266990792648"><ele>9.0</ele><time>2026-04-20T11:23:55.001Z</time></trkpt><trkpt lat="14.535931264442423" lon="120.99266069106248"><ele>9.0</ele><time>2026-04-20T11:23:56.001Z</time></trkpt><trkpt lat="14.536000189684728" lon="120.99264982865965"><ele>9.0</ele><time>2026-04-20T11:23:57.001Z</time></trkpt><trkpt lat="14.536078985560886" lon="120.99263709359138"><ele>9.0</ele><time>2026-04-20T11:23:58.001Z</time></trkpt><trkpt lat="14.536170010961506" lon="120.99262647282697"><ele>9.0</ele><time>2026-04-20T11:23:59.001Z</time></trkpt><trkpt lat="14.536251486279788" lon="120.99261507417981"><ele>9.833333333333334</ele><time>2026-04-20T11:24:00.001Z</time></trkpt><trkpt lat="14.536328714507334" lon="120.99260705373858"><ele>10.666666666666668</ele><time>2026-04-20T11:24:01.001Z</time></trkpt><trkpt lat="14.536408700341443" lon="120.99259593399323"><ele>11.5</ele><time>2026-04-20T11:24:02.001Z</time></trkpt><trkpt lat="14.536491027511122" lon="120.99258791154875"><ele>12.333333333333334</ele><time>2026-04-20T11:24:03.001Z</time></trkpt><trkpt lat="14.536579701787884" lon="120.9925784372068"><ele>13.166666666666668</ele><time>2026-04-20T11:24:04.001Z</time></trkpt><trkpt lat="14.53664414330135" lon="120.992569953195"><ele>14.0</ele><time>2026-04-20T11:24:05.001Z</time></trkpt><trkpt lat="14.536722574955363" lon="120.99256243182806"><ele>14.000000000000002</ele><time>2026-04-20T11:24:06.001Z</time></trkpt><trkpt lat="14.536803796704108" lon="120.99255247556302"><ele>14.0</ele><time>2026-04-20T11:24:07.001Z</time></trkpt><trkpt lat="14.536883458420512" lon="120.9925448089602"><ele>14.0</ele><time>2026-04-20T11:24:08.001Z</time></trkpt><trkpt lat="14.536968806242927" lon="120.992533366517"><ele>14.0</ele><time>2026-04-20T11:24:09.001Z</time></trkpt><trkpt lat="14.537054166122932" lon="120.99252376240588"><ele>14.000000000000002</ele><time>2026-04-20T11:24:10.001Z</time></trkpt><trkpt lat="14.53713175489293" lon="120.992516944466"><ele>14.0</ele><time>2026-04-20T11:24:11.001Z</time></trkpt><trkpt lat="14.537214286099475" lon="120.99250207121132"><ele>12.500000000000002</ele><time>2026-04-20T11:24:12.001Z</time></trkpt><trkpt lat="14.53729228788695" lon="120.99249346840006"><ele>11.0</ele><time>2026-04-20T11:24:13.001Z</time></trkpt><trkpt lat="14.53737918633251" lon="120.99248255952175"><ele>9.5</ele><time>2026-04-20T11:24:14.001Z</time></trkpt><trkpt lat="14.537463341506507" lon="120.99247458382249"><ele>8.0</ele><time>2026-04-20T11:24:15.001Z</time></trkpt><trkpt lat="14.537550997587582" lon="120.99246614935308"><ele>6.5</ele><time>2026-04-20T11:24:16.001Z</time></trkpt><trkpt lat="14.537643866034262" lon="120.99245629979578"><ele>5.0</ele><time>2026-04-20T11:24:17.001Z</time></trkpt><trkpt lat="14.537724288955022" lon="120.9924498839414"><ele>5.0</ele><time>2026-04-20T11:24:18.001Z</time></trkpt><trkpt lat="14.537816581964075" lon="120.99243801507352"><ele>5.0</ele><time>2026-04-20T11:24:19.001Z</time></trkpt><trkpt lat="14.53790460102811" lon="120.9924269754846"><ele>5.0</ele><time>2026-04-20T11:24:20.001Z</time></trkpt><trkpt lat="14.537999781041256" lon="120.9924164239477"><ele>5.0</ele><time>2026-04-20T11:24:21.001Z</time></trkpt><trkpt lat="14.538104498070167" lon="120.99240566654669"><ele>5.0</ele><time>2026-04-20T11:24:22.001Z</time></trkpt><trkpt lat="14.53821170435117" lon="120.99239309542743"><ele>5.8</ele><time>2026-04-20T11:24:23.001Z</time></trkpt><trkpt lat="14.538318617056772" lon="120.99237580222811"><ele>6.6</ele><time>2026-04-20T11:24:24.001Z</time></trkpt><trkpt lat="14.538415542911233" lon="120.99236601247816"><ele>7.4</ele><time>2026-04-20T11:24:25.001Z</time></trkpt><trkpt lat="14.538510715635978" lon="120.99235762824361"><ele>8.2</ele><time>2026-04-20T11:24:26.001Z</time></trkpt><trkpt lat="14.53860897946729" lon="120.9923692283893"><ele>9.0</ele><time>2026-04-20T11:24:27.001Z</time></trkpt><trkpt lat="14.5387061547271" lon="120.99235675381695"><ele>8.4</ele><time>2026-04-20T11:24:28.001Z</time></trkpt><trkpt lat="14.53880948978671" lon="120.99232654529793"><ele>7.800000000000001</ele><time>2026-04-20T11:24:29.001Z</time></trkpt><trkpt lat="14.538909225577715" lon="120.9923179539626"><ele>7.199999999999999</ele><time>2026-04-20T11:24:30.001Z</time></trkpt><trkpt lat="14.539007865666363" lon="120.99231033852196"><ele>6.6</ele><time>2026-04-20T11:24:31.001Z</time></trkpt><trkpt lat="14.539101355294214" lon="120.99230381340851"><ele>6.0</ele><time>2026-04-20T11:24:32.001Z</time></trkpt><trkpt lat="14.53920660918505" lon="120.992295708685"><ele>6.0</ele><time>2026-04-20T11:24:33.001Z</time></trkpt><trkpt lat="14.539304944405474" lon="120.99230077630843"><ele>6.0</ele><time>2026-04-20T11:24:34.001Z</time></trkpt><trkpt lat="14.539426106594144" lon="120.99229822957334"><ele>6.0</ele><time>2026-04-20T11:24:35.001Z</time></trkpt><trkpt lat="14.539561657498156" lon="120.9922894746466"><ele>6.0</ele><time>2026-04-20T11:24:36.001Z</time></trkpt><trkpt lat="14.53970217484963" lon="120.99227665267223"><ele>6.75</ele><time>2026-04-20T11:24:37.001Z</time></trkpt><trkpt lat="14.539844267959126" lon="120.99226031841407"><ele>7.5</ele><time>2026-04-20T11:24:38.001Z</time></trkpt><trkpt lat="14.539992582428605" lon="120.99223645610647"><ele>8.25</ele><time>2026-04-20T11:24:39.001Z</time></trkpt><trkpt lat="14.540139151525036" lon="120.99221425470996"><ele>9.0</ele><time>2026-04-20T11:24:40.001Z</time></trkpt><trkpt lat="14.540292013453396" lon="120.99219108046718"><ele>11.75</ele><time>2026-04-20T11:24:41.001Z</time></trkpt><trkpt lat="14.540442556986106" lon="120.99217069878263"><ele>14.5</ele><time>2026-04-20T11:24:42.001Z</time></trkpt><trkpt lat="14.54058470341735" lon="120.99214944408416"><ele>17.25</ele><time>2026-04-20T11:24:43.001Z</time></trkpt><trkpt lat="14.54073265487741" lon="120.99212692379396"><ele>20.0</ele><time>2026-04-20T11:24:44.001Z</time></trkpt><trkpt lat="14.540880318145165" lon="120.9921047743751"><ele>20.0</ele><time>2026-04-20T11:24:45.001Z</time></trkpt><trkpt lat="14.541033958955426" lon="120.99208788533636"><ele>20.0</ele><time>2026-04-20T11:24:46.001Z</time></trkpt><trkpt lat="14.541192798762465" lon="120.99206451493417"><ele>20.0</ele><time>2026-04-20T11:24:47.001Z</time></trkpt><trkpt lat="14.541347710776614" lon="120.99204257329629"><ele>15.666666666666668</ele><time>2026-04-20T11:24:48.001Z</time></trkpt><trkpt lat="14.541501144621185" lon="120.99201465105499"><ele>11.333333333333334</ele><time>2026-04-20T11:24:49.001Z</time></trkpt><trkpt lat="14.541675276797173" lon="120.9919798567712"><ele>7.0</ele><time>2026-04-20T11:24:50.001Z</time></trkpt><trkpt lat="14.541827184101736" lon="120.99195445806147"><ele>7.0</ele><time>2026-04-20T11:24:51.001Z</time></trkpt><trkpt lat="14.541995580064771" lon="120.99192383341997"><ele>7.0</ele><time>2026-04-20T11:24:52.001Z</time></trkpt><trkpt lat="14.542144490464572" lon="120.99190075454463"><ele>7.0</ele><time>2026-04-20T11:24:53.001Z</time></trkpt><trkpt lat="14.542299059743513" lon="120.99186943497608"><ele>7.333333333333334</ele><time>2026-04-20T11:24:54.001Z</time></trkpt><trkpt lat="14.542449129976532" lon="120.99184363064948"><ele>7.666666666666666</ele><time>2026-04-20T11:24:55.001Z</time></trkpt><trkpt lat="14.542594404392638" lon="120.99181853965618"><ele>8.0</ele><time>2026-04-20T11:24:56.001Z</time></trkpt><trkpt lat="14.542751227257295" lon="120.9917916003932"><ele>7.666666666666666</ele><time>2026-04-20T11:24:57.001Z</time></trkpt><trkpt lat="14.54289990208661" lon="120.99177420261312"><ele>7.333333333333334</ele><time>2026-04-20T11:24:58.001Z</time></trkpt><trkpt lat="14.543062912003938" lon="120.99174360017393"><ele>7.0</ele><time>2026-04-20T11:24:59.001Z</time></trkpt><trkpt lat="14.543231502408688" lon="120.99171698316438"><ele>7.0</ele><time>2026-04-20T11:25:00.001Z</time></trkpt><trkpt lat="14.54338454656452" lon="120.99168652806638"><ele>7.0</ele><time>2026-04-20T11:25:01.001Z</time></trkpt><trkpt lat="14.54354547306847" lon="120.99166020923862"><ele>7.0</ele><time>2026-04-20T11:25:02.001Z</time></trkpt><trkpt lat="14.543709853527918" lon="120.9916297274575"><ele>7.333333333333334</ele><time>2026-04-20T11:25:03.001Z</time></trkpt><trkpt lat="14.543863495147932" lon="120.99160161079463"><ele>7.666666666666666</ele><time>2026-04-20T11:25:04.001Z</time></trkpt><trkpt lat="14.544015706306462" lon="120.99157159553468"><ele>8.0</ele><time>2026-04-20T11:25:05.001Z</time></trkpt><trkpt lat="14.54416020436465" lon="120.99154475068312"><ele>8.0</ele><time>2026-04-20T11:25:06.001Z</time></trkpt><trkpt lat="14.544293754782803" lon="120.99152138921293"><ele>8.0</ele><time>2026-04-20T11:25:07.001Z</time></trkpt><trkpt lat="14.544408765841645" lon="120.99149508087032"><ele>8.0</ele><time>2026-04-20T11:25:08.001Z</time></trkpt><trkpt lat="14.544518367804644" lon="120.99146876237344"><ele>8.0</ele><time>2026-04-20T11:25:09.001Z</time></trkpt><trkpt lat="14.544612540465716" lon="120.99145446288583"><ele>8.75</ele><time>2026-04-20T11:25:10.001Z</time></trkpt><trkpt lat="14.544728515444017" lon="120.99143567261498"><ele>9.5</ele><time>2026-04-20T11:25:11.001Z</time></trkpt><trkpt lat="14.544847513509339" lon="120.99141329376968"><ele>10.25</ele><time>2026-04-20T11:25:12.001Z</time></trkpt><trkpt lat="14.54497382949368" lon="120.99138401731139"><ele>11.0</ele><time>2026-04-20T11:25:13.001Z</time></trkpt><trkpt lat="14.545083408487413" lon="120.99136060417587"><ele>11.0</ele><time>2026-04-20T11:25:14.001Z</time></trkpt><trkpt lat="14.545207534338326" lon="120.99132927537175"><ele>11.0</ele><time>2026-04-20T11:25:15.001Z</time></trkpt><trkpt lat="14.545306484065438" lon="120.99130233903753"><ele>11.0</ele><time>2026-04-20T11:25:16.001Z</time></trkpt><trkpt lat="14.545422764977227" lon="120.99127359597374"><ele>11.0</ele><time>2026-04-20T11:25:17.001Z</time></trkpt><trkpt lat="14.545540421730363" lon="120.99124836628609"><ele>10.0</ele><time>2026-04-20T11:25:18.001Z</time></trkpt><trkpt lat="14.545659103453058" lon="120.99122150424658"><ele>9.0</ele><time>2026-04-20T11:25:19.001Z</time></trkpt><trkpt lat="14.545779148787013" lon="120.99119552018293"><ele>8.0</ele><time>2026-04-20T11:25:20.001Z</time></trkpt><trkpt lat="14.545907788030487" lon="120.99116118697584"><ele>7.0</ele><time>2026-04-20T11:25:21.001Z</time></trkpt><trkpt lat="14.546050954799812" lon="120.99112912442283"><ele>7.0</ele><time>2026-04-20T11:25:22.001Z</time></trkpt><trkpt lat="14.546181419486508" lon="120.99109840025687"><ele>7.0</ele><time>2026-04-20T11:25:23.001Z</time></trkpt><trkpt lat="14.546318394938604" lon="120.99106448753396"><ele>7.0</ele><time>2026-04-20T11:25:24.001Z</time></trkpt><trkpt lat="14.546461567085412" lon="120.99102733849496"><ele>7.0</ele><time>2026-04-20T11:25:25.001Z</time></trkpt><trkpt lat="14.546607962569638" lon="120.9909896402718"><ele>7.5</ele><time>2026-04-20T11:25:26.001Z</time></trkpt><trkpt lat="14.546747267032986" lon="120.99095653619496"><ele>8.0</ele><time>2026-04-20T11:25:27.001Z</time></trkpt><trkpt lat="14.546899977070359" lon="120.99091587341921"><ele>8.5</ele><time>2026-04-20T11:25:28.001Z</time></trkpt><trkpt lat="14.547044085134685" lon="120.99088231687992"><ele>9.0</ele><time>2026-04-20T11:25:29.001Z</time></trkpt><trkpt lat="14.547192870769623" lon="120.99084579906753"><ele>8.666666666666666</ele><time>2026-04-20T11:25:30.001Z</time></trkpt><trkpt lat="14.547349245518596" lon="120.99080417064104"><ele>8.333333333333332</ele><time>2026-04-20T11:25:31.001Z</time></trkpt><trkpt lat="14.547505406389439" lon="120.99076609062246"><ele>8.0</ele><time>2026-04-20T11:25:32.001Z</time></trkpt><trkpt lat="14.547650394609613" lon="120.99073542394606"><ele>8.0</ele><time>2026-04-20T11:25:33.001Z</time></trkpt><trkpt lat="14.547809853166944" lon="120.9906959018284"><ele>8.0</ele><time>2026-04-20T11:25:34.001Z</time></trkpt><trkpt lat="14.547960304038686" lon="120.99066054349842"><ele>8.0</ele><time>2026-04-20T11:25:35.001Z</time></trkpt><trkpt lat="14.548111065568621" lon="120.99062312336581"><ele>10.333333333333332</ele><time>2026-04-20T11:25:36.001Z</time></trkpt><trkpt lat="14.548270380060636" lon="120.99058117469488"><ele>12.666666666666666</ele><time>2026-04-20T11:25:37.001Z</time></trkpt><trkpt lat="14.548415962991019" lon="120.99055129323938"><ele>15.0</ele><time>2026-04-20T11:25:38.001Z</time></trkpt><trkpt lat="14.548555769278599" lon="120.99052051722458"><ele>15.0</ele><time>2026-04-20T11:25:39.001Z</time></trkpt><trkpt lat="14.548682204934913" lon="120.99048840502554"><ele>15.0</ele><time>2026-04-20T11:25:40.001Z</time></trkpt><trkpt lat="14.548810915904586" lon="120.99045916689805"><ele>15.0</ele><time>2026-04-20T11:25:41.001Z</time></trkpt><trkpt lat="14.548930939411965" lon="120.99042823040357"><ele>15.0</ele><time>2026-04-20T11:25:42.001Z</time></trkpt><trkpt lat="14.549054892825913" lon="120.99039488038638"><ele>13.25</ele><time>2026-04-20T11:25:43.001Z</time></trkpt><trkpt lat="14.549172290045474" lon="120.9903666184993"><ele>11.5</ele><time>2026-04-20T11:25:44.001Z</time></trkpt><trkpt lat="14.549299357168756" lon="120.99033286314429"><ele>9.75</ele><time>2026-04-20T11:25:45.001Z</time></trkpt><trkpt lat="14.549425443744369" lon="120.99030028927363"><ele>8.0</ele><time>2026-04-20T11:25:46.001Z</time></trkpt><trkpt lat="14.54953885151683" lon="120.99027474956101"><ele>8.200000000000001</ele><time>2026-04-20T11:25:47.001Z</time></trkpt><trkpt lat="14.549643426021527" lon="120.99024888047506"><ele>8.4</ele><time>2026-04-20T11:25:48.001Z</time></trkpt><trkpt lat="14.549759463363895" lon="120.99021941264763"><ele>8.600000000000001</ele><time>2026-04-20T11:25:49.001Z</time></trkpt><trkpt lat="14.549867600066543" lon="120.99019801895984"><ele>8.8</ele><time>2026-04-20T11:25:50.001Z</time></trkpt><trkpt lat="14.549977009038182" lon="120.99017442567606"><ele>9.0</ele><time>2026-04-20T11:25:51.001Z</time></trkpt><trkpt lat="14.550089860957351" lon="120.99014979320813"><ele>9.0</ele><time>2026-04-20T11:25:52.001Z</time></trkpt><trkpt lat="14.550206467489256" lon="120.99012892500838"><ele>9.0</ele><time>2026-04-20T11:25:53.001Z</time></trkpt><trkpt lat="14.550327361086879" lon="120.99010559915074"><ele>9.0</ele><time>2026-04-20T11:25:54.001Z</time></trkpt><trkpt lat="14.550459829584199" lon="120.99007726788072"><ele>9.0</ele><time>2026-04-20T11:25:55.001Z</time></trkpt><trkpt lat="14.550584969124914" lon="120.99005438177812"><ele>9.0</ele><time>2026-04-20T11:25:56.001Z</time></trkpt><trkpt lat="14.550725167131487" lon="120.99002651509473"><ele>9.0</ele><time>2026-04-20T11:25:57.001Z</time></trkpt><trkpt lat="14.550867308795237" lon="120.9899987529995"><ele>9.0</ele><time>2026-04-20T11:25:58.001Z</time></trkpt><trkpt lat="14.551015126611073" lon="120.9899698575715"><ele>9.0</ele><time>2026-04-20T11:25:59.001Z</time></trkpt><trkpt lat="14.551173177126893" lon="120.98992685228092"><ele>9.0</ele><time>2026-04-20T11:26:00.001Z</time></trkpt><trkpt lat="14.551318403889361" lon="120.989898350003"><ele>9.0</ele><time>2026-04-20T11:26:01.001Z</time></trkpt><trkpt lat="14.551465502872846" lon="120.98986211528991"><ele>9.0</ele><time>2026-04-20T11:26:02.001Z</time></trkpt><trkpt lat="14.551593927238448" lon="120.98983257793046"><ele>9.0</ele><time>2026-04-20T11:26:03.001Z</time></trkpt><trkpt lat="14.551721790430632" lon="120.98979813379013"><ele>9.0</ele><time>2026-04-20T11:26:04.001Z</time></trkpt><trkpt lat="14.551831512052523" lon="120.98978091487521"><ele>9.0</ele><time>2026-04-20T11:26:05.001Z</time></trkpt><trkpt lat="14.551936852747234" lon="120.98975383192158"><ele>9.0</ele><time>2026-04-20T11:26:06.001Z</time></trkpt><trkpt lat="14.552022549028386" lon="120.98973651653502"><ele>9.0</ele><time>2026-04-20T11:26:07.001Z</time></trkpt><trkpt lat="14.552121013998656" lon="120.98973646131297"><ele>9.0</ele><time>2026-04-20T11:26:09.001Z</time></trkpt><trkpt lat="14.552216670424702" lon="120.98985104664288"><ele>9.2</ele><time>2026-04-20T11:26:12.001Z</time></trkpt><trkpt lat="14.552272031635763" lon="120.98997062340196"><ele>9.4</ele><time>2026-04-20T11:26:14.001Z</time></trkpt><trkpt lat="14.552297214255155" lon="120.99005467738381"><ele>9.6</ele><time>2026-04-20T11:26:15.001Z</time></trkpt><trkpt lat="14.552314259724083" lon="120.99014849051729"><ele>9.8</ele><time>2026-04-20T11:26:16.001Z</time></trkpt><trkpt lat="14.55235529439329" lon="120.99024493988088"><ele>10.0</ele><time>2026-04-20T11:26:17.001Z</time></trkpt><trkpt lat="14.552395513740374" lon="120.99034851190268"><ele>10.0</ele><time>2026-04-20T11:26:18.001Z</time></trkpt><trkpt lat="14.552441354726662" lon="120.99045738561722"><ele>10.0</ele><time>2026-04-20T11:26:19.001Z</time></trkpt><trkpt lat="14.552484000848064" lon="120.99057133913934"><ele>10.0</ele><time>2026-04-20T11:26:20.001Z</time></trkpt><trkpt lat="14.55252734337906" lon="120.99069437583157"><ele>10.0</ele><time>2026-04-20T11:26:21.001Z</time></trkpt><trkpt lat="14.552572300547281" lon="120.99082087965697"><ele>10.0</ele><time>2026-04-20T11:26:22.001Z</time></trkpt><trkpt lat="14.552617436869747" lon="120.99095145063025"><ele>10.0</ele><time>2026-04-20T11:26:23.001Z</time></trkpt><trkpt lat="14.552662052290843" lon="120.9910863384331"><ele>10.0</ele><time>2026-04-20T11:26:24.001Z</time></trkpt><trkpt lat="14.552710012270632" lon="120.99122568516408"><ele>10.0</ele><time>2026-04-20T11:26:25.001Z</time></trkpt><trkpt lat="14.552755443445761" lon="120.99136341093255"><ele>10.0</ele><time>2026-04-20T11:26:26.001Z</time></trkpt><trkpt lat="14.552800057646206" lon="120.99149440808849"><ele>10.0</ele><time>2026-04-20T11:26:27.001Z</time></trkpt><trkpt lat="14.552843220588585" lon="120.99161641101227"><ele>10.0</ele><time>2026-04-20T11:26:28.001Z</time></trkpt><trkpt lat="14.552884304563271" lon="120.99174607236402"><ele>10.0</ele><time>2026-04-20T11:26:29.001Z</time></trkpt><trkpt lat="14.552930533501353" lon="120.9918854325977"><ele>10.0</ele><time>2026-04-20T11:26:30.001Z</time></trkpt><trkpt lat="14.552977037249102" lon="120.99203502685351"><ele>10.0</ele><time>2026-04-20T11:26:31.001Z</time></trkpt><trkpt lat="14.553019536373196" lon="120.99219544537283"><ele>10.0</ele><time>2026-04-20T11:26:32.001Z</time></trkpt><trkpt lat="14.553069363974389" lon="120.99235756572797"><ele>9.666666666666668</ele><time>2026-04-20T11:26:33.001Z</time></trkpt><trkpt lat="14.553114959871444" lon="120.99252800336475"><ele>9.333333333333334</ele><time>2026-04-20T11:26:34.001Z</time></trkpt><trkpt lat="14.553158156789461" lon="120.9927018341011"><ele>9.0</ele><time>2026-04-20T11:26:35.001Z</time></trkpt><trkpt lat="14.55319338513483" lon="120.9928776617968"><ele>9.0</ele><time>2026-04-20T11:26:36.001Z</time></trkpt><trkpt lat="14.553229213261668" lon="120.993070341751"><ele>9.0</ele><time>2026-04-20T11:26:37.001Z</time></trkpt><trkpt lat="14.553259148023406" lon="120.99325872666813"><ele>9.0</ele><time>2026-04-20T11:26:38.001Z</time></trkpt><trkpt lat="14.553284628228909" lon="120.9934505520736"><ele>9.333333333333334</ele><time>2026-04-20T11:26:39.001Z</time></trkpt><trkpt lat="14.553302144577861" lon="120.99362680184083"><ele>9.666666666666668</ele><time>2026-04-20T11:26:40.001Z</time></trkpt><trkpt lat="14.553316775573542" lon="120.99379226708238"><ele>10.0</ele><time>2026-04-20T11:26:41.001Z</time></trkpt><trkpt lat="14.553332118614003" lon="120.99394537901777"><ele>10.0</ele><time>2026-04-20T11:26:42.001Z</time></trkpt><trkpt lat="14.553347285189172" lon="120.99407586534268"><ele>10.0</ele><time>2026-04-20T11:26:43.001Z</time></trkpt><trkpt lat="14.553362808922266" lon="120.99419362553748"><ele>10.0</ele><time>2026-04-20T11:26:44.001Z</time></trkpt><trkpt lat="14.553375863038596" lon="120.99430442337453"><ele>10.0</ele><time>2026-04-20T11:26:45.001Z</time></trkpt><trkpt lat="14.553386025001016" lon="120.99441876859834"><ele>9.25</ele><time>2026-04-20T11:26:46.001Z</time></trkpt><trkpt lat="14.5533996172706" lon="120.9945385234482"><ele>8.5</ele><time>2026-04-20T11:26:47.001Z</time></trkpt><trkpt lat="14.553418899574405" lon="120.99465994284915"><ele>7.75</ele><time>2026-04-20T11:26:48.001Z</time></trkpt><trkpt lat="14.55343952009216" lon="120.99478639049481"><ele>7.0</ele><time>2026-04-20T11:26:49.001Z</time></trkpt><trkpt lat="14.553459608351503" lon="120.9949065523107"><ele>8.2</ele><time>2026-04-20T11:26:50.001Z</time></trkpt><trkpt lat="14.553480195876586" lon="120.99501808046966"><ele>9.399999999999999</ele><time>2026-04-20T11:26:51.001Z</time></trkpt><trkpt lat="14.553501824915445" lon="120.9951289476161"><ele>10.600000000000001</ele><time>2026-04-20T11:26:52.001Z</time></trkpt><trkpt lat="14.553522590083793" lon="120.99524072007215"><ele>11.8</ele><time>2026-04-20T11:26:53.001Z</time></trkpt><trkpt lat="14.553539212057386" lon="120.99535602646999"><ele>13.0</ele><time>2026-04-20T11:26:54.001Z</time></trkpt><trkpt lat="14.553558269212264" lon="120.9954704436043"><ele>13.0</ele><time>2026-04-20T11:26:55.001Z</time></trkpt><trkpt lat="14.553573041882101" lon="120.99557081662469"><ele>13.0</ele><time>2026-04-20T11:26:56.001Z</time></trkpt><trkpt lat="14.553596358435886" lon="120.99567198526651"><ele>13.0</ele><time>2026-04-20T11:26:57Z</time></trkpt><trkpt lat="14.553620735089508" lon="120.9957710455296"><ele>13.0</ele><time>2026-04-20T11:26:58Z</time></trkpt><trkpt lat="14.553646416244487" lon="120.99587381951187"><ele>13.0</ele><time>2026-04-20T11:26:59Z</time></trkpt><trkpt lat="14.553672155007632" lon="120.9959771036139"><ele>13.600000000000001</ele><time>2026-04-20T11:27:00Z</time></trkpt><trkpt lat="14.55369247292395" lon="120.99607556404037"><ele>14.200000000000001</ele><time>2026-04-20T11:27:01Z</time></trkpt><trkpt lat="14.553715498365277" lon="120.9961755689783"><ele>14.8</ele><time>2026-04-20T11:27:02Z</time></trkpt><trkpt lat="14.553731992169341" lon="120.99626107629075"><ele>15.4</ele><time>2026-04-20T11:27:03Z</time></trkpt><trkpt lat="14.55375446032538" lon="120.99635542773994"><ele>16.0</ele><time>2026-04-20T11:27:04Z</time></trkpt><trkpt lat="14.553782763636555" lon="120.99646040069099"><ele>14.833333333333332</ele><time>2026-04-20T11:27:05Z</time></trkpt><trkpt lat="14.55379602333358" lon="120.9965416266357"><ele>13.666666666666666</ele><time>2026-04-20T11:27:06Z</time></trkpt><trkpt lat="14.553812754795151" lon="120.99662896068217"><ele>12.5</ele><time>2026-04-20T11:27:07Z</time></trkpt><trkpt lat="14.553832502406376" lon="120.99670756732692"><ele>11.333333333333332</ele><time>2026-04-20T11:27:08Z</time></trkpt><trkpt lat="14.553852717864604" lon="120.99678524503074"><ele>10.166666666666666</ele><time>2026-04-20T11:27:09Z</time></trkpt><trkpt lat="14.553866480505496" lon="120.99684886619268"><ele>9.0</ele><time>2026-04-20T11:27:10Z</time></trkpt><trkpt lat="14.553894550385177" lon="120.996932533987"><ele>8.5</ele><time>2026-04-20T11:27:12Z</time></trkpt><trkpt lat="14.55394521313101" lon="120.99699501800573"><ele>8.0</ele><time>2026-04-20T11:27:54.001Z</time></trkpt><trkpt lat="14.553948262426312" lon="120.99706273891847"><ele>7.5</ele><time>2026-04-20T11:27:56.001Z</time></trkpt><trkpt lat="14.553973859404401" lon="120.99713948775829"><ele>7.0</ele><time>2026-04-20T11:27:58.001Z</time></trkpt><trkpt lat="14.554039092754445" lon="120.99715842801089"><ele>6.5</ele><time>2026-04-20T11:27:59.001Z</time></trkpt><trkpt lat="14.554131755610673" lon="120.99718934465913"><ele>6.0</ele><time>2026-04-20T11:28:01.001Z</time></trkpt><trkpt lat="14.554219125479175" lon="120.99718400307269"><ele>6.0</ele><time>2026-04-20T11:28:03.001Z</time></trkpt><trkpt lat="14.554292299187798" lon="120.99715717056708"><ele>6.0</ele><time>2026-04-20T11:28:06.001Z</time></trkpt><trkpt lat="14.55438693162937" lon="120.99711492064954"><ele>6.0</ele><time>2026-04-20T11:28:10.001Z</time></trkpt><trkpt lat="14.554465890075093" lon="120.9970730813423"><ele>6.0</ele><time>2026-04-20T11:28:12.001Z</time></trkpt><trkpt lat="14.554539068428445" lon="120.99708415026493"><ele>6.0</ele><time>2026-04-20T11:28:14.001Z</time></trkpt><trkpt lat="14.554676596364958" lon="120.99705823086683"><ele>6.6</ele><time>2026-04-20T11:28:16.001Z</time></trkpt><trkpt lat="14.554773373196102" lon="120.9970422444099"><ele>7.199999999999999</ele><time>2026-04-20T11:28:17.001Z</time></trkpt><trkpt lat="14.55487714485567" lon="120.99702177493366"><ele>7.800000000000001</ele><time>2026-04-20T11:28:18.001Z</time></trkpt><trkpt lat="14.55497999208138" lon="120.99699707778979"><ele>8.4</ele><time>2026-04-20T11:28:19.001Z</time></trkpt><trkpt lat="14.555090925343631" lon="120.9969655217438"><ele>9.0</ele><time>2026-04-20T11:28:20.001Z</time></trkpt><trkpt lat="14.555209941148938" lon="120.99693537234639"><ele>9.0</ele><time>2026-04-20T11:28:21.001Z</time></trkpt><trkpt lat="14.555301753725255" lon="120.99691948642247"><ele>9.0</ele><time>2026-04-20T11:28:22.001Z</time></trkpt><trkpt lat="14.555391663937877" lon="120.99690266419186"><ele>9.0</ele><time>2026-04-20T11:28:23.001Z</time></trkpt><trkpt lat="14.55546986671936" lon="120.99689030152345"><ele>9.0</ele><time>2026-04-20T11:28:24.001Z</time></trkpt><trkpt lat="14.555555282152767" lon="120.9968604136558"><ele>9.0</ele><time>2026-04-20T11:28:25.001Z</time></trkpt><trkpt lat="14.55564381184885" lon="120.996844084968"><ele>9.0</ele><time>2026-04-20T11:28:26.001Z</time></trkpt><trkpt lat="14.555733892068133" lon="120.99682613971233"><ele>9.0</ele><time>2026-04-20T11:28:27.001Z</time></trkpt><trkpt lat="14.555820532598673" lon="120.99680689393652"><ele>9.0</ele><time>2026-04-20T11:28:28.001Z</time></trkpt><trkpt lat="14.555910267617088" lon="120.99678107272364"><ele>9.0</ele><time>2026-04-20T11:28:29.001Z</time></trkpt><trkpt lat="14.555992422133842" lon="120.99676417484606"><ele>9.0</ele><time>2026-04-20T11:28:30.001Z</time></trkpt><trkpt lat="14.556064355836806" lon="120.9967391771516"><ele>9.0</ele><time>2026-04-20T11:28:31.001Z</time></trkpt><trkpt lat="14.55613939138345" lon="120.99671646468178"><ele>9.0</ele><time>2026-04-20T11:28:32.001Z</time></trkpt><trkpt lat="14.556210459004559" lon="120.99670279110926"><ele>9.2</ele><time>2026-04-20T11:28:33.001Z</time></trkpt><trkpt lat="14.55629331470684" lon="120.99668926808663"><ele>9.4</ele><time>2026-04-20T11:28:34.001Z</time></trkpt><trkpt lat="14.556376164380925" lon="120.99668555832243"><ele>9.6</ele><time>2026-04-20T11:28:35.001Z</time></trkpt><trkpt lat="14.556457675963165" lon="120.99666302179692"><ele>9.8</ele><time>2026-04-20T11:28:36.001Z</time></trkpt><trkpt lat="14.55653199246009" lon="120.99663561224445"><ele>10.0</ele><time>2026-04-20T11:28:37.001Z</time></trkpt><trkpt lat="14.556661496414394" lon="120.99660241287984"><ele>10.166666666666668</ele><time>2026-04-20T11:28:39.001Z</time></trkpt><trkpt lat="14.556732719490604" lon="120.99659059208182"><ele>10.333333333333334</ele><time>2026-04-20T11:28:40.001Z</time></trkpt><trkpt lat="14.556807511749685" lon="120.99657651376818"><ele>10.5</ele><time>2026-04-20T11:28:41.001Z</time></trkpt><trkpt lat="14.556879550124918" lon="120.99656320532435"><ele>10.666666666666666</ele><time>2026-04-20T11:28:42.001Z</time></trkpt><trkpt lat="14.556956374131907" lon="120.99654639714076"><ele>10.833333333333332</ele><time>2026-04-20T11:28:43.001Z</time></trkpt><trkpt lat="14.557034275880724" lon="120.9965247240205"><ele>11.0</ele><time>2026-04-20T11:28:44.001Z</time></trkpt><trkpt lat="14.557114200091037" lon="120.99650321928578"><ele>11.0</ele><time>2026-04-20T11:28:45.001Z</time></trkpt><trkpt lat="14.557199816023621" lon="120.99647977115367"><ele>11.0</ele><time>2026-04-20T11:28:46.001Z</time></trkpt><trkpt lat="14.557277941858583" lon="120.99646687437021"><ele>11.0</ele><time>2026-04-20T11:28:47.001Z</time></trkpt><trkpt lat="14.55735083372794" lon="120.99644836258565"><ele>11.0</ele><time>2026-04-20T11:28:48.001Z</time></trkpt><trkpt lat="14.557420570690224" lon="120.99642866141383"><ele>11.0</ele><time>2026-04-20T11:28:49.001Z</time></trkpt><trkpt lat="14.557507001572406" lon="120.99642323870007"><ele>11.0</ele><time>2026-04-20T11:28:50.001Z</time></trkpt><trkpt lat="14.55760268424298" lon="120.99640175656009"><ele>11.0</ele><time>2026-04-20T11:28:51.001Z</time></trkpt><trkpt lat="14.55770091400936" lon="120.99637634200484"><ele>11.0</ele><time>2026-04-20T11:28:52.001Z</time></trkpt><trkpt lat="14.557797327170501" lon="120.99634997218017"><ele>11.0</ele><time>2026-04-20T11:28:53.001Z</time></trkpt><trkpt lat="14.557892889148576" lon="120.99633079299811"><ele>11.0</ele><time>2026-04-20T11:28:54.001Z</time></trkpt><trkpt lat="14.557977762721622" lon="120.9963024901049"><ele>11.0</ele><time>2026-04-20T11:28:55.001Z</time></trkpt><trkpt lat="14.558042907055007" lon="120.99626775523205"><ele>10.5</ele><time>2026-04-20T11:28:56.001Z</time></trkpt><trkpt lat="14.558107809884222" lon="120.99624174723873"><ele>10.0</ele><time>2026-04-20T11:28:57.001Z</time></trkpt><trkpt lat="14.558195862453791" lon="120.99623197623852"><ele>9.5</ele><time>2026-04-20T11:28:59Z</time></trkpt><trkpt lat="14.558120315298542" lon="120.99599759214382"><ele>9.0</ele><time>2026-04-20T11:29:21Z</time></trkpt><trkpt lat="14.558099523960147" lon="120.99592843823291"><ele>9.0</ele><time>2026-04-20T11:29:24Z</time></trkpt><trkpt lat="14.558098863130752" lon="120.99585921679584"><ele>9.0</ele><time>2026-04-20T11:29:28Z</time></trkpt><trkpt lat="14.558098237020493" lon="120.9957876863088"><ele>9.0</ele><time>2026-04-20T11:29:31.06Z</time></trkpt><trkpt lat="14.558096605929544" lon="120.99571496753528"><ele>9.0</ele><time>2026-04-20T11:29:36.041Z</time></trkpt><trkpt lat="14.558096094209105" lon="120.9956144791928"><ele>9.0</ele><time>2026-04-20T11:29:39.029Z</time></trkpt><trkpt lat="14.55811210302876" lon="120.99555124699714"><ele>9.0</ele><time>2026-04-20T11:29:41.028Z</time></trkpt><trkpt lat="14.557639746254194" lon="120.9949151199944"><ele>8.0</ele><time>2026-04-20T11:30:01Z</time></trkpt><trkpt lat="14.557759755361792" lon="120.99536869565213"><ele>8.0</ele><time>2026-04-20T11:30:21Z</time></trkpt><trkpt lat="14.557806316298818" lon="120.99541762499835"><ele>8.0</ele><time>2026-04-20T11:30:22Z</time></trkpt><trkpt lat="14.557897358376222" lon="120.99547781949545"><ele>8.0</ele><time>2026-04-20T11:30:24Z</time></trkpt><trkpt lat="14.558000948474888" lon="120.99553306835091"><ele>8.0</ele><time>2026-04-20T11:30:26Z</time></trkpt><trkpt lat="14.5580684865432" lon="120.99558011447506"><ele>8.0</ele><time>2026-04-20T11:30:27Z</time></trkpt><trkpt lat="14.558142913724387" lon="120.99564703207626"><ele>8.200000000000001</ele><time>2026-04-20T11:30:28.069Z</time></trkpt><trkpt lat="14.558214654173478" lon="120.99572259602265"><ele>8.4</ele><time>2026-04-20T11:30:29.039Z</time></trkpt><trkpt lat="14.558287033781701" lon="120.9958083641416"><ele>8.600000000000001</ele><time>2026-04-20T11:30:30.036Z</time></trkpt><trkpt lat="14.558352814394237" lon="120.99589732917788"><ele>8.8</ele><time>2026-04-20T11:30:31.037Z</time></trkpt><trkpt lat="14.558408706159838" lon="120.99598790938619"><ele>9.0</ele><time>2026-04-20T11:30:32.039Z</time></trkpt><trkpt lat="14.558463253600884" lon="120.99608777351673"><ele>9.0</ele><time>2026-04-20T11:30:33.032Z</time></trkpt><trkpt lat="14.558574319035392" lon="120.9962013271661"><ele>9.0</ele><time>2026-04-20T11:30:35.03Z</time></trkpt><trkpt lat="14.558654506737271" lon="120.9963098116635"><ele>9.0</ele><time>2026-04-20T11:30:36.029Z</time></trkpt><trkpt lat="14.5587412446484" lon="120.99641143016207"><ele>9.0</ele><time>2026-04-20T11:30:37.028Z</time></trkpt><trkpt lat="14.558838447320236" lon="120.99652066946092"><ele>9.0</ele><time>2026-04-20T11:30:38.028Z</time></trkpt><trkpt lat="14.558940685979143" lon="120.9966204864064"><ele>9.0</ele><time>2026-04-20T11:30:39.027Z</time></trkpt><trkpt lat="14.55905038448669" lon="120.99671869412322"><ele>9.0</ele><time>2026-04-20T11:30:40.028Z</time></trkpt><trkpt lat="14.559174334458666" lon="120.99681533163725"><ele>9.0</ele><time>2026-04-20T11:30:41.027Z</time></trkpt><trkpt lat="14.559317208380888" lon="120.99690992992754"><ele>9.0</ele><time>2026-04-20T11:30:42.027Z</time></trkpt><trkpt lat="14.558799877284393" lon="120.9953113154276"><ele>9.0</ele><time>2026-04-20T11:32:02.001Z</time></trkpt><trkpt lat="14.558590861182672" lon="120.9953463638108"><ele>9.0</ele><time>2026-04-20T11:32:03.001Z</time></trkpt><trkpt lat="14.55850020394033" lon="120.99536364912831"><ele>9.0</ele><time>2026-04-20T11:32:04.001Z</time></trkpt><trkpt lat="14.558376949091825" lon="120.99538383057495"><ele>9.0</ele><time>2026-04-20T11:32:06.001Z</time></trkpt><trkpt lat="14.558310786078613" lon="120.99537660365965"><ele>9.0</ele><time>2026-04-20T11:32:08Z</time></trkpt><trkpt lat="14.558302930679899" lon="120.99530903364162"><ele>9.0</ele><time>2026-04-20T11:35:56.001Z</time></trkpt></trkseg></trk></gpx>